<?xml version="1.0" encoding="UTF-8" standalone="no" ?>
<gpx xmlns="http://www.topografix.com/GPX/1/1" xmlns:xsi="http://www.w3.org/2001/XMLSchema-instance" xsi:schemaLocation="http://www.topografix.com/GPX/1/1 http://www.topografix.com/GPX/1/1/gpx.xsd" version="1.1" creator="VisuGPX - https://www.visugpx.com">
  <metadata>
    <name>tout le tourmalet</name>
  </metadata>
  <trk>
    <name><![CDATA[tout le tourmalet_1]]></name>
    <trkseg>
      <trkpt lat="42.89532" lon="0.06294">
        <ele>1247.2</ele>
        <time>2019-08-18T09:26:51Z</time>
      </trkpt>
      <trkpt lat="42.89536" lon="0.06295">
        <ele>1247.2</ele>
        <time>2019-08-18T09:26:53Z</time>
      </trkpt>
      <trkpt lat="42.89539" lon="0.06301">
        <ele>1248</ele>
        <time>2019-08-18T09:26:56Z</time>
      </trkpt>
      <trkpt lat="42.89539" lon="0.06306">
        <ele>1248.3</ele>
        <time>2019-08-18T09:26:57Z</time>
      </trkpt>
      <trkpt lat="42.8954" lon="0.0631">
        <ele>1248.6</ele>
        <time>2019-08-18T09:26:58Z</time>
      </trkpt>
      <trkpt lat="42.89541" lon="0.06315">
        <ele>1249</ele>
        <time>2019-08-18T09:26:59Z</time>
      </trkpt>
      <trkpt lat="42.89542" lon="0.0632">
        <ele>1249.4</ele>
        <time>2019-08-18T09:27:00Z</time>
      </trkpt>
      <trkpt lat="42.89543" lon="0.06325">
        <ele>1249.9</ele>
        <time>2019-08-18T09:27:01Z</time>
      </trkpt>
      <trkpt lat="42.89544" lon="0.0633">
        <ele>1250.3</ele>
        <time>2019-08-18T09:27:02Z</time>
      </trkpt>
      <trkpt lat="42.89545" lon="0.06336">
        <ele>1250.8</ele>
        <time>2019-08-18T09:27:03Z</time>
      </trkpt>
      <trkpt lat="42.89547" lon="0.06341">
        <ele>1251.2</ele>
        <time>2019-08-18T09:27:04Z</time>
      </trkpt>
      <trkpt lat="42.89548" lon="0.06347">
        <ele>1251.7</ele>
        <time>2019-08-18T09:27:05Z</time>
      </trkpt>
      <trkpt lat="42.89549" lon="0.06351">
        <ele>1252</ele>
        <time>2019-08-18T09:27:06Z</time>
      </trkpt>
      <trkpt lat="42.8955" lon="0.06356">
        <ele>1252.4</ele>
        <time>2019-08-18T09:27:07Z</time>
      </trkpt>
      <trkpt lat="42.89552" lon="0.06361">
        <ele>1252.5</ele>
        <time>2019-08-18T09:27:08Z</time>
      </trkpt>
      <trkpt lat="42.89553" lon="0.06365">
        <ele>1252.6</ele>
        <time>2019-08-18T09:27:09Z</time>
      </trkpt>
      <trkpt lat="42.89554" lon="0.0637">
        <ele>1252.7</ele>
        <time>2019-08-18T09:27:10Z</time>
      </trkpt>
      <trkpt lat="42.89556" lon="0.06375">
        <ele>1252.9</ele>
        <time>2019-08-18T09:27:11Z</time>
      </trkpt>
      <trkpt lat="42.89558" lon="0.06379">
        <ele>1253</ele>
        <time>2019-08-18T09:27:12Z</time>
      </trkpt>
      <trkpt lat="42.89561" lon="0.06383">
        <ele>1253.1</ele>
        <time>2019-08-18T09:27:13Z</time>
      </trkpt>
      <trkpt lat="42.89563" lon="0.06388">
        <ele>1253.2</ele>
        <time>2019-08-18T09:27:14Z</time>
      </trkpt>
      <trkpt lat="42.89565" lon="0.06393">
        <ele>1253.2</ele>
        <time>2019-08-18T09:27:15Z</time>
      </trkpt>
      <trkpt lat="42.89566" lon="0.06397">
        <ele>1253.3</ele>
        <time>2019-08-18T09:27:16Z</time>
      </trkpt>
      <trkpt lat="42.89568" lon="0.06401">
        <ele>1253.4</ele>
        <time>2019-08-18T09:27:17Z</time>
      </trkpt>
      <trkpt lat="42.8957" lon="0.06406">
        <ele>1253.5</ele>
        <time>2019-08-18T09:27:18Z</time>
      </trkpt>
      <trkpt lat="42.89572" lon="0.0641">
        <ele>1253.6</ele>
        <time>2019-08-18T09:27:19Z</time>
      </trkpt>
      <trkpt lat="42.89575" lon="0.06414">
        <ele>1253.6</ele>
        <time>2019-08-18T09:27:20Z</time>
      </trkpt>
      <trkpt lat="42.89577" lon="0.06419">
        <ele>1253.7</ele>
        <time>2019-08-18T09:27:21Z</time>
      </trkpt>
      <trkpt lat="42.89579" lon="0.06424">
        <ele>1253.8</ele>
        <time>2019-08-18T09:27:22Z</time>
      </trkpt>
      <trkpt lat="42.8958" lon="0.06429">
        <ele>1253.9</ele>
        <time>2019-08-18T09:27:23Z</time>
      </trkpt>
      <trkpt lat="42.89582" lon="0.06434">
        <ele>1254</ele>
        <time>2019-08-18T09:27:24Z</time>
      </trkpt>
      <trkpt lat="42.89584" lon="0.06439">
        <ele>1254</ele>
        <time>2019-08-18T09:27:25Z</time>
      </trkpt>
      <trkpt lat="42.89585" lon="0.06445">
        <ele>1254</ele>
        <time>2019-08-18T09:27:26Z</time>
      </trkpt>
      <trkpt lat="42.89588" lon="0.0645">
        <ele>1254.1</ele>
        <time>2019-08-18T09:27:27Z</time>
      </trkpt>
      <trkpt lat="42.8959" lon="0.06455">
        <ele>1254.1</ele>
        <time>2019-08-18T09:27:28Z</time>
      </trkpt>
      <trkpt lat="42.89592" lon="0.0646">
        <ele>1254.1</ele>
        <time>2019-08-18T09:27:29Z</time>
      </trkpt>
      <trkpt lat="42.89595" lon="0.06465">
        <ele>1254.1</ele>
        <time>2019-08-18T09:27:30Z</time>
      </trkpt>
      <trkpt lat="42.89597" lon="0.06471">
        <ele>1254.2</ele>
        <time>2019-08-18T09:27:31Z</time>
      </trkpt>
      <trkpt lat="42.896" lon="0.06476">
        <ele>1254.2</ele>
        <time>2019-08-18T09:27:32Z</time>
      </trkpt>
      <trkpt lat="42.89602" lon="0.06481">
        <ele>1254.2</ele>
        <time>2019-08-18T09:27:33Z</time>
      </trkpt>
      <trkpt lat="42.89604" lon="0.06486">
        <ele>1254.2</ele>
        <time>2019-08-18T09:27:34Z</time>
      </trkpt>
      <trkpt lat="42.89607" lon="0.06491">
        <ele>1254.1</ele>
        <time>2019-08-18T09:27:35Z</time>
      </trkpt>
      <trkpt lat="42.8961" lon="0.06496">
        <ele>1254.2</ele>
        <time>2019-08-18T09:27:36Z</time>
      </trkpt>
      <trkpt lat="42.89613" lon="0.06501">
        <ele>1254.2</ele>
        <time>2019-08-18T09:27:37Z</time>
      </trkpt>
      <trkpt lat="42.89616" lon="0.06506">
        <ele>1254.2</ele>
        <time>2019-08-18T09:27:38Z</time>
      </trkpt>
      <trkpt lat="42.89618" lon="0.0651">
        <ele>1254.3</ele>
        <time>2019-08-18T09:27:39Z</time>
      </trkpt>
      <trkpt lat="42.8962" lon="0.06516">
        <ele>1254.3</ele>
        <time>2019-08-18T09:27:40Z</time>
      </trkpt>
      <trkpt lat="42.89624" lon="0.06522">
        <ele>1254.4</ele>
        <time>2019-08-18T09:27:41Z</time>
      </trkpt>
      <trkpt lat="42.89628" lon="0.06527">
        <ele>1254.4</ele>
        <time>2019-08-18T09:27:42Z</time>
      </trkpt>
      <trkpt lat="42.89631" lon="0.06533">
        <ele>1254.4</ele>
        <time>2019-08-18T09:27:43Z</time>
      </trkpt>
      <trkpt lat="42.89636" lon="0.06539">
        <ele>1254.4</ele>
        <time>2019-08-18T09:27:44Z</time>
      </trkpt>
      <trkpt lat="42.8964" lon="0.06544">
        <ele>1254.3</ele>
        <time>2019-08-18T09:27:45Z</time>
      </trkpt>
      <trkpt lat="42.89643" lon="0.0655">
        <ele>1254.3</ele>
        <time>2019-08-18T09:27:46Z</time>
      </trkpt>
      <trkpt lat="42.89647" lon="0.06557">
        <ele>1254.3</ele>
        <time>2019-08-18T09:27:47Z</time>
      </trkpt>
      <trkpt lat="42.89651" lon="0.06563">
        <ele>1254.3</ele>
        <time>2019-08-18T09:27:48Z</time>
      </trkpt>
      <trkpt lat="42.89656" lon="0.06568">
        <ele>1254.3</ele>
        <time>2019-08-18T09:27:49Z</time>
      </trkpt>
      <trkpt lat="42.8966" lon="0.06575">
        <ele>1254.3</ele>
        <time>2019-08-18T09:27:50Z</time>
      </trkpt>
      <trkpt lat="42.89664" lon="0.06581">
        <ele>1254.3</ele>
        <time>2019-08-18T09:27:51Z</time>
      </trkpt>
      <trkpt lat="42.89669" lon="0.06587">
        <ele>1254.3</ele>
        <time>2019-08-18T09:27:52Z</time>
      </trkpt>
      <trkpt lat="42.89673" lon="0.06592">
        <ele>1254.3</ele>
        <time>2019-08-18T09:27:53Z</time>
      </trkpt>
      <trkpt lat="42.89678" lon="0.06598">
        <ele>1254.4</ele>
        <time>2019-08-18T09:27:54Z</time>
      </trkpt>
      <trkpt lat="42.89681" lon="0.06603">
        <ele>1254.4</ele>
        <time>2019-08-18T09:27:55Z</time>
      </trkpt>
      <trkpt lat="42.89685" lon="0.06609">
        <ele>1254.4</ele>
        <time>2019-08-18T09:27:56Z</time>
      </trkpt>
      <trkpt lat="42.89688" lon="0.06615">
        <ele>1254.3</ele>
        <time>2019-08-18T09:27:57Z</time>
      </trkpt>
      <trkpt lat="42.89692" lon="0.06623">
        <ele>1254.2</ele>
        <time>2019-08-18T09:27:58Z</time>
      </trkpt>
      <trkpt lat="42.89696" lon="0.06631">
        <ele>1253.7</ele>
        <time>2019-08-18T09:27:59Z</time>
      </trkpt>
      <trkpt lat="42.89699" lon="0.06638">
        <ele>1253.5</ele>
        <time>2019-08-18T09:28:00Z</time>
      </trkpt>
      <trkpt lat="42.89702" lon="0.06646">
        <ele>1253.2</ele>
        <time>2019-08-18T09:28:01Z</time>
      </trkpt>
      <trkpt lat="42.89705" lon="0.06654">
        <ele>1252.9</ele>
        <time>2019-08-18T09:28:02Z</time>
      </trkpt>
      <trkpt lat="42.8971" lon="0.06661">
        <ele>1252.6</ele>
        <time>2019-08-18T09:28:03Z</time>
      </trkpt>
      <trkpt lat="42.89714" lon="0.06668">
        <ele>1252.7</ele>
        <time>2019-08-18T09:28:04Z</time>
      </trkpt>
      <trkpt lat="42.89717" lon="0.06675">
        <ele>1252.8</ele>
        <time>2019-08-18T09:28:05Z</time>
      </trkpt>
      <trkpt lat="42.8972" lon="0.06683">
        <ele>1253</ele>
        <time>2019-08-18T09:28:06Z</time>
      </trkpt>
      <trkpt lat="42.89723" lon="0.0669">
        <ele>1253.2</ele>
        <time>2019-08-18T09:28:07Z</time>
      </trkpt>
      <trkpt lat="42.89725" lon="0.06696">
        <ele>1253.4</ele>
        <time>2019-08-18T09:28:08Z</time>
      </trkpt>
      <trkpt lat="42.89727" lon="0.06703">
        <ele>1253.6</ele>
        <time>2019-08-18T09:28:09Z</time>
      </trkpt>
      <trkpt lat="42.89731" lon="0.06706">
        <ele>1253.8</ele>
        <time>2019-08-18T09:28:10Z</time>
      </trkpt>
      <trkpt lat="42.89734" lon="0.06707">
        <ele>1253.9</ele>
        <time>2019-08-18T09:28:11Z</time>
      </trkpt>
      <trkpt lat="42.89737" lon="0.06707">
        <ele>1254</ele>
        <time>2019-08-18T09:28:12Z</time>
      </trkpt>
      <trkpt lat="42.89741" lon="0.06704">
        <ele>1253.8</ele>
        <time>2019-08-18T09:28:13Z</time>
      </trkpt>
      <trkpt lat="42.89744" lon="0.06703">
        <ele>1253.4</ele>
        <time>2019-08-18T09:28:14Z</time>
      </trkpt>
      <trkpt lat="42.89746" lon="0.06698">
        <ele>1252.6</ele>
        <time>2019-08-18T09:28:16Z</time>
      </trkpt>
      <trkpt lat="42.89746" lon="0.06694">
        <ele>1252.6</ele>
        <time>2019-08-18T09:28:19Z</time>
      </trkpt>
      <trkpt lat="42.89747" lon="0.06688">
        <ele>1252.5</ele>
        <time>2019-08-18T09:28:21Z</time>
      </trkpt>
      <trkpt lat="42.89747" lon="0.06683">
        <ele>1252.2</ele>
        <time>2019-08-18T09:28:22Z</time>
      </trkpt>
      <trkpt lat="42.89746" lon="0.06677">
        <ele>1251.9</ele>
        <time>2019-08-18T09:28:23Z</time>
      </trkpt>
      <trkpt lat="42.89743" lon="0.06671">
        <ele>1251.5</ele>
        <time>2019-08-18T09:28:24Z</time>
      </trkpt>
      <trkpt lat="42.89742" lon="0.06664">
        <ele>1251.1</ele>
        <time>2019-08-18T09:28:25Z</time>
      </trkpt>
      <trkpt lat="42.8974" lon="0.06658">
        <ele>1250.8</ele>
        <time>2019-08-18T09:28:26Z</time>
      </trkpt>
      <trkpt lat="42.89737" lon="0.06651">
        <ele>1250.4</ele>
        <time>2019-08-18T09:28:27Z</time>
      </trkpt>
      <trkpt lat="42.89733" lon="0.06644">
        <ele>1249.9</ele>
        <time>2019-08-18T09:28:28Z</time>
      </trkpt>
      <trkpt lat="42.8973" lon="0.06632">
        <ele>1249.8</ele>
        <time>2019-08-18T09:28:29Z</time>
      </trkpt>
      <trkpt lat="42.89727" lon="0.06624">
        <ele>1249.8</ele>
        <time>2019-08-18T09:28:30Z</time>
      </trkpt>
      <trkpt lat="42.89724" lon="0.06615">
        <ele>1249.7</ele>
        <time>2019-08-18T09:28:31Z</time>
      </trkpt>
      <trkpt lat="42.89719" lon="0.06605">
        <ele>1249.7</ele>
        <time>2019-08-18T09:28:32Z</time>
      </trkpt>
      <trkpt lat="42.89716" lon="0.06594">
        <ele>1249.4</ele>
        <time>2019-08-18T09:28:33Z</time>
      </trkpt>
      <trkpt lat="42.89714" lon="0.0659">
        <ele>1249.4</ele>
        <time>2019-08-18T09:28:34Z</time>
      </trkpt>
      <trkpt lat="42.89712" lon="0.06585">
        <ele>1248.7</ele>
        <time>2019-08-18T09:28:35Z</time>
      </trkpt>
      <trkpt lat="42.89711" lon="0.06576">
        <ele>1248.5</ele>
        <time>2019-08-18T09:28:36Z</time>
      </trkpt>
      <trkpt lat="42.89713" lon="0.06567">
        <ele>1248.3</ele>
        <time>2019-08-18T09:28:37Z</time>
      </trkpt>
      <trkpt lat="42.89718" lon="0.06561">
        <ele>1247.5</ele>
        <time>2019-08-18T09:28:38Z</time>
      </trkpt>
      <trkpt lat="42.89723" lon="0.06557">
        <ele>1246.9</ele>
        <time>2019-08-18T09:28:39Z</time>
      </trkpt>
      <trkpt lat="42.89728" lon="0.06552">
        <ele>1246.2</ele>
        <time>2019-08-18T09:28:40Z</time>
      </trkpt>
      <trkpt lat="42.89729" lon="0.06545">
        <ele>1245.6</ele>
        <time>2019-08-18T09:28:41Z</time>
      </trkpt>
      <trkpt lat="42.89728" lon="0.06539">
        <ele>1245.2</ele>
        <time>2019-08-18T09:28:42Z</time>
      </trkpt>
      <trkpt lat="42.89723" lon="0.06529">
        <ele>1244.2</ele>
        <time>2019-08-18T09:28:43Z</time>
      </trkpt>
      <trkpt lat="42.89718" lon="0.06516">
        <ele>1243.1</ele>
        <time>2019-08-18T09:28:44Z</time>
      </trkpt>
      <trkpt lat="42.89714" lon="0.06503">
        <ele>1242.2</ele>
        <time>2019-08-18T09:28:45Z</time>
      </trkpt>
      <trkpt lat="42.89712" lon="0.0649">
        <ele>1241.4</ele>
        <time>2019-08-18T09:28:46Z</time>
      </trkpt>
      <trkpt lat="42.8971" lon="0.06476">
        <ele>1240.5</ele>
        <time>2019-08-18T09:28:47Z</time>
      </trkpt>
      <trkpt lat="42.89708" lon="0.06461">
        <ele>1239.5</ele>
        <time>2019-08-18T09:28:48Z</time>
      </trkpt>
      <trkpt lat="42.89707" lon="0.06446">
        <ele>1238.5</ele>
        <time>2019-08-18T09:28:49Z</time>
      </trkpt>
      <trkpt lat="42.89707" lon="0.06432">
        <ele>1237.6</ele>
        <time>2019-08-18T09:28:50Z</time>
      </trkpt>
      <trkpt lat="42.89706" lon="0.0642">
        <ele>1236.4</ele>
        <time>2019-08-18T09:28:51Z</time>
      </trkpt>
      <trkpt lat="42.89705" lon="0.06405">
        <ele>1234.9</ele>
        <time>2019-08-18T09:28:52Z</time>
      </trkpt>
      <trkpt lat="42.897" lon="0.06394">
        <ele>1233.6</ele>
        <time>2019-08-18T09:28:53Z</time>
      </trkpt>
      <trkpt lat="42.89694" lon="0.06381">
        <ele>1232.2</ele>
        <time>2019-08-18T09:28:54Z</time>
      </trkpt>
      <trkpt lat="42.8969" lon="0.0637">
        <ele>1231</ele>
        <time>2019-08-18T09:28:55Z</time>
      </trkpt>
      <trkpt lat="42.89685" lon="0.06361">
        <ele>1230.7</ele>
        <time>2019-08-18T09:28:56Z</time>
      </trkpt>
      <trkpt lat="42.89679" lon="0.06351">
        <ele>1229.5</ele>
        <time>2019-08-18T09:28:57Z</time>
      </trkpt>
      <trkpt lat="42.89676" lon="0.06341">
        <ele>1229.3</ele>
        <time>2019-08-18T09:28:58Z</time>
      </trkpt>
      <trkpt lat="42.89672" lon="0.06331">
        <ele>1228.3</ele>
        <time>2019-08-18T09:28:59Z</time>
      </trkpt>
      <trkpt lat="42.89668" lon="0.06321">
        <ele>1227.9</ele>
        <time>2019-08-18T09:29:00Z</time>
      </trkpt>
      <trkpt lat="42.89666" lon="0.06311">
        <ele>1227.6</ele>
        <time>2019-08-18T09:29:01Z</time>
      </trkpt>
      <trkpt lat="42.89661" lon="0.06305">
        <ele>1227.2</ele>
        <time>2019-08-18T09:29:02Z</time>
      </trkpt>
      <trkpt lat="42.89655" lon="0.063">
        <ele>1227.7</ele>
        <time>2019-08-18T09:29:03Z</time>
      </trkpt>
      <trkpt lat="42.89648" lon="0.06298">
        <ele>1228.7</ele>
        <time>2019-08-18T09:29:04Z</time>
      </trkpt>
      <trkpt lat="42.89642" lon="0.063">
        <ele>1229.5</ele>
        <time>2019-08-18T09:29:05Z</time>
      </trkpt>
      <trkpt lat="42.89635" lon="0.06301">
        <ele>1230.5</ele>
        <time>2019-08-18T09:29:06Z</time>
      </trkpt>
      <trkpt lat="42.89629" lon="0.06299">
        <ele>1231.3</ele>
        <time>2019-08-18T09:29:07Z</time>
      </trkpt>
      <trkpt lat="42.89625" lon="0.06292">
        <ele>1231.5</ele>
        <time>2019-08-18T09:29:08Z</time>
      </trkpt>
      <trkpt lat="42.89623" lon="0.06283">
        <ele>1230.2</ele>
        <time>2019-08-18T09:29:09Z</time>
      </trkpt>
      <trkpt lat="42.89621" lon="0.06273">
        <ele>1228.9</ele>
        <time>2019-08-18T09:29:10Z</time>
      </trkpt>
      <trkpt lat="42.89621" lon="0.06262">
        <ele>1227.5</ele>
        <time>2019-08-18T09:29:11Z</time>
      </trkpt>
      <trkpt lat="42.8962" lon="0.06251">
        <ele>1226.4</ele>
        <time>2019-08-18T09:29:12Z</time>
      </trkpt>
      <trkpt lat="42.89618" lon="0.0624">
        <ele>1225.3</ele>
        <time>2019-08-18T09:29:13Z</time>
      </trkpt>
      <trkpt lat="42.89617" lon="0.06227">
        <ele>1224</ele>
        <time>2019-08-18T09:29:14Z</time>
      </trkpt>
      <trkpt lat="42.89616" lon="0.06215">
        <ele>1222.5</ele>
        <time>2019-08-18T09:29:15Z</time>
      </trkpt>
      <trkpt lat="42.89615" lon="0.06202">
        <ele>1221.3</ele>
        <time>2019-08-18T09:29:16Z</time>
      </trkpt>
      <trkpt lat="42.89614" lon="0.06189">
        <ele>1220.3</ele>
        <time>2019-08-18T09:29:17Z</time>
      </trkpt>
      <trkpt lat="42.89613" lon="0.06176">
        <ele>1219.1</ele>
        <time>2019-08-18T09:29:18Z</time>
      </trkpt>
      <trkpt lat="42.89612" lon="0.06164">
        <ele>1218</ele>
        <time>2019-08-18T09:29:19Z</time>
      </trkpt>
      <trkpt lat="42.89612" lon="0.06152">
        <ele>1216.9</ele>
        <time>2019-08-18T09:29:20Z</time>
      </trkpt>
      <trkpt lat="42.89611" lon="0.06138">
        <ele>1215.6</ele>
        <time>2019-08-18T09:29:21Z</time>
      </trkpt>
      <trkpt lat="42.89613" lon="0.06129">
        <ele>1214.7</ele>
        <time>2019-08-18T09:29:22Z</time>
      </trkpt>
      <trkpt lat="42.89613" lon="0.06115">
        <ele>1213.4</ele>
        <time>2019-08-18T09:29:23Z</time>
      </trkpt>
      <trkpt lat="42.89612" lon="0.06103">
        <ele>1213</ele>
        <time>2019-08-18T09:29:24Z</time>
      </trkpt>
      <trkpt lat="42.8961" lon="0.06091">
        <ele>1211.4</ele>
        <time>2019-08-18T09:29:25Z</time>
      </trkpt>
      <trkpt lat="42.89609" lon="0.06081">
        <ele>1210.8</ele>
        <time>2019-08-18T09:29:26Z</time>
      </trkpt>
      <trkpt lat="42.89608" lon="0.06072">
        <ele>1210.4</ele>
        <time>2019-08-18T09:29:27Z</time>
      </trkpt>
      <trkpt lat="42.89607" lon="0.06063">
        <ele>1209.9</ele>
        <time>2019-08-18T09:29:28Z</time>
      </trkpt>
      <trkpt lat="42.89606" lon="0.06054">
        <ele>1209.4</ele>
        <time>2019-08-18T09:29:29Z</time>
      </trkpt>
      <trkpt lat="42.89606" lon="0.06045">
        <ele>1208.8</ele>
        <time>2019-08-18T09:29:30Z</time>
      </trkpt>
      <trkpt lat="42.89605" lon="0.06037">
        <ele>1208</ele>
        <time>2019-08-18T09:29:31Z</time>
      </trkpt>
      <trkpt lat="42.89604" lon="0.06029">
        <ele>1207</ele>
        <time>2019-08-18T09:29:32Z</time>
      </trkpt>
      <trkpt lat="42.89602" lon="0.0602">
        <ele>1205.8</ele>
        <time>2019-08-18T09:29:33Z</time>
      </trkpt>
      <trkpt lat="42.89602" lon="0.06012">
        <ele>1204.4</ele>
        <time>2019-08-18T09:29:34Z</time>
      </trkpt>
      <trkpt lat="42.89602" lon="0.06004">
        <ele>1203.9</ele>
        <time>2019-08-18T09:29:35Z</time>
      </trkpt>
      <trkpt lat="42.89601" lon="0.05996">
        <ele>1203.4</ele>
        <time>2019-08-18T09:29:36Z</time>
      </trkpt>
      <trkpt lat="42.89599" lon="0.05988">
        <ele>1202</ele>
        <time>2019-08-18T09:29:37Z</time>
      </trkpt>
      <trkpt lat="42.89598" lon="0.05979">
        <ele>1200.9</ele>
        <time>2019-08-18T09:29:38Z</time>
      </trkpt>
      <trkpt lat="42.89595" lon="0.05971">
        <ele>1199.7</ele>
        <time>2019-08-18T09:29:39Z</time>
      </trkpt>
      <trkpt lat="42.89591" lon="0.05964">
        <ele>1198.8</ele>
        <time>2019-08-18T09:29:40Z</time>
      </trkpt>
      <trkpt lat="42.89587" lon="0.05958">
        <ele>1198.3</ele>
        <time>2019-08-18T09:29:41Z</time>
      </trkpt>
      <trkpt lat="42.89583" lon="0.05954">
        <ele>1198</ele>
        <time>2019-08-18T09:29:42Z</time>
      </trkpt>
      <trkpt lat="42.89578" lon="0.0595">
        <ele>1197.6</ele>
        <time>2019-08-18T09:29:43Z</time>
      </trkpt>
      <trkpt lat="42.89573" lon="0.05947">
        <ele>1197.3</ele>
        <time>2019-08-18T09:29:44Z</time>
      </trkpt>
      <trkpt lat="42.89567" lon="0.05945">
        <ele>1196.9</ele>
        <time>2019-08-18T09:29:45Z</time>
      </trkpt>
      <trkpt lat="42.89561" lon="0.05943">
        <ele>1196.5</ele>
        <time>2019-08-18T09:29:46Z</time>
      </trkpt>
      <trkpt lat="42.89555" lon="0.05942">
        <ele>1196.1</ele>
        <time>2019-08-18T09:29:47Z</time>
      </trkpt>
      <trkpt lat="42.8955" lon="0.05943">
        <ele>1195.8</ele>
        <time>2019-08-18T09:29:48Z</time>
      </trkpt>
      <trkpt lat="42.89544" lon="0.05944">
        <ele>1195.5</ele>
        <time>2019-08-18T09:29:49Z</time>
      </trkpt>
      <trkpt lat="42.89537" lon="0.05946">
        <ele>1195.2</ele>
        <time>2019-08-18T09:29:50Z</time>
      </trkpt>
      <trkpt lat="42.89531" lon="0.05948">
        <ele>1194.8</ele>
        <time>2019-08-18T09:29:51Z</time>
      </trkpt>
      <trkpt lat="42.89525" lon="0.05949">
        <ele>1194.5</ele>
        <time>2019-08-18T09:29:52Z</time>
      </trkpt>
      <trkpt lat="42.89519" lon="0.0595">
        <ele>1194.2</ele>
        <time>2019-08-18T09:29:53Z</time>
      </trkpt>
      <trkpt lat="42.89513" lon="0.05949">
        <ele>1193.8</ele>
        <time>2019-08-18T09:29:54Z</time>
      </trkpt>
      <trkpt lat="42.89508" lon="0.05948">
        <ele>1193.6</ele>
        <time>2019-08-18T09:29:55Z</time>
      </trkpt>
      <trkpt lat="42.89503" lon="0.05945">
        <ele>1193.3</ele>
        <time>2019-08-18T09:29:56Z</time>
      </trkpt>
      <trkpt lat="42.89499" lon="0.05937">
        <ele>1192.9</ele>
        <time>2019-08-18T09:29:57Z</time>
      </trkpt>
      <trkpt lat="42.89496" lon="0.0593">
        <ele>1192.6</ele>
        <time>2019-08-18T09:29:58Z</time>
      </trkpt>
      <trkpt lat="42.89495" lon="0.05923">
        <ele>1192.4</ele>
        <time>2019-08-18T09:29:59Z</time>
      </trkpt>
      <trkpt lat="42.89495" lon="0.05915">
        <ele>1192.2</ele>
        <time>2019-08-18T09:30:00Z</time>
      </trkpt>
      <trkpt lat="42.89497" lon="0.05909">
        <ele>1191.9</ele>
        <time>2019-08-18T09:30:01Z</time>
      </trkpt>
      <trkpt lat="42.89501" lon="0.05904">
        <ele>1191.7</ele>
        <time>2019-08-18T09:30:02Z</time>
      </trkpt>
      <trkpt lat="42.89505" lon="0.05899">
        <ele>1191.2</ele>
        <time>2019-08-18T09:30:03Z</time>
      </trkpt>
      <trkpt lat="42.8951" lon="0.05896">
        <ele>1190.8</ele>
        <time>2019-08-18T09:30:04Z</time>
      </trkpt>
      <trkpt lat="42.89516" lon="0.05896">
        <ele>1190.4</ele>
        <time>2019-08-18T09:30:05Z</time>
      </trkpt>
      <trkpt lat="42.89521" lon="0.05899">
        <ele>1189.9</ele>
        <time>2019-08-18T09:30:06Z</time>
      </trkpt>
      <trkpt lat="42.89527" lon="0.05902">
        <ele>1190.1</ele>
        <time>2019-08-18T09:30:07Z</time>
      </trkpt>
      <trkpt lat="42.89531" lon="0.05904">
        <ele>1190.3</ele>
        <time>2019-08-18T09:30:08Z</time>
      </trkpt>
      <trkpt lat="42.89536" lon="0.05907">
        <ele>1190.6</ele>
        <time>2019-08-18T09:30:09Z</time>
      </trkpt>
      <trkpt lat="42.89541" lon="0.05909">
        <ele>1190.7</ele>
        <time>2019-08-18T09:30:10Z</time>
      </trkpt>
      <trkpt lat="42.89548" lon="0.05907">
        <ele>1190.8</ele>
        <time>2019-08-18T09:30:11Z</time>
      </trkpt>
      <trkpt lat="42.89551" lon="0.05903">
        <ele>1190.8</ele>
        <time>2019-08-18T09:30:12Z</time>
      </trkpt>
      <trkpt lat="42.89555" lon="0.05901">
        <ele>1190.6</ele>
        <time>2019-08-18T09:30:13Z</time>
      </trkpt>
      <trkpt lat="42.89561" lon="0.05895">
        <ele>1190.1</ele>
        <time>2019-08-18T09:30:14Z</time>
      </trkpt>
      <trkpt lat="42.89562" lon="0.05889">
        <ele>1189.6</ele>
        <time>2019-08-18T09:30:15Z</time>
      </trkpt>
      <trkpt lat="42.89563" lon="0.0588">
        <ele>1188.4</ele>
        <time>2019-08-18T09:30:16Z</time>
      </trkpt>
      <trkpt lat="42.89563" lon="0.05873">
        <ele>1187.6</ele>
        <time>2019-08-18T09:30:17Z</time>
      </trkpt>
      <trkpt lat="42.89561" lon="0.05866">
        <ele>1186.7</ele>
        <time>2019-08-18T09:30:18Z</time>
      </trkpt>
      <trkpt lat="42.89556" lon="0.0586">
        <ele>1186.3</ele>
        <time>2019-08-18T09:30:19Z</time>
      </trkpt>
      <trkpt lat="42.89551" lon="0.05855">
        <ele>1186</ele>
        <time>2019-08-18T09:30:20Z</time>
      </trkpt>
      <trkpt lat="42.89546" lon="0.05852">
        <ele>1185.7</ele>
        <time>2019-08-18T09:30:21Z</time>
      </trkpt>
      <trkpt lat="42.89539" lon="0.05847">
        <ele>1185.3</ele>
        <time>2019-08-18T09:30:22Z</time>
      </trkpt>
      <trkpt lat="42.89532" lon="0.05844">
        <ele>1184.9</ele>
        <time>2019-08-18T09:30:23Z</time>
      </trkpt>
      <trkpt lat="42.89524" lon="0.05841">
        <ele>1184.5</ele>
        <time>2019-08-18T09:30:24Z</time>
      </trkpt>
      <trkpt lat="42.89517" lon="0.05836">
        <ele>1183.6</ele>
        <time>2019-08-18T09:30:25Z</time>
      </trkpt>
      <trkpt lat="42.89509" lon="0.05831">
        <ele>1182.8</ele>
        <time>2019-08-18T09:30:26Z</time>
      </trkpt>
      <trkpt lat="42.89501" lon="0.05825">
        <ele>1181.9</ele>
        <time>2019-08-18T09:30:27Z</time>
      </trkpt>
      <trkpt lat="42.89493" lon="0.05818">
        <ele>1181.1</ele>
        <time>2019-08-18T09:30:28Z</time>
      </trkpt>
      <trkpt lat="42.89486" lon="0.0581">
        <ele>1180.3</ele>
        <time>2019-08-18T09:30:29Z</time>
      </trkpt>
      <trkpt lat="42.89479" lon="0.05801">
        <ele>1179.5</ele>
        <time>2019-08-18T09:30:30Z</time>
      </trkpt>
      <trkpt lat="42.89473" lon="0.05791">
        <ele>1178.6</ele>
        <time>2019-08-18T09:30:31Z</time>
      </trkpt>
      <trkpt lat="42.89466" lon="0.05781">
        <ele>1177.7</ele>
        <time>2019-08-18T09:30:32Z</time>
      </trkpt>
      <trkpt lat="42.89459" lon="0.0577">
        <ele>1176.7</ele>
        <time>2019-08-18T09:30:33Z</time>
      </trkpt>
      <trkpt lat="42.89453" lon="0.05759">
        <ele>1175.6</ele>
        <time>2019-08-18T09:30:34Z</time>
      </trkpt>
      <trkpt lat="42.89447" lon="0.05746">
        <ele>1174.5</ele>
        <time>2019-08-18T09:30:35Z</time>
      </trkpt>
      <trkpt lat="42.89441" lon="0.05732">
        <ele>1172.8</ele>
        <time>2019-08-18T09:30:36Z</time>
      </trkpt>
      <trkpt lat="42.89436" lon="0.05717">
        <ele>1171.2</ele>
        <time>2019-08-18T09:30:37Z</time>
      </trkpt>
      <trkpt lat="42.89432" lon="0.05702">
        <ele>1169.9</ele>
        <time>2019-08-18T09:30:38Z</time>
      </trkpt>
      <trkpt lat="42.89427" lon="0.05686">
        <ele>1168.8</ele>
        <time>2019-08-18T09:30:39Z</time>
      </trkpt>
      <trkpt lat="42.89423" lon="0.05671">
        <ele>1167.7</ele>
        <time>2019-08-18T09:30:40Z</time>
      </trkpt>
      <trkpt lat="42.89418" lon="0.05655">
        <ele>1166.5</ele>
        <time>2019-08-18T09:30:41Z</time>
      </trkpt>
      <trkpt lat="42.89413" lon="0.05639">
        <ele>1165.1</ele>
        <time>2019-08-18T09:30:42Z</time>
      </trkpt>
      <trkpt lat="42.89407" lon="0.05622">
        <ele>1164.7</ele>
        <time>2019-08-18T09:30:43Z</time>
      </trkpt>
      <trkpt lat="42.894" lon="0.05607">
        <ele>1164.5</ele>
        <time>2019-08-18T09:30:44Z</time>
      </trkpt>
      <trkpt lat="42.89394" lon="0.05591">
        <ele>1164.3</ele>
        <time>2019-08-18T09:30:45Z</time>
      </trkpt>
      <trkpt lat="42.89387" lon="0.05576">
        <ele>1164</ele>
        <time>2019-08-18T09:30:46Z</time>
      </trkpt>
      <trkpt lat="42.8938" lon="0.05559">
        <ele>1163.7</ele>
        <time>2019-08-18T09:30:47Z</time>
      </trkpt>
      <trkpt lat="42.89372" lon="0.05543">
        <ele>1163.5</ele>
        <time>2019-08-18T09:30:48Z</time>
      </trkpt>
      <trkpt lat="42.89365" lon="0.05526">
        <ele>1163.3</ele>
        <time>2019-08-18T09:30:49Z</time>
      </trkpt>
      <trkpt lat="42.89357" lon="0.05508">
        <ele>1162.5</ele>
        <time>2019-08-18T09:30:50Z</time>
      </trkpt>
      <trkpt lat="42.89349" lon="0.05491">
        <ele>1158.3</ele>
        <time>2019-08-18T09:30:51Z</time>
      </trkpt>
      <trkpt lat="42.89341" lon="0.05474">
        <ele>1154.9</ele>
        <time>2019-08-18T09:30:52Z</time>
      </trkpt>
      <trkpt lat="42.89333" lon="0.05456">
        <ele>1152.7</ele>
        <time>2019-08-18T09:30:53Z</time>
      </trkpt>
      <trkpt lat="42.89325" lon="0.05438">
        <ele>1151</ele>
        <time>2019-08-18T09:30:54Z</time>
      </trkpt>
      <trkpt lat="42.89317" lon="0.0542">
        <ele>1149.5</ele>
        <time>2019-08-18T09:30:55Z</time>
      </trkpt>
      <trkpt lat="42.8931" lon="0.05401">
        <ele>1148</ele>
        <time>2019-08-18T09:30:56Z</time>
      </trkpt>
      <trkpt lat="42.89305" lon="0.05382">
        <ele>1146.3</ele>
        <time>2019-08-18T09:30:57Z</time>
      </trkpt>
      <trkpt lat="42.89299" lon="0.05362">
        <ele>1144.5</ele>
        <time>2019-08-18T09:30:58Z</time>
      </trkpt>
      <trkpt lat="42.89295" lon="0.05342">
        <ele>1142.7</ele>
        <time>2019-08-18T09:30:59Z</time>
      </trkpt>
      <trkpt lat="42.89292" lon="0.05322">
        <ele>1140.8</ele>
        <time>2019-08-18T09:31:00Z</time>
      </trkpt>
      <trkpt lat="42.89289" lon="0.05301">
        <ele>1138.9</ele>
        <time>2019-08-18T09:31:01Z</time>
      </trkpt>
      <trkpt lat="42.89284" lon="0.05282">
        <ele>1137.2</ele>
        <time>2019-08-18T09:31:02Z</time>
      </trkpt>
      <trkpt lat="42.89278" lon="0.05264">
        <ele>1135.6</ele>
        <time>2019-08-18T09:31:03Z</time>
      </trkpt>
      <trkpt lat="42.8927" lon="0.05247">
        <ele>1133.9</ele>
        <time>2019-08-18T09:31:04Z</time>
      </trkpt>
      <trkpt lat="42.89262" lon="0.0523">
        <ele>1132.2</ele>
        <time>2019-08-18T09:31:05Z</time>
      </trkpt>
      <trkpt lat="42.89254" lon="0.05212">
        <ele>1130.2</ele>
        <time>2019-08-18T09:31:06Z</time>
      </trkpt>
      <trkpt lat="42.89246" lon="0.05195">
        <ele>1128.5</ele>
        <time>2019-08-18T09:31:07Z</time>
      </trkpt>
      <trkpt lat="42.89238" lon="0.05178">
        <ele>1127.1</ele>
        <time>2019-08-18T09:31:08Z</time>
      </trkpt>
      <trkpt lat="42.89229" lon="0.05161">
        <ele>1125.7</ele>
        <time>2019-08-18T09:31:09Z</time>
      </trkpt>
      <trkpt lat="42.89221" lon="0.05143">
        <ele>1124</ele>
        <time>2019-08-18T09:31:10Z</time>
      </trkpt>
      <trkpt lat="42.89213" lon="0.05126">
        <ele>1121.9</ele>
        <time>2019-08-18T09:31:11Z</time>
      </trkpt>
      <trkpt lat="42.89203" lon="0.05112">
        <ele>1120.3</ele>
        <time>2019-08-18T09:31:12Z</time>
      </trkpt>
      <trkpt lat="42.89192" lon="0.051">
        <ele>1119.8</ele>
        <time>2019-08-18T09:31:13Z</time>
      </trkpt>
      <trkpt lat="42.89179" lon="0.05091">
        <ele>1119.3</ele>
        <time>2019-08-18T09:31:14Z</time>
      </trkpt>
      <trkpt lat="42.89167" lon="0.05084">
        <ele>1118.9</ele>
        <time>2019-08-18T09:31:15Z</time>
      </trkpt>
      <trkpt lat="42.89155" lon="0.05078">
        <ele>1118.5</ele>
        <time>2019-08-18T09:31:16Z</time>
      </trkpt>
      <trkpt lat="42.89145" lon="0.05072">
        <ele>1118.2</ele>
        <time>2019-08-18T09:31:17Z</time>
      </trkpt>
      <trkpt lat="42.89135" lon="0.05067">
        <ele>1117.9</ele>
        <time>2019-08-18T09:31:18Z</time>
      </trkpt>
      <trkpt lat="42.89125" lon="0.0506">
        <ele>1117.5</ele>
        <time>2019-08-18T09:31:19Z</time>
      </trkpt>
      <trkpt lat="42.89115" lon="0.05052">
        <ele>1117.1</ele>
        <time>2019-08-18T09:31:20Z</time>
      </trkpt>
      <trkpt lat="42.89107" lon="0.05041">
        <ele>1116.5</ele>
        <time>2019-08-18T09:31:21Z</time>
      </trkpt>
      <trkpt lat="42.89098" lon="0.0503">
        <ele>1115.9</ele>
        <time>2019-08-18T09:31:22Z</time>
      </trkpt>
      <trkpt lat="42.89089" lon="0.05017">
        <ele>1115.2</ele>
        <time>2019-08-18T09:31:23Z</time>
      </trkpt>
      <trkpt lat="42.89081" lon="0.05006">
        <ele>1113.6</ele>
        <time>2019-08-18T09:31:24Z</time>
      </trkpt>
      <trkpt lat="42.89072" lon="0.04993">
        <ele>1111.7</ele>
        <time>2019-08-18T09:31:25Z</time>
      </trkpt>
      <trkpt lat="42.89064" lon="0.04979">
        <ele>1109.5</ele>
        <time>2019-08-18T09:31:26Z</time>
      </trkpt>
      <trkpt lat="42.89059" lon="0.04963">
        <ele>1107.1</ele>
        <time>2019-08-18T09:31:27Z</time>
      </trkpt>
      <trkpt lat="42.89056" lon="0.04947">
        <ele>1104.2</ele>
        <time>2019-08-18T09:31:28Z</time>
      </trkpt>
      <trkpt lat="42.89055" lon="0.04931">
        <ele>1101.8</ele>
        <time>2019-08-18T09:31:29Z</time>
      </trkpt>
      <trkpt lat="42.89054" lon="0.04915">
        <ele>1099.4</ele>
        <time>2019-08-18T09:31:30Z</time>
      </trkpt>
      <trkpt lat="42.89052" lon="0.04901">
        <ele>1098.1</ele>
        <time>2019-08-18T09:31:31Z</time>
      </trkpt>
      <trkpt lat="42.89048" lon="0.04888">
        <ele>1096.9</ele>
        <time>2019-08-18T09:31:32Z</time>
      </trkpt>
      <trkpt lat="42.89042" lon="0.04876">
        <ele>1095.5</ele>
        <time>2019-08-18T09:31:33Z</time>
      </trkpt>
      <trkpt lat="42.89036" lon="0.04867">
        <ele>1094.5</ele>
        <time>2019-08-18T09:31:34Z</time>
      </trkpt>
      <trkpt lat="42.89029" lon="0.04858">
        <ele>1093.6</ele>
        <time>2019-08-18T09:31:35Z</time>
      </trkpt>
      <trkpt lat="42.89023" lon="0.0485">
        <ele>1092.8</ele>
        <time>2019-08-18T09:31:36Z</time>
      </trkpt>
      <trkpt lat="42.89018" lon="0.04843">
        <ele>1092.1</ele>
        <time>2019-08-18T09:31:37Z</time>
      </trkpt>
      <trkpt lat="42.89013" lon="0.04837">
        <ele>1091.2</ele>
        <time>2019-08-18T09:31:38Z</time>
      </trkpt>
      <trkpt lat="42.8901" lon="0.04828">
        <ele>1090.2</ele>
        <time>2019-08-18T09:31:39Z</time>
      </trkpt>
      <trkpt lat="42.89011" lon="0.04818">
        <ele>1089</ele>
        <time>2019-08-18T09:31:40Z</time>
      </trkpt>
      <trkpt lat="42.89015" lon="0.0481">
        <ele>1088.3</ele>
        <time>2019-08-18T09:31:41Z</time>
      </trkpt>
      <trkpt lat="42.89021" lon="0.04805">
        <ele>1088.6</ele>
        <time>2019-08-18T09:31:42Z</time>
      </trkpt>
      <trkpt lat="42.89027" lon="0.04805">
        <ele>1088.9</ele>
        <time>2019-08-18T09:31:43Z</time>
      </trkpt>
      <trkpt lat="42.89034" lon="0.04809">
        <ele>1089.1</ele>
        <time>2019-08-18T09:31:44Z</time>
      </trkpt>
      <trkpt lat="42.89039" lon="0.04816">
        <ele>1089.3</ele>
        <time>2019-08-18T09:31:45Z</time>
      </trkpt>
      <trkpt lat="42.89044" lon="0.04824">
        <ele>1089.6</ele>
        <time>2019-08-18T09:31:46Z</time>
      </trkpt>
      <trkpt lat="42.89048" lon="0.04831">
        <ele>1089.7</ele>
        <time>2019-08-18T09:31:47Z</time>
      </trkpt>
      <trkpt lat="42.89053" lon="0.04839">
        <ele>1089.7</ele>
        <time>2019-08-18T09:31:48Z</time>
      </trkpt>
      <trkpt lat="42.89058" lon="0.04845">
        <ele>1089.7</ele>
        <time>2019-08-18T09:31:49Z</time>
      </trkpt>
      <trkpt lat="42.89064" lon="0.04854">
        <ele>1089.8</ele>
        <time>2019-08-18T09:31:50Z</time>
      </trkpt>
      <trkpt lat="42.8907" lon="0.0486">
        <ele>1089.8</ele>
        <time>2019-08-18T09:31:51Z</time>
      </trkpt>
      <trkpt lat="42.89077" lon="0.04868">
        <ele>1089.8</ele>
        <time>2019-08-18T09:31:52Z</time>
      </trkpt>
      <trkpt lat="42.89083" lon="0.04875">
        <ele>1089.8</ele>
        <time>2019-08-18T09:31:53Z</time>
      </trkpt>
      <trkpt lat="42.89088" lon="0.04878">
        <ele>1089.8</ele>
        <time>2019-08-18T09:31:54Z</time>
      </trkpt>
      <trkpt lat="42.89096" lon="0.04878">
        <ele>1089.8</ele>
        <time>2019-08-18T09:31:55Z</time>
      </trkpt>
      <trkpt lat="42.89103" lon="0.04874">
        <ele>1089.8</ele>
        <time>2019-08-18T09:31:56Z</time>
      </trkpt>
      <trkpt lat="42.89107" lon="0.04866">
        <ele>1089.6</ele>
        <time>2019-08-18T09:31:57Z</time>
      </trkpt>
      <trkpt lat="42.8911" lon="0.04858">
        <ele>1089.5</ele>
        <time>2019-08-18T09:31:58Z</time>
      </trkpt>
      <trkpt lat="42.89107" lon="0.04848">
        <ele>1089.4</ele>
        <time>2019-08-18T09:31:59Z</time>
      </trkpt>
      <trkpt lat="42.89103" lon="0.04839">
        <ele>1089.2</ele>
        <time>2019-08-18T09:32:00Z</time>
      </trkpt>
      <trkpt lat="42.89098" lon="0.0483">
        <ele>1089</ele>
        <time>2019-08-18T09:32:01Z</time>
      </trkpt>
      <trkpt lat="42.89093" lon="0.04821">
        <ele>1088.7</ele>
        <time>2019-08-18T09:32:02Z</time>
      </trkpt>
      <trkpt lat="42.89087" lon="0.04811">
        <ele>1088.3</ele>
        <time>2019-08-18T09:32:03Z</time>
      </trkpt>
      <trkpt lat="42.89081" lon="0.04801">
        <ele>1088</ele>
        <time>2019-08-18T09:32:04Z</time>
      </trkpt>
      <trkpt lat="42.89075" lon="0.04791">
        <ele>1087.6</ele>
        <time>2019-08-18T09:32:05Z</time>
      </trkpt>
      <trkpt lat="42.89068" lon="0.0478">
        <ele>1087.4</ele>
        <time>2019-08-18T09:32:06Z</time>
      </trkpt>
      <trkpt lat="42.89061" lon="0.04768">
        <ele>1086.9</ele>
        <time>2019-08-18T09:32:07Z</time>
      </trkpt>
      <trkpt lat="42.89053" lon="0.04757">
        <ele>1086.3</ele>
        <time>2019-08-18T09:32:08Z</time>
      </trkpt>
      <trkpt lat="42.89046" lon="0.04745">
        <ele>1085.6</ele>
        <time>2019-08-18T09:32:09Z</time>
      </trkpt>
      <trkpt lat="42.89038" lon="0.04733">
        <ele>1084.3</ele>
        <time>2019-08-18T09:32:10Z</time>
      </trkpt>
      <trkpt lat="42.89029" lon="0.04723">
        <ele>1082.9</ele>
        <time>2019-08-18T09:32:11Z</time>
      </trkpt>
      <trkpt lat="42.8902" lon="0.04712">
        <ele>1082.3</ele>
        <time>2019-08-18T09:32:12Z</time>
      </trkpt>
      <trkpt lat="42.8901" lon="0.04703">
        <ele>1082</ele>
        <time>2019-08-18T09:32:13Z</time>
      </trkpt>
      <trkpt lat="42.88998" lon="0.04696">
        <ele>1081.7</ele>
        <time>2019-08-18T09:32:14Z</time>
      </trkpt>
      <trkpt lat="42.88986" lon="0.04692">
        <ele>1081.4</ele>
        <time>2019-08-18T09:32:15Z</time>
      </trkpt>
      <trkpt lat="42.88974" lon="0.04686">
        <ele>1081</ele>
        <time>2019-08-18T09:32:16Z</time>
      </trkpt>
      <trkpt lat="42.88961" lon="0.04682">
        <ele>1080.7</ele>
        <time>2019-08-18T09:32:17Z</time>
      </trkpt>
      <trkpt lat="42.88948" lon="0.04676">
        <ele>1080.3</ele>
        <time>2019-08-18T09:32:18Z</time>
      </trkpt>
      <trkpt lat="42.88935" lon="0.04669">
        <ele>1079.8</ele>
        <time>2019-08-18T09:32:19Z</time>
      </trkpt>
      <trkpt lat="42.88922" lon="0.04662">
        <ele>1079.2</ele>
        <time>2019-08-18T09:32:20Z</time>
      </trkpt>
      <trkpt lat="42.88908" lon="0.04655">
        <ele>1078.5</ele>
        <time>2019-08-18T09:32:21Z</time>
      </trkpt>
      <trkpt lat="42.88895" lon="0.04648">
        <ele>1077.6</ele>
        <time>2019-08-18T09:32:22Z</time>
      </trkpt>
      <trkpt lat="42.88881" lon="0.04641">
        <ele>1076.8</ele>
        <time>2019-08-18T09:32:23Z</time>
      </trkpt>
      <trkpt lat="42.88867" lon="0.04635">
        <ele>1074.6</ele>
        <time>2019-08-18T09:32:24Z</time>
      </trkpt>
      <trkpt lat="42.88854" lon="0.04629">
        <ele>1072.2</ele>
        <time>2019-08-18T09:32:25Z</time>
      </trkpt>
      <trkpt lat="42.88839" lon="0.04622">
        <ele>1070.3</ele>
        <time>2019-08-18T09:32:26Z</time>
      </trkpt>
      <trkpt lat="42.88825" lon="0.04616">
        <ele>1068.6</ele>
        <time>2019-08-18T09:32:27Z</time>
      </trkpt>
      <trkpt lat="42.88812" lon="0.04609">
        <ele>1067.1</ele>
        <time>2019-08-18T09:32:28Z</time>
      </trkpt>
      <trkpt lat="42.88799" lon="0.046">
        <ele>1065.6</ele>
        <time>2019-08-18T09:32:29Z</time>
      </trkpt>
      <trkpt lat="42.88787" lon="0.0459">
        <ele>1063.8</ele>
        <time>2019-08-18T09:32:30Z</time>
      </trkpt>
      <trkpt lat="42.88775" lon="0.04578">
        <ele>1062.2</ele>
        <time>2019-08-18T09:32:31Z</time>
      </trkpt>
      <trkpt lat="42.88763" lon="0.04567">
        <ele>1060.6</ele>
        <time>2019-08-18T09:32:32Z</time>
      </trkpt>
      <trkpt lat="42.88752" lon="0.04555">
        <ele>1059.1</ele>
        <time>2019-08-18T09:32:33Z</time>
      </trkpt>
      <trkpt lat="42.8874" lon="0.04543">
        <ele>1057.5</ele>
        <time>2019-08-18T09:32:34Z</time>
      </trkpt>
      <trkpt lat="42.88729" lon="0.04532">
        <ele>1055.7</ele>
        <time>2019-08-18T09:32:35Z</time>
      </trkpt>
      <trkpt lat="42.88717" lon="0.04521">
        <ele>1054</ele>
        <time>2019-08-18T09:32:36Z</time>
      </trkpt>
      <trkpt lat="42.88705" lon="0.0451">
        <ele>1052.6</ele>
        <time>2019-08-18T09:32:37Z</time>
      </trkpt>
      <trkpt lat="42.88693" lon="0.045">
        <ele>1051.1</ele>
        <time>2019-08-18T09:32:38Z</time>
      </trkpt>
      <trkpt lat="42.88681" lon="0.0449">
        <ele>1049.7</ele>
        <time>2019-08-18T09:32:39Z</time>
      </trkpt>
      <trkpt lat="42.88668" lon="0.0448">
        <ele>1048.4</ele>
        <time>2019-08-18T09:32:40Z</time>
      </trkpt>
      <trkpt lat="42.88656" lon="0.04468">
        <ele>1047</ele>
        <time>2019-08-18T09:32:41Z</time>
      </trkpt>
      <trkpt lat="42.88643" lon="0.04457">
        <ele>1045.5</ele>
        <time>2019-08-18T09:32:42Z</time>
      </trkpt>
      <trkpt lat="42.88631" lon="0.04446">
        <ele>1044.6</ele>
        <time>2019-08-18T09:32:43Z</time>
      </trkpt>
      <trkpt lat="42.88619" lon="0.04433">
        <ele>1043.9</ele>
        <time>2019-08-18T09:32:44Z</time>
      </trkpt>
      <trkpt lat="42.88607" lon="0.0442">
        <ele>1043.3</ele>
        <time>2019-08-18T09:32:45Z</time>
      </trkpt>
      <trkpt lat="42.88596" lon="0.04406">
        <ele>1042.7</ele>
        <time>2019-08-18T09:32:46Z</time>
      </trkpt>
      <trkpt lat="42.88584" lon="0.04392">
        <ele>1041.8</ele>
        <time>2019-08-18T09:32:47Z</time>
      </trkpt>
      <trkpt lat="42.88573" lon="0.04376">
        <ele>1040.3</ele>
        <time>2019-08-18T09:32:48Z</time>
      </trkpt>
      <trkpt lat="42.88562" lon="0.04361">
        <ele>1038.3</ele>
        <time>2019-08-18T09:32:49Z</time>
      </trkpt>
      <trkpt lat="42.88552" lon="0.04344">
        <ele>1036.2</ele>
        <time>2019-08-18T09:32:50Z</time>
      </trkpt>
      <trkpt lat="42.88542" lon="0.04327">
        <ele>1034</ele>
        <time>2019-08-18T09:32:51Z</time>
      </trkpt>
      <trkpt lat="42.88533" lon="0.04309">
        <ele>1031.8</ele>
        <time>2019-08-18T09:32:52Z</time>
      </trkpt>
      <trkpt lat="42.88523" lon="0.04292">
        <ele>1029.6</ele>
        <time>2019-08-18T09:32:53Z</time>
      </trkpt>
      <trkpt lat="42.88514" lon="0.04276">
        <ele>1027.5</ele>
        <time>2019-08-18T09:32:54Z</time>
      </trkpt>
      <trkpt lat="42.885" lon="0.04262">
        <ele>1025.3</ele>
        <time>2019-08-18T09:32:55Z</time>
      </trkpt>
      <trkpt lat="42.88488" lon="0.04247">
        <ele>1023.1</ele>
        <time>2019-08-18T09:32:56Z</time>
      </trkpt>
      <trkpt lat="42.88476" lon="0.04234">
        <ele>1020.8</ele>
        <time>2019-08-18T09:32:57Z</time>
      </trkpt>
      <trkpt lat="42.88464" lon="0.0422">
        <ele>1018.7</ele>
        <time>2019-08-18T09:32:58Z</time>
      </trkpt>
      <trkpt lat="42.88453" lon="0.04204">
        <ele>1016.5</ele>
        <time>2019-08-18T09:32:59Z</time>
      </trkpt>
      <trkpt lat="42.88442" lon="0.04189">
        <ele>1014.4</ele>
        <time>2019-08-18T09:33:00Z</time>
      </trkpt>
      <trkpt lat="42.8843" lon="0.04174">
        <ele>1012.3</ele>
        <time>2019-08-18T09:33:01Z</time>
      </trkpt>
      <trkpt lat="42.8842" lon="0.04158">
        <ele>1010.4</ele>
        <time>2019-08-18T09:33:02Z</time>
      </trkpt>
      <trkpt lat="42.88409" lon="0.04143">
        <ele>1009</ele>
        <time>2019-08-18T09:33:03Z</time>
      </trkpt>
      <trkpt lat="42.88398" lon="0.04128">
        <ele>1007.5</ele>
        <time>2019-08-18T09:33:04Z</time>
      </trkpt>
      <trkpt lat="42.88387" lon="0.04113">
        <ele>1005.8</ele>
        <time>2019-08-18T09:33:05Z</time>
      </trkpt>
      <trkpt lat="42.88376" lon="0.04098">
        <ele>1003.9</ele>
        <time>2019-08-18T09:33:06Z</time>
      </trkpt>
      <trkpt lat="42.88364" lon="0.04083">
        <ele>1002.8</ele>
        <time>2019-08-18T09:33:07Z</time>
      </trkpt>
      <trkpt lat="42.88353" lon="0.04068">
        <ele>1002.1</ele>
        <time>2019-08-18T09:33:08Z</time>
      </trkpt>
      <trkpt lat="42.88342" lon="0.04053">
        <ele>1001.5</ele>
        <time>2019-08-18T09:33:09Z</time>
      </trkpt>
      <trkpt lat="42.88332" lon="0.04038">
        <ele>1001.1</ele>
        <time>2019-08-18T09:33:10Z</time>
      </trkpt>
      <trkpt lat="42.88322" lon="0.04024">
        <ele>1000.7</ele>
        <time>2019-08-18T09:33:11Z</time>
      </trkpt>
      <trkpt lat="42.88313" lon="0.04012">
        <ele>1000.3</ele>
        <time>2019-08-18T09:33:12Z</time>
      </trkpt>
      <trkpt lat="42.88304" lon="0.04001">
        <ele>1000.2</ele>
        <time>2019-08-18T09:33:13Z</time>
      </trkpt>
      <trkpt lat="42.88293" lon="0.03993">
        <ele>1000.1</ele>
        <time>2019-08-18T09:33:14Z</time>
      </trkpt>
      <trkpt lat="42.88284" lon="0.03987">
        <ele>1000.1</ele>
        <time>2019-08-18T09:33:15Z</time>
      </trkpt>
      <trkpt lat="42.88275" lon="0.03985">
        <ele>1000</ele>
        <time>2019-08-18T09:33:16Z</time>
      </trkpt>
      <trkpt lat="42.88267" lon="0.03984">
        <ele>999.9</ele>
        <time>2019-08-18T09:33:17Z</time>
      </trkpt>
      <trkpt lat="42.88261" lon="0.03981">
        <ele>999.7</ele>
        <time>2019-08-18T09:33:18Z</time>
      </trkpt>
      <trkpt lat="42.88257" lon="0.03974">
        <ele>999.5</ele>
        <time>2019-08-18T09:33:19Z</time>
      </trkpt>
      <trkpt lat="42.88256" lon="0.03965">
        <ele>999.3</ele>
        <time>2019-08-18T09:33:20Z</time>
      </trkpt>
      <trkpt lat="42.8826" lon="0.03957">
        <ele>999</ele>
        <time>2019-08-18T09:33:21Z</time>
      </trkpt>
      <trkpt lat="42.88266" lon="0.03953">
        <ele>998.8</ele>
        <time>2019-08-18T09:33:22Z</time>
      </trkpt>
      <trkpt lat="42.88274" lon="0.03953">
        <ele>998.3</ele>
        <time>2019-08-18T09:33:23Z</time>
      </trkpt>
      <trkpt lat="42.88281" lon="0.03957">
        <ele>997.8</ele>
        <time>2019-08-18T09:33:24Z</time>
      </trkpt>
      <trkpt lat="42.88289" lon="0.03963">
        <ele>997.3</ele>
        <time>2019-08-18T09:33:25Z</time>
      </trkpt>
      <trkpt lat="42.88297" lon="0.03968">
        <ele>996.8</ele>
        <time>2019-08-18T09:33:26Z</time>
      </trkpt>
      <trkpt lat="42.88305" lon="0.03973">
        <ele>996.1</ele>
        <time>2019-08-18T09:33:27Z</time>
      </trkpt>
      <trkpt lat="42.88313" lon="0.0398">
        <ele>995.4</ele>
        <time>2019-08-18T09:33:28Z</time>
      </trkpt>
      <trkpt lat="42.8832" lon="0.03988">
        <ele>994.8</ele>
        <time>2019-08-18T09:33:29Z</time>
      </trkpt>
      <trkpt lat="42.88326" lon="0.03997">
        <ele>994.4</ele>
        <time>2019-08-18T09:33:30Z</time>
      </trkpt>
      <trkpt lat="42.88333" lon="0.04007">
        <ele>993.9</ele>
        <time>2019-08-18T09:33:31Z</time>
      </trkpt>
      <trkpt lat="42.88338" lon="0.04017">
        <ele>993.3</ele>
        <time>2019-08-18T09:33:32Z</time>
      </trkpt>
      <trkpt lat="42.88343" lon="0.04026">
        <ele>992.8</ele>
        <time>2019-08-18T09:33:33Z</time>
      </trkpt>
      <trkpt lat="42.8835" lon="0.04031">
        <ele>992.4</ele>
        <time>2019-08-18T09:33:34Z</time>
      </trkpt>
      <trkpt lat="42.88357" lon="0.04035">
        <ele>992</ele>
        <time>2019-08-18T09:33:35Z</time>
      </trkpt>
      <trkpt lat="42.88365" lon="0.04037">
        <ele>991.7</ele>
        <time>2019-08-18T09:33:36Z</time>
      </trkpt>
      <trkpt lat="42.88372" lon="0.04031">
        <ele>991.5</ele>
        <time>2019-08-18T09:33:37Z</time>
      </trkpt>
      <trkpt lat="42.88374" lon="0.04018">
        <ele>991</ele>
        <time>2019-08-18T09:33:38Z</time>
      </trkpt>
      <trkpt lat="42.88374" lon="0.04008">
        <ele>990.6</ele>
        <time>2019-08-18T09:33:39Z</time>
      </trkpt>
      <trkpt lat="42.88372" lon="0.03997">
        <ele>989.5</ele>
        <time>2019-08-18T09:33:40Z</time>
      </trkpt>
      <trkpt lat="42.88368" lon="0.03987">
        <ele>988.2</ele>
        <time>2019-08-18T09:33:41Z</time>
      </trkpt>
      <trkpt lat="42.88364" lon="0.03975">
        <ele>986.7</ele>
        <time>2019-08-18T09:33:42Z</time>
      </trkpt>
      <trkpt lat="42.8836" lon="0.03964">
        <ele>985.4</ele>
        <time>2019-08-18T09:33:43Z</time>
      </trkpt>
      <trkpt lat="42.88356" lon="0.03952">
        <ele>983.9</ele>
        <time>2019-08-18T09:33:44Z</time>
      </trkpt>
      <trkpt lat="42.88351" lon="0.03939">
        <ele>982.5</ele>
        <time>2019-08-18T09:33:45Z</time>
      </trkpt>
      <trkpt lat="42.88346" lon="0.03926">
        <ele>981.9</ele>
        <time>2019-08-18T09:33:46Z</time>
      </trkpt>
      <trkpt lat="42.8834" lon="0.03912">
        <ele>981.7</ele>
        <time>2019-08-18T09:33:47Z</time>
      </trkpt>
      <trkpt lat="42.88335" lon="0.03899">
        <ele>981.3</ele>
        <time>2019-08-18T09:33:48Z</time>
      </trkpt>
      <trkpt lat="42.8833" lon="0.03885">
        <ele>980.7</ele>
        <time>2019-08-18T09:33:49Z</time>
      </trkpt>
      <trkpt lat="42.88324" lon="0.03871">
        <ele>980.2</ele>
        <time>2019-08-18T09:33:50Z</time>
      </trkpt>
      <trkpt lat="42.88318" lon="0.03855">
        <ele>979.6</ele>
        <time>2019-08-18T09:33:51Z</time>
      </trkpt>
      <trkpt lat="42.88313" lon="0.0384">
        <ele>978.8</ele>
        <time>2019-08-18T09:33:52Z</time>
      </trkpt>
      <trkpt lat="42.88306" lon="0.03823">
        <ele>978</ele>
        <time>2019-08-18T09:33:53Z</time>
      </trkpt>
      <trkpt lat="42.883" lon="0.03806">
        <ele>976.7</ele>
        <time>2019-08-18T09:33:54Z</time>
      </trkpt>
      <trkpt lat="42.88295" lon="0.0379">
        <ele>975.3</ele>
        <time>2019-08-18T09:33:55Z</time>
      </trkpt>
      <trkpt lat="42.8829" lon="0.03772">
        <ele>974.3</ele>
        <time>2019-08-18T09:33:56Z</time>
      </trkpt>
      <trkpt lat="42.88286" lon="0.03755">
        <ele>973.6</ele>
        <time>2019-08-18T09:33:57Z</time>
      </trkpt>
      <trkpt lat="42.88282" lon="0.03737">
        <ele>972.9</ele>
        <time>2019-08-18T09:33:58Z</time>
      </trkpt>
      <trkpt lat="42.88279" lon="0.03719">
        <ele>972.1</ele>
        <time>2019-08-18T09:33:59Z</time>
      </trkpt>
      <trkpt lat="42.88275" lon="0.03699">
        <ele>971.3</ele>
        <time>2019-08-18T09:34:00Z</time>
      </trkpt>
      <trkpt lat="42.88273" lon="0.0368">
        <ele>970.6</ele>
        <time>2019-08-18T09:34:01Z</time>
      </trkpt>
      <trkpt lat="42.88273" lon="0.03659">
        <ele>969.8</ele>
        <time>2019-08-18T09:34:02Z</time>
      </trkpt>
      <trkpt lat="42.88272" lon="0.03638">
        <ele>968.9</ele>
        <time>2019-08-18T09:34:03Z</time>
      </trkpt>
      <trkpt lat="42.88272" lon="0.03617">
        <ele>968.1</ele>
        <time>2019-08-18T09:34:04Z</time>
      </trkpt>
      <trkpt lat="42.88273" lon="0.03597">
        <ele>967.2</ele>
        <time>2019-08-18T09:34:05Z</time>
      </trkpt>
      <trkpt lat="42.88274" lon="0.03576">
        <ele>966.2</ele>
        <time>2019-08-18T09:34:06Z</time>
      </trkpt>
      <trkpt lat="42.88276" lon="0.03554">
        <ele>965.2</ele>
        <time>2019-08-18T09:34:07Z</time>
      </trkpt>
      <trkpt lat="42.88279" lon="0.03534">
        <ele>964.2</ele>
        <time>2019-08-18T09:34:08Z</time>
      </trkpt>
      <trkpt lat="42.88285" lon="0.03513">
        <ele>963.1</ele>
        <time>2019-08-18T09:34:09Z</time>
      </trkpt>
      <trkpt lat="42.8829" lon="0.03492">
        <ele>962</ele>
        <time>2019-08-18T09:34:10Z</time>
      </trkpt>
      <trkpt lat="42.88296" lon="0.03472">
        <ele>960.9</ele>
        <time>2019-08-18T09:34:11Z</time>
      </trkpt>
      <trkpt lat="42.88298" lon="0.03451">
        <ele>959.9</ele>
        <time>2019-08-18T09:34:12Z</time>
      </trkpt>
      <trkpt lat="42.883" lon="0.0343">
        <ele>958.8</ele>
        <time>2019-08-18T09:34:13Z</time>
      </trkpt>
      <trkpt lat="42.883" lon="0.03408">
        <ele>957.8</ele>
        <time>2019-08-18T09:34:14Z</time>
      </trkpt>
      <trkpt lat="42.883" lon="0.03386">
        <ele>956.7</ele>
        <time>2019-08-18T09:34:15Z</time>
      </trkpt>
      <trkpt lat="42.883" lon="0.03363">
        <ele>955.5</ele>
        <time>2019-08-18T09:34:16Z</time>
      </trkpt>
      <trkpt lat="42.88299" lon="0.03342">
        <ele>954.4</ele>
        <time>2019-08-18T09:34:17Z</time>
      </trkpt>
      <trkpt lat="42.88299" lon="0.03319">
        <ele>953.2</ele>
        <time>2019-08-18T09:34:18Z</time>
      </trkpt>
      <trkpt lat="42.883" lon="0.03296">
        <ele>951.8</ele>
        <time>2019-08-18T09:34:19Z</time>
      </trkpt>
      <trkpt lat="42.88301" lon="0.03275">
        <ele>950.5</ele>
        <time>2019-08-18T09:34:20Z</time>
      </trkpt>
      <trkpt lat="42.88305" lon="0.03252">
        <ele>949.1</ele>
        <time>2019-08-18T09:34:21Z</time>
      </trkpt>
      <trkpt lat="42.88311" lon="0.03233">
        <ele>947.7</ele>
        <time>2019-08-18T09:34:22Z</time>
      </trkpt>
      <trkpt lat="42.88318" lon="0.03212">
        <ele>946.2</ele>
        <time>2019-08-18T09:34:23Z</time>
      </trkpt>
      <trkpt lat="42.88325" lon="0.03193">
        <ele>944.6</ele>
        <time>2019-08-18T09:34:24Z</time>
      </trkpt>
      <trkpt lat="42.8833" lon="0.03173">
        <ele>943.1</ele>
        <time>2019-08-18T09:34:25Z</time>
      </trkpt>
      <trkpt lat="42.88333" lon="0.03154">
        <ele>941.6</ele>
        <time>2019-08-18T09:34:26Z</time>
      </trkpt>
      <trkpt lat="42.88334" lon="0.03134">
        <ele>940</ele>
        <time>2019-08-18T09:34:27Z</time>
      </trkpt>
      <trkpt lat="42.88331" lon="0.03114">
        <ele>938.4</ele>
        <time>2019-08-18T09:34:28Z</time>
      </trkpt>
      <trkpt lat="42.88327" lon="0.03096">
        <ele>936.9</ele>
        <time>2019-08-18T09:34:29Z</time>
      </trkpt>
      <trkpt lat="42.88322" lon="0.03076">
        <ele>935.3</ele>
        <time>2019-08-18T09:34:30Z</time>
      </trkpt>
      <trkpt lat="42.88314" lon="0.03058">
        <ele>933.7</ele>
        <time>2019-08-18T09:34:31Z</time>
      </trkpt>
      <trkpt lat="42.88304" lon="0.03042">
        <ele>932.1</ele>
        <time>2019-08-18T09:34:32Z</time>
      </trkpt>
      <trkpt lat="42.88293" lon="0.03028">
        <ele>930.6</ele>
        <time>2019-08-18T09:34:33Z</time>
      </trkpt>
      <trkpt lat="42.88282" lon="0.03014">
        <ele>929.2</ele>
        <time>2019-08-18T09:34:34Z</time>
      </trkpt>
      <trkpt lat="42.8827" lon="0.03001">
        <ele>927.8</ele>
        <time>2019-08-18T09:34:35Z</time>
      </trkpt>
      <trkpt lat="42.88259" lon="0.02988">
        <ele>926.5</ele>
        <time>2019-08-18T09:34:36Z</time>
      </trkpt>
      <trkpt lat="42.88247" lon="0.02975">
        <ele>925.3</ele>
        <time>2019-08-18T09:34:37Z</time>
      </trkpt>
      <trkpt lat="42.88236" lon="0.02964">
        <ele>924.2</ele>
        <time>2019-08-18T09:34:38Z</time>
      </trkpt>
      <trkpt lat="42.88224" lon="0.02951">
        <ele>922.9</ele>
        <time>2019-08-18T09:34:39Z</time>
      </trkpt>
      <trkpt lat="42.88213" lon="0.02938">
        <ele>921.8</ele>
        <time>2019-08-18T09:34:40Z</time>
      </trkpt>
      <trkpt lat="42.88202" lon="0.02925">
        <ele>920.7</ele>
        <time>2019-08-18T09:34:41Z</time>
      </trkpt>
      <trkpt lat="42.88191" lon="0.02914">
        <ele>919.7</ele>
        <time>2019-08-18T09:34:42Z</time>
      </trkpt>
      <trkpt lat="42.88179" lon="0.02902">
        <ele>918.5</ele>
        <time>2019-08-18T09:34:43Z</time>
      </trkpt>
      <trkpt lat="42.88168" lon="0.0289">
        <ele>917.1</ele>
        <time>2019-08-18T09:34:44Z</time>
      </trkpt>
      <trkpt lat="42.88157" lon="0.02877">
        <ele>916</ele>
        <time>2019-08-18T09:34:45Z</time>
      </trkpt>
      <trkpt lat="42.88147" lon="0.02865">
        <ele>914.9</ele>
        <time>2019-08-18T09:34:46Z</time>
      </trkpt>
      <trkpt lat="42.88136" lon="0.02852">
        <ele>913.1</ele>
        <time>2019-08-18T09:34:47Z</time>
      </trkpt>
      <trkpt lat="42.88126" lon="0.0284">
        <ele>911.2</ele>
        <time>2019-08-18T09:34:48Z</time>
      </trkpt>
      <trkpt lat="42.88115" lon="0.02828">
        <ele>909.4</ele>
        <time>2019-08-18T09:34:49Z</time>
      </trkpt>
      <trkpt lat="42.88105" lon="0.02815">
        <ele>907.5</ele>
        <time>2019-08-18T09:34:50Z</time>
      </trkpt>
      <trkpt lat="42.88094" lon="0.02803">
        <ele>905.7</ele>
        <time>2019-08-18T09:34:51Z</time>
      </trkpt>
      <trkpt lat="42.88083" lon="0.02791">
        <ele>904</ele>
        <time>2019-08-18T09:34:52Z</time>
      </trkpt>
      <trkpt lat="42.88074" lon="0.0278">
        <ele>902.8</ele>
        <time>2019-08-18T09:34:53Z</time>
      </trkpt>
      <trkpt lat="42.88063" lon="0.02768">
        <ele>901.6</ele>
        <time>2019-08-18T09:34:54Z</time>
      </trkpt>
      <trkpt lat="42.88053" lon="0.02756">
        <ele>900.3</ele>
        <time>2019-08-18T09:34:55Z</time>
      </trkpt>
      <trkpt lat="42.88042" lon="0.02743">
        <ele>898.9</ele>
        <time>2019-08-18T09:34:56Z</time>
      </trkpt>
      <trkpt lat="42.88031" lon="0.02731">
        <ele>897.1</ele>
        <time>2019-08-18T09:34:57Z</time>
      </trkpt>
      <trkpt lat="42.88021" lon="0.02718">
        <ele>894.8</ele>
        <time>2019-08-18T09:34:58Z</time>
      </trkpt>
      <trkpt lat="42.8801" lon="0.02706">
        <ele>892.4</ele>
        <time>2019-08-18T09:34:59Z</time>
      </trkpt>
      <trkpt lat="42.87999" lon="0.02694">
        <ele>890</ele>
        <time>2019-08-18T09:35:00Z</time>
      </trkpt>
      <trkpt lat="42.87989" lon="0.02681">
        <ele>887.8</ele>
        <time>2019-08-18T09:35:01Z</time>
      </trkpt>
      <trkpt lat="42.87978" lon="0.02668">
        <ele>886.2</ele>
        <time>2019-08-18T09:35:02Z</time>
      </trkpt>
      <trkpt lat="42.87968" lon="0.02655">
        <ele>885.2</ele>
        <time>2019-08-18T09:35:03Z</time>
      </trkpt>
      <trkpt lat="42.87958" lon="0.02641">
        <ele>884.2</ele>
        <time>2019-08-18T09:35:04Z</time>
      </trkpt>
      <trkpt lat="42.87949" lon="0.02625">
        <ele>883.5</ele>
        <time>2019-08-18T09:35:05Z</time>
      </trkpt>
      <trkpt lat="42.87941" lon="0.02609">
        <ele>882.8</ele>
        <time>2019-08-18T09:35:06Z</time>
      </trkpt>
      <trkpt lat="42.87935" lon="0.02592">
        <ele>882.1</ele>
        <time>2019-08-18T09:35:07Z</time>
      </trkpt>
      <trkpt lat="42.87928" lon="0.02574">
        <ele>881.5</ele>
        <time>2019-08-18T09:35:08Z</time>
      </trkpt>
      <trkpt lat="42.87924" lon="0.02555">
        <ele>880.7</ele>
        <time>2019-08-18T09:35:09Z</time>
      </trkpt>
      <trkpt lat="42.8792" lon="0.02536">
        <ele>879.9</ele>
        <time>2019-08-18T09:35:10Z</time>
      </trkpt>
      <trkpt lat="42.87915" lon="0.02517">
        <ele>879</ele>
        <time>2019-08-18T09:35:11Z</time>
      </trkpt>
      <trkpt lat="42.87911" lon="0.02496">
        <ele>878.3</ele>
        <time>2019-08-18T09:35:12Z</time>
      </trkpt>
      <trkpt lat="42.87907" lon="0.02478">
        <ele>877.9</ele>
        <time>2019-08-18T09:35:13Z</time>
      </trkpt>
      <trkpt lat="42.87903" lon="0.02459">
        <ele>877.6</ele>
        <time>2019-08-18T09:35:14Z</time>
      </trkpt>
      <trkpt lat="42.87899" lon="0.02439">
        <ele>877</ele>
        <time>2019-08-18T09:35:15Z</time>
      </trkpt>
      <trkpt lat="42.87894" lon="0.02419">
        <ele>876.1</ele>
        <time>2019-08-18T09:35:16Z</time>
      </trkpt>
      <trkpt lat="42.87891" lon="0.024">
        <ele>874.9</ele>
        <time>2019-08-18T09:35:17Z</time>
      </trkpt>
      <trkpt lat="42.87887" lon="0.02381">
        <ele>873.7</ele>
        <time>2019-08-18T09:35:18Z</time>
      </trkpt>
      <trkpt lat="42.87884" lon="0.02361">
        <ele>872.3</ele>
        <time>2019-08-18T09:35:19Z</time>
      </trkpt>
      <trkpt lat="42.8788" lon="0.02342">
        <ele>870.6</ele>
        <time>2019-08-18T09:35:20Z</time>
      </trkpt>
      <trkpt lat="42.87875" lon="0.02323">
        <ele>868.6</ele>
        <time>2019-08-18T09:35:21Z</time>
      </trkpt>
      <trkpt lat="42.8787" lon="0.02304">
        <ele>866.4</ele>
        <time>2019-08-18T09:35:22Z</time>
      </trkpt>
      <trkpt lat="42.87865" lon="0.02286">
        <ele>864</ele>
        <time>2019-08-18T09:35:23Z</time>
      </trkpt>
      <trkpt lat="42.87862" lon="0.02265">
        <ele>861.6</ele>
        <time>2019-08-18T09:35:24Z</time>
      </trkpt>
      <trkpt lat="42.87859" lon="0.02246">
        <ele>859.4</ele>
        <time>2019-08-18T09:35:25Z</time>
      </trkpt>
      <trkpt lat="42.87858" lon="0.02227">
        <ele>857.4</ele>
        <time>2019-08-18T09:35:26Z</time>
      </trkpt>
      <trkpt lat="42.87858" lon="0.02208">
        <ele>856.3</ele>
        <time>2019-08-18T09:35:27Z</time>
      </trkpt>
      <trkpt lat="42.87855" lon="0.02189">
        <ele>854.7</ele>
        <time>2019-08-18T09:35:28Z</time>
      </trkpt>
      <trkpt lat="42.87855" lon="0.02169">
        <ele>852.9</ele>
        <time>2019-08-18T09:35:29Z</time>
      </trkpt>
      <trkpt lat="42.87854" lon="0.0215">
        <ele>851</ele>
        <time>2019-08-18T09:35:30Z</time>
      </trkpt>
      <trkpt lat="42.87854" lon="0.02133">
        <ele>849.4</ele>
        <time>2019-08-18T09:35:31Z</time>
      </trkpt>
      <trkpt lat="42.87853" lon="0.02114">
        <ele>847.8</ele>
        <time>2019-08-18T09:35:32Z</time>
      </trkpt>
      <trkpt lat="42.87852" lon="0.02096">
        <ele>846.2</ele>
        <time>2019-08-18T09:35:33Z</time>
      </trkpt>
      <trkpt lat="42.87851" lon="0.02078">
        <ele>844.6</ele>
        <time>2019-08-18T09:35:34Z</time>
      </trkpt>
      <trkpt lat="42.8785" lon="0.02061">
        <ele>843.1</ele>
        <time>2019-08-18T09:35:35Z</time>
      </trkpt>
      <trkpt lat="42.8785" lon="0.02043">
        <ele>841.4</ele>
        <time>2019-08-18T09:35:36Z</time>
      </trkpt>
      <trkpt lat="42.87849" lon="0.02024">
        <ele>840.1</ele>
        <time>2019-08-18T09:35:37Z</time>
      </trkpt>
      <trkpt lat="42.87847" lon="0.02006">
        <ele>839</ele>
        <time>2019-08-18T09:35:38Z</time>
      </trkpt>
      <trkpt lat="42.87847" lon="0.01989">
        <ele>838</ele>
        <time>2019-08-18T09:35:39Z</time>
      </trkpt>
      <trkpt lat="42.87846" lon="0.01971">
        <ele>837.1</ele>
        <time>2019-08-18T09:35:40Z</time>
      </trkpt>
      <trkpt lat="42.87845" lon="0.01953">
        <ele>836.1</ele>
        <time>2019-08-18T09:35:41Z</time>
      </trkpt>
      <trkpt lat="42.87845" lon="0.01936">
        <ele>835</ele>
        <time>2019-08-18T09:35:42Z</time>
      </trkpt>
      <trkpt lat="42.87844" lon="0.01918">
        <ele>833.8</ele>
        <time>2019-08-18T09:35:43Z</time>
      </trkpt>
      <trkpt lat="42.87844" lon="0.01899">
        <ele>832.6</ele>
        <time>2019-08-18T09:35:44Z</time>
      </trkpt>
      <trkpt lat="42.87843" lon="0.01881">
        <ele>831.4</ele>
        <time>2019-08-18T09:35:45Z</time>
      </trkpt>
      <trkpt lat="42.87842" lon="0.01863">
        <ele>830.3</ele>
        <time>2019-08-18T09:35:46Z</time>
      </trkpt>
      <trkpt lat="42.87841" lon="0.01845">
        <ele>829.3</ele>
        <time>2019-08-18T09:35:47Z</time>
      </trkpt>
      <trkpt lat="42.8784" lon="0.01827">
        <ele>828.5</ele>
        <time>2019-08-18T09:35:48Z</time>
      </trkpt>
      <trkpt lat="42.87839" lon="0.01807">
        <ele>827.8</ele>
        <time>2019-08-18T09:35:49Z</time>
      </trkpt>
      <trkpt lat="42.87838" lon="0.01789">
        <ele>827.2</ele>
        <time>2019-08-18T09:35:50Z</time>
      </trkpt>
      <trkpt lat="42.87837" lon="0.01771">
        <ele>826.6</ele>
        <time>2019-08-18T09:35:51Z</time>
      </trkpt>
      <trkpt lat="42.87835" lon="0.01751">
        <ele>826</ele>
        <time>2019-08-18T09:35:52Z</time>
      </trkpt>
      <trkpt lat="42.87834" lon="0.01732">
        <ele>825.3</ele>
        <time>2019-08-18T09:35:53Z</time>
      </trkpt>
      <trkpt lat="42.87833" lon="0.01714">
        <ele>824.6</ele>
        <time>2019-08-18T09:35:54Z</time>
      </trkpt>
      <trkpt lat="42.87832" lon="0.01696">
        <ele>824</ele>
        <time>2019-08-18T09:35:55Z</time>
      </trkpt>
      <trkpt lat="42.87831" lon="0.01677">
        <ele>823.4</ele>
        <time>2019-08-18T09:35:56Z</time>
      </trkpt>
      <trkpt lat="42.87829" lon="0.01657">
        <ele>822.8</ele>
        <time>2019-08-18T09:35:57Z</time>
      </trkpt>
      <trkpt lat="42.87827" lon="0.01637">
        <ele>822.2</ele>
        <time>2019-08-18T09:35:58Z</time>
      </trkpt>
      <trkpt lat="42.87825" lon="0.01617">
        <ele>821.5</ele>
        <time>2019-08-18T09:35:59Z</time>
      </trkpt>
      <trkpt lat="42.87823" lon="0.01598">
        <ele>820.6</ele>
        <time>2019-08-18T09:36:00Z</time>
      </trkpt>
      <trkpt lat="42.87822" lon="0.0158">
        <ele>819.7</ele>
        <time>2019-08-18T09:36:01Z</time>
      </trkpt>
      <trkpt lat="42.8782" lon="0.0156">
        <ele>818.8</ele>
        <time>2019-08-18T09:36:02Z</time>
      </trkpt>
      <trkpt lat="42.87819" lon="0.0154">
        <ele>817.8</ele>
        <time>2019-08-18T09:36:03Z</time>
      </trkpt>
      <trkpt lat="42.87818" lon="0.01521">
        <ele>816.8</ele>
        <time>2019-08-18T09:36:04Z</time>
      </trkpt>
      <trkpt lat="42.87818" lon="0.01502">
        <ele>815.7</ele>
        <time>2019-08-18T09:36:05Z</time>
      </trkpt>
      <trkpt lat="42.87818" lon="0.01484">
        <ele>814.4</ele>
        <time>2019-08-18T09:36:06Z</time>
      </trkpt>
      <trkpt lat="42.87817" lon="0.01463">
        <ele>813.1</ele>
        <time>2019-08-18T09:36:07Z</time>
      </trkpt>
      <trkpt lat="42.87817" lon="0.01442">
        <ele>811.9</ele>
        <time>2019-08-18T09:36:08Z</time>
      </trkpt>
      <trkpt lat="42.87817" lon="0.01423">
        <ele>810.8</ele>
        <time>2019-08-18T09:36:09Z</time>
      </trkpt>
      <trkpt lat="42.87817" lon="0.01404">
        <ele>809.8</ele>
        <time>2019-08-18T09:36:10Z</time>
      </trkpt>
      <trkpt lat="42.87817" lon="0.01385">
        <ele>808.7</ele>
        <time>2019-08-18T09:36:11Z</time>
      </trkpt>
      <trkpt lat="42.87818" lon="0.01364">
        <ele>807.7</ele>
        <time>2019-08-18T09:36:12Z</time>
      </trkpt>
      <trkpt lat="42.87817" lon="0.01345">
        <ele>806.7</ele>
        <time>2019-08-18T09:36:13Z</time>
      </trkpt>
      <trkpt lat="42.87816" lon="0.01325">
        <ele>805.7</ele>
        <time>2019-08-18T09:36:14Z</time>
      </trkpt>
      <trkpt lat="42.87813" lon="0.01306">
        <ele>804.5</ele>
        <time>2019-08-18T09:36:15Z</time>
      </trkpt>
      <trkpt lat="42.87809" lon="0.01286">
        <ele>803.2</ele>
        <time>2019-08-18T09:36:16Z</time>
      </trkpt>
      <trkpt lat="42.87804" lon="0.01268">
        <ele>801.9</ele>
        <time>2019-08-18T09:36:17Z</time>
      </trkpt>
      <trkpt lat="42.87798" lon="0.01249">
        <ele>800.6</ele>
        <time>2019-08-18T09:36:18Z</time>
      </trkpt>
      <trkpt lat="42.87792" lon="0.0123">
        <ele>799.2</ele>
        <time>2019-08-18T09:36:19Z</time>
      </trkpt>
      <trkpt lat="42.87786" lon="0.01211">
        <ele>797.8</ele>
        <time>2019-08-18T09:36:20Z</time>
      </trkpt>
      <trkpt lat="42.87779" lon="0.01192">
        <ele>796.5</ele>
        <time>2019-08-18T09:36:21Z</time>
      </trkpt>
      <trkpt lat="42.87773" lon="0.01175">
        <ele>795.4</ele>
        <time>2019-08-18T09:36:22Z</time>
      </trkpt>
      <trkpt lat="42.87765" lon="0.01156">
        <ele>794.3</ele>
        <time>2019-08-18T09:36:23Z</time>
      </trkpt>
      <trkpt lat="42.87757" lon="0.01138">
        <ele>793.1</ele>
        <time>2019-08-18T09:36:24Z</time>
      </trkpt>
      <trkpt lat="42.87749" lon="0.01119">
        <ele>791.7</ele>
        <time>2019-08-18T09:36:25Z</time>
      </trkpt>
      <trkpt lat="42.87743" lon="0.01102">
        <ele>790.3</ele>
        <time>2019-08-18T09:36:26Z</time>
      </trkpt>
      <trkpt lat="42.87735" lon="0.01083">
        <ele>788.9</ele>
        <time>2019-08-18T09:36:27Z</time>
      </trkpt>
      <trkpt lat="42.87729" lon="0.01063">
        <ele>787.6</ele>
        <time>2019-08-18T09:36:28Z</time>
      </trkpt>
      <trkpt lat="42.87722" lon="0.01043">
        <ele>786.6</ele>
        <time>2019-08-18T09:36:29Z</time>
      </trkpt>
      <trkpt lat="42.87716" lon="0.01023">
        <ele>785.7</ele>
        <time>2019-08-18T09:36:30Z</time>
      </trkpt>
      <trkpt lat="42.8771" lon="0.01004">
        <ele>784.7</ele>
        <time>2019-08-18T09:36:31Z</time>
      </trkpt>
      <trkpt lat="42.87703" lon="0.00985">
        <ele>783.7</ele>
        <time>2019-08-18T09:36:32Z</time>
      </trkpt>
      <trkpt lat="42.87697" lon="0.00966">
        <ele>782.6</ele>
        <time>2019-08-18T09:36:33Z</time>
      </trkpt>
      <trkpt lat="42.87691" lon="0.00947">
        <ele>781.7</ele>
        <time>2019-08-18T09:36:34Z</time>
      </trkpt>
      <trkpt lat="42.87685" lon="0.00928">
        <ele>780.9</ele>
        <time>2019-08-18T09:36:35Z</time>
      </trkpt>
      <trkpt lat="42.87678" lon="0.0091">
        <ele>780.1</ele>
        <time>2019-08-18T09:36:36Z</time>
      </trkpt>
      <trkpt lat="42.8767" lon="0.00893">
        <ele>779.4</ele>
        <time>2019-08-18T09:36:37Z</time>
      </trkpt>
      <trkpt lat="42.87661" lon="0.00877">
        <ele>778.8</ele>
        <time>2019-08-18T09:36:38Z</time>
      </trkpt>
      <trkpt lat="42.87652" lon="0.00862">
        <ele>778.3</ele>
        <time>2019-08-18T09:36:39Z</time>
      </trkpt>
      <trkpt lat="42.87642" lon="0.00847">
        <ele>777.7</ele>
        <time>2019-08-18T09:36:40Z</time>
      </trkpt>
      <trkpt lat="42.87632" lon="0.00834">
        <ele>777</ele>
        <time>2019-08-18T09:36:41Z</time>
      </trkpt>
      <trkpt lat="42.87623" lon="0.0082">
        <ele>776.2</ele>
        <time>2019-08-18T09:36:42Z</time>
      </trkpt>
      <trkpt lat="42.87613" lon="0.00806">
        <ele>775.5</ele>
        <time>2019-08-18T09:36:43Z</time>
      </trkpt>
      <trkpt lat="42.87603" lon="0.00792">
        <ele>774.6</ele>
        <time>2019-08-18T09:36:44Z</time>
      </trkpt>
      <trkpt lat="42.87593" lon="0.00778">
        <ele>773.6</ele>
        <time>2019-08-18T09:36:45Z</time>
      </trkpt>
      <trkpt lat="42.87585" lon="0.00764">
        <ele>772.6</ele>
        <time>2019-08-18T09:36:46Z</time>
      </trkpt>
      <trkpt lat="42.87575" lon="0.0075">
        <ele>770.9</ele>
        <time>2019-08-18T09:36:47Z</time>
      </trkpt>
      <trkpt lat="42.87565" lon="0.00737">
        <ele>769.1</ele>
        <time>2019-08-18T09:36:48Z</time>
      </trkpt>
      <trkpt lat="42.87556" lon="0.00724">
        <ele>767.6</ele>
        <time>2019-08-18T09:36:49Z</time>
      </trkpt>
      <trkpt lat="42.87546" lon="0.0071">
        <ele>765.7</ele>
        <time>2019-08-18T09:36:50Z</time>
      </trkpt>
      <trkpt lat="42.87539" lon="0.00699">
        <ele>764.2</ele>
        <time>2019-08-18T09:36:51Z</time>
      </trkpt>
      <trkpt lat="42.87533" lon="0.0069">
        <ele>763.1</ele>
        <time>2019-08-18T09:36:52Z</time>
      </trkpt>
      <trkpt lat="42.87527" lon="0.00682">
        <ele>762.1</ele>
        <time>2019-08-18T09:36:53Z</time>
      </trkpt>
      <trkpt lat="42.87523" lon="0.00676">
        <ele>761.4</ele>
        <time>2019-08-18T09:36:54Z</time>
      </trkpt>
      <trkpt lat="42.87519" lon="0.00669">
        <ele>760.7</ele>
        <time>2019-08-18T09:36:55Z</time>
      </trkpt>
      <trkpt lat="42.87515" lon="0.00662">
        <ele>760</ele>
        <time>2019-08-18T09:36:56Z</time>
      </trkpt>
      <trkpt lat="42.87511" lon="0.00655">
        <ele>759.4</ele>
        <time>2019-08-18T09:36:57Z</time>
      </trkpt>
      <trkpt lat="42.87506" lon="0.00648">
        <ele>758.8</ele>
        <time>2019-08-18T09:36:58Z</time>
      </trkpt>
      <trkpt lat="42.87501" lon="0.00641">
        <ele>757.9</ele>
        <time>2019-08-18T09:36:59Z</time>
      </trkpt>
      <trkpt lat="42.87496" lon="0.00634">
        <ele>757.2</ele>
        <time>2019-08-18T09:37:00Z</time>
      </trkpt>
      <trkpt lat="42.87491" lon="0.00626">
        <ele>756.3</ele>
        <time>2019-08-18T09:37:01Z</time>
      </trkpt>
      <trkpt lat="42.87485" lon="0.00618">
        <ele>754.7</ele>
        <time>2019-08-18T09:37:02Z</time>
      </trkpt>
      <trkpt lat="42.87479" lon="0.0061">
        <ele>754</ele>
        <time>2019-08-18T09:37:03Z</time>
      </trkpt>
      <trkpt lat="42.87474" lon="0.00602">
        <ele>753.3</ele>
        <time>2019-08-18T09:37:04Z</time>
      </trkpt>
      <trkpt lat="42.87468" lon="0.00593">
        <ele>752.5</ele>
        <time>2019-08-18T09:37:05Z</time>
      </trkpt>
      <trkpt lat="42.87462" lon="0.00583">
        <ele>751.2</ele>
        <time>2019-08-18T09:37:06Z</time>
      </trkpt>
      <trkpt lat="42.87455" lon="0.00574">
        <ele>750.2</ele>
        <time>2019-08-18T09:37:07Z</time>
      </trkpt>
      <trkpt lat="42.87449" lon="0.00563">
        <ele>749.2</ele>
        <time>2019-08-18T09:37:08Z</time>
      </trkpt>
      <trkpt lat="42.87443" lon="0.00554">
        <ele>748.3</ele>
        <time>2019-08-18T09:37:09Z</time>
      </trkpt>
      <trkpt lat="42.87436" lon="0.00544">
        <ele>747.6</ele>
        <time>2019-08-18T09:37:10Z</time>
      </trkpt>
      <trkpt lat="42.8743" lon="0.00533">
        <ele>746.9</ele>
        <time>2019-08-18T09:37:11Z</time>
      </trkpt>
      <trkpt lat="42.87424" lon="0.00523">
        <ele>746.4</ele>
        <time>2019-08-18T09:37:12Z</time>
      </trkpt>
      <trkpt lat="42.87419" lon="0.00512">
        <ele>745.8</ele>
        <time>2019-08-18T09:37:13Z</time>
      </trkpt>
      <trkpt lat="42.87415" lon="0.005">
        <ele>745.2</ele>
        <time>2019-08-18T09:37:14Z</time>
      </trkpt>
      <trkpt lat="42.87411" lon="0.00488">
        <ele>744.7</ele>
        <time>2019-08-18T09:37:15Z</time>
      </trkpt>
      <trkpt lat="42.87408" lon="0.00476">
        <ele>744</ele>
        <time>2019-08-18T09:37:16Z</time>
      </trkpt>
      <trkpt lat="42.87404" lon="0.00463">
        <ele>743.2</ele>
        <time>2019-08-18T09:37:17Z</time>
      </trkpt>
      <trkpt lat="42.874" lon="0.00448">
        <ele>742.1</ele>
        <time>2019-08-18T09:37:18Z</time>
      </trkpt>
      <trkpt lat="42.87396" lon="0.00435">
        <ele>741.4</ele>
        <time>2019-08-18T09:37:19Z</time>
      </trkpt>
      <trkpt lat="42.87393" lon="0.00421">
        <ele>740.7</ele>
        <time>2019-08-18T09:37:20Z</time>
      </trkpt>
      <trkpt lat="42.8739" lon="0.00406">
        <ele>740</ele>
        <time>2019-08-18T09:37:21Z</time>
      </trkpt>
      <trkpt lat="42.87385" lon="0.00392">
        <ele>739.3</ele>
        <time>2019-08-18T09:37:22Z</time>
      </trkpt>
      <trkpt lat="42.87381" lon="0.00376">
        <ele>738.9</ele>
        <time>2019-08-18T09:37:23Z</time>
      </trkpt>
      <trkpt lat="42.87377" lon="0.00361">
        <ele>738.5</ele>
        <time>2019-08-18T09:37:24Z</time>
      </trkpt>
      <trkpt lat="42.87372" lon="0.00344">
        <ele>737.8</ele>
        <time>2019-08-18T09:37:25Z</time>
      </trkpt>
      <trkpt lat="42.87367" lon="0.00328">
        <ele>737.2</ele>
        <time>2019-08-18T09:37:26Z</time>
      </trkpt>
      <trkpt lat="42.87363" lon="0.00313">
        <ele>736.8</ele>
        <time>2019-08-18T09:37:27Z</time>
      </trkpt>
      <trkpt lat="42.87359" lon="0.00298">
        <ele>736.3</ele>
        <time>2019-08-18T09:37:28Z</time>
      </trkpt>
      <trkpt lat="42.87354" lon="0.00283">
        <ele>735.7</ele>
        <time>2019-08-18T09:37:29Z</time>
      </trkpt>
      <trkpt lat="42.8735" lon="0.00269">
        <ele>735.2</ele>
        <time>2019-08-18T09:37:30Z</time>
      </trkpt>
      <trkpt lat="42.87346" lon="0.00255">
        <ele>734.7</ele>
        <time>2019-08-18T09:37:31Z</time>
      </trkpt>
      <trkpt lat="42.87342" lon="0.00241">
        <ele>734.3</ele>
        <time>2019-08-18T09:37:32Z</time>
      </trkpt>
      <trkpt lat="42.87339" lon="0.00228">
        <ele>733.9</ele>
        <time>2019-08-18T09:37:33Z</time>
      </trkpt>
      <trkpt lat="42.87335" lon="0.00214">
        <ele>733.6</ele>
        <time>2019-08-18T09:37:34Z</time>
      </trkpt>
      <trkpt lat="42.87332" lon="0.002">
        <ele>733.3</ele>
        <time>2019-08-18T09:37:35Z</time>
      </trkpt>
      <trkpt lat="42.87329" lon="0.00186">
        <ele>733</ele>
        <time>2019-08-18T09:37:36Z</time>
      </trkpt>
      <trkpt lat="42.87325" lon="0.00173">
        <ele>732.7</ele>
        <time>2019-08-18T09:37:37Z</time>
      </trkpt>
      <trkpt lat="42.87322" lon="0.0016">
        <ele>732.5</ele>
        <time>2019-08-18T09:37:38Z</time>
      </trkpt>
      <trkpt lat="42.87319" lon="0.00148">
        <ele>732.3</ele>
        <time>2019-08-18T09:37:39Z</time>
      </trkpt>
      <trkpt lat="42.87316" lon="0.00135">
        <ele>732.1</ele>
        <time>2019-08-18T09:37:40Z</time>
      </trkpt>
      <trkpt lat="42.87313" lon="0.00123">
        <ele>731.9</ele>
        <time>2019-08-18T09:37:41Z</time>
      </trkpt>
      <trkpt lat="42.8731" lon="0.00111">
        <ele>731.7</ele>
        <time>2019-08-18T09:37:42Z</time>
      </trkpt>
      <trkpt lat="42.87307" lon="0.001">
        <ele>731.6</ele>
        <time>2019-08-18T09:37:43Z</time>
      </trkpt>
      <trkpt lat="42.87304" lon="0.00088">
        <ele>731.5</ele>
        <time>2019-08-18T09:37:44Z</time>
      </trkpt>
      <trkpt lat="42.873" lon="0.00076">
        <ele>731.3</ele>
        <time>2019-08-18T09:37:45Z</time>
      </trkpt>
      <trkpt lat="42.87297" lon="0.00066">
        <ele>731.1</ele>
        <time>2019-08-18T09:37:46Z</time>
      </trkpt>
      <trkpt lat="42.87293" lon="0.00054">
        <ele>730.8</ele>
        <time>2019-08-18T09:37:47Z</time>
      </trkpt>
      <trkpt lat="42.8729" lon="0.00043">
        <ele>730.5</ele>
        <time>2019-08-18T09:37:48Z</time>
      </trkpt>
      <trkpt lat="42.87286" lon="0.00031">
        <ele>730.2</ele>
        <time>2019-08-18T09:37:49Z</time>
      </trkpt>
      <trkpt lat="42.87284" lon="0.00019">
        <ele>729.8</ele>
        <time>2019-08-18T09:37:50Z</time>
      </trkpt>
      <trkpt lat="42.8728" lon="7.0E-5">
        <ele>729.5</ele>
        <time>2019-08-18T09:37:51Z</time>
      </trkpt>
      <trkpt lat="42.87278" lon="-6.0E-5">
        <ele>728.5</ele>
        <time>2019-08-18T09:37:52Z</time>
      </trkpt>
      <trkpt lat="42.87275" lon="-0.00018">
        <ele>727.6</ele>
        <time>2019-08-18T09:37:53Z</time>
      </trkpt>
      <trkpt lat="42.87271" lon="-0.00031">
        <ele>726.8</ele>
        <time>2019-08-18T09:37:54Z</time>
      </trkpt>
      <trkpt lat="42.87267" lon="-0.00044">
        <ele>726.1</ele>
        <time>2019-08-18T09:37:55Z</time>
      </trkpt>
      <trkpt lat="42.87264" lon="-0.00057">
        <ele>725.6</ele>
        <time>2019-08-18T09:37:56Z</time>
      </trkpt>
      <trkpt lat="42.8726" lon="-0.00069">
        <ele>725.5</ele>
        <time>2019-08-18T09:37:57Z</time>
      </trkpt>
      <trkpt lat="42.87256" lon="-0.00083">
        <ele>725.2</ele>
        <time>2019-08-18T09:37:58Z</time>
      </trkpt>
      <trkpt lat="42.87252" lon="-0.00096">
        <ele>725</ele>
        <time>2019-08-18T09:37:59Z</time>
      </trkpt>
      <trkpt lat="42.87248" lon="-0.00109">
        <ele>724.9</ele>
        <time>2019-08-18T09:38:00Z</time>
      </trkpt>
      <trkpt lat="42.87245" lon="-0.00122">
        <ele>724.8</ele>
        <time>2019-08-18T09:38:01Z</time>
      </trkpt>
      <trkpt lat="42.87241" lon="-0.00134">
        <ele>724.6</ele>
        <time>2019-08-18T09:38:02Z</time>
      </trkpt>
      <trkpt lat="42.87238" lon="-0.00144">
        <ele>724.4</ele>
        <time>2019-08-18T09:38:03Z</time>
      </trkpt>
      <trkpt lat="42.87236" lon="-0.00154">
        <ele>724.1</ele>
        <time>2019-08-18T09:38:04Z</time>
      </trkpt>
      <trkpt lat="42.87233" lon="-0.00163">
        <ele>723.9</ele>
        <time>2019-08-18T09:38:05Z</time>
      </trkpt>
      <trkpt lat="42.87231" lon="-0.00171">
        <ele>723.6</ele>
        <time>2019-08-18T09:38:06Z</time>
      </trkpt>
      <trkpt lat="42.87235" lon="-0.0018">
        <ele>723.2</ele>
        <time>2019-08-18T09:38:07Z</time>
      </trkpt>
      <trkpt lat="42.87239" lon="-0.00189">
        <ele>722.4</ele>
        <time>2019-08-18T09:38:08Z</time>
      </trkpt>
      <trkpt lat="42.87245" lon="-0.00199">
        <ele>721.9</ele>
        <time>2019-08-18T09:38:09Z</time>
      </trkpt>
      <trkpt lat="42.87251" lon="-0.00207">
        <ele>721.2</ele>
        <time>2019-08-18T09:38:10Z</time>
      </trkpt>
      <trkpt lat="42.87257" lon="-0.00218">
        <ele>720.4</ele>
        <time>2019-08-18T09:38:11Z</time>
      </trkpt>
      <trkpt lat="42.87261" lon="-0.00229">
        <ele>719.8</ele>
        <time>2019-08-18T09:38:12Z</time>
      </trkpt>
      <trkpt lat="42.87267" lon="-0.0024">
        <ele>719.2</ele>
        <time>2019-08-18T09:38:13Z</time>
      </trkpt>
      <trkpt lat="42.87272" lon="-0.00249">
        <ele>718.6</ele>
        <time>2019-08-18T09:38:14Z</time>
      </trkpt>
      <trkpt lat="42.87276" lon="-0.00259">
        <ele>718</ele>
        <time>2019-08-18T09:38:15Z</time>
      </trkpt>
      <trkpt lat="42.87281" lon="-0.00265">
        <ele>717.5</ele>
        <time>2019-08-18T09:38:16Z</time>
      </trkpt>
      <trkpt lat="42.87285" lon="-0.00275">
        <ele>716.9</ele>
        <time>2019-08-18T09:38:17Z</time>
      </trkpt>
      <trkpt lat="42.87289" lon="-0.0028">
        <ele>716.6</ele>
        <time>2019-08-18T09:38:18Z</time>
      </trkpt>
      <trkpt lat="42.8729" lon="-0.00283">
        <ele>716.4</ele>
        <time>2019-08-18T09:38:19Z</time>
      </trkpt>
      <trkpt lat="42.87292" lon="-0.00288">
        <ele>716.1</ele>
        <time>2019-08-18T09:38:20Z</time>
      </trkpt>
      <trkpt lat="42.87293" lon="-0.00291">
        <ele>715.9</ele>
        <time>2019-08-18T09:38:21Z</time>
      </trkpt>
      <trkpt lat="42.87296" lon="-0.00296">
        <ele>715.5</ele>
        <time>2019-08-18T09:38:23Z</time>
      </trkpt>
      <trkpt lat="42.87297" lon="-0.00302">
        <ele>715.3</ele>
        <time>2019-08-18T09:38:25Z</time>
      </trkpt>
      <trkpt lat="42.87299" lon="-0.00306">
        <ele>715.2</ele>
        <time>2019-08-18T09:38:27Z</time>
      </trkpt>
      <trkpt lat="42.873" lon="-0.00309">
        <ele>715</ele>
        <time>2019-08-18T09:38:31Z</time>
      </trkpt>
      <trkpt lat="42.87303" lon="-0.00313">
        <ele>714.9</ele>
        <time>2019-08-18T09:38:33Z</time>
      </trkpt>
      <trkpt lat="42.87306" lon="-0.00318">
        <ele>714.7</ele>
        <time>2019-08-18T09:38:35Z</time>
      </trkpt>
      <trkpt lat="42.87308" lon="-0.00321">
        <ele>714.5</ele>
        <time>2019-08-18T09:38:36Z</time>
      </trkpt>
      <trkpt lat="42.87311" lon="-0.00323">
        <ele>714.4</ele>
        <time>2019-08-18T09:38:37Z</time>
      </trkpt>
      <trkpt lat="42.87314" lon="-0.00322">
        <ele>714.3</ele>
        <time>2019-08-18T09:38:38Z</time>
      </trkpt>
      <trkpt lat="42.87317" lon="-0.00319">
        <ele>714.1</ele>
        <time>2019-08-18T09:38:39Z</time>
      </trkpt>
      <trkpt lat="42.87319" lon="-0.00314">
        <ele>713.9</ele>
        <time>2019-08-18T09:38:41Z</time>
      </trkpt>
      <trkpt lat="42.87318" lon="-0.0031">
        <ele>714</ele>
        <time>2019-08-18T09:38:43Z</time>
      </trkpt>
      <trkpt lat="42.87319" lon="-0.00305">
        <ele>714.1</ele>
        <time>2019-08-18T09:38:47Z</time>
      </trkpt>
      <trkpt lat="42.87319" lon="-0.003">
        <ele>714.2</ele>
        <time>2019-08-18T09:38:50Z</time>
      </trkpt>
      <trkpt lat="42.87318" lon="-0.00296">
        <ele>714.3</ele>
        <time>2019-08-18T09:38:52Z</time>
      </trkpt>
      <trkpt lat="42.87316" lon="-0.00292">
        <ele>714.8</ele>
        <time>2019-08-18T09:38:55Z</time>
      </trkpt>
      <trkpt lat="42.87313" lon="-0.00289">
        <ele>715</ele>
        <time>2019-08-18T09:38:58Z</time>
      </trkpt>
      <trkpt lat="42.87311" lon="-0.00285">
        <ele>715.2</ele>
        <time>2019-08-18T09:39:01Z</time>
      </trkpt>
      <trkpt lat="42.87309" lon="-0.00281">
        <ele>715.4</ele>
        <time>2019-08-18T09:39:03Z</time>
      </trkpt>
      <trkpt lat="42.87307" lon="-0.00277">
        <ele>715.6</ele>
        <time>2019-08-18T09:39:05Z</time>
      </trkpt>
      <trkpt lat="42.87305" lon="-0.00272">
        <ele>715.9</ele>
        <time>2019-08-18T09:39:07Z</time>
      </trkpt>
      <trkpt lat="42.87304" lon="-0.00267">
        <ele>716.2</ele>
        <time>2019-08-18T09:39:09Z</time>
      </trkpt>
      <trkpt lat="42.87304" lon="-0.00262">
        <ele>716.2</ele>
        <time>2019-08-18T09:39:11Z</time>
      </trkpt>
      <trkpt lat="42.87306" lon="-0.00256">
        <ele>716.2</ele>
        <time>2019-08-18T09:39:13Z</time>
      </trkpt>
      <trkpt lat="42.87307" lon="-0.00252">
        <ele>716.2</ele>
        <time>2019-08-18T09:39:15Z</time>
      </trkpt>
      <trkpt lat="42.87309" lon="-0.00246">
        <ele>716.2</ele>
        <time>2019-08-18T09:39:17Z</time>
      </trkpt>
      <trkpt lat="42.87311" lon="-0.0024">
        <ele>716.3</ele>
        <time>2019-08-18T09:39:19Z</time>
      </trkpt>
      <trkpt lat="42.87313" lon="-0.00235">
        <ele>716.3</ele>
        <time>2019-08-18T09:39:21Z</time>
      </trkpt>
      <trkpt lat="42.87315" lon="-0.00229">
        <ele>716.3</ele>
        <time>2019-08-18T09:39:23Z</time>
      </trkpt>
      <trkpt lat="42.87318" lon="-0.00225">
        <ele>716.4</ele>
        <time>2019-08-18T09:39:25Z</time>
      </trkpt>
      <trkpt lat="42.87323" lon="-0.00225">
        <ele>716.1</ele>
        <time>2019-08-18T09:39:27Z</time>
      </trkpt>
      <trkpt lat="42.87325" lon="-0.00226">
        <ele>715.9</ele>
        <time>2019-08-18T09:39:28Z</time>
      </trkpt>
      <trkpt lat="42.87328" lon="-0.00227">
        <ele>715.8</ele>
        <time>2019-08-18T09:39:29Z</time>
      </trkpt>
      <trkpt lat="42.87331" lon="-0.00229">
        <ele>715.4</ele>
        <time>2019-08-18T09:39:30Z</time>
      </trkpt>
      <trkpt lat="42.87333" lon="-0.00234">
        <ele>715.4</ele>
        <time>2019-08-18T09:39:32Z</time>
      </trkpt>
      <trkpt lat="42.87331" lon="-0.00239">
        <ele>715.3</ele>
        <time>2019-08-18T09:39:33Z</time>
      </trkpt>
      <trkpt lat="42.87329" lon="-0.00243">
        <ele>715.3</ele>
        <time>2019-08-18T09:39:34Z</time>
      </trkpt>
      <trkpt lat="42.87327" lon="-0.00247">
        <ele>715.2</ele>
        <time>2019-08-18T09:39:35Z</time>
      </trkpt>
      <trkpt lat="42.87326" lon="-0.0025">
        <ele>715.2</ele>
        <time>2019-08-18T09:39:36Z</time>
      </trkpt>
      <trkpt lat="42.87324" lon="-0.00254">
        <ele>715.1</ele>
        <time>2019-08-18T09:39:37Z</time>
      </trkpt>
      <trkpt lat="42.87322" lon="-0.00258">
        <ele>715.1</ele>
        <time>2019-08-18T09:39:38Z</time>
      </trkpt>
      <trkpt lat="42.8732" lon="-0.00262">
        <ele>715.1</ele>
        <time>2019-08-18T09:39:39Z</time>
      </trkpt>
      <trkpt lat="42.87318" lon="-0.00265">
        <ele>715.1</ele>
        <time>2019-08-18T09:39:40Z</time>
      </trkpt>
      <trkpt lat="42.87317" lon="-0.00269">
        <ele>715.1</ele>
        <time>2019-08-18T09:39:41Z</time>
      </trkpt>
      <trkpt lat="42.87314" lon="-0.00274">
        <ele>715.1</ele>
        <time>2019-08-18T09:39:43Z</time>
      </trkpt>
      <trkpt lat="42.8732" lon="-0.0032">
        <ele>713.8</ele>
        <time>2019-08-18T09:55:15Z</time>
      </trkpt>
      <trkpt lat="42.8732" lon="-0.00324">
        <ele>713.7</ele>
        <time>2019-08-18T09:55:17Z</time>
      </trkpt>
      <trkpt lat="42.87317" lon="-0.00326">
        <ele>714</ele>
        <time>2019-08-18T09:55:21Z</time>
      </trkpt>
      <trkpt lat="42.87314" lon="-0.00326">
        <ele>714.2</ele>
        <time>2019-08-18T09:55:23Z</time>
      </trkpt>
      <trkpt lat="42.87311" lon="-0.00324">
        <ele>714.3</ele>
        <time>2019-08-18T09:55:25Z</time>
      </trkpt>
      <trkpt lat="42.87309" lon="-0.0032">
        <ele>714.5</ele>
        <time>2019-08-18T09:55:27Z</time>
      </trkpt>
      <trkpt lat="42.87305" lon="-0.00316">
        <ele>714.7</ele>
        <time>2019-08-18T09:55:29Z</time>
      </trkpt>
      <trkpt lat="42.87303" lon="-0.00313">
        <ele>714.9</ele>
        <time>2019-08-18T09:55:30Z</time>
      </trkpt>
      <trkpt lat="42.87301" lon="-0.0031">
        <ele>715.1</ele>
        <time>2019-08-18T09:55:31Z</time>
      </trkpt>
      <trkpt lat="42.87299" lon="-0.00306">
        <ele>715.2</ele>
        <time>2019-08-18T09:55:32Z</time>
      </trkpt>
      <trkpt lat="42.87297" lon="-0.00303">
        <ele>715.4</ele>
        <time>2019-08-18T09:55:33Z</time>
      </trkpt>
      <trkpt lat="42.87296" lon="-0.00299">
        <ele>715.5</ele>
        <time>2019-08-18T09:55:34Z</time>
      </trkpt>
      <trkpt lat="42.87294" lon="-0.00296">
        <ele>715.7</ele>
        <time>2019-08-18T09:55:35Z</time>
      </trkpt>
      <trkpt lat="42.87292" lon="-0.00293">
        <ele>715.9</ele>
        <time>2019-08-18T09:55:36Z</time>
      </trkpt>
      <trkpt lat="42.8729" lon="-0.0029">
        <ele>716.1</ele>
        <time>2019-08-18T09:55:37Z</time>
      </trkpt>
      <trkpt lat="42.87288" lon="-0.00287">
        <ele>716.3</ele>
        <time>2019-08-18T09:55:38Z</time>
      </trkpt>
      <trkpt lat="42.87287" lon="-0.00284">
        <ele>716.5</ele>
        <time>2019-08-18T09:55:39Z</time>
      </trkpt>
      <trkpt lat="42.87285" lon="-0.0028">
        <ele>716.7</ele>
        <time>2019-08-18T09:55:40Z</time>
      </trkpt>
      <trkpt lat="42.87283" lon="-0.00274">
        <ele>717.1</ele>
        <time>2019-08-18T09:55:42Z</time>
      </trkpt>
      <trkpt lat="42.87281" lon="-0.00271">
        <ele>717.3</ele>
        <time>2019-08-18T09:55:43Z</time>
      </trkpt>
      <trkpt lat="42.87279" lon="-0.00268">
        <ele>717.4</ele>
        <time>2019-08-18T09:55:44Z</time>
      </trkpt>
      <trkpt lat="42.87278" lon="-0.00265">
        <ele>717.6</ele>
        <time>2019-08-18T09:55:45Z</time>
      </trkpt>
      <trkpt lat="42.87276" lon="-0.00262">
        <ele>717.8</ele>
        <time>2019-08-18T09:55:46Z</time>
      </trkpt>
      <trkpt lat="42.87273" lon="-0.00255">
        <ele>718.2</ele>
        <time>2019-08-18T09:55:48Z</time>
      </trkpt>
      <trkpt lat="42.87271" lon="-0.00252">
        <ele>718.4</ele>
        <time>2019-08-18T09:55:49Z</time>
      </trkpt>
      <trkpt lat="42.8727" lon="-0.00249">
        <ele>718.6</ele>
        <time>2019-08-18T09:55:50Z</time>
      </trkpt>
      <trkpt lat="42.87268" lon="-0.00246">
        <ele>718.8</ele>
        <time>2019-08-18T09:55:51Z</time>
      </trkpt>
      <trkpt lat="42.87265" lon="-0.00241">
        <ele>719.2</ele>
        <time>2019-08-18T09:55:53Z</time>
      </trkpt>
      <trkpt lat="42.87263" lon="-0.00238">
        <ele>719.4</ele>
        <time>2019-08-18T09:55:54Z</time>
      </trkpt>
      <trkpt lat="42.8726" lon="-0.00233">
        <ele>719.7</ele>
        <time>2019-08-18T09:55:56Z</time>
      </trkpt>
      <trkpt lat="42.87256" lon="-0.00227">
        <ele>720.1</ele>
        <time>2019-08-18T09:55:58Z</time>
      </trkpt>
      <trkpt lat="42.87253" lon="-0.00222">
        <ele>720.4</ele>
        <time>2019-08-18T09:56:00Z</time>
      </trkpt>
      <trkpt lat="42.87251" lon="-0.00216">
        <ele>720.8</ele>
        <time>2019-08-18T09:56:02Z</time>
      </trkpt>
      <trkpt lat="42.87249" lon="-0.0021">
        <ele>721.2</ele>
        <time>2019-08-18T09:56:04Z</time>
      </trkpt>
      <trkpt lat="42.87245" lon="-0.00206">
        <ele>721.5</ele>
        <time>2019-08-18T09:56:06Z</time>
      </trkpt>
      <trkpt lat="42.87242" lon="-0.00201">
        <ele>721.9</ele>
        <time>2019-08-18T09:56:08Z</time>
      </trkpt>
      <trkpt lat="42.87239" lon="-0.00196">
        <ele>722.1</ele>
        <time>2019-08-18T09:56:10Z</time>
      </trkpt>
      <trkpt lat="42.87237" lon="-0.00193">
        <ele>722.3</ele>
        <time>2019-08-18T09:56:11Z</time>
      </trkpt>
      <trkpt lat="42.87234" lon="-0.00188">
        <ele>722.6</ele>
        <time>2019-08-18T09:56:13Z</time>
      </trkpt>
      <trkpt lat="42.8723" lon="-0.00183">
        <ele>723</ele>
        <time>2019-08-18T09:56:15Z</time>
      </trkpt>
      <trkpt lat="42.87228" lon="-0.00177">
        <ele>723.3</ele>
        <time>2019-08-18T09:56:17Z</time>
      </trkpt>
      <trkpt lat="42.87228" lon="-0.0017">
        <ele>723.6</ele>
        <time>2019-08-18T09:56:19Z</time>
      </trkpt>
      <trkpt lat="42.87228" lon="-0.00167">
        <ele>723.7</ele>
        <time>2019-08-18T09:56:20Z</time>
      </trkpt>
      <trkpt lat="42.87229" lon="-0.00163">
        <ele>723.8</ele>
        <time>2019-08-18T09:56:21Z</time>
      </trkpt>
      <trkpt lat="42.87231" lon="-0.00159">
        <ele>723.9</ele>
        <time>2019-08-18T09:56:22Z</time>
      </trkpt>
      <trkpt lat="42.87232" lon="-0.00155">
        <ele>724</ele>
        <time>2019-08-18T09:56:23Z</time>
      </trkpt>
      <trkpt lat="42.87233" lon="-0.00151">
        <ele>724.1</ele>
        <time>2019-08-18T09:56:24Z</time>
      </trkpt>
      <trkpt lat="42.87234" lon="-0.00148">
        <ele>724.2</ele>
        <time>2019-08-18T09:56:25Z</time>
      </trkpt>
      <trkpt lat="42.87235" lon="-0.00143">
        <ele>724.3</ele>
        <time>2019-08-18T09:56:26Z</time>
      </trkpt>
      <trkpt lat="42.87236" lon="-0.00139">
        <ele>724.4</ele>
        <time>2019-08-18T09:56:27Z</time>
      </trkpt>
      <trkpt lat="42.87237" lon="-0.00135">
        <ele>724.5</ele>
        <time>2019-08-18T09:56:28Z</time>
      </trkpt>
      <trkpt lat="42.87238" lon="-0.00132">
        <ele>724.6</ele>
        <time>2019-08-18T09:56:29Z</time>
      </trkpt>
      <trkpt lat="42.87239" lon="-0.00127">
        <ele>724.7</ele>
        <time>2019-08-18T09:56:30Z</time>
      </trkpt>
      <trkpt lat="42.8724" lon="-0.00123">
        <ele>724.7</ele>
        <time>2019-08-18T09:56:31Z</time>
      </trkpt>
      <trkpt lat="42.87241" lon="-0.0012">
        <ele>724.8</ele>
        <time>2019-08-18T09:56:32Z</time>
      </trkpt>
      <trkpt lat="42.87242" lon="-0.00116">
        <ele>724.8</ele>
        <time>2019-08-18T09:56:33Z</time>
      </trkpt>
      <trkpt lat="42.87243" lon="-0.00112">
        <ele>724.8</ele>
        <time>2019-08-18T09:56:34Z</time>
      </trkpt>
      <trkpt lat="42.87244" lon="-0.00108">
        <ele>724.9</ele>
        <time>2019-08-18T09:56:35Z</time>
      </trkpt>
      <trkpt lat="42.87245" lon="-0.00104">
        <ele>724.9</ele>
        <time>2019-08-18T09:56:36Z</time>
      </trkpt>
      <trkpt lat="42.87246" lon="-0.001">
        <ele>724.9</ele>
        <time>2019-08-18T09:56:37Z</time>
      </trkpt>
      <trkpt lat="42.87247" lon="-0.00096">
        <ele>725</ele>
        <time>2019-08-18T09:56:38Z</time>
      </trkpt>
      <trkpt lat="42.87248" lon="-0.00092">
        <ele>725</ele>
        <time>2019-08-18T09:56:39Z</time>
      </trkpt>
      <trkpt lat="42.87249" lon="-0.00088">
        <ele>725</ele>
        <time>2019-08-18T09:56:40Z</time>
      </trkpt>
      <trkpt lat="42.8725" lon="-0.00085">
        <ele>725.1</ele>
        <time>2019-08-18T09:56:41Z</time>
      </trkpt>
      <trkpt lat="42.87252" lon="-0.00078">
        <ele>725.2</ele>
        <time>2019-08-18T09:56:43Z</time>
      </trkpt>
      <trkpt lat="42.87254" lon="-0.00071">
        <ele>725.3</ele>
        <time>2019-08-18T09:56:45Z</time>
      </trkpt>
      <trkpt lat="42.87255" lon="-0.00067">
        <ele>725.4</ele>
        <time>2019-08-18T09:56:46Z</time>
      </trkpt>
      <trkpt lat="42.87256" lon="-0.00064">
        <ele>725.5</ele>
        <time>2019-08-18T09:56:47Z</time>
      </trkpt>
      <trkpt lat="42.87257" lon="-0.0006">
        <ele>725.5</ele>
        <time>2019-08-18T09:56:48Z</time>
      </trkpt>
      <trkpt lat="42.87258" lon="-0.00056">
        <ele>725.5</ele>
        <time>2019-08-18T09:56:49Z</time>
      </trkpt>
      <trkpt lat="42.87259" lon="-0.00052">
        <ele>725.6</ele>
        <time>2019-08-18T09:56:50Z</time>
      </trkpt>
      <trkpt lat="42.87261" lon="-0.00048">
        <ele>725.6</ele>
        <time>2019-08-18T09:56:51Z</time>
      </trkpt>
      <trkpt lat="42.87262" lon="-0.00044">
        <ele>726</ele>
        <time>2019-08-18T09:56:52Z</time>
      </trkpt>
      <trkpt lat="42.87263" lon="-0.00041">
        <ele>726.1</ele>
        <time>2019-08-18T09:56:53Z</time>
      </trkpt>
      <trkpt lat="42.87264" lon="-0.00037">
        <ele>726.3</ele>
        <time>2019-08-18T09:56:54Z</time>
      </trkpt>
      <trkpt lat="42.87265" lon="-0.00033">
        <ele>726.5</ele>
        <time>2019-08-18T09:56:55Z</time>
      </trkpt>
      <trkpt lat="42.87266" lon="-0.00029">
        <ele>726.7</ele>
        <time>2019-08-18T09:56:56Z</time>
      </trkpt>
      <trkpt lat="42.87267" lon="-0.00025">
        <ele>726.9</ele>
        <time>2019-08-18T09:56:57Z</time>
      </trkpt>
      <trkpt lat="42.87269" lon="-0.00021">
        <ele>727.2</ele>
        <time>2019-08-18T09:56:58Z</time>
      </trkpt>
      <trkpt lat="42.8727" lon="-0.00017">
        <ele>727.5</ele>
        <time>2019-08-18T09:56:59Z</time>
      </trkpt>
      <trkpt lat="42.87272" lon="-0.00012">
        <ele>727.7</ele>
        <time>2019-08-18T09:57:00Z</time>
      </trkpt>
      <trkpt lat="42.87273" lon="-8.0E-5">
        <ele>728</ele>
        <time>2019-08-18T09:57:01Z</time>
      </trkpt>
      <trkpt lat="42.87274" lon="-4.0E-5">
        <ele>728.4</ele>
        <time>2019-08-18T09:57:02Z</time>
      </trkpt>
      <trkpt lat="42.87275" lon="0">
        <ele>728.7</ele>
        <time>2019-08-18T09:57:03Z</time>
      </trkpt>
      <trkpt lat="42.87277" lon="4.0E-5">
        <ele>729</ele>
        <time>2019-08-18T09:57:04Z</time>
      </trkpt>
      <trkpt lat="42.87278" lon="8.0E-5">
        <ele>729.2</ele>
        <time>2019-08-18T09:57:05Z</time>
      </trkpt>
      <trkpt lat="42.87279" lon="0.00012">
        <ele>729.5</ele>
        <time>2019-08-18T09:57:06Z</time>
      </trkpt>
      <trkpt lat="42.87281" lon="0.00016">
        <ele>729.7</ele>
        <time>2019-08-18T09:57:07Z</time>
      </trkpt>
      <trkpt lat="42.87282" lon="0.00019">
        <ele>729.8</ele>
        <time>2019-08-18T09:57:08Z</time>
      </trkpt>
      <trkpt lat="42.87283" lon="0.00023">
        <ele>729.9</ele>
        <time>2019-08-18T09:57:09Z</time>
      </trkpt>
      <trkpt lat="42.87284" lon="0.00027">
        <ele>730</ele>
        <time>2019-08-18T09:57:10Z</time>
      </trkpt>
      <trkpt lat="42.87285" lon="0.0003">
        <ele>730.1</ele>
        <time>2019-08-18T09:57:11Z</time>
      </trkpt>
      <trkpt lat="42.87286" lon="0.00034">
        <ele>730.2</ele>
        <time>2019-08-18T09:57:12Z</time>
      </trkpt>
      <trkpt lat="42.87287" lon="0.00038">
        <ele>730.3</ele>
        <time>2019-08-18T09:57:13Z</time>
      </trkpt>
      <trkpt lat="42.87288" lon="0.00042">
        <ele>730.4</ele>
        <time>2019-08-18T09:57:14Z</time>
      </trkpt>
      <trkpt lat="42.8729" lon="0.00046">
        <ele>730.5</ele>
        <time>2019-08-18T09:57:15Z</time>
      </trkpt>
      <trkpt lat="42.87291" lon="0.0005">
        <ele>730.6</ele>
        <time>2019-08-18T09:57:16Z</time>
      </trkpt>
      <trkpt lat="42.87292" lon="0.00055">
        <ele>730.7</ele>
        <time>2019-08-18T09:57:17Z</time>
      </trkpt>
      <trkpt lat="42.87293" lon="0.00059">
        <ele>730.9</ele>
        <time>2019-08-18T09:57:18Z</time>
      </trkpt>
      <trkpt lat="42.87295" lon="0.00063">
        <ele>731</ele>
        <time>2019-08-18T09:57:19Z</time>
      </trkpt>
      <trkpt lat="42.87297" lon="0.00067">
        <ele>731.1</ele>
        <time>2019-08-18T09:57:20Z</time>
      </trkpt>
      <trkpt lat="42.87298" lon="0.00071">
        <ele>731.2</ele>
        <time>2019-08-18T09:57:21Z</time>
      </trkpt>
      <trkpt lat="42.873" lon="0.00076">
        <ele>731.2</ele>
        <time>2019-08-18T09:57:22Z</time>
      </trkpt>
      <trkpt lat="42.87301" lon="0.00081">
        <ele>731.3</ele>
        <time>2019-08-18T09:57:23Z</time>
      </trkpt>
      <trkpt lat="42.87302" lon="0.00086">
        <ele>731.4</ele>
        <time>2019-08-18T09:57:24Z</time>
      </trkpt>
      <trkpt lat="42.87303" lon="0.00091">
        <ele>731.5</ele>
        <time>2019-08-18T09:57:25Z</time>
      </trkpt>
      <trkpt lat="42.87304" lon="0.00096">
        <ele>731.6</ele>
        <time>2019-08-18T09:57:26Z</time>
      </trkpt>
      <trkpt lat="42.87305" lon="0.00101">
        <ele>731.6</ele>
        <time>2019-08-18T09:57:27Z</time>
      </trkpt>
      <trkpt lat="42.87306" lon="0.00108">
        <ele>731.7</ele>
        <time>2019-08-18T09:57:28Z</time>
      </trkpt>
      <trkpt lat="42.87307" lon="0.00115">
        <ele>731.8</ele>
        <time>2019-08-18T09:57:29Z</time>
      </trkpt>
      <trkpt lat="42.87309" lon="0.0012">
        <ele>731.8</ele>
        <time>2019-08-18T09:57:30Z</time>
      </trkpt>
      <trkpt lat="42.8731" lon="0.00125">
        <ele>731.9</ele>
        <time>2019-08-18T09:57:31Z</time>
      </trkpt>
      <trkpt lat="42.87311" lon="0.00131">
        <ele>732</ele>
        <time>2019-08-18T09:57:32Z</time>
      </trkpt>
      <trkpt lat="42.87312" lon="0.00137">
        <ele>732.1</ele>
        <time>2019-08-18T09:57:33Z</time>
      </trkpt>
      <trkpt lat="42.87314" lon="0.00143">
        <ele>732.2</ele>
        <time>2019-08-18T09:57:34Z</time>
      </trkpt>
      <trkpt lat="42.87316" lon="0.0015">
        <ele>732.3</ele>
        <time>2019-08-18T09:57:35Z</time>
      </trkpt>
      <trkpt lat="42.87318" lon="0.00157">
        <ele>732.4</ele>
        <time>2019-08-18T09:57:36Z</time>
      </trkpt>
      <trkpt lat="42.8732" lon="0.00164">
        <ele>732.5</ele>
        <time>2019-08-18T09:57:37Z</time>
      </trkpt>
      <trkpt lat="42.8732" lon="0.0017">
        <ele>732.6</ele>
        <time>2019-08-18T09:57:38Z</time>
      </trkpt>
      <trkpt lat="42.87323" lon="0.00179">
        <ele>732.8</ele>
        <time>2019-08-18T09:57:39Z</time>
      </trkpt>
      <trkpt lat="42.87326" lon="0.00185">
        <ele>732.9</ele>
        <time>2019-08-18T09:57:40Z</time>
      </trkpt>
      <trkpt lat="42.87327" lon="0.00192">
        <ele>733.1</ele>
        <time>2019-08-18T09:57:41Z</time>
      </trkpt>
      <trkpt lat="42.87329" lon="0.00199">
        <ele>733.2</ele>
        <time>2019-08-18T09:57:42Z</time>
      </trkpt>
      <trkpt lat="42.87329" lon="0.00205">
        <ele>733.3</ele>
        <time>2019-08-18T09:57:43Z</time>
      </trkpt>
      <trkpt lat="42.87331" lon="0.00212">
        <ele>733.5</ele>
        <time>2019-08-18T09:57:44Z</time>
      </trkpt>
      <trkpt lat="42.87332" lon="0.00218">
        <ele>733.6</ele>
        <time>2019-08-18T09:57:45Z</time>
      </trkpt>
      <trkpt lat="42.87334" lon="0.00226">
        <ele>733.8</ele>
        <time>2019-08-18T09:57:46Z</time>
      </trkpt>
      <trkpt lat="42.87336" lon="0.00232">
        <ele>734</ele>
        <time>2019-08-18T09:57:47Z</time>
      </trkpt>
      <trkpt lat="42.87338" lon="0.00237">
        <ele>734.1</ele>
        <time>2019-08-18T09:57:48Z</time>
      </trkpt>
      <trkpt lat="42.8734" lon="0.00244">
        <ele>734.3</ele>
        <time>2019-08-18T09:57:49Z</time>
      </trkpt>
      <trkpt lat="42.87342" lon="0.00249">
        <ele>734.5</ele>
        <time>2019-08-18T09:57:50Z</time>
      </trkpt>
      <trkpt lat="42.87343" lon="0.00256">
        <ele>734.7</ele>
        <time>2019-08-18T09:57:51Z</time>
      </trkpt>
      <trkpt lat="42.87345" lon="0.00262">
        <ele>734.9</ele>
        <time>2019-08-18T09:57:52Z</time>
      </trkpt>
      <trkpt lat="42.87347" lon="0.00267">
        <ele>735.1</ele>
        <time>2019-08-18T09:57:53Z</time>
      </trkpt>
      <trkpt lat="42.87349" lon="0.00274">
        <ele>735.3</ele>
        <time>2019-08-18T09:57:54Z</time>
      </trkpt>
      <trkpt lat="42.87351" lon="0.00279">
        <ele>735.5</ele>
        <time>2019-08-18T09:57:55Z</time>
      </trkpt>
      <trkpt lat="42.87351" lon="0.00284">
        <ele>735.7</ele>
        <time>2019-08-18T09:57:56Z</time>
      </trkpt>
      <trkpt lat="42.87352" lon="0.0029">
        <ele>735.9</ele>
        <time>2019-08-18T09:57:57Z</time>
      </trkpt>
      <trkpt lat="42.87354" lon="0.00295">
        <ele>736.1</ele>
        <time>2019-08-18T09:57:58Z</time>
      </trkpt>
      <trkpt lat="42.87355" lon="0.00301">
        <ele>736.4</ele>
        <time>2019-08-18T09:57:59Z</time>
      </trkpt>
      <trkpt lat="42.87357" lon="0.00306">
        <ele>736.6</ele>
        <time>2019-08-18T09:58:00Z</time>
      </trkpt>
      <trkpt lat="42.87358" lon="0.00311">
        <ele>736.7</ele>
        <time>2019-08-18T09:58:01Z</time>
      </trkpt>
      <trkpt lat="42.87359" lon="0.00317">
        <ele>736.9</ele>
        <time>2019-08-18T09:58:02Z</time>
      </trkpt>
      <trkpt lat="42.87361" lon="0.00322">
        <ele>737.1</ele>
        <time>2019-08-18T09:58:03Z</time>
      </trkpt>
      <trkpt lat="42.87361" lon="0.00326">
        <ele>737.2</ele>
        <time>2019-08-18T09:58:04Z</time>
      </trkpt>
      <trkpt lat="42.87363" lon="0.00331">
        <ele>737.3</ele>
        <time>2019-08-18T09:58:05Z</time>
      </trkpt>
      <trkpt lat="42.87364" lon="0.00336">
        <ele>737.5</ele>
        <time>2019-08-18T09:58:06Z</time>
      </trkpt>
      <trkpt lat="42.87365" lon="0.00341">
        <ele>737.6</ele>
        <time>2019-08-18T09:58:07Z</time>
      </trkpt>
      <trkpt lat="42.87366" lon="0.00345">
        <ele>737.8</ele>
        <time>2019-08-18T09:58:08Z</time>
      </trkpt>
      <trkpt lat="42.87367" lon="0.0035">
        <ele>738</ele>
        <time>2019-08-18T09:58:09Z</time>
      </trkpt>
      <trkpt lat="42.87368" lon="0.00354">
        <ele>738.2</ele>
        <time>2019-08-18T09:58:10Z</time>
      </trkpt>
      <trkpt lat="42.8737" lon="0.00358">
        <ele>738.4</ele>
        <time>2019-08-18T09:58:11Z</time>
      </trkpt>
      <trkpt lat="42.87371" lon="0.00363">
        <ele>738.5</ele>
        <time>2019-08-18T09:58:12Z</time>
      </trkpt>
      <trkpt lat="42.87372" lon="0.00367">
        <ele>738.6</ele>
        <time>2019-08-18T09:58:13Z</time>
      </trkpt>
      <trkpt lat="42.87373" lon="0.00371">
        <ele>738.7</ele>
        <time>2019-08-18T09:58:14Z</time>
      </trkpt>
      <trkpt lat="42.87373" lon="0.00375">
        <ele>738.8</ele>
        <time>2019-08-18T09:58:15Z</time>
      </trkpt>
      <trkpt lat="42.87374" lon="0.00379">
        <ele>738.9</ele>
        <time>2019-08-18T09:58:16Z</time>
      </trkpt>
      <trkpt lat="42.87375" lon="0.00383">
        <ele>739</ele>
        <time>2019-08-18T09:58:17Z</time>
      </trkpt>
      <trkpt lat="42.87377" lon="0.00387">
        <ele>739.1</ele>
        <time>2019-08-18T09:58:18Z</time>
      </trkpt>
      <trkpt lat="42.87378" lon="0.00391">
        <ele>739.2</ele>
        <time>2019-08-18T09:58:19Z</time>
      </trkpt>
      <trkpt lat="42.87379" lon="0.00395">
        <ele>739.4</ele>
        <time>2019-08-18T09:58:20Z</time>
      </trkpt>
      <trkpt lat="42.87381" lon="0.00399">
        <ele>739.6</ele>
        <time>2019-08-18T09:58:21Z</time>
      </trkpt>
      <trkpt lat="42.87382" lon="0.00404">
        <ele>739.8</ele>
        <time>2019-08-18T09:58:22Z</time>
      </trkpt>
      <trkpt lat="42.87383" lon="0.00408">
        <ele>740</ele>
        <time>2019-08-18T09:58:23Z</time>
      </trkpt>
      <trkpt lat="42.87384" lon="0.00412">
        <ele>740.2</ele>
        <time>2019-08-18T09:58:24Z</time>
      </trkpt>
      <trkpt lat="42.87385" lon="0.00416">
        <ele>740.4</ele>
        <time>2019-08-18T09:58:25Z</time>
      </trkpt>
      <trkpt lat="42.87386" lon="0.00421">
        <ele>740.6</ele>
        <time>2019-08-18T09:58:26Z</time>
      </trkpt>
      <trkpt lat="42.87388" lon="0.00425">
        <ele>740.8</ele>
        <time>2019-08-18T09:58:27Z</time>
      </trkpt>
      <trkpt lat="42.87389" lon="0.0043">
        <ele>741</ele>
        <time>2019-08-18T09:58:28Z</time>
      </trkpt>
      <trkpt lat="42.8739" lon="0.00434">
        <ele>741.3</ele>
        <time>2019-08-18T09:58:29Z</time>
      </trkpt>
      <trkpt lat="42.87392" lon="0.00439">
        <ele>741.5</ele>
        <time>2019-08-18T09:58:30Z</time>
      </trkpt>
      <trkpt lat="42.87393" lon="0.00443">
        <ele>741.7</ele>
        <time>2019-08-18T09:58:31Z</time>
      </trkpt>
      <trkpt lat="42.87394" lon="0.00448">
        <ele>741.9</ele>
        <time>2019-08-18T09:58:32Z</time>
      </trkpt>
      <trkpt lat="42.87396" lon="0.00452">
        <ele>742.2</ele>
        <time>2019-08-18T09:58:33Z</time>
      </trkpt>
      <trkpt lat="42.87397" lon="0.00455">
        <ele>742.5</ele>
        <time>2019-08-18T09:58:34Z</time>
      </trkpt>
      <trkpt lat="42.87398" lon="0.00459">
        <ele>742.8</ele>
        <time>2019-08-18T09:58:35Z</time>
      </trkpt>
      <trkpt lat="42.87399" lon="0.00463">
        <ele>743</ele>
        <time>2019-08-18T09:58:36Z</time>
      </trkpt>
      <trkpt lat="42.874" lon="0.00468">
        <ele>743.4</ele>
        <time>2019-08-18T09:58:37Z</time>
      </trkpt>
      <trkpt lat="42.87401" lon="0.00473">
        <ele>743.7</ele>
        <time>2019-08-18T09:58:38Z</time>
      </trkpt>
      <trkpt lat="42.87403" lon="0.00477">
        <ele>744</ele>
        <time>2019-08-18T09:58:39Z</time>
      </trkpt>
      <trkpt lat="42.87404" lon="0.00481">
        <ele>744.3</ele>
        <time>2019-08-18T09:58:40Z</time>
      </trkpt>
      <trkpt lat="42.87406" lon="0.00485">
        <ele>744.5</ele>
        <time>2019-08-18T09:58:41Z</time>
      </trkpt>
      <trkpt lat="42.87407" lon="0.0049">
        <ele>744.7</ele>
        <time>2019-08-18T09:58:42Z</time>
      </trkpt>
      <trkpt lat="42.87409" lon="0.00494">
        <ele>744.9</ele>
        <time>2019-08-18T09:58:43Z</time>
      </trkpt>
      <trkpt lat="42.87411" lon="0.00499">
        <ele>745.1</ele>
        <time>2019-08-18T09:58:44Z</time>
      </trkpt>
      <trkpt lat="42.87412" lon="0.00503">
        <ele>745.2</ele>
        <time>2019-08-18T09:58:45Z</time>
      </trkpt>
      <trkpt lat="42.87413" lon="0.00507">
        <ele>745.4</ele>
        <time>2019-08-18T09:58:46Z</time>
      </trkpt>
      <trkpt lat="42.87415" lon="0.00511">
        <ele>745.6</ele>
        <time>2019-08-18T09:58:47Z</time>
      </trkpt>
      <trkpt lat="42.87416" lon="0.00515">
        <ele>745.8</ele>
        <time>2019-08-18T09:58:48Z</time>
      </trkpt>
      <trkpt lat="42.87418" lon="0.00518">
        <ele>746</ele>
        <time>2019-08-18T09:58:49Z</time>
      </trkpt>
      <trkpt lat="42.8742" lon="0.00522">
        <ele>746.2</ele>
        <time>2019-08-18T09:58:50Z</time>
      </trkpt>
      <trkpt lat="42.87422" lon="0.00526">
        <ele>746.4</ele>
        <time>2019-08-18T09:58:51Z</time>
      </trkpt>
      <trkpt lat="42.87424" lon="0.00529">
        <ele>746.6</ele>
        <time>2019-08-18T09:58:52Z</time>
      </trkpt>
      <trkpt lat="42.87426" lon="0.00533">
        <ele>746.8</ele>
        <time>2019-08-18T09:58:53Z</time>
      </trkpt>
      <trkpt lat="42.87429" lon="0.00537">
        <ele>747</ele>
        <time>2019-08-18T09:58:54Z</time>
      </trkpt>
      <trkpt lat="42.87431" lon="0.00541">
        <ele>747.2</ele>
        <time>2019-08-18T09:58:55Z</time>
      </trkpt>
      <trkpt lat="42.87433" lon="0.00544">
        <ele>747.4</ele>
        <time>2019-08-18T09:58:56Z</time>
      </trkpt>
      <trkpt lat="42.87435" lon="0.00547">
        <ele>747.6</ele>
        <time>2019-08-18T09:58:57Z</time>
      </trkpt>
      <trkpt lat="42.87438" lon="0.00551">
        <ele>747.8</ele>
        <time>2019-08-18T09:58:58Z</time>
      </trkpt>
      <trkpt lat="42.8744" lon="0.00555">
        <ele>748.2</ele>
        <time>2019-08-18T09:58:59Z</time>
      </trkpt>
      <trkpt lat="42.87442" lon="0.00558">
        <ele>748.4</ele>
        <time>2019-08-18T09:59:00Z</time>
      </trkpt>
      <trkpt lat="42.87444" lon="0.00561">
        <ele>748.7</ele>
        <time>2019-08-18T09:59:01Z</time>
      </trkpt>
      <trkpt lat="42.87446" lon="0.00564">
        <ele>748.9</ele>
        <time>2019-08-18T09:59:02Z</time>
      </trkpt>
      <trkpt lat="42.87449" lon="0.00568">
        <ele>749.2</ele>
        <time>2019-08-18T09:59:03Z</time>
      </trkpt>
      <trkpt lat="42.87451" lon="0.00572">
        <ele>749.5</ele>
        <time>2019-08-18T09:59:04Z</time>
      </trkpt>
      <trkpt lat="42.87454" lon="0.00575">
        <ele>750.1</ele>
        <time>2019-08-18T09:59:05Z</time>
      </trkpt>
      <trkpt lat="42.87456" lon="0.00578">
        <ele>750.5</ele>
        <time>2019-08-18T09:59:06Z</time>
      </trkpt>
      <trkpt lat="42.87458" lon="0.00582">
        <ele>750.8</ele>
        <time>2019-08-18T09:59:07Z</time>
      </trkpt>
      <trkpt lat="42.87461" lon="0.00585">
        <ele>751.2</ele>
        <time>2019-08-18T09:59:08Z</time>
      </trkpt>
      <trkpt lat="42.87463" lon="0.00588">
        <ele>751.5</ele>
        <time>2019-08-18T09:59:09Z</time>
      </trkpt>
      <trkpt lat="42.87465" lon="0.00591">
        <ele>751.9</ele>
        <time>2019-08-18T09:59:10Z</time>
      </trkpt>
      <trkpt lat="42.87467" lon="0.00594">
        <ele>752.5</ele>
        <time>2019-08-18T09:59:11Z</time>
      </trkpt>
      <trkpt lat="42.8747" lon="0.00598">
        <ele>752.8</ele>
        <time>2019-08-18T09:59:12Z</time>
      </trkpt>
      <trkpt lat="42.87472" lon="0.00601">
        <ele>753.1</ele>
        <time>2019-08-18T09:59:13Z</time>
      </trkpt>
      <trkpt lat="42.87474" lon="0.00605">
        <ele>753.4</ele>
        <time>2019-08-18T09:59:14Z</time>
      </trkpt>
      <trkpt lat="42.87476" lon="0.00608">
        <ele>753.7</ele>
        <time>2019-08-18T09:59:15Z</time>
      </trkpt>
      <trkpt lat="42.87478" lon="0.00612">
        <ele>754.1</ele>
        <time>2019-08-18T09:59:16Z</time>
      </trkpt>
      <trkpt lat="42.87481" lon="0.00616">
        <ele>754.4</ele>
        <time>2019-08-18T09:59:17Z</time>
      </trkpt>
      <trkpt lat="42.87483" lon="0.00619">
        <ele>754.7</ele>
        <time>2019-08-18T09:59:18Z</time>
      </trkpt>
      <trkpt lat="42.87485" lon="0.00623">
        <ele>755.1</ele>
        <time>2019-08-18T09:59:19Z</time>
      </trkpt>
      <trkpt lat="42.87487" lon="0.00626">
        <ele>755.4</ele>
        <time>2019-08-18T09:59:20Z</time>
      </trkpt>
      <trkpt lat="42.87489" lon="0.0063">
        <ele>755.7</ele>
        <time>2019-08-18T09:59:21Z</time>
      </trkpt>
      <trkpt lat="42.87491" lon="0.00633">
        <ele>756</ele>
        <time>2019-08-18T09:59:22Z</time>
      </trkpt>
      <trkpt lat="42.87494" lon="0.00636">
        <ele>756.3</ele>
        <time>2019-08-18T09:59:23Z</time>
      </trkpt>
      <trkpt lat="42.87497" lon="0.00639">
        <ele>757.2</ele>
        <time>2019-08-18T09:59:24Z</time>
      </trkpt>
      <trkpt lat="42.87499" lon="0.00642">
        <ele>757.9</ele>
        <time>2019-08-18T09:59:25Z</time>
      </trkpt>
      <trkpt lat="42.87502" lon="0.00645">
        <ele>758.4</ele>
        <time>2019-08-18T09:59:26Z</time>
      </trkpt>
      <trkpt lat="42.87504" lon="0.00649">
        <ele>758.7</ele>
        <time>2019-08-18T09:59:27Z</time>
      </trkpt>
      <trkpt lat="42.87506" lon="0.00652">
        <ele>759</ele>
        <time>2019-08-18T09:59:28Z</time>
      </trkpt>
      <trkpt lat="42.87509" lon="0.00656">
        <ele>759.2</ele>
        <time>2019-08-18T09:59:29Z</time>
      </trkpt>
      <trkpt lat="42.87511" lon="0.00659">
        <ele>759.6</ele>
        <time>2019-08-18T09:59:30Z</time>
      </trkpt>
      <trkpt lat="42.87513" lon="0.00662">
        <ele>759.9</ele>
        <time>2019-08-18T09:59:31Z</time>
      </trkpt>
      <trkpt lat="42.87516" lon="0.00665">
        <ele>760.2</ele>
        <time>2019-08-18T09:59:32Z</time>
      </trkpt>
      <trkpt lat="42.87518" lon="0.00669">
        <ele>760.6</ele>
        <time>2019-08-18T09:59:33Z</time>
      </trkpt>
      <trkpt lat="42.87521" lon="0.00672">
        <ele>761</ele>
        <time>2019-08-18T09:59:34Z</time>
      </trkpt>
      <trkpt lat="42.87523" lon="0.00675">
        <ele>761.3</ele>
        <time>2019-08-18T09:59:35Z</time>
      </trkpt>
      <trkpt lat="42.87526" lon="0.00679">
        <ele>761.8</ele>
        <time>2019-08-18T09:59:36Z</time>
      </trkpt>
      <trkpt lat="42.87528" lon="0.00682">
        <ele>762.1</ele>
        <time>2019-08-18T09:59:37Z</time>
      </trkpt>
      <trkpt lat="42.8753" lon="0.00685">
        <ele>762.5</ele>
        <time>2019-08-18T09:59:38Z</time>
      </trkpt>
      <trkpt lat="42.87532" lon="0.00689">
        <ele>762.9</ele>
        <time>2019-08-18T09:59:39Z</time>
      </trkpt>
      <trkpt lat="42.87534" lon="0.00692">
        <ele>763.3</ele>
        <time>2019-08-18T09:59:40Z</time>
      </trkpt>
      <trkpt lat="42.87537" lon="0.00696">
        <ele>763.7</ele>
        <time>2019-08-18T09:59:41Z</time>
      </trkpt>
      <trkpt lat="42.87539" lon="0.00699">
        <ele>764.1</ele>
        <time>2019-08-18T09:59:42Z</time>
      </trkpt>
      <trkpt lat="42.87541" lon="0.00703">
        <ele>764.6</ele>
        <time>2019-08-18T09:59:43Z</time>
      </trkpt>
      <trkpt lat="42.87543" lon="0.00706">
        <ele>765.1</ele>
        <time>2019-08-18T09:59:44Z</time>
      </trkpt>
      <trkpt lat="42.87546" lon="0.00709">
        <ele>765.6</ele>
        <time>2019-08-18T09:59:45Z</time>
      </trkpt>
      <trkpt lat="42.87549" lon="0.00712">
        <ele>766</ele>
        <time>2019-08-18T09:59:46Z</time>
      </trkpt>
      <trkpt lat="42.87551" lon="0.00716">
        <ele>766.4</ele>
        <time>2019-08-18T09:59:47Z</time>
      </trkpt>
      <trkpt lat="42.87553" lon="0.00719">
        <ele>766.9</ele>
        <time>2019-08-18T09:59:48Z</time>
      </trkpt>
      <trkpt lat="42.87556" lon="0.00722">
        <ele>767.4</ele>
        <time>2019-08-18T09:59:49Z</time>
      </trkpt>
      <trkpt lat="42.87558" lon="0.00725">
        <ele>767.7</ele>
        <time>2019-08-18T09:59:50Z</time>
      </trkpt>
      <trkpt lat="42.87561" lon="0.00728">
        <ele>768.1</ele>
        <time>2019-08-18T09:59:51Z</time>
      </trkpt>
      <trkpt lat="42.87563" lon="0.00731">
        <ele>768.5</ele>
        <time>2019-08-18T09:59:52Z</time>
      </trkpt>
      <trkpt lat="42.87565" lon="0.00734">
        <ele>768.9</ele>
        <time>2019-08-18T09:59:53Z</time>
      </trkpt>
      <trkpt lat="42.87567" lon="0.00737">
        <ele>769.3</ele>
        <time>2019-08-18T09:59:54Z</time>
      </trkpt>
      <trkpt lat="42.8757" lon="0.0074">
        <ele>769.7</ele>
        <time>2019-08-18T09:59:55Z</time>
      </trkpt>
      <trkpt lat="42.87572" lon="0.00744">
        <ele>770.3</ele>
        <time>2019-08-18T09:59:56Z</time>
      </trkpt>
      <trkpt lat="42.87574" lon="0.00748">
        <ele>770.6</ele>
        <time>2019-08-18T09:59:57Z</time>
      </trkpt>
      <trkpt lat="42.87577" lon="0.00751">
        <ele>771</ele>
        <time>2019-08-18T09:59:58Z</time>
      </trkpt>
      <trkpt lat="42.87579" lon="0.00754">
        <ele>771.5</ele>
        <time>2019-08-18T09:59:59Z</time>
      </trkpt>
      <trkpt lat="42.87582" lon="0.00758">
        <ele>771.9</ele>
        <time>2019-08-18T10:00:00Z</time>
      </trkpt>
      <trkpt lat="42.87584" lon="0.00761">
        <ele>772.3</ele>
        <time>2019-08-18T10:00:01Z</time>
      </trkpt>
      <trkpt lat="42.87586" lon="0.00765">
        <ele>772.7</ele>
        <time>2019-08-18T10:00:02Z</time>
      </trkpt>
      <trkpt lat="42.87589" lon="0.00768">
        <ele>773</ele>
        <time>2019-08-18T10:00:03Z</time>
      </trkpt>
      <trkpt lat="42.87591" lon="0.00771">
        <ele>773.2</ele>
        <time>2019-08-18T10:00:04Z</time>
      </trkpt>
      <trkpt lat="42.87593" lon="0.00774">
        <ele>773.5</ele>
        <time>2019-08-18T10:00:05Z</time>
      </trkpt>
      <trkpt lat="42.87596" lon="0.00777">
        <ele>773.7</ele>
        <time>2019-08-18T10:00:06Z</time>
      </trkpt>
      <trkpt lat="42.87598" lon="0.00781">
        <ele>773.9</ele>
        <time>2019-08-18T10:00:07Z</time>
      </trkpt>
      <trkpt lat="42.876" lon="0.00784">
        <ele>774.2</ele>
        <time>2019-08-18T10:00:08Z</time>
      </trkpt>
      <trkpt lat="42.87602" lon="0.00788">
        <ele>774.4</ele>
        <time>2019-08-18T10:00:09Z</time>
      </trkpt>
      <trkpt lat="42.87605" lon="0.00792">
        <ele>774.6</ele>
        <time>2019-08-18T10:00:10Z</time>
      </trkpt>
      <trkpt lat="42.87607" lon="0.00795">
        <ele>774.9</ele>
        <time>2019-08-18T10:00:11Z</time>
      </trkpt>
      <trkpt lat="42.8761" lon="0.00799">
        <ele>775.2</ele>
        <time>2019-08-18T10:00:12Z</time>
      </trkpt>
      <trkpt lat="42.87613" lon="0.00802">
        <ele>775.4</ele>
        <time>2019-08-18T10:00:13Z</time>
      </trkpt>
      <trkpt lat="42.87615" lon="0.00806">
        <ele>775.6</ele>
        <time>2019-08-18T10:00:14Z</time>
      </trkpt>
      <trkpt lat="42.87617" lon="0.0081">
        <ele>775.8</ele>
        <time>2019-08-18T10:00:15Z</time>
      </trkpt>
      <trkpt lat="42.87619" lon="0.00814">
        <ele>776</ele>
        <time>2019-08-18T10:00:16Z</time>
      </trkpt>
      <trkpt lat="42.87622" lon="0.00818">
        <ele>776.2</ele>
        <time>2019-08-18T10:00:17Z</time>
      </trkpt>
      <trkpt lat="42.87624" lon="0.00821">
        <ele>776.3</ele>
        <time>2019-08-18T10:00:18Z</time>
      </trkpt>
      <trkpt lat="42.87627" lon="0.00824">
        <ele>776.5</ele>
        <time>2019-08-18T10:00:19Z</time>
      </trkpt>
      <trkpt lat="42.87629" lon="0.00828">
        <ele>776.7</ele>
        <time>2019-08-18T10:00:20Z</time>
      </trkpt>
      <trkpt lat="42.87632" lon="0.00832">
        <ele>777</ele>
        <time>2019-08-18T10:00:21Z</time>
      </trkpt>
      <trkpt lat="42.87635" lon="0.00836">
        <ele>777.2</ele>
        <time>2019-08-18T10:00:22Z</time>
      </trkpt>
      <trkpt lat="42.87637" lon="0.00839">
        <ele>777.4</ele>
        <time>2019-08-18T10:00:23Z</time>
      </trkpt>
      <trkpt lat="42.8764" lon="0.00843">
        <ele>777.6</ele>
        <time>2019-08-18T10:00:24Z</time>
      </trkpt>
      <trkpt lat="42.87642" lon="0.00847">
        <ele>777.7</ele>
        <time>2019-08-18T10:00:25Z</time>
      </trkpt>
      <trkpt lat="42.87645" lon="0.00851">
        <ele>777.9</ele>
        <time>2019-08-18T10:00:26Z</time>
      </trkpt>
      <trkpt lat="42.87648" lon="0.00854">
        <ele>778</ele>
        <time>2019-08-18T10:00:27Z</time>
      </trkpt>
      <trkpt lat="42.8765" lon="0.00858">
        <ele>778.2</ele>
        <time>2019-08-18T10:00:28Z</time>
      </trkpt>
      <trkpt lat="42.87653" lon="0.00862">
        <ele>778.3</ele>
        <time>2019-08-18T10:00:29Z</time>
      </trkpt>
      <trkpt lat="42.87655" lon="0.00866">
        <ele>778.5</ele>
        <time>2019-08-18T10:00:30Z</time>
      </trkpt>
      <trkpt lat="42.87657" lon="0.00871">
        <ele>778.6</ele>
        <time>2019-08-18T10:00:31Z</time>
      </trkpt>
      <trkpt lat="42.8766" lon="0.00875">
        <ele>778.7</ele>
        <time>2019-08-18T10:00:32Z</time>
      </trkpt>
      <trkpt lat="42.87662" lon="0.00879">
        <ele>778.9</ele>
        <time>2019-08-18T10:00:33Z</time>
      </trkpt>
      <trkpt lat="42.87664" lon="0.00883">
        <ele>779</ele>
        <time>2019-08-18T10:00:34Z</time>
      </trkpt>
      <trkpt lat="42.87667" lon="0.00887">
        <ele>779.1</ele>
        <time>2019-08-18T10:00:35Z</time>
      </trkpt>
      <trkpt lat="42.87669" lon="0.0089">
        <ele>779.3</ele>
        <time>2019-08-18T10:00:36Z</time>
      </trkpt>
      <trkpt lat="42.87671" lon="0.00894">
        <ele>779.4</ele>
        <time>2019-08-18T10:00:37Z</time>
      </trkpt>
      <trkpt lat="42.87673" lon="0.00898">
        <ele>779.6</ele>
        <time>2019-08-18T10:00:38Z</time>
      </trkpt>
      <trkpt lat="42.87674" lon="0.00902">
        <ele>779.7</ele>
        <time>2019-08-18T10:00:39Z</time>
      </trkpt>
      <trkpt lat="42.87676" lon="0.00906">
        <ele>779.9</ele>
        <time>2019-08-18T10:00:40Z</time>
      </trkpt>
      <trkpt lat="42.87678" lon="0.0091">
        <ele>780.1</ele>
        <time>2019-08-18T10:00:41Z</time>
      </trkpt>
      <trkpt lat="42.87679" lon="0.00914">
        <ele>780.3</ele>
        <time>2019-08-18T10:00:42Z</time>
      </trkpt>
      <trkpt lat="42.8768" lon="0.00918">
        <ele>780.4</ele>
        <time>2019-08-18T10:00:43Z</time>
      </trkpt>
      <trkpt lat="42.87682" lon="0.00922">
        <ele>780.6</ele>
        <time>2019-08-18T10:00:44Z</time>
      </trkpt>
      <trkpt lat="42.87683" lon="0.00926">
        <ele>780.8</ele>
        <time>2019-08-18T10:00:45Z</time>
      </trkpt>
      <trkpt lat="42.87685" lon="0.00931">
        <ele>780.9</ele>
        <time>2019-08-18T10:00:46Z</time>
      </trkpt>
      <trkpt lat="42.87687" lon="0.00935">
        <ele>781.1</ele>
        <time>2019-08-18T10:00:47Z</time>
      </trkpt>
      <trkpt lat="42.87689" lon="0.0094">
        <ele>781.3</ele>
        <time>2019-08-18T10:00:48Z</time>
      </trkpt>
      <trkpt lat="42.8769" lon="0.00944">
        <ele>781.6</ele>
        <time>2019-08-18T10:00:49Z</time>
      </trkpt>
      <trkpt lat="42.87692" lon="0.00948">
        <ele>781.8</ele>
        <time>2019-08-18T10:00:50Z</time>
      </trkpt>
      <trkpt lat="42.87693" lon="0.00951">
        <ele>781.9</ele>
        <time>2019-08-18T10:00:51Z</time>
      </trkpt>
      <trkpt lat="42.87695" lon="0.00955">
        <ele>782.1</ele>
        <time>2019-08-18T10:00:52Z</time>
      </trkpt>
      <trkpt lat="42.87696" lon="0.00959">
        <ele>782.3</ele>
        <time>2019-08-18T10:00:53Z</time>
      </trkpt>
      <trkpt lat="42.87697" lon="0.00963">
        <ele>782.5</ele>
        <time>2019-08-18T10:00:54Z</time>
      </trkpt>
      <trkpt lat="42.87698" lon="0.00966">
        <ele>782.6</ele>
        <time>2019-08-18T10:00:55Z</time>
      </trkpt>
      <trkpt lat="42.87699" lon="0.0097">
        <ele>782.8</ele>
        <time>2019-08-18T10:00:56Z</time>
      </trkpt>
      <trkpt lat="42.877" lon="0.00974">
        <ele>783.1</ele>
        <time>2019-08-18T10:00:57Z</time>
      </trkpt>
      <trkpt lat="42.87701" lon="0.00978">
        <ele>783.3</ele>
        <time>2019-08-18T10:00:58Z</time>
      </trkpt>
      <trkpt lat="42.87702" lon="0.00982">
        <ele>783.5</ele>
        <time>2019-08-18T10:00:59Z</time>
      </trkpt>
      <trkpt lat="42.87704" lon="0.00986">
        <ele>783.7</ele>
        <time>2019-08-18T10:01:00Z</time>
      </trkpt>
      <trkpt lat="42.87705" lon="0.0099">
        <ele>783.9</ele>
        <time>2019-08-18T10:01:01Z</time>
      </trkpt>
      <trkpt lat="42.87707" lon="0.00994">
        <ele>784.2</ele>
        <time>2019-08-18T10:01:02Z</time>
      </trkpt>
      <trkpt lat="42.87708" lon="0.00998">
        <ele>784.4</ele>
        <time>2019-08-18T10:01:03Z</time>
      </trkpt>
      <trkpt lat="42.87709" lon="0.01002">
        <ele>784.6</ele>
        <time>2019-08-18T10:01:04Z</time>
      </trkpt>
      <trkpt lat="42.87711" lon="0.01006">
        <ele>784.8</ele>
        <time>2019-08-18T10:01:05Z</time>
      </trkpt>
      <trkpt lat="42.87712" lon="0.0101">
        <ele>785</ele>
        <time>2019-08-18T10:01:06Z</time>
      </trkpt>
      <trkpt lat="42.87714" lon="0.01014">
        <ele>785.2</ele>
        <time>2019-08-18T10:01:07Z</time>
      </trkpt>
      <trkpt lat="42.87715" lon="0.01018">
        <ele>785.4</ele>
        <time>2019-08-18T10:01:08Z</time>
      </trkpt>
      <trkpt lat="42.87717" lon="0.01022">
        <ele>785.6</ele>
        <time>2019-08-18T10:01:09Z</time>
      </trkpt>
      <trkpt lat="42.87718" lon="0.01026">
        <ele>785.8</ele>
        <time>2019-08-18T10:01:10Z</time>
      </trkpt>
      <trkpt lat="42.8772" lon="0.0103">
        <ele>786.1</ele>
        <time>2019-08-18T10:01:11Z</time>
      </trkpt>
      <trkpt lat="42.87721" lon="0.01035">
        <ele>786.3</ele>
        <time>2019-08-18T10:01:12Z</time>
      </trkpt>
      <trkpt lat="42.87723" lon="0.01039">
        <ele>786.5</ele>
        <time>2019-08-18T10:01:13Z</time>
      </trkpt>
      <trkpt lat="42.87724" lon="0.01044">
        <ele>786.7</ele>
        <time>2019-08-18T10:01:14Z</time>
      </trkpt>
      <trkpt lat="42.87725" lon="0.01048">
        <ele>786.9</ele>
        <time>2019-08-18T10:01:15Z</time>
      </trkpt>
      <trkpt lat="42.87726" lon="0.01052">
        <ele>787.1</ele>
        <time>2019-08-18T10:01:16Z</time>
      </trkpt>
      <trkpt lat="42.87727" lon="0.01056">
        <ele>787.3</ele>
        <time>2019-08-18T10:01:17Z</time>
      </trkpt>
      <trkpt lat="42.87729" lon="0.0106">
        <ele>787.5</ele>
        <time>2019-08-18T10:01:18Z</time>
      </trkpt>
      <trkpt lat="42.8773" lon="0.01063">
        <ele>787.7</ele>
        <time>2019-08-18T10:01:19Z</time>
      </trkpt>
      <trkpt lat="42.87732" lon="0.01066">
        <ele>787.9</ele>
        <time>2019-08-18T10:01:20Z</time>
      </trkpt>
      <trkpt lat="42.87733" lon="0.0107">
        <ele>788.1</ele>
        <time>2019-08-18T10:01:21Z</time>
      </trkpt>
      <trkpt lat="42.87734" lon="0.01073">
        <ele>788.3</ele>
        <time>2019-08-18T10:01:22Z</time>
      </trkpt>
      <trkpt lat="42.87736" lon="0.01077">
        <ele>788.6</ele>
        <time>2019-08-18T10:01:23Z</time>
      </trkpt>
      <trkpt lat="42.87737" lon="0.01081">
        <ele>788.8</ele>
        <time>2019-08-18T10:01:24Z</time>
      </trkpt>
      <trkpt lat="42.87738" lon="0.01085">
        <ele>789.1</ele>
        <time>2019-08-18T10:01:25Z</time>
      </trkpt>
      <trkpt lat="42.87739" lon="0.01088">
        <ele>789.3</ele>
        <time>2019-08-18T10:01:26Z</time>
      </trkpt>
      <trkpt lat="42.8774" lon="0.01092">
        <ele>789.6</ele>
        <time>2019-08-18T10:01:27Z</time>
      </trkpt>
      <trkpt lat="42.87742" lon="0.01095">
        <ele>789.8</ele>
        <time>2019-08-18T10:01:28Z</time>
      </trkpt>
      <trkpt lat="42.87744" lon="0.01099">
        <ele>790.1</ele>
        <time>2019-08-18T10:01:29Z</time>
      </trkpt>
      <trkpt lat="42.87745" lon="0.01102">
        <ele>790.4</ele>
        <time>2019-08-18T10:01:30Z</time>
      </trkpt>
      <trkpt lat="42.87746" lon="0.01105">
        <ele>790.7</ele>
        <time>2019-08-18T10:01:31Z</time>
      </trkpt>
      <trkpt lat="42.87747" lon="0.01109">
        <ele>790.9</ele>
        <time>2019-08-18T10:01:32Z</time>
      </trkpt>
      <trkpt lat="42.87748" lon="0.01112">
        <ele>791.2</ele>
        <time>2019-08-18T10:01:33Z</time>
      </trkpt>
      <trkpt lat="42.8775" lon="0.01116">
        <ele>791.5</ele>
        <time>2019-08-18T10:01:34Z</time>
      </trkpt>
      <trkpt lat="42.87751" lon="0.0112">
        <ele>791.8</ele>
        <time>2019-08-18T10:01:35Z</time>
      </trkpt>
      <trkpt lat="42.87752" lon="0.01124">
        <ele>792.1</ele>
        <time>2019-08-18T10:01:36Z</time>
      </trkpt>
      <trkpt lat="42.87754" lon="0.01127">
        <ele>792.3</ele>
        <time>2019-08-18T10:01:37Z</time>
      </trkpt>
      <trkpt lat="42.87756" lon="0.01133">
        <ele>792.7</ele>
        <time>2019-08-18T10:01:39Z</time>
      </trkpt>
      <trkpt lat="42.87757" lon="0.01136">
        <ele>793</ele>
        <time>2019-08-18T10:01:40Z</time>
      </trkpt>
      <trkpt lat="42.87758" lon="0.0114">
        <ele>793.2</ele>
        <time>2019-08-18T10:01:41Z</time>
      </trkpt>
      <trkpt lat="42.8776" lon="0.01143">
        <ele>793.4</ele>
        <time>2019-08-18T10:01:42Z</time>
      </trkpt>
      <trkpt lat="42.87761" lon="0.01147">
        <ele>793.7</ele>
        <time>2019-08-18T10:01:43Z</time>
      </trkpt>
      <trkpt lat="42.87762" lon="0.0115">
        <ele>793.9</ele>
        <time>2019-08-18T10:01:44Z</time>
      </trkpt>
      <trkpt lat="42.87764" lon="0.01154">
        <ele>794.1</ele>
        <time>2019-08-18T10:01:45Z</time>
      </trkpt>
      <trkpt lat="42.87765" lon="0.01157">
        <ele>794.3</ele>
        <time>2019-08-18T10:01:46Z</time>
      </trkpt>
      <trkpt lat="42.87767" lon="0.0116">
        <ele>794.5</ele>
        <time>2019-08-18T10:01:47Z</time>
      </trkpt>
      <trkpt lat="42.87768" lon="0.01163">
        <ele>794.7</ele>
        <time>2019-08-18T10:01:48Z</time>
      </trkpt>
      <trkpt lat="42.8777" lon="0.01167">
        <ele>794.9</ele>
        <time>2019-08-18T10:01:49Z</time>
      </trkpt>
      <trkpt lat="42.87771" lon="0.0117">
        <ele>795.1</ele>
        <time>2019-08-18T10:01:50Z</time>
      </trkpt>
      <trkpt lat="42.87772" lon="0.01174">
        <ele>795.3</ele>
        <time>2019-08-18T10:01:51Z</time>
      </trkpt>
      <trkpt lat="42.87773" lon="0.01177">
        <ele>795.5</ele>
        <time>2019-08-18T10:01:52Z</time>
      </trkpt>
      <trkpt lat="42.87774" lon="0.01181">
        <ele>795.8</ele>
        <time>2019-08-18T10:01:53Z</time>
      </trkpt>
      <trkpt lat="42.87776" lon="0.01184">
        <ele>796</ele>
        <time>2019-08-18T10:01:54Z</time>
      </trkpt>
      <trkpt lat="42.87777" lon="0.01188">
        <ele>796.2</ele>
        <time>2019-08-18T10:01:55Z</time>
      </trkpt>
      <trkpt lat="42.87779" lon="0.01191">
        <ele>796.4</ele>
        <time>2019-08-18T10:01:56Z</time>
      </trkpt>
      <trkpt lat="42.87782" lon="0.01197">
        <ele>796.8</ele>
        <time>2019-08-18T10:01:58Z</time>
      </trkpt>
      <trkpt lat="42.87784" lon="0.01204">
        <ele>797.3</ele>
        <time>2019-08-18T10:02:00Z</time>
      </trkpt>
      <trkpt lat="42.87786" lon="0.01208">
        <ele>797.6</ele>
        <time>2019-08-18T10:02:01Z</time>
      </trkpt>
      <trkpt lat="42.87787" lon="0.01211">
        <ele>797.9</ele>
        <time>2019-08-18T10:02:02Z</time>
      </trkpt>
      <trkpt lat="42.87788" lon="0.01215">
        <ele>798.1</ele>
        <time>2019-08-18T10:02:03Z</time>
      </trkpt>
      <trkpt lat="42.87789" lon="0.01218">
        <ele>798.4</ele>
        <time>2019-08-18T10:02:04Z</time>
      </trkpt>
      <trkpt lat="42.87791" lon="0.01222">
        <ele>798.6</ele>
        <time>2019-08-18T10:02:05Z</time>
      </trkpt>
      <trkpt lat="42.87792" lon="0.01225">
        <ele>798.9</ele>
        <time>2019-08-18T10:02:06Z</time>
      </trkpt>
      <trkpt lat="42.87793" lon="0.01229">
        <ele>799.2</ele>
        <time>2019-08-18T10:02:07Z</time>
      </trkpt>
      <trkpt lat="42.87795" lon="0.01235">
        <ele>799.6</ele>
        <time>2019-08-18T10:02:09Z</time>
      </trkpt>
      <trkpt lat="42.87797" lon="0.01239">
        <ele>799.9</ele>
        <time>2019-08-18T10:02:10Z</time>
      </trkpt>
      <trkpt lat="42.87798" lon="0.01242">
        <ele>800.2</ele>
        <time>2019-08-18T10:02:11Z</time>
      </trkpt>
      <trkpt lat="42.878" lon="0.01249">
        <ele>800.6</ele>
        <time>2019-08-18T10:02:13Z</time>
      </trkpt>
      <trkpt lat="42.878" lon="0.01253">
        <ele>800.9</ele>
        <time>2019-08-18T10:02:14Z</time>
      </trkpt>
      <trkpt lat="42.87801" lon="0.01257">
        <ele>801.2</ele>
        <time>2019-08-18T10:02:15Z</time>
      </trkpt>
      <trkpt lat="42.87802" lon="0.01264">
        <ele>801.6</ele>
        <time>2019-08-18T10:02:17Z</time>
      </trkpt>
      <trkpt lat="42.87803" lon="0.01267">
        <ele>801.8</ele>
        <time>2019-08-18T10:02:18Z</time>
      </trkpt>
      <trkpt lat="42.87804" lon="0.01271">
        <ele>802.1</ele>
        <time>2019-08-18T10:02:19Z</time>
      </trkpt>
      <trkpt lat="42.87805" lon="0.01274">
        <ele>802.3</ele>
        <time>2019-08-18T10:02:20Z</time>
      </trkpt>
      <trkpt lat="42.87807" lon="0.01278">
        <ele>802.6</ele>
        <time>2019-08-18T10:02:21Z</time>
      </trkpt>
      <trkpt lat="42.87808" lon="0.01281">
        <ele>802.8</ele>
        <time>2019-08-18T10:02:22Z</time>
      </trkpt>
      <trkpt lat="42.87808" lon="0.01285">
        <ele>803.1</ele>
        <time>2019-08-18T10:02:23Z</time>
      </trkpt>
      <trkpt lat="42.87809" lon="0.01289">
        <ele>803.3</ele>
        <time>2019-08-18T10:02:24Z</time>
      </trkpt>
      <trkpt lat="42.87811" lon="0.01296">
        <ele>803.8</ele>
        <time>2019-08-18T10:02:26Z</time>
      </trkpt>
      <trkpt lat="42.87812" lon="0.01303">
        <ele>804.3</ele>
        <time>2019-08-18T10:02:28Z</time>
      </trkpt>
      <trkpt lat="42.87813" lon="0.01307">
        <ele>804.6</ele>
        <time>2019-08-18T10:02:29Z</time>
      </trkpt>
      <trkpt lat="42.87813" lon="0.01311">
        <ele>804.8</ele>
        <time>2019-08-18T10:02:30Z</time>
      </trkpt>
      <trkpt lat="42.87815" lon="0.01318">
        <ele>805.3</ele>
        <time>2019-08-18T10:02:32Z</time>
      </trkpt>
      <trkpt lat="42.87815" lon="0.01325">
        <ele>805.7</ele>
        <time>2019-08-18T10:02:34Z</time>
      </trkpt>
      <trkpt lat="42.87815" lon="0.01329">
        <ele>805.9</ele>
        <time>2019-08-18T10:02:35Z</time>
      </trkpt>
      <trkpt lat="42.87815" lon="0.01333">
        <ele>806.1</ele>
        <time>2019-08-18T10:02:36Z</time>
      </trkpt>
      <trkpt lat="42.87815" lon="0.01337">
        <ele>806.3</ele>
        <time>2019-08-18T10:02:37Z</time>
      </trkpt>
      <trkpt lat="42.87815" lon="0.01341">
        <ele>806.5</ele>
        <time>2019-08-18T10:02:38Z</time>
      </trkpt>
      <trkpt lat="42.87815" lon="0.01345">
        <ele>806.7</ele>
        <time>2019-08-18T10:02:39Z</time>
      </trkpt>
      <trkpt lat="42.87815" lon="0.01348">
        <ele>806.9</ele>
        <time>2019-08-18T10:02:40Z</time>
      </trkpt>
      <trkpt lat="42.87815" lon="0.01352">
        <ele>807.1</ele>
        <time>2019-08-18T10:02:41Z</time>
      </trkpt>
      <trkpt lat="42.87815" lon="0.01356">
        <ele>807.2</ele>
        <time>2019-08-18T10:02:42Z</time>
      </trkpt>
      <trkpt lat="42.87815" lon="0.0136">
        <ele>807.4</ele>
        <time>2019-08-18T10:02:43Z</time>
      </trkpt>
      <trkpt lat="42.87815" lon="0.01367">
        <ele>807.8</ele>
        <time>2019-08-18T10:02:45Z</time>
      </trkpt>
      <trkpt lat="42.87815" lon="0.01371">
        <ele>808</ele>
        <time>2019-08-18T10:02:46Z</time>
      </trkpt>
      <trkpt lat="42.87815" lon="0.01375">
        <ele>808.2</ele>
        <time>2019-08-18T10:02:47Z</time>
      </trkpt>
      <trkpt lat="42.87814" lon="0.01379">
        <ele>808.4</ele>
        <time>2019-08-18T10:02:48Z</time>
      </trkpt>
      <trkpt lat="42.87814" lon="0.01386">
        <ele>808.8</ele>
        <time>2019-08-18T10:02:50Z</time>
      </trkpt>
      <trkpt lat="42.87814" lon="0.01393">
        <ele>809.1</ele>
        <time>2019-08-18T10:02:52Z</time>
      </trkpt>
      <trkpt lat="42.87814" lon="0.01397">
        <ele>809.3</ele>
        <time>2019-08-18T10:02:53Z</time>
      </trkpt>
      <trkpt lat="42.87814" lon="0.014">
        <ele>809.6</ele>
        <time>2019-08-18T10:02:54Z</time>
      </trkpt>
      <trkpt lat="42.87814" lon="0.01408">
        <ele>809.9</ele>
        <time>2019-08-18T10:02:56Z</time>
      </trkpt>
      <trkpt lat="42.87814" lon="0.01415">
        <ele>810.4</ele>
        <time>2019-08-18T10:02:58Z</time>
      </trkpt>
      <trkpt lat="42.87814" lon="0.01422">
        <ele>810.7</ele>
        <time>2019-08-18T10:03:00Z</time>
      </trkpt>
      <trkpt lat="42.87814" lon="0.01429">
        <ele>811.1</ele>
        <time>2019-08-18T10:03:02Z</time>
      </trkpt>
      <trkpt lat="42.87814" lon="0.01433">
        <ele>811.4</ele>
        <time>2019-08-18T10:03:03Z</time>
      </trkpt>
      <trkpt lat="42.87814" lon="0.01437">
        <ele>811.6</ele>
        <time>2019-08-18T10:03:04Z</time>
      </trkpt>
      <trkpt lat="42.87814" lon="0.0144">
        <ele>811.8</ele>
        <time>2019-08-18T10:03:05Z</time>
      </trkpt>
      <trkpt lat="42.87815" lon="0.01444">
        <ele>812</ele>
        <time>2019-08-18T10:03:06Z</time>
      </trkpt>
      <trkpt lat="42.87814" lon="0.01449">
        <ele>812.2</ele>
        <time>2019-08-18T10:03:07Z</time>
      </trkpt>
      <trkpt lat="42.87814" lon="0.01453">
        <ele>812.5</ele>
        <time>2019-08-18T10:03:08Z</time>
      </trkpt>
      <trkpt lat="42.87814" lon="0.01457">
        <ele>812.7</ele>
        <time>2019-08-18T10:03:09Z</time>
      </trkpt>
      <trkpt lat="42.87814" lon="0.0146">
        <ele>812.9</ele>
        <time>2019-08-18T10:03:10Z</time>
      </trkpt>
      <trkpt lat="42.87814" lon="0.01464">
        <ele>813.2</ele>
        <time>2019-08-18T10:03:11Z</time>
      </trkpt>
      <trkpt lat="42.87814" lon="0.01468">
        <ele>813.4</ele>
        <time>2019-08-18T10:03:12Z</time>
      </trkpt>
      <trkpt lat="42.87814" lon="0.01472">
        <ele>813.6</ele>
        <time>2019-08-18T10:03:13Z</time>
      </trkpt>
      <trkpt lat="42.87814" lon="0.01479">
        <ele>814.1</ele>
        <time>2019-08-18T10:03:15Z</time>
      </trkpt>
      <trkpt lat="42.87814" lon="0.01483">
        <ele>814.4</ele>
        <time>2019-08-18T10:03:16Z</time>
      </trkpt>
      <trkpt lat="42.87814" lon="0.01487">
        <ele>814.7</ele>
        <time>2019-08-18T10:03:17Z</time>
      </trkpt>
      <trkpt lat="42.87815" lon="0.01491">
        <ele>814.9</ele>
        <time>2019-08-18T10:03:18Z</time>
      </trkpt>
      <trkpt lat="42.87815" lon="0.01495">
        <ele>815.2</ele>
        <time>2019-08-18T10:03:19Z</time>
      </trkpt>
      <trkpt lat="42.87815" lon="0.01499">
        <ele>815.4</ele>
        <time>2019-08-18T10:03:20Z</time>
      </trkpt>
      <trkpt lat="42.87815" lon="0.01503">
        <ele>815.7</ele>
        <time>2019-08-18T10:03:21Z</time>
      </trkpt>
      <trkpt lat="42.87815" lon="0.01507">
        <ele>816</ele>
        <time>2019-08-18T10:03:22Z</time>
      </trkpt>
      <trkpt lat="42.87816" lon="0.0151">
        <ele>816.2</ele>
        <time>2019-08-18T10:03:23Z</time>
      </trkpt>
      <trkpt lat="42.87816" lon="0.01514">
        <ele>816.4</ele>
        <time>2019-08-18T10:03:24Z</time>
      </trkpt>
      <trkpt lat="42.87816" lon="0.01519">
        <ele>816.7</ele>
        <time>2019-08-18T10:03:25Z</time>
      </trkpt>
      <trkpt lat="42.87816" lon="0.01523">
        <ele>816.9</ele>
        <time>2019-08-18T10:03:26Z</time>
      </trkpt>
      <trkpt lat="42.87817" lon="0.01527">
        <ele>817.1</ele>
        <time>2019-08-18T10:03:27Z</time>
      </trkpt>
      <trkpt lat="42.87816" lon="0.01531">
        <ele>817.3</ele>
        <time>2019-08-18T10:03:28Z</time>
      </trkpt>
      <trkpt lat="42.87816" lon="0.01534">
        <ele>817.5</ele>
        <time>2019-08-18T10:03:29Z</time>
      </trkpt>
      <trkpt lat="42.87816" lon="0.01538">
        <ele>817.7</ele>
        <time>2019-08-18T10:03:30Z</time>
      </trkpt>
      <trkpt lat="42.87816" lon="0.01542">
        <ele>817.9</ele>
        <time>2019-08-18T10:03:31Z</time>
      </trkpt>
      <trkpt lat="42.87816" lon="0.01546">
        <ele>818.1</ele>
        <time>2019-08-18T10:03:32Z</time>
      </trkpt>
      <trkpt lat="42.87816" lon="0.0155">
        <ele>818.3</ele>
        <time>2019-08-18T10:03:33Z</time>
      </trkpt>
      <trkpt lat="42.87816" lon="0.01554">
        <ele>818.5</ele>
        <time>2019-08-18T10:03:34Z</time>
      </trkpt>
      <trkpt lat="42.87816" lon="0.01558">
        <ele>818.7</ele>
        <time>2019-08-18T10:03:35Z</time>
      </trkpt>
      <trkpt lat="42.87817" lon="0.01562">
        <ele>818.9</ele>
        <time>2019-08-18T10:03:36Z</time>
      </trkpt>
      <trkpt lat="42.87817" lon="0.01566">
        <ele>819</ele>
        <time>2019-08-18T10:03:37Z</time>
      </trkpt>
      <trkpt lat="42.87817" lon="0.01569">
        <ele>819.2</ele>
        <time>2019-08-18T10:03:38Z</time>
      </trkpt>
      <trkpt lat="42.87817" lon="0.01573">
        <ele>819.4</ele>
        <time>2019-08-18T10:03:39Z</time>
      </trkpt>
      <trkpt lat="42.87817" lon="0.01577">
        <ele>819.6</ele>
        <time>2019-08-18T10:03:40Z</time>
      </trkpt>
      <trkpt lat="42.87818" lon="0.01581">
        <ele>819.8</ele>
        <time>2019-08-18T10:03:41Z</time>
      </trkpt>
      <trkpt lat="42.87818" lon="0.01585">
        <ele>820</ele>
        <time>2019-08-18T10:03:42Z</time>
      </trkpt>
      <trkpt lat="42.87818" lon="0.01592">
        <ele>820.3</ele>
        <time>2019-08-18T10:03:44Z</time>
      </trkpt>
      <trkpt lat="42.87818" lon="0.01599">
        <ele>820.6</ele>
        <time>2019-08-18T10:03:46Z</time>
      </trkpt>
      <trkpt lat="42.87818" lon="0.01606">
        <ele>820.9</ele>
        <time>2019-08-18T10:03:48Z</time>
      </trkpt>
      <trkpt lat="42.87818" lon="0.01614">
        <ele>821.3</ele>
        <time>2019-08-18T10:03:50Z</time>
      </trkpt>
      <trkpt lat="42.87819" lon="0.01621">
        <ele>821.6</ele>
        <time>2019-08-18T10:03:52Z</time>
      </trkpt>
      <trkpt lat="42.8782" lon="0.01628">
        <ele>821.9</ele>
        <time>2019-08-18T10:03:54Z</time>
      </trkpt>
      <trkpt lat="42.8782" lon="0.01632">
        <ele>822</ele>
        <time>2019-08-18T10:03:55Z</time>
      </trkpt>
      <trkpt lat="42.8782" lon="0.01636">
        <ele>822.2</ele>
        <time>2019-08-18T10:03:56Z</time>
      </trkpt>
      <trkpt lat="42.87821" lon="0.0164">
        <ele>822.3</ele>
        <time>2019-08-18T10:03:57Z</time>
      </trkpt>
      <trkpt lat="42.87822" lon="0.01644">
        <ele>822.4</ele>
        <time>2019-08-18T10:03:58Z</time>
      </trkpt>
      <trkpt lat="42.87822" lon="0.01648">
        <ele>822.5</ele>
        <time>2019-08-18T10:03:59Z</time>
      </trkpt>
      <trkpt lat="42.87823" lon="0.01652">
        <ele>822.6</ele>
        <time>2019-08-18T10:04:00Z</time>
      </trkpt>
      <trkpt lat="42.87824" lon="0.01655">
        <ele>822.7</ele>
        <time>2019-08-18T10:04:01Z</time>
      </trkpt>
      <trkpt lat="42.87824" lon="0.01659">
        <ele>822.8</ele>
        <time>2019-08-18T10:04:02Z</time>
      </trkpt>
      <trkpt lat="42.87825" lon="0.01663">
        <ele>822.9</ele>
        <time>2019-08-18T10:04:03Z</time>
      </trkpt>
      <trkpt lat="42.87825" lon="0.01667">
        <ele>823</ele>
        <time>2019-08-18T10:04:04Z</time>
      </trkpt>
      <trkpt lat="42.87825" lon="0.01671">
        <ele>823.1</ele>
        <time>2019-08-18T10:04:05Z</time>
      </trkpt>
      <trkpt lat="42.87826" lon="0.01678">
        <ele>823.4</ele>
        <time>2019-08-18T10:04:07Z</time>
      </trkpt>
      <trkpt lat="42.87826" lon="0.01685">
        <ele>823.6</ele>
        <time>2019-08-18T10:04:09Z</time>
      </trkpt>
      <trkpt lat="42.87827" lon="0.01692">
        <ele>823.8</ele>
        <time>2019-08-18T10:04:11Z</time>
      </trkpt>
      <trkpt lat="42.87827" lon="0.01699">
        <ele>824.1</ele>
        <time>2019-08-18T10:04:13Z</time>
      </trkpt>
      <trkpt lat="42.87827" lon="0.01703">
        <ele>824.2</ele>
        <time>2019-08-18T10:04:14Z</time>
      </trkpt>
      <trkpt lat="42.87828" lon="0.0171">
        <ele>824.5</ele>
        <time>2019-08-18T10:04:16Z</time>
      </trkpt>
      <trkpt lat="42.87828" lon="0.01717">
        <ele>824.7</ele>
        <time>2019-08-18T10:04:18Z</time>
      </trkpt>
      <trkpt lat="42.87828" lon="0.01724">
        <ele>825</ele>
        <time>2019-08-18T10:04:20Z</time>
      </trkpt>
      <trkpt lat="42.87828" lon="0.0173">
        <ele>825.2</ele>
        <time>2019-08-18T10:04:22Z</time>
      </trkpt>
      <trkpt lat="42.87828" lon="0.01734">
        <ele>825.3</ele>
        <time>2019-08-18T10:04:23Z</time>
      </trkpt>
      <trkpt lat="42.87828" lon="0.01741">
        <ele>825.6</ele>
        <time>2019-08-18T10:04:25Z</time>
      </trkpt>
      <trkpt lat="42.87828" lon="0.01748">
        <ele>825.8</ele>
        <time>2019-08-18T10:04:27Z</time>
      </trkpt>
      <trkpt lat="42.87829" lon="0.01755">
        <ele>826.1</ele>
        <time>2019-08-18T10:04:29Z</time>
      </trkpt>
      <trkpt lat="42.87829" lon="0.01759">
        <ele>826.2</ele>
        <time>2019-08-18T10:04:30Z</time>
      </trkpt>
      <trkpt lat="42.87829" lon="0.01763">
        <ele>826.3</ele>
        <time>2019-08-18T10:04:31Z</time>
      </trkpt>
      <trkpt lat="42.87829" lon="0.01767">
        <ele>826.4</ele>
        <time>2019-08-18T10:04:32Z</time>
      </trkpt>
      <trkpt lat="42.8783" lon="0.0177">
        <ele>826.5</ele>
        <time>2019-08-18T10:04:33Z</time>
      </trkpt>
      <trkpt lat="42.87831" lon="0.01774">
        <ele>826.7</ele>
        <time>2019-08-18T10:04:34Z</time>
      </trkpt>
      <trkpt lat="42.87831" lon="0.01778">
        <ele>826.8</ele>
        <time>2019-08-18T10:04:35Z</time>
      </trkpt>
      <trkpt lat="42.87831" lon="0.01785">
        <ele>827</ele>
        <time>2019-08-18T10:04:37Z</time>
      </trkpt>
      <trkpt lat="42.87831" lon="0.01789">
        <ele>827.1</ele>
        <time>2019-08-18T10:04:38Z</time>
      </trkpt>
      <trkpt lat="42.87832" lon="0.01792">
        <ele>827.2</ele>
        <time>2019-08-18T10:04:39Z</time>
      </trkpt>
      <trkpt lat="42.87832" lon="0.01796">
        <ele>827.3</ele>
        <time>2019-08-18T10:04:40Z</time>
      </trkpt>
      <trkpt lat="42.87832" lon="0.01803">
        <ele>827.5</ele>
        <time>2019-08-18T10:04:42Z</time>
      </trkpt>
      <trkpt lat="42.87832" lon="0.0181">
        <ele>827.8</ele>
        <time>2019-08-18T10:04:44Z</time>
      </trkpt>
      <trkpt lat="42.87833" lon="0.01818">
        <ele>828</ele>
        <time>2019-08-18T10:04:46Z</time>
      </trkpt>
      <trkpt lat="42.87833" lon="0.01825">
        <ele>828.3</ele>
        <time>2019-08-18T10:04:48Z</time>
      </trkpt>
      <trkpt lat="42.87833" lon="0.01828">
        <ele>828.4</ele>
        <time>2019-08-18T10:04:49Z</time>
      </trkpt>
      <trkpt lat="42.87833" lon="0.01835">
        <ele>828.7</ele>
        <time>2019-08-18T10:04:51Z</time>
      </trkpt>
      <trkpt lat="42.87833" lon="0.01839">
        <ele>828.9</ele>
        <time>2019-08-18T10:04:52Z</time>
      </trkpt>
      <trkpt lat="42.87833" lon="0.01846">
        <ele>829.2</ele>
        <time>2019-08-18T10:04:54Z</time>
      </trkpt>
      <trkpt lat="42.87832" lon="0.01854">
        <ele>829.6</ele>
        <time>2019-08-18T10:04:56Z</time>
      </trkpt>
      <trkpt lat="42.87832" lon="0.01861">
        <ele>830</ele>
        <time>2019-08-18T10:04:58Z</time>
      </trkpt>
      <trkpt lat="42.87832" lon="0.01864">
        <ele>830.2</ele>
        <time>2019-08-18T10:04:59Z</time>
      </trkpt>
      <trkpt lat="42.87832" lon="0.01868">
        <ele>830.4</ele>
        <time>2019-08-18T10:05:00Z</time>
      </trkpt>
      <trkpt lat="42.87832" lon="0.01875">
        <ele>830.8</ele>
        <time>2019-08-18T10:05:02Z</time>
      </trkpt>
      <trkpt lat="42.87832" lon="0.01879">
        <ele>831</ele>
        <time>2019-08-18T10:05:03Z</time>
      </trkpt>
      <trkpt lat="42.87832" lon="0.01886">
        <ele>831.5</ele>
        <time>2019-08-18T10:05:05Z</time>
      </trkpt>
      <trkpt lat="42.87833" lon="0.01893">
        <ele>831.9</ele>
        <time>2019-08-18T10:05:07Z</time>
      </trkpt>
      <trkpt lat="42.87834" lon="0.019">
        <ele>832.4</ele>
        <time>2019-08-18T10:05:09Z</time>
      </trkpt>
      <trkpt lat="42.87834" lon="0.01907">
        <ele>832.8</ele>
        <time>2019-08-18T10:05:11Z</time>
      </trkpt>
      <trkpt lat="42.87835" lon="0.01911">
        <ele>833.1</ele>
        <time>2019-08-18T10:05:12Z</time>
      </trkpt>
      <trkpt lat="42.87835" lon="0.01914">
        <ele>833.3</ele>
        <time>2019-08-18T10:05:13Z</time>
      </trkpt>
      <trkpt lat="42.87836" lon="0.01918">
        <ele>833.6</ele>
        <time>2019-08-18T10:05:14Z</time>
      </trkpt>
      <trkpt lat="42.87836" lon="0.01922">
        <ele>833.8</ele>
        <time>2019-08-18T10:05:15Z</time>
      </trkpt>
      <trkpt lat="42.87837" lon="0.01926">
        <ele>834.1</ele>
        <time>2019-08-18T10:05:16Z</time>
      </trkpt>
      <trkpt lat="42.87838" lon="0.0193">
        <ele>834.3</ele>
        <time>2019-08-18T10:05:17Z</time>
      </trkpt>
      <trkpt lat="42.87838" lon="0.01934">
        <ele>834.6</ele>
        <time>2019-08-18T10:05:18Z</time>
      </trkpt>
      <trkpt lat="42.87838" lon="0.01937">
        <ele>834.8</ele>
        <time>2019-08-18T10:05:19Z</time>
      </trkpt>
      <trkpt lat="42.87839" lon="0.01941">
        <ele>835.1</ele>
        <time>2019-08-18T10:05:20Z</time>
      </trkpt>
      <trkpt lat="42.87839" lon="0.01948">
        <ele>835.5</ele>
        <time>2019-08-18T10:05:22Z</time>
      </trkpt>
      <trkpt lat="42.87839" lon="0.01955">
        <ele>835.9</ele>
        <time>2019-08-18T10:05:24Z</time>
      </trkpt>
      <trkpt lat="42.87839" lon="0.01962">
        <ele>836.4</ele>
        <time>2019-08-18T10:05:26Z</time>
      </trkpt>
      <trkpt lat="42.8784" lon="0.01966">
        <ele>836.6</ele>
        <time>2019-08-18T10:05:27Z</time>
      </trkpt>
      <trkpt lat="42.8784" lon="0.01969">
        <ele>837</ele>
        <time>2019-08-18T10:05:28Z</time>
      </trkpt>
      <trkpt lat="42.8784" lon="0.01977">
        <ele>837.3</ele>
        <time>2019-08-18T10:05:30Z</time>
      </trkpt>
      <trkpt lat="42.87841" lon="0.01983">
        <ele>837.6</ele>
        <time>2019-08-18T10:05:32Z</time>
      </trkpt>
      <trkpt lat="42.87841" lon="0.01991">
        <ele>838</ele>
        <time>2019-08-18T10:05:34Z</time>
      </trkpt>
      <trkpt lat="42.87841" lon="0.01994">
        <ele>838.2</ele>
        <time>2019-08-18T10:05:35Z</time>
      </trkpt>
      <trkpt lat="42.8784" lon="0.01998">
        <ele>838.4</ele>
        <time>2019-08-18T10:05:36Z</time>
      </trkpt>
      <trkpt lat="42.8784" lon="0.02002">
        <ele>838.7</ele>
        <time>2019-08-18T10:05:37Z</time>
      </trkpt>
      <trkpt lat="42.8784" lon="0.02006">
        <ele>838.9</ele>
        <time>2019-08-18T10:05:38Z</time>
      </trkpt>
      <trkpt lat="42.8784" lon="0.0201">
        <ele>839.1</ele>
        <time>2019-08-18T10:05:39Z</time>
      </trkpt>
      <trkpt lat="42.87841" lon="0.02014">
        <ele>839.4</ele>
        <time>2019-08-18T10:05:40Z</time>
      </trkpt>
      <trkpt lat="42.87841" lon="0.02018">
        <ele>839.6</ele>
        <time>2019-08-18T10:05:41Z</time>
      </trkpt>
      <trkpt lat="42.87841" lon="0.02022">
        <ele>839.8</ele>
        <time>2019-08-18T10:05:42Z</time>
      </trkpt>
      <trkpt lat="42.87841" lon="0.02026">
        <ele>840.1</ele>
        <time>2019-08-18T10:05:43Z</time>
      </trkpt>
      <trkpt lat="42.87842" lon="0.0203">
        <ele>840.4</ele>
        <time>2019-08-18T10:05:44Z</time>
      </trkpt>
      <trkpt lat="42.87842" lon="0.02034">
        <ele>840.6</ele>
        <time>2019-08-18T10:05:45Z</time>
      </trkpt>
      <trkpt lat="42.87842" lon="0.02038">
        <ele>840.9</ele>
        <time>2019-08-18T10:05:46Z</time>
      </trkpt>
      <trkpt lat="42.87842" lon="0.02042">
        <ele>841.2</ele>
        <time>2019-08-18T10:05:47Z</time>
      </trkpt>
      <trkpt lat="42.87843" lon="0.02046">
        <ele>841.6</ele>
        <time>2019-08-18T10:05:48Z</time>
      </trkpt>
      <trkpt lat="42.87843" lon="0.0205">
        <ele>841.9</ele>
        <time>2019-08-18T10:05:49Z</time>
      </trkpt>
      <trkpt lat="42.87843" lon="0.02054">
        <ele>842.3</ele>
        <time>2019-08-18T10:05:50Z</time>
      </trkpt>
      <trkpt lat="42.87844" lon="0.02058">
        <ele>842.7</ele>
        <time>2019-08-18T10:05:51Z</time>
      </trkpt>
      <trkpt lat="42.87844" lon="0.02062">
        <ele>843</ele>
        <time>2019-08-18T10:05:52Z</time>
      </trkpt>
      <trkpt lat="42.87844" lon="0.02067">
        <ele>843.4</ele>
        <time>2019-08-18T10:05:53Z</time>
      </trkpt>
      <trkpt lat="42.87844" lon="0.02071">
        <ele>843.7</ele>
        <time>2019-08-18T10:05:54Z</time>
      </trkpt>
      <trkpt lat="42.87845" lon="0.02075">
        <ele>844.1</ele>
        <time>2019-08-18T10:05:55Z</time>
      </trkpt>
      <trkpt lat="42.87845" lon="0.02079">
        <ele>844.4</ele>
        <time>2019-08-18T10:05:56Z</time>
      </trkpt>
      <trkpt lat="42.87845" lon="0.02083">
        <ele>844.7</ele>
        <time>2019-08-18T10:05:57Z</time>
      </trkpt>
      <trkpt lat="42.87845" lon="0.02087">
        <ele>845.1</ele>
        <time>2019-08-18T10:05:58Z</time>
      </trkpt>
      <trkpt lat="42.87845" lon="0.02091">
        <ele>845.4</ele>
        <time>2019-08-18T10:05:59Z</time>
      </trkpt>
      <trkpt lat="42.87845" lon="0.02098">
        <ele>846.2</ele>
        <time>2019-08-18T10:06:01Z</time>
      </trkpt>
      <trkpt lat="42.87845" lon="0.02102">
        <ele>846.5</ele>
        <time>2019-08-18T10:06:02Z</time>
      </trkpt>
      <trkpt lat="42.87846" lon="0.02109">
        <ele>847.1</ele>
        <time>2019-08-18T10:06:04Z</time>
      </trkpt>
      <trkpt lat="42.87846" lon="0.02113">
        <ele>847.5</ele>
        <time>2019-08-18T10:06:05Z</time>
      </trkpt>
      <trkpt lat="42.87846" lon="0.02117">
        <ele>847.8</ele>
        <time>2019-08-18T10:06:06Z</time>
      </trkpt>
      <trkpt lat="42.87847" lon="0.02121">
        <ele>848.2</ele>
        <time>2019-08-18T10:06:07Z</time>
      </trkpt>
      <trkpt lat="42.87847" lon="0.02125">
        <ele>848.5</ele>
        <time>2019-08-18T10:06:08Z</time>
      </trkpt>
      <trkpt lat="42.87847" lon="0.02129">
        <ele>848.8</ele>
        <time>2019-08-18T10:06:09Z</time>
      </trkpt>
      <trkpt lat="42.87847" lon="0.02133">
        <ele>849.1</ele>
        <time>2019-08-18T10:06:10Z</time>
      </trkpt>
      <trkpt lat="42.87848" lon="0.02137">
        <ele>849.4</ele>
        <time>2019-08-18T10:06:11Z</time>
      </trkpt>
      <trkpt lat="42.87848" lon="0.0214">
        <ele>849.8</ele>
        <time>2019-08-18T10:06:12Z</time>
      </trkpt>
      <trkpt lat="42.87848" lon="0.02144">
        <ele>850.1</ele>
        <time>2019-08-18T10:06:13Z</time>
      </trkpt>
      <trkpt lat="42.87849" lon="0.02148">
        <ele>850.4</ele>
        <time>2019-08-18T10:06:14Z</time>
      </trkpt>
      <trkpt lat="42.87849" lon="0.02152">
        <ele>850.8</ele>
        <time>2019-08-18T10:06:15Z</time>
      </trkpt>
      <trkpt lat="42.87849" lon="0.02155">
        <ele>851.1</ele>
        <time>2019-08-18T10:06:16Z</time>
      </trkpt>
      <trkpt lat="42.87849" lon="0.02159">
        <ele>851.5</ele>
        <time>2019-08-18T10:06:17Z</time>
      </trkpt>
      <trkpt lat="42.87849" lon="0.02163">
        <ele>851.9</ele>
        <time>2019-08-18T10:06:18Z</time>
      </trkpt>
      <trkpt lat="42.87849" lon="0.02167">
        <ele>852.3</ele>
        <time>2019-08-18T10:06:19Z</time>
      </trkpt>
      <trkpt lat="42.87849" lon="0.02171">
        <ele>852.7</ele>
        <time>2019-08-18T10:06:20Z</time>
      </trkpt>
      <trkpt lat="42.87849" lon="0.02175">
        <ele>853.1</ele>
        <time>2019-08-18T10:06:21Z</time>
      </trkpt>
      <trkpt lat="42.87849" lon="0.0218">
        <ele>853.5</ele>
        <time>2019-08-18T10:06:22Z</time>
      </trkpt>
      <trkpt lat="42.87849" lon="0.02184">
        <ele>853.9</ele>
        <time>2019-08-18T10:06:23Z</time>
      </trkpt>
      <trkpt lat="42.87849" lon="0.02188">
        <ele>854.3</ele>
        <time>2019-08-18T10:06:24Z</time>
      </trkpt>
      <trkpt lat="42.8785" lon="0.02192">
        <ele>854.7</ele>
        <time>2019-08-18T10:06:25Z</time>
      </trkpt>
      <trkpt lat="42.8785" lon="0.02196">
        <ele>855</ele>
        <time>2019-08-18T10:06:26Z</time>
      </trkpt>
      <trkpt lat="42.8785" lon="0.022">
        <ele>855.3</ele>
        <time>2019-08-18T10:06:27Z</time>
      </trkpt>
      <trkpt lat="42.8785" lon="0.02203">
        <ele>855.6</ele>
        <time>2019-08-18T10:06:28Z</time>
      </trkpt>
      <trkpt lat="42.8785" lon="0.02207">
        <ele>856</ele>
        <time>2019-08-18T10:06:29Z</time>
      </trkpt>
      <trkpt lat="42.8785" lon="0.02212">
        <ele>856.4</ele>
        <time>2019-08-18T10:06:30Z</time>
      </trkpt>
      <trkpt lat="42.8785" lon="0.02216">
        <ele>856.6</ele>
        <time>2019-08-18T10:06:31Z</time>
      </trkpt>
      <trkpt lat="42.8785" lon="0.02219">
        <ele>856.8</ele>
        <time>2019-08-18T10:06:32Z</time>
      </trkpt>
      <trkpt lat="42.87851" lon="0.02223">
        <ele>857</ele>
        <time>2019-08-18T10:06:33Z</time>
      </trkpt>
      <trkpt lat="42.87851" lon="0.02227">
        <ele>857.3</ele>
        <time>2019-08-18T10:06:34Z</time>
      </trkpt>
      <trkpt lat="42.87851" lon="0.02231">
        <ele>857.8</ele>
        <time>2019-08-18T10:06:35Z</time>
      </trkpt>
      <trkpt lat="42.87852" lon="0.02235">
        <ele>858.3</ele>
        <time>2019-08-18T10:06:36Z</time>
      </trkpt>
      <trkpt lat="42.87852" lon="0.02239">
        <ele>858.7</ele>
        <time>2019-08-18T10:06:37Z</time>
      </trkpt>
      <trkpt lat="42.87852" lon="0.02247">
        <ele>859.4</ele>
        <time>2019-08-18T10:06:39Z</time>
      </trkpt>
      <trkpt lat="42.87852" lon="0.0225">
        <ele>859.8</ele>
        <time>2019-08-18T10:06:40Z</time>
      </trkpt>
      <trkpt lat="42.87853" lon="0.02255">
        <ele>860.2</ele>
        <time>2019-08-18T10:06:41Z</time>
      </trkpt>
      <trkpt lat="42.87854" lon="0.02258">
        <ele>860.6</ele>
        <time>2019-08-18T10:06:42Z</time>
      </trkpt>
      <trkpt lat="42.87854" lon="0.02262">
        <ele>861.1</ele>
        <time>2019-08-18T10:06:43Z</time>
      </trkpt>
      <trkpt lat="42.87855" lon="0.02266">
        <ele>861.5</ele>
        <time>2019-08-18T10:06:44Z</time>
      </trkpt>
      <trkpt lat="42.87855" lon="0.0227">
        <ele>861.9</ele>
        <time>2019-08-18T10:06:45Z</time>
      </trkpt>
      <trkpt lat="42.87855" lon="0.02273">
        <ele>862.3</ele>
        <time>2019-08-18T10:06:46Z</time>
      </trkpt>
      <trkpt lat="42.87855" lon="0.02277">
        <ele>862.8</ele>
        <time>2019-08-18T10:06:47Z</time>
      </trkpt>
      <trkpt lat="42.87856" lon="0.02281">
        <ele>863.2</ele>
        <time>2019-08-18T10:06:48Z</time>
      </trkpt>
      <trkpt lat="42.87858" lon="0.02285">
        <ele>863.7</ele>
        <time>2019-08-18T10:06:49Z</time>
      </trkpt>
      <trkpt lat="42.87859" lon="0.02289">
        <ele>864.3</ele>
        <time>2019-08-18T10:06:50Z</time>
      </trkpt>
      <trkpt lat="42.87861" lon="0.02293">
        <ele>864.8</ele>
        <time>2019-08-18T10:06:51Z</time>
      </trkpt>
      <trkpt lat="42.87862" lon="0.02297">
        <ele>865.3</ele>
        <time>2019-08-18T10:06:52Z</time>
      </trkpt>
      <trkpt lat="42.87863" lon="0.023">
        <ele>865.7</ele>
        <time>2019-08-18T10:06:53Z</time>
      </trkpt>
      <trkpt lat="42.87864" lon="0.02304">
        <ele>866.2</ele>
        <time>2019-08-18T10:06:54Z</time>
      </trkpt>
      <trkpt lat="42.87865" lon="0.02308">
        <ele>866.7</ele>
        <time>2019-08-18T10:06:55Z</time>
      </trkpt>
      <trkpt lat="42.87867" lon="0.02311">
        <ele>867.1</ele>
        <time>2019-08-18T10:06:56Z</time>
      </trkpt>
      <trkpt lat="42.87868" lon="0.02315">
        <ele>867.6</ele>
        <time>2019-08-18T10:06:57Z</time>
      </trkpt>
      <trkpt lat="42.8787" lon="0.02318">
        <ele>868.1</ele>
        <time>2019-08-18T10:06:58Z</time>
      </trkpt>
      <trkpt lat="42.87872" lon="0.02322">
        <ele>868.5</ele>
        <time>2019-08-18T10:06:59Z</time>
      </trkpt>
      <trkpt lat="42.87873" lon="0.02325">
        <ele>868.9</ele>
        <time>2019-08-18T10:07:00Z</time>
      </trkpt>
      <trkpt lat="42.87875" lon="0.02329">
        <ele>869.3</ele>
        <time>2019-08-18T10:07:01Z</time>
      </trkpt>
      <trkpt lat="42.87876" lon="0.02332">
        <ele>869.7</ele>
        <time>2019-08-18T10:07:02Z</time>
      </trkpt>
      <trkpt lat="42.87877" lon="0.02336">
        <ele>870.1</ele>
        <time>2019-08-18T10:07:03Z</time>
      </trkpt>
      <trkpt lat="42.87878" lon="0.0234">
        <ele>870.5</ele>
        <time>2019-08-18T10:07:04Z</time>
      </trkpt>
      <trkpt lat="42.87878" lon="0.02344">
        <ele>870.9</ele>
        <time>2019-08-18T10:07:05Z</time>
      </trkpt>
      <trkpt lat="42.87879" lon="0.02348">
        <ele>871.2</ele>
        <time>2019-08-18T10:07:06Z</time>
      </trkpt>
      <trkpt lat="42.8788" lon="0.02351">
        <ele>871.5</ele>
        <time>2019-08-18T10:07:07Z</time>
      </trkpt>
      <trkpt lat="42.87881" lon="0.02355">
        <ele>871.9</ele>
        <time>2019-08-18T10:07:08Z</time>
      </trkpt>
      <trkpt lat="42.87882" lon="0.02359">
        <ele>872.2</ele>
        <time>2019-08-18T10:07:09Z</time>
      </trkpt>
      <trkpt lat="42.87883" lon="0.02363">
        <ele>872.5</ele>
        <time>2019-08-18T10:07:10Z</time>
      </trkpt>
      <trkpt lat="42.87884" lon="0.02367">
        <ele>872.8</ele>
        <time>2019-08-18T10:07:11Z</time>
      </trkpt>
      <trkpt lat="42.87886" lon="0.02374">
        <ele>873.2</ele>
        <time>2019-08-18T10:07:13Z</time>
      </trkpt>
      <trkpt lat="42.87887" lon="0.02377">
        <ele>873.5</ele>
        <time>2019-08-18T10:07:14Z</time>
      </trkpt>
      <trkpt lat="42.87888" lon="0.02381">
        <ele>873.7</ele>
        <time>2019-08-18T10:07:15Z</time>
      </trkpt>
      <trkpt lat="42.87889" lon="0.02388">
        <ele>874.2</ele>
        <time>2019-08-18T10:07:17Z</time>
      </trkpt>
      <trkpt lat="42.87889" lon="0.02392">
        <ele>874.5</ele>
        <time>2019-08-18T10:07:18Z</time>
      </trkpt>
      <trkpt lat="42.87891" lon="0.02399">
        <ele>874.9</ele>
        <time>2019-08-18T10:07:20Z</time>
      </trkpt>
      <trkpt lat="42.87892" lon="0.02403">
        <ele>875.2</ele>
        <time>2019-08-18T10:07:21Z</time>
      </trkpt>
      <trkpt lat="42.87892" lon="0.02407">
        <ele>875.4</ele>
        <time>2019-08-18T10:07:22Z</time>
      </trkpt>
      <trkpt lat="42.87893" lon="0.02411">
        <ele>875.6</ele>
        <time>2019-08-18T10:07:23Z</time>
      </trkpt>
      <trkpt lat="42.87894" lon="0.02415">
        <ele>875.9</ele>
        <time>2019-08-18T10:07:24Z</time>
      </trkpt>
      <trkpt lat="42.87895" lon="0.02418">
        <ele>876.1</ele>
        <time>2019-08-18T10:07:25Z</time>
      </trkpt>
      <trkpt lat="42.87895" lon="0.02422">
        <ele>876.3</ele>
        <time>2019-08-18T10:07:26Z</time>
      </trkpt>
      <trkpt lat="42.87896" lon="0.02425">
        <ele>876.4</ele>
        <time>2019-08-18T10:07:27Z</time>
      </trkpt>
      <trkpt lat="42.87897" lon="0.02429">
        <ele>876.6</ele>
        <time>2019-08-18T10:07:28Z</time>
      </trkpt>
      <trkpt lat="42.87899" lon="0.02436">
        <ele>876.9</ele>
        <time>2019-08-18T10:07:30Z</time>
      </trkpt>
      <trkpt lat="42.879" lon="0.0244">
        <ele>877.1</ele>
        <time>2019-08-18T10:07:31Z</time>
      </trkpt>
      <trkpt lat="42.87902" lon="0.02446">
        <ele>877.3</ele>
        <time>2019-08-18T10:07:33Z</time>
      </trkpt>
      <trkpt lat="42.87903" lon="0.0245">
        <ele>877.4</ele>
        <time>2019-08-18T10:07:34Z</time>
      </trkpt>
      <trkpt lat="42.87903" lon="0.02454">
        <ele>877.5</ele>
        <time>2019-08-18T10:07:35Z</time>
      </trkpt>
      <trkpt lat="42.87904" lon="0.02457">
        <ele>877.5</ele>
        <time>2019-08-18T10:07:36Z</time>
      </trkpt>
      <trkpt lat="42.87905" lon="0.02461">
        <ele>877.6</ele>
        <time>2019-08-18T10:07:37Z</time>
      </trkpt>
      <trkpt lat="42.87905" lon="0.02465">
        <ele>877.7</ele>
        <time>2019-08-18T10:07:38Z</time>
      </trkpt>
      <trkpt lat="42.87906" lon="0.02472">
        <ele>877.8</ele>
        <time>2019-08-18T10:07:40Z</time>
      </trkpt>
      <trkpt lat="42.87907" lon="0.02476">
        <ele>877.9</ele>
        <time>2019-08-18T10:07:41Z</time>
      </trkpt>
      <trkpt lat="42.87907" lon="0.0248">
        <ele>877.9</ele>
        <time>2019-08-18T10:07:42Z</time>
      </trkpt>
      <trkpt lat="42.87908" lon="0.02484">
        <ele>878</ele>
        <time>2019-08-18T10:07:43Z</time>
      </trkpt>
      <trkpt lat="42.87909" lon="0.02491">
        <ele>878.1</ele>
        <time>2019-08-18T10:07:45Z</time>
      </trkpt>
      <trkpt lat="42.8791" lon="0.02494">
        <ele>878.2</ele>
        <time>2019-08-18T10:07:46Z</time>
      </trkpt>
      <trkpt lat="42.8791" lon="0.02501">
        <ele>878.3</ele>
        <time>2019-08-18T10:07:48Z</time>
      </trkpt>
      <trkpt lat="42.87911" lon="0.02505">
        <ele>878.4</ele>
        <time>2019-08-18T10:07:49Z</time>
      </trkpt>
      <trkpt lat="42.87912" lon="0.02512">
        <ele>878.7</ele>
        <time>2019-08-18T10:07:51Z</time>
      </trkpt>
      <trkpt lat="42.87913" lon="0.02519">
        <ele>878.9</ele>
        <time>2019-08-18T10:07:53Z</time>
      </trkpt>
      <trkpt lat="42.87914" lon="0.02526">
        <ele>879.2</ele>
        <time>2019-08-18T10:07:55Z</time>
      </trkpt>
      <trkpt lat="42.87916" lon="0.02533">
        <ele>879.6</ele>
        <time>2019-08-18T10:07:57Z</time>
      </trkpt>
      <trkpt lat="42.87917" lon="0.02537">
        <ele>879.8</ele>
        <time>2019-08-18T10:07:58Z</time>
      </trkpt>
      <trkpt lat="42.87917" lon="0.02541">
        <ele>879.9</ele>
        <time>2019-08-18T10:07:59Z</time>
      </trkpt>
      <trkpt lat="42.87918" lon="0.02545">
        <ele>880.1</ele>
        <time>2019-08-18T10:08:00Z</time>
      </trkpt>
      <trkpt lat="42.87919" lon="0.02549">
        <ele>880.3</ele>
        <time>2019-08-18T10:08:01Z</time>
      </trkpt>
      <trkpt lat="42.8792" lon="0.02556">
        <ele>880.6</ele>
        <time>2019-08-18T10:08:03Z</time>
      </trkpt>
      <trkpt lat="42.87921" lon="0.0256">
        <ele>880.7</ele>
        <time>2019-08-18T10:08:04Z</time>
      </trkpt>
      <trkpt lat="42.87922" lon="0.02567">
        <ele>881</ele>
        <time>2019-08-18T10:08:06Z</time>
      </trkpt>
      <trkpt lat="42.87924" lon="0.02573">
        <ele>881.3</ele>
        <time>2019-08-18T10:08:08Z</time>
      </trkpt>
      <trkpt lat="42.87925" lon="0.0258">
        <ele>881.5</ele>
        <time>2019-08-18T10:08:10Z</time>
      </trkpt>
      <trkpt lat="42.87927" lon="0.02583">
        <ele>881.6</ele>
        <time>2019-08-18T10:08:11Z</time>
      </trkpt>
      <trkpt lat="42.87928" lon="0.02587">
        <ele>881.8</ele>
        <time>2019-08-18T10:08:12Z</time>
      </trkpt>
      <trkpt lat="42.87929" lon="0.0259">
        <ele>881.9</ele>
        <time>2019-08-18T10:08:13Z</time>
      </trkpt>
      <trkpt lat="42.87932" lon="0.02596">
        <ele>882.1</ele>
        <time>2019-08-18T10:08:15Z</time>
      </trkpt>
      <trkpt lat="42.87933" lon="0.02599">
        <ele>882.2</ele>
        <time>2019-08-18T10:08:16Z</time>
      </trkpt>
      <trkpt lat="42.87935" lon="0.02603">
        <ele>882.4</ele>
        <time>2019-08-18T10:08:17Z</time>
      </trkpt>
      <trkpt lat="42.87937" lon="0.02606">
        <ele>882.5</ele>
        <time>2019-08-18T10:08:18Z</time>
      </trkpt>
      <trkpt lat="42.87939" lon="0.02609">
        <ele>882.6</ele>
        <time>2019-08-18T10:08:19Z</time>
      </trkpt>
      <trkpt lat="42.87941" lon="0.02612">
        <ele>882.8</ele>
        <time>2019-08-18T10:08:20Z</time>
      </trkpt>
      <trkpt lat="42.87943" lon="0.02615">
        <ele>882.9</ele>
        <time>2019-08-18T10:08:21Z</time>
      </trkpt>
      <trkpt lat="42.87946" lon="0.02621">
        <ele>883.2</ele>
        <time>2019-08-18T10:08:23Z</time>
      </trkpt>
      <trkpt lat="42.87947" lon="0.02625">
        <ele>883.3</ele>
        <time>2019-08-18T10:08:24Z</time>
      </trkpt>
      <trkpt lat="42.87949" lon="0.02628">
        <ele>883.4</ele>
        <time>2019-08-18T10:08:25Z</time>
      </trkpt>
      <trkpt lat="42.87951" lon="0.02631">
        <ele>883.6</ele>
        <time>2019-08-18T10:08:26Z</time>
      </trkpt>
      <trkpt lat="42.87954" lon="0.02636">
        <ele>883.8</ele>
        <time>2019-08-18T10:08:28Z</time>
      </trkpt>
      <trkpt lat="42.87956" lon="0.02639">
        <ele>883.9</ele>
        <time>2019-08-18T10:08:29Z</time>
      </trkpt>
      <trkpt lat="42.87958" lon="0.02642">
        <ele>884.1</ele>
        <time>2019-08-18T10:08:30Z</time>
      </trkpt>
      <trkpt lat="42.8796" lon="0.02645">
        <ele>884.4</ele>
        <time>2019-08-18T10:08:31Z</time>
      </trkpt>
      <trkpt lat="42.87962" lon="0.02648">
        <ele>884.6</ele>
        <time>2019-08-18T10:08:32Z</time>
      </trkpt>
      <trkpt lat="42.87963" lon="0.02651">
        <ele>884.8</ele>
        <time>2019-08-18T10:08:33Z</time>
      </trkpt>
      <trkpt lat="42.87965" lon="0.02653">
        <ele>885</ele>
        <time>2019-08-18T10:08:34Z</time>
      </trkpt>
      <trkpt lat="42.87969" lon="0.02659">
        <ele>885.4</ele>
        <time>2019-08-18T10:08:36Z</time>
      </trkpt>
      <trkpt lat="42.87972" lon="0.02662">
        <ele>885.6</ele>
        <time>2019-08-18T10:08:37Z</time>
      </trkpt>
      <trkpt lat="42.87974" lon="0.02665">
        <ele>885.9</ele>
        <time>2019-08-18T10:08:38Z</time>
      </trkpt>
      <trkpt lat="42.87976" lon="0.02668">
        <ele>886.1</ele>
        <time>2019-08-18T10:08:39Z</time>
      </trkpt>
      <trkpt lat="42.87978" lon="0.02671">
        <ele>886.3</ele>
        <time>2019-08-18T10:08:40Z</time>
      </trkpt>
      <trkpt lat="42.87981" lon="0.02673">
        <ele>886.7</ele>
        <time>2019-08-18T10:08:41Z</time>
      </trkpt>
      <trkpt lat="42.87983" lon="0.02676">
        <ele>887.1</ele>
        <time>2019-08-18T10:08:42Z</time>
      </trkpt>
      <trkpt lat="42.87985" lon="0.02678">
        <ele>887.6</ele>
        <time>2019-08-18T10:08:43Z</time>
      </trkpt>
      <trkpt lat="42.87988" lon="0.02681">
        <ele>888.1</ele>
        <time>2019-08-18T10:08:44Z</time>
      </trkpt>
      <trkpt lat="42.8799" lon="0.02684">
        <ele>888.5</ele>
        <time>2019-08-18T10:08:45Z</time>
      </trkpt>
      <trkpt lat="42.87992" lon="0.02687">
        <ele>889</ele>
        <time>2019-08-18T10:08:46Z</time>
      </trkpt>
      <trkpt lat="42.87994" lon="0.0269">
        <ele>889.5</ele>
        <time>2019-08-18T10:08:47Z</time>
      </trkpt>
      <trkpt lat="42.87997" lon="0.02692">
        <ele>890</ele>
        <time>2019-08-18T10:08:48Z</time>
      </trkpt>
      <trkpt lat="42.87999" lon="0.02695">
        <ele>890.4</ele>
        <time>2019-08-18T10:08:49Z</time>
      </trkpt>
      <trkpt lat="42.88002" lon="0.027">
        <ele>891.3</ele>
        <time>2019-08-18T10:08:51Z</time>
      </trkpt>
      <trkpt lat="42.88006" lon="0.02705">
        <ele>892.1</ele>
        <time>2019-08-18T10:08:53Z</time>
      </trkpt>
      <trkpt lat="42.88008" lon="0.02708">
        <ele>892.6</ele>
        <time>2019-08-18T10:08:54Z</time>
      </trkpt>
      <trkpt lat="42.88012" lon="0.02713">
        <ele>893.5</ele>
        <time>2019-08-18T10:08:56Z</time>
      </trkpt>
      <trkpt lat="42.88015" lon="0.02718">
        <ele>894.3</ele>
        <time>2019-08-18T10:08:58Z</time>
      </trkpt>
      <trkpt lat="42.88019" lon="0.02723">
        <ele>895.2</ele>
        <time>2019-08-18T10:09:00Z</time>
      </trkpt>
      <trkpt lat="42.88023" lon="0.02727">
        <ele>896</ele>
        <time>2019-08-18T10:09:02Z</time>
      </trkpt>
      <trkpt lat="42.88025" lon="0.0273">
        <ele>896.5</ele>
        <time>2019-08-18T10:09:03Z</time>
      </trkpt>
      <trkpt lat="42.8803" lon="0.02734">
        <ele>897.3</ele>
        <time>2019-08-18T10:09:05Z</time>
      </trkpt>
      <trkpt lat="42.88032" lon="0.02737">
        <ele>897.7</ele>
        <time>2019-08-18T10:09:06Z</time>
      </trkpt>
      <trkpt lat="42.88034" lon="0.02739">
        <ele>898.2</ele>
        <time>2019-08-18T10:09:07Z</time>
      </trkpt>
      <trkpt lat="42.88037" lon="0.02741">
        <ele>898.6</ele>
        <time>2019-08-18T10:09:08Z</time>
      </trkpt>
      <trkpt lat="42.88039" lon="0.02744">
        <ele>898.9</ele>
        <time>2019-08-18T10:09:09Z</time>
      </trkpt>
      <trkpt lat="42.88042" lon="0.02747">
        <ele>899.2</ele>
        <time>2019-08-18T10:09:10Z</time>
      </trkpt>
      <trkpt lat="42.88044" lon="0.02749">
        <ele>899.5</ele>
        <time>2019-08-18T10:09:11Z</time>
      </trkpt>
      <trkpt lat="42.88048" lon="0.02753">
        <ele>899.9</ele>
        <time>2019-08-18T10:09:13Z</time>
      </trkpt>
      <trkpt lat="42.8805" lon="0.02756">
        <ele>900.2</ele>
        <time>2019-08-18T10:09:14Z</time>
      </trkpt>
      <trkpt lat="42.88054" lon="0.02761">
        <ele>900.7</ele>
        <time>2019-08-18T10:09:16Z</time>
      </trkpt>
      <trkpt lat="42.88058" lon="0.02765">
        <ele>901.2</ele>
        <time>2019-08-18T10:09:18Z</time>
      </trkpt>
      <trkpt lat="42.88062" lon="0.0277">
        <ele>901.6</ele>
        <time>2019-08-18T10:09:20Z</time>
      </trkpt>
      <trkpt lat="42.88064" lon="0.02772">
        <ele>901.9</ele>
        <time>2019-08-18T10:09:21Z</time>
      </trkpt>
      <trkpt lat="42.88066" lon="0.02775">
        <ele>902.1</ele>
        <time>2019-08-18T10:09:22Z</time>
      </trkpt>
      <trkpt lat="42.88068" lon="0.02777">
        <ele>902.4</ele>
        <time>2019-08-18T10:09:23Z</time>
      </trkpt>
      <trkpt lat="42.88071" lon="0.0278">
        <ele>902.6</ele>
        <time>2019-08-18T10:09:24Z</time>
      </trkpt>
      <trkpt lat="42.88073" lon="0.02782">
        <ele>902.9</ele>
        <time>2019-08-18T10:09:25Z</time>
      </trkpt>
      <trkpt lat="42.88075" lon="0.02785">
        <ele>903.1</ele>
        <time>2019-08-18T10:09:26Z</time>
      </trkpt>
      <trkpt lat="42.88077" lon="0.02787">
        <ele>903.4</ele>
        <time>2019-08-18T10:09:27Z</time>
      </trkpt>
      <trkpt lat="42.88081" lon="0.02792">
        <ele>903.8</ele>
        <time>2019-08-18T10:09:29Z</time>
      </trkpt>
      <trkpt lat="42.88084" lon="0.02796">
        <ele>904.4</ele>
        <time>2019-08-18T10:09:31Z</time>
      </trkpt>
      <trkpt lat="42.88089" lon="0.02801">
        <ele>905.1</ele>
        <time>2019-08-18T10:09:33Z</time>
      </trkpt>
      <trkpt lat="42.88091" lon="0.02803">
        <ele>905.4</ele>
        <time>2019-08-18T10:09:34Z</time>
      </trkpt>
      <trkpt lat="42.88093" lon="0.02805">
        <ele>905.8</ele>
        <time>2019-08-18T10:09:35Z</time>
      </trkpt>
      <trkpt lat="42.88096" lon="0.02808">
        <ele>906.2</ele>
        <time>2019-08-18T10:09:36Z</time>
      </trkpt>
      <trkpt lat="42.88098" lon="0.0281">
        <ele>906.5</ele>
        <time>2019-08-18T10:09:37Z</time>
      </trkpt>
      <trkpt lat="42.881" lon="0.02812">
        <ele>906.9</ele>
        <time>2019-08-18T10:09:38Z</time>
      </trkpt>
      <trkpt lat="42.88102" lon="0.02815">
        <ele>907.2</ele>
        <time>2019-08-18T10:09:39Z</time>
      </trkpt>
      <trkpt lat="42.88105" lon="0.02817">
        <ele>907.6</ele>
        <time>2019-08-18T10:09:40Z</time>
      </trkpt>
      <trkpt lat="42.88107" lon="0.0282">
        <ele>908</ele>
        <time>2019-08-18T10:09:41Z</time>
      </trkpt>
      <trkpt lat="42.88109" lon="0.02822">
        <ele>908.3</ele>
        <time>2019-08-18T10:09:42Z</time>
      </trkpt>
      <trkpt lat="42.88111" lon="0.02825">
        <ele>908.7</ele>
        <time>2019-08-18T10:09:43Z</time>
      </trkpt>
      <trkpt lat="42.88113" lon="0.02827">
        <ele>909.1</ele>
        <time>2019-08-18T10:09:44Z</time>
      </trkpt>
      <trkpt lat="42.88116" lon="0.02829">
        <ele>909.5</ele>
        <time>2019-08-18T10:09:45Z</time>
      </trkpt>
      <trkpt lat="42.88118" lon="0.02832">
        <ele>909.8</ele>
        <time>2019-08-18T10:09:46Z</time>
      </trkpt>
      <trkpt lat="42.8812" lon="0.02835">
        <ele>910.3</ele>
        <time>2019-08-18T10:09:47Z</time>
      </trkpt>
      <trkpt lat="42.88123" lon="0.02837">
        <ele>910.7</ele>
        <time>2019-08-18T10:09:48Z</time>
      </trkpt>
      <trkpt lat="42.88125" lon="0.0284">
        <ele>911.1</ele>
        <time>2019-08-18T10:09:49Z</time>
      </trkpt>
      <trkpt lat="42.88127" lon="0.02842">
        <ele>911.5</ele>
        <time>2019-08-18T10:09:50Z</time>
      </trkpt>
      <trkpt lat="42.8813" lon="0.02845">
        <ele>911.9</ele>
        <time>2019-08-18T10:09:51Z</time>
      </trkpt>
      <trkpt lat="42.88132" lon="0.02847">
        <ele>912.3</ele>
        <time>2019-08-18T10:09:52Z</time>
      </trkpt>
      <trkpt lat="42.88134" lon="0.0285">
        <ele>912.6</ele>
        <time>2019-08-18T10:09:53Z</time>
      </trkpt>
      <trkpt lat="42.88136" lon="0.02852">
        <ele>913</ele>
        <time>2019-08-18T10:09:54Z</time>
      </trkpt>
      <trkpt lat="42.8814" lon="0.02857">
        <ele>913.7</ele>
        <time>2019-08-18T10:09:56Z</time>
      </trkpt>
      <trkpt lat="42.88142" lon="0.02859">
        <ele>914</ele>
        <time>2019-08-18T10:09:57Z</time>
      </trkpt>
      <trkpt lat="42.88145" lon="0.02862">
        <ele>914.4</ele>
        <time>2019-08-18T10:09:58Z</time>
      </trkpt>
      <trkpt lat="42.88147" lon="0.02864">
        <ele>914.7</ele>
        <time>2019-08-18T10:09:59Z</time>
      </trkpt>
      <trkpt lat="42.88149" lon="0.02866">
        <ele>915</ele>
        <time>2019-08-18T10:10:00Z</time>
      </trkpt>
      <trkpt lat="42.88151" lon="0.02869">
        <ele>915.2</ele>
        <time>2019-08-18T10:10:01Z</time>
      </trkpt>
      <trkpt lat="42.88153" lon="0.02871">
        <ele>915.5</ele>
        <time>2019-08-18T10:10:02Z</time>
      </trkpt>
      <trkpt lat="42.88156" lon="0.02874">
        <ele>915.7</ele>
        <time>2019-08-18T10:10:03Z</time>
      </trkpt>
      <trkpt lat="42.88158" lon="0.02876">
        <ele>915.9</ele>
        <time>2019-08-18T10:10:04Z</time>
      </trkpt>
      <trkpt lat="42.8816" lon="0.02879">
        <ele>916.1</ele>
        <time>2019-08-18T10:10:05Z</time>
      </trkpt>
      <trkpt lat="42.88162" lon="0.02881">
        <ele>916.4</ele>
        <time>2019-08-18T10:10:06Z</time>
      </trkpt>
      <trkpt lat="42.88165" lon="0.02884">
        <ele>916.6</ele>
        <time>2019-08-18T10:10:07Z</time>
      </trkpt>
      <trkpt lat="42.88169" lon="0.02888">
        <ele>917</ele>
        <time>2019-08-18T10:10:09Z</time>
      </trkpt>
      <trkpt lat="42.88171" lon="0.0289">
        <ele>917.2</ele>
        <time>2019-08-18T10:10:10Z</time>
      </trkpt>
      <trkpt lat="42.88173" lon="0.02893">
        <ele>917.5</ele>
        <time>2019-08-18T10:10:11Z</time>
      </trkpt>
      <trkpt lat="42.88176" lon="0.02895">
        <ele>917.8</ele>
        <time>2019-08-18T10:10:12Z</time>
      </trkpt>
      <trkpt lat="42.88178" lon="0.02897">
        <ele>918.1</ele>
        <time>2019-08-18T10:10:13Z</time>
      </trkpt>
      <trkpt lat="42.88182" lon="0.02902">
        <ele>918.6</ele>
        <time>2019-08-18T10:10:15Z</time>
      </trkpt>
      <trkpt lat="42.88184" lon="0.02904">
        <ele>918.9</ele>
        <time>2019-08-18T10:10:16Z</time>
      </trkpt>
      <trkpt lat="42.88187" lon="0.02907">
        <ele>919.2</ele>
        <time>2019-08-18T10:10:17Z</time>
      </trkpt>
      <trkpt lat="42.88189" lon="0.02909">
        <ele>919.4</ele>
        <time>2019-08-18T10:10:18Z</time>
      </trkpt>
      <trkpt lat="42.88191" lon="0.02911">
        <ele>919.6</ele>
        <time>2019-08-18T10:10:19Z</time>
      </trkpt>
      <trkpt lat="42.88193" lon="0.02913">
        <ele>919.8</ele>
        <time>2019-08-18T10:10:20Z</time>
      </trkpt>
      <trkpt lat="42.88197" lon="0.02918">
        <ele>920.2</ele>
        <time>2019-08-18T10:10:22Z</time>
      </trkpt>
      <trkpt lat="42.882" lon="0.02921">
        <ele>920.4</ele>
        <time>2019-08-18T10:10:23Z</time>
      </trkpt>
      <trkpt lat="42.88202" lon="0.02923">
        <ele>920.6</ele>
        <time>2019-08-18T10:10:24Z</time>
      </trkpt>
      <trkpt lat="42.88204" lon="0.02925">
        <ele>920.8</ele>
        <time>2019-08-18T10:10:25Z</time>
      </trkpt>
      <trkpt lat="42.88206" lon="0.02927">
        <ele>921</ele>
        <time>2019-08-18T10:10:26Z</time>
      </trkpt>
      <trkpt lat="42.8821" lon="0.02932">
        <ele>921.4</ele>
        <time>2019-08-18T10:10:28Z</time>
      </trkpt>
      <trkpt lat="42.88213" lon="0.02934">
        <ele>921.6</ele>
        <time>2019-08-18T10:10:29Z</time>
      </trkpt>
      <trkpt lat="42.88217" lon="0.02939">
        <ele>922</ele>
        <time>2019-08-18T10:10:31Z</time>
      </trkpt>
      <trkpt lat="42.88219" lon="0.02941">
        <ele>922.3</ele>
        <time>2019-08-18T10:10:32Z</time>
      </trkpt>
      <trkpt lat="42.88222" lon="0.02944">
        <ele>922.5</ele>
        <time>2019-08-18T10:10:33Z</time>
      </trkpt>
      <trkpt lat="42.88224" lon="0.02946">
        <ele>922.7</ele>
        <time>2019-08-18T10:10:34Z</time>
      </trkpt>
      <trkpt lat="42.88226" lon="0.02949">
        <ele>922.9</ele>
        <time>2019-08-18T10:10:35Z</time>
      </trkpt>
      <trkpt lat="42.8823" lon="0.02953">
        <ele>923.3</ele>
        <time>2019-08-18T10:10:37Z</time>
      </trkpt>
      <trkpt lat="42.88234" lon="0.02957">
        <ele>923.7</ele>
        <time>2019-08-18T10:10:39Z</time>
      </trkpt>
      <trkpt lat="42.88238" lon="0.02962">
        <ele>924.1</ele>
        <time>2019-08-18T10:10:41Z</time>
      </trkpt>
      <trkpt lat="42.8824" lon="0.02964">
        <ele>924.3</ele>
        <time>2019-08-18T10:10:42Z</time>
      </trkpt>
      <trkpt lat="42.88242" lon="0.02967">
        <ele>924.5</ele>
        <time>2019-08-18T10:10:43Z</time>
      </trkpt>
      <trkpt lat="42.88246" lon="0.02971">
        <ele>924.9</ele>
        <time>2019-08-18T10:10:45Z</time>
      </trkpt>
      <trkpt lat="42.8825" lon="0.02976">
        <ele>925.4</ele>
        <time>2019-08-18T10:10:47Z</time>
      </trkpt>
      <trkpt lat="42.88254" lon="0.02981">
        <ele>925.8</ele>
        <time>2019-08-18T10:10:49Z</time>
      </trkpt>
      <trkpt lat="42.88256" lon="0.02984">
        <ele>926</ele>
        <time>2019-08-18T10:10:50Z</time>
      </trkpt>
      <trkpt lat="42.88258" lon="0.02986">
        <ele>926.3</ele>
        <time>2019-08-18T10:10:51Z</time>
      </trkpt>
      <trkpt lat="42.8826" lon="0.02989">
        <ele>926.5</ele>
        <time>2019-08-18T10:10:52Z</time>
      </trkpt>
      <trkpt lat="42.88262" lon="0.02991">
        <ele>926.8</ele>
        <time>2019-08-18T10:10:53Z</time>
      </trkpt>
      <trkpt lat="42.88265" lon="0.02994">
        <ele>927</ele>
        <time>2019-08-18T10:10:54Z</time>
      </trkpt>
      <trkpt lat="42.88267" lon="0.02997">
        <ele>927.3</ele>
        <time>2019-08-18T10:10:55Z</time>
      </trkpt>
      <trkpt lat="42.88269" lon="0.03">
        <ele>927.5</ele>
        <time>2019-08-18T10:10:56Z</time>
      </trkpt>
      <trkpt lat="42.88271" lon="0.03002">
        <ele>927.8</ele>
        <time>2019-08-18T10:10:57Z</time>
      </trkpt>
      <trkpt lat="42.88273" lon="0.03004">
        <ele>928</ele>
        <time>2019-08-18T10:10:58Z</time>
      </trkpt>
      <trkpt lat="42.88277" lon="0.03009">
        <ele>928.5</ele>
        <time>2019-08-18T10:11:00Z</time>
      </trkpt>
      <trkpt lat="42.88281" lon="0.03013">
        <ele>928.9</ele>
        <time>2019-08-18T10:11:02Z</time>
      </trkpt>
      <trkpt lat="42.88284" lon="0.03018">
        <ele>929.4</ele>
        <time>2019-08-18T10:11:04Z</time>
      </trkpt>
      <trkpt lat="42.88288" lon="0.03022">
        <ele>929.8</ele>
        <time>2019-08-18T10:11:06Z</time>
      </trkpt>
      <trkpt lat="42.88292" lon="0.03026">
        <ele>930.3</ele>
        <time>2019-08-18T10:11:08Z</time>
      </trkpt>
      <trkpt lat="42.88296" lon="0.03031">
        <ele>930.8</ele>
        <time>2019-08-18T10:11:10Z</time>
      </trkpt>
      <trkpt lat="42.883" lon="0.03035">
        <ele>931.3</ele>
        <time>2019-08-18T10:11:12Z</time>
      </trkpt>
      <trkpt lat="42.88304" lon="0.0304">
        <ele>931.8</ele>
        <time>2019-08-18T10:11:14Z</time>
      </trkpt>
      <trkpt lat="42.88307" lon="0.03045">
        <ele>932.2</ele>
        <time>2019-08-18T10:11:16Z</time>
      </trkpt>
      <trkpt lat="42.88308" lon="0.03048">
        <ele>932.5</ele>
        <time>2019-08-18T10:11:17Z</time>
      </trkpt>
      <trkpt lat="42.8831" lon="0.03051">
        <ele>932.8</ele>
        <time>2019-08-18T10:11:18Z</time>
      </trkpt>
      <trkpt lat="42.88313" lon="0.03057">
        <ele>933.3</ele>
        <time>2019-08-18T10:11:20Z</time>
      </trkpt>
      <trkpt lat="42.88315" lon="0.0306">
        <ele>933.6</ele>
        <time>2019-08-18T10:11:21Z</time>
      </trkpt>
      <trkpt lat="42.88316" lon="0.03064">
        <ele>933.9</ele>
        <time>2019-08-18T10:11:22Z</time>
      </trkpt>
      <trkpt lat="42.88319" lon="0.0307">
        <ele>934.4</ele>
        <time>2019-08-18T10:11:24Z</time>
      </trkpt>
      <trkpt lat="42.8832" lon="0.03073">
        <ele>934.7</ele>
        <time>2019-08-18T10:11:25Z</time>
      </trkpt>
      <trkpt lat="42.88322" lon="0.0308">
        <ele>935.3</ele>
        <time>2019-08-18T10:11:27Z</time>
      </trkpt>
      <trkpt lat="42.88324" lon="0.03086">
        <ele>935.8</ele>
        <time>2019-08-18T10:11:29Z</time>
      </trkpt>
      <trkpt lat="42.88324" lon="0.03093">
        <ele>936.3</ele>
        <time>2019-08-18T10:11:31Z</time>
      </trkpt>
      <trkpt lat="42.88325" lon="0.03099">
        <ele>936.7</ele>
        <time>2019-08-18T10:11:33Z</time>
      </trkpt>
      <trkpt lat="42.88326" lon="0.03105">
        <ele>937.2</ele>
        <time>2019-08-18T10:11:35Z</time>
      </trkpt>
      <trkpt lat="42.88326" lon="0.03108">
        <ele>937.5</ele>
        <time>2019-08-18T10:11:36Z</time>
      </trkpt>
      <trkpt lat="42.88328" lon="0.03115">
        <ele>938</ele>
        <time>2019-08-18T10:11:38Z</time>
      </trkpt>
      <trkpt lat="42.88329" lon="0.03119">
        <ele>938.3</ele>
        <time>2019-08-18T10:11:39Z</time>
      </trkpt>
      <trkpt lat="42.8833" lon="0.03126">
        <ele>938.9</ele>
        <time>2019-08-18T10:11:41Z</time>
      </trkpt>
      <trkpt lat="42.8833" lon="0.0313">
        <ele>939.2</ele>
        <time>2019-08-18T10:11:42Z</time>
      </trkpt>
      <trkpt lat="42.88331" lon="0.03134">
        <ele>939.5</ele>
        <time>2019-08-18T10:11:43Z</time>
      </trkpt>
      <trkpt lat="42.88331" lon="0.03141">
        <ele>940</ele>
        <time>2019-08-18T10:11:45Z</time>
      </trkpt>
      <trkpt lat="42.8833" lon="0.03148">
        <ele>940.6</ele>
        <time>2019-08-18T10:11:47Z</time>
      </trkpt>
      <trkpt lat="42.88329" lon="0.03155">
        <ele>941.1</ele>
        <time>2019-08-18T10:11:49Z</time>
      </trkpt>
      <trkpt lat="42.88329" lon="0.03162">
        <ele>941.7</ele>
        <time>2019-08-18T10:11:51Z</time>
      </trkpt>
      <trkpt lat="42.88328" lon="0.03168">
        <ele>942.2</ele>
        <time>2019-08-18T10:11:53Z</time>
      </trkpt>
      <trkpt lat="42.88326" lon="0.03173">
        <ele>942.6</ele>
        <time>2019-08-18T10:11:55Z</time>
      </trkpt>
      <trkpt lat="42.88325" lon="0.03177">
        <ele>942.9</ele>
        <time>2019-08-18T10:11:56Z</time>
      </trkpt>
      <trkpt lat="42.88324" lon="0.0318">
        <ele>943.2</ele>
        <time>2019-08-18T10:11:57Z</time>
      </trkpt>
      <trkpt lat="42.88322" lon="0.03183">
        <ele>943.5</ele>
        <time>2019-08-18T10:11:58Z</time>
      </trkpt>
      <trkpt lat="42.8832" lon="0.0319">
        <ele>944</ele>
        <time>2019-08-18T10:12:00Z</time>
      </trkpt>
      <trkpt lat="42.88319" lon="0.03194">
        <ele>944.2</ele>
        <time>2019-08-18T10:12:01Z</time>
      </trkpt>
      <trkpt lat="42.88318" lon="0.03197">
        <ele>944.5</ele>
        <time>2019-08-18T10:12:02Z</time>
      </trkpt>
      <trkpt lat="42.88316" lon="0.03203">
        <ele>945</ele>
        <time>2019-08-18T10:12:04Z</time>
      </trkpt>
      <trkpt lat="42.88315" lon="0.03206">
        <ele>945.3</ele>
        <time>2019-08-18T10:12:05Z</time>
      </trkpt>
      <trkpt lat="42.88312" lon="0.03212">
        <ele>945.8</ele>
        <time>2019-08-18T10:12:07Z</time>
      </trkpt>
      <trkpt lat="42.88309" lon="0.03218">
        <ele>946.2</ele>
        <time>2019-08-18T10:12:09Z</time>
      </trkpt>
      <trkpt lat="42.88307" lon="0.03221">
        <ele>946.5</ele>
        <time>2019-08-18T10:12:10Z</time>
      </trkpt>
      <trkpt lat="42.88306" lon="0.03224">
        <ele>946.8</ele>
        <time>2019-08-18T10:12:11Z</time>
      </trkpt>
      <trkpt lat="42.88304" lon="0.03227">
        <ele>947</ele>
        <time>2019-08-18T10:12:12Z</time>
      </trkpt>
      <trkpt lat="42.88302" lon="0.03234">
        <ele>947.5</ele>
        <time>2019-08-18T10:12:14Z</time>
      </trkpt>
      <trkpt lat="42.883" lon="0.0324">
        <ele>948</ele>
        <time>2019-08-18T10:12:16Z</time>
      </trkpt>
      <trkpt lat="42.88298" lon="0.03246">
        <ele>948.4</ele>
        <time>2019-08-18T10:12:18Z</time>
      </trkpt>
      <trkpt lat="42.88297" lon="0.0325">
        <ele>948.6</ele>
        <time>2019-08-18T10:12:19Z</time>
      </trkpt>
      <trkpt lat="42.88296" lon="0.03257">
        <ele>949.1</ele>
        <time>2019-08-18T10:12:21Z</time>
      </trkpt>
      <trkpt lat="42.88296" lon="0.03263">
        <ele>949.5</ele>
        <time>2019-08-18T10:12:23Z</time>
      </trkpt>
      <trkpt lat="42.88295" lon="0.0327">
        <ele>949.9</ele>
        <time>2019-08-18T10:12:25Z</time>
      </trkpt>
      <trkpt lat="42.88295" lon="0.03277">
        <ele>950.4</ele>
        <time>2019-08-18T10:12:27Z</time>
      </trkpt>
      <trkpt lat="42.88294" lon="0.03283">
        <ele>950.7</ele>
        <time>2019-08-18T10:12:29Z</time>
      </trkpt>
      <trkpt lat="42.88294" lon="0.03289">
        <ele>951</ele>
        <time>2019-08-18T10:12:31Z</time>
      </trkpt>
      <trkpt lat="42.88295" lon="0.03296">
        <ele>951.5</ele>
        <time>2019-08-18T10:12:33Z</time>
      </trkpt>
      <trkpt lat="42.88296" lon="0.03302">
        <ele>951.8</ele>
        <time>2019-08-18T10:12:35Z</time>
      </trkpt>
      <trkpt lat="42.88295" lon="0.0331">
        <ele>952.3</ele>
        <time>2019-08-18T10:12:37Z</time>
      </trkpt>
      <trkpt lat="42.88296" lon="0.03317">
        <ele>952.7</ele>
        <time>2019-08-18T10:12:39Z</time>
      </trkpt>
      <trkpt lat="42.88296" lon="0.03321">
        <ele>952.9</ele>
        <time>2019-08-18T10:12:40Z</time>
      </trkpt>
      <trkpt lat="42.88297" lon="0.03324">
        <ele>953.1</ele>
        <time>2019-08-18T10:12:41Z</time>
      </trkpt>
      <trkpt lat="42.88296" lon="0.03331">
        <ele>953.5</ele>
        <time>2019-08-18T10:12:43Z</time>
      </trkpt>
      <trkpt lat="42.88295" lon="0.03339">
        <ele>953.9</ele>
        <time>2019-08-18T10:12:45Z</time>
      </trkpt>
      <trkpt lat="42.88296" lon="0.03343">
        <ele>954.1</ele>
        <time>2019-08-18T10:12:46Z</time>
      </trkpt>
      <trkpt lat="42.88297" lon="0.03347">
        <ele>954.4</ele>
        <time>2019-08-18T10:12:47Z</time>
      </trkpt>
      <trkpt lat="42.88298" lon="0.03351">
        <ele>954.6</ele>
        <time>2019-08-18T10:12:48Z</time>
      </trkpt>
      <trkpt lat="42.883" lon="0.03354">
        <ele>954.8</ele>
        <time>2019-08-18T10:12:49Z</time>
      </trkpt>
      <trkpt lat="42.88301" lon="0.03361">
        <ele>955.2</ele>
        <time>2019-08-18T10:12:51Z</time>
      </trkpt>
      <trkpt lat="42.883" lon="0.03368">
        <ele>955.5</ele>
        <time>2019-08-18T10:12:53Z</time>
      </trkpt>
      <trkpt lat="42.883" lon="0.03375">
        <ele>955.9</ele>
        <time>2019-08-18T10:12:55Z</time>
      </trkpt>
      <trkpt lat="42.883" lon="0.03382">
        <ele>956.2</ele>
        <time>2019-08-18T10:12:57Z</time>
      </trkpt>
      <trkpt lat="42.88301" lon="0.03389">
        <ele>956.6</ele>
        <time>2019-08-18T10:12:59Z</time>
      </trkpt>
      <trkpt lat="42.88301" lon="0.03396">
        <ele>956.9</ele>
        <time>2019-08-18T10:13:01Z</time>
      </trkpt>
      <trkpt lat="42.88302" lon="0.03403">
        <ele>957.2</ele>
        <time>2019-08-18T10:13:03Z</time>
      </trkpt>
      <trkpt lat="42.88302" lon="0.0341">
        <ele>957.6</ele>
        <time>2019-08-18T10:13:05Z</time>
      </trkpt>
      <trkpt lat="42.88302" lon="0.03416">
        <ele>957.9</ele>
        <time>2019-08-18T10:13:07Z</time>
      </trkpt>
      <trkpt lat="42.88302" lon="0.03422">
        <ele>958.2</ele>
        <time>2019-08-18T10:13:09Z</time>
      </trkpt>
      <trkpt lat="42.88301" lon="0.03429">
        <ele>958.5</ele>
        <time>2019-08-18T10:13:11Z</time>
      </trkpt>
      <trkpt lat="42.88301" lon="0.03435">
        <ele>958.8</ele>
        <time>2019-08-18T10:13:13Z</time>
      </trkpt>
      <trkpt lat="42.88302" lon="0.03442">
        <ele>959.1</ele>
        <time>2019-08-18T10:13:15Z</time>
      </trkpt>
      <trkpt lat="42.88303" lon="0.03448">
        <ele>959.4</ele>
        <time>2019-08-18T10:13:17Z</time>
      </trkpt>
      <trkpt lat="42.88302" lon="0.03455">
        <ele>959.7</ele>
        <time>2019-08-18T10:13:19Z</time>
      </trkpt>
      <trkpt lat="42.883" lon="0.03461">
        <ele>960.1</ele>
        <time>2019-08-18T10:13:21Z</time>
      </trkpt>
      <trkpt lat="42.88299" lon="0.03464">
        <ele>960.2</ele>
        <time>2019-08-18T10:13:22Z</time>
      </trkpt>
      <trkpt lat="42.88298" lon="0.03468">
        <ele>960.4</ele>
        <time>2019-08-18T10:13:23Z</time>
      </trkpt>
      <trkpt lat="42.88296" lon="0.03475">
        <ele>960.8</ele>
        <time>2019-08-18T10:13:25Z</time>
      </trkpt>
      <trkpt lat="42.88295" lon="0.03478">
        <ele>961</ele>
        <time>2019-08-18T10:13:26Z</time>
      </trkpt>
      <trkpt lat="42.88293" lon="0.03482">
        <ele>961.2</ele>
        <time>2019-08-18T10:13:27Z</time>
      </trkpt>
      <trkpt lat="42.88292" lon="0.03485">
        <ele>961.4</ele>
        <time>2019-08-18T10:13:28Z</time>
      </trkpt>
      <trkpt lat="42.8829" lon="0.03488">
        <ele>961.5</ele>
        <time>2019-08-18T10:13:29Z</time>
      </trkpt>
      <trkpt lat="42.88287" lon="0.03493">
        <ele>961.9</ele>
        <time>2019-08-18T10:13:31Z</time>
      </trkpt>
      <trkpt lat="42.88284" lon="0.03499">
        <ele>962.2</ele>
        <time>2019-08-18T10:13:33Z</time>
      </trkpt>
      <trkpt lat="42.88281" lon="0.03505">
        <ele>962.6</ele>
        <time>2019-08-18T10:13:35Z</time>
      </trkpt>
      <trkpt lat="42.88279" lon="0.03512">
        <ele>962.9</ele>
        <time>2019-08-18T10:13:37Z</time>
      </trkpt>
      <trkpt lat="42.88277" lon="0.03518">
        <ele>963.2</ele>
        <time>2019-08-18T10:13:39Z</time>
      </trkpt>
      <trkpt lat="42.88275" lon="0.03524">
        <ele>963.6</ele>
        <time>2019-08-18T10:13:41Z</time>
      </trkpt>
      <trkpt lat="42.88274" lon="0.0353">
        <ele>963.9</ele>
        <time>2019-08-18T10:13:43Z</time>
      </trkpt>
      <trkpt lat="42.88273" lon="0.03536">
        <ele>964.2</ele>
        <time>2019-08-18T10:13:45Z</time>
      </trkpt>
      <trkpt lat="42.88271" lon="0.03543">
        <ele>964.5</ele>
        <time>2019-08-18T10:13:47Z</time>
      </trkpt>
      <trkpt lat="42.8827" lon="0.03549">
        <ele>964.8</ele>
        <time>2019-08-18T10:13:49Z</time>
      </trkpt>
      <trkpt lat="42.88269" lon="0.03553">
        <ele>965</ele>
        <time>2019-08-18T10:13:50Z</time>
      </trkpt>
      <trkpt lat="42.88268" lon="0.03557">
        <ele>965.2</ele>
        <time>2019-08-18T10:13:51Z</time>
      </trkpt>
      <trkpt lat="42.88267" lon="0.0356">
        <ele>965.4</ele>
        <time>2019-08-18T10:13:52Z</time>
      </trkpt>
      <trkpt lat="42.88266" lon="0.03566">
        <ele>965.7</ele>
        <time>2019-08-18T10:13:54Z</time>
      </trkpt>
      <trkpt lat="42.88266" lon="0.03572">
        <ele>966</ele>
        <time>2019-08-18T10:13:56Z</time>
      </trkpt>
      <trkpt lat="42.88267" lon="0.03578">
        <ele>966.2</ele>
        <time>2019-08-18T10:13:58Z</time>
      </trkpt>
      <trkpt lat="42.88268" lon="0.03584">
        <ele>966.5</ele>
        <time>2019-08-18T10:14:00Z</time>
      </trkpt>
      <trkpt lat="42.88268" lon="0.0359">
        <ele>966.8</ele>
        <time>2019-08-18T10:14:02Z</time>
      </trkpt>
      <trkpt lat="42.88268" lon="0.03595">
        <ele>967</ele>
        <time>2019-08-18T10:14:04Z</time>
      </trkpt>
      <trkpt lat="42.88268" lon="0.03599">
        <ele>967.2</ele>
        <time>2019-08-18T10:14:06Z</time>
      </trkpt>
      <trkpt lat="42.88268" lon="0.03604">
        <ele>967.4</ele>
        <time>2019-08-18T10:14:08Z</time>
      </trkpt>
      <trkpt lat="42.88266" lon="0.0361">
        <ele>967.7</ele>
        <time>2019-08-18T10:14:10Z</time>
      </trkpt>
      <trkpt lat="42.88265" lon="0.03615">
        <ele>967.9</ele>
        <time>2019-08-18T10:14:12Z</time>
      </trkpt>
      <trkpt lat="42.88265" lon="0.03621">
        <ele>968.1</ele>
        <time>2019-08-18T10:14:14Z</time>
      </trkpt>
      <trkpt lat="42.88266" lon="0.03627">
        <ele>968.4</ele>
        <time>2019-08-18T10:14:16Z</time>
      </trkpt>
      <trkpt lat="42.88266" lon="0.03633">
        <ele>968.6</ele>
        <time>2019-08-18T10:14:18Z</time>
      </trkpt>
      <trkpt lat="42.88265" lon="0.0364">
        <ele>968.9</ele>
        <time>2019-08-18T10:14:20Z</time>
      </trkpt>
      <trkpt lat="42.88264" lon="0.03645">
        <ele>969.1</ele>
        <time>2019-08-18T10:14:22Z</time>
      </trkpt>
      <trkpt lat="42.88264" lon="0.0365">
        <ele>969.3</ele>
        <time>2019-08-18T10:14:24Z</time>
      </trkpt>
      <trkpt lat="42.88264" lon="0.03655">
        <ele>969.5</ele>
        <time>2019-08-18T10:14:26Z</time>
      </trkpt>
      <trkpt lat="42.88265" lon="0.03661">
        <ele>969.7</ele>
        <time>2019-08-18T10:14:28Z</time>
      </trkpt>
      <trkpt lat="42.88264" lon="0.03666">
        <ele>969.9</ele>
        <time>2019-08-18T10:14:30Z</time>
      </trkpt>
      <trkpt lat="42.88264" lon="0.03671">
        <ele>970.2</ele>
        <time>2019-08-18T10:14:32Z</time>
      </trkpt>
      <trkpt lat="42.88264" lon="0.03676">
        <ele>970.4</ele>
        <time>2019-08-18T10:14:34Z</time>
      </trkpt>
      <trkpt lat="42.88264" lon="0.03681">
        <ele>970.5</ele>
        <time>2019-08-18T10:14:36Z</time>
      </trkpt>
      <trkpt lat="42.88265" lon="0.03687">
        <ele>970.8</ele>
        <time>2019-08-18T10:14:38Z</time>
      </trkpt>
      <trkpt lat="42.88265" lon="0.03693">
        <ele>971</ele>
        <time>2019-08-18T10:14:40Z</time>
      </trkpt>
      <trkpt lat="42.88265" lon="0.03698">
        <ele>971.2</ele>
        <time>2019-08-18T10:14:42Z</time>
      </trkpt>
      <trkpt lat="42.88265" lon="0.03704">
        <ele>971.4</ele>
        <time>2019-08-18T10:14:44Z</time>
      </trkpt>
      <trkpt lat="42.88267" lon="0.03708">
        <ele>971.6</ele>
        <time>2019-08-18T10:14:46Z</time>
      </trkpt>
      <trkpt lat="42.88268" lon="0.03715">
        <ele>971.8</ele>
        <time>2019-08-18T10:14:48Z</time>
      </trkpt>
      <trkpt lat="42.88269" lon="0.0372">
        <ele>972.1</ele>
        <time>2019-08-18T10:14:50Z</time>
      </trkpt>
      <trkpt lat="42.8827" lon="0.03726">
        <ele>972.3</ele>
        <time>2019-08-18T10:14:52Z</time>
      </trkpt>
      <trkpt lat="42.88271" lon="0.03731">
        <ele>972.5</ele>
        <time>2019-08-18T10:14:54Z</time>
      </trkpt>
      <trkpt lat="42.88272" lon="0.03737">
        <ele>972.7</ele>
        <time>2019-08-18T10:14:56Z</time>
      </trkpt>
      <trkpt lat="42.88273" lon="0.03742">
        <ele>973</ele>
        <time>2019-08-18T10:14:58Z</time>
      </trkpt>
      <trkpt lat="42.88275" lon="0.03748">
        <ele>973.2</ele>
        <time>2019-08-18T10:15:00Z</time>
      </trkpt>
      <trkpt lat="42.88276" lon="0.03753">
        <ele>973.4</ele>
        <time>2019-08-18T10:15:02Z</time>
      </trkpt>
      <trkpt lat="42.88277" lon="0.03758">
        <ele>973.6</ele>
        <time>2019-08-18T10:15:04Z</time>
      </trkpt>
      <trkpt lat="42.88278" lon="0.03763">
        <ele>973.8</ele>
        <time>2019-08-18T10:15:06Z</time>
      </trkpt>
      <trkpt lat="42.88279" lon="0.03768">
        <ele>974</ele>
        <time>2019-08-18T10:15:08Z</time>
      </trkpt>
      <trkpt lat="42.8828" lon="0.03773">
        <ele>974.1</ele>
        <time>2019-08-18T10:15:10Z</time>
      </trkpt>
      <trkpt lat="42.88281" lon="0.03778">
        <ele>974.3</ele>
        <time>2019-08-18T10:15:12Z</time>
      </trkpt>
      <trkpt lat="42.88283" lon="0.03783">
        <ele>974.5</ele>
        <time>2019-08-18T10:15:14Z</time>
      </trkpt>
      <trkpt lat="42.88285" lon="0.03788">
        <ele>974.8</ele>
        <time>2019-08-18T10:15:16Z</time>
      </trkpt>
      <trkpt lat="42.88287" lon="0.03794">
        <ele>975.2</ele>
        <time>2019-08-18T10:15:18Z</time>
      </trkpt>
      <trkpt lat="42.8829" lon="0.03799">
        <ele>975.7</ele>
        <time>2019-08-18T10:15:20Z</time>
      </trkpt>
      <trkpt lat="42.88292" lon="0.03804">
        <ele>976.2</ele>
        <time>2019-08-18T10:15:22Z</time>
      </trkpt>
      <trkpt lat="42.88295" lon="0.03809">
        <ele>976.7</ele>
        <time>2019-08-18T10:15:24Z</time>
      </trkpt>
      <trkpt lat="42.88297" lon="0.03815">
        <ele>977.1</ele>
        <time>2019-08-18T10:15:26Z</time>
      </trkpt>
      <trkpt lat="42.88299" lon="0.0382">
        <ele>977.6</ele>
        <time>2019-08-18T10:15:28Z</time>
      </trkpt>
      <trkpt lat="42.88301" lon="0.03825">
        <ele>977.9</ele>
        <time>2019-08-18T10:15:30Z</time>
      </trkpt>
      <trkpt lat="42.88304" lon="0.03831">
        <ele>978.2</ele>
        <time>2019-08-18T10:15:32Z</time>
      </trkpt>
      <trkpt lat="42.88306" lon="0.03837">
        <ele>978.5</ele>
        <time>2019-08-18T10:15:34Z</time>
      </trkpt>
      <trkpt lat="42.88309" lon="0.03842">
        <ele>978.8</ele>
        <time>2019-08-18T10:15:36Z</time>
      </trkpt>
      <trkpt lat="42.88311" lon="0.03847">
        <ele>979.1</ele>
        <time>2019-08-18T10:15:38Z</time>
      </trkpt>
      <trkpt lat="42.88313" lon="0.03852">
        <ele>979.3</ele>
        <time>2019-08-18T10:15:40Z</time>
      </trkpt>
      <trkpt lat="42.88314" lon="0.03857">
        <ele>979.6</ele>
        <time>2019-08-18T10:15:42Z</time>
      </trkpt>
      <trkpt lat="42.88316" lon="0.03863">
        <ele>979.8</ele>
        <time>2019-08-18T10:15:44Z</time>
      </trkpt>
      <trkpt lat="42.88318" lon="0.03867">
        <ele>980</ele>
        <time>2019-08-18T10:15:46Z</time>
      </trkpt>
      <trkpt lat="42.88321" lon="0.03872">
        <ele>980.2</ele>
        <time>2019-08-18T10:15:48Z</time>
      </trkpt>
      <trkpt lat="42.88323" lon="0.03877">
        <ele>980.4</ele>
        <time>2019-08-18T10:15:50Z</time>
      </trkpt>
      <trkpt lat="42.88325" lon="0.03882">
        <ele>980.6</ele>
        <time>2019-08-18T10:15:52Z</time>
      </trkpt>
      <trkpt lat="42.88328" lon="0.03887">
        <ele>980.7</ele>
        <time>2019-08-18T10:15:54Z</time>
      </trkpt>
      <trkpt lat="42.8833" lon="0.03891">
        <ele>980.9</ele>
        <time>2019-08-18T10:15:56Z</time>
      </trkpt>
      <trkpt lat="42.88333" lon="0.03896">
        <ele>981.2</ele>
        <time>2019-08-18T10:15:58Z</time>
      </trkpt>
      <trkpt lat="42.88335" lon="0.03902">
        <ele>981.4</ele>
        <time>2019-08-18T10:16:00Z</time>
      </trkpt>
      <trkpt lat="42.88337" lon="0.03907">
        <ele>981.5</ele>
        <time>2019-08-18T10:16:02Z</time>
      </trkpt>
      <trkpt lat="42.88339" lon="0.03912">
        <ele>981.6</ele>
        <time>2019-08-18T10:16:04Z</time>
      </trkpt>
      <trkpt lat="42.8834" lon="0.03918">
        <ele>981.8</ele>
        <time>2019-08-18T10:16:06Z</time>
      </trkpt>
      <trkpt lat="42.88342" lon="0.03924">
        <ele>981.9</ele>
        <time>2019-08-18T10:16:08Z</time>
      </trkpt>
      <trkpt lat="42.88344" lon="0.0393">
        <ele>982</ele>
        <time>2019-08-18T10:16:10Z</time>
      </trkpt>
      <trkpt lat="42.88346" lon="0.03935">
        <ele>982.2</ele>
        <time>2019-08-18T10:16:12Z</time>
      </trkpt>
      <trkpt lat="42.88348" lon="0.03941">
        <ele>982.7</ele>
        <time>2019-08-18T10:16:14Z</time>
      </trkpt>
      <trkpt lat="42.8835" lon="0.03946">
        <ele>983.3</ele>
        <time>2019-08-18T10:16:16Z</time>
      </trkpt>
      <trkpt lat="42.88352" lon="0.03951">
        <ele>983.8</ele>
        <time>2019-08-18T10:16:18Z</time>
      </trkpt>
      <trkpt lat="42.88355" lon="0.03955">
        <ele>984.4</ele>
        <time>2019-08-18T10:16:20Z</time>
      </trkpt>
      <trkpt lat="42.88357" lon="0.0396">
        <ele>985</ele>
        <time>2019-08-18T10:16:22Z</time>
      </trkpt>
      <trkpt lat="42.88359" lon="0.03966">
        <ele>985.7</ele>
        <time>2019-08-18T10:16:24Z</time>
      </trkpt>
      <trkpt lat="42.88361" lon="0.03971">
        <ele>986.3</ele>
        <time>2019-08-18T10:16:26Z</time>
      </trkpt>
      <trkpt lat="42.88363" lon="0.03977">
        <ele>987</ele>
        <time>2019-08-18T10:16:28Z</time>
      </trkpt>
      <trkpt lat="42.88365" lon="0.03983">
        <ele>987.7</ele>
        <time>2019-08-18T10:16:30Z</time>
      </trkpt>
      <trkpt lat="42.88367" lon="0.03986">
        <ele>988.2</ele>
        <time>2019-08-18T10:16:31Z</time>
      </trkpt>
      <trkpt lat="42.88369" lon="0.03993">
        <ele>989</ele>
        <time>2019-08-18T10:16:33Z</time>
      </trkpt>
      <trkpt lat="42.88371" lon="0.03999">
        <ele>989.6</ele>
        <time>2019-08-18T10:16:35Z</time>
      </trkpt>
      <trkpt lat="42.88373" lon="0.04005">
        <ele>990.2</ele>
        <time>2019-08-18T10:16:37Z</time>
      </trkpt>
      <trkpt lat="42.88373" lon="0.04011">
        <ele>990.8</ele>
        <time>2019-08-18T10:16:39Z</time>
      </trkpt>
      <trkpt lat="42.88373" lon="0.04017">
        <ele>991</ele>
        <time>2019-08-18T10:16:41Z</time>
      </trkpt>
      <trkpt lat="42.88372" lon="0.04023">
        <ele>991.1</ele>
        <time>2019-08-18T10:16:43Z</time>
      </trkpt>
      <trkpt lat="42.88369" lon="0.04029">
        <ele>991.4</ele>
        <time>2019-08-18T10:16:45Z</time>
      </trkpt>
      <trkpt lat="42.88366" lon="0.04031">
        <ele>991.5</ele>
        <time>2019-08-18T10:16:46Z</time>
      </trkpt>
      <trkpt lat="42.88364" lon="0.04032">
        <ele>991.6</ele>
        <time>2019-08-18T10:16:47Z</time>
      </trkpt>
      <trkpt lat="42.88361" lon="0.04033">
        <ele>991.7</ele>
        <time>2019-08-18T10:16:48Z</time>
      </trkpt>
      <trkpt lat="42.88358" lon="0.04034">
        <ele>991.7</ele>
        <time>2019-08-18T10:16:49Z</time>
      </trkpt>
      <trkpt lat="42.88355" lon="0.04033">
        <ele>991.8</ele>
        <time>2019-08-18T10:16:50Z</time>
      </trkpt>
      <trkpt lat="42.88351" lon="0.04029">
        <ele>992</ele>
        <time>2019-08-18T10:16:52Z</time>
      </trkpt>
      <trkpt lat="42.88347" lon="0.04024">
        <ele>992.2</ele>
        <time>2019-08-18T10:16:54Z</time>
      </trkpt>
      <trkpt lat="42.88344" lon="0.04018">
        <ele>992.5</ele>
        <time>2019-08-18T10:16:56Z</time>
      </trkpt>
      <trkpt lat="42.88343" lon="0.04015">
        <ele>992.6</ele>
        <time>2019-08-18T10:16:57Z</time>
      </trkpt>
      <trkpt lat="42.8834" lon="0.04009">
        <ele>992.9</ele>
        <time>2019-08-18T10:16:59Z</time>
      </trkpt>
      <trkpt lat="42.88338" lon="0.04006">
        <ele>993</ele>
        <time>2019-08-18T10:17:00Z</time>
      </trkpt>
      <trkpt lat="42.88337" lon="0.04003">
        <ele>993.2</ele>
        <time>2019-08-18T10:17:01Z</time>
      </trkpt>
      <trkpt lat="42.88335" lon="0.03999">
        <ele>993.4</ele>
        <time>2019-08-18T10:17:02Z</time>
      </trkpt>
      <trkpt lat="42.88333" lon="0.03996">
        <ele>993.5</ele>
        <time>2019-08-18T10:17:03Z</time>
      </trkpt>
      <trkpt lat="42.8833" lon="0.03991">
        <ele>993.8</ele>
        <time>2019-08-18T10:17:05Z</time>
      </trkpt>
      <trkpt lat="42.88329" lon="0.03988">
        <ele>994</ele>
        <time>2019-08-18T10:17:06Z</time>
      </trkpt>
      <trkpt lat="42.88327" lon="0.03985">
        <ele>994.1</ele>
        <time>2019-08-18T10:17:07Z</time>
      </trkpt>
      <trkpt lat="42.88323" lon="0.0398">
        <ele>994.3</ele>
        <time>2019-08-18T10:17:09Z</time>
      </trkpt>
      <trkpt lat="42.88319" lon="0.03976">
        <ele>994.6</ele>
        <time>2019-08-18T10:17:11Z</time>
      </trkpt>
      <trkpt lat="42.88315" lon="0.03972">
        <ele>994.8</ele>
        <time>2019-08-18T10:17:13Z</time>
      </trkpt>
      <trkpt lat="42.88311" lon="0.03968">
        <ele>995.1</ele>
        <time>2019-08-18T10:17:15Z</time>
      </trkpt>
      <trkpt lat="42.88306" lon="0.03965">
        <ele>995.4</ele>
        <time>2019-08-18T10:17:17Z</time>
      </trkpt>
      <trkpt lat="42.88302" lon="0.03962">
        <ele>995.8</ele>
        <time>2019-08-18T10:17:19Z</time>
      </trkpt>
      <trkpt lat="42.88299" lon="0.0396">
        <ele>996</ele>
        <time>2019-08-18T10:17:20Z</time>
      </trkpt>
      <trkpt lat="42.88297" lon="0.03959">
        <ele>996.2</ele>
        <time>2019-08-18T10:17:21Z</time>
      </trkpt>
      <trkpt lat="42.88294" lon="0.03957">
        <ele>996.4</ele>
        <time>2019-08-18T10:17:22Z</time>
      </trkpt>
      <trkpt lat="42.88291" lon="0.03955">
        <ele>996.6</ele>
        <time>2019-08-18T10:17:23Z</time>
      </trkpt>
      <trkpt lat="42.88289" lon="0.03953">
        <ele>996.8</ele>
        <time>2019-08-18T10:17:24Z</time>
      </trkpt>
      <trkpt lat="42.88287" lon="0.03951">
        <ele>996.9</ele>
        <time>2019-08-18T10:17:25Z</time>
      </trkpt>
      <trkpt lat="42.88284" lon="0.03949">
        <ele>997.1</ele>
        <time>2019-08-18T10:17:26Z</time>
      </trkpt>
      <trkpt lat="42.8828" lon="0.03945">
        <ele>997.4</ele>
        <time>2019-08-18T10:17:28Z</time>
      </trkpt>
      <trkpt lat="42.88276" lon="0.03942">
        <ele>997.6</ele>
        <time>2019-08-18T10:17:30Z</time>
      </trkpt>
      <trkpt lat="42.88271" lon="0.0394">
        <ele>997.9</ele>
        <time>2019-08-18T10:17:32Z</time>
      </trkpt>
      <trkpt lat="42.88266" lon="0.03939">
        <ele>998.2</ele>
        <time>2019-08-18T10:17:34Z</time>
      </trkpt>
      <trkpt lat="42.88263" lon="0.0394">
        <ele>998.4</ele>
        <time>2019-08-18T10:17:35Z</time>
      </trkpt>
      <trkpt lat="42.88261" lon="0.03941">
        <ele>998.5</ele>
        <time>2019-08-18T10:17:36Z</time>
      </trkpt>
      <trkpt lat="42.88258" lon="0.03943">
        <ele>998.7</ele>
        <time>2019-08-18T10:17:37Z</time>
      </trkpt>
      <trkpt lat="42.88254" lon="0.03947">
        <ele>998.9</ele>
        <time>2019-08-18T10:17:39Z</time>
      </trkpt>
      <trkpt lat="42.88252" lon="0.03949">
        <ele>999</ele>
        <time>2019-08-18T10:17:40Z</time>
      </trkpt>
      <trkpt lat="42.8825" lon="0.03956">
        <ele>999.2</ele>
        <time>2019-08-18T10:17:42Z</time>
      </trkpt>
      <trkpt lat="42.88249" lon="0.03963">
        <ele>999.4</ele>
        <time>2019-08-18T10:17:44Z</time>
      </trkpt>
      <trkpt lat="42.88248" lon="0.03967">
        <ele>999.5</ele>
        <time>2019-08-18T10:17:45Z</time>
      </trkpt>
      <trkpt lat="42.88249" lon="0.0397">
        <ele>999.5</ele>
        <time>2019-08-18T10:17:46Z</time>
      </trkpt>
      <trkpt lat="42.8825" lon="0.03974">
        <ele>999.6</ele>
        <time>2019-08-18T10:17:47Z</time>
      </trkpt>
      <trkpt lat="42.88252" lon="0.03977">
        <ele>999.7</ele>
        <time>2019-08-18T10:17:48Z</time>
      </trkpt>
      <trkpt lat="42.88254" lon="0.0398">
        <ele>999.8</ele>
        <time>2019-08-18T10:17:49Z</time>
      </trkpt>
      <trkpt lat="42.88256" lon="0.03983">
        <ele>999.8</ele>
        <time>2019-08-18T10:17:50Z</time>
      </trkpt>
      <trkpt lat="42.88258" lon="0.03985">
        <ele>999.9</ele>
        <time>2019-08-18T10:17:51Z</time>
      </trkpt>
      <trkpt lat="42.88261" lon="0.03987">
        <ele>999.9</ele>
        <time>2019-08-18T10:17:52Z</time>
      </trkpt>
      <trkpt lat="42.88265" lon="0.03988">
        <ele>1000</ele>
        <time>2019-08-18T10:17:53Z</time>
      </trkpt>
      <trkpt lat="42.88268" lon="0.03989">
        <ele>1000</ele>
        <time>2019-08-18T10:17:54Z</time>
      </trkpt>
      <trkpt lat="42.88271" lon="0.03989">
        <ele>1000.1</ele>
        <time>2019-08-18T10:17:55Z</time>
      </trkpt>
      <trkpt lat="42.88275" lon="0.03989">
        <ele>1000.1</ele>
        <time>2019-08-18T10:17:56Z</time>
      </trkpt>
      <trkpt lat="42.88277" lon="0.03989">
        <ele>1000.1</ele>
        <time>2019-08-18T10:17:57Z</time>
      </trkpt>
      <trkpt lat="42.88283" lon="0.0399">
        <ele>1000.1</ele>
        <time>2019-08-18T10:17:59Z</time>
      </trkpt>
      <trkpt lat="42.88288" lon="0.03992">
        <ele>1000.1</ele>
        <time>2019-08-18T10:18:01Z</time>
      </trkpt>
      <trkpt lat="42.8829" lon="0.03993">
        <ele>1000.2</ele>
        <time>2019-08-18T10:18:02Z</time>
      </trkpt>
      <trkpt lat="42.88293" lon="0.03994">
        <ele>1000.2</ele>
        <time>2019-08-18T10:18:03Z</time>
      </trkpt>
      <trkpt lat="42.88297" lon="0.03997">
        <ele>1000.2</ele>
        <time>2019-08-18T10:18:05Z</time>
      </trkpt>
      <trkpt lat="42.88302" lon="0.04002">
        <ele>1000.3</ele>
        <time>2019-08-18T10:18:07Z</time>
      </trkpt>
      <trkpt lat="42.88304" lon="0.04004">
        <ele>1000.3</ele>
        <time>2019-08-18T10:18:08Z</time>
      </trkpt>
      <trkpt lat="42.88306" lon="0.04007">
        <ele>1000.3</ele>
        <time>2019-08-18T10:18:09Z</time>
      </trkpt>
      <trkpt lat="42.88308" lon="0.04009">
        <ele>1000.3</ele>
        <time>2019-08-18T10:18:10Z</time>
      </trkpt>
      <trkpt lat="42.8831" lon="0.04011">
        <ele>1000.4</ele>
        <time>2019-08-18T10:18:11Z</time>
      </trkpt>
      <trkpt lat="42.88312" lon="0.04014">
        <ele>1000.5</ele>
        <time>2019-08-18T10:18:12Z</time>
      </trkpt>
      <trkpt lat="42.88314" lon="0.04017">
        <ele>1000.6</ele>
        <time>2019-08-18T10:18:13Z</time>
      </trkpt>
      <trkpt lat="42.88318" lon="0.04022">
        <ele>1000.7</ele>
        <time>2019-08-18T10:18:15Z</time>
      </trkpt>
      <trkpt lat="42.88321" lon="0.04028">
        <ele>1000.8</ele>
        <time>2019-08-18T10:18:17Z</time>
      </trkpt>
      <trkpt lat="42.88324" lon="0.04033">
        <ele>1001</ele>
        <time>2019-08-18T10:18:19Z</time>
      </trkpt>
      <trkpt lat="42.88328" lon="0.04038">
        <ele>1001.1</ele>
        <time>2019-08-18T10:18:21Z</time>
      </trkpt>
      <trkpt lat="42.88331" lon="0.04043">
        <ele>1001.2</ele>
        <time>2019-08-18T10:18:23Z</time>
      </trkpt>
      <trkpt lat="42.88333" lon="0.04046">
        <ele>1001.3</ele>
        <time>2019-08-18T10:18:24Z</time>
      </trkpt>
      <trkpt lat="42.88335" lon="0.04049">
        <ele>1001.4</ele>
        <time>2019-08-18T10:18:25Z</time>
      </trkpt>
      <trkpt lat="42.88336" lon="0.04052">
        <ele>1001.4</ele>
        <time>2019-08-18T10:18:26Z</time>
      </trkpt>
      <trkpt lat="42.8834" lon="0.04057">
        <ele>1001.6</ele>
        <time>2019-08-18T10:18:28Z</time>
      </trkpt>
      <trkpt lat="42.88342" lon="0.0406">
        <ele>1001.7</ele>
        <time>2019-08-18T10:18:29Z</time>
      </trkpt>
      <trkpt lat="42.88344" lon="0.04063">
        <ele>1001.8</ele>
        <time>2019-08-18T10:18:30Z</time>
      </trkpt>
      <trkpt lat="42.88347" lon="0.04068">
        <ele>1002</ele>
        <time>2019-08-18T10:18:32Z</time>
      </trkpt>
      <trkpt lat="42.88349" lon="0.04071">
        <ele>1002.1</ele>
        <time>2019-08-18T10:18:33Z</time>
      </trkpt>
      <trkpt lat="42.88351" lon="0.04074">
        <ele>1002.2</ele>
        <time>2019-08-18T10:18:34Z</time>
      </trkpt>
      <trkpt lat="42.88353" lon="0.04077">
        <ele>1002.4</ele>
        <time>2019-08-18T10:18:35Z</time>
      </trkpt>
      <trkpt lat="42.88355" lon="0.04079">
        <ele>1002.5</ele>
        <time>2019-08-18T10:18:36Z</time>
      </trkpt>
      <trkpt lat="42.88358" lon="0.04082">
        <ele>1002.6</ele>
        <time>2019-08-18T10:18:37Z</time>
      </trkpt>
      <trkpt lat="42.8836" lon="0.04084">
        <ele>1002.7</ele>
        <time>2019-08-18T10:18:38Z</time>
      </trkpt>
      <trkpt lat="42.88362" lon="0.04087">
        <ele>1002.9</ele>
        <time>2019-08-18T10:18:39Z</time>
      </trkpt>
      <trkpt lat="42.88364" lon="0.0409">
        <ele>1003</ele>
        <time>2019-08-18T10:18:40Z</time>
      </trkpt>
      <trkpt lat="42.88368" lon="0.04095">
        <ele>1003.3</ele>
        <time>2019-08-18T10:18:42Z</time>
      </trkpt>
      <trkpt lat="42.8837" lon="0.04098">
        <ele>1003.6</ele>
        <time>2019-08-18T10:18:43Z</time>
      </trkpt>
      <trkpt lat="42.88372" lon="0.041">
        <ele>1003.9</ele>
        <time>2019-08-18T10:18:44Z</time>
      </trkpt>
      <trkpt lat="42.88376" lon="0.04105">
        <ele>1004.6</ele>
        <time>2019-08-18T10:18:46Z</time>
      </trkpt>
      <trkpt lat="42.88378" lon="0.04108">
        <ele>1004.9</ele>
        <time>2019-08-18T10:18:47Z</time>
      </trkpt>
      <trkpt lat="42.8838" lon="0.0411">
        <ele>1005.2</ele>
        <time>2019-08-18T10:18:48Z</time>
      </trkpt>
      <trkpt lat="42.88383" lon="0.04115">
        <ele>1005.8</ele>
        <time>2019-08-18T10:18:50Z</time>
      </trkpt>
      <trkpt lat="42.88386" lon="0.04118">
        <ele>1006.1</ele>
        <time>2019-08-18T10:18:51Z</time>
      </trkpt>
      <trkpt lat="42.88388" lon="0.04121">
        <ele>1006.4</ele>
        <time>2019-08-18T10:18:52Z</time>
      </trkpt>
      <trkpt lat="42.8839" lon="0.04124">
        <ele>1006.7</ele>
        <time>2019-08-18T10:18:53Z</time>
      </trkpt>
      <trkpt lat="42.88397" lon="0.04134">
        <ele>1007.8</ele>
        <time>2019-08-18T10:18:57Z</time>
      </trkpt>
      <trkpt lat="42.88399" lon="0.04137">
        <ele>1008.1</ele>
        <time>2019-08-18T10:18:58Z</time>
      </trkpt>
      <trkpt lat="42.88402" lon="0.04142">
        <ele>1008.6</ele>
        <time>2019-08-18T10:19:00Z</time>
      </trkpt>
      <trkpt lat="42.88406" lon="0.04146">
        <ele>1009</ele>
        <time>2019-08-18T10:19:02Z</time>
      </trkpt>
      <trkpt lat="42.8841" lon="0.04151">
        <ele>1009.5</ele>
        <time>2019-08-18T10:19:04Z</time>
      </trkpt>
      <trkpt lat="42.88414" lon="0.04156">
        <ele>1009.9</ele>
        <time>2019-08-18T10:19:06Z</time>
      </trkpt>
      <trkpt lat="42.88417" lon="0.04161">
        <ele>1010.3</ele>
        <time>2019-08-18T10:19:08Z</time>
      </trkpt>
      <trkpt lat="42.88418" lon="0.04164">
        <ele>1010.6</ele>
        <time>2019-08-18T10:19:09Z</time>
      </trkpt>
      <trkpt lat="42.88421" lon="0.04167">
        <ele>1010.8</ele>
        <time>2019-08-18T10:19:10Z</time>
      </trkpt>
      <trkpt lat="42.88423" lon="0.0417">
        <ele>1011.1</ele>
        <time>2019-08-18T10:19:11Z</time>
      </trkpt>
      <trkpt lat="42.88424" lon="0.04173">
        <ele>1011.6</ele>
        <time>2019-08-18T10:19:12Z</time>
      </trkpt>
      <trkpt lat="42.88428" lon="0.04178">
        <ele>1012.4</ele>
        <time>2019-08-18T10:19:14Z</time>
      </trkpt>
      <trkpt lat="42.88432" lon="0.04183">
        <ele>1013.1</ele>
        <time>2019-08-18T10:19:16Z</time>
      </trkpt>
      <trkpt lat="42.88435" lon="0.04188">
        <ele>1013.7</ele>
        <time>2019-08-18T10:19:18Z</time>
      </trkpt>
      <trkpt lat="42.88438" lon="0.04194">
        <ele>1014.4</ele>
        <time>2019-08-18T10:19:20Z</time>
      </trkpt>
      <trkpt lat="42.88441" lon="0.042">
        <ele>1015.1</ele>
        <time>2019-08-18T10:19:22Z</time>
      </trkpt>
      <trkpt lat="42.88445" lon="0.04205">
        <ele>1015.8</ele>
        <time>2019-08-18T10:19:24Z</time>
      </trkpt>
      <trkpt lat="42.88448" lon="0.0421">
        <ele>1016.4</ele>
        <time>2019-08-18T10:19:26Z</time>
      </trkpt>
      <trkpt lat="42.88452" lon="0.04215">
        <ele>1017.2</ele>
        <time>2019-08-18T10:19:28Z</time>
      </trkpt>
      <trkpt lat="42.88454" lon="0.04218">
        <ele>1017.6</ele>
        <time>2019-08-18T10:19:29Z</time>
      </trkpt>
      <trkpt lat="42.88458" lon="0.04222">
        <ele>1018.3</ele>
        <time>2019-08-18T10:19:31Z</time>
      </trkpt>
      <trkpt lat="42.88462" lon="0.04226">
        <ele>1019</ele>
        <time>2019-08-18T10:19:33Z</time>
      </trkpt>
      <trkpt lat="42.88466" lon="0.04231">
        <ele>1019.7</ele>
        <time>2019-08-18T10:19:35Z</time>
      </trkpt>
      <trkpt lat="42.88468" lon="0.04234">
        <ele>1020</ele>
        <time>2019-08-18T10:19:36Z</time>
      </trkpt>
      <trkpt lat="42.88472" lon="0.04239">
        <ele>1020.8</ele>
        <time>2019-08-18T10:19:38Z</time>
      </trkpt>
      <trkpt lat="42.88476" lon="0.04243">
        <ele>1021.6</ele>
        <time>2019-08-18T10:19:40Z</time>
      </trkpt>
      <trkpt lat="42.88478" lon="0.04245">
        <ele>1022</ele>
        <time>2019-08-18T10:19:41Z</time>
      </trkpt>
      <trkpt lat="42.88481" lon="0.04248">
        <ele>1022.3</ele>
        <time>2019-08-18T10:19:42Z</time>
      </trkpt>
      <trkpt lat="42.88485" lon="0.04252">
        <ele>1023.1</ele>
        <time>2019-08-18T10:19:44Z</time>
      </trkpt>
      <trkpt lat="42.88489" lon="0.04257">
        <ele>1023.8</ele>
        <time>2019-08-18T10:19:46Z</time>
      </trkpt>
      <trkpt lat="42.88493" lon="0.04261">
        <ele>1024.5</ele>
        <time>2019-08-18T10:19:48Z</time>
      </trkpt>
      <trkpt lat="42.88495" lon="0.04264">
        <ele>1024.9</ele>
        <time>2019-08-18T10:19:49Z</time>
      </trkpt>
      <trkpt lat="42.88499" lon="0.04268">
        <ele>1025.6</ele>
        <time>2019-08-18T10:19:51Z</time>
      </trkpt>
      <trkpt lat="42.88501" lon="0.04271">
        <ele>1026</ele>
        <time>2019-08-18T10:19:52Z</time>
      </trkpt>
      <trkpt lat="42.88503" lon="0.04273">
        <ele>1026.4</ele>
        <time>2019-08-18T10:19:53Z</time>
      </trkpt>
      <trkpt lat="42.88507" lon="0.04277">
        <ele>1027.1</ele>
        <time>2019-08-18T10:19:55Z</time>
      </trkpt>
      <trkpt lat="42.88509" lon="0.0428">
        <ele>1027.4</ele>
        <time>2019-08-18T10:19:56Z</time>
      </trkpt>
      <trkpt lat="42.88513" lon="0.04284">
        <ele>1028</ele>
        <time>2019-08-18T10:19:58Z</time>
      </trkpt>
      <trkpt lat="42.88517" lon="0.04289">
        <ele>1028.7</ele>
        <time>2019-08-18T10:20:00Z</time>
      </trkpt>
      <trkpt lat="42.8852" lon="0.04293">
        <ele>1029.4</ele>
        <time>2019-08-18T10:20:02Z</time>
      </trkpt>
      <trkpt lat="42.88524" lon="0.04298">
        <ele>1030.1</ele>
        <time>2019-08-18T10:20:04Z</time>
      </trkpt>
      <trkpt lat="42.88527" lon="0.04302">
        <ele>1030.7</ele>
        <time>2019-08-18T10:20:06Z</time>
      </trkpt>
      <trkpt lat="42.8853" lon="0.04308">
        <ele>1031.4</ele>
        <time>2019-08-18T10:20:08Z</time>
      </trkpt>
      <trkpt lat="42.88533" lon="0.04313">
        <ele>1032</ele>
        <time>2019-08-18T10:20:10Z</time>
      </trkpt>
      <trkpt lat="42.88536" lon="0.04318">
        <ele>1032.7</ele>
        <time>2019-08-18T10:20:12Z</time>
      </trkpt>
      <trkpt lat="42.88538" lon="0.04321">
        <ele>1033.1</ele>
        <time>2019-08-18T10:20:13Z</time>
      </trkpt>
      <trkpt lat="42.8854" lon="0.04324">
        <ele>1033.5</ele>
        <time>2019-08-18T10:20:14Z</time>
      </trkpt>
      <trkpt lat="42.88542" lon="0.04327">
        <ele>1033.9</ele>
        <time>2019-08-18T10:20:15Z</time>
      </trkpt>
      <trkpt lat="42.88544" lon="0.04332">
        <ele>1034.5</ele>
        <time>2019-08-18T10:20:17Z</time>
      </trkpt>
      <trkpt lat="42.88547" lon="0.04337">
        <ele>1035.2</ele>
        <time>2019-08-18T10:20:19Z</time>
      </trkpt>
      <trkpt lat="42.88549" lon="0.0434">
        <ele>1035.6</ele>
        <time>2019-08-18T10:20:20Z</time>
      </trkpt>
      <trkpt lat="42.88553" lon="0.04344">
        <ele>1036.2</ele>
        <time>2019-08-18T10:20:22Z</time>
      </trkpt>
      <trkpt lat="42.88556" lon="0.04349">
        <ele>1036.9</ele>
        <time>2019-08-18T10:20:24Z</time>
      </trkpt>
      <trkpt lat="42.88559" lon="0.04355">
        <ele>1037.6</ele>
        <time>2019-08-18T10:20:26Z</time>
      </trkpt>
      <trkpt lat="42.88562" lon="0.0436">
        <ele>1038.2</ele>
        <time>2019-08-18T10:20:28Z</time>
      </trkpt>
      <trkpt lat="42.88566" lon="0.04365">
        <ele>1038.9</ele>
        <time>2019-08-18T10:20:30Z</time>
      </trkpt>
      <trkpt lat="42.88569" lon="0.0437">
        <ele>1039.6</ele>
        <time>2019-08-18T10:20:32Z</time>
      </trkpt>
      <trkpt lat="42.88572" lon="0.04375">
        <ele>1040.2</ele>
        <time>2019-08-18T10:20:34Z</time>
      </trkpt>
      <trkpt lat="42.88576" lon="0.04379">
        <ele>1040.8</ele>
        <time>2019-08-18T10:20:36Z</time>
      </trkpt>
      <trkpt lat="42.8858" lon="0.04384">
        <ele>1041.3</ele>
        <time>2019-08-18T10:20:38Z</time>
      </trkpt>
      <trkpt lat="42.88583" lon="0.04389">
        <ele>1041.6</ele>
        <time>2019-08-18T10:20:40Z</time>
      </trkpt>
      <trkpt lat="42.88587" lon="0.04394">
        <ele>1042</ele>
        <time>2019-08-18T10:20:42Z</time>
      </trkpt>
      <trkpt lat="42.8859" lon="0.04398">
        <ele>1042.3</ele>
        <time>2019-08-18T10:20:44Z</time>
      </trkpt>
      <trkpt lat="42.88593" lon="0.04403">
        <ele>1042.5</ele>
        <time>2019-08-18T10:20:46Z</time>
      </trkpt>
      <trkpt lat="42.88596" lon="0.04408">
        <ele>1042.7</ele>
        <time>2019-08-18T10:20:48Z</time>
      </trkpt>
      <trkpt lat="42.88599" lon="0.04413">
        <ele>1042.9</ele>
        <time>2019-08-18T10:20:50Z</time>
      </trkpt>
      <trkpt lat="42.88603" lon="0.04418">
        <ele>1043.1</ele>
        <time>2019-08-18T10:20:52Z</time>
      </trkpt>
      <trkpt lat="42.88607" lon="0.04422">
        <ele>1043.4</ele>
        <time>2019-08-18T10:20:54Z</time>
      </trkpt>
      <trkpt lat="42.8861" lon="0.04427">
        <ele>1043.6</ele>
        <time>2019-08-18T10:20:56Z</time>
      </trkpt>
      <trkpt lat="42.88614" lon="0.04432">
        <ele>1043.7</ele>
        <time>2019-08-18T10:20:58Z</time>
      </trkpt>
      <trkpt lat="42.88618" lon="0.04437">
        <ele>1044</ele>
        <time>2019-08-18T10:21:00Z</time>
      </trkpt>
      <trkpt lat="42.88622" lon="0.04441">
        <ele>1044.1</ele>
        <time>2019-08-18T10:21:02Z</time>
      </trkpt>
      <trkpt lat="42.88625" lon="0.04446">
        <ele>1044.4</ele>
        <time>2019-08-18T10:21:04Z</time>
      </trkpt>
      <trkpt lat="42.88629" lon="0.04451">
        <ele>1044.6</ele>
        <time>2019-08-18T10:21:06Z</time>
      </trkpt>
      <trkpt lat="42.88633" lon="0.04456">
        <ele>1044.8</ele>
        <time>2019-08-18T10:21:08Z</time>
      </trkpt>
      <trkpt lat="42.88637" lon="0.0446">
        <ele>1045.1</ele>
        <time>2019-08-18T10:21:10Z</time>
      </trkpt>
      <trkpt lat="42.88642" lon="0.04464">
        <ele>1045.6</ele>
        <time>2019-08-18T10:21:12Z</time>
      </trkpt>
      <trkpt lat="42.88644" lon="0.04466">
        <ele>1045.9</ele>
        <time>2019-08-18T10:21:13Z</time>
      </trkpt>
      <trkpt lat="42.88648" lon="0.04469">
        <ele>1046.4</ele>
        <time>2019-08-18T10:21:15Z</time>
      </trkpt>
      <trkpt lat="42.88651" lon="0.04473">
        <ele>1046.8</ele>
        <time>2019-08-18T10:21:17Z</time>
      </trkpt>
      <trkpt lat="42.88655" lon="0.04477">
        <ele>1047.3</ele>
        <time>2019-08-18T10:21:19Z</time>
      </trkpt>
      <trkpt lat="42.88659" lon="0.04481">
        <ele>1047.7</ele>
        <time>2019-08-18T10:21:21Z</time>
      </trkpt>
      <trkpt lat="42.88663" lon="0.04485">
        <ele>1048.2</ele>
        <time>2019-08-18T10:21:23Z</time>
      </trkpt>
      <trkpt lat="42.88668" lon="0.04488">
        <ele>1048.6</ele>
        <time>2019-08-18T10:21:25Z</time>
      </trkpt>
      <trkpt lat="42.88672" lon="0.04491">
        <ele>1049.1</ele>
        <time>2019-08-18T10:21:27Z</time>
      </trkpt>
      <trkpt lat="42.88676" lon="0.04495">
        <ele>1049.5</ele>
        <time>2019-08-18T10:21:29Z</time>
      </trkpt>
      <trkpt lat="42.8868" lon="0.04499">
        <ele>1050</ele>
        <time>2019-08-18T10:21:31Z</time>
      </trkpt>
      <trkpt lat="42.88684" lon="0.04502">
        <ele>1050.5</ele>
        <time>2019-08-18T10:21:33Z</time>
      </trkpt>
      <trkpt lat="42.88689" lon="0.04505">
        <ele>1051</ele>
        <time>2019-08-18T10:21:35Z</time>
      </trkpt>
      <trkpt lat="42.88693" lon="0.04509">
        <ele>1051.5</ele>
        <time>2019-08-18T10:21:37Z</time>
      </trkpt>
      <trkpt lat="42.88697" lon="0.04512">
        <ele>1052</ele>
        <time>2019-08-18T10:21:39Z</time>
      </trkpt>
      <trkpt lat="42.88702" lon="0.04515">
        <ele>1052.5</ele>
        <time>2019-08-18T10:21:41Z</time>
      </trkpt>
      <trkpt lat="42.88706" lon="0.04519">
        <ele>1053</ele>
        <time>2019-08-18T10:21:43Z</time>
      </trkpt>
      <trkpt lat="42.8871" lon="0.04522">
        <ele>1053.5</ele>
        <time>2019-08-18T10:21:45Z</time>
      </trkpt>
      <trkpt lat="42.88714" lon="0.04526">
        <ele>1054</ele>
        <time>2019-08-18T10:21:47Z</time>
      </trkpt>
      <trkpt lat="42.88718" lon="0.0453">
        <ele>1054.5</ele>
        <time>2019-08-18T10:21:49Z</time>
      </trkpt>
      <trkpt lat="42.88723" lon="0.04534">
        <ele>1055.1</ele>
        <time>2019-08-18T10:21:51Z</time>
      </trkpt>
      <trkpt lat="42.88725" lon="0.04536">
        <ele>1055.5</ele>
        <time>2019-08-18T10:21:52Z</time>
      </trkpt>
      <trkpt lat="42.88728" lon="0.04538">
        <ele>1055.8</ele>
        <time>2019-08-18T10:21:53Z</time>
      </trkpt>
      <trkpt lat="42.8873" lon="0.0454">
        <ele>1056.2</ele>
        <time>2019-08-18T10:21:54Z</time>
      </trkpt>
      <trkpt lat="42.88734" lon="0.04545">
        <ele>1056.8</ele>
        <time>2019-08-18T10:21:56Z</time>
      </trkpt>
      <trkpt lat="42.88738" lon="0.04549">
        <ele>1057.5</ele>
        <time>2019-08-18T10:21:58Z</time>
      </trkpt>
      <trkpt lat="42.88741" lon="0.04551">
        <ele>1057.9</ele>
        <time>2019-08-18T10:21:59Z</time>
      </trkpt>
      <trkpt lat="42.88743" lon="0.04553">
        <ele>1058.2</ele>
        <time>2019-08-18T10:22:00Z</time>
      </trkpt>
      <trkpt lat="42.88745" lon="0.04555">
        <ele>1058.5</ele>
        <time>2019-08-18T10:22:01Z</time>
      </trkpt>
      <trkpt lat="42.8875" lon="0.04559">
        <ele>1059.1</ele>
        <time>2019-08-18T10:22:03Z</time>
      </trkpt>
      <trkpt lat="42.88752" lon="0.04562">
        <ele>1059.4</ele>
        <time>2019-08-18T10:22:04Z</time>
      </trkpt>
      <trkpt lat="42.88754" lon="0.04564">
        <ele>1059.7</ele>
        <time>2019-08-18T10:22:05Z</time>
      </trkpt>
      <trkpt lat="42.88757" lon="0.04566">
        <ele>1060</ele>
        <time>2019-08-18T10:22:06Z</time>
      </trkpt>
      <trkpt lat="42.8876" lon="0.04569">
        <ele>1060.3</ele>
        <time>2019-08-18T10:22:07Z</time>
      </trkpt>
      <trkpt lat="42.88762" lon="0.04571">
        <ele>1060.6</ele>
        <time>2019-08-18T10:22:08Z</time>
      </trkpt>
      <trkpt lat="42.88767" lon="0.04575">
        <ele>1061.2</ele>
        <time>2019-08-18T10:22:10Z</time>
      </trkpt>
      <trkpt lat="42.88769" lon="0.04578">
        <ele>1061.5</ele>
        <time>2019-08-18T10:22:11Z</time>
      </trkpt>
      <trkpt lat="42.88773" lon="0.04582">
        <ele>1062.1</ele>
        <time>2019-08-18T10:22:13Z</time>
      </trkpt>
      <trkpt lat="42.88775" lon="0.04584">
        <ele>1062.3</ele>
        <time>2019-08-18T10:22:14Z</time>
      </trkpt>
      <trkpt lat="42.88779" lon="0.04589">
        <ele>1062.9</ele>
        <time>2019-08-18T10:22:16Z</time>
      </trkpt>
      <trkpt lat="42.88781" lon="0.04591">
        <ele>1063.2</ele>
        <time>2019-08-18T10:22:17Z</time>
      </trkpt>
      <trkpt lat="42.88785" lon="0.04596">
        <ele>1063.9</ele>
        <time>2019-08-18T10:22:19Z</time>
      </trkpt>
      <trkpt lat="42.88789" lon="0.046">
        <ele>1064.5</ele>
        <time>2019-08-18T10:22:21Z</time>
      </trkpt>
      <trkpt lat="42.88793" lon="0.04603">
        <ele>1065.1</ele>
        <time>2019-08-18T10:22:23Z</time>
      </trkpt>
      <trkpt lat="42.88796" lon="0.04607">
        <ele>1065.6</ele>
        <time>2019-08-18T10:22:25Z</time>
      </trkpt>
      <trkpt lat="42.888" lon="0.0461">
        <ele>1066</ele>
        <time>2019-08-18T10:22:27Z</time>
      </trkpt>
      <trkpt lat="42.88804" lon="0.04614">
        <ele>1066.5</ele>
        <time>2019-08-18T10:22:29Z</time>
      </trkpt>
      <trkpt lat="42.88809" lon="0.04617">
        <ele>1067.1</ele>
        <time>2019-08-18T10:22:31Z</time>
      </trkpt>
      <trkpt lat="42.88812" lon="0.04619">
        <ele>1067.4</ele>
        <time>2019-08-18T10:22:32Z</time>
      </trkpt>
      <trkpt lat="42.88814" lon="0.0462">
        <ele>1067.7</ele>
        <time>2019-08-18T10:22:33Z</time>
      </trkpt>
      <trkpt lat="42.88817" lon="0.04622">
        <ele>1068</ele>
        <time>2019-08-18T10:22:34Z</time>
      </trkpt>
      <trkpt lat="42.8882" lon="0.04623">
        <ele>1068.2</ele>
        <time>2019-08-18T10:22:35Z</time>
      </trkpt>
      <trkpt lat="42.88825" lon="0.04625">
        <ele>1068.8</ele>
        <time>2019-08-18T10:22:37Z</time>
      </trkpt>
      <trkpt lat="42.8883" lon="0.04627">
        <ele>1069.4</ele>
        <time>2019-08-18T10:22:39Z</time>
      </trkpt>
      <trkpt lat="42.88834" lon="0.04629">
        <ele>1070</ele>
        <time>2019-08-18T10:22:41Z</time>
      </trkpt>
      <trkpt lat="42.88839" lon="0.04631">
        <ele>1070.5</ele>
        <time>2019-08-18T10:22:43Z</time>
      </trkpt>
      <trkpt lat="42.88844" lon="0.04632">
        <ele>1071.1</ele>
        <time>2019-08-18T10:22:45Z</time>
      </trkpt>
      <trkpt lat="42.88849" lon="0.04634">
        <ele>1071.7</ele>
        <time>2019-08-18T10:22:47Z</time>
      </trkpt>
      <trkpt lat="42.88853" lon="0.04635">
        <ele>1072.4</ele>
        <time>2019-08-18T10:22:49Z</time>
      </trkpt>
      <trkpt lat="42.88857" lon="0.04637">
        <ele>1073.1</ele>
        <time>2019-08-18T10:22:51Z</time>
      </trkpt>
      <trkpt lat="42.88862" lon="0.04639">
        <ele>1073.9</ele>
        <time>2019-08-18T10:22:53Z</time>
      </trkpt>
      <trkpt lat="42.88867" lon="0.04641">
        <ele>1074.7</ele>
        <time>2019-08-18T10:22:55Z</time>
      </trkpt>
      <trkpt lat="42.88872" lon="0.04643">
        <ele>1075.6</ele>
        <time>2019-08-18T10:22:57Z</time>
      </trkpt>
      <trkpt lat="42.88876" lon="0.04645">
        <ele>1076.4</ele>
        <time>2019-08-18T10:22:59Z</time>
      </trkpt>
      <trkpt lat="42.88881" lon="0.04648">
        <ele>1076.8</ele>
        <time>2019-08-18T10:23:01Z</time>
      </trkpt>
      <trkpt lat="42.88885" lon="0.0465">
        <ele>1077.2</ele>
        <time>2019-08-18T10:23:03Z</time>
      </trkpt>
      <trkpt lat="42.8889" lon="0.04652">
        <ele>1077.5</ele>
        <time>2019-08-18T10:23:05Z</time>
      </trkpt>
      <trkpt lat="42.88895" lon="0.04654">
        <ele>1077.7</ele>
        <time>2019-08-18T10:23:07Z</time>
      </trkpt>
      <trkpt lat="42.889" lon="0.04657">
        <ele>1078.1</ele>
        <time>2019-08-18T10:23:09Z</time>
      </trkpt>
      <trkpt lat="42.88904" lon="0.04659">
        <ele>1078.3</ele>
        <time>2019-08-18T10:23:11Z</time>
      </trkpt>
      <trkpt lat="42.88909" lon="0.04661">
        <ele>1078.6</ele>
        <time>2019-08-18T10:23:13Z</time>
      </trkpt>
      <trkpt lat="42.88913" lon="0.04663">
        <ele>1078.8</ele>
        <time>2019-08-18T10:23:15Z</time>
      </trkpt>
      <trkpt lat="42.88917" lon="0.04665">
        <ele>1079.1</ele>
        <time>2019-08-18T10:23:17Z</time>
      </trkpt>
      <trkpt lat="42.88923" lon="0.04667">
        <ele>1079.3</ele>
        <time>2019-08-18T10:23:19Z</time>
      </trkpt>
      <trkpt lat="42.88927" lon="0.04669">
        <ele>1079.5</ele>
        <time>2019-08-18T10:23:21Z</time>
      </trkpt>
      <trkpt lat="42.88932" lon="0.04672">
        <ele>1079.7</ele>
        <time>2019-08-18T10:23:23Z</time>
      </trkpt>
      <trkpt lat="42.88937" lon="0.04675">
        <ele>1079.9</ele>
        <time>2019-08-18T10:23:25Z</time>
      </trkpt>
      <trkpt lat="42.88941" lon="0.04676">
        <ele>1080.1</ele>
        <time>2019-08-18T10:23:27Z</time>
      </trkpt>
      <trkpt lat="42.88945" lon="0.04677">
        <ele>1080.2</ele>
        <time>2019-08-18T10:23:29Z</time>
      </trkpt>
      <trkpt lat="42.8895" lon="0.04678">
        <ele>1080.4</ele>
        <time>2019-08-18T10:23:31Z</time>
      </trkpt>
      <trkpt lat="42.88954" lon="0.04678">
        <ele>1080.5</ele>
        <time>2019-08-18T10:23:33Z</time>
      </trkpt>
      <trkpt lat="42.88958" lon="0.0468">
        <ele>1080.6</ele>
        <time>2019-08-18T10:23:35Z</time>
      </trkpt>
      <trkpt lat="42.88962" lon="0.04681">
        <ele>1080.7</ele>
        <time>2019-08-18T10:23:37Z</time>
      </trkpt>
      <trkpt lat="42.88966" lon="0.04682">
        <ele>1080.8</ele>
        <time>2019-08-18T10:23:39Z</time>
      </trkpt>
      <trkpt lat="42.88968" lon="0.04683">
        <ele>1080.9</ele>
        <time>2019-08-18T10:23:40Z</time>
      </trkpt>
      <trkpt lat="42.88973" lon="0.04685">
        <ele>1081</ele>
        <time>2019-08-18T10:23:42Z</time>
      </trkpt>
      <trkpt lat="42.88977" lon="0.04686">
        <ele>1081.1</ele>
        <time>2019-08-18T10:23:44Z</time>
      </trkpt>
      <trkpt lat="42.88981" lon="0.04687">
        <ele>1081.2</ele>
        <time>2019-08-18T10:23:46Z</time>
      </trkpt>
      <trkpt lat="42.88985" lon="0.04689">
        <ele>1081.3</ele>
        <time>2019-08-18T10:23:48Z</time>
      </trkpt>
      <trkpt lat="42.8899" lon="0.04691">
        <ele>1081.4</ele>
        <time>2019-08-18T10:23:50Z</time>
      </trkpt>
      <trkpt lat="42.88994" lon="0.04693">
        <ele>1081.5</ele>
        <time>2019-08-18T10:23:52Z</time>
      </trkpt>
      <trkpt lat="42.88998" lon="0.04695">
        <ele>1081.6</ele>
        <time>2019-08-18T10:23:54Z</time>
      </trkpt>
      <trkpt lat="42.89002" lon="0.04696">
        <ele>1081.8</ele>
        <time>2019-08-18T10:23:56Z</time>
      </trkpt>
      <trkpt lat="42.89006" lon="0.04698">
        <ele>1081.9</ele>
        <time>2019-08-18T10:23:58Z</time>
      </trkpt>
      <trkpt lat="42.8901" lon="0.04701">
        <ele>1082</ele>
        <time>2019-08-18T10:24:00Z</time>
      </trkpt>
      <trkpt lat="42.89014" lon="0.04705">
        <ele>1082.1</ele>
        <time>2019-08-18T10:24:02Z</time>
      </trkpt>
      <trkpt lat="42.89018" lon="0.0471">
        <ele>1082.3</ele>
        <time>2019-08-18T10:24:04Z</time>
      </trkpt>
      <trkpt lat="42.8902" lon="0.04712">
        <ele>1082.4</ele>
        <time>2019-08-18T10:24:05Z</time>
      </trkpt>
      <trkpt lat="42.89025" lon="0.04717">
        <ele>1082.6</ele>
        <time>2019-08-18T10:24:07Z</time>
      </trkpt>
      <trkpt lat="42.89028" lon="0.04721">
        <ele>1082.7</ele>
        <time>2019-08-18T10:24:09Z</time>
      </trkpt>
      <trkpt lat="42.89033" lon="0.04727">
        <ele>1083.4</ele>
        <time>2019-08-18T10:24:11Z</time>
      </trkpt>
      <trkpt lat="42.89035" lon="0.04729">
        <ele>1083.8</ele>
        <time>2019-08-18T10:24:12Z</time>
      </trkpt>
      <trkpt lat="42.8904" lon="0.04734">
        <ele>1084.4</ele>
        <time>2019-08-18T10:24:14Z</time>
      </trkpt>
      <trkpt lat="42.89043" lon="0.04739">
        <ele>1084.8</ele>
        <time>2019-08-18T10:24:16Z</time>
      </trkpt>
      <trkpt lat="42.89046" lon="0.04745">
        <ele>1085.1</ele>
        <time>2019-08-18T10:24:18Z</time>
      </trkpt>
      <trkpt lat="42.89048" lon="0.04748">
        <ele>1085.7</ele>
        <time>2019-08-18T10:24:19Z</time>
      </trkpt>
      <trkpt lat="42.89049" lon="0.04751">
        <ele>1085.9</ele>
        <time>2019-08-18T10:24:20Z</time>
      </trkpt>
      <trkpt lat="42.89052" lon="0.04755">
        <ele>1086.2</ele>
        <time>2019-08-18T10:24:22Z</time>
      </trkpt>
      <trkpt lat="42.89056" lon="0.0476">
        <ele>1086.5</ele>
        <time>2019-08-18T10:24:24Z</time>
      </trkpt>
      <trkpt lat="42.89059" lon="0.04765">
        <ele>1086.7</ele>
        <time>2019-08-18T10:24:26Z</time>
      </trkpt>
      <trkpt lat="42.89062" lon="0.0477">
        <ele>1087</ele>
        <time>2019-08-18T10:24:28Z</time>
      </trkpt>
      <trkpt lat="42.89066" lon="0.04775">
        <ele>1087.2</ele>
        <time>2019-08-18T10:24:30Z</time>
      </trkpt>
      <trkpt lat="42.89069" lon="0.0478">
        <ele>1087.4</ele>
        <time>2019-08-18T10:24:32Z</time>
      </trkpt>
      <trkpt lat="42.89072" lon="0.04785">
        <ele>1087.5</ele>
        <time>2019-08-18T10:24:34Z</time>
      </trkpt>
      <trkpt lat="42.89074" lon="0.0479">
        <ele>1087.6</ele>
        <time>2019-08-18T10:24:36Z</time>
      </trkpt>
      <trkpt lat="42.89077" lon="0.04795">
        <ele>1087.7</ele>
        <time>2019-08-18T10:24:38Z</time>
      </trkpt>
      <trkpt lat="42.8908" lon="0.048">
        <ele>1087.9</ele>
        <time>2019-08-18T10:24:40Z</time>
      </trkpt>
      <trkpt lat="42.89083" lon="0.04805">
        <ele>1088.1</ele>
        <time>2019-08-18T10:24:42Z</time>
      </trkpt>
      <trkpt lat="42.89086" lon="0.04809">
        <ele>1088.3</ele>
        <time>2019-08-18T10:24:44Z</time>
      </trkpt>
      <trkpt lat="42.8909" lon="0.04814">
        <ele>1088.4</ele>
        <time>2019-08-18T10:24:46Z</time>
      </trkpt>
      <trkpt lat="42.89093" lon="0.04818">
        <ele>1088.6</ele>
        <time>2019-08-18T10:24:48Z</time>
      </trkpt>
      <trkpt lat="42.89096" lon="0.04824">
        <ele>1088.8</ele>
        <time>2019-08-18T10:24:50Z</time>
      </trkpt>
      <trkpt lat="42.89099" lon="0.04829">
        <ele>1089</ele>
        <time>2019-08-18T10:24:52Z</time>
      </trkpt>
      <trkpt lat="42.89103" lon="0.04834">
        <ele>1089.2</ele>
        <time>2019-08-18T10:24:54Z</time>
      </trkpt>
      <trkpt lat="42.89106" lon="0.04839">
        <ele>1089.3</ele>
        <time>2019-08-18T10:24:56Z</time>
      </trkpt>
      <trkpt lat="42.89109" lon="0.04844">
        <ele>1089.4</ele>
        <time>2019-08-18T10:24:58Z</time>
      </trkpt>
      <trkpt lat="42.89111" lon="0.04848">
        <ele>1089.4</ele>
        <time>2019-08-18T10:24:59Z</time>
      </trkpt>
      <trkpt lat="42.89112" lon="0.04855">
        <ele>1089.5</ele>
        <time>2019-08-18T10:25:01Z</time>
      </trkpt>
      <trkpt lat="42.89112" lon="0.04858">
        <ele>1089.6</ele>
        <time>2019-08-18T10:25:02Z</time>
      </trkpt>
      <trkpt lat="42.89111" lon="0.04862">
        <ele>1089.6</ele>
        <time>2019-08-18T10:25:03Z</time>
      </trkpt>
      <trkpt lat="42.89108" lon="0.04868">
        <ele>1089.8</ele>
        <time>2019-08-18T10:25:05Z</time>
      </trkpt>
      <trkpt lat="42.89103" lon="0.04872">
        <ele>1089.8</ele>
        <time>2019-08-18T10:25:07Z</time>
      </trkpt>
      <trkpt lat="42.891" lon="0.04872">
        <ele>1089.8</ele>
        <time>2019-08-18T10:25:08Z</time>
      </trkpt>
      <trkpt lat="42.89097" lon="0.04871">
        <ele>1089.8</ele>
        <time>2019-08-18T10:25:09Z</time>
      </trkpt>
      <trkpt lat="42.89095" lon="0.0487">
        <ele>1089.8</ele>
        <time>2019-08-18T10:25:10Z</time>
      </trkpt>
      <trkpt lat="42.89092" lon="0.04869">
        <ele>1089.8</ele>
        <time>2019-08-18T10:25:11Z</time>
      </trkpt>
      <trkpt lat="42.89089" lon="0.04868">
        <ele>1089.8</ele>
        <time>2019-08-18T10:25:12Z</time>
      </trkpt>
      <trkpt lat="42.89087" lon="0.04866">
        <ele>1089.8</ele>
        <time>2019-08-18T10:25:13Z</time>
      </trkpt>
      <trkpt lat="42.89084" lon="0.04863">
        <ele>1089.8</ele>
        <time>2019-08-18T10:25:14Z</time>
      </trkpt>
      <trkpt lat="42.89082" lon="0.04861">
        <ele>1089.8</ele>
        <time>2019-08-18T10:25:15Z</time>
      </trkpt>
      <trkpt lat="42.89078" lon="0.04857">
        <ele>1089.8</ele>
        <time>2019-08-18T10:25:17Z</time>
      </trkpt>
      <trkpt lat="42.89074" lon="0.04853">
        <ele>1089.8</ele>
        <time>2019-08-18T10:25:19Z</time>
      </trkpt>
      <trkpt lat="42.89072" lon="0.0485">
        <ele>1089.8</ele>
        <time>2019-08-18T10:25:20Z</time>
      </trkpt>
      <trkpt lat="42.89068" lon="0.04846">
        <ele>1089.8</ele>
        <time>2019-08-18T10:25:22Z</time>
      </trkpt>
      <trkpt lat="42.89065" lon="0.04841">
        <ele>1089.7</ele>
        <time>2019-08-18T10:25:24Z</time>
      </trkpt>
      <trkpt lat="42.89063" lon="0.04838">
        <ele>1089.7</ele>
        <time>2019-08-18T10:25:25Z</time>
      </trkpt>
      <trkpt lat="42.8906" lon="0.04833">
        <ele>1089.7</ele>
        <time>2019-08-18T10:25:27Z</time>
      </trkpt>
      <trkpt lat="42.89057" lon="0.04827">
        <ele>1089.7</ele>
        <time>2019-08-18T10:25:29Z</time>
      </trkpt>
      <trkpt lat="42.89054" lon="0.04822">
        <ele>1089.7</ele>
        <time>2019-08-18T10:25:31Z</time>
      </trkpt>
      <trkpt lat="42.8905" lon="0.04816">
        <ele>1089.6</ele>
        <time>2019-08-18T10:25:33Z</time>
      </trkpt>
      <trkpt lat="42.89048" lon="0.04813">
        <ele>1089.4</ele>
        <time>2019-08-18T10:25:34Z</time>
      </trkpt>
      <trkpt lat="42.89045" lon="0.04807">
        <ele>1089.3</ele>
        <time>2019-08-18T10:25:36Z</time>
      </trkpt>
      <trkpt lat="42.89043" lon="0.04804">
        <ele>1089.2</ele>
        <time>2019-08-18T10:25:37Z</time>
      </trkpt>
      <trkpt lat="42.89041" lon="0.04802">
        <ele>1089.2</ele>
        <time>2019-08-18T10:25:38Z</time>
      </trkpt>
      <trkpt lat="42.89039" lon="0.04799">
        <ele>1089.1</ele>
        <time>2019-08-18T10:25:39Z</time>
      </trkpt>
      <trkpt lat="42.89037" lon="0.04798">
        <ele>1089</ele>
        <time>2019-08-18T10:25:40Z</time>
      </trkpt>
      <trkpt lat="42.89034" lon="0.04796">
        <ele>1089</ele>
        <time>2019-08-18T10:25:41Z</time>
      </trkpt>
      <trkpt lat="42.89031" lon="0.04795">
        <ele>1088.9</ele>
        <time>2019-08-18T10:25:42Z</time>
      </trkpt>
      <trkpt lat="42.89028" lon="0.04795">
        <ele>1088.8</ele>
        <time>2019-08-18T10:25:43Z</time>
      </trkpt>
      <trkpt lat="42.89025" lon="0.04795">
        <ele>1088.7</ele>
        <time>2019-08-18T10:25:44Z</time>
      </trkpt>
      <trkpt lat="42.8902" lon="0.04798">
        <ele>1088.6</ele>
        <time>2019-08-18T10:25:46Z</time>
      </trkpt>
      <trkpt lat="42.89018" lon="0.048">
        <ele>1088.5</ele>
        <time>2019-08-18T10:25:47Z</time>
      </trkpt>
      <trkpt lat="42.89015" lon="0.04803">
        <ele>1088.4</ele>
        <time>2019-08-18T10:25:48Z</time>
      </trkpt>
      <trkpt lat="42.89013" lon="0.04805">
        <ele>1088.3</ele>
        <time>2019-08-18T10:25:49Z</time>
      </trkpt>
      <trkpt lat="42.89012" lon="0.04808">
        <ele>1088.1</ele>
        <time>2019-08-18T10:25:50Z</time>
      </trkpt>
      <trkpt lat="42.8901" lon="0.04815">
        <ele>1088.5</ele>
        <time>2019-08-18T10:25:52Z</time>
      </trkpt>
      <trkpt lat="42.8901" lon="0.04819">
        <ele>1088.7</ele>
        <time>2019-08-18T10:25:53Z</time>
      </trkpt>
      <trkpt lat="42.8901" lon="0.04823">
        <ele>1088.9</ele>
        <time>2019-08-18T10:25:54Z</time>
      </trkpt>
      <trkpt lat="42.89011" lon="0.04827">
        <ele>1089.3</ele>
        <time>2019-08-18T10:25:55Z</time>
      </trkpt>
      <trkpt lat="42.89011" lon="0.04831">
        <ele>1089.8</ele>
        <time>2019-08-18T10:25:56Z</time>
      </trkpt>
      <trkpt lat="42.89013" lon="0.04835">
        <ele>1090.3</ele>
        <time>2019-08-18T10:25:57Z</time>
      </trkpt>
      <trkpt lat="42.89014" lon="0.04839">
        <ele>1090.8</ele>
        <time>2019-08-18T10:25:58Z</time>
      </trkpt>
      <trkpt lat="42.89016" lon="0.04843">
        <ele>1091.3</ele>
        <time>2019-08-18T10:25:59Z</time>
      </trkpt>
      <trkpt lat="42.89018" lon="0.04846">
        <ele>1091.8</ele>
        <time>2019-08-18T10:26:00Z</time>
      </trkpt>
      <trkpt lat="42.89021" lon="0.0485">
        <ele>1092.2</ele>
        <time>2019-08-18T10:26:01Z</time>
      </trkpt>
      <trkpt lat="42.89023" lon="0.04852">
        <ele>1092.6</ele>
        <time>2019-08-18T10:26:02Z</time>
      </trkpt>
      <trkpt lat="42.89026" lon="0.04855">
        <ele>1092.9</ele>
        <time>2019-08-18T10:26:03Z</time>
      </trkpt>
      <trkpt lat="42.89028" lon="0.04858">
        <ele>1093.2</ele>
        <time>2019-08-18T10:26:04Z</time>
      </trkpt>
      <trkpt lat="42.8903" lon="0.0486">
        <ele>1093.5</ele>
        <time>2019-08-18T10:26:05Z</time>
      </trkpt>
      <trkpt lat="42.89033" lon="0.04863">
        <ele>1093.7</ele>
        <time>2019-08-18T10:26:06Z</time>
      </trkpt>
      <trkpt lat="42.89035" lon="0.04865">
        <ele>1094</ele>
        <time>2019-08-18T10:26:07Z</time>
      </trkpt>
      <trkpt lat="42.89037" lon="0.04868">
        <ele>1094.3</ele>
        <time>2019-08-18T10:26:08Z</time>
      </trkpt>
      <trkpt lat="42.89039" lon="0.04871">
        <ele>1094.6</ele>
        <time>2019-08-18T10:26:09Z</time>
      </trkpt>
      <trkpt lat="42.89041" lon="0.04873">
        <ele>1094.9</ele>
        <time>2019-08-18T10:26:10Z</time>
      </trkpt>
      <trkpt lat="42.89043" lon="0.04876">
        <ele>1095.3</ele>
        <time>2019-08-18T10:26:11Z</time>
      </trkpt>
      <trkpt lat="42.89045" lon="0.04879">
        <ele>1095.6</ele>
        <time>2019-08-18T10:26:12Z</time>
      </trkpt>
      <trkpt lat="42.89046" lon="0.04882">
        <ele>1096</ele>
        <time>2019-08-18T10:26:13Z</time>
      </trkpt>
      <trkpt lat="42.89048" lon="0.04889">
        <ele>1096.6</ele>
        <time>2019-08-18T10:26:15Z</time>
      </trkpt>
      <trkpt lat="42.89049" lon="0.04895">
        <ele>1097.2</ele>
        <time>2019-08-18T10:26:17Z</time>
      </trkpt>
      <trkpt lat="42.8905" lon="0.04902">
        <ele>1097.9</ele>
        <time>2019-08-18T10:26:19Z</time>
      </trkpt>
      <trkpt lat="42.89051" lon="0.04909">
        <ele>1098.5</ele>
        <time>2019-08-18T10:26:21Z</time>
      </trkpt>
      <trkpt lat="42.89051" lon="0.04916">
        <ele>1099.2</ele>
        <time>2019-08-18T10:26:23Z</time>
      </trkpt>
      <trkpt lat="42.89052" lon="0.04923">
        <ele>1099.8</ele>
        <time>2019-08-18T10:26:25Z</time>
      </trkpt>
      <trkpt lat="42.89052" lon="0.0493">
        <ele>1101.2</ele>
        <time>2019-08-18T10:26:27Z</time>
      </trkpt>
      <trkpt lat="42.89053" lon="0.04937">
        <ele>1102.3</ele>
        <time>2019-08-18T10:26:29Z</time>
      </trkpt>
      <trkpt lat="42.89053" lon="0.04944">
        <ele>1103.4</ele>
        <time>2019-08-18T10:26:31Z</time>
      </trkpt>
      <trkpt lat="42.89053" lon="0.04947">
        <ele>1104</ele>
        <time>2019-08-18T10:26:32Z</time>
      </trkpt>
      <trkpt lat="42.89054" lon="0.04951">
        <ele>1104.6</ele>
        <time>2019-08-18T10:26:33Z</time>
      </trkpt>
      <trkpt lat="42.89054" lon="0.04955">
        <ele>1105.2</ele>
        <time>2019-08-18T10:26:34Z</time>
      </trkpt>
      <trkpt lat="42.89055" lon="0.04959">
        <ele>1105.8</ele>
        <time>2019-08-18T10:26:35Z</time>
      </trkpt>
      <trkpt lat="42.89055" lon="0.04963">
        <ele>1106.6</ele>
        <time>2019-08-18T10:26:36Z</time>
      </trkpt>
      <trkpt lat="42.89056" lon="0.04966">
        <ele>1107.5</ele>
        <time>2019-08-18T10:26:37Z</time>
      </trkpt>
      <trkpt lat="42.89059" lon="0.04973">
        <ele>1108.5</ele>
        <time>2019-08-18T10:26:39Z</time>
      </trkpt>
      <trkpt lat="42.89061" lon="0.04978">
        <ele>1109.3</ele>
        <time>2019-08-18T10:26:41Z</time>
      </trkpt>
      <trkpt lat="42.89064" lon="0.04984">
        <ele>1110.2</ele>
        <time>2019-08-18T10:26:43Z</time>
      </trkpt>
      <trkpt lat="42.89067" lon="0.0499">
        <ele>1111.1</ele>
        <time>2019-08-18T10:26:45Z</time>
      </trkpt>
      <trkpt lat="42.8907" lon="0.04995">
        <ele>1111.9</ele>
        <time>2019-08-18T10:26:47Z</time>
      </trkpt>
      <trkpt lat="42.89072" lon="0.04998">
        <ele>1112.3</ele>
        <time>2019-08-18T10:26:48Z</time>
      </trkpt>
      <trkpt lat="42.89074" lon="0.05001">
        <ele>1112.7</ele>
        <time>2019-08-18T10:26:49Z</time>
      </trkpt>
      <trkpt lat="42.89076" lon="0.05004">
        <ele>1113.1</ele>
        <time>2019-08-18T10:26:50Z</time>
      </trkpt>
      <trkpt lat="42.89078" lon="0.05006">
        <ele>1113.4</ele>
        <time>2019-08-18T10:26:51Z</time>
      </trkpt>
      <trkpt lat="42.8908" lon="0.05009">
        <ele>1113.9</ele>
        <time>2019-08-18T10:26:52Z</time>
      </trkpt>
      <trkpt lat="42.89082" lon="0.05012">
        <ele>1114.3</ele>
        <time>2019-08-18T10:26:53Z</time>
      </trkpt>
      <trkpt lat="42.89085" lon="0.05014">
        <ele>1114.8</ele>
        <time>2019-08-18T10:26:54Z</time>
      </trkpt>
      <trkpt lat="42.89087" lon="0.05017">
        <ele>1115.1</ele>
        <time>2019-08-18T10:26:55Z</time>
      </trkpt>
      <trkpt lat="42.8909" lon="0.05022">
        <ele>1115.3</ele>
        <time>2019-08-18T10:26:57Z</time>
      </trkpt>
      <trkpt lat="42.89094" lon="0.05027">
        <ele>1115.6</ele>
        <time>2019-08-18T10:26:59Z</time>
      </trkpt>
      <trkpt lat="42.89097" lon="0.05032">
        <ele>1115.9</ele>
        <time>2019-08-18T10:27:01Z</time>
      </trkpt>
      <trkpt lat="42.89099" lon="0.05035">
        <ele>1116</ele>
        <time>2019-08-18T10:27:02Z</time>
      </trkpt>
      <trkpt lat="42.89103" lon="0.0504">
        <ele>1116.3</ele>
        <time>2019-08-18T10:27:04Z</time>
      </trkpt>
      <trkpt lat="42.89106" lon="0.05045">
        <ele>1116.6</ele>
        <time>2019-08-18T10:27:06Z</time>
      </trkpt>
      <trkpt lat="42.89109" lon="0.0505">
        <ele>1116.8</ele>
        <time>2019-08-18T10:27:08Z</time>
      </trkpt>
      <trkpt lat="42.89113" lon="0.05055">
        <ele>1117.1</ele>
        <time>2019-08-18T10:27:10Z</time>
      </trkpt>
      <trkpt lat="42.89116" lon="0.05058">
        <ele>1117.2</ele>
        <time>2019-08-18T10:27:11Z</time>
      </trkpt>
      <trkpt lat="42.89119" lon="0.05062">
        <ele>1117.4</ele>
        <time>2019-08-18T10:27:13Z</time>
      </trkpt>
      <trkpt lat="42.89122" lon="0.05065">
        <ele>1117.5</ele>
        <time>2019-08-18T10:27:14Z</time>
      </trkpt>
      <trkpt lat="42.89124" lon="0.05067">
        <ele>1117.6</ele>
        <time>2019-08-18T10:27:15Z</time>
      </trkpt>
      <trkpt lat="42.89126" lon="0.05069">
        <ele>1117.7</ele>
        <time>2019-08-18T10:27:16Z</time>
      </trkpt>
      <trkpt lat="42.89129" lon="0.0507">
        <ele>1117.8</ele>
        <time>2019-08-18T10:27:17Z</time>
      </trkpt>
      <trkpt lat="42.89131" lon="0.05072">
        <ele>1117.8</ele>
        <time>2019-08-18T10:27:18Z</time>
      </trkpt>
      <trkpt lat="42.89134" lon="0.05074">
        <ele>1117.9</ele>
        <time>2019-08-18T10:27:19Z</time>
      </trkpt>
      <trkpt lat="42.89137" lon="0.05075">
        <ele>1118</ele>
        <time>2019-08-18T10:27:20Z</time>
      </trkpt>
      <trkpt lat="42.89139" lon="0.05077">
        <ele>1118.1</ele>
        <time>2019-08-18T10:27:21Z</time>
      </trkpt>
      <trkpt lat="42.89144" lon="0.05079">
        <ele>1118.3</ele>
        <time>2019-08-18T10:27:23Z</time>
      </trkpt>
      <trkpt lat="42.89149" lon="0.05081">
        <ele>1118.4</ele>
        <time>2019-08-18T10:27:25Z</time>
      </trkpt>
      <trkpt lat="42.89154" lon="0.05082">
        <ele>1118.6</ele>
        <time>2019-08-18T10:27:27Z</time>
      </trkpt>
      <trkpt lat="42.89157" lon="0.05083">
        <ele>1118.6</ele>
        <time>2019-08-18T10:27:28Z</time>
      </trkpt>
      <trkpt lat="42.89159" lon="0.05085">
        <ele>1118.7</ele>
        <time>2019-08-18T10:27:29Z</time>
      </trkpt>
      <trkpt lat="42.89162" lon="0.05086">
        <ele>1118.8</ele>
        <time>2019-08-18T10:27:30Z</time>
      </trkpt>
      <trkpt lat="42.89164" lon="0.05088">
        <ele>1118.9</ele>
        <time>2019-08-18T10:27:31Z</time>
      </trkpt>
      <trkpt lat="42.89167" lon="0.05089">
        <ele>1118.9</ele>
        <time>2019-08-18T10:27:32Z</time>
      </trkpt>
      <trkpt lat="42.8917" lon="0.05091">
        <ele>1119</ele>
        <time>2019-08-18T10:27:33Z</time>
      </trkpt>
      <trkpt lat="42.89172" lon="0.05092">
        <ele>1119.1</ele>
        <time>2019-08-18T10:27:34Z</time>
      </trkpt>
      <trkpt lat="42.89175" lon="0.05094">
        <ele>1119.2</ele>
        <time>2019-08-18T10:27:35Z</time>
      </trkpt>
      <trkpt lat="42.89178" lon="0.05095">
        <ele>1119.3</ele>
        <time>2019-08-18T10:27:36Z</time>
      </trkpt>
      <trkpt lat="42.89182" lon="0.05098">
        <ele>1119.5</ele>
        <time>2019-08-18T10:27:38Z</time>
      </trkpt>
      <trkpt lat="42.89185" lon="0.05099">
        <ele>1119.5</ele>
        <time>2019-08-18T10:27:39Z</time>
      </trkpt>
      <trkpt lat="42.89189" lon="0.05102">
        <ele>1119.7</ele>
        <time>2019-08-18T10:27:41Z</time>
      </trkpt>
      <trkpt lat="42.89193" lon="0.05104">
        <ele>1119.9</ele>
        <time>2019-08-18T10:27:43Z</time>
      </trkpt>
      <trkpt lat="42.89197" lon="0.05108">
        <ele>1120</ele>
        <time>2019-08-18T10:27:45Z</time>
      </trkpt>
      <trkpt lat="42.89201" lon="0.05113">
        <ele>1120.2</ele>
        <time>2019-08-18T10:27:47Z</time>
      </trkpt>
      <trkpt lat="42.89204" lon="0.05117">
        <ele>1120.4</ele>
        <time>2019-08-18T10:27:49Z</time>
      </trkpt>
      <trkpt lat="42.89207" lon="0.05123">
        <ele>1121.2</ele>
        <time>2019-08-18T10:27:51Z</time>
      </trkpt>
      <trkpt lat="42.8921" lon="0.05128">
        <ele>1121.9</ele>
        <time>2019-08-18T10:27:53Z</time>
      </trkpt>
      <trkpt lat="42.89212" lon="0.05134">
        <ele>1122.5</ele>
        <time>2019-08-18T10:27:55Z</time>
      </trkpt>
      <trkpt lat="42.89215" lon="0.0514">
        <ele>1123.2</ele>
        <time>2019-08-18T10:27:57Z</time>
      </trkpt>
      <trkpt lat="42.89216" lon="0.05145">
        <ele>1123.7</ele>
        <time>2019-08-18T10:27:59Z</time>
      </trkpt>
      <trkpt lat="42.89219" lon="0.05151">
        <ele>1124.4</ele>
        <time>2019-08-18T10:28:01Z</time>
      </trkpt>
      <trkpt lat="42.89222" lon="0.05156">
        <ele>1125.1</ele>
        <time>2019-08-18T10:28:03Z</time>
      </trkpt>
      <trkpt lat="42.89225" lon="0.05162">
        <ele>1125.5</ele>
        <time>2019-08-18T10:28:05Z</time>
      </trkpt>
      <trkpt lat="42.89227" lon="0.05168">
        <ele>1126</ele>
        <time>2019-08-18T10:28:07Z</time>
      </trkpt>
      <trkpt lat="42.8923" lon="0.05173">
        <ele>1126.4</ele>
        <time>2019-08-18T10:28:09Z</time>
      </trkpt>
      <trkpt lat="42.89233" lon="0.05179">
        <ele>1126.9</ele>
        <time>2019-08-18T10:28:11Z</time>
      </trkpt>
      <trkpt lat="42.89236" lon="0.05185">
        <ele>1127.5</ele>
        <time>2019-08-18T10:28:13Z</time>
      </trkpt>
      <trkpt lat="42.89239" lon="0.05191">
        <ele>1127.9</ele>
        <time>2019-08-18T10:28:15Z</time>
      </trkpt>
      <trkpt lat="42.89241" lon="0.05197">
        <ele>1128.4</ele>
        <time>2019-08-18T10:28:17Z</time>
      </trkpt>
      <trkpt lat="42.89243" lon="0.05202">
        <ele>1128.8</ele>
        <time>2019-08-18T10:28:19Z</time>
      </trkpt>
      <trkpt lat="42.89245" lon="0.05208">
        <ele>1129.2</ele>
        <time>2019-08-18T10:28:21Z</time>
      </trkpt>
      <trkpt lat="42.89248" lon="0.05214">
        <ele>1129.7</ele>
        <time>2019-08-18T10:28:23Z</time>
      </trkpt>
      <trkpt lat="42.8925" lon="0.05219">
        <ele>1130.5</ele>
        <time>2019-08-18T10:28:25Z</time>
      </trkpt>
      <trkpt lat="42.89252" lon="0.05224">
        <ele>1131.1</ele>
        <time>2019-08-18T10:28:27Z</time>
      </trkpt>
      <trkpt lat="42.89256" lon="0.0523">
        <ele>1131.8</ele>
        <time>2019-08-18T10:28:29Z</time>
      </trkpt>
      <trkpt lat="42.89259" lon="0.05236">
        <ele>1132.5</ele>
        <time>2019-08-18T10:28:31Z</time>
      </trkpt>
      <trkpt lat="42.89262" lon="0.05241">
        <ele>1133.1</ele>
        <time>2019-08-18T10:28:33Z</time>
      </trkpt>
      <trkpt lat="42.89265" lon="0.05246">
        <ele>1133.6</ele>
        <time>2019-08-18T10:28:35Z</time>
      </trkpt>
      <trkpt lat="42.89268" lon="0.05252">
        <ele>1134.2</ele>
        <time>2019-08-18T10:28:37Z</time>
      </trkpt>
      <trkpt lat="42.8927" lon="0.05257">
        <ele>1134.7</ele>
        <time>2019-08-18T10:28:39Z</time>
      </trkpt>
      <trkpt lat="42.89272" lon="0.05263">
        <ele>1135.2</ele>
        <time>2019-08-18T10:28:41Z</time>
      </trkpt>
      <trkpt lat="42.89274" lon="0.05268">
        <ele>1135.7</ele>
        <time>2019-08-18T10:28:43Z</time>
      </trkpt>
      <trkpt lat="42.89276" lon="0.05273">
        <ele>1136.2</ele>
        <time>2019-08-18T10:28:45Z</time>
      </trkpt>
      <trkpt lat="42.89278" lon="0.0528">
        <ele>1136.8</ele>
        <time>2019-08-18T10:28:47Z</time>
      </trkpt>
      <trkpt lat="42.89279" lon="0.05286">
        <ele>1137.3</ele>
        <time>2019-08-18T10:28:49Z</time>
      </trkpt>
      <trkpt lat="42.89281" lon="0.05293">
        <ele>1137.9</ele>
        <time>2019-08-18T10:28:51Z</time>
      </trkpt>
      <trkpt lat="42.89283" lon="0.053">
        <ele>1138.6</ele>
        <time>2019-08-18T10:28:53Z</time>
      </trkpt>
      <trkpt lat="42.89283" lon="0.05303">
        <ele>1139</ele>
        <time>2019-08-18T10:28:54Z</time>
      </trkpt>
      <trkpt lat="42.89284" lon="0.05307">
        <ele>1139.3</ele>
        <time>2019-08-18T10:28:55Z</time>
      </trkpt>
      <trkpt lat="42.89285" lon="0.05314">
        <ele>1140</ele>
        <time>2019-08-18T10:28:57Z</time>
      </trkpt>
      <trkpt lat="42.89285" lon="0.05321">
        <ele>1140.6</ele>
        <time>2019-08-18T10:28:59Z</time>
      </trkpt>
      <trkpt lat="42.89286" lon="0.05328">
        <ele>1141.2</ele>
        <time>2019-08-18T10:29:01Z</time>
      </trkpt>
      <trkpt lat="42.89287" lon="0.05335">
        <ele>1141.8</ele>
        <time>2019-08-18T10:29:03Z</time>
      </trkpt>
      <trkpt lat="42.89287" lon="0.0534">
        <ele>1142.4</ele>
        <time>2019-08-18T10:29:05Z</time>
      </trkpt>
      <trkpt lat="42.89287" lon="0.05347">
        <ele>1142.9</ele>
        <time>2019-08-18T10:29:07Z</time>
      </trkpt>
      <trkpt lat="42.89287" lon="0.05353">
        <ele>1143.5</ele>
        <time>2019-08-18T10:29:09Z</time>
      </trkpt>
      <trkpt lat="42.89287" lon="0.0536">
        <ele>1144</ele>
        <time>2019-08-18T10:29:11Z</time>
      </trkpt>
      <trkpt lat="42.89288" lon="0.05367">
        <ele>1144.6</ele>
        <time>2019-08-18T10:29:13Z</time>
      </trkpt>
      <trkpt lat="42.89289" lon="0.05371">
        <ele>1145</ele>
        <time>2019-08-18T10:29:14Z</time>
      </trkpt>
      <trkpt lat="42.8929" lon="0.05377">
        <ele>1145.5</ele>
        <time>2019-08-18T10:29:16Z</time>
      </trkpt>
      <trkpt lat="42.89291" lon="0.05381">
        <ele>1145.8</ele>
        <time>2019-08-18T10:29:17Z</time>
      </trkpt>
      <trkpt lat="42.89293" lon="0.05385">
        <ele>1146.2</ele>
        <time>2019-08-18T10:29:18Z</time>
      </trkpt>
      <trkpt lat="42.89294" lon="0.05388">
        <ele>1146.5</ele>
        <time>2019-08-18T10:29:19Z</time>
      </trkpt>
      <trkpt lat="42.89296" lon="0.05394">
        <ele>1147</ele>
        <time>2019-08-18T10:29:21Z</time>
      </trkpt>
      <trkpt lat="42.89298" lon="0.05398">
        <ele>1147.4</ele>
        <time>2019-08-18T10:29:22Z</time>
      </trkpt>
      <trkpt lat="42.89299" lon="0.05401">
        <ele>1147.6</ele>
        <time>2019-08-18T10:29:23Z</time>
      </trkpt>
      <trkpt lat="42.89302" lon="0.05408">
        <ele>1148.2</ele>
        <time>2019-08-18T10:29:25Z</time>
      </trkpt>
      <trkpt lat="42.89305" lon="0.05414">
        <ele>1148.7</ele>
        <time>2019-08-18T10:29:27Z</time>
      </trkpt>
      <trkpt lat="42.89306" lon="0.05418">
        <ele>1149</ele>
        <time>2019-08-18T10:29:28Z</time>
      </trkpt>
      <trkpt lat="42.89307" lon="0.05421">
        <ele>1149.3</ele>
        <time>2019-08-18T10:29:29Z</time>
      </trkpt>
      <trkpt lat="42.89309" lon="0.05425">
        <ele>1149.5</ele>
        <time>2019-08-18T10:29:30Z</time>
      </trkpt>
      <trkpt lat="42.89311" lon="0.05429">
        <ele>1149.9</ele>
        <time>2019-08-18T10:29:31Z</time>
      </trkpt>
      <trkpt lat="42.89313" lon="0.05432">
        <ele>1150.2</ele>
        <time>2019-08-18T10:29:32Z</time>
      </trkpt>
      <trkpt lat="42.89315" lon="0.05436">
        <ele>1150.5</ele>
        <time>2019-08-18T10:29:33Z</time>
      </trkpt>
      <trkpt lat="42.89317" lon="0.05439">
        <ele>1150.8</ele>
        <time>2019-08-18T10:29:34Z</time>
      </trkpt>
      <trkpt lat="42.89319" lon="0.05442">
        <ele>1151.1</ele>
        <time>2019-08-18T10:29:35Z</time>
      </trkpt>
      <trkpt lat="42.89321" lon="0.05446">
        <ele>1151.5</ele>
        <time>2019-08-18T10:29:36Z</time>
      </trkpt>
      <trkpt lat="42.89322" lon="0.05449">
        <ele>1151.8</ele>
        <time>2019-08-18T10:29:37Z</time>
      </trkpt>
      <trkpt lat="42.89324" lon="0.05452">
        <ele>1152.1</ele>
        <time>2019-08-18T10:29:38Z</time>
      </trkpt>
      <trkpt lat="42.89326" lon="0.05455">
        <ele>1152.4</ele>
        <time>2019-08-18T10:29:39Z</time>
      </trkpt>
      <trkpt lat="42.89328" lon="0.05458">
        <ele>1152.7</ele>
        <time>2019-08-18T10:29:40Z</time>
      </trkpt>
      <trkpt lat="42.89329" lon="0.05461">
        <ele>1153</ele>
        <time>2019-08-18T10:29:41Z</time>
      </trkpt>
      <trkpt lat="42.89331" lon="0.05464">
        <ele>1153.3</ele>
        <time>2019-08-18T10:29:42Z</time>
      </trkpt>
      <trkpt lat="42.89334" lon="0.05469">
        <ele>1154</ele>
        <time>2019-08-18T10:29:44Z</time>
      </trkpt>
      <trkpt lat="42.89337" lon="0.05474">
        <ele>1154.8</ele>
        <time>2019-08-18T10:29:46Z</time>
      </trkpt>
      <trkpt lat="42.89339" lon="0.0548">
        <ele>1155.7</ele>
        <time>2019-08-18T10:29:48Z</time>
      </trkpt>
      <trkpt lat="42.89342" lon="0.05486">
        <ele>1156.8</ele>
        <time>2019-08-18T10:29:50Z</time>
      </trkpt>
      <trkpt lat="42.89345" lon="0.05493">
        <ele>1158.1</ele>
        <time>2019-08-18T10:29:52Z</time>
      </trkpt>
      <trkpt lat="42.89348" lon="0.05499">
        <ele>1159.5</ele>
        <time>2019-08-18T10:29:54Z</time>
      </trkpt>
      <trkpt lat="42.89351" lon="0.05504">
        <ele>1160.9</ele>
        <time>2019-08-18T10:29:56Z</time>
      </trkpt>
      <trkpt lat="42.89353" lon="0.05507">
        <ele>1161.7</ele>
        <time>2019-08-18T10:29:57Z</time>
      </trkpt>
      <trkpt lat="42.89354" lon="0.0551">
        <ele>1162.5</ele>
        <time>2019-08-18T10:29:58Z</time>
      </trkpt>
      <trkpt lat="42.89357" lon="0.05516">
        <ele>1163.1</ele>
        <time>2019-08-18T10:30:00Z</time>
      </trkpt>
      <trkpt lat="42.8936" lon="0.05522">
        <ele>1163.2</ele>
        <time>2019-08-18T10:30:02Z</time>
      </trkpt>
      <trkpt lat="42.89363" lon="0.05527">
        <ele>1163.3</ele>
        <time>2019-08-18T10:30:04Z</time>
      </trkpt>
      <trkpt lat="42.89366" lon="0.05532">
        <ele>1163.3</ele>
        <time>2019-08-18T10:30:06Z</time>
      </trkpt>
      <trkpt lat="42.89369" lon="0.05537">
        <ele>1163.4</ele>
        <time>2019-08-18T10:30:08Z</time>
      </trkpt>
      <trkpt lat="42.89372" lon="0.05542">
        <ele>1163.5</ele>
        <time>2019-08-18T10:30:10Z</time>
      </trkpt>
      <trkpt lat="42.89374" lon="0.05546">
        <ele>1163.5</ele>
        <time>2019-08-18T10:30:12Z</time>
      </trkpt>
      <trkpt lat="42.89375" lon="0.05552">
        <ele>1163.6</ele>
        <time>2019-08-18T10:30:14Z</time>
      </trkpt>
      <trkpt lat="42.89377" lon="0.05557">
        <ele>1163.7</ele>
        <time>2019-08-18T10:30:16Z</time>
      </trkpt>
      <trkpt lat="42.89379" lon="0.05562">
        <ele>1163.8</ele>
        <time>2019-08-18T10:30:18Z</time>
      </trkpt>
      <trkpt lat="42.89381" lon="0.05566">
        <ele>1163.9</ele>
        <time>2019-08-18T10:30:20Z</time>
      </trkpt>
      <trkpt lat="42.89383" lon="0.05571">
        <ele>1163.9</ele>
        <time>2019-08-18T10:30:22Z</time>
      </trkpt>
      <trkpt lat="42.89385" lon="0.05576">
        <ele>1164</ele>
        <time>2019-08-18T10:30:24Z</time>
      </trkpt>
      <trkpt lat="42.89387" lon="0.05581">
        <ele>1164.1</ele>
        <time>2019-08-18T10:30:26Z</time>
      </trkpt>
      <trkpt lat="42.89389" lon="0.05586">
        <ele>1164.2</ele>
        <time>2019-08-18T10:30:28Z</time>
      </trkpt>
      <trkpt lat="42.89391" lon="0.05591">
        <ele>1164.3</ele>
        <time>2019-08-18T10:30:30Z</time>
      </trkpt>
      <trkpt lat="42.89393" lon="0.05596">
        <ele>1164.4</ele>
        <time>2019-08-18T10:30:32Z</time>
      </trkpt>
      <trkpt lat="42.89394" lon="0.05601">
        <ele>1164.4</ele>
        <time>2019-08-18T10:30:34Z</time>
      </trkpt>
      <trkpt lat="42.89396" lon="0.05606">
        <ele>1164.5</ele>
        <time>2019-08-18T10:30:36Z</time>
      </trkpt>
      <trkpt lat="42.89398" lon="0.05612">
        <ele>1164.6</ele>
        <time>2019-08-18T10:30:38Z</time>
      </trkpt>
      <trkpt lat="42.89401" lon="0.05617">
        <ele>1164.6</ele>
        <time>2019-08-18T10:30:40Z</time>
      </trkpt>
      <trkpt lat="42.89402" lon="0.05622">
        <ele>1164.7</ele>
        <time>2019-08-18T10:30:42Z</time>
      </trkpt>
      <trkpt lat="42.89404" lon="0.05627">
        <ele>1164.8</ele>
        <time>2019-08-18T10:30:44Z</time>
      </trkpt>
      <trkpt lat="42.89407" lon="0.05631">
        <ele>1164.8</ele>
        <time>2019-08-18T10:30:46Z</time>
      </trkpt>
      <trkpt lat="42.8941" lon="0.05636">
        <ele>1164.9</ele>
        <time>2019-08-18T10:30:48Z</time>
      </trkpt>
      <trkpt lat="42.89411" lon="0.05641">
        <ele>1165.2</ele>
        <time>2019-08-18T10:30:50Z</time>
      </trkpt>
      <trkpt lat="42.89413" lon="0.05647">
        <ele>1165.6</ele>
        <time>2019-08-18T10:30:52Z</time>
      </trkpt>
      <trkpt lat="42.89415" lon="0.05652">
        <ele>1166</ele>
        <time>2019-08-18T10:30:54Z</time>
      </trkpt>
      <trkpt lat="42.89417" lon="0.05657">
        <ele>1166.4</ele>
        <time>2019-08-18T10:30:56Z</time>
      </trkpt>
      <trkpt lat="42.89418" lon="0.05663">
        <ele>1166.8</ele>
        <time>2019-08-18T10:30:58Z</time>
      </trkpt>
      <trkpt lat="42.8942" lon="0.05668">
        <ele>1167.1</ele>
        <time>2019-08-18T10:31:00Z</time>
      </trkpt>
      <trkpt lat="42.89422" lon="0.05674">
        <ele>1167.8</ele>
        <time>2019-08-18T10:31:02Z</time>
      </trkpt>
      <trkpt lat="42.89423" lon="0.0568">
        <ele>1168.2</ele>
        <time>2019-08-18T10:31:04Z</time>
      </trkpt>
      <trkpt lat="42.89425" lon="0.05686">
        <ele>1168.7</ele>
        <time>2019-08-18T10:31:06Z</time>
      </trkpt>
      <trkpt lat="42.89427" lon="0.05692">
        <ele>1169.1</ele>
        <time>2019-08-18T10:31:08Z</time>
      </trkpt>
      <trkpt lat="42.89428" lon="0.05697">
        <ele>1169.5</ele>
        <time>2019-08-18T10:31:10Z</time>
      </trkpt>
      <trkpt lat="42.89429" lon="0.05703">
        <ele>1169.9</ele>
        <time>2019-08-18T10:31:12Z</time>
      </trkpt>
      <trkpt lat="42.89431" lon="0.05708">
        <ele>1170.3</ele>
        <time>2019-08-18T10:31:14Z</time>
      </trkpt>
      <trkpt lat="42.89433" lon="0.05713">
        <ele>1170.8</ele>
        <time>2019-08-18T10:31:16Z</time>
      </trkpt>
      <trkpt lat="42.89435" lon="0.05718">
        <ele>1171.3</ele>
        <time>2019-08-18T10:31:18Z</time>
      </trkpt>
      <trkpt lat="42.89437" lon="0.05723">
        <ele>1171.8</ele>
        <time>2019-08-18T10:31:20Z</time>
      </trkpt>
      <trkpt lat="42.89439" lon="0.05728">
        <ele>1172.3</ele>
        <time>2019-08-18T10:31:22Z</time>
      </trkpt>
      <trkpt lat="42.89441" lon="0.05733">
        <ele>1172.9</ele>
        <time>2019-08-18T10:31:24Z</time>
      </trkpt>
      <trkpt lat="42.89443" lon="0.05739">
        <ele>1173.5</ele>
        <time>2019-08-18T10:31:26Z</time>
      </trkpt>
      <trkpt lat="42.89445" lon="0.05745">
        <ele>1174.6</ele>
        <time>2019-08-18T10:31:28Z</time>
      </trkpt>
      <trkpt lat="42.89448" lon="0.0575">
        <ele>1175.1</ele>
        <time>2019-08-18T10:31:30Z</time>
      </trkpt>
      <trkpt lat="42.8945" lon="0.05755">
        <ele>1175.5</ele>
        <time>2019-08-18T10:31:32Z</time>
      </trkpt>
      <trkpt lat="42.89453" lon="0.0576">
        <ele>1175.9</ele>
        <time>2019-08-18T10:31:34Z</time>
      </trkpt>
      <trkpt lat="42.89456" lon="0.05765">
        <ele>1176.4</ele>
        <time>2019-08-18T10:31:36Z</time>
      </trkpt>
      <trkpt lat="42.89459" lon="0.0577">
        <ele>1176.8</ele>
        <time>2019-08-18T10:31:38Z</time>
      </trkpt>
      <trkpt lat="42.8946" lon="0.05775">
        <ele>1177.2</ele>
        <time>2019-08-18T10:31:40Z</time>
      </trkpt>
      <trkpt lat="42.89463" lon="0.0578">
        <ele>1177.6</ele>
        <time>2019-08-18T10:31:42Z</time>
      </trkpt>
      <trkpt lat="42.89467" lon="0.05785">
        <ele>1178.1</ele>
        <time>2019-08-18T10:31:44Z</time>
      </trkpt>
      <trkpt lat="42.8947" lon="0.0579">
        <ele>1178.5</ele>
        <time>2019-08-18T10:31:46Z</time>
      </trkpt>
      <trkpt lat="42.89473" lon="0.05795">
        <ele>1178.9</ele>
        <time>2019-08-18T10:31:48Z</time>
      </trkpt>
      <trkpt lat="42.89476" lon="0.058">
        <ele>1179.3</ele>
        <time>2019-08-18T10:31:50Z</time>
      </trkpt>
      <trkpt lat="42.8948" lon="0.05805">
        <ele>1179.7</ele>
        <time>2019-08-18T10:31:52Z</time>
      </trkpt>
      <trkpt lat="42.89483" lon="0.05809">
        <ele>1180.2</ele>
        <time>2019-08-18T10:31:54Z</time>
      </trkpt>
      <trkpt lat="42.89487" lon="0.05814">
        <ele>1180.6</ele>
        <time>2019-08-18T10:31:56Z</time>
      </trkpt>
      <trkpt lat="42.8949" lon="0.05819">
        <ele>1181</ele>
        <time>2019-08-18T10:31:58Z</time>
      </trkpt>
      <trkpt lat="42.89493" lon="0.05822">
        <ele>1181.2</ele>
        <time>2019-08-18T10:31:59Z</time>
      </trkpt>
      <trkpt lat="42.89497" lon="0.05826">
        <ele>1181.6</ele>
        <time>2019-08-18T10:32:01Z</time>
      </trkpt>
      <trkpt lat="42.895" lon="0.05831">
        <ele>1182.1</ele>
        <time>2019-08-18T10:32:03Z</time>
      </trkpt>
      <trkpt lat="42.89508" lon="0.0584">
        <ele>1183</ele>
        <time>2019-08-18T10:32:07Z</time>
      </trkpt>
      <trkpt lat="42.89512" lon="0.05843">
        <ele>1183.4</ele>
        <time>2019-08-18T10:32:09Z</time>
      </trkpt>
      <trkpt lat="42.89516" lon="0.05845">
        <ele>1183.8</ele>
        <time>2019-08-18T10:32:11Z</time>
      </trkpt>
      <trkpt lat="42.89521" lon="0.05848">
        <ele>1184.2</ele>
        <time>2019-08-18T10:32:13Z</time>
      </trkpt>
      <trkpt lat="42.89525" lon="0.0585">
        <ele>1184.3</ele>
        <time>2019-08-18T10:32:15Z</time>
      </trkpt>
      <trkpt lat="42.8953" lon="0.05852">
        <ele>1184.5</ele>
        <time>2019-08-18T10:32:17Z</time>
      </trkpt>
      <trkpt lat="42.89534" lon="0.05854">
        <ele>1184.9</ele>
        <time>2019-08-18T10:32:19Z</time>
      </trkpt>
      <trkpt lat="42.89538" lon="0.05857">
        <ele>1185.2</ele>
        <time>2019-08-18T10:32:21Z</time>
      </trkpt>
      <trkpt lat="42.89542" lon="0.05859">
        <ele>1185.5</ele>
        <time>2019-08-18T10:32:23Z</time>
      </trkpt>
      <trkpt lat="42.89547" lon="0.05862">
        <ele>1185.8</ele>
        <time>2019-08-18T10:32:25Z</time>
      </trkpt>
      <trkpt lat="42.89552" lon="0.05865">
        <ele>1186.1</ele>
        <time>2019-08-18T10:32:27Z</time>
      </trkpt>
      <trkpt lat="42.89556" lon="0.05869">
        <ele>1186.4</ele>
        <time>2019-08-18T10:32:29Z</time>
      </trkpt>
      <trkpt lat="42.89559" lon="0.05872">
        <ele>1187.1</ele>
        <time>2019-08-18T10:32:31Z</time>
      </trkpt>
      <trkpt lat="42.89561" lon="0.05877">
        <ele>1187.9</ele>
        <time>2019-08-18T10:32:33Z</time>
      </trkpt>
      <trkpt lat="42.89563" lon="0.05883">
        <ele>1188.7</ele>
        <time>2019-08-18T10:32:35Z</time>
      </trkpt>
      <trkpt lat="42.89562" lon="0.05889">
        <ele>1189.5</ele>
        <time>2019-08-18T10:32:37Z</time>
      </trkpt>
      <trkpt lat="42.8956" lon="0.05895">
        <ele>1190.1</ele>
        <time>2019-08-18T10:32:39Z</time>
      </trkpt>
      <trkpt lat="42.89558" lon="0.05898">
        <ele>1190.3</ele>
        <time>2019-08-18T10:32:40Z</time>
      </trkpt>
      <trkpt lat="42.89554" lon="0.05901">
        <ele>1190.6</ele>
        <time>2019-08-18T10:32:42Z</time>
      </trkpt>
      <trkpt lat="42.8955" lon="0.05903">
        <ele>1190.8</ele>
        <time>2019-08-18T10:32:44Z</time>
      </trkpt>
      <trkpt lat="42.89546" lon="0.05903">
        <ele>1190.8</ele>
        <time>2019-08-18T10:32:46Z</time>
      </trkpt>
      <trkpt lat="42.89541" lon="0.05902">
        <ele>1190.7</ele>
        <time>2019-08-18T10:32:48Z</time>
      </trkpt>
      <trkpt lat="42.89538" lon="0.05901">
        <ele>1190.6</ele>
        <time>2019-08-18T10:32:50Z</time>
      </trkpt>
      <trkpt lat="42.89533" lon="0.05898">
        <ele>1190.4</ele>
        <time>2019-08-18T10:32:52Z</time>
      </trkpt>
      <trkpt lat="42.89529" lon="0.05895">
        <ele>1190.2</ele>
        <time>2019-08-18T10:32:54Z</time>
      </trkpt>
      <trkpt lat="42.89525" lon="0.05892">
        <ele>1189.9</ele>
        <time>2019-08-18T10:32:56Z</time>
      </trkpt>
      <trkpt lat="42.8952" lon="0.05889">
        <ele>1190.2</ele>
        <time>2019-08-18T10:32:58Z</time>
      </trkpt>
      <trkpt lat="42.89517" lon="0.05888">
        <ele>1190.4</ele>
        <time>2019-08-18T10:32:59Z</time>
      </trkpt>
      <trkpt lat="42.89512" lon="0.05888">
        <ele>1190.6</ele>
        <time>2019-08-18T10:33:01Z</time>
      </trkpt>
      <trkpt lat="42.89509" lon="0.05888">
        <ele>1190.8</ele>
        <time>2019-08-18T10:33:02Z</time>
      </trkpt>
      <trkpt lat="42.89506" lon="0.05889">
        <ele>1190.9</ele>
        <time>2019-08-18T10:33:03Z</time>
      </trkpt>
      <trkpt lat="42.89503" lon="0.0589">
        <ele>1191</ele>
        <time>2019-08-18T10:33:04Z</time>
      </trkpt>
      <trkpt lat="42.895" lon="0.05892">
        <ele>1191.2</ele>
        <time>2019-08-18T10:33:05Z</time>
      </trkpt>
      <trkpt lat="42.89496" lon="0.05896">
        <ele>1191.4</ele>
        <time>2019-08-18T10:33:07Z</time>
      </trkpt>
      <trkpt lat="42.89494" lon="0.05898">
        <ele>1191.6</ele>
        <time>2019-08-18T10:33:08Z</time>
      </trkpt>
      <trkpt lat="42.89493" lon="0.05902">
        <ele>1191.7</ele>
        <time>2019-08-18T10:33:09Z</time>
      </trkpt>
      <trkpt lat="42.89491" lon="0.05905">
        <ele>1191.9</ele>
        <time>2019-08-18T10:33:10Z</time>
      </trkpt>
      <trkpt lat="42.89489" lon="0.0591">
        <ele>1192.1</ele>
        <time>2019-08-18T10:33:12Z</time>
      </trkpt>
      <trkpt lat="42.89489" lon="0.05917">
        <ele>1192.3</ele>
        <time>2019-08-18T10:33:14Z</time>
      </trkpt>
      <trkpt lat="42.89489" lon="0.05924">
        <ele>1192.5</ele>
        <time>2019-08-18T10:33:16Z</time>
      </trkpt>
      <trkpt lat="42.89489" lon="0.05928">
        <ele>1192.6</ele>
        <time>2019-08-18T10:33:17Z</time>
      </trkpt>
      <trkpt lat="42.89491" lon="0.05932">
        <ele>1192.7</ele>
        <time>2019-08-18T10:33:18Z</time>
      </trkpt>
      <trkpt lat="42.89493" lon="0.05938">
        <ele>1192.9</ele>
        <time>2019-08-18T10:33:20Z</time>
      </trkpt>
      <trkpt lat="42.89495" lon="0.05941">
        <ele>1193</ele>
        <time>2019-08-18T10:33:21Z</time>
      </trkpt>
      <trkpt lat="42.89497" lon="0.05944">
        <ele>1193.2</ele>
        <time>2019-08-18T10:33:22Z</time>
      </trkpt>
      <trkpt lat="42.89499" lon="0.05947">
        <ele>1193.3</ele>
        <time>2019-08-18T10:33:23Z</time>
      </trkpt>
      <trkpt lat="42.89501" lon="0.05949">
        <ele>1193.5</ele>
        <time>2019-08-18T10:33:24Z</time>
      </trkpt>
      <trkpt lat="42.89504" lon="0.05952">
        <ele>1193.6</ele>
        <time>2019-08-18T10:33:25Z</time>
      </trkpt>
      <trkpt lat="42.89507" lon="0.05953">
        <ele>1193.7</ele>
        <time>2019-08-18T10:33:26Z</time>
      </trkpt>
      <trkpt lat="42.8951" lon="0.05954">
        <ele>1193.9</ele>
        <time>2019-08-18T10:33:27Z</time>
      </trkpt>
      <trkpt lat="42.89513" lon="0.05955">
        <ele>1194</ele>
        <time>2019-08-18T10:33:28Z</time>
      </trkpt>
      <trkpt lat="42.89516" lon="0.05955">
        <ele>1194.2</ele>
        <time>2019-08-18T10:33:29Z</time>
      </trkpt>
      <trkpt lat="42.89519" lon="0.05955">
        <ele>1194.3</ele>
        <time>2019-08-18T10:33:30Z</time>
      </trkpt>
      <trkpt lat="42.89522" lon="0.05954">
        <ele>1194.5</ele>
        <time>2019-08-18T10:33:31Z</time>
      </trkpt>
      <trkpt lat="42.89525" lon="0.05953">
        <ele>1194.6</ele>
        <time>2019-08-18T10:33:32Z</time>
      </trkpt>
      <trkpt lat="42.89528" lon="0.05953">
        <ele>1194.7</ele>
        <time>2019-08-18T10:33:33Z</time>
      </trkpt>
      <trkpt lat="42.89533" lon="0.05951">
        <ele>1195</ele>
        <time>2019-08-18T10:33:35Z</time>
      </trkpt>
      <trkpt lat="42.89538" lon="0.05949">
        <ele>1195.2</ele>
        <time>2019-08-18T10:33:37Z</time>
      </trkpt>
      <trkpt lat="42.89542" lon="0.05947">
        <ele>1195.4</ele>
        <time>2019-08-18T10:33:39Z</time>
      </trkpt>
      <trkpt lat="42.89547" lon="0.05946">
        <ele>1195.7</ele>
        <time>2019-08-18T10:33:41Z</time>
      </trkpt>
      <trkpt lat="42.8955" lon="0.05944">
        <ele>1195.8</ele>
        <time>2019-08-18T10:33:42Z</time>
      </trkpt>
      <trkpt lat="42.89555" lon="0.05942">
        <ele>1196.2</ele>
        <time>2019-08-18T10:33:44Z</time>
      </trkpt>
      <trkpt lat="42.8956" lon="0.05942">
        <ele>1196.5</ele>
        <time>2019-08-18T10:33:46Z</time>
      </trkpt>
      <trkpt lat="42.89563" lon="0.05943">
        <ele>1196.7</ele>
        <time>2019-08-18T10:33:47Z</time>
      </trkpt>
      <trkpt lat="42.89567" lon="0.05945">
        <ele>1197</ele>
        <time>2019-08-18T10:33:49Z</time>
      </trkpt>
      <trkpt lat="42.8957" lon="0.05947">
        <ele>1197.1</ele>
        <time>2019-08-18T10:33:50Z</time>
      </trkpt>
      <trkpt lat="42.89573" lon="0.05948">
        <ele>1197.3</ele>
        <time>2019-08-18T10:33:51Z</time>
      </trkpt>
      <trkpt lat="42.89578" lon="0.05951">
        <ele>1197.6</ele>
        <time>2019-08-18T10:33:53Z</time>
      </trkpt>
      <trkpt lat="42.8958" lon="0.05953">
        <ele>1197.8</ele>
        <time>2019-08-18T10:33:54Z</time>
      </trkpt>
      <trkpt lat="42.89583" lon="0.05954">
        <ele>1198</ele>
        <time>2019-08-18T10:33:55Z</time>
      </trkpt>
      <trkpt lat="42.89585" lon="0.05957">
        <ele>1198.2</ele>
        <time>2019-08-18T10:33:56Z</time>
      </trkpt>
      <trkpt lat="42.89587" lon="0.05959">
        <ele>1198.3</ele>
        <time>2019-08-18T10:33:57Z</time>
      </trkpt>
      <trkpt lat="42.89589" lon="0.05962">
        <ele>1198.5</ele>
        <time>2019-08-18T10:33:58Z</time>
      </trkpt>
      <trkpt lat="42.89592" lon="0.05967">
        <ele>1199.1</ele>
        <time>2019-08-18T10:34:00Z</time>
      </trkpt>
      <trkpt lat="42.89594" lon="0.05973">
        <ele>1199.9</ele>
        <time>2019-08-18T10:34:02Z</time>
      </trkpt>
      <trkpt lat="42.89597" lon="0.0598">
        <ele>1200.8</ele>
        <time>2019-08-18T10:34:04Z</time>
      </trkpt>
      <trkpt lat="42.89598" lon="0.05984">
        <ele>1201.2</ele>
        <time>2019-08-18T10:34:05Z</time>
      </trkpt>
      <trkpt lat="42.89599" lon="0.05991">
        <ele>1202</ele>
        <time>2019-08-18T10:34:07Z</time>
      </trkpt>
      <trkpt lat="42.89599" lon="0.05995">
        <ele>1202.5</ele>
        <time>2019-08-18T10:34:08Z</time>
      </trkpt>
      <trkpt lat="42.89599" lon="0.05998">
        <ele>1203.4</ele>
        <time>2019-08-18T10:34:09Z</time>
      </trkpt>
      <trkpt lat="42.89599" lon="0.06005">
        <ele>1203.9</ele>
        <time>2019-08-18T10:34:11Z</time>
      </trkpt>
      <trkpt lat="42.89599" lon="0.06009">
        <ele>1204.1</ele>
        <time>2019-08-18T10:34:12Z</time>
      </trkpt>
      <trkpt lat="42.89598" lon="0.06012">
        <ele>1204.4</ele>
        <time>2019-08-18T10:34:13Z</time>
      </trkpt>
      <trkpt lat="42.89598" lon="0.06016">
        <ele>1205</ele>
        <time>2019-08-18T10:34:14Z</time>
      </trkpt>
      <trkpt lat="42.89598" lon="0.0602">
        <ele>1205.6</ele>
        <time>2019-08-18T10:34:15Z</time>
      </trkpt>
      <trkpt lat="42.89598" lon="0.06027">
        <ele>1206.6</ele>
        <time>2019-08-18T10:34:17Z</time>
      </trkpt>
      <trkpt lat="42.89599" lon="0.06031">
        <ele>1207.1</ele>
        <time>2019-08-18T10:34:18Z</time>
      </trkpt>
      <trkpt lat="42.89601" lon="0.06037">
        <ele>1208</ele>
        <time>2019-08-18T10:34:20Z</time>
      </trkpt>
      <trkpt lat="42.89602" lon="0.06043">
        <ele>1208.6</ele>
        <time>2019-08-18T10:34:22Z</time>
      </trkpt>
      <trkpt lat="42.89603" lon="0.0605">
        <ele>1209.1</ele>
        <time>2019-08-18T10:34:24Z</time>
      </trkpt>
      <trkpt lat="42.89604" lon="0.06057">
        <ele>1209.6</ele>
        <time>2019-08-18T10:34:26Z</time>
      </trkpt>
      <trkpt lat="42.89604" lon="0.06064">
        <ele>1209.9</ele>
        <time>2019-08-18T10:34:28Z</time>
      </trkpt>
      <trkpt lat="42.89604" lon="0.0607">
        <ele>1210.2</ele>
        <time>2019-08-18T10:34:30Z</time>
      </trkpt>
      <trkpt lat="42.89604" lon="0.06077">
        <ele>1210.6</ele>
        <time>2019-08-18T10:34:32Z</time>
      </trkpt>
      <trkpt lat="42.89605" lon="0.06084">
        <ele>1210.9</ele>
        <time>2019-08-18T10:34:34Z</time>
      </trkpt>
      <trkpt lat="42.89605" lon="0.06087">
        <ele>1211.5</ele>
        <time>2019-08-18T10:34:35Z</time>
      </trkpt>
      <trkpt lat="42.89606" lon="0.06095">
        <ele>1211.9</ele>
        <time>2019-08-18T10:34:37Z</time>
      </trkpt>
      <trkpt lat="42.89606" lon="0.06098">
        <ele>1212.1</ele>
        <time>2019-08-18T10:34:38Z</time>
      </trkpt>
      <trkpt lat="42.89606" lon="0.06102">
        <ele>1212.3</ele>
        <time>2019-08-18T10:34:39Z</time>
      </trkpt>
      <trkpt lat="42.89607" lon="0.06109">
        <ele>1212.8</ele>
        <time>2019-08-18T10:34:41Z</time>
      </trkpt>
      <trkpt lat="42.89607" lon="0.06113">
        <ele>1213</ele>
        <time>2019-08-18T10:34:42Z</time>
      </trkpt>
      <trkpt lat="42.89608" lon="0.06117">
        <ele>1213.8</ele>
        <time>2019-08-18T10:34:43Z</time>
      </trkpt>
      <trkpt lat="42.89609" lon="0.06121">
        <ele>1214.1</ele>
        <time>2019-08-18T10:34:44Z</time>
      </trkpt>
      <trkpt lat="42.89609" lon="0.06124">
        <ele>1214.5</ele>
        <time>2019-08-18T10:34:45Z</time>
      </trkpt>
      <trkpt lat="42.8961" lon="0.06129">
        <ele>1214.9</ele>
        <time>2019-08-18T10:34:46Z</time>
      </trkpt>
      <trkpt lat="42.8961" lon="0.06133">
        <ele>1215.2</ele>
        <time>2019-08-18T10:34:47Z</time>
      </trkpt>
      <trkpt lat="42.8961" lon="0.06137">
        <ele>1215.6</ele>
        <time>2019-08-18T10:34:48Z</time>
      </trkpt>
      <trkpt lat="42.8961" lon="0.06141">
        <ele>1215.9</ele>
        <time>2019-08-18T10:34:49Z</time>
      </trkpt>
      <trkpt lat="42.89609" lon="0.06148">
        <ele>1216.6</ele>
        <time>2019-08-18T10:34:51Z</time>
      </trkpt>
      <trkpt lat="42.89609" lon="0.06155">
        <ele>1217.2</ele>
        <time>2019-08-18T10:34:53Z</time>
      </trkpt>
      <trkpt lat="42.8961" lon="0.06159">
        <ele>1217.6</ele>
        <time>2019-08-18T10:34:54Z</time>
      </trkpt>
      <trkpt lat="42.89611" lon="0.06163">
        <ele>1217.9</ele>
        <time>2019-08-18T10:34:55Z</time>
      </trkpt>
      <trkpt lat="42.89612" lon="0.06167">
        <ele>1218.3</ele>
        <time>2019-08-18T10:34:56Z</time>
      </trkpt>
      <trkpt lat="42.89613" lon="0.06174">
        <ele>1218.9</ele>
        <time>2019-08-18T10:34:58Z</time>
      </trkpt>
      <trkpt lat="42.89613" lon="0.06178">
        <ele>1219.3</ele>
        <time>2019-08-18T10:34:59Z</time>
      </trkpt>
      <trkpt lat="42.89613" lon="0.06182">
        <ele>1219.6</ele>
        <time>2019-08-18T10:35:00Z</time>
      </trkpt>
      <trkpt lat="42.89614" lon="0.06186">
        <ele>1219.9</ele>
        <time>2019-08-18T10:35:01Z</time>
      </trkpt>
      <trkpt lat="42.89614" lon="0.0619">
        <ele>1220.2</ele>
        <time>2019-08-18T10:35:02Z</time>
      </trkpt>
      <trkpt lat="42.89615" lon="0.06194">
        <ele>1220.5</ele>
        <time>2019-08-18T10:35:03Z</time>
      </trkpt>
      <trkpt lat="42.89615" lon="0.06198">
        <ele>1220.8</ele>
        <time>2019-08-18T10:35:04Z</time>
      </trkpt>
      <trkpt lat="42.89616" lon="0.06202">
        <ele>1221.1</ele>
        <time>2019-08-18T10:35:05Z</time>
      </trkpt>
      <trkpt lat="42.89616" lon="0.06208">
        <ele>1221.5</ele>
        <time>2019-08-18T10:35:07Z</time>
      </trkpt>
      <trkpt lat="42.89616" lon="0.06213">
        <ele>1221.9</ele>
        <time>2019-08-18T10:35:09Z</time>
      </trkpt>
      <trkpt lat="42.89615" lon="0.06219">
        <ele>1223</ele>
        <time>2019-08-18T10:35:11Z</time>
      </trkpt>
      <trkpt lat="42.89615" lon="0.06226">
        <ele>1223.8</ele>
        <time>2019-08-18T10:35:13Z</time>
      </trkpt>
      <trkpt lat="42.89616" lon="0.0623">
        <ele>1224.3</ele>
        <time>2019-08-18T10:35:14Z</time>
      </trkpt>
      <trkpt lat="42.89616" lon="0.06234">
        <ele>1224.6</ele>
        <time>2019-08-18T10:35:15Z</time>
      </trkpt>
      <trkpt lat="42.89617" lon="0.06237">
        <ele>1225</ele>
        <time>2019-08-18T10:35:16Z</time>
      </trkpt>
      <trkpt lat="42.89617" lon="0.06241">
        <ele>1225.3</ele>
        <time>2019-08-18T10:35:17Z</time>
      </trkpt>
      <trkpt lat="42.89618" lon="0.06246">
        <ele>1225.7</ele>
        <time>2019-08-18T10:35:18Z</time>
      </trkpt>
      <trkpt lat="42.89618" lon="0.0625">
        <ele>1226</ele>
        <time>2019-08-18T10:35:19Z</time>
      </trkpt>
      <trkpt lat="42.89618" lon="0.06254">
        <ele>1226.4</ele>
        <time>2019-08-18T10:35:20Z</time>
      </trkpt>
      <trkpt lat="42.89618" lon="0.06258">
        <ele>1226.8</ele>
        <time>2019-08-18T10:35:21Z</time>
      </trkpt>
      <trkpt lat="42.89619" lon="0.06262">
        <ele>1227.2</ele>
        <time>2019-08-18T10:35:22Z</time>
      </trkpt>
      <trkpt lat="42.89619" lon="0.06265">
        <ele>1227.6</ele>
        <time>2019-08-18T10:35:23Z</time>
      </trkpt>
      <trkpt lat="42.89619" lon="0.06272">
        <ele>1228.3</ele>
        <time>2019-08-18T10:35:25Z</time>
      </trkpt>
      <trkpt lat="42.8962" lon="0.06279">
        <ele>1229.1</ele>
        <time>2019-08-18T10:35:27Z</time>
      </trkpt>
      <trkpt lat="42.89621" lon="0.06286">
        <ele>1230</ele>
        <time>2019-08-18T10:35:29Z</time>
      </trkpt>
      <trkpt lat="42.89621" lon="0.0629">
        <ele>1230.5</ele>
        <time>2019-08-18T10:35:30Z</time>
      </trkpt>
      <trkpt lat="42.89621" lon="0.06297">
        <ele>1231.4</ele>
        <time>2019-08-18T10:35:32Z</time>
      </trkpt>
      <trkpt lat="42.89621" lon="0.06301">
        <ele>1231.8</ele>
        <time>2019-08-18T10:35:33Z</time>
      </trkpt>
      <trkpt lat="42.89621" lon="0.06308">
        <ele>1232.5</ele>
        <time>2019-08-18T10:35:35Z</time>
      </trkpt>
      <trkpt lat="42.89622" lon="0.06312">
        <ele>1232.9</ele>
        <time>2019-08-18T10:35:36Z</time>
      </trkpt>
      <trkpt lat="42.89622" lon="0.06316">
        <ele>1233.3</ele>
        <time>2019-08-18T10:35:37Z</time>
      </trkpt>
      <trkpt lat="42.89622" lon="0.06327">
        <ele>1234.4</ele>
        <time>2019-08-18T10:35:40Z</time>
      </trkpt>
      <trkpt lat="42.89623" lon="0.06333">
        <ele>1235</ele>
        <time>2019-08-18T10:35:42Z</time>
      </trkpt>
      <trkpt lat="42.89624" lon="0.0634">
        <ele>1235.4</ele>
        <time>2019-08-18T10:35:44Z</time>
      </trkpt>
      <trkpt lat="42.89625" lon="0.06347">
        <ele>1235.7</ele>
        <time>2019-08-18T10:35:46Z</time>
      </trkpt>
      <trkpt lat="42.89627" lon="0.06354">
        <ele>1235.9</ele>
        <time>2019-08-18T10:35:48Z</time>
      </trkpt>
      <trkpt lat="42.89629" lon="0.06361">
        <ele>1236.1</ele>
        <time>2019-08-18T10:35:50Z</time>
      </trkpt>
      <trkpt lat="42.89632" lon="0.06367">
        <ele>1236.4</ele>
        <time>2019-08-18T10:35:52Z</time>
      </trkpt>
      <trkpt lat="42.89635" lon="0.06373">
        <ele>1236.7</ele>
        <time>2019-08-18T10:35:54Z</time>
      </trkpt>
      <trkpt lat="42.89636" lon="0.06376">
        <ele>1236.9</ele>
        <time>2019-08-18T10:35:55Z</time>
      </trkpt>
      <trkpt lat="42.89638" lon="0.06379">
        <ele>1237</ele>
        <time>2019-08-18T10:35:56Z</time>
      </trkpt>
      <trkpt lat="42.89639" lon="0.06382">
        <ele>1237.1</ele>
        <time>2019-08-18T10:35:57Z</time>
      </trkpt>
      <trkpt lat="42.89642" lon="0.06388">
        <ele>1237.3</ele>
        <time>2019-08-18T10:35:59Z</time>
      </trkpt>
      <trkpt lat="42.89645" lon="0.06394">
        <ele>1237.5</ele>
        <time>2019-08-18T10:36:01Z</time>
      </trkpt>
      <trkpt lat="42.89646" lon="0.06397">
        <ele>1237.6</ele>
        <time>2019-08-18T10:36:02Z</time>
      </trkpt>
      <trkpt lat="42.89649" lon="0.06403">
        <ele>1237.8</ele>
        <time>2019-08-18T10:36:04Z</time>
      </trkpt>
      <trkpt lat="42.89651" lon="0.06409">
        <ele>1237.9</ele>
        <time>2019-08-18T10:36:06Z</time>
      </trkpt>
      <trkpt lat="42.89653" lon="0.06413">
        <ele>1238</ele>
        <time>2019-08-18T10:36:07Z</time>
      </trkpt>
      <trkpt lat="42.89654" lon="0.06415">
        <ele>1238.1</ele>
        <time>2019-08-18T10:36:08Z</time>
      </trkpt>
      <trkpt lat="42.89656" lon="0.06422">
        <ele>1238.2</ele>
        <time>2019-08-18T10:36:10Z</time>
      </trkpt>
      <trkpt lat="42.89657" lon="0.06425">
        <ele>1238.3</ele>
        <time>2019-08-18T10:36:11Z</time>
      </trkpt>
      <trkpt lat="42.89657" lon="0.06429">
        <ele>1238.6</ele>
        <time>2019-08-18T10:36:12Z</time>
      </trkpt>
      <trkpt lat="42.89657" lon="0.06433">
        <ele>1238.8</ele>
        <time>2019-08-18T10:36:13Z</time>
      </trkpt>
      <trkpt lat="42.89657" lon="0.06436">
        <ele>1239.1</ele>
        <time>2019-08-18T10:36:14Z</time>
      </trkpt>
      <trkpt lat="42.89659" lon="0.0644">
        <ele>1239.3</ele>
        <time>2019-08-18T10:36:15Z</time>
      </trkpt>
      <trkpt lat="42.89661" lon="0.06446">
        <ele>1239.7</ele>
        <time>2019-08-18T10:36:17Z</time>
      </trkpt>
      <trkpt lat="42.89664" lon="0.06452">
        <ele>1240.2</ele>
        <time>2019-08-18T10:36:19Z</time>
      </trkpt>
      <trkpt lat="42.89667" lon="0.06457">
        <ele>1240.7</ele>
        <time>2019-08-18T10:36:21Z</time>
      </trkpt>
      <trkpt lat="42.8967" lon="0.06462">
        <ele>1241.1</ele>
        <time>2019-08-18T10:36:23Z</time>
      </trkpt>
      <trkpt lat="42.89672" lon="0.06469">
        <ele>1241.8</ele>
        <time>2019-08-18T10:36:25Z</time>
      </trkpt>
      <trkpt lat="42.89674" lon="0.06476">
        <ele>1242.2</ele>
        <time>2019-08-18T10:36:27Z</time>
      </trkpt>
      <trkpt lat="42.89675" lon="0.06483">
        <ele>1242.6</ele>
        <time>2019-08-18T10:36:29Z</time>
      </trkpt>
      <trkpt lat="42.89675" lon="0.06487">
        <ele>1242.8</ele>
        <time>2019-08-18T10:36:30Z</time>
      </trkpt>
      <trkpt lat="42.89677" lon="0.06491">
        <ele>1243.1</ele>
        <time>2019-08-18T10:36:31Z</time>
      </trkpt>
      <trkpt lat="42.89678" lon="0.06495">
        <ele>1243.3</ele>
        <time>2019-08-18T10:36:32Z</time>
      </trkpt>
      <trkpt lat="42.89679" lon="0.06498">
        <ele>1243.5</ele>
        <time>2019-08-18T10:36:33Z</time>
      </trkpt>
      <trkpt lat="42.8968" lon="0.06501">
        <ele>1243.7</ele>
        <time>2019-08-18T10:36:34Z</time>
      </trkpt>
      <trkpt lat="42.89683" lon="0.06507">
        <ele>1244.1</ele>
        <time>2019-08-18T10:36:36Z</time>
      </trkpt>
      <trkpt lat="42.89685" lon="0.06513">
        <ele>1244.5</ele>
        <time>2019-08-18T10:36:38Z</time>
      </trkpt>
      <trkpt lat="42.89688" lon="0.06518">
        <ele>1244.8</ele>
        <time>2019-08-18T10:36:40Z</time>
      </trkpt>
      <trkpt lat="42.8969" lon="0.06521">
        <ele>1245.1</ele>
        <time>2019-08-18T10:36:41Z</time>
      </trkpt>
      <trkpt lat="42.89691" lon="0.06524">
        <ele>1245.3</ele>
        <time>2019-08-18T10:36:42Z</time>
      </trkpt>
      <trkpt lat="42.89694" lon="0.06531">
        <ele>1245.7</ele>
        <time>2019-08-18T10:36:44Z</time>
      </trkpt>
      <trkpt lat="42.89695" lon="0.06535">
        <ele>1246</ele>
        <time>2019-08-18T10:36:45Z</time>
      </trkpt>
      <trkpt lat="42.89696" lon="0.06539">
        <ele>1246.2</ele>
        <time>2019-08-18T10:36:46Z</time>
      </trkpt>
      <trkpt lat="42.89698" lon="0.06542">
        <ele>1246.4</ele>
        <time>2019-08-18T10:36:47Z</time>
      </trkpt>
      <trkpt lat="42.89699" lon="0.06546">
        <ele>1246.7</ele>
        <time>2019-08-18T10:36:48Z</time>
      </trkpt>
      <trkpt lat="42.89701" lon="0.0655">
        <ele>1246.9</ele>
        <time>2019-08-18T10:36:49Z</time>
      </trkpt>
      <trkpt lat="42.89702" lon="0.06554">
        <ele>1247.2</ele>
        <time>2019-08-18T10:36:50Z</time>
      </trkpt>
      <trkpt lat="42.89704" lon="0.06557">
        <ele>1247.4</ele>
        <time>2019-08-18T10:36:51Z</time>
      </trkpt>
      <trkpt lat="42.89705" lon="0.06561">
        <ele>1247.6</ele>
        <time>2019-08-18T10:36:52Z</time>
      </trkpt>
      <trkpt lat="42.89708" lon="0.06566">
        <ele>1248</ele>
        <time>2019-08-18T10:36:54Z</time>
      </trkpt>
      <trkpt lat="42.89711" lon="0.06572">
        <ele>1248.3</ele>
        <time>2019-08-18T10:36:56Z</time>
      </trkpt>
      <trkpt lat="42.89714" lon="0.06579">
        <ele>1248.6</ele>
        <time>2019-08-18T10:36:58Z</time>
      </trkpt>
      <trkpt lat="42.89716" lon="0.06585">
        <ele>1248.8</ele>
        <time>2019-08-18T10:37:00Z</time>
      </trkpt>
      <trkpt lat="42.89716" lon="0.06589">
        <ele>1248.8</ele>
        <time>2019-08-18T10:37:01Z</time>
      </trkpt>
      <trkpt lat="42.89717" lon="0.06595">
        <ele>1248.9</ele>
        <time>2019-08-18T10:37:03Z</time>
      </trkpt>
      <trkpt lat="42.89719" lon="0.06601">
        <ele>1248.9</ele>
        <time>2019-08-18T10:37:05Z</time>
      </trkpt>
      <trkpt lat="42.8973" lon="0.06618">
        <ele>1249.5</ele>
        <time>2019-08-18T10:40:56Z</time>
      </trkpt>
      <trkpt lat="42.89732" lon="0.06621">
        <ele>1249.6</ele>
        <time>2019-08-18T10:40:57Z</time>
      </trkpt>
      <trkpt lat="42.89733" lon="0.06625">
        <ele>1249.7</ele>
        <time>2019-08-18T10:40:58Z</time>
      </trkpt>
      <trkpt lat="42.89735" lon="0.06628">
        <ele>1249.8</ele>
        <time>2019-08-18T10:40:59Z</time>
      </trkpt>
      <trkpt lat="42.89738" lon="0.0663">
        <ele>1249.9</ele>
        <time>2019-08-18T10:41:00Z</time>
      </trkpt>
      <trkpt lat="42.8974" lon="0.06633">
        <ele>1250</ele>
        <time>2019-08-18T10:41:01Z</time>
      </trkpt>
      <trkpt lat="42.89743" lon="0.06636">
        <ele>1250.1</ele>
        <time>2019-08-18T10:41:02Z</time>
      </trkpt>
      <trkpt lat="42.89745" lon="0.06642">
        <ele>1250.3</ele>
        <time>2019-08-18T10:41:04Z</time>
      </trkpt>
      <trkpt lat="42.89745" lon="0.06646">
        <ele>1250.4</ele>
        <time>2019-08-18T10:41:05Z</time>
      </trkpt>
      <trkpt lat="42.89746" lon="0.06649">
        <ele>1250.5</ele>
        <time>2019-08-18T10:41:06Z</time>
      </trkpt>
      <trkpt lat="42.89747" lon="0.06653">
        <ele>1250.6</ele>
        <time>2019-08-18T10:41:07Z</time>
      </trkpt>
      <trkpt lat="42.89749" lon="0.0666">
        <ele>1250.8</ele>
        <time>2019-08-18T10:41:09Z</time>
      </trkpt>
      <trkpt lat="42.8975" lon="0.06664">
        <ele>1250.9</ele>
        <time>2019-08-18T10:41:10Z</time>
      </trkpt>
      <trkpt lat="42.89751" lon="0.06668">
        <ele>1251</ele>
        <time>2019-08-18T10:41:11Z</time>
      </trkpt>
      <trkpt lat="42.89752" lon="0.06672">
        <ele>1251.1</ele>
        <time>2019-08-18T10:41:12Z</time>
      </trkpt>
      <trkpt lat="42.89753" lon="0.06676">
        <ele>1251.3</ele>
        <time>2019-08-18T10:41:13Z</time>
      </trkpt>
      <trkpt lat="42.89754" lon="0.06679">
        <ele>1251.5</ele>
        <time>2019-08-18T10:41:14Z</time>
      </trkpt>
      <trkpt lat="42.89755" lon="0.06683">
        <ele>1251.6</ele>
        <time>2019-08-18T10:41:15Z</time>
      </trkpt>
      <trkpt lat="42.89756" lon="0.06687">
        <ele>1251.8</ele>
        <time>2019-08-18T10:41:16Z</time>
      </trkpt>
      <trkpt lat="42.89757" lon="0.0669">
        <ele>1252</ele>
        <time>2019-08-18T10:41:17Z</time>
      </trkpt>
      <trkpt lat="42.89758" lon="0.06694">
        <ele>1252.2</ele>
        <time>2019-08-18T10:41:18Z</time>
      </trkpt>
      <trkpt lat="42.89759" lon="0.06697">
        <ele>1252.4</ele>
        <time>2019-08-18T10:41:19Z</time>
      </trkpt>
      <trkpt lat="42.89762" lon="0.06704">
        <ele>1252.8</ele>
        <time>2019-08-18T10:41:21Z</time>
      </trkpt>
      <trkpt lat="42.89763" lon="0.06708">
        <ele>1253.1</ele>
        <time>2019-08-18T10:41:22Z</time>
      </trkpt>
      <trkpt lat="42.89764" lon="0.06711">
        <ele>1253.4</ele>
        <time>2019-08-18T10:41:23Z</time>
      </trkpt>
      <trkpt lat="42.89766" lon="0.06714">
        <ele>1253.6</ele>
        <time>2019-08-18T10:41:24Z</time>
      </trkpt>
      <trkpt lat="42.89768" lon="0.06721">
        <ele>1254.1</ele>
        <time>2019-08-18T10:41:26Z</time>
      </trkpt>
      <trkpt lat="42.89769" lon="0.06725">
        <ele>1254.3</ele>
        <time>2019-08-18T10:41:27Z</time>
      </trkpt>
      <trkpt lat="42.8977" lon="0.06728">
        <ele>1254.9</ele>
        <time>2019-08-18T10:41:28Z</time>
      </trkpt>
      <trkpt lat="42.89772" lon="0.06735">
        <ele>1255.5</ele>
        <time>2019-08-18T10:41:30Z</time>
      </trkpt>
      <trkpt lat="42.89774" lon="0.06741">
        <ele>1256.1</ele>
        <time>2019-08-18T10:41:32Z</time>
      </trkpt>
      <trkpt lat="42.89775" lon="0.06748">
        <ele>1256.6</ele>
        <time>2019-08-18T10:41:34Z</time>
      </trkpt>
      <trkpt lat="42.89776" lon="0.06755">
        <ele>1257.5</ele>
        <time>2019-08-18T10:41:36Z</time>
      </trkpt>
      <trkpt lat="42.89777" lon="0.06763">
        <ele>1258.2</ele>
        <time>2019-08-18T10:41:38Z</time>
      </trkpt>
      <trkpt lat="42.89777" lon="0.0677">
        <ele>1258.8</ele>
        <time>2019-08-18T10:41:40Z</time>
      </trkpt>
      <trkpt lat="42.89777" lon="0.06777">
        <ele>1259.9</ele>
        <time>2019-08-18T10:41:42Z</time>
      </trkpt>
      <trkpt lat="42.89778" lon="0.06784">
        <ele>1261</ele>
        <time>2019-08-18T10:41:44Z</time>
      </trkpt>
      <trkpt lat="42.89778" lon="0.06788">
        <ele>1261.6</ele>
        <time>2019-08-18T10:41:45Z</time>
      </trkpt>
      <trkpt lat="42.89778" lon="0.06795">
        <ele>1262.7</ele>
        <time>2019-08-18T10:41:47Z</time>
      </trkpt>
      <trkpt lat="42.89779" lon="0.06801">
        <ele>1263.6</ele>
        <time>2019-08-18T10:41:49Z</time>
      </trkpt>
      <trkpt lat="42.89779" lon="0.06808">
        <ele>1264.5</ele>
        <time>2019-08-18T10:41:51Z</time>
      </trkpt>
      <trkpt lat="42.8978" lon="0.06814">
        <ele>1265.1</ele>
        <time>2019-08-18T10:41:53Z</time>
      </trkpt>
      <trkpt lat="42.89781" lon="0.0682">
        <ele>1265.6</ele>
        <time>2019-08-18T10:41:55Z</time>
      </trkpt>
      <trkpt lat="42.89782" lon="0.06827">
        <ele>1266</ele>
        <time>2019-08-18T10:41:57Z</time>
      </trkpt>
      <trkpt lat="42.89783" lon="0.06833">
        <ele>1266.4</ele>
        <time>2019-08-18T10:41:59Z</time>
      </trkpt>
      <trkpt lat="42.89784" lon="0.06839">
        <ele>1266.8</ele>
        <time>2019-08-18T10:42:01Z</time>
      </trkpt>
      <trkpt lat="42.89785" lon="0.06845">
        <ele>1267.2</ele>
        <time>2019-08-18T10:42:03Z</time>
      </trkpt>
      <trkpt lat="42.89786" lon="0.06851">
        <ele>1267.6</ele>
        <time>2019-08-18T10:42:05Z</time>
      </trkpt>
      <trkpt lat="42.89787" lon="0.06857">
        <ele>1268.2</ele>
        <time>2019-08-18T10:42:07Z</time>
      </trkpt>
      <trkpt lat="42.89788" lon="0.06864">
        <ele>1268.8</ele>
        <time>2019-08-18T10:42:09Z</time>
      </trkpt>
      <trkpt lat="42.89789" lon="0.0687">
        <ele>1269.4</ele>
        <time>2019-08-18T10:42:11Z</time>
      </trkpt>
      <trkpt lat="42.89791" lon="0.06877">
        <ele>1270</ele>
        <time>2019-08-18T10:42:13Z</time>
      </trkpt>
      <trkpt lat="42.89792" lon="0.06883">
        <ele>1270.5</ele>
        <time>2019-08-18T10:42:15Z</time>
      </trkpt>
      <trkpt lat="42.89792" lon="0.06889">
        <ele>1270.9</ele>
        <time>2019-08-18T10:42:17Z</time>
      </trkpt>
      <trkpt lat="42.89793" lon="0.06895">
        <ele>1271.3</ele>
        <time>2019-08-18T10:42:19Z</time>
      </trkpt>
      <trkpt lat="42.89795" lon="0.06901">
        <ele>1271.6</ele>
        <time>2019-08-18T10:42:21Z</time>
      </trkpt>
      <trkpt lat="42.89797" lon="0.06907">
        <ele>1272</ele>
        <time>2019-08-18T10:42:23Z</time>
      </trkpt>
      <trkpt lat="42.89798" lon="0.06914">
        <ele>1272.3</ele>
        <time>2019-08-18T10:42:25Z</time>
      </trkpt>
      <trkpt lat="42.89799" lon="0.0692">
        <ele>1272.6</ele>
        <time>2019-08-18T10:42:27Z</time>
      </trkpt>
      <trkpt lat="42.89801" lon="0.06926">
        <ele>1273.1</ele>
        <time>2019-08-18T10:42:29Z</time>
      </trkpt>
      <trkpt lat="42.89802" lon="0.06932">
        <ele>1273.7</ele>
        <time>2019-08-18T10:42:31Z</time>
      </trkpt>
      <trkpt lat="42.89803" lon="0.06938">
        <ele>1274.3</ele>
        <time>2019-08-18T10:42:33Z</time>
      </trkpt>
      <trkpt lat="42.89804" lon="0.06944">
        <ele>1275</ele>
        <time>2019-08-18T10:42:35Z</time>
      </trkpt>
      <trkpt lat="42.89804" lon="0.0695">
        <ele>1275.7</ele>
        <time>2019-08-18T10:42:37Z</time>
      </trkpt>
      <trkpt lat="42.89805" lon="0.06955">
        <ele>1276.4</ele>
        <time>2019-08-18T10:42:39Z</time>
      </trkpt>
      <trkpt lat="42.89806" lon="0.0696">
        <ele>1277.1</ele>
        <time>2019-08-18T10:42:41Z</time>
      </trkpt>
      <trkpt lat="42.89807" lon="0.06965">
        <ele>1277.7</ele>
        <time>2019-08-18T10:42:43Z</time>
      </trkpt>
      <trkpt lat="42.89809" lon="0.06971">
        <ele>1278</ele>
        <time>2019-08-18T10:42:45Z</time>
      </trkpt>
      <trkpt lat="42.8981" lon="0.06977">
        <ele>1278.4</ele>
        <time>2019-08-18T10:42:47Z</time>
      </trkpt>
      <trkpt lat="42.8981" lon="0.06983">
        <ele>1278.8</ele>
        <time>2019-08-18T10:42:49Z</time>
      </trkpt>
      <trkpt lat="42.89811" lon="0.06989">
        <ele>1279.2</ele>
        <time>2019-08-18T10:42:51Z</time>
      </trkpt>
      <trkpt lat="42.89811" lon="0.06995">
        <ele>1279.6</ele>
        <time>2019-08-18T10:42:53Z</time>
      </trkpt>
      <trkpt lat="42.89812" lon="0.07001">
        <ele>1279.9</ele>
        <time>2019-08-18T10:42:55Z</time>
      </trkpt>
      <trkpt lat="42.89813" lon="0.07007">
        <ele>1280.3</ele>
        <time>2019-08-18T10:42:57Z</time>
      </trkpt>
      <trkpt lat="42.89814" lon="0.07013">
        <ele>1280.8</ele>
        <time>2019-08-18T10:42:59Z</time>
      </trkpt>
      <trkpt lat="42.89815" lon="0.07019">
        <ele>1281.2</ele>
        <time>2019-08-18T10:43:01Z</time>
      </trkpt>
      <trkpt lat="42.89815" lon="0.07025">
        <ele>1281.6</ele>
        <time>2019-08-18T10:43:03Z</time>
      </trkpt>
      <trkpt lat="42.89816" lon="0.07032">
        <ele>1282</ele>
        <time>2019-08-18T10:43:05Z</time>
      </trkpt>
      <trkpt lat="42.89816" lon="0.07038">
        <ele>1282.4</ele>
        <time>2019-08-18T10:43:07Z</time>
      </trkpt>
      <trkpt lat="42.89817" lon="0.07044">
        <ele>1282.8</ele>
        <time>2019-08-18T10:43:09Z</time>
      </trkpt>
      <trkpt lat="42.89818" lon="0.07049">
        <ele>1283</ele>
        <time>2019-08-18T10:43:11Z</time>
      </trkpt>
      <trkpt lat="42.89819" lon="0.07054">
        <ele>1283.3</ele>
        <time>2019-08-18T10:43:13Z</time>
      </trkpt>
      <trkpt lat="42.8982" lon="0.07059">
        <ele>1283.6</ele>
        <time>2019-08-18T10:43:15Z</time>
      </trkpt>
      <trkpt lat="42.89821" lon="0.07064">
        <ele>1283.9</ele>
        <time>2019-08-18T10:43:17Z</time>
      </trkpt>
      <trkpt lat="42.89821" lon="0.0707">
        <ele>1284.2</ele>
        <time>2019-08-18T10:43:19Z</time>
      </trkpt>
      <trkpt lat="42.89822" lon="0.07076">
        <ele>1284.5</ele>
        <time>2019-08-18T10:43:21Z</time>
      </trkpt>
      <trkpt lat="42.89823" lon="0.07081">
        <ele>1284.8</ele>
        <time>2019-08-18T10:43:23Z</time>
      </trkpt>
      <trkpt lat="42.89823" lon="0.07087">
        <ele>1285.1</ele>
        <time>2019-08-18T10:43:25Z</time>
      </trkpt>
      <trkpt lat="42.89824" lon="0.07092">
        <ele>1285.4</ele>
        <time>2019-08-18T10:43:27Z</time>
      </trkpt>
      <trkpt lat="42.89825" lon="0.07098">
        <ele>1285.8</ele>
        <time>2019-08-18T10:43:29Z</time>
      </trkpt>
      <trkpt lat="42.89826" lon="0.07104">
        <ele>1286.1</ele>
        <time>2019-08-18T10:43:31Z</time>
      </trkpt>
      <trkpt lat="42.89826" lon="0.07109">
        <ele>1286.4</ele>
        <time>2019-08-18T10:43:33Z</time>
      </trkpt>
      <trkpt lat="42.89827" lon="0.07115">
        <ele>1286.8</ele>
        <time>2019-08-18T10:43:35Z</time>
      </trkpt>
      <trkpt lat="42.89827" lon="0.07121">
        <ele>1287.2</ele>
        <time>2019-08-18T10:43:37Z</time>
      </trkpt>
      <trkpt lat="42.89828" lon="0.07127">
        <ele>1287.5</ele>
        <time>2019-08-18T10:43:39Z</time>
      </trkpt>
      <trkpt lat="42.89829" lon="0.07133">
        <ele>1287.9</ele>
        <time>2019-08-18T10:43:41Z</time>
      </trkpt>
      <trkpt lat="42.89829" lon="0.07138">
        <ele>1288.2</ele>
        <time>2019-08-18T10:43:43Z</time>
      </trkpt>
      <trkpt lat="42.89831" lon="0.07143">
        <ele>1288.5</ele>
        <time>2019-08-18T10:43:45Z</time>
      </trkpt>
      <trkpt lat="42.89832" lon="0.07148">
        <ele>1288.9</ele>
        <time>2019-08-18T10:43:47Z</time>
      </trkpt>
      <trkpt lat="42.89833" lon="0.07154">
        <ele>1289.2</ele>
        <time>2019-08-18T10:43:49Z</time>
      </trkpt>
      <trkpt lat="42.89834" lon="0.0716">
        <ele>1289.6</ele>
        <time>2019-08-18T10:43:51Z</time>
      </trkpt>
      <trkpt lat="42.89834" lon="0.07166">
        <ele>1290</ele>
        <time>2019-08-18T10:43:53Z</time>
      </trkpt>
      <trkpt lat="42.89835" lon="0.07172">
        <ele>1290.4</ele>
        <time>2019-08-18T10:43:55Z</time>
      </trkpt>
      <trkpt lat="42.89835" lon="0.07177">
        <ele>1290.7</ele>
        <time>2019-08-18T10:43:57Z</time>
      </trkpt>
      <trkpt lat="42.89835" lon="0.07183">
        <ele>1291.1</ele>
        <time>2019-08-18T10:43:59Z</time>
      </trkpt>
      <trkpt lat="42.89835" lon="0.07189">
        <ele>1291.5</ele>
        <time>2019-08-18T10:44:01Z</time>
      </trkpt>
      <trkpt lat="42.89836" lon="0.07195">
        <ele>1291.9</ele>
        <time>2019-08-18T10:44:03Z</time>
      </trkpt>
      <trkpt lat="42.89837" lon="0.07201">
        <ele>1292.3</ele>
        <time>2019-08-18T10:44:05Z</time>
      </trkpt>
      <trkpt lat="42.89837" lon="0.07207">
        <ele>1292.7</ele>
        <time>2019-08-18T10:44:07Z</time>
      </trkpt>
      <trkpt lat="42.89837" lon="0.07213">
        <ele>1293.1</ele>
        <time>2019-08-18T10:44:09Z</time>
      </trkpt>
      <trkpt lat="42.89837" lon="0.07219">
        <ele>1293.5</ele>
        <time>2019-08-18T10:44:11Z</time>
      </trkpt>
      <trkpt lat="42.89838" lon="0.07224">
        <ele>1293.9</ele>
        <time>2019-08-18T10:44:13Z</time>
      </trkpt>
      <trkpt lat="42.89838" lon="0.07229">
        <ele>1294.3</ele>
        <time>2019-08-18T10:44:15Z</time>
      </trkpt>
      <trkpt lat="42.89839" lon="0.07234">
        <ele>1294.6</ele>
        <time>2019-08-18T10:44:17Z</time>
      </trkpt>
      <trkpt lat="42.89841" lon="0.0724">
        <ele>1295</ele>
        <time>2019-08-18T10:44:19Z</time>
      </trkpt>
      <trkpt lat="42.89843" lon="0.07246">
        <ele>1295.5</ele>
        <time>2019-08-18T10:44:21Z</time>
      </trkpt>
      <trkpt lat="42.89846" lon="0.07251">
        <ele>1295.9</ele>
        <time>2019-08-18T10:44:23Z</time>
      </trkpt>
      <trkpt lat="42.89848" lon="0.07256">
        <ele>1296.3</ele>
        <time>2019-08-18T10:44:25Z</time>
      </trkpt>
      <trkpt lat="42.89849" lon="0.07261">
        <ele>1296.7</ele>
        <time>2019-08-18T10:44:27Z</time>
      </trkpt>
      <trkpt lat="42.89851" lon="0.07267">
        <ele>1297.1</ele>
        <time>2019-08-18T10:44:29Z</time>
      </trkpt>
      <trkpt lat="42.89853" lon="0.07273">
        <ele>1297.5</ele>
        <time>2019-08-18T10:44:31Z</time>
      </trkpt>
      <trkpt lat="42.89854" lon="0.07279">
        <ele>1297.9</ele>
        <time>2019-08-18T10:44:33Z</time>
      </trkpt>
      <trkpt lat="42.89854" lon="0.07285">
        <ele>1298.3</ele>
        <time>2019-08-18T10:44:35Z</time>
      </trkpt>
      <trkpt lat="42.89854" lon="0.07291">
        <ele>1298.7</ele>
        <time>2019-08-18T10:44:37Z</time>
      </trkpt>
      <trkpt lat="42.89855" lon="0.07296">
        <ele>1299</ele>
        <time>2019-08-18T10:44:39Z</time>
      </trkpt>
      <trkpt lat="42.89855" lon="0.07302">
        <ele>1299.4</ele>
        <time>2019-08-18T10:44:41Z</time>
      </trkpt>
      <trkpt lat="42.89856" lon="0.07308">
        <ele>1299.7</ele>
        <time>2019-08-18T10:44:43Z</time>
      </trkpt>
      <trkpt lat="42.89857" lon="0.07314">
        <ele>1300.1</ele>
        <time>2019-08-18T10:44:45Z</time>
      </trkpt>
      <trkpt lat="42.89857" lon="0.0732">
        <ele>1300.5</ele>
        <time>2019-08-18T10:44:47Z</time>
      </trkpt>
      <trkpt lat="42.89858" lon="0.07325">
        <ele>1300.9</ele>
        <time>2019-08-18T10:44:49Z</time>
      </trkpt>
      <trkpt lat="42.89858" lon="0.07331">
        <ele>1301.2</ele>
        <time>2019-08-18T10:44:51Z</time>
      </trkpt>
      <trkpt lat="42.89858" lon="0.07337">
        <ele>1301.6</ele>
        <time>2019-08-18T10:44:53Z</time>
      </trkpt>
      <trkpt lat="42.89858" lon="0.07343">
        <ele>1301.9</ele>
        <time>2019-08-18T10:44:55Z</time>
      </trkpt>
      <trkpt lat="42.89858" lon="0.07349">
        <ele>1302.3</ele>
        <time>2019-08-18T10:44:57Z</time>
      </trkpt>
      <trkpt lat="42.89859" lon="0.07355">
        <ele>1302.7</ele>
        <time>2019-08-18T10:44:59Z</time>
      </trkpt>
      <trkpt lat="42.89861" lon="0.0736">
        <ele>1303</ele>
        <time>2019-08-18T10:45:01Z</time>
      </trkpt>
      <trkpt lat="42.89862" lon="0.07367">
        <ele>1303.4</ele>
        <time>2019-08-18T10:45:03Z</time>
      </trkpt>
      <trkpt lat="42.89862" lon="0.07372">
        <ele>1303.7</ele>
        <time>2019-08-18T10:45:05Z</time>
      </trkpt>
      <trkpt lat="42.89862" lon="0.07377">
        <ele>1304</ele>
        <time>2019-08-18T10:45:07Z</time>
      </trkpt>
      <trkpt lat="42.89863" lon="0.07383">
        <ele>1304.3</ele>
        <time>2019-08-18T10:45:09Z</time>
      </trkpt>
      <trkpt lat="42.89864" lon="0.07389">
        <ele>1304.6</ele>
        <time>2019-08-18T10:45:11Z</time>
      </trkpt>
      <trkpt lat="42.89864" lon="0.07395">
        <ele>1304.9</ele>
        <time>2019-08-18T10:45:13Z</time>
      </trkpt>
      <trkpt lat="42.89865" lon="0.07401">
        <ele>1305.3</ele>
        <time>2019-08-18T10:45:15Z</time>
      </trkpt>
      <trkpt lat="42.89865" lon="0.07407">
        <ele>1305.6</ele>
        <time>2019-08-18T10:45:17Z</time>
      </trkpt>
      <trkpt lat="42.89865" lon="0.07413">
        <ele>1305.9</ele>
        <time>2019-08-18T10:45:19Z</time>
      </trkpt>
      <trkpt lat="42.89866" lon="0.07418">
        <ele>1306.1</ele>
        <time>2019-08-18T10:45:21Z</time>
      </trkpt>
      <trkpt lat="42.89865" lon="0.07424">
        <ele>1306.4</ele>
        <time>2019-08-18T10:45:23Z</time>
      </trkpt>
      <trkpt lat="42.89865" lon="0.0743">
        <ele>1306.7</ele>
        <time>2019-08-18T10:45:25Z</time>
      </trkpt>
      <trkpt lat="42.89864" lon="0.07436">
        <ele>1307.1</ele>
        <time>2019-08-18T10:45:27Z</time>
      </trkpt>
      <trkpt lat="42.89864" lon="0.07441">
        <ele>1307.3</ele>
        <time>2019-08-18T10:45:29Z</time>
      </trkpt>
      <trkpt lat="42.89863" lon="0.07448">
        <ele>1307.7</ele>
        <time>2019-08-18T10:45:31Z</time>
      </trkpt>
      <trkpt lat="42.89862" lon="0.07455">
        <ele>1308.1</ele>
        <time>2019-08-18T10:45:33Z</time>
      </trkpt>
      <trkpt lat="42.89862" lon="0.07462">
        <ele>1308.4</ele>
        <time>2019-08-18T10:45:35Z</time>
      </trkpt>
      <trkpt lat="42.89863" lon="0.07468">
        <ele>1308.8</ele>
        <time>2019-08-18T10:45:37Z</time>
      </trkpt>
      <trkpt lat="42.89863" lon="0.07475">
        <ele>1309.2</ele>
        <time>2019-08-18T10:45:39Z</time>
      </trkpt>
      <trkpt lat="42.89864" lon="0.07481">
        <ele>1309.5</ele>
        <time>2019-08-18T10:45:41Z</time>
      </trkpt>
      <trkpt lat="42.89866" lon="0.07487">
        <ele>1309.8</ele>
        <time>2019-08-18T10:45:43Z</time>
      </trkpt>
      <trkpt lat="42.89869" lon="0.07493">
        <ele>1310.1</ele>
        <time>2019-08-18T10:45:45Z</time>
      </trkpt>
      <trkpt lat="42.89871" lon="0.07499">
        <ele>1310.3</ele>
        <time>2019-08-18T10:45:47Z</time>
      </trkpt>
      <trkpt lat="42.89874" lon="0.07504">
        <ele>1310.6</ele>
        <time>2019-08-18T10:45:49Z</time>
      </trkpt>
      <trkpt lat="42.89877" lon="0.0751">
        <ele>1310.7</ele>
        <time>2019-08-18T10:45:51Z</time>
      </trkpt>
      <trkpt lat="42.8988" lon="0.07515">
        <ele>1310.9</ele>
        <time>2019-08-18T10:45:53Z</time>
      </trkpt>
      <trkpt lat="42.89883" lon="0.07519">
        <ele>1311.1</ele>
        <time>2019-08-18T10:45:55Z</time>
      </trkpt>
      <trkpt lat="42.89885" lon="0.07524">
        <ele>1311.2</ele>
        <time>2019-08-18T10:45:57Z</time>
      </trkpt>
      <trkpt lat="42.89888" lon="0.07529">
        <ele>1311.3</ele>
        <time>2019-08-18T10:45:59Z</time>
      </trkpt>
      <trkpt lat="42.8989" lon="0.07534">
        <ele>1311.4</ele>
        <time>2019-08-18T10:46:01Z</time>
      </trkpt>
      <trkpt lat="42.89892" lon="0.07539">
        <ele>1311.5</ele>
        <time>2019-08-18T10:46:03Z</time>
      </trkpt>
      <trkpt lat="42.89895" lon="0.07543">
        <ele>1311.5</ele>
        <time>2019-08-18T10:46:05Z</time>
      </trkpt>
      <trkpt lat="42.89898" lon="0.07548">
        <ele>1311.6</ele>
        <time>2019-08-18T10:46:07Z</time>
      </trkpt>
      <trkpt lat="42.89901" lon="0.07553">
        <ele>1311.7</ele>
        <time>2019-08-18T10:46:09Z</time>
      </trkpt>
      <trkpt lat="42.89903" lon="0.07558">
        <ele>1311.7</ele>
        <time>2019-08-18T10:46:11Z</time>
      </trkpt>
      <trkpt lat="42.89906" lon="0.07563">
        <ele>1311.8</ele>
        <time>2019-08-18T10:46:13Z</time>
      </trkpt>
      <trkpt lat="42.89909" lon="0.07568">
        <ele>1311.9</ele>
        <time>2019-08-18T10:46:15Z</time>
      </trkpt>
      <trkpt lat="42.89912" lon="0.07572">
        <ele>1312</ele>
        <time>2019-08-18T10:46:17Z</time>
      </trkpt>
      <trkpt lat="42.89914" lon="0.07577">
        <ele>1312.2</ele>
        <time>2019-08-18T10:46:19Z</time>
      </trkpt>
      <trkpt lat="42.89916" lon="0.07581">
        <ele>1312.4</ele>
        <time>2019-08-18T10:46:21Z</time>
      </trkpt>
      <trkpt lat="42.89919" lon="0.07586">
        <ele>1312.8</ele>
        <time>2019-08-18T10:46:23Z</time>
      </trkpt>
      <trkpt lat="42.89921" lon="0.0759">
        <ele>1313.8</ele>
        <time>2019-08-18T10:46:25Z</time>
      </trkpt>
      <trkpt lat="42.89924" lon="0.07594">
        <ele>1314.6</ele>
        <time>2019-08-18T10:46:27Z</time>
      </trkpt>
      <trkpt lat="42.89926" lon="0.07599">
        <ele>1315.3</ele>
        <time>2019-08-18T10:46:29Z</time>
      </trkpt>
      <trkpt lat="42.89929" lon="0.07605">
        <ele>1316</ele>
        <time>2019-08-18T10:46:31Z</time>
      </trkpt>
      <trkpt lat="42.89931" lon="0.07611">
        <ele>1316.6</ele>
        <time>2019-08-18T10:46:33Z</time>
      </trkpt>
      <trkpt lat="42.89933" lon="0.07613">
        <ele>1316.9</ele>
        <time>2019-08-18T10:46:34Z</time>
      </trkpt>
      <trkpt lat="42.89937" lon="0.07618">
        <ele>1317.5</ele>
        <time>2019-08-18T10:46:36Z</time>
      </trkpt>
      <trkpt lat="42.89939" lon="0.07623">
        <ele>1317.9</ele>
        <time>2019-08-18T10:46:38Z</time>
      </trkpt>
      <trkpt lat="42.89941" lon="0.07628">
        <ele>1318.2</ele>
        <time>2019-08-18T10:46:40Z</time>
      </trkpt>
      <trkpt lat="42.89946" lon="0.07646">
        <ele>1319.5</ele>
        <time>2019-08-18T10:46:47Z</time>
      </trkpt>
      <trkpt lat="42.89947" lon="0.07652">
        <ele>1320</ele>
        <time>2019-08-18T10:46:49Z</time>
      </trkpt>
      <trkpt lat="42.89948" lon="0.07659">
        <ele>1320.4</ele>
        <time>2019-08-18T10:46:51Z</time>
      </trkpt>
      <trkpt lat="42.89948" lon="0.07665">
        <ele>1320.9</ele>
        <time>2019-08-18T10:46:53Z</time>
      </trkpt>
      <trkpt lat="42.89949" lon="0.0767">
        <ele>1321.4</ele>
        <time>2019-08-18T10:46:55Z</time>
      </trkpt>
      <trkpt lat="42.8995" lon="0.07676">
        <ele>1322</ele>
        <time>2019-08-18T10:46:57Z</time>
      </trkpt>
      <trkpt lat="42.89951" lon="0.07682">
        <ele>1322.5</ele>
        <time>2019-08-18T10:46:59Z</time>
      </trkpt>
      <trkpt lat="42.89951" lon="0.07688">
        <ele>1323.1</ele>
        <time>2019-08-18T10:47:01Z</time>
      </trkpt>
      <trkpt lat="42.89952" lon="0.07694">
        <ele>1323.9</ele>
        <time>2019-08-18T10:47:03Z</time>
      </trkpt>
      <trkpt lat="42.89953" lon="0.07699">
        <ele>1324.4</ele>
        <time>2019-08-18T10:47:05Z</time>
      </trkpt>
      <trkpt lat="42.89953" lon="0.07704">
        <ele>1324.9</ele>
        <time>2019-08-18T10:47:07Z</time>
      </trkpt>
      <trkpt lat="42.89954" lon="0.07709">
        <ele>1325.5</ele>
        <time>2019-08-18T10:47:09Z</time>
      </trkpt>
      <trkpt lat="42.89955" lon="0.07715">
        <ele>1326</ele>
        <time>2019-08-18T10:47:11Z</time>
      </trkpt>
      <trkpt lat="42.89956" lon="0.0772">
        <ele>1326.4</ele>
        <time>2019-08-18T10:47:13Z</time>
      </trkpt>
      <trkpt lat="42.89958" lon="0.07725">
        <ele>1326.7</ele>
        <time>2019-08-18T10:47:15Z</time>
      </trkpt>
      <trkpt lat="42.8996" lon="0.0773">
        <ele>1327</ele>
        <time>2019-08-18T10:47:17Z</time>
      </trkpt>
      <trkpt lat="42.89962" lon="0.07735">
        <ele>1327.3</ele>
        <time>2019-08-18T10:47:19Z</time>
      </trkpt>
      <trkpt lat="42.89963" lon="0.07741">
        <ele>1327.5</ele>
        <time>2019-08-18T10:47:21Z</time>
      </trkpt>
      <trkpt lat="42.89964" lon="0.07746">
        <ele>1327.7</ele>
        <time>2019-08-18T10:47:23Z</time>
      </trkpt>
      <trkpt lat="42.89965" lon="0.07753">
        <ele>1328</ele>
        <time>2019-08-18T10:47:25Z</time>
      </trkpt>
      <trkpt lat="42.89966" lon="0.07758">
        <ele>1328.4</ele>
        <time>2019-08-18T10:47:27Z</time>
      </trkpt>
      <trkpt lat="42.89968" lon="0.07764">
        <ele>1328.8</ele>
        <time>2019-08-18T10:47:29Z</time>
      </trkpt>
      <trkpt lat="42.89969" lon="0.0777">
        <ele>1329.3</ele>
        <time>2019-08-18T10:47:31Z</time>
      </trkpt>
      <trkpt lat="42.8997" lon="0.07776">
        <ele>1329.8</ele>
        <time>2019-08-18T10:47:33Z</time>
      </trkpt>
      <trkpt lat="42.89971" lon="0.07781">
        <ele>1330.4</ele>
        <time>2019-08-18T10:47:35Z</time>
      </trkpt>
      <trkpt lat="42.89972" lon="0.07787">
        <ele>1331.1</ele>
        <time>2019-08-18T10:47:37Z</time>
      </trkpt>
      <trkpt lat="42.89974" lon="0.07792">
        <ele>1331.8</ele>
        <time>2019-08-18T10:47:39Z</time>
      </trkpt>
      <trkpt lat="42.89975" lon="0.07798">
        <ele>1332.6</ele>
        <time>2019-08-18T10:47:41Z</time>
      </trkpt>
      <trkpt lat="42.89975" lon="0.07805">
        <ele>1333.4</ele>
        <time>2019-08-18T10:47:43Z</time>
      </trkpt>
      <trkpt lat="42.89977" lon="0.07811">
        <ele>1334.1</ele>
        <time>2019-08-18T10:47:45Z</time>
      </trkpt>
      <trkpt lat="42.89979" lon="0.07817">
        <ele>1334.8</ele>
        <time>2019-08-18T10:47:47Z</time>
      </trkpt>
      <trkpt lat="42.8998" lon="0.07823">
        <ele>1335.3</ele>
        <time>2019-08-18T10:47:49Z</time>
      </trkpt>
      <trkpt lat="42.89982" lon="0.07829">
        <ele>1335.8</ele>
        <time>2019-08-18T10:47:51Z</time>
      </trkpt>
      <trkpt lat="42.89984" lon="0.07834">
        <ele>1336.2</ele>
        <time>2019-08-18T10:47:53Z</time>
      </trkpt>
      <trkpt lat="42.89985" lon="0.07839">
        <ele>1336.6</ele>
        <time>2019-08-18T10:47:55Z</time>
      </trkpt>
      <trkpt lat="42.89987" lon="0.07845">
        <ele>1337.1</ele>
        <time>2019-08-18T10:47:57Z</time>
      </trkpt>
      <trkpt lat="42.8999" lon="0.0785">
        <ele>1337.7</ele>
        <time>2019-08-18T10:47:59Z</time>
      </trkpt>
      <trkpt lat="42.89992" lon="0.07856">
        <ele>1338.3</ele>
        <time>2019-08-18T10:48:01Z</time>
      </trkpt>
      <trkpt lat="42.89993" lon="0.07862">
        <ele>1338.8</ele>
        <time>2019-08-18T10:48:03Z</time>
      </trkpt>
      <trkpt lat="42.89994" lon="0.07868">
        <ele>1339.2</ele>
        <time>2019-08-18T10:48:05Z</time>
      </trkpt>
      <trkpt lat="42.89995" lon="0.07874">
        <ele>1339.6</ele>
        <time>2019-08-18T10:48:07Z</time>
      </trkpt>
      <trkpt lat="42.89997" lon="0.07879">
        <ele>1340.1</ele>
        <time>2019-08-18T10:48:09Z</time>
      </trkpt>
      <trkpt lat="42.89999" lon="0.07884">
        <ele>1340.5</ele>
        <time>2019-08-18T10:48:11Z</time>
      </trkpt>
      <trkpt lat="42.90001" lon="0.07889">
        <ele>1340.9</ele>
        <time>2019-08-18T10:48:13Z</time>
      </trkpt>
      <trkpt lat="42.90003" lon="0.07895">
        <ele>1341.3</ele>
        <time>2019-08-18T10:48:15Z</time>
      </trkpt>
      <trkpt lat="42.90005" lon="0.07901">
        <ele>1341.7</ele>
        <time>2019-08-18T10:48:17Z</time>
      </trkpt>
      <trkpt lat="42.90007" lon="0.07906">
        <ele>1342.1</ele>
        <time>2019-08-18T10:48:19Z</time>
      </trkpt>
      <trkpt lat="42.9001" lon="0.07911">
        <ele>1342.5</ele>
        <time>2019-08-18T10:48:21Z</time>
      </trkpt>
      <trkpt lat="42.90013" lon="0.07917">
        <ele>1342.9</ele>
        <time>2019-08-18T10:48:23Z</time>
      </trkpt>
      <trkpt lat="42.90016" lon="0.07922">
        <ele>1343.2</ele>
        <time>2019-08-18T10:48:25Z</time>
      </trkpt>
      <trkpt lat="42.90017" lon="0.07926">
        <ele>1343.4</ele>
        <time>2019-08-18T10:48:27Z</time>
      </trkpt>
      <trkpt lat="42.90018" lon="0.07932">
        <ele>1343.7</ele>
        <time>2019-08-18T10:48:29Z</time>
      </trkpt>
      <trkpt lat="42.90019" lon="0.07936">
        <ele>1344.1</ele>
        <time>2019-08-18T10:48:31Z</time>
      </trkpt>
      <trkpt lat="42.9002" lon="0.07942">
        <ele>1344.5</ele>
        <time>2019-08-18T10:48:33Z</time>
      </trkpt>
      <trkpt lat="42.90022" lon="0.07948">
        <ele>1344.9</ele>
        <time>2019-08-18T10:48:35Z</time>
      </trkpt>
      <trkpt lat="42.90024" lon="0.07954">
        <ele>1345.4</ele>
        <time>2019-08-18T10:48:37Z</time>
      </trkpt>
      <trkpt lat="42.90027" lon="0.0796">
        <ele>1345.9</ele>
        <time>2019-08-18T10:48:39Z</time>
      </trkpt>
      <trkpt lat="42.90029" lon="0.07965">
        <ele>1346.3</ele>
        <time>2019-08-18T10:48:41Z</time>
      </trkpt>
      <trkpt lat="42.90031" lon="0.0797">
        <ele>1346.6</ele>
        <time>2019-08-18T10:48:43Z</time>
      </trkpt>
      <trkpt lat="42.90034" lon="0.07975">
        <ele>1347</ele>
        <time>2019-08-18T10:48:45Z</time>
      </trkpt>
      <trkpt lat="42.90036" lon="0.0798">
        <ele>1347.4</ele>
        <time>2019-08-18T10:48:47Z</time>
      </trkpt>
      <trkpt lat="42.90038" lon="0.07986">
        <ele>1347.8</ele>
        <time>2019-08-18T10:48:49Z</time>
      </trkpt>
      <trkpt lat="42.90039" lon="0.07992">
        <ele>1348.2</ele>
        <time>2019-08-18T10:48:51Z</time>
      </trkpt>
      <trkpt lat="42.90041" lon="0.07997">
        <ele>1348.6</ele>
        <time>2019-08-18T10:48:53Z</time>
      </trkpt>
      <trkpt lat="42.90042" lon="0.08003">
        <ele>1348.9</ele>
        <time>2019-08-18T10:48:55Z</time>
      </trkpt>
      <trkpt lat="42.90044" lon="0.08009">
        <ele>1349.4</ele>
        <time>2019-08-18T10:48:57Z</time>
      </trkpt>
      <trkpt lat="42.90045" lon="0.08014">
        <ele>1349.7</ele>
        <time>2019-08-18T10:48:59Z</time>
      </trkpt>
      <trkpt lat="42.90047" lon="0.0802">
        <ele>1350.2</ele>
        <time>2019-08-18T10:49:01Z</time>
      </trkpt>
      <trkpt lat="42.90048" lon="0.08025">
        <ele>1350.6</ele>
        <time>2019-08-18T10:49:03Z</time>
      </trkpt>
      <trkpt lat="42.90049" lon="0.0803">
        <ele>1351.1</ele>
        <time>2019-08-18T10:49:05Z</time>
      </trkpt>
      <trkpt lat="42.90051" lon="0.08036">
        <ele>1351.6</ele>
        <time>2019-08-18T10:49:07Z</time>
      </trkpt>
      <trkpt lat="42.90052" lon="0.08042">
        <ele>1352.1</ele>
        <time>2019-08-18T10:49:09Z</time>
      </trkpt>
      <trkpt lat="42.90054" lon="0.08047">
        <ele>1352.5</ele>
        <time>2019-08-18T10:49:11Z</time>
      </trkpt>
      <trkpt lat="42.90056" lon="0.08052">
        <ele>1352.9</ele>
        <time>2019-08-18T10:49:13Z</time>
      </trkpt>
      <trkpt lat="42.90058" lon="0.08057">
        <ele>1353.3</ele>
        <time>2019-08-18T10:49:15Z</time>
      </trkpt>
      <trkpt lat="42.9006" lon="0.08062">
        <ele>1353.7</ele>
        <time>2019-08-18T10:49:17Z</time>
      </trkpt>
      <trkpt lat="42.90063" lon="0.08067">
        <ele>1354</ele>
        <time>2019-08-18T10:49:19Z</time>
      </trkpt>
      <trkpt lat="42.90066" lon="0.08071">
        <ele>1354.4</ele>
        <time>2019-08-18T10:49:21Z</time>
      </trkpt>
      <trkpt lat="42.90068" lon="0.08076">
        <ele>1354.7</ele>
        <time>2019-08-18T10:49:23Z</time>
      </trkpt>
      <trkpt lat="42.90069" lon="0.08081">
        <ele>1355</ele>
        <time>2019-08-18T10:49:25Z</time>
      </trkpt>
      <trkpt lat="42.90071" lon="0.08087">
        <ele>1355.4</ele>
        <time>2019-08-18T10:49:27Z</time>
      </trkpt>
      <trkpt lat="42.90072" lon="0.08093">
        <ele>1355.8</ele>
        <time>2019-08-18T10:49:29Z</time>
      </trkpt>
      <trkpt lat="42.90074" lon="0.08099">
        <ele>1356.2</ele>
        <time>2019-08-18T10:49:31Z</time>
      </trkpt>
      <trkpt lat="42.90076" lon="0.08104">
        <ele>1356.6</ele>
        <time>2019-08-18T10:49:33Z</time>
      </trkpt>
      <trkpt lat="42.90078" lon="0.08109">
        <ele>1357</ele>
        <time>2019-08-18T10:49:35Z</time>
      </trkpt>
      <trkpt lat="42.90078" lon="0.08115">
        <ele>1357.4</ele>
        <time>2019-08-18T10:49:37Z</time>
      </trkpt>
      <trkpt lat="42.90079" lon="0.08121">
        <ele>1357.7</ele>
        <time>2019-08-18T10:49:39Z</time>
      </trkpt>
      <trkpt lat="42.90081" lon="0.08127">
        <ele>1358.1</ele>
        <time>2019-08-18T10:49:41Z</time>
      </trkpt>
      <trkpt lat="42.90081" lon="0.08133">
        <ele>1358.5</ele>
        <time>2019-08-18T10:49:43Z</time>
      </trkpt>
      <trkpt lat="42.90082" lon="0.08138">
        <ele>1358.8</ele>
        <time>2019-08-18T10:49:45Z</time>
      </trkpt>
      <trkpt lat="42.90084" lon="0.08143">
        <ele>1359.2</ele>
        <time>2019-08-18T10:49:47Z</time>
      </trkpt>
      <trkpt lat="42.90085" lon="0.08149">
        <ele>1359.6</ele>
        <time>2019-08-18T10:49:49Z</time>
      </trkpt>
      <trkpt lat="42.90087" lon="0.08156">
        <ele>1360</ele>
        <time>2019-08-18T10:49:51Z</time>
      </trkpt>
      <trkpt lat="42.90089" lon="0.08162">
        <ele>1360.5</ele>
        <time>2019-08-18T10:49:53Z</time>
      </trkpt>
      <trkpt lat="42.9009" lon="0.08168">
        <ele>1360.9</ele>
        <time>2019-08-18T10:49:55Z</time>
      </trkpt>
      <trkpt lat="42.90092" lon="0.08173">
        <ele>1361.2</ele>
        <time>2019-08-18T10:49:57Z</time>
      </trkpt>
      <trkpt lat="42.90094" lon="0.08179">
        <ele>1361.6</ele>
        <time>2019-08-18T10:49:59Z</time>
      </trkpt>
      <trkpt lat="42.90096" lon="0.08184">
        <ele>1362</ele>
        <time>2019-08-18T10:50:01Z</time>
      </trkpt>
      <trkpt lat="42.90097" lon="0.08189">
        <ele>1362.4</ele>
        <time>2019-08-18T10:50:03Z</time>
      </trkpt>
      <trkpt lat="42.90099" lon="0.08195">
        <ele>1362.8</ele>
        <time>2019-08-18T10:50:05Z</time>
      </trkpt>
      <trkpt lat="42.90102" lon="0.08201">
        <ele>1363.3</ele>
        <time>2019-08-18T10:50:07Z</time>
      </trkpt>
      <trkpt lat="42.90105" lon="0.08206">
        <ele>1363.8</ele>
        <time>2019-08-18T10:50:09Z</time>
      </trkpt>
      <trkpt lat="42.90107" lon="0.08211">
        <ele>1364.2</ele>
        <time>2019-08-18T10:50:11Z</time>
      </trkpt>
      <trkpt lat="42.9011" lon="0.08217">
        <ele>1364.7</ele>
        <time>2019-08-18T10:50:13Z</time>
      </trkpt>
      <trkpt lat="42.90112" lon="0.08222">
        <ele>1365.1</ele>
        <time>2019-08-18T10:50:15Z</time>
      </trkpt>
      <trkpt lat="42.90115" lon="0.08227">
        <ele>1365.6</ele>
        <time>2019-08-18T10:50:17Z</time>
      </trkpt>
      <trkpt lat="42.90117" lon="0.08232">
        <ele>1366</ele>
        <time>2019-08-18T10:50:19Z</time>
      </trkpt>
      <trkpt lat="42.90119" lon="0.08237">
        <ele>1366.4</ele>
        <time>2019-08-18T10:50:21Z</time>
      </trkpt>
      <trkpt lat="42.90121" lon="0.08242">
        <ele>1366.8</ele>
        <time>2019-08-18T10:50:23Z</time>
      </trkpt>
      <trkpt lat="42.90123" lon="0.08248">
        <ele>1367.2</ele>
        <time>2019-08-18T10:50:25Z</time>
      </trkpt>
      <trkpt lat="42.90126" lon="0.08253">
        <ele>1367.6</ele>
        <time>2019-08-18T10:50:27Z</time>
      </trkpt>
      <trkpt lat="42.90128" lon="0.08258">
        <ele>1368</ele>
        <time>2019-08-18T10:50:29Z</time>
      </trkpt>
      <trkpt lat="42.90131" lon="0.08262">
        <ele>1368.4</ele>
        <time>2019-08-18T10:50:31Z</time>
      </trkpt>
      <trkpt lat="42.90133" lon="0.08267">
        <ele>1368.8</ele>
        <time>2019-08-18T10:50:33Z</time>
      </trkpt>
      <trkpt lat="42.90135" lon="0.08271">
        <ele>1369.2</ele>
        <time>2019-08-18T10:50:35Z</time>
      </trkpt>
      <trkpt lat="42.90138" lon="0.08275">
        <ele>1369.6</ele>
        <time>2019-08-18T10:50:37Z</time>
      </trkpt>
      <trkpt lat="42.9014" lon="0.0828">
        <ele>1370</ele>
        <time>2019-08-18T10:50:39Z</time>
      </trkpt>
      <trkpt lat="42.90143" lon="0.08285">
        <ele>1370.4</ele>
        <time>2019-08-18T10:50:41Z</time>
      </trkpt>
      <trkpt lat="42.90145" lon="0.08289">
        <ele>1370.8</ele>
        <time>2019-08-18T10:50:43Z</time>
      </trkpt>
      <trkpt lat="42.90146" lon="0.08295">
        <ele>1371.2</ele>
        <time>2019-08-18T10:50:45Z</time>
      </trkpt>
      <trkpt lat="42.90147" lon="0.08299">
        <ele>1371.5</ele>
        <time>2019-08-18T10:50:47Z</time>
      </trkpt>
      <trkpt lat="42.90148" lon="0.08305">
        <ele>1371.9</ele>
        <time>2019-08-18T10:50:49Z</time>
      </trkpt>
      <trkpt lat="42.90151" lon="0.0831">
        <ele>1372.4</ele>
        <time>2019-08-18T10:50:51Z</time>
      </trkpt>
      <trkpt lat="42.90152" lon="0.08315">
        <ele>1372.8</ele>
        <time>2019-08-18T10:50:53Z</time>
      </trkpt>
      <trkpt lat="42.90154" lon="0.08321">
        <ele>1373.2</ele>
        <time>2019-08-18T10:50:55Z</time>
      </trkpt>
      <trkpt lat="42.90156" lon="0.08326">
        <ele>1373.6</ele>
        <time>2019-08-18T10:50:57Z</time>
      </trkpt>
      <trkpt lat="42.90156" lon="0.08332">
        <ele>1374.1</ele>
        <time>2019-08-18T10:50:59Z</time>
      </trkpt>
      <trkpt lat="42.90156" lon="0.08338">
        <ele>1374.6</ele>
        <time>2019-08-18T10:51:01Z</time>
      </trkpt>
      <trkpt lat="42.90157" lon="0.08344">
        <ele>1375</ele>
        <time>2019-08-18T10:51:03Z</time>
      </trkpt>
      <trkpt lat="42.90156" lon="0.0835">
        <ele>1375.4</ele>
        <time>2019-08-18T10:51:05Z</time>
      </trkpt>
      <trkpt lat="42.90156" lon="0.08355">
        <ele>1375.8</ele>
        <time>2019-08-18T10:51:07Z</time>
      </trkpt>
      <trkpt lat="42.90155" lon="0.08362">
        <ele>1376.2</ele>
        <time>2019-08-18T10:51:09Z</time>
      </trkpt>
      <trkpt lat="42.90155" lon="0.08367">
        <ele>1376.7</ele>
        <time>2019-08-18T10:51:11Z</time>
      </trkpt>
      <trkpt lat="42.90155" lon="0.08373">
        <ele>1377.1</ele>
        <time>2019-08-18T10:51:13Z</time>
      </trkpt>
      <trkpt lat="42.90155" lon="0.08379">
        <ele>1377.6</ele>
        <time>2019-08-18T10:51:15Z</time>
      </trkpt>
      <trkpt lat="42.90155" lon="0.08385">
        <ele>1378</ele>
        <time>2019-08-18T10:51:17Z</time>
      </trkpt>
      <trkpt lat="42.90155" lon="0.0839">
        <ele>1378.3</ele>
        <time>2019-08-18T10:51:19Z</time>
      </trkpt>
      <trkpt lat="42.90156" lon="0.08396">
        <ele>1378.7</ele>
        <time>2019-08-18T10:51:21Z</time>
      </trkpt>
      <trkpt lat="42.90156" lon="0.08402">
        <ele>1379</ele>
        <time>2019-08-18T10:51:23Z</time>
      </trkpt>
      <trkpt lat="42.90157" lon="0.08408">
        <ele>1379.4</ele>
        <time>2019-08-18T10:51:25Z</time>
      </trkpt>
      <trkpt lat="42.90158" lon="0.08414">
        <ele>1379.8</ele>
        <time>2019-08-18T10:51:27Z</time>
      </trkpt>
      <trkpt lat="42.90159" lon="0.0842">
        <ele>1380.2</ele>
        <time>2019-08-18T10:51:29Z</time>
      </trkpt>
      <trkpt lat="42.90162" lon="0.08425">
        <ele>1380.5</ele>
        <time>2019-08-18T10:51:31Z</time>
      </trkpt>
      <trkpt lat="42.90164" lon="0.0843">
        <ele>1380.9</ele>
        <time>2019-08-18T10:51:33Z</time>
      </trkpt>
      <trkpt lat="42.90166" lon="0.08436">
        <ele>1381.3</ele>
        <time>2019-08-18T10:51:35Z</time>
      </trkpt>
      <trkpt lat="42.90167" lon="0.08442">
        <ele>1381.7</ele>
        <time>2019-08-18T10:51:37Z</time>
      </trkpt>
      <trkpt lat="42.90168" lon="0.08448">
        <ele>1382.1</ele>
        <time>2019-08-18T10:51:39Z</time>
      </trkpt>
      <trkpt lat="42.90169" lon="0.08455">
        <ele>1382.5</ele>
        <time>2019-08-18T10:51:41Z</time>
      </trkpt>
      <trkpt lat="42.90171" lon="0.08461">
        <ele>1383</ele>
        <time>2019-08-18T10:51:43Z</time>
      </trkpt>
      <trkpt lat="42.90172" lon="0.08468">
        <ele>1383.4</ele>
        <time>2019-08-18T10:51:45Z</time>
      </trkpt>
      <trkpt lat="42.90172" lon="0.08474">
        <ele>1383.8</ele>
        <time>2019-08-18T10:51:47Z</time>
      </trkpt>
      <trkpt lat="42.90172" lon="0.08481">
        <ele>1384.2</ele>
        <time>2019-08-18T10:51:49Z</time>
      </trkpt>
      <trkpt lat="42.90172" lon="0.08488">
        <ele>1384.7</ele>
        <time>2019-08-18T10:51:51Z</time>
      </trkpt>
      <trkpt lat="42.90172" lon="0.08494">
        <ele>1385.1</ele>
        <time>2019-08-18T10:51:53Z</time>
      </trkpt>
      <trkpt lat="42.90172" lon="0.08501">
        <ele>1385.5</ele>
        <time>2019-08-18T10:51:55Z</time>
      </trkpt>
      <trkpt lat="42.90172" lon="0.08507">
        <ele>1385.9</ele>
        <time>2019-08-18T10:51:57Z</time>
      </trkpt>
      <trkpt lat="42.90172" lon="0.08514">
        <ele>1386.3</ele>
        <time>2019-08-18T10:51:59Z</time>
      </trkpt>
      <trkpt lat="42.90172" lon="0.0852">
        <ele>1386.7</ele>
        <time>2019-08-18T10:52:01Z</time>
      </trkpt>
      <trkpt lat="42.90173" lon="0.08525">
        <ele>1387.1</ele>
        <time>2019-08-18T10:52:03Z</time>
      </trkpt>
      <trkpt lat="42.90173" lon="0.08531">
        <ele>1387.5</ele>
        <time>2019-08-18T10:52:05Z</time>
      </trkpt>
      <trkpt lat="42.90173" lon="0.08538">
        <ele>1387.9</ele>
        <time>2019-08-18T10:52:07Z</time>
      </trkpt>
      <trkpt lat="42.90173" lon="0.08545">
        <ele>1388.4</ele>
        <time>2019-08-18T10:52:09Z</time>
      </trkpt>
      <trkpt lat="42.90173" lon="0.08551">
        <ele>1388.7</ele>
        <time>2019-08-18T10:52:11Z</time>
      </trkpt>
      <trkpt lat="42.90174" lon="0.08558">
        <ele>1389.1</ele>
        <time>2019-08-18T10:52:13Z</time>
      </trkpt>
      <trkpt lat="42.90175" lon="0.08564">
        <ele>1389.5</ele>
        <time>2019-08-18T10:52:15Z</time>
      </trkpt>
      <trkpt lat="42.90175" lon="0.0857">
        <ele>1389.9</ele>
        <time>2019-08-18T10:52:17Z</time>
      </trkpt>
      <trkpt lat="42.90175" lon="0.08576">
        <ele>1390.2</ele>
        <time>2019-08-18T10:52:19Z</time>
      </trkpt>
      <trkpt lat="42.90175" lon="0.08583">
        <ele>1390.6</ele>
        <time>2019-08-18T10:52:21Z</time>
      </trkpt>
      <trkpt lat="42.90175" lon="0.0859">
        <ele>1391</ele>
        <time>2019-08-18T10:52:23Z</time>
      </trkpt>
      <trkpt lat="42.90175" lon="0.08596">
        <ele>1391.4</ele>
        <time>2019-08-18T10:52:25Z</time>
      </trkpt>
      <trkpt lat="42.90176" lon="0.08602">
        <ele>1391.8</ele>
        <time>2019-08-18T10:52:27Z</time>
      </trkpt>
      <trkpt lat="42.90177" lon="0.08608">
        <ele>1392.1</ele>
        <time>2019-08-18T10:52:29Z</time>
      </trkpt>
      <trkpt lat="42.90177" lon="0.08614">
        <ele>1392.4</ele>
        <time>2019-08-18T10:52:31Z</time>
      </trkpt>
      <trkpt lat="42.90178" lon="0.08619">
        <ele>1392.7</ele>
        <time>2019-08-18T10:52:33Z</time>
      </trkpt>
      <trkpt lat="42.90178" lon="0.08625">
        <ele>1393.1</ele>
        <time>2019-08-18T10:52:35Z</time>
      </trkpt>
      <trkpt lat="42.90178" lon="0.08632">
        <ele>1393.5</ele>
        <time>2019-08-18T10:52:37Z</time>
      </trkpt>
      <trkpt lat="42.90179" lon="0.08638">
        <ele>1393.8</ele>
        <time>2019-08-18T10:52:39Z</time>
      </trkpt>
      <trkpt lat="42.90179" lon="0.08644">
        <ele>1394.2</ele>
        <time>2019-08-18T10:52:41Z</time>
      </trkpt>
      <trkpt lat="42.90179" lon="0.08651">
        <ele>1394.5</ele>
        <time>2019-08-18T10:52:43Z</time>
      </trkpt>
      <trkpt lat="42.9018" lon="0.08658">
        <ele>1394.8</ele>
        <time>2019-08-18T10:52:45Z</time>
      </trkpt>
      <trkpt lat="42.90181" lon="0.08664">
        <ele>1395.2</ele>
        <time>2019-08-18T10:52:47Z</time>
      </trkpt>
      <trkpt lat="42.90181" lon="0.08667">
        <ele>1395.4</ele>
        <time>2019-08-18T10:52:48Z</time>
      </trkpt>
      <trkpt lat="42.90182" lon="0.08674">
        <ele>1395.7</ele>
        <time>2019-08-18T10:52:50Z</time>
      </trkpt>
      <trkpt lat="42.90183" lon="0.0868">
        <ele>1396.1</ele>
        <time>2019-08-18T10:52:52Z</time>
      </trkpt>
      <trkpt lat="42.90184" lon="0.08687">
        <ele>1396.4</ele>
        <time>2019-08-18T10:52:54Z</time>
      </trkpt>
      <trkpt lat="42.90185" lon="0.08693">
        <ele>1396.8</ele>
        <time>2019-08-18T10:52:56Z</time>
      </trkpt>
      <trkpt lat="42.90187" lon="0.08699">
        <ele>1397.2</ele>
        <time>2019-08-18T10:52:58Z</time>
      </trkpt>
      <trkpt lat="42.90189" lon="0.08706">
        <ele>1397.6</ele>
        <time>2019-08-18T10:53:00Z</time>
      </trkpt>
      <trkpt lat="42.9019" lon="0.08713">
        <ele>1398</ele>
        <time>2019-08-18T10:53:02Z</time>
      </trkpt>
      <trkpt lat="42.90191" lon="0.08717">
        <ele>1398.2</ele>
        <time>2019-08-18T10:53:03Z</time>
      </trkpt>
      <trkpt lat="42.90192" lon="0.0872">
        <ele>1398.4</ele>
        <time>2019-08-18T10:53:04Z</time>
      </trkpt>
      <trkpt lat="42.90193" lon="0.08724">
        <ele>1398.6</ele>
        <time>2019-08-18T10:53:05Z</time>
      </trkpt>
      <trkpt lat="42.90194" lon="0.08727">
        <ele>1398.7</ele>
        <time>2019-08-18T10:53:06Z</time>
      </trkpt>
      <trkpt lat="42.90196" lon="0.08735">
        <ele>1399</ele>
        <time>2019-08-18T10:53:08Z</time>
      </trkpt>
      <trkpt lat="42.90196" lon="0.08738">
        <ele>1399.1</ele>
        <time>2019-08-18T10:53:09Z</time>
      </trkpt>
      <trkpt lat="42.90197" lon="0.08742">
        <ele>1399.2</ele>
        <time>2019-08-18T10:53:10Z</time>
      </trkpt>
      <trkpt lat="42.90198" lon="0.08746">
        <ele>1399.4</ele>
        <time>2019-08-18T10:53:11Z</time>
      </trkpt>
      <trkpt lat="42.90199" lon="0.08749">
        <ele>1399.5</ele>
        <time>2019-08-18T10:53:12Z</time>
      </trkpt>
      <trkpt lat="42.902" lon="0.08753">
        <ele>1399.6</ele>
        <time>2019-08-18T10:53:13Z</time>
      </trkpt>
      <trkpt lat="42.90201" lon="0.08757">
        <ele>1399.8</ele>
        <time>2019-08-18T10:53:14Z</time>
      </trkpt>
      <trkpt lat="42.90202" lon="0.0876">
        <ele>1399.9</ele>
        <time>2019-08-18T10:53:15Z</time>
      </trkpt>
      <trkpt lat="42.90204" lon="0.08764">
        <ele>1400.1</ele>
        <time>2019-08-18T10:53:16Z</time>
      </trkpt>
      <trkpt lat="42.90205" lon="0.08767">
        <ele>1400.2</ele>
        <time>2019-08-18T10:53:17Z</time>
      </trkpt>
      <trkpt lat="42.90206" lon="0.0877">
        <ele>1400.3</ele>
        <time>2019-08-18T10:53:18Z</time>
      </trkpt>
      <trkpt lat="42.90208" lon="0.08774">
        <ele>1400.5</ele>
        <time>2019-08-18T10:53:19Z</time>
      </trkpt>
      <trkpt lat="42.90209" lon="0.08777">
        <ele>1400.6</ele>
        <time>2019-08-18T10:53:20Z</time>
      </trkpt>
      <trkpt lat="42.9021" lon="0.08781">
        <ele>1400.7</ele>
        <time>2019-08-18T10:53:21Z</time>
      </trkpt>
      <trkpt lat="42.90211" lon="0.08785">
        <ele>1400.9</ele>
        <time>2019-08-18T10:53:22Z</time>
      </trkpt>
      <trkpt lat="42.90213" lon="0.08789">
        <ele>1401</ele>
        <time>2019-08-18T10:53:23Z</time>
      </trkpt>
      <trkpt lat="42.90214" lon="0.08793">
        <ele>1401.2</ele>
        <time>2019-08-18T10:53:24Z</time>
      </trkpt>
      <trkpt lat="42.90216" lon="0.08797">
        <ele>1401.4</ele>
        <time>2019-08-18T10:53:25Z</time>
      </trkpt>
      <trkpt lat="42.90217" lon="0.088">
        <ele>1401.5</ele>
        <time>2019-08-18T10:53:26Z</time>
      </trkpt>
      <trkpt lat="42.90218" lon="0.08804">
        <ele>1401.7</ele>
        <time>2019-08-18T10:53:27Z</time>
      </trkpt>
      <trkpt lat="42.90218" lon="0.08808">
        <ele>1401.8</ele>
        <time>2019-08-18T10:53:28Z</time>
      </trkpt>
      <trkpt lat="42.90219" lon="0.08811">
        <ele>1401.9</ele>
        <time>2019-08-18T10:53:29Z</time>
      </trkpt>
      <trkpt lat="42.9022" lon="0.08815">
        <ele>1402</ele>
        <time>2019-08-18T10:53:30Z</time>
      </trkpt>
      <trkpt lat="42.90222" lon="0.08818">
        <ele>1402.2</ele>
        <time>2019-08-18T10:53:31Z</time>
      </trkpt>
      <trkpt lat="42.90224" lon="0.08822">
        <ele>1402.4</ele>
        <time>2019-08-18T10:53:32Z</time>
      </trkpt>
      <trkpt lat="42.90226" lon="0.08826">
        <ele>1402.6</ele>
        <time>2019-08-18T10:53:33Z</time>
      </trkpt>
      <trkpt lat="42.90227" lon="0.0883">
        <ele>1402.8</ele>
        <time>2019-08-18T10:53:34Z</time>
      </trkpt>
      <trkpt lat="42.90228" lon="0.08834">
        <ele>1402.9</ele>
        <time>2019-08-18T10:53:35Z</time>
      </trkpt>
      <trkpt lat="42.90229" lon="0.08838">
        <ele>1403.1</ele>
        <time>2019-08-18T10:53:36Z</time>
      </trkpt>
      <trkpt lat="42.90229" lon="0.08843">
        <ele>1403.3</ele>
        <time>2019-08-18T10:53:37Z</time>
      </trkpt>
      <trkpt lat="42.9023" lon="0.08848">
        <ele>1403.5</ele>
        <time>2019-08-18T10:53:38Z</time>
      </trkpt>
      <trkpt lat="42.9023" lon="0.08852">
        <ele>1403.7</ele>
        <time>2019-08-18T10:53:39Z</time>
      </trkpt>
      <trkpt lat="42.90231" lon="0.08857">
        <ele>1404</ele>
        <time>2019-08-18T10:53:40Z</time>
      </trkpt>
      <trkpt lat="42.90231" lon="0.08862">
        <ele>1404.2</ele>
        <time>2019-08-18T10:53:41Z</time>
      </trkpt>
      <trkpt lat="42.90232" lon="0.08867">
        <ele>1404.4</ele>
        <time>2019-08-18T10:53:42Z</time>
      </trkpt>
      <trkpt lat="42.90234" lon="0.08872">
        <ele>1404.6</ele>
        <time>2019-08-18T10:53:43Z</time>
      </trkpt>
      <trkpt lat="42.90235" lon="0.08877">
        <ele>1404.8</ele>
        <time>2019-08-18T10:53:44Z</time>
      </trkpt>
      <trkpt lat="42.90237" lon="0.08881">
        <ele>1405</ele>
        <time>2019-08-18T10:53:45Z</time>
      </trkpt>
      <trkpt lat="42.90238" lon="0.08886">
        <ele>1405.2</ele>
        <time>2019-08-18T10:53:46Z</time>
      </trkpt>
      <trkpt lat="42.9024" lon="0.08891">
        <ele>1405.5</ele>
        <time>2019-08-18T10:53:47Z</time>
      </trkpt>
      <trkpt lat="42.90241" lon="0.08896">
        <ele>1405.7</ele>
        <time>2019-08-18T10:53:48Z</time>
      </trkpt>
      <trkpt lat="42.90243" lon="0.08901">
        <ele>1405.9</ele>
        <time>2019-08-18T10:53:49Z</time>
      </trkpt>
      <trkpt lat="42.90244" lon="0.08907">
        <ele>1406.2</ele>
        <time>2019-08-18T10:53:50Z</time>
      </trkpt>
      <trkpt lat="42.90245" lon="0.08912">
        <ele>1406.4</ele>
        <time>2019-08-18T10:53:51Z</time>
      </trkpt>
      <trkpt lat="42.90247" lon="0.08918">
        <ele>1406.6</ele>
        <time>2019-08-18T10:53:52Z</time>
      </trkpt>
      <trkpt lat="42.90248" lon="0.08923">
        <ele>1406.9</ele>
        <time>2019-08-18T10:53:53Z</time>
      </trkpt>
      <trkpt lat="42.90249" lon="0.08928">
        <ele>1407.1</ele>
        <time>2019-08-18T10:53:54Z</time>
      </trkpt>
      <trkpt lat="42.90251" lon="0.08934">
        <ele>1407.3</ele>
        <time>2019-08-18T10:53:55Z</time>
      </trkpt>
      <trkpt lat="42.90253" lon="0.08939">
        <ele>1407.6</ele>
        <time>2019-08-18T10:53:56Z</time>
      </trkpt>
      <trkpt lat="42.90254" lon="0.08944">
        <ele>1407.8</ele>
        <time>2019-08-18T10:53:57Z</time>
      </trkpt>
      <trkpt lat="42.90256" lon="0.0895">
        <ele>1408.1</ele>
        <time>2019-08-18T10:53:58Z</time>
      </trkpt>
      <trkpt lat="42.90257" lon="0.08955">
        <ele>1408.3</ele>
        <time>2019-08-18T10:53:59Z</time>
      </trkpt>
      <trkpt lat="42.90259" lon="0.0896">
        <ele>1408.5</ele>
        <time>2019-08-18T10:54:00Z</time>
      </trkpt>
      <trkpt lat="42.9026" lon="0.08965">
        <ele>1408.7</ele>
        <time>2019-08-18T10:54:01Z</time>
      </trkpt>
      <trkpt lat="42.90262" lon="0.0897">
        <ele>1409</ele>
        <time>2019-08-18T10:54:02Z</time>
      </trkpt>
      <trkpt lat="42.90263" lon="0.08976">
        <ele>1409.2</ele>
        <time>2019-08-18T10:54:03Z</time>
      </trkpt>
      <trkpt lat="42.90264" lon="0.08981">
        <ele>1409.4</ele>
        <time>2019-08-18T10:54:04Z</time>
      </trkpt>
      <trkpt lat="42.90265" lon="0.08986">
        <ele>1409.6</ele>
        <time>2019-08-18T10:54:05Z</time>
      </trkpt>
      <trkpt lat="42.90266" lon="0.08991">
        <ele>1409.8</ele>
        <time>2019-08-18T10:54:06Z</time>
      </trkpt>
      <trkpt lat="42.90268" lon="0.08996">
        <ele>1410</ele>
        <time>2019-08-18T10:54:07Z</time>
      </trkpt>
      <trkpt lat="42.90269" lon="0.09001">
        <ele>1410.3</ele>
        <time>2019-08-18T10:54:08Z</time>
      </trkpt>
      <trkpt lat="42.9027" lon="0.09007">
        <ele>1410.5</ele>
        <time>2019-08-18T10:54:09Z</time>
      </trkpt>
      <trkpt lat="42.90271" lon="0.09012">
        <ele>1410.7</ele>
        <time>2019-08-18T10:54:10Z</time>
      </trkpt>
      <trkpt lat="42.90271" lon="0.09017">
        <ele>1410.9</ele>
        <time>2019-08-18T10:54:11Z</time>
      </trkpt>
      <trkpt lat="42.90272" lon="0.09022">
        <ele>1411.1</ele>
        <time>2019-08-18T10:54:12Z</time>
      </trkpt>
      <trkpt lat="42.90272" lon="0.09027">
        <ele>1411.3</ele>
        <time>2019-08-18T10:54:13Z</time>
      </trkpt>
      <trkpt lat="42.90272" lon="0.09031">
        <ele>1411.5</ele>
        <time>2019-08-18T10:54:14Z</time>
      </trkpt>
      <trkpt lat="42.90272" lon="0.09036">
        <ele>1411.7</ele>
        <time>2019-08-18T10:54:15Z</time>
      </trkpt>
      <trkpt lat="42.90271" lon="0.0904">
        <ele>1411.8</ele>
        <time>2019-08-18T10:54:16Z</time>
      </trkpt>
      <trkpt lat="42.9027" lon="0.09044">
        <ele>1412</ele>
        <time>2019-08-18T10:54:17Z</time>
      </trkpt>
      <trkpt lat="42.9027" lon="0.09048">
        <ele>1412.2</ele>
        <time>2019-08-18T10:54:18Z</time>
      </trkpt>
      <trkpt lat="42.90269" lon="0.09053">
        <ele>1412.3</ele>
        <time>2019-08-18T10:54:19Z</time>
      </trkpt>
      <trkpt lat="42.90269" lon="0.09057">
        <ele>1412.5</ele>
        <time>2019-08-18T10:54:20Z</time>
      </trkpt>
      <trkpt lat="42.90269" lon="0.09061">
        <ele>1412.6</ele>
        <time>2019-08-18T10:54:21Z</time>
      </trkpt>
      <trkpt lat="42.90268" lon="0.09065">
        <ele>1412.8</ele>
        <time>2019-08-18T10:54:22Z</time>
      </trkpt>
      <trkpt lat="42.90267" lon="0.09069">
        <ele>1413</ele>
        <time>2019-08-18T10:54:23Z</time>
      </trkpt>
      <trkpt lat="42.90267" lon="0.09073">
        <ele>1413.1</ele>
        <time>2019-08-18T10:54:24Z</time>
      </trkpt>
      <trkpt lat="42.90266" lon="0.09077">
        <ele>1413.3</ele>
        <time>2019-08-18T10:54:25Z</time>
      </trkpt>
      <trkpt lat="42.90266" lon="0.09082">
        <ele>1413.4</ele>
        <time>2019-08-18T10:54:26Z</time>
      </trkpt>
      <trkpt lat="42.90265" lon="0.09086">
        <ele>1413.6</ele>
        <time>2019-08-18T10:54:27Z</time>
      </trkpt>
      <trkpt lat="42.90265" lon="0.0909">
        <ele>1413.8</ele>
        <time>2019-08-18T10:54:28Z</time>
      </trkpt>
      <trkpt lat="42.90265" lon="0.09095">
        <ele>1413.9</ele>
        <time>2019-08-18T10:54:29Z</time>
      </trkpt>
      <trkpt lat="42.90265" lon="0.09099">
        <ele>1414.1</ele>
        <time>2019-08-18T10:54:30Z</time>
      </trkpt>
      <trkpt lat="42.90266" lon="0.09103">
        <ele>1414.2</ele>
        <time>2019-08-18T10:54:31Z</time>
      </trkpt>
      <trkpt lat="42.90266" lon="0.09107">
        <ele>1414.4</ele>
        <time>2019-08-18T10:54:32Z</time>
      </trkpt>
      <trkpt lat="42.90266" lon="0.09111">
        <ele>1414.5</ele>
        <time>2019-08-18T10:54:33Z</time>
      </trkpt>
      <trkpt lat="42.90266" lon="0.09115">
        <ele>1414.6</ele>
        <time>2019-08-18T10:54:34Z</time>
      </trkpt>
      <trkpt lat="42.90267" lon="0.09119">
        <ele>1414.8</ele>
        <time>2019-08-18T10:54:35Z</time>
      </trkpt>
      <trkpt lat="42.90267" lon="0.09123">
        <ele>1414.9</ele>
        <time>2019-08-18T10:54:36Z</time>
      </trkpt>
      <trkpt lat="42.90267" lon="0.09127">
        <ele>1415.1</ele>
        <time>2019-08-18T10:54:37Z</time>
      </trkpt>
      <trkpt lat="42.90268" lon="0.09131">
        <ele>1415.2</ele>
        <time>2019-08-18T10:54:38Z</time>
      </trkpt>
      <trkpt lat="42.90269" lon="0.09135">
        <ele>1415.4</ele>
        <time>2019-08-18T10:54:39Z</time>
      </trkpt>
      <trkpt lat="42.9027" lon="0.09139">
        <ele>1415.5</ele>
        <time>2019-08-18T10:54:40Z</time>
      </trkpt>
      <trkpt lat="42.90271" lon="0.09143">
        <ele>1415.7</ele>
        <time>2019-08-18T10:54:41Z</time>
      </trkpt>
      <trkpt lat="42.90271" lon="0.09148">
        <ele>1415.8</ele>
        <time>2019-08-18T10:54:42Z</time>
      </trkpt>
      <trkpt lat="42.90272" lon="0.09152">
        <ele>1416</ele>
        <time>2019-08-18T10:54:43Z</time>
      </trkpt>
      <trkpt lat="42.90273" lon="0.09156">
        <ele>1416.1</ele>
        <time>2019-08-18T10:54:44Z</time>
      </trkpt>
      <trkpt lat="42.90274" lon="0.0916">
        <ele>1416.3</ele>
        <time>2019-08-18T10:54:45Z</time>
      </trkpt>
      <trkpt lat="42.90274" lon="0.09164">
        <ele>1416.4</ele>
        <time>2019-08-18T10:54:46Z</time>
      </trkpt>
      <trkpt lat="42.90275" lon="0.09168">
        <ele>1416.6</ele>
        <time>2019-08-18T10:54:47Z</time>
      </trkpt>
      <trkpt lat="42.90275" lon="0.09173">
        <ele>1416.8</ele>
        <time>2019-08-18T10:54:48Z</time>
      </trkpt>
      <trkpt lat="42.90276" lon="0.09177">
        <ele>1416.9</ele>
        <time>2019-08-18T10:54:49Z</time>
      </trkpt>
      <trkpt lat="42.90277" lon="0.09181">
        <ele>1417.1</ele>
        <time>2019-08-18T10:54:50Z</time>
      </trkpt>
      <trkpt lat="42.90277" lon="0.09185">
        <ele>1417.2</ele>
        <time>2019-08-18T10:54:51Z</time>
      </trkpt>
      <trkpt lat="42.90278" lon="0.09189">
        <ele>1417.4</ele>
        <time>2019-08-18T10:54:52Z</time>
      </trkpt>
      <trkpt lat="42.90279" lon="0.09193">
        <ele>1417.6</ele>
        <time>2019-08-18T10:54:53Z</time>
      </trkpt>
      <trkpt lat="42.9028" lon="0.09197">
        <ele>1417.7</ele>
        <time>2019-08-18T10:54:54Z</time>
      </trkpt>
      <trkpt lat="42.90281" lon="0.09201">
        <ele>1417.9</ele>
        <time>2019-08-18T10:54:55Z</time>
      </trkpt>
      <trkpt lat="42.90282" lon="0.09205">
        <ele>1418</ele>
        <time>2019-08-18T10:54:56Z</time>
      </trkpt>
      <trkpt lat="42.90283" lon="0.0921">
        <ele>1418.2</ele>
        <time>2019-08-18T10:54:57Z</time>
      </trkpt>
      <trkpt lat="42.90283" lon="0.09214">
        <ele>1418.4</ele>
        <time>2019-08-18T10:54:58Z</time>
      </trkpt>
      <trkpt lat="42.90285" lon="0.09218">
        <ele>1418.6</ele>
        <time>2019-08-18T10:54:59Z</time>
      </trkpt>
      <trkpt lat="42.90286" lon="0.09222">
        <ele>1418.7</ele>
        <time>2019-08-18T10:55:00Z</time>
      </trkpt>
      <trkpt lat="42.90287" lon="0.09226">
        <ele>1418.9</ele>
        <time>2019-08-18T10:55:01Z</time>
      </trkpt>
      <trkpt lat="42.90288" lon="0.0923">
        <ele>1419.1</ele>
        <time>2019-08-18T10:55:02Z</time>
      </trkpt>
      <trkpt lat="42.90289" lon="0.09234">
        <ele>1419.3</ele>
        <time>2019-08-18T10:55:03Z</time>
      </trkpt>
      <trkpt lat="42.9029" lon="0.09238">
        <ele>1419.4</ele>
        <time>2019-08-18T10:55:04Z</time>
      </trkpt>
      <trkpt lat="42.90291" lon="0.09242">
        <ele>1419.6</ele>
        <time>2019-08-18T10:55:05Z</time>
      </trkpt>
      <trkpt lat="42.90292" lon="0.09246">
        <ele>1419.8</ele>
        <time>2019-08-18T10:55:06Z</time>
      </trkpt>
      <trkpt lat="42.90293" lon="0.0925">
        <ele>1420</ele>
        <time>2019-08-18T10:55:07Z</time>
      </trkpt>
      <trkpt lat="42.90293" lon="0.09254">
        <ele>1420.2</ele>
        <time>2019-08-18T10:55:08Z</time>
      </trkpt>
      <trkpt lat="42.90294" lon="0.09259">
        <ele>1420.4</ele>
        <time>2019-08-18T10:55:09Z</time>
      </trkpt>
      <trkpt lat="42.90295" lon="0.09263">
        <ele>1420.5</ele>
        <time>2019-08-18T10:55:10Z</time>
      </trkpt>
      <trkpt lat="42.90296" lon="0.09267">
        <ele>1420.7</ele>
        <time>2019-08-18T10:55:11Z</time>
      </trkpt>
      <trkpt lat="42.90297" lon="0.09272">
        <ele>1421</ele>
        <time>2019-08-18T10:55:12Z</time>
      </trkpt>
      <trkpt lat="42.90298" lon="0.09276">
        <ele>1421.2</ele>
        <time>2019-08-18T10:55:13Z</time>
      </trkpt>
      <trkpt lat="42.90299" lon="0.0928">
        <ele>1421.4</ele>
        <time>2019-08-18T10:55:14Z</time>
      </trkpt>
      <trkpt lat="42.90301" lon="0.09284">
        <ele>1421.6</ele>
        <time>2019-08-18T10:55:15Z</time>
      </trkpt>
      <trkpt lat="42.90302" lon="0.09289">
        <ele>1421.8</ele>
        <time>2019-08-18T10:55:16Z</time>
      </trkpt>
      <trkpt lat="42.90302" lon="0.09293">
        <ele>1422</ele>
        <time>2019-08-18T10:55:17Z</time>
      </trkpt>
      <trkpt lat="42.90303" lon="0.09297">
        <ele>1422.2</ele>
        <time>2019-08-18T10:55:18Z</time>
      </trkpt>
      <trkpt lat="42.90304" lon="0.09302">
        <ele>1422.4</ele>
        <time>2019-08-18T10:55:19Z</time>
      </trkpt>
      <trkpt lat="42.90305" lon="0.09307">
        <ele>1422.6</ele>
        <time>2019-08-18T10:55:20Z</time>
      </trkpt>
      <trkpt lat="42.90306" lon="0.09311">
        <ele>1422.9</ele>
        <time>2019-08-18T10:55:21Z</time>
      </trkpt>
      <trkpt lat="42.90306" lon="0.09317">
        <ele>1423.1</ele>
        <time>2019-08-18T10:55:22Z</time>
      </trkpt>
      <trkpt lat="42.90307" lon="0.09322">
        <ele>1423.3</ele>
        <time>2019-08-18T10:55:23Z</time>
      </trkpt>
      <trkpt lat="42.90308" lon="0.09327">
        <ele>1423.6</ele>
        <time>2019-08-18T10:55:24Z</time>
      </trkpt>
      <trkpt lat="42.90309" lon="0.09332">
        <ele>1423.9</ele>
        <time>2019-08-18T10:55:25Z</time>
      </trkpt>
      <trkpt lat="42.9031" lon="0.09337">
        <ele>1424.1</ele>
        <time>2019-08-18T10:55:26Z</time>
      </trkpt>
      <trkpt lat="42.90312" lon="0.09342">
        <ele>1424.3</ele>
        <time>2019-08-18T10:55:27Z</time>
      </trkpt>
      <trkpt lat="42.90313" lon="0.09347">
        <ele>1424.6</ele>
        <time>2019-08-18T10:55:28Z</time>
      </trkpt>
      <trkpt lat="42.90314" lon="0.09351">
        <ele>1424.8</ele>
        <time>2019-08-18T10:55:29Z</time>
      </trkpt>
      <trkpt lat="42.90316" lon="0.09356">
        <ele>1425</ele>
        <time>2019-08-18T10:55:30Z</time>
      </trkpt>
      <trkpt lat="42.90317" lon="0.09361">
        <ele>1425.3</ele>
        <time>2019-08-18T10:55:31Z</time>
      </trkpt>
      <trkpt lat="42.90318" lon="0.09365">
        <ele>1425.5</ele>
        <time>2019-08-18T10:55:32Z</time>
      </trkpt>
      <trkpt lat="42.9032" lon="0.09369">
        <ele>1425.7</ele>
        <time>2019-08-18T10:55:33Z</time>
      </trkpt>
      <trkpt lat="42.90321" lon="0.09374">
        <ele>1425.9</ele>
        <time>2019-08-18T10:55:34Z</time>
      </trkpt>
      <trkpt lat="42.90322" lon="0.09379">
        <ele>1426.1</ele>
        <time>2019-08-18T10:55:35Z</time>
      </trkpt>
      <trkpt lat="42.90323" lon="0.09383">
        <ele>1426.4</ele>
        <time>2019-08-18T10:55:36Z</time>
      </trkpt>
      <trkpt lat="42.90323" lon="0.09388">
        <ele>1426.6</ele>
        <time>2019-08-18T10:55:37Z</time>
      </trkpt>
      <trkpt lat="42.90323" lon="0.09392">
        <ele>1426.8</ele>
        <time>2019-08-18T10:55:38Z</time>
      </trkpt>
      <trkpt lat="42.90324" lon="0.09397">
        <ele>1427</ele>
        <time>2019-08-18T10:55:39Z</time>
      </trkpt>
      <trkpt lat="42.90326" lon="0.09401">
        <ele>1427.2</ele>
        <time>2019-08-18T10:55:40Z</time>
      </trkpt>
      <trkpt lat="42.90327" lon="0.09405">
        <ele>1427.4</ele>
        <time>2019-08-18T10:55:41Z</time>
      </trkpt>
      <trkpt lat="42.90327" lon="0.09409">
        <ele>1427.6</ele>
        <time>2019-08-18T10:55:42Z</time>
      </trkpt>
      <trkpt lat="42.90328" lon="0.09414">
        <ele>1427.8</ele>
        <time>2019-08-18T10:55:43Z</time>
      </trkpt>
      <trkpt lat="42.90329" lon="0.09417">
        <ele>1428</ele>
        <time>2019-08-18T10:55:44Z</time>
      </trkpt>
      <trkpt lat="42.90329" lon="0.09421">
        <ele>1428.2</ele>
        <time>2019-08-18T10:55:45Z</time>
      </trkpt>
      <trkpt lat="42.9033" lon="0.09425">
        <ele>1428.3</ele>
        <time>2019-08-18T10:55:46Z</time>
      </trkpt>
      <trkpt lat="42.90331" lon="0.09429">
        <ele>1428.3</ele>
        <time>2019-08-18T10:55:47Z</time>
      </trkpt>
      <trkpt lat="42.90331" lon="0.09434">
        <ele>1428.3</ele>
        <time>2019-08-18T10:55:48Z</time>
      </trkpt>
      <trkpt lat="42.90331" lon="0.09438">
        <ele>1428.3</ele>
        <time>2019-08-18T10:55:49Z</time>
      </trkpt>
      <trkpt lat="42.90331" lon="0.09442">
        <ele>1428.3</ele>
        <time>2019-08-18T10:55:50Z</time>
      </trkpt>
      <trkpt lat="42.90331" lon="0.09447">
        <ele>1428.3</ele>
        <time>2019-08-18T10:55:51Z</time>
      </trkpt>
      <trkpt lat="42.90331" lon="0.09451">
        <ele>1428.3</ele>
        <time>2019-08-18T10:55:52Z</time>
      </trkpt>
      <trkpt lat="42.90332" lon="0.09456">
        <ele>1428.5</ele>
        <time>2019-08-18T10:55:53Z</time>
      </trkpt>
      <trkpt lat="42.90332" lon="0.0946">
        <ele>1428.6</ele>
        <time>2019-08-18T10:55:54Z</time>
      </trkpt>
      <trkpt lat="42.90332" lon="0.09464">
        <ele>1428.8</ele>
        <time>2019-08-18T10:55:55Z</time>
      </trkpt>
      <trkpt lat="42.90333" lon="0.09468">
        <ele>1429</ele>
        <time>2019-08-18T10:55:56Z</time>
      </trkpt>
      <trkpt lat="42.90333" lon="0.09475">
        <ele>1429.5</ele>
        <time>2019-08-18T10:55:58Z</time>
      </trkpt>
      <trkpt lat="42.90333" lon="0.09479">
        <ele>1429.7</ele>
        <time>2019-08-18T10:55:59Z</time>
      </trkpt>
      <trkpt lat="42.90333" lon="0.09483">
        <ele>1429.9</ele>
        <time>2019-08-18T10:56:00Z</time>
      </trkpt>
      <trkpt lat="42.90333" lon="0.0949">
        <ele>1430.3</ele>
        <time>2019-08-18T10:56:02Z</time>
      </trkpt>
      <trkpt lat="42.90334" lon="0.09494">
        <ele>1430.6</ele>
        <time>2019-08-18T10:56:03Z</time>
      </trkpt>
      <trkpt lat="42.90334" lon="0.09501">
        <ele>1431.2</ele>
        <time>2019-08-18T10:56:05Z</time>
      </trkpt>
      <trkpt lat="42.90333" lon="0.09505">
        <ele>1431.4</ele>
        <time>2019-08-18T10:56:06Z</time>
      </trkpt>
      <trkpt lat="42.90333" lon="0.09512">
        <ele>1431.8</ele>
        <time>2019-08-18T10:56:08Z</time>
      </trkpt>
      <trkpt lat="42.90333" lon="0.09516">
        <ele>1432.3</ele>
        <time>2019-08-18T10:56:09Z</time>
      </trkpt>
      <trkpt lat="42.90333" lon="0.0952">
        <ele>1432.4</ele>
        <time>2019-08-18T10:56:10Z</time>
      </trkpt>
      <trkpt lat="42.90333" lon="0.09524">
        <ele>1432.6</ele>
        <time>2019-08-18T10:56:11Z</time>
      </trkpt>
      <trkpt lat="42.90333" lon="0.09528">
        <ele>1432.7</ele>
        <time>2019-08-18T10:56:12Z</time>
      </trkpt>
      <trkpt lat="42.90332" lon="0.09532">
        <ele>1432.9</ele>
        <time>2019-08-18T10:56:13Z</time>
      </trkpt>
      <trkpt lat="42.90332" lon="0.09536">
        <ele>1433</ele>
        <time>2019-08-18T10:56:14Z</time>
      </trkpt>
      <trkpt lat="42.90332" lon="0.0954">
        <ele>1433.2</ele>
        <time>2019-08-18T10:56:15Z</time>
      </trkpt>
      <trkpt lat="42.90332" lon="0.09545">
        <ele>1433.4</ele>
        <time>2019-08-18T10:56:16Z</time>
      </trkpt>
      <trkpt lat="42.90332" lon="0.09549">
        <ele>1433.5</ele>
        <time>2019-08-18T10:56:17Z</time>
      </trkpt>
      <trkpt lat="42.90333" lon="0.09553">
        <ele>1433.7</ele>
        <time>2019-08-18T10:56:18Z</time>
      </trkpt>
      <trkpt lat="42.90333" lon="0.09556">
        <ele>1433.9</ele>
        <time>2019-08-18T10:56:19Z</time>
      </trkpt>
      <trkpt lat="42.90333" lon="0.0956">
        <ele>1434</ele>
        <time>2019-08-18T10:56:20Z</time>
      </trkpt>
      <trkpt lat="42.90333" lon="0.09565">
        <ele>1434.2</ele>
        <time>2019-08-18T10:56:21Z</time>
      </trkpt>
      <trkpt lat="42.90333" lon="0.09569">
        <ele>1434.4</ele>
        <time>2019-08-18T10:56:22Z</time>
      </trkpt>
      <trkpt lat="42.90334" lon="0.09573">
        <ele>1434.6</ele>
        <time>2019-08-18T10:56:23Z</time>
      </trkpt>
      <trkpt lat="42.90334" lon="0.09577">
        <ele>1434.7</ele>
        <time>2019-08-18T10:56:24Z</time>
      </trkpt>
      <trkpt lat="42.90335" lon="0.09581">
        <ele>1434.9</ele>
        <time>2019-08-18T10:56:25Z</time>
      </trkpt>
      <trkpt lat="42.90336" lon="0.09585">
        <ele>1435.1</ele>
        <time>2019-08-18T10:56:26Z</time>
      </trkpt>
      <trkpt lat="42.90336" lon="0.0959">
        <ele>1435.3</ele>
        <time>2019-08-18T10:56:27Z</time>
      </trkpt>
      <trkpt lat="42.90336" lon="0.09594">
        <ele>1435.5</ele>
        <time>2019-08-18T10:56:28Z</time>
      </trkpt>
      <trkpt lat="42.90337" lon="0.09599">
        <ele>1435.7</ele>
        <time>2019-08-18T10:56:29Z</time>
      </trkpt>
      <trkpt lat="42.90337" lon="0.09604">
        <ele>1435.9</ele>
        <time>2019-08-18T10:56:30Z</time>
      </trkpt>
      <trkpt lat="42.90337" lon="0.09608">
        <ele>1436.2</ele>
        <time>2019-08-18T10:56:31Z</time>
      </trkpt>
      <trkpt lat="42.90337" lon="0.09612">
        <ele>1436.5</ele>
        <time>2019-08-18T10:56:32Z</time>
      </trkpt>
      <trkpt lat="42.90337" lon="0.09617">
        <ele>1436.7</ele>
        <time>2019-08-18T10:56:33Z</time>
      </trkpt>
      <trkpt lat="42.90337" lon="0.09621">
        <ele>1437</ele>
        <time>2019-08-18T10:56:34Z</time>
      </trkpt>
      <trkpt lat="42.90337" lon="0.09625">
        <ele>1437.2</ele>
        <time>2019-08-18T10:56:35Z</time>
      </trkpt>
      <trkpt lat="42.90337" lon="0.09632">
        <ele>1437.5</ele>
        <time>2019-08-18T10:56:37Z</time>
      </trkpt>
      <trkpt lat="42.90336" lon="0.09636">
        <ele>1437.6</ele>
        <time>2019-08-18T10:56:38Z</time>
      </trkpt>
      <trkpt lat="42.90336" lon="0.09641">
        <ele>1437.8</ele>
        <time>2019-08-18T10:56:39Z</time>
      </trkpt>
      <trkpt lat="42.90336" lon="0.09645">
        <ele>1438</ele>
        <time>2019-08-18T10:56:40Z</time>
      </trkpt>
      <trkpt lat="42.90337" lon="0.09649">
        <ele>1438.2</ele>
        <time>2019-08-18T10:56:41Z</time>
      </trkpt>
      <trkpt lat="42.90337" lon="0.09653">
        <ele>1438.4</ele>
        <time>2019-08-18T10:56:42Z</time>
      </trkpt>
      <trkpt lat="42.90337" lon="0.09657">
        <ele>1438.5</ele>
        <time>2019-08-18T10:56:43Z</time>
      </trkpt>
      <trkpt lat="42.90337" lon="0.09661">
        <ele>1438.7</ele>
        <time>2019-08-18T10:56:44Z</time>
      </trkpt>
      <trkpt lat="42.90337" lon="0.09665">
        <ele>1438.9</ele>
        <time>2019-08-18T10:56:45Z</time>
      </trkpt>
      <trkpt lat="42.90337" lon="0.09669">
        <ele>1439.1</ele>
        <time>2019-08-18T10:56:46Z</time>
      </trkpt>
      <trkpt lat="42.90337" lon="0.09673">
        <ele>1439.2</ele>
        <time>2019-08-18T10:56:47Z</time>
      </trkpt>
      <trkpt lat="42.90337" lon="0.09677">
        <ele>1439.4</ele>
        <time>2019-08-18T10:56:48Z</time>
      </trkpt>
      <trkpt lat="42.90337" lon="0.09681">
        <ele>1439.6</ele>
        <time>2019-08-18T10:56:49Z</time>
      </trkpt>
      <trkpt lat="42.90336" lon="0.09685">
        <ele>1439.8</ele>
        <time>2019-08-18T10:56:50Z</time>
      </trkpt>
      <trkpt lat="42.90336" lon="0.09689">
        <ele>1439.9</ele>
        <time>2019-08-18T10:56:51Z</time>
      </trkpt>
      <trkpt lat="42.90336" lon="0.09694">
        <ele>1440.1</ele>
        <time>2019-08-18T10:56:52Z</time>
      </trkpt>
      <trkpt lat="42.90337" lon="0.09697">
        <ele>1440.3</ele>
        <time>2019-08-18T10:56:53Z</time>
      </trkpt>
      <trkpt lat="42.90337" lon="0.09701">
        <ele>1440.4</ele>
        <time>2019-08-18T10:56:54Z</time>
      </trkpt>
      <trkpt lat="42.90338" lon="0.09705">
        <ele>1440.6</ele>
        <time>2019-08-18T10:56:55Z</time>
      </trkpt>
      <trkpt lat="42.90337" lon="0.09709">
        <ele>1440.8</ele>
        <time>2019-08-18T10:56:56Z</time>
      </trkpt>
      <trkpt lat="42.90337" lon="0.09714">
        <ele>1441</ele>
        <time>2019-08-18T10:56:57Z</time>
      </trkpt>
      <trkpt lat="42.90337" lon="0.09718">
        <ele>1441.2</ele>
        <time>2019-08-18T10:56:58Z</time>
      </trkpt>
      <trkpt lat="42.90338" lon="0.09722">
        <ele>1441.4</ele>
        <time>2019-08-18T10:56:59Z</time>
      </trkpt>
      <trkpt lat="42.90338" lon="0.09727">
        <ele>1441.6</ele>
        <time>2019-08-18T10:57:00Z</time>
      </trkpt>
      <trkpt lat="42.90338" lon="0.09731">
        <ele>1441.9</ele>
        <time>2019-08-18T10:57:01Z</time>
      </trkpt>
      <trkpt lat="42.90339" lon="0.09735">
        <ele>1442.1</ele>
        <time>2019-08-18T10:57:02Z</time>
      </trkpt>
      <trkpt lat="42.90339" lon="0.09739">
        <ele>1442.4</ele>
        <time>2019-08-18T10:57:03Z</time>
      </trkpt>
      <trkpt lat="42.9034" lon="0.09743">
        <ele>1442.7</ele>
        <time>2019-08-18T10:57:04Z</time>
      </trkpt>
      <trkpt lat="42.9034" lon="0.09746">
        <ele>1442.9</ele>
        <time>2019-08-18T10:57:05Z</time>
      </trkpt>
      <trkpt lat="42.90341" lon="0.09751">
        <ele>1443.2</ele>
        <time>2019-08-18T10:57:06Z</time>
      </trkpt>
      <trkpt lat="42.90341" lon="0.09754">
        <ele>1443.4</ele>
        <time>2019-08-18T10:57:07Z</time>
      </trkpt>
      <trkpt lat="42.90342" lon="0.09758">
        <ele>1443.6</ele>
        <time>2019-08-18T10:57:08Z</time>
      </trkpt>
      <trkpt lat="42.90342" lon="0.09762">
        <ele>1443.8</ele>
        <time>2019-08-18T10:57:09Z</time>
      </trkpt>
      <trkpt lat="42.90343" lon="0.09766">
        <ele>1444</ele>
        <time>2019-08-18T10:57:10Z</time>
      </trkpt>
      <trkpt lat="42.90343" lon="0.0977">
        <ele>1444.2</ele>
        <time>2019-08-18T10:57:11Z</time>
      </trkpt>
      <trkpt lat="42.90343" lon="0.09774">
        <ele>1444.3</ele>
        <time>2019-08-18T10:57:12Z</time>
      </trkpt>
      <trkpt lat="42.90344" lon="0.09778">
        <ele>1444.5</ele>
        <time>2019-08-18T10:57:13Z</time>
      </trkpt>
      <trkpt lat="42.90345" lon="0.09782">
        <ele>1444.7</ele>
        <time>2019-08-18T10:57:14Z</time>
      </trkpt>
      <trkpt lat="42.90345" lon="0.09786">
        <ele>1444.9</ele>
        <time>2019-08-18T10:57:15Z</time>
      </trkpt>
      <trkpt lat="42.90346" lon="0.0979">
        <ele>1445.1</ele>
        <time>2019-08-18T10:57:16Z</time>
      </trkpt>
      <trkpt lat="42.90347" lon="0.09794">
        <ele>1445.2</ele>
        <time>2019-08-18T10:57:17Z</time>
      </trkpt>
      <trkpt lat="42.90348" lon="0.09798">
        <ele>1445.4</ele>
        <time>2019-08-18T10:57:18Z</time>
      </trkpt>
      <trkpt lat="42.90348" lon="0.09802">
        <ele>1445.6</ele>
        <time>2019-08-18T10:57:19Z</time>
      </trkpt>
      <trkpt lat="42.90349" lon="0.09806">
        <ele>1445.7</ele>
        <time>2019-08-18T10:57:20Z</time>
      </trkpt>
      <trkpt lat="42.90349" lon="0.0981">
        <ele>1445.9</ele>
        <time>2019-08-18T10:57:21Z</time>
      </trkpt>
      <trkpt lat="42.90349" lon="0.09815">
        <ele>1446.1</ele>
        <time>2019-08-18T10:57:22Z</time>
      </trkpt>
      <trkpt lat="42.90349" lon="0.09819">
        <ele>1446.3</ele>
        <time>2019-08-18T10:57:23Z</time>
      </trkpt>
      <trkpt lat="42.90349" lon="0.09823">
        <ele>1446.4</ele>
        <time>2019-08-18T10:57:24Z</time>
      </trkpt>
      <trkpt lat="42.90349" lon="0.09827">
        <ele>1446.6</ele>
        <time>2019-08-18T10:57:25Z</time>
      </trkpt>
      <trkpt lat="42.90349" lon="0.09831">
        <ele>1446.8</ele>
        <time>2019-08-18T10:57:26Z</time>
      </trkpt>
      <trkpt lat="42.9035" lon="0.09835">
        <ele>1447</ele>
        <time>2019-08-18T10:57:27Z</time>
      </trkpt>
      <trkpt lat="42.9035" lon="0.09839">
        <ele>1447.3</ele>
        <time>2019-08-18T10:57:28Z</time>
      </trkpt>
      <trkpt lat="42.90351" lon="0.09843">
        <ele>1447.5</ele>
        <time>2019-08-18T10:57:29Z</time>
      </trkpt>
      <trkpt lat="42.90351" lon="0.09847">
        <ele>1447.7</ele>
        <time>2019-08-18T10:57:30Z</time>
      </trkpt>
      <trkpt lat="42.90351" lon="0.09851">
        <ele>1447.9</ele>
        <time>2019-08-18T10:57:31Z</time>
      </trkpt>
      <trkpt lat="42.90352" lon="0.09856">
        <ele>1448.1</ele>
        <time>2019-08-18T10:57:32Z</time>
      </trkpt>
      <trkpt lat="42.90352" lon="0.0986">
        <ele>1448.3</ele>
        <time>2019-08-18T10:57:33Z</time>
      </trkpt>
      <trkpt lat="42.90353" lon="0.09864">
        <ele>1448.5</ele>
        <time>2019-08-18T10:57:34Z</time>
      </trkpt>
      <trkpt lat="42.90353" lon="0.09868">
        <ele>1448.7</ele>
        <time>2019-08-18T10:57:35Z</time>
      </trkpt>
      <trkpt lat="42.90354" lon="0.09871">
        <ele>1448.9</ele>
        <time>2019-08-18T10:57:36Z</time>
      </trkpt>
      <trkpt lat="42.90355" lon="0.09875">
        <ele>1449</ele>
        <time>2019-08-18T10:57:37Z</time>
      </trkpt>
      <trkpt lat="42.90355" lon="0.09879">
        <ele>1449.2</ele>
        <time>2019-08-18T10:57:38Z</time>
      </trkpt>
      <trkpt lat="42.90356" lon="0.09883">
        <ele>1449.4</ele>
        <time>2019-08-18T10:57:39Z</time>
      </trkpt>
      <trkpt lat="42.90356" lon="0.09886">
        <ele>1449.6</ele>
        <time>2019-08-18T10:57:40Z</time>
      </trkpt>
      <trkpt lat="42.90356" lon="0.09893">
        <ele>1449.9</ele>
        <time>2019-08-18T10:57:42Z</time>
      </trkpt>
      <trkpt lat="42.90356" lon="0.099">
        <ele>1450.2</ele>
        <time>2019-08-18T10:57:44Z</time>
      </trkpt>
      <trkpt lat="42.90355" lon="0.09908">
        <ele>1450.5</ele>
        <time>2019-08-18T10:57:46Z</time>
      </trkpt>
      <trkpt lat="42.90355" lon="0.09915">
        <ele>1450.8</ele>
        <time>2019-08-18T10:57:48Z</time>
      </trkpt>
      <trkpt lat="42.90354" lon="0.09922">
        <ele>1451</ele>
        <time>2019-08-18T10:57:50Z</time>
      </trkpt>
      <trkpt lat="42.90353" lon="0.09928">
        <ele>1451.3</ele>
        <time>2019-08-18T10:57:52Z</time>
      </trkpt>
      <trkpt lat="42.90354" lon="0.09935">
        <ele>1451.5</ele>
        <time>2019-08-18T10:57:54Z</time>
      </trkpt>
      <trkpt lat="42.90354" lon="0.09942">
        <ele>1451.6</ele>
        <time>2019-08-18T10:57:56Z</time>
      </trkpt>
      <trkpt lat="42.90353" lon="0.09949">
        <ele>1451.8</ele>
        <time>2019-08-18T10:57:58Z</time>
      </trkpt>
      <trkpt lat="42.90353" lon="0.09956">
        <ele>1452</ele>
        <time>2019-08-18T10:58:00Z</time>
      </trkpt>
      <trkpt lat="42.90353" lon="0.09963">
        <ele>1452.1</ele>
        <time>2019-08-18T10:58:02Z</time>
      </trkpt>
      <trkpt lat="42.90353" lon="0.09966">
        <ele>1452.2</ele>
        <time>2019-08-18T10:58:03Z</time>
      </trkpt>
      <trkpt lat="42.90352" lon="0.0997">
        <ele>1452.2</ele>
        <time>2019-08-18T10:58:04Z</time>
      </trkpt>
      <trkpt lat="42.90352" lon="0.09974">
        <ele>1452.3</ele>
        <time>2019-08-18T10:58:05Z</time>
      </trkpt>
      <trkpt lat="42.9035" lon="0.09981">
        <ele>1452.4</ele>
        <time>2019-08-18T10:58:07Z</time>
      </trkpt>
      <trkpt lat="42.9035" lon="0.09988">
        <ele>1452.5</ele>
        <time>2019-08-18T10:58:09Z</time>
      </trkpt>
      <trkpt lat="42.9035" lon="0.09995">
        <ele>1452.6</ele>
        <time>2019-08-18T10:58:11Z</time>
      </trkpt>
      <trkpt lat="42.9035" lon="0.10002">
        <ele>1452.7</ele>
        <time>2019-08-18T10:58:13Z</time>
      </trkpt>
      <trkpt lat="42.90349" lon="0.10008">
        <ele>1452.8</ele>
        <time>2019-08-18T10:58:15Z</time>
      </trkpt>
      <trkpt lat="42.90349" lon="0.10015">
        <ele>1452.9</ele>
        <time>2019-08-18T10:58:17Z</time>
      </trkpt>
      <trkpt lat="42.90347" lon="0.10021">
        <ele>1453</ele>
        <time>2019-08-18T10:58:19Z</time>
      </trkpt>
      <trkpt lat="42.90344" lon="0.10027">
        <ele>1453.7</ele>
        <time>2019-08-18T10:58:21Z</time>
      </trkpt>
      <trkpt lat="42.90342" lon="0.10032">
        <ele>1454.2</ele>
        <time>2019-08-18T10:58:23Z</time>
      </trkpt>
      <trkpt lat="42.90338" lon="0.10037">
        <ele>1454.9</ele>
        <time>2019-08-18T10:58:25Z</time>
      </trkpt>
      <trkpt lat="42.90335" lon="0.10042">
        <ele>1455.5</ele>
        <time>2019-08-18T10:58:27Z</time>
      </trkpt>
      <trkpt lat="42.90333" lon="0.10046">
        <ele>1456</ele>
        <time>2019-08-18T10:58:29Z</time>
      </trkpt>
      <trkpt lat="42.9033" lon="0.10051">
        <ele>1456.4</ele>
        <time>2019-08-18T10:58:31Z</time>
      </trkpt>
      <trkpt lat="42.90328" lon="0.10056">
        <ele>1456.9</ele>
        <time>2019-08-18T10:58:33Z</time>
      </trkpt>
      <trkpt lat="42.90325" lon="0.1006">
        <ele>1457.3</ele>
        <time>2019-08-18T10:58:35Z</time>
      </trkpt>
      <trkpt lat="42.90323" lon="0.10065">
        <ele>1457.8</ele>
        <time>2019-08-18T10:58:37Z</time>
      </trkpt>
      <trkpt lat="42.90322" lon="0.1007">
        <ele>1458.4</ele>
        <time>2019-08-18T10:58:39Z</time>
      </trkpt>
      <trkpt lat="42.90321" lon="0.10076">
        <ele>1458.9</ele>
        <time>2019-08-18T10:58:41Z</time>
      </trkpt>
      <trkpt lat="42.9032" lon="0.10082">
        <ele>1459.7</ele>
        <time>2019-08-18T10:58:43Z</time>
      </trkpt>
      <trkpt lat="42.9032" lon="0.10089">
        <ele>1459.8</ele>
        <time>2019-08-18T10:58:45Z</time>
      </trkpt>
      <trkpt lat="42.9032" lon="0.10096">
        <ele>1459.8</ele>
        <time>2019-08-18T10:58:47Z</time>
      </trkpt>
      <trkpt lat="42.9032" lon="0.10099">
        <ele>1459.8</ele>
        <time>2019-08-18T10:58:48Z</time>
      </trkpt>
      <trkpt lat="42.90322" lon="0.10107">
        <ele>1459.9</ele>
        <time>2019-08-18T10:58:50Z</time>
      </trkpt>
      <trkpt lat="42.90323" lon="0.10111">
        <ele>1459.9</ele>
        <time>2019-08-18T10:58:51Z</time>
      </trkpt>
      <trkpt lat="42.90323" lon="0.10115">
        <ele>1459.7</ele>
        <time>2019-08-18T10:58:52Z</time>
      </trkpt>
      <trkpt lat="42.90324" lon="0.10119">
        <ele>1459.5</ele>
        <time>2019-08-18T10:58:53Z</time>
      </trkpt>
      <trkpt lat="42.90324" lon="0.10123">
        <ele>1459.3</ele>
        <time>2019-08-18T10:58:54Z</time>
      </trkpt>
      <trkpt lat="42.90325" lon="0.10127">
        <ele>1459.1</ele>
        <time>2019-08-18T10:58:55Z</time>
      </trkpt>
      <trkpt lat="42.90325" lon="0.10131">
        <ele>1459.2</ele>
        <time>2019-08-18T10:58:56Z</time>
      </trkpt>
      <trkpt lat="42.90326" lon="0.10135">
        <ele>1459.3</ele>
        <time>2019-08-18T10:58:57Z</time>
      </trkpt>
      <trkpt lat="42.90326" lon="0.10139">
        <ele>1459.4</ele>
        <time>2019-08-18T10:58:58Z</time>
      </trkpt>
      <trkpt lat="42.90327" lon="0.10143">
        <ele>1459.6</ele>
        <time>2019-08-18T10:58:59Z</time>
      </trkpt>
      <trkpt lat="42.90327" lon="0.10147">
        <ele>1459.7</ele>
        <time>2019-08-18T10:59:00Z</time>
      </trkpt>
      <trkpt lat="42.90328" lon="0.10151">
        <ele>1459.8</ele>
        <time>2019-08-18T10:59:01Z</time>
      </trkpt>
      <trkpt lat="42.90328" lon="0.10158">
        <ele>1459.9</ele>
        <time>2019-08-18T10:59:03Z</time>
      </trkpt>
      <trkpt lat="42.90328" lon="0.10162">
        <ele>1460</ele>
        <time>2019-08-18T10:59:04Z</time>
      </trkpt>
      <trkpt lat="42.90339" lon="0.10184">
        <ele>1460.4</ele>
        <time>2019-08-18T11:03:40Z</time>
      </trkpt>
      <trkpt lat="42.9034" lon="0.10187">
        <ele>1460.4</ele>
        <time>2019-08-18T11:03:41Z</time>
      </trkpt>
      <trkpt lat="42.90341" lon="0.10192">
        <ele>1460.5</ele>
        <time>2019-08-18T11:03:42Z</time>
      </trkpt>
      <trkpt lat="42.90342" lon="0.10198">
        <ele>1460.6</ele>
        <time>2019-08-18T11:03:43Z</time>
      </trkpt>
      <trkpt lat="42.90343" lon="0.10204">
        <ele>1460.6</ele>
        <time>2019-08-18T11:03:44Z</time>
      </trkpt>
      <trkpt lat="42.90343" lon="0.10209">
        <ele>1460.7</ele>
        <time>2019-08-18T11:03:45Z</time>
      </trkpt>
      <trkpt lat="42.90344" lon="0.10214">
        <ele>1460.7</ele>
        <time>2019-08-18T11:03:46Z</time>
      </trkpt>
      <trkpt lat="42.90345" lon="0.10219">
        <ele>1460.8</ele>
        <time>2019-08-18T11:03:47Z</time>
      </trkpt>
      <trkpt lat="42.90345" lon="0.10224">
        <ele>1460.9</ele>
        <time>2019-08-18T11:03:48Z</time>
      </trkpt>
      <trkpt lat="42.90345" lon="0.10229">
        <ele>1460.9</ele>
        <time>2019-08-18T11:03:49Z</time>
      </trkpt>
      <trkpt lat="42.90345" lon="0.10233">
        <ele>1461</ele>
        <time>2019-08-18T11:03:50Z</time>
      </trkpt>
      <trkpt lat="42.90345" lon="0.10238">
        <ele>1461.1</ele>
        <time>2019-08-18T11:03:51Z</time>
      </trkpt>
      <trkpt lat="42.90345" lon="0.10243">
        <ele>1461.2</ele>
        <time>2019-08-18T11:03:52Z</time>
      </trkpt>
      <trkpt lat="42.90345" lon="0.10248">
        <ele>1461.3</ele>
        <time>2019-08-18T11:03:53Z</time>
      </trkpt>
      <trkpt lat="42.90346" lon="0.10251">
        <ele>1461.5</ele>
        <time>2019-08-18T11:03:54Z</time>
      </trkpt>
      <trkpt lat="42.90346" lon="0.10255">
        <ele>1461.6</ele>
        <time>2019-08-18T11:03:55Z</time>
      </trkpt>
      <trkpt lat="42.90347" lon="0.10262">
        <ele>1461.8</ele>
        <time>2019-08-18T11:03:57Z</time>
      </trkpt>
      <trkpt lat="42.90349" lon="0.10269">
        <ele>1462.1</ele>
        <time>2019-08-18T11:03:59Z</time>
      </trkpt>
      <trkpt lat="42.9035" lon="0.10272">
        <ele>1462.3</ele>
        <time>2019-08-18T11:04:00Z</time>
      </trkpt>
      <trkpt lat="42.90351" lon="0.10278">
        <ele>1462.6</ele>
        <time>2019-08-18T11:04:02Z</time>
      </trkpt>
      <trkpt lat="42.90352" lon="0.10284">
        <ele>1462.9</ele>
        <time>2019-08-18T11:04:04Z</time>
      </trkpt>
      <trkpt lat="42.90354" lon="0.10291">
        <ele>1463.2</ele>
        <time>2019-08-18T11:04:06Z</time>
      </trkpt>
      <trkpt lat="42.90355" lon="0.10294">
        <ele>1463.3</ele>
        <time>2019-08-18T11:04:07Z</time>
      </trkpt>
      <trkpt lat="42.90357" lon="0.10297">
        <ele>1463.5</ele>
        <time>2019-08-18T11:04:08Z</time>
      </trkpt>
      <trkpt lat="42.90358" lon="0.103">
        <ele>1463.9</ele>
        <time>2019-08-18T11:04:09Z</time>
      </trkpt>
      <trkpt lat="42.9036" lon="0.10303">
        <ele>1464.2</ele>
        <time>2019-08-18T11:04:10Z</time>
      </trkpt>
      <trkpt lat="42.90362" lon="0.10306">
        <ele>1464.5</ele>
        <time>2019-08-18T11:04:11Z</time>
      </trkpt>
      <trkpt lat="42.90365" lon="0.10312">
        <ele>1465.1</ele>
        <time>2019-08-18T11:04:13Z</time>
      </trkpt>
      <trkpt lat="42.90366" lon="0.10316">
        <ele>1465.4</ele>
        <time>2019-08-18T11:04:14Z</time>
      </trkpt>
      <trkpt lat="42.90368" lon="0.1032">
        <ele>1465.7</ele>
        <time>2019-08-18T11:04:15Z</time>
      </trkpt>
      <trkpt lat="42.9037" lon="0.10323">
        <ele>1466</ele>
        <time>2019-08-18T11:04:16Z</time>
      </trkpt>
      <trkpt lat="42.90371" lon="0.10327">
        <ele>1466.3</ele>
        <time>2019-08-18T11:04:17Z</time>
      </trkpt>
      <trkpt lat="42.90373" lon="0.1033">
        <ele>1466.5</ele>
        <time>2019-08-18T11:04:18Z</time>
      </trkpt>
      <trkpt lat="42.90375" lon="0.10333">
        <ele>1466.8</ele>
        <time>2019-08-18T11:04:19Z</time>
      </trkpt>
      <trkpt lat="42.90378" lon="0.10339">
        <ele>1467.2</ele>
        <time>2019-08-18T11:04:21Z</time>
      </trkpt>
      <trkpt lat="42.90379" lon="0.10342">
        <ele>1467.5</ele>
        <time>2019-08-18T11:04:22Z</time>
      </trkpt>
      <trkpt lat="42.90381" lon="0.10345">
        <ele>1467.7</ele>
        <time>2019-08-18T11:04:23Z</time>
      </trkpt>
      <trkpt lat="42.90383" lon="0.10348">
        <ele>1468</ele>
        <time>2019-08-18T11:04:24Z</time>
      </trkpt>
      <trkpt lat="42.90385" lon="0.10351">
        <ele>1468.2</ele>
        <time>2019-08-18T11:04:25Z</time>
      </trkpt>
      <trkpt lat="42.9039" lon="0.10355">
        <ele>1468.7</ele>
        <time>2019-08-18T11:04:27Z</time>
      </trkpt>
      <trkpt lat="42.90394" lon="0.10359">
        <ele>1469.2</ele>
        <time>2019-08-18T11:04:29Z</time>
      </trkpt>
      <trkpt lat="42.90396" lon="0.10361">
        <ele>1469.4</ele>
        <time>2019-08-18T11:04:30Z</time>
      </trkpt>
      <trkpt lat="42.90401" lon="0.10364">
        <ele>1469.6</ele>
        <time>2019-08-18T11:04:32Z</time>
      </trkpt>
      <trkpt lat="42.90406" lon="0.10368">
        <ele>1469.7</ele>
        <time>2019-08-18T11:04:34Z</time>
      </trkpt>
      <trkpt lat="42.90409" lon="0.10369">
        <ele>1469.7</ele>
        <time>2019-08-18T11:04:35Z</time>
      </trkpt>
      <trkpt lat="42.90411" lon="0.1037">
        <ele>1469.7</ele>
        <time>2019-08-18T11:04:36Z</time>
      </trkpt>
      <trkpt lat="42.90414" lon="0.10371">
        <ele>1469.8</ele>
        <time>2019-08-18T11:04:37Z</time>
      </trkpt>
      <trkpt lat="42.90418" lon="0.10372">
        <ele>1469.8</ele>
        <time>2019-08-18T11:04:38Z</time>
      </trkpt>
      <trkpt lat="42.90421" lon="0.10372">
        <ele>1469.9</ele>
        <time>2019-08-18T11:04:39Z</time>
      </trkpt>
      <trkpt lat="42.90424" lon="0.10371">
        <ele>1469.9</ele>
        <time>2019-08-18T11:04:40Z</time>
      </trkpt>
      <trkpt lat="42.90427" lon="0.10371">
        <ele>1470</ele>
        <time>2019-08-18T11:04:41Z</time>
      </trkpt>
      <trkpt lat="42.9043" lon="0.10371">
        <ele>1470</ele>
        <time>2019-08-18T11:04:42Z</time>
      </trkpt>
      <trkpt lat="42.90432" lon="0.1037">
        <ele>1470</ele>
        <time>2019-08-18T11:04:43Z</time>
      </trkpt>
      <trkpt lat="42.90435" lon="0.10369">
        <ele>1470.1</ele>
        <time>2019-08-18T11:04:44Z</time>
      </trkpt>
      <trkpt lat="42.9044" lon="0.10366">
        <ele>1470.2</ele>
        <time>2019-08-18T11:04:46Z</time>
      </trkpt>
      <trkpt lat="42.90443" lon="0.10365">
        <ele>1470.2</ele>
        <time>2019-08-18T11:04:47Z</time>
      </trkpt>
      <trkpt lat="42.90445" lon="0.10363">
        <ele>1470.3</ele>
        <time>2019-08-18T11:04:48Z</time>
      </trkpt>
      <trkpt lat="42.90448" lon="0.1036">
        <ele>1470.4</ele>
        <time>2019-08-18T11:04:49Z</time>
      </trkpt>
      <trkpt lat="42.9045" lon="0.10358">
        <ele>1470.4</ele>
        <time>2019-08-18T11:04:50Z</time>
      </trkpt>
      <trkpt lat="42.90453" lon="0.10355">
        <ele>1470.5</ele>
        <time>2019-08-18T11:04:51Z</time>
      </trkpt>
      <trkpt lat="42.90455" lon="0.10352">
        <ele>1470.6</ele>
        <time>2019-08-18T11:04:52Z</time>
      </trkpt>
      <trkpt lat="42.90458" lon="0.10349">
        <ele>1470.9</ele>
        <time>2019-08-18T11:04:53Z</time>
      </trkpt>
      <trkpt lat="42.9046" lon="0.10345">
        <ele>1471.2</ele>
        <time>2019-08-18T11:04:54Z</time>
      </trkpt>
      <trkpt lat="42.90463" lon="0.10342">
        <ele>1471.4</ele>
        <time>2019-08-18T11:04:55Z</time>
      </trkpt>
      <trkpt lat="42.90465" lon="0.10339">
        <ele>1471.7</ele>
        <time>2019-08-18T11:04:56Z</time>
      </trkpt>
      <trkpt lat="42.90467" lon="0.10336">
        <ele>1471.9</ele>
        <time>2019-08-18T11:04:57Z</time>
      </trkpt>
      <trkpt lat="42.9047" lon="0.10334">
        <ele>1472.1</ele>
        <time>2019-08-18T11:04:58Z</time>
      </trkpt>
      <trkpt lat="42.90474" lon="0.1033">
        <ele>1472.5</ele>
        <time>2019-08-18T11:05:00Z</time>
      </trkpt>
      <trkpt lat="42.90478" lon="0.10325">
        <ele>1472.9</ele>
        <time>2019-08-18T11:05:02Z</time>
      </trkpt>
      <trkpt lat="42.9048" lon="0.10323">
        <ele>1473.1</ele>
        <time>2019-08-18T11:05:03Z</time>
      </trkpt>
      <trkpt lat="42.90483" lon="0.10318">
        <ele>1473.5</ele>
        <time>2019-08-18T11:05:05Z</time>
      </trkpt>
      <trkpt lat="42.90487" lon="0.10313">
        <ele>1474</ele>
        <time>2019-08-18T11:05:07Z</time>
      </trkpt>
      <trkpt lat="42.9049" lon="0.10309">
        <ele>1474.4</ele>
        <time>2019-08-18T11:05:09Z</time>
      </trkpt>
      <trkpt lat="42.90494" lon="0.10304">
        <ele>1474.8</ele>
        <time>2019-08-18T11:05:11Z</time>
      </trkpt>
      <trkpt lat="42.90496" lon="0.10302">
        <ele>1475</ele>
        <time>2019-08-18T11:05:12Z</time>
      </trkpt>
      <trkpt lat="42.905" lon="0.10298">
        <ele>1475.4</ele>
        <time>2019-08-18T11:05:14Z</time>
      </trkpt>
      <trkpt lat="42.90504" lon="0.10295">
        <ele>1475.8</ele>
        <time>2019-08-18T11:05:16Z</time>
      </trkpt>
      <trkpt lat="42.90507" lon="0.1029">
        <ele>1476.2</ele>
        <time>2019-08-18T11:05:18Z</time>
      </trkpt>
      <trkpt lat="42.9051" lon="0.10286">
        <ele>1476.5</ele>
        <time>2019-08-18T11:05:20Z</time>
      </trkpt>
      <trkpt lat="42.90514" lon="0.10281">
        <ele>1476.9</ele>
        <time>2019-08-18T11:05:22Z</time>
      </trkpt>
      <trkpt lat="42.90518" lon="0.10278">
        <ele>1477.4</ele>
        <time>2019-08-18T11:05:24Z</time>
      </trkpt>
      <trkpt lat="42.90521" lon="0.10273">
        <ele>1477.8</ele>
        <time>2019-08-18T11:05:26Z</time>
      </trkpt>
      <trkpt lat="42.90524" lon="0.10268">
        <ele>1478.2</ele>
        <time>2019-08-18T11:05:28Z</time>
      </trkpt>
      <trkpt lat="42.90527" lon="0.10262">
        <ele>1478.7</ele>
        <time>2019-08-18T11:05:30Z</time>
      </trkpt>
      <trkpt lat="42.90529" lon="0.10256">
        <ele>1479.1</ele>
        <time>2019-08-18T11:05:32Z</time>
      </trkpt>
      <trkpt lat="42.90531" lon="0.10249">
        <ele>1479.5</ele>
        <time>2019-08-18T11:05:34Z</time>
      </trkpt>
      <trkpt lat="42.90532" lon="0.10243">
        <ele>1480</ele>
        <time>2019-08-18T11:05:36Z</time>
      </trkpt>
      <trkpt lat="42.90533" lon="0.10235">
        <ele>1480.4</ele>
        <time>2019-08-18T11:05:38Z</time>
      </trkpt>
      <trkpt lat="42.90534" lon="0.10232">
        <ele>1480.6</ele>
        <time>2019-08-18T11:05:39Z</time>
      </trkpt>
      <trkpt lat="42.90535" lon="0.10225">
        <ele>1481.1</ele>
        <time>2019-08-18T11:05:41Z</time>
      </trkpt>
      <trkpt lat="42.90535" lon="0.10221">
        <ele>1481.3</ele>
        <time>2019-08-18T11:05:42Z</time>
      </trkpt>
      <trkpt lat="42.90535" lon="0.10214">
        <ele>1481.7</ele>
        <time>2019-08-18T11:05:44Z</time>
      </trkpt>
      <trkpt lat="42.90535" lon="0.1021">
        <ele>1482</ele>
        <time>2019-08-18T11:05:45Z</time>
      </trkpt>
      <trkpt lat="42.90535" lon="0.10203">
        <ele>1482.4</ele>
        <time>2019-08-18T11:05:47Z</time>
      </trkpt>
      <trkpt lat="42.90535" lon="0.10196">
        <ele>1482.9</ele>
        <time>2019-08-18T11:05:49Z</time>
      </trkpt>
      <trkpt lat="42.90534" lon="0.1019">
        <ele>1483.3</ele>
        <time>2019-08-18T11:05:51Z</time>
      </trkpt>
      <trkpt lat="42.90534" lon="0.10183">
        <ele>1483.7</ele>
        <time>2019-08-18T11:05:53Z</time>
      </trkpt>
      <trkpt lat="42.90534" lon="0.10176">
        <ele>1484.2</ele>
        <time>2019-08-18T11:05:55Z</time>
      </trkpt>
      <trkpt lat="42.90537" lon="0.1017">
        <ele>1484.7</ele>
        <time>2019-08-18T11:05:57Z</time>
      </trkpt>
      <trkpt lat="42.9054" lon="0.10165">
        <ele>1485.2</ele>
        <time>2019-08-18T11:05:59Z</time>
      </trkpt>
      <trkpt lat="42.90545" lon="0.10163">
        <ele>1485.7</ele>
        <time>2019-08-18T11:06:01Z</time>
      </trkpt>
      <trkpt lat="42.9055" lon="0.10164">
        <ele>1486.1</ele>
        <time>2019-08-18T11:06:03Z</time>
      </trkpt>
      <trkpt lat="42.90552" lon="0.10166">
        <ele>1486.4</ele>
        <time>2019-08-18T11:06:04Z</time>
      </trkpt>
      <trkpt lat="42.90556" lon="0.10171">
        <ele>1486.9</ele>
        <time>2019-08-18T11:06:06Z</time>
      </trkpt>
      <trkpt lat="42.90559" lon="0.10177">
        <ele>1487.4</ele>
        <time>2019-08-18T11:06:08Z</time>
      </trkpt>
      <trkpt lat="42.90561" lon="0.10183">
        <ele>1487.8</ele>
        <time>2019-08-18T11:06:10Z</time>
      </trkpt>
      <trkpt lat="42.90563" lon="0.1019">
        <ele>1488.2</ele>
        <time>2019-08-18T11:06:12Z</time>
      </trkpt>
      <trkpt lat="42.90564" lon="0.10196">
        <ele>1488.5</ele>
        <time>2019-08-18T11:06:14Z</time>
      </trkpt>
      <trkpt lat="42.90566" lon="0.10202">
        <ele>1488.9</ele>
        <time>2019-08-18T11:06:16Z</time>
      </trkpt>
      <trkpt lat="42.90567" lon="0.10209">
        <ele>1489.2</ele>
        <time>2019-08-18T11:06:18Z</time>
      </trkpt>
      <trkpt lat="42.90568" lon="0.10215">
        <ele>1489.6</ele>
        <time>2019-08-18T11:06:20Z</time>
      </trkpt>
      <trkpt lat="42.90568" lon="0.10222">
        <ele>1489.9</ele>
        <time>2019-08-18T11:06:22Z</time>
      </trkpt>
      <trkpt lat="42.90569" lon="0.10228">
        <ele>1490.3</ele>
        <time>2019-08-18T11:06:24Z</time>
      </trkpt>
      <trkpt lat="42.90569" lon="0.10235">
        <ele>1490.6</ele>
        <time>2019-08-18T11:06:26Z</time>
      </trkpt>
      <trkpt lat="42.90569" lon="0.10242">
        <ele>1491</ele>
        <time>2019-08-18T11:06:28Z</time>
      </trkpt>
      <trkpt lat="42.90569" lon="0.10249">
        <ele>1491.3</ele>
        <time>2019-08-18T11:06:30Z</time>
      </trkpt>
      <trkpt lat="42.90569" lon="0.10255">
        <ele>1491.7</ele>
        <time>2019-08-18T11:06:32Z</time>
      </trkpt>
      <trkpt lat="42.90569" lon="0.10261">
        <ele>1492</ele>
        <time>2019-08-18T11:06:34Z</time>
      </trkpt>
      <trkpt lat="42.90568" lon="0.10267">
        <ele>1492.3</ele>
        <time>2019-08-18T11:06:36Z</time>
      </trkpt>
      <trkpt lat="42.90567" lon="0.10273">
        <ele>1492.6</ele>
        <time>2019-08-18T11:06:38Z</time>
      </trkpt>
      <trkpt lat="42.90568" lon="0.10279">
        <ele>1493</ele>
        <time>2019-08-18T11:06:40Z</time>
      </trkpt>
      <trkpt lat="42.90568" lon="0.10285">
        <ele>1493.3</ele>
        <time>2019-08-18T11:06:42Z</time>
      </trkpt>
      <trkpt lat="42.90567" lon="0.10292">
        <ele>1493.7</ele>
        <time>2019-08-18T11:06:44Z</time>
      </trkpt>
      <trkpt lat="42.90566" lon="0.10298">
        <ele>1494.1</ele>
        <time>2019-08-18T11:06:46Z</time>
      </trkpt>
      <trkpt lat="42.90565" lon="0.10306">
        <ele>1494.5</ele>
        <time>2019-08-18T11:06:48Z</time>
      </trkpt>
      <trkpt lat="42.90563" lon="0.10313">
        <ele>1494.8</ele>
        <time>2019-08-18T11:06:50Z</time>
      </trkpt>
      <trkpt lat="42.90562" lon="0.10319">
        <ele>1495.2</ele>
        <time>2019-08-18T11:06:52Z</time>
      </trkpt>
      <trkpt lat="42.90561" lon="0.10327">
        <ele>1495.6</ele>
        <time>2019-08-18T11:06:54Z</time>
      </trkpt>
      <trkpt lat="42.9056" lon="0.1033">
        <ele>1495.8</ele>
        <time>2019-08-18T11:06:55Z</time>
      </trkpt>
      <trkpt lat="42.90559" lon="0.10337">
        <ele>1496.1</ele>
        <time>2019-08-18T11:06:57Z</time>
      </trkpt>
      <trkpt lat="42.90558" lon="0.10341">
        <ele>1496.3</ele>
        <time>2019-08-18T11:06:58Z</time>
      </trkpt>
      <trkpt lat="42.90557" lon="0.10348">
        <ele>1496.6</ele>
        <time>2019-08-18T11:07:00Z</time>
      </trkpt>
      <trkpt lat="42.90555" lon="0.10354">
        <ele>1496.9</ele>
        <time>2019-08-18T11:07:02Z</time>
      </trkpt>
      <trkpt lat="42.90554" lon="0.10361">
        <ele>1497.2</ele>
        <time>2019-08-18T11:07:04Z</time>
      </trkpt>
      <trkpt lat="42.90553" lon="0.10368">
        <ele>1497.4</ele>
        <time>2019-08-18T11:07:06Z</time>
      </trkpt>
      <trkpt lat="42.90551" lon="0.10375">
        <ele>1497.7</ele>
        <time>2019-08-18T11:07:08Z</time>
      </trkpt>
      <trkpt lat="42.90549" lon="0.10382">
        <ele>1497.9</ele>
        <time>2019-08-18T11:07:10Z</time>
      </trkpt>
      <trkpt lat="42.90548" lon="0.10388">
        <ele>1498.1</ele>
        <time>2019-08-18T11:07:12Z</time>
      </trkpt>
      <trkpt lat="42.90546" lon="0.10395">
        <ele>1498.3</ele>
        <time>2019-08-18T11:07:14Z</time>
      </trkpt>
      <trkpt lat="42.90543" lon="0.10401">
        <ele>1498.5</ele>
        <time>2019-08-18T11:07:16Z</time>
      </trkpt>
      <trkpt lat="42.90541" lon="0.10407">
        <ele>1498.7</ele>
        <time>2019-08-18T11:07:18Z</time>
      </trkpt>
      <trkpt lat="42.90539" lon="0.1041">
        <ele>1498.8</ele>
        <time>2019-08-18T11:07:19Z</time>
      </trkpt>
      <trkpt lat="42.90535" lon="0.10415">
        <ele>1499</ele>
        <time>2019-08-18T11:07:21Z</time>
      </trkpt>
      <trkpt lat="42.90532" lon="0.1042">
        <ele>1499.2</ele>
        <time>2019-08-18T11:07:23Z</time>
      </trkpt>
      <trkpt lat="42.90529" lon="0.10425">
        <ele>1499.5</ele>
        <time>2019-08-18T11:07:25Z</time>
      </trkpt>
      <trkpt lat="42.90525" lon="0.1043">
        <ele>1499.7</ele>
        <time>2019-08-18T11:07:27Z</time>
      </trkpt>
      <trkpt lat="42.90523" lon="0.10435">
        <ele>1500</ele>
        <time>2019-08-18T11:07:29Z</time>
      </trkpt>
      <trkpt lat="42.90521" lon="0.10441">
        <ele>1500.3</ele>
        <time>2019-08-18T11:07:31Z</time>
      </trkpt>
      <trkpt lat="42.9052" lon="0.10448">
        <ele>1500.6</ele>
        <time>2019-08-18T11:07:33Z</time>
      </trkpt>
      <trkpt lat="42.90521" lon="0.10454">
        <ele>1501</ele>
        <time>2019-08-18T11:07:35Z</time>
      </trkpt>
      <trkpt lat="42.90524" lon="0.1046">
        <ele>1501.4</ele>
        <time>2019-08-18T11:07:37Z</time>
      </trkpt>
      <trkpt lat="42.90526" lon="0.10463">
        <ele>1501.7</ele>
        <time>2019-08-18T11:07:38Z</time>
      </trkpt>
      <trkpt lat="42.90531" lon="0.10466">
        <ele>1502.3</ele>
        <time>2019-08-18T11:07:40Z</time>
      </trkpt>
      <trkpt lat="42.90537" lon="0.10467">
        <ele>1502.9</ele>
        <time>2019-08-18T11:07:42Z</time>
      </trkpt>
      <trkpt lat="42.90541" lon="0.10466">
        <ele>1503.4</ele>
        <time>2019-08-18T11:07:44Z</time>
      </trkpt>
      <trkpt lat="42.90545" lon="0.10462">
        <ele>1503.9</ele>
        <time>2019-08-18T11:07:46Z</time>
      </trkpt>
      <trkpt lat="42.90547" lon="0.1046">
        <ele>1504.2</ele>
        <time>2019-08-18T11:07:47Z</time>
      </trkpt>
      <trkpt lat="42.90551" lon="0.10455">
        <ele>1504.8</ele>
        <time>2019-08-18T11:07:49Z</time>
      </trkpt>
      <trkpt lat="42.90555" lon="0.10451">
        <ele>1505.3</ele>
        <time>2019-08-18T11:07:51Z</time>
      </trkpt>
      <trkpt lat="42.90559" lon="0.10446">
        <ele>1505.7</ele>
        <time>2019-08-18T11:07:53Z</time>
      </trkpt>
      <trkpt lat="42.90562" lon="0.10441">
        <ele>1506.2</ele>
        <time>2019-08-18T11:07:55Z</time>
      </trkpt>
      <trkpt lat="42.90565" lon="0.10435">
        <ele>1506.6</ele>
        <time>2019-08-18T11:07:57Z</time>
      </trkpt>
      <trkpt lat="42.90568" lon="0.10429">
        <ele>1507</ele>
        <time>2019-08-18T11:07:59Z</time>
      </trkpt>
      <trkpt lat="42.90571" lon="0.10424">
        <ele>1507.4</ele>
        <time>2019-08-18T11:08:01Z</time>
      </trkpt>
      <trkpt lat="42.90574" lon="0.10418">
        <ele>1507.8</ele>
        <time>2019-08-18T11:08:03Z</time>
      </trkpt>
      <trkpt lat="42.90578" lon="0.10413">
        <ele>1508.2</ele>
        <time>2019-08-18T11:08:05Z</time>
      </trkpt>
      <trkpt lat="42.90581" lon="0.10407">
        <ele>1508.7</ele>
        <time>2019-08-18T11:08:07Z</time>
      </trkpt>
      <trkpt lat="42.90583" lon="0.10401">
        <ele>1509.1</ele>
        <time>2019-08-18T11:08:09Z</time>
      </trkpt>
      <trkpt lat="42.90586" lon="0.10395">
        <ele>1509.5</ele>
        <time>2019-08-18T11:08:11Z</time>
      </trkpt>
      <trkpt lat="42.90589" lon="0.10389">
        <ele>1509.9</ele>
        <time>2019-08-18T11:08:13Z</time>
      </trkpt>
      <trkpt lat="42.90591" lon="0.10383">
        <ele>1510.4</ele>
        <time>2019-08-18T11:08:15Z</time>
      </trkpt>
      <trkpt lat="42.90593" lon="0.1038">
        <ele>1510.6</ele>
        <time>2019-08-18T11:08:16Z</time>
      </trkpt>
      <trkpt lat="42.90594" lon="0.10377">
        <ele>1510.9</ele>
        <time>2019-08-18T11:08:17Z</time>
      </trkpt>
      <trkpt lat="42.90597" lon="0.10371">
        <ele>1511.3</ele>
        <time>2019-08-18T11:08:19Z</time>
      </trkpt>
      <trkpt lat="42.90599" lon="0.10366">
        <ele>1511.7</ele>
        <time>2019-08-18T11:08:21Z</time>
      </trkpt>
      <trkpt lat="42.90601" lon="0.1036">
        <ele>1512.1</ele>
        <time>2019-08-18T11:08:23Z</time>
      </trkpt>
      <trkpt lat="42.90603" lon="0.10354">
        <ele>1512.5</ele>
        <time>2019-08-18T11:08:25Z</time>
      </trkpt>
      <trkpt lat="42.90605" lon="0.10347">
        <ele>1513</ele>
        <time>2019-08-18T11:08:27Z</time>
      </trkpt>
      <trkpt lat="42.90606" lon="0.1034">
        <ele>1513.5</ele>
        <time>2019-08-18T11:08:29Z</time>
      </trkpt>
      <trkpt lat="42.90608" lon="0.10333">
        <ele>1513.9</ele>
        <time>2019-08-18T11:08:31Z</time>
      </trkpt>
      <trkpt lat="42.90609" lon="0.1033">
        <ele>1514.2</ele>
        <time>2019-08-18T11:08:32Z</time>
      </trkpt>
      <trkpt lat="42.9061" lon="0.10326">
        <ele>1514.4</ele>
        <time>2019-08-18T11:08:33Z</time>
      </trkpt>
      <trkpt lat="42.90611" lon="0.10323">
        <ele>1514.7</ele>
        <time>2019-08-18T11:08:34Z</time>
      </trkpt>
      <trkpt lat="42.90612" lon="0.10319">
        <ele>1514.9</ele>
        <time>2019-08-18T11:08:35Z</time>
      </trkpt>
      <trkpt lat="42.90613" lon="0.10316">
        <ele>1515.2</ele>
        <time>2019-08-18T11:08:36Z</time>
      </trkpt>
      <trkpt lat="42.90615" lon="0.10313">
        <ele>1515.4</ele>
        <time>2019-08-18T11:08:37Z</time>
      </trkpt>
      <trkpt lat="42.90616" lon="0.10309">
        <ele>1515.6</ele>
        <time>2019-08-18T11:08:38Z</time>
      </trkpt>
      <trkpt lat="42.90619" lon="0.10303">
        <ele>1516.1</ele>
        <time>2019-08-18T11:08:40Z</time>
      </trkpt>
      <trkpt lat="42.90621" lon="0.103">
        <ele>1516.4</ele>
        <time>2019-08-18T11:08:41Z</time>
      </trkpt>
      <trkpt lat="42.90624" lon="0.10294">
        <ele>1516.8</ele>
        <time>2019-08-18T11:08:43Z</time>
      </trkpt>
      <trkpt lat="42.90626" lon="0.10288">
        <ele>1517.3</ele>
        <time>2019-08-18T11:08:45Z</time>
      </trkpt>
      <trkpt lat="42.90628" lon="0.10282">
        <ele>1517.8</ele>
        <time>2019-08-18T11:08:47Z</time>
      </trkpt>
      <trkpt lat="42.90631" lon="0.10276">
        <ele>1518.2</ele>
        <time>2019-08-18T11:08:49Z</time>
      </trkpt>
      <trkpt lat="42.90633" lon="0.1027">
        <ele>1518.7</ele>
        <time>2019-08-18T11:08:51Z</time>
      </trkpt>
      <trkpt lat="42.90635" lon="0.10264">
        <ele>1519.2</ele>
        <time>2019-08-18T11:08:53Z</time>
      </trkpt>
      <trkpt lat="42.90637" lon="0.10257">
        <ele>1519.7</ele>
        <time>2019-08-18T11:08:55Z</time>
      </trkpt>
      <trkpt lat="42.90638" lon="0.10251">
        <ele>1520.1</ele>
        <time>2019-08-18T11:08:57Z</time>
      </trkpt>
      <trkpt lat="42.90639" lon="0.10244">
        <ele>1520.6</ele>
        <time>2019-08-18T11:08:59Z</time>
      </trkpt>
      <trkpt lat="42.9064" lon="0.10237">
        <ele>1521.2</ele>
        <time>2019-08-18T11:09:01Z</time>
      </trkpt>
      <trkpt lat="42.9064" lon="0.1023">
        <ele>1521.8</ele>
        <time>2019-08-18T11:09:03Z</time>
      </trkpt>
      <trkpt lat="42.90641" lon="0.10223">
        <ele>1522.5</ele>
        <time>2019-08-18T11:09:05Z</time>
      </trkpt>
      <trkpt lat="42.90641" lon="0.10215">
        <ele>1523.2</ele>
        <time>2019-08-18T11:09:07Z</time>
      </trkpt>
      <trkpt lat="42.90641" lon="0.10208">
        <ele>1523.9</ele>
        <time>2019-08-18T11:09:09Z</time>
      </trkpt>
      <trkpt lat="42.90643" lon="0.10201">
        <ele>1524.6</ele>
        <time>2019-08-18T11:09:11Z</time>
      </trkpt>
      <trkpt lat="42.90646" lon="0.10196">
        <ele>1525.5</ele>
        <time>2019-08-18T11:09:13Z</time>
      </trkpt>
      <trkpt lat="42.9065" lon="0.10192">
        <ele>1526.4</ele>
        <time>2019-08-18T11:09:15Z</time>
      </trkpt>
      <trkpt lat="42.90655" lon="0.10193">
        <ele>1526.5</ele>
        <time>2019-08-18T11:09:17Z</time>
      </trkpt>
      <trkpt lat="42.90659" lon="0.10197">
        <ele>1526.6</ele>
        <time>2019-08-18T11:09:19Z</time>
      </trkpt>
      <trkpt lat="42.90661" lon="0.10203">
        <ele>1526.8</ele>
        <time>2019-08-18T11:09:21Z</time>
      </trkpt>
      <trkpt lat="42.90661" lon="0.1021">
        <ele>1526.9</ele>
        <time>2019-08-18T11:09:23Z</time>
      </trkpt>
      <trkpt lat="42.9066" lon="0.10214">
        <ele>1527</ele>
        <time>2019-08-18T11:09:24Z</time>
      </trkpt>
      <trkpt lat="42.90659" lon="0.10221">
        <ele>1527.2</ele>
        <time>2019-08-18T11:09:26Z</time>
      </trkpt>
      <trkpt lat="42.90658" lon="0.10228">
        <ele>1527.4</ele>
        <time>2019-08-18T11:09:28Z</time>
      </trkpt>
      <trkpt lat="42.90658" lon="0.10235">
        <ele>1527.6</ele>
        <time>2019-08-18T11:09:30Z</time>
      </trkpt>
      <trkpt lat="42.90657" lon="0.10242">
        <ele>1527.8</ele>
        <time>2019-08-18T11:09:32Z</time>
      </trkpt>
      <trkpt lat="42.90655" lon="0.10248">
        <ele>1528.1</ele>
        <time>2019-08-18T11:09:34Z</time>
      </trkpt>
      <trkpt lat="42.90655" lon="0.10252">
        <ele>1528.2</ele>
        <time>2019-08-18T11:09:35Z</time>
      </trkpt>
      <trkpt lat="42.90654" lon="0.10259">
        <ele>1528.4</ele>
        <time>2019-08-18T11:09:37Z</time>
      </trkpt>
      <trkpt lat="42.90653" lon="0.10266">
        <ele>1528.7</ele>
        <time>2019-08-18T11:09:39Z</time>
      </trkpt>
      <trkpt lat="42.90653" lon="0.10273">
        <ele>1529.2</ele>
        <time>2019-08-18T11:09:41Z</time>
      </trkpt>
      <trkpt lat="42.90652" lon="0.1028">
        <ele>1529.6</ele>
        <time>2019-08-18T11:09:43Z</time>
      </trkpt>
      <trkpt lat="42.90651" lon="0.10287">
        <ele>1530.1</ele>
        <time>2019-08-18T11:09:45Z</time>
      </trkpt>
      <trkpt lat="42.90649" lon="0.10293">
        <ele>1530.6</ele>
        <time>2019-08-18T11:09:47Z</time>
      </trkpt>
      <trkpt lat="42.90649" lon="0.103">
        <ele>1531</ele>
        <time>2019-08-18T11:09:49Z</time>
      </trkpt>
      <trkpt lat="42.90648" lon="0.10306">
        <ele>1531.5</ele>
        <time>2019-08-18T11:09:51Z</time>
      </trkpt>
      <trkpt lat="42.90648" lon="0.10313">
        <ele>1532</ele>
        <time>2019-08-18T11:09:53Z</time>
      </trkpt>
      <trkpt lat="42.90647" lon="0.10319">
        <ele>1532.4</ele>
        <time>2019-08-18T11:09:55Z</time>
      </trkpt>
      <trkpt lat="42.90647" lon="0.10326">
        <ele>1532.9</ele>
        <time>2019-08-18T11:09:57Z</time>
      </trkpt>
      <trkpt lat="42.90646" lon="0.10333">
        <ele>1533.4</ele>
        <time>2019-08-18T11:09:59Z</time>
      </trkpt>
      <trkpt lat="42.90646" lon="0.1034">
        <ele>1533.9</ele>
        <time>2019-08-18T11:10:01Z</time>
      </trkpt>
      <trkpt lat="42.90645" lon="0.10346">
        <ele>1534.3</ele>
        <time>2019-08-18T11:10:03Z</time>
      </trkpt>
      <trkpt lat="42.90644" lon="0.10353">
        <ele>1534.7</ele>
        <time>2019-08-18T11:10:05Z</time>
      </trkpt>
      <trkpt lat="42.90643" lon="0.10359">
        <ele>1535.1</ele>
        <time>2019-08-18T11:10:07Z</time>
      </trkpt>
      <trkpt lat="42.90641" lon="0.10365">
        <ele>1535.6</ele>
        <time>2019-08-18T11:10:09Z</time>
      </trkpt>
      <trkpt lat="42.90641" lon="0.10371">
        <ele>1535.9</ele>
        <time>2019-08-18T11:10:11Z</time>
      </trkpt>
      <trkpt lat="42.9064" lon="0.10378">
        <ele>1536.4</ele>
        <time>2019-08-18T11:10:13Z</time>
      </trkpt>
      <trkpt lat="42.90639" lon="0.10384">
        <ele>1536.8</ele>
        <time>2019-08-18T11:10:15Z</time>
      </trkpt>
      <trkpt lat="42.90638" lon="0.1039">
        <ele>1537.1</ele>
        <time>2019-08-18T11:10:17Z</time>
      </trkpt>
      <trkpt lat="42.90638" lon="0.10395">
        <ele>1537.3</ele>
        <time>2019-08-18T11:10:19Z</time>
      </trkpt>
      <trkpt lat="42.90638" lon="0.10401">
        <ele>1537.6</ele>
        <time>2019-08-18T11:10:21Z</time>
      </trkpt>
      <trkpt lat="42.90637" lon="0.10407">
        <ele>1537.9</ele>
        <time>2019-08-18T11:10:23Z</time>
      </trkpt>
      <trkpt lat="42.90636" lon="0.10414">
        <ele>1538.2</ele>
        <time>2019-08-18T11:10:25Z</time>
      </trkpt>
      <trkpt lat="42.90635" lon="0.10421">
        <ele>1538.6</ele>
        <time>2019-08-18T11:10:27Z</time>
      </trkpt>
      <trkpt lat="42.90634" lon="0.10428">
        <ele>1539</ele>
        <time>2019-08-18T11:10:29Z</time>
      </trkpt>
      <trkpt lat="42.90633" lon="0.10434">
        <ele>1539.4</ele>
        <time>2019-08-18T11:10:31Z</time>
      </trkpt>
      <trkpt lat="42.90632" lon="0.10441">
        <ele>1539.9</ele>
        <time>2019-08-18T11:10:33Z</time>
      </trkpt>
      <trkpt lat="42.90631" lon="0.10448">
        <ele>1540.3</ele>
        <time>2019-08-18T11:10:35Z</time>
      </trkpt>
      <trkpt lat="42.9063" lon="0.10454">
        <ele>1540.7</ele>
        <time>2019-08-18T11:10:37Z</time>
      </trkpt>
      <trkpt lat="42.90628" lon="0.1046">
        <ele>1541.2</ele>
        <time>2019-08-18T11:10:39Z</time>
      </trkpt>
      <trkpt lat="42.90628" lon="0.10466">
        <ele>1541.5</ele>
        <time>2019-08-18T11:10:41Z</time>
      </trkpt>
      <trkpt lat="42.90627" lon="0.10473">
        <ele>1541.9</ele>
        <time>2019-08-18T11:10:43Z</time>
      </trkpt>
      <trkpt lat="42.90627" lon="0.10479">
        <ele>1542.3</ele>
        <time>2019-08-18T11:10:45Z</time>
      </trkpt>
      <trkpt lat="42.90626" lon="0.10486">
        <ele>1542.6</ele>
        <time>2019-08-18T11:10:47Z</time>
      </trkpt>
      <trkpt lat="42.90626" lon="0.10492">
        <ele>1543</ele>
        <time>2019-08-18T11:10:49Z</time>
      </trkpt>
      <trkpt lat="42.90626" lon="0.10499">
        <ele>1543.3</ele>
        <time>2019-08-18T11:10:51Z</time>
      </trkpt>
      <trkpt lat="42.90626" lon="0.10506">
        <ele>1543.6</ele>
        <time>2019-08-18T11:10:53Z</time>
      </trkpt>
      <trkpt lat="42.90627" lon="0.10513">
        <ele>1543.9</ele>
        <time>2019-08-18T11:10:55Z</time>
      </trkpt>
      <trkpt lat="42.90627" lon="0.10519">
        <ele>1544.2</ele>
        <time>2019-08-18T11:10:57Z</time>
      </trkpt>
      <trkpt lat="42.90627" lon="0.10526">
        <ele>1544.5</ele>
        <time>2019-08-18T11:10:59Z</time>
      </trkpt>
      <trkpt lat="42.90628" lon="0.10532">
        <ele>1544.8</ele>
        <time>2019-08-18T11:11:01Z</time>
      </trkpt>
      <trkpt lat="42.90628" lon="0.10538">
        <ele>1545</ele>
        <time>2019-08-18T11:11:03Z</time>
      </trkpt>
      <trkpt lat="42.90627" lon="0.10545">
        <ele>1545.2</ele>
        <time>2019-08-18T11:11:05Z</time>
      </trkpt>
      <trkpt lat="42.90624" lon="0.10551">
        <ele>1545.4</ele>
        <time>2019-08-18T11:11:07Z</time>
      </trkpt>
      <trkpt lat="42.90623" lon="0.10557">
        <ele>1545.6</ele>
        <time>2019-08-18T11:11:09Z</time>
      </trkpt>
      <trkpt lat="42.90621" lon="0.10563">
        <ele>1545.8</ele>
        <time>2019-08-18T11:11:11Z</time>
      </trkpt>
      <trkpt lat="42.90619" lon="0.10569">
        <ele>1545.9</ele>
        <time>2019-08-18T11:11:13Z</time>
      </trkpt>
      <trkpt lat="42.90617" lon="0.10574">
        <ele>1546.1</ele>
        <time>2019-08-18T11:11:15Z</time>
      </trkpt>
      <trkpt lat="42.90615" lon="0.1058">
        <ele>1546.3</ele>
        <time>2019-08-18T11:11:17Z</time>
      </trkpt>
      <trkpt lat="42.90614" lon="0.10586">
        <ele>1546.5</ele>
        <time>2019-08-18T11:11:19Z</time>
      </trkpt>
      <trkpt lat="42.90613" lon="0.10592">
        <ele>1546.8</ele>
        <time>2019-08-18T11:11:21Z</time>
      </trkpt>
      <trkpt lat="42.90613" lon="0.10599">
        <ele>1547.1</ele>
        <time>2019-08-18T11:11:23Z</time>
      </trkpt>
      <trkpt lat="42.90613" lon="0.10606">
        <ele>1547.3</ele>
        <time>2019-08-18T11:11:25Z</time>
      </trkpt>
      <trkpt lat="42.90614" lon="0.10613">
        <ele>1547.6</ele>
        <time>2019-08-18T11:11:27Z</time>
      </trkpt>
      <trkpt lat="42.90615" lon="0.1062">
        <ele>1547.9</ele>
        <time>2019-08-18T11:11:29Z</time>
      </trkpt>
      <trkpt lat="42.90615" lon="0.10626">
        <ele>1548.2</ele>
        <time>2019-08-18T11:11:31Z</time>
      </trkpt>
      <trkpt lat="42.90616" lon="0.10632">
        <ele>1548.5</ele>
        <time>2019-08-18T11:11:33Z</time>
      </trkpt>
      <trkpt lat="42.90618" lon="0.10639">
        <ele>1548.8</ele>
        <time>2019-08-18T11:11:35Z</time>
      </trkpt>
      <trkpt lat="42.90619" lon="0.10645">
        <ele>1549.2</ele>
        <time>2019-08-18T11:11:37Z</time>
      </trkpt>
      <trkpt lat="42.90621" lon="0.10651">
        <ele>1549.6</ele>
        <time>2019-08-18T11:11:39Z</time>
      </trkpt>
      <trkpt lat="42.90622" lon="0.10657">
        <ele>1550</ele>
        <time>2019-08-18T11:11:41Z</time>
      </trkpt>
      <trkpt lat="42.90624" lon="0.10662">
        <ele>1550.4</ele>
        <time>2019-08-18T11:11:43Z</time>
      </trkpt>
      <trkpt lat="42.90625" lon="0.10668">
        <ele>1550.8</ele>
        <time>2019-08-18T11:11:45Z</time>
      </trkpt>
      <trkpt lat="42.90627" lon="0.10673">
        <ele>1551.3</ele>
        <time>2019-08-18T11:11:47Z</time>
      </trkpt>
      <trkpt lat="42.90629" lon="0.10679">
        <ele>1551.7</ele>
        <time>2019-08-18T11:11:49Z</time>
      </trkpt>
      <trkpt lat="42.90631" lon="0.10684">
        <ele>1552.2</ele>
        <time>2019-08-18T11:11:51Z</time>
      </trkpt>
      <trkpt lat="42.90632" lon="0.1069">
        <ele>1552.6</ele>
        <time>2019-08-18T11:11:53Z</time>
      </trkpt>
      <trkpt lat="42.90633" lon="0.10696">
        <ele>1553.1</ele>
        <time>2019-08-18T11:11:55Z</time>
      </trkpt>
      <trkpt lat="42.90635" lon="0.10702">
        <ele>1553.5</ele>
        <time>2019-08-18T11:11:57Z</time>
      </trkpt>
      <trkpt lat="42.90636" lon="0.10708">
        <ele>1554</ele>
        <time>2019-08-18T11:11:59Z</time>
      </trkpt>
      <trkpt lat="42.90637" lon="0.10713">
        <ele>1554.4</ele>
        <time>2019-08-18T11:12:01Z</time>
      </trkpt>
      <trkpt lat="42.90638" lon="0.10719">
        <ele>1554.8</ele>
        <time>2019-08-18T11:12:03Z</time>
      </trkpt>
      <trkpt lat="42.90638" lon="0.10725">
        <ele>1555.3</ele>
        <time>2019-08-18T11:12:05Z</time>
      </trkpt>
      <trkpt lat="42.90637" lon="0.10731">
        <ele>1555.7</ele>
        <time>2019-08-18T11:12:07Z</time>
      </trkpt>
      <trkpt lat="42.90637" lon="0.10738">
        <ele>1556.1</ele>
        <time>2019-08-18T11:12:09Z</time>
      </trkpt>
      <trkpt lat="42.90637" lon="0.10744">
        <ele>1556.5</ele>
        <time>2019-08-18T11:12:11Z</time>
      </trkpt>
      <trkpt lat="42.90637" lon="0.1075">
        <ele>1556.9</ele>
        <time>2019-08-18T11:12:13Z</time>
      </trkpt>
      <trkpt lat="42.90636" lon="0.10756">
        <ele>1557.4</ele>
        <time>2019-08-18T11:12:15Z</time>
      </trkpt>
      <trkpt lat="42.90636" lon="0.10762">
        <ele>1557.7</ele>
        <time>2019-08-18T11:12:17Z</time>
      </trkpt>
      <trkpt lat="42.90636" lon="0.10768">
        <ele>1558.1</ele>
        <time>2019-08-18T11:12:19Z</time>
      </trkpt>
      <trkpt lat="42.90636" lon="0.10775">
        <ele>1558.6</ele>
        <time>2019-08-18T11:12:21Z</time>
      </trkpt>
      <trkpt lat="42.90636" lon="0.10781">
        <ele>1559</ele>
        <time>2019-08-18T11:12:23Z</time>
      </trkpt>
      <trkpt lat="42.90636" lon="0.10791">
        <ele>1559.7</ele>
        <time>2019-08-18T11:12:26Z</time>
      </trkpt>
      <trkpt lat="42.90636" lon="0.10798">
        <ele>1560.1</ele>
        <time>2019-08-18T11:12:28Z</time>
      </trkpt>
      <trkpt lat="42.90636" lon="0.10804">
        <ele>1560.5</ele>
        <time>2019-08-18T11:12:30Z</time>
      </trkpt>
      <trkpt lat="42.90636" lon="0.1081">
        <ele>1561</ele>
        <time>2019-08-18T11:12:32Z</time>
      </trkpt>
      <trkpt lat="42.90636" lon="0.10816">
        <ele>1561.4</ele>
        <time>2019-08-18T11:12:34Z</time>
      </trkpt>
      <trkpt lat="42.90637" lon="0.10822">
        <ele>1561.8</ele>
        <time>2019-08-18T11:12:36Z</time>
      </trkpt>
      <trkpt lat="42.90637" lon="0.10828">
        <ele>1562.2</ele>
        <time>2019-08-18T11:12:38Z</time>
      </trkpt>
      <trkpt lat="42.90638" lon="0.10833">
        <ele>1562.7</ele>
        <time>2019-08-18T11:12:40Z</time>
      </trkpt>
      <trkpt lat="42.90638" lon="0.10839">
        <ele>1563.1</ele>
        <time>2019-08-18T11:12:42Z</time>
      </trkpt>
      <trkpt lat="42.90639" lon="0.10845">
        <ele>1563.5</ele>
        <time>2019-08-18T11:12:44Z</time>
      </trkpt>
      <trkpt lat="42.9064" lon="0.10851">
        <ele>1564</ele>
        <time>2019-08-18T11:12:46Z</time>
      </trkpt>
      <trkpt lat="42.9064" lon="0.10856">
        <ele>1564.4</ele>
        <time>2019-08-18T11:12:48Z</time>
      </trkpt>
      <trkpt lat="42.90641" lon="0.10862">
        <ele>1564.9</ele>
        <time>2019-08-18T11:12:50Z</time>
      </trkpt>
      <trkpt lat="42.90642" lon="0.10868">
        <ele>1565.3</ele>
        <time>2019-08-18T11:12:52Z</time>
      </trkpt>
      <trkpt lat="42.90643" lon="0.10873">
        <ele>1565.7</ele>
        <time>2019-08-18T11:12:54Z</time>
      </trkpt>
      <trkpt lat="42.90644" lon="0.10879">
        <ele>1566.2</ele>
        <time>2019-08-18T11:12:56Z</time>
      </trkpt>
      <trkpt lat="42.90644" lon="0.10885">
        <ele>1566.6</ele>
        <time>2019-08-18T11:12:58Z</time>
      </trkpt>
      <trkpt lat="42.90645" lon="0.1089">
        <ele>1567</ele>
        <time>2019-08-18T11:13:00Z</time>
      </trkpt>
      <trkpt lat="42.90645" lon="0.10896">
        <ele>1567.5</ele>
        <time>2019-08-18T11:13:02Z</time>
      </trkpt>
      <trkpt lat="42.90646" lon="0.10902">
        <ele>1567.9</ele>
        <time>2019-08-18T11:13:04Z</time>
      </trkpt>
      <trkpt lat="42.90646" lon="0.10908">
        <ele>1568.4</ele>
        <time>2019-08-18T11:13:06Z</time>
      </trkpt>
      <trkpt lat="42.90647" lon="0.10914">
        <ele>1568.8</ele>
        <time>2019-08-18T11:13:08Z</time>
      </trkpt>
      <trkpt lat="42.90648" lon="0.1092">
        <ele>1569.3</ele>
        <time>2019-08-18T11:13:10Z</time>
      </trkpt>
      <trkpt lat="42.90649" lon="0.10926">
        <ele>1569.7</ele>
        <time>2019-08-18T11:13:12Z</time>
      </trkpt>
      <trkpt lat="42.9065" lon="0.10932">
        <ele>1570.2</ele>
        <time>2019-08-18T11:13:14Z</time>
      </trkpt>
      <trkpt lat="42.90651" lon="0.10938">
        <ele>1570.6</ele>
        <time>2019-08-18T11:13:16Z</time>
      </trkpt>
      <trkpt lat="42.90652" lon="0.10944">
        <ele>1570.9</ele>
        <time>2019-08-18T11:13:18Z</time>
      </trkpt>
      <trkpt lat="42.90653" lon="0.1095">
        <ele>1571.3</ele>
        <time>2019-08-18T11:13:20Z</time>
      </trkpt>
      <trkpt lat="42.90654" lon="0.10956">
        <ele>1571.6</ele>
        <time>2019-08-18T11:13:22Z</time>
      </trkpt>
      <trkpt lat="42.90655" lon="0.10961">
        <ele>1571.8</ele>
        <time>2019-08-18T11:13:24Z</time>
      </trkpt>
      <trkpt lat="42.90657" lon="0.10967">
        <ele>1572.1</ele>
        <time>2019-08-18T11:13:26Z</time>
      </trkpt>
      <trkpt lat="42.90658" lon="0.10972">
        <ele>1572.4</ele>
        <time>2019-08-18T11:13:28Z</time>
      </trkpt>
      <trkpt lat="42.9066" lon="0.10976">
        <ele>1572.6</ele>
        <time>2019-08-18T11:13:30Z</time>
      </trkpt>
      <trkpt lat="42.90662" lon="0.10981">
        <ele>1572.9</ele>
        <time>2019-08-18T11:13:32Z</time>
      </trkpt>
      <trkpt lat="42.90663" lon="0.10986">
        <ele>1573.1</ele>
        <time>2019-08-18T11:13:34Z</time>
      </trkpt>
      <trkpt lat="42.90665" lon="0.1099">
        <ele>1573.4</ele>
        <time>2019-08-18T11:13:36Z</time>
      </trkpt>
      <trkpt lat="42.90667" lon="0.10995">
        <ele>1573.6</ele>
        <time>2019-08-18T11:13:38Z</time>
      </trkpt>
      <trkpt lat="42.90668" lon="0.11">
        <ele>1573.9</ele>
        <time>2019-08-18T11:13:40Z</time>
      </trkpt>
      <trkpt lat="42.9067" lon="0.11006">
        <ele>1574.2</ele>
        <time>2019-08-18T11:13:42Z</time>
      </trkpt>
      <trkpt lat="42.90673" lon="0.11012">
        <ele>1574.6</ele>
        <time>2019-08-18T11:13:44Z</time>
      </trkpt>
      <trkpt lat="42.90675" lon="0.11018">
        <ele>1574.9</ele>
        <time>2019-08-18T11:13:46Z</time>
      </trkpt>
      <trkpt lat="42.90678" lon="0.11023">
        <ele>1575.4</ele>
        <time>2019-08-18T11:13:48Z</time>
      </trkpt>
      <trkpt lat="42.90679" lon="0.11029">
        <ele>1575.8</ele>
        <time>2019-08-18T11:13:50Z</time>
      </trkpt>
      <trkpt lat="42.9068" lon="0.11034">
        <ele>1576.2</ele>
        <time>2019-08-18T11:13:52Z</time>
      </trkpt>
      <trkpt lat="42.90682" lon="0.1104">
        <ele>1576.7</ele>
        <time>2019-08-18T11:13:54Z</time>
      </trkpt>
      <trkpt lat="42.90684" lon="0.11045">
        <ele>1577.2</ele>
        <time>2019-08-18T11:13:56Z</time>
      </trkpt>
      <trkpt lat="42.90685" lon="0.11051">
        <ele>1577.7</ele>
        <time>2019-08-18T11:13:58Z</time>
      </trkpt>
      <trkpt lat="42.90687" lon="0.11058">
        <ele>1578.3</ele>
        <time>2019-08-18T11:14:00Z</time>
      </trkpt>
      <trkpt lat="42.90688" lon="0.11064">
        <ele>1578.9</ele>
        <time>2019-08-18T11:14:02Z</time>
      </trkpt>
      <trkpt lat="42.9069" lon="0.11069">
        <ele>1579.4</ele>
        <time>2019-08-18T11:14:04Z</time>
      </trkpt>
      <trkpt lat="42.90691" lon="0.11076">
        <ele>1580</ele>
        <time>2019-08-18T11:14:06Z</time>
      </trkpt>
      <trkpt lat="42.90693" lon="0.11082">
        <ele>1580.6</ele>
        <time>2019-08-18T11:14:08Z</time>
      </trkpt>
      <trkpt lat="42.90694" lon="0.11088">
        <ele>1581.1</ele>
        <time>2019-08-18T11:14:10Z</time>
      </trkpt>
      <trkpt lat="42.90695" lon="0.11095">
        <ele>1581.7</ele>
        <time>2019-08-18T11:14:12Z</time>
      </trkpt>
      <trkpt lat="42.90696" lon="0.111">
        <ele>1582.2</ele>
        <time>2019-08-18T11:14:14Z</time>
      </trkpt>
      <trkpt lat="42.90698" lon="0.11105">
        <ele>1582.7</ele>
        <time>2019-08-18T11:14:16Z</time>
      </trkpt>
      <trkpt lat="42.90699" lon="0.1111">
        <ele>1583.1</ele>
        <time>2019-08-18T11:14:18Z</time>
      </trkpt>
      <trkpt lat="42.907" lon="0.11115">
        <ele>1583.6</ele>
        <time>2019-08-18T11:14:20Z</time>
      </trkpt>
      <trkpt lat="42.90701" lon="0.1112">
        <ele>1584.1</ele>
        <time>2019-08-18T11:14:22Z</time>
      </trkpt>
      <trkpt lat="42.90703" lon="0.11126">
        <ele>1584.6</ele>
        <time>2019-08-18T11:14:24Z</time>
      </trkpt>
      <trkpt lat="42.90704" lon="0.11132">
        <ele>1585.1</ele>
        <time>2019-08-18T11:14:26Z</time>
      </trkpt>
      <trkpt lat="42.90705" lon="0.11137">
        <ele>1585.6</ele>
        <time>2019-08-18T11:14:28Z</time>
      </trkpt>
      <trkpt lat="42.90706" lon="0.11143">
        <ele>1586</ele>
        <time>2019-08-18T11:14:30Z</time>
      </trkpt>
      <trkpt lat="42.90708" lon="0.11149">
        <ele>1586.5</ele>
        <time>2019-08-18T11:14:32Z</time>
      </trkpt>
      <trkpt lat="42.90709" lon="0.11154">
        <ele>1587</ele>
        <time>2019-08-18T11:14:34Z</time>
      </trkpt>
      <trkpt lat="42.90711" lon="0.1116">
        <ele>1587.5</ele>
        <time>2019-08-18T11:14:36Z</time>
      </trkpt>
      <trkpt lat="42.90712" lon="0.11166">
        <ele>1587.9</ele>
        <time>2019-08-18T11:14:38Z</time>
      </trkpt>
      <trkpt lat="42.90714" lon="0.11171">
        <ele>1588.4</ele>
        <time>2019-08-18T11:14:40Z</time>
      </trkpt>
      <trkpt lat="42.90716" lon="0.11177">
        <ele>1588.8</ele>
        <time>2019-08-18T11:14:42Z</time>
      </trkpt>
      <trkpt lat="42.90717" lon="0.11182">
        <ele>1589.2</ele>
        <time>2019-08-18T11:14:44Z</time>
      </trkpt>
      <trkpt lat="42.90719" lon="0.11188">
        <ele>1589.7</ele>
        <time>2019-08-18T11:14:46Z</time>
      </trkpt>
      <trkpt lat="42.9072" lon="0.11194">
        <ele>1590.1</ele>
        <time>2019-08-18T11:14:48Z</time>
      </trkpt>
      <trkpt lat="42.90721" lon="0.112">
        <ele>1590.4</ele>
        <time>2019-08-18T11:14:50Z</time>
      </trkpt>
      <trkpt lat="42.90722" lon="0.11205">
        <ele>1590.7</ele>
        <time>2019-08-18T11:14:52Z</time>
      </trkpt>
      <trkpt lat="42.90722" lon="0.11211">
        <ele>1591</ele>
        <time>2019-08-18T11:14:54Z</time>
      </trkpt>
      <trkpt lat="42.90723" lon="0.11218">
        <ele>1591.3</ele>
        <time>2019-08-18T11:14:56Z</time>
      </trkpt>
      <trkpt lat="42.90723" lon="0.11223">
        <ele>1591.5</ele>
        <time>2019-08-18T11:14:58Z</time>
      </trkpt>
      <trkpt lat="42.90724" lon="0.11229">
        <ele>1591.8</ele>
        <time>2019-08-18T11:15:00Z</time>
      </trkpt>
      <trkpt lat="42.90724" lon="0.11234">
        <ele>1592</ele>
        <time>2019-08-18T11:15:02Z</time>
      </trkpt>
      <trkpt lat="42.90725" lon="0.1124">
        <ele>1592.4</ele>
        <time>2019-08-18T11:15:04Z</time>
      </trkpt>
      <trkpt lat="42.90725" lon="0.11246">
        <ele>1592.8</ele>
        <time>2019-08-18T11:15:06Z</time>
      </trkpt>
      <trkpt lat="42.90725" lon="0.11252">
        <ele>1593.2</ele>
        <time>2019-08-18T11:15:08Z</time>
      </trkpt>
      <trkpt lat="42.90725" lon="0.11258">
        <ele>1593.6</ele>
        <time>2019-08-18T11:15:10Z</time>
      </trkpt>
      <trkpt lat="42.90725" lon="0.11264">
        <ele>1593.8</ele>
        <time>2019-08-18T11:15:12Z</time>
      </trkpt>
      <trkpt lat="42.90725" lon="0.11269">
        <ele>1594.1</ele>
        <time>2019-08-18T11:15:14Z</time>
      </trkpt>
      <trkpt lat="42.90725" lon="0.11275">
        <ele>1594.4</ele>
        <time>2019-08-18T11:15:16Z</time>
      </trkpt>
      <trkpt lat="42.90725" lon="0.11281">
        <ele>1594.7</ele>
        <time>2019-08-18T11:15:18Z</time>
      </trkpt>
      <trkpt lat="42.90725" lon="0.11287">
        <ele>1595</ele>
        <time>2019-08-18T11:15:20Z</time>
      </trkpt>
      <trkpt lat="42.90724" lon="0.11292">
        <ele>1595.2</ele>
        <time>2019-08-18T11:15:22Z</time>
      </trkpt>
      <trkpt lat="42.90725" lon="0.11298">
        <ele>1595.5</ele>
        <time>2019-08-18T11:15:24Z</time>
      </trkpt>
      <trkpt lat="42.90725" lon="0.11304">
        <ele>1596</ele>
        <time>2019-08-18T11:15:26Z</time>
      </trkpt>
      <trkpt lat="42.90725" lon="0.1131">
        <ele>1596.4</ele>
        <time>2019-08-18T11:15:28Z</time>
      </trkpt>
      <trkpt lat="42.90725" lon="0.11317">
        <ele>1596.8</ele>
        <time>2019-08-18T11:15:30Z</time>
      </trkpt>
      <trkpt lat="42.90725" lon="0.11323">
        <ele>1597.3</ele>
        <time>2019-08-18T11:15:32Z</time>
      </trkpt>
      <trkpt lat="42.90725" lon="0.11329">
        <ele>1597.8</ele>
        <time>2019-08-18T11:15:34Z</time>
      </trkpt>
      <trkpt lat="42.90725" lon="0.11335">
        <ele>1598.2</ele>
        <time>2019-08-18T11:15:36Z</time>
      </trkpt>
      <trkpt lat="42.90725" lon="0.11341">
        <ele>1598.7</ele>
        <time>2019-08-18T11:15:38Z</time>
      </trkpt>
      <trkpt lat="42.90725" lon="0.11347">
        <ele>1599.1</ele>
        <time>2019-08-18T11:15:40Z</time>
      </trkpt>
      <trkpt lat="42.90726" lon="0.11353">
        <ele>1599.5</ele>
        <time>2019-08-18T11:15:42Z</time>
      </trkpt>
      <trkpt lat="42.90726" lon="0.11358">
        <ele>1599.9</ele>
        <time>2019-08-18T11:15:44Z</time>
      </trkpt>
      <trkpt lat="42.90727" lon="0.11364">
        <ele>1600.3</ele>
        <time>2019-08-18T11:15:46Z</time>
      </trkpt>
      <trkpt lat="42.90728" lon="0.11369">
        <ele>1600.7</ele>
        <time>2019-08-18T11:15:48Z</time>
      </trkpt>
      <trkpt lat="42.90729" lon="0.11376">
        <ele>1601.2</ele>
        <time>2019-08-18T11:15:50Z</time>
      </trkpt>
      <trkpt lat="42.9073" lon="0.11382">
        <ele>1601.6</ele>
        <time>2019-08-18T11:15:52Z</time>
      </trkpt>
      <trkpt lat="42.9073" lon="0.11388">
        <ele>1602</ele>
        <time>2019-08-18T11:15:54Z</time>
      </trkpt>
      <trkpt lat="42.90731" lon="0.11393">
        <ele>1602.3</ele>
        <time>2019-08-18T11:15:56Z</time>
      </trkpt>
      <trkpt lat="42.90731" lon="0.11399">
        <ele>1602.6</ele>
        <time>2019-08-18T11:15:58Z</time>
      </trkpt>
      <trkpt lat="42.90732" lon="0.11405">
        <ele>1602.9</ele>
        <time>2019-08-18T11:16:00Z</time>
      </trkpt>
      <trkpt lat="42.90733" lon="0.11411">
        <ele>1603.1</ele>
        <time>2019-08-18T11:16:02Z</time>
      </trkpt>
      <trkpt lat="42.90733" lon="0.11417">
        <ele>1603.4</ele>
        <time>2019-08-18T11:16:04Z</time>
      </trkpt>
      <trkpt lat="42.90734" lon="0.11424">
        <ele>1603.7</ele>
        <time>2019-08-18T11:16:06Z</time>
      </trkpt>
      <trkpt lat="42.90734" lon="0.1143">
        <ele>1604.1</ele>
        <time>2019-08-18T11:16:08Z</time>
      </trkpt>
      <trkpt lat="42.90733" lon="0.11436">
        <ele>1604.5</ele>
        <time>2019-08-18T11:16:10Z</time>
      </trkpt>
      <trkpt lat="42.90733" lon="0.11442">
        <ele>1604.8</ele>
        <time>2019-08-18T11:16:12Z</time>
      </trkpt>
      <trkpt lat="42.90734" lon="0.11448">
        <ele>1605.2</ele>
        <time>2019-08-18T11:16:14Z</time>
      </trkpt>
      <trkpt lat="42.90734" lon="0.11454">
        <ele>1605.6</ele>
        <time>2019-08-18T11:16:16Z</time>
      </trkpt>
      <trkpt lat="42.90734" lon="0.11459">
        <ele>1606</ele>
        <time>2019-08-18T11:16:18Z</time>
      </trkpt>
      <trkpt lat="42.90734" lon="0.11464">
        <ele>1606.4</ele>
        <time>2019-08-18T11:16:20Z</time>
      </trkpt>
      <trkpt lat="42.90735" lon="0.1147">
        <ele>1606.8</ele>
        <time>2019-08-18T11:16:22Z</time>
      </trkpt>
      <trkpt lat="42.90736" lon="0.11476">
        <ele>1607.2</ele>
        <time>2019-08-18T11:16:24Z</time>
      </trkpt>
      <trkpt lat="42.90736" lon="0.11482">
        <ele>1607.7</ele>
        <time>2019-08-18T11:16:26Z</time>
      </trkpt>
      <trkpt lat="42.90735" lon="0.11488">
        <ele>1608.1</ele>
        <time>2019-08-18T11:16:28Z</time>
      </trkpt>
      <trkpt lat="42.90735" lon="0.11493">
        <ele>1608.6</ele>
        <time>2019-08-18T11:16:30Z</time>
      </trkpt>
      <trkpt lat="42.90735" lon="0.11499">
        <ele>1609.1</ele>
        <time>2019-08-18T11:16:32Z</time>
      </trkpt>
      <trkpt lat="42.90734" lon="0.11504">
        <ele>1609.5</ele>
        <time>2019-08-18T11:16:34Z</time>
      </trkpt>
      <trkpt lat="42.90733" lon="0.1151">
        <ele>1610.1</ele>
        <time>2019-08-18T11:16:36Z</time>
      </trkpt>
      <trkpt lat="42.90733" lon="0.11517">
        <ele>1610.6</ele>
        <time>2019-08-18T11:16:38Z</time>
      </trkpt>
      <trkpt lat="42.90732" lon="0.11523">
        <ele>1611.2</ele>
        <time>2019-08-18T11:16:40Z</time>
      </trkpt>
      <trkpt lat="42.90731" lon="0.11529">
        <ele>1611.7</ele>
        <time>2019-08-18T11:16:42Z</time>
      </trkpt>
      <trkpt lat="42.9073" lon="0.11535">
        <ele>1612.3</ele>
        <time>2019-08-18T11:16:44Z</time>
      </trkpt>
      <trkpt lat="42.90729" lon="0.11541">
        <ele>1612.9</ele>
        <time>2019-08-18T11:16:46Z</time>
      </trkpt>
      <trkpt lat="42.90728" lon="0.11547">
        <ele>1613.4</ele>
        <time>2019-08-18T11:16:48Z</time>
      </trkpt>
      <trkpt lat="42.90727" lon="0.11553">
        <ele>1614</ele>
        <time>2019-08-18T11:16:50Z</time>
      </trkpt>
      <trkpt lat="42.90726" lon="0.11558">
        <ele>1614.5</ele>
        <time>2019-08-18T11:16:52Z</time>
      </trkpt>
      <trkpt lat="42.90725" lon="0.11563">
        <ele>1614.9</ele>
        <time>2019-08-18T11:16:54Z</time>
      </trkpt>
      <trkpt lat="42.90723" lon="0.11569">
        <ele>1615.5</ele>
        <time>2019-08-18T11:16:56Z</time>
      </trkpt>
      <trkpt lat="42.90722" lon="0.11575">
        <ele>1615.9</ele>
        <time>2019-08-18T11:16:58Z</time>
      </trkpt>
      <trkpt lat="42.9072" lon="0.1158">
        <ele>1616.2</ele>
        <time>2019-08-18T11:17:00Z</time>
      </trkpt>
      <trkpt lat="42.90719" lon="0.11585">
        <ele>1616.5</ele>
        <time>2019-08-18T11:17:02Z</time>
      </trkpt>
      <trkpt lat="42.90717" lon="0.11591">
        <ele>1616.9</ele>
        <time>2019-08-18T11:17:04Z</time>
      </trkpt>
      <trkpt lat="42.90716" lon="0.11596">
        <ele>1617.2</ele>
        <time>2019-08-18T11:17:06Z</time>
      </trkpt>
      <trkpt lat="42.90714" lon="0.11602">
        <ele>1617.6</ele>
        <time>2019-08-18T11:17:08Z</time>
      </trkpt>
      <trkpt lat="42.90712" lon="0.11607">
        <ele>1618.1</ele>
        <time>2019-08-18T11:17:10Z</time>
      </trkpt>
      <trkpt lat="42.90712" lon="0.11614">
        <ele>1618.4</ele>
        <time>2019-08-18T11:17:12Z</time>
      </trkpt>
      <trkpt lat="42.90713" lon="0.1162">
        <ele>1618.7</ele>
        <time>2019-08-18T11:17:14Z</time>
      </trkpt>
      <trkpt lat="42.90716" lon="0.11625">
        <ele>1619</ele>
        <time>2019-08-18T11:17:16Z</time>
      </trkpt>
      <trkpt lat="42.9072" lon="0.11629">
        <ele>1619.3</ele>
        <time>2019-08-18T11:17:18Z</time>
      </trkpt>
      <trkpt lat="42.90725" lon="0.1163">
        <ele>1619.7</ele>
        <time>2019-08-18T11:17:20Z</time>
      </trkpt>
      <trkpt lat="42.90728" lon="0.1163">
        <ele>1619.8</ele>
        <time>2019-08-18T11:17:21Z</time>
      </trkpt>
      <trkpt lat="42.90733" lon="0.11629">
        <ele>1620.2</ele>
        <time>2019-08-18T11:17:23Z</time>
      </trkpt>
      <trkpt lat="42.90737" lon="0.11626">
        <ele>1620.5</ele>
        <time>2019-08-18T11:17:25Z</time>
      </trkpt>
      <trkpt lat="42.90741" lon="0.11622">
        <ele>1620.9</ele>
        <time>2019-08-18T11:17:27Z</time>
      </trkpt>
      <trkpt lat="42.90745" lon="0.11617">
        <ele>1621.3</ele>
        <time>2019-08-18T11:17:29Z</time>
      </trkpt>
      <trkpt lat="42.90748" lon="0.11612">
        <ele>1621.6</ele>
        <time>2019-08-18T11:17:31Z</time>
      </trkpt>
      <trkpt lat="42.90752" lon="0.11607">
        <ele>1622</ele>
        <time>2019-08-18T11:17:33Z</time>
      </trkpt>
      <trkpt lat="42.90755" lon="0.11603">
        <ele>1622.4</ele>
        <time>2019-08-18T11:17:35Z</time>
      </trkpt>
      <trkpt lat="42.90758" lon="0.11599">
        <ele>1622.7</ele>
        <time>2019-08-18T11:17:37Z</time>
      </trkpt>
      <trkpt lat="42.90762" lon="0.11594">
        <ele>1623.1</ele>
        <time>2019-08-18T11:17:39Z</time>
      </trkpt>
      <trkpt lat="42.90765" lon="0.1159">
        <ele>1623.4</ele>
        <time>2019-08-18T11:17:41Z</time>
      </trkpt>
      <trkpt lat="42.90769" lon="0.11585">
        <ele>1623.8</ele>
        <time>2019-08-18T11:17:43Z</time>
      </trkpt>
      <trkpt lat="42.90772" lon="0.11581">
        <ele>1624.1</ele>
        <time>2019-08-18T11:17:45Z</time>
      </trkpt>
      <trkpt lat="42.90776" lon="0.11577">
        <ele>1624.4</ele>
        <time>2019-08-18T11:17:47Z</time>
      </trkpt>
      <trkpt lat="42.9078" lon="0.11573">
        <ele>1624.6</ele>
        <time>2019-08-18T11:17:49Z</time>
      </trkpt>
      <trkpt lat="42.90784" lon="0.11569">
        <ele>1624.9</ele>
        <time>2019-08-18T11:17:51Z</time>
      </trkpt>
      <trkpt lat="42.90788" lon="0.11566">
        <ele>1625.1</ele>
        <time>2019-08-18T11:17:53Z</time>
      </trkpt>
      <trkpt lat="42.90791" lon="0.11563">
        <ele>1625.4</ele>
        <time>2019-08-18T11:17:55Z</time>
      </trkpt>
      <trkpt lat="42.90795" lon="0.11559">
        <ele>1625.6</ele>
        <time>2019-08-18T11:17:57Z</time>
      </trkpt>
      <trkpt lat="42.90799" lon="0.11556">
        <ele>1625.9</ele>
        <time>2019-08-18T11:17:59Z</time>
      </trkpt>
      <trkpt lat="42.90804" lon="0.11554">
        <ele>1626</ele>
        <time>2019-08-18T11:18:01Z</time>
      </trkpt>
      <trkpt lat="42.90808" lon="0.11556">
        <ele>1626.2</ele>
        <time>2019-08-18T11:18:03Z</time>
      </trkpt>
      <trkpt lat="42.90812" lon="0.1156">
        <ele>1626.4</ele>
        <time>2019-08-18T11:18:05Z</time>
      </trkpt>
      <trkpt lat="42.90812" lon="0.11567">
        <ele>1626.5</ele>
        <time>2019-08-18T11:18:07Z</time>
      </trkpt>
      <trkpt lat="42.90812" lon="0.11571">
        <ele>1626.6</ele>
        <time>2019-08-18T11:18:08Z</time>
      </trkpt>
      <trkpt lat="42.90811" lon="0.11574">
        <ele>1626.7</ele>
        <time>2019-08-18T11:18:09Z</time>
      </trkpt>
      <trkpt lat="42.90808" lon="0.11581">
        <ele>1626.9</ele>
        <time>2019-08-18T11:18:11Z</time>
      </trkpt>
      <trkpt lat="42.90806" lon="0.11586">
        <ele>1627</ele>
        <time>2019-08-18T11:18:13Z</time>
      </trkpt>
      <trkpt lat="42.90804" lon="0.11591">
        <ele>1627.1</ele>
        <time>2019-08-18T11:18:15Z</time>
      </trkpt>
      <trkpt lat="42.90801" lon="0.11596">
        <ele>1627.6</ele>
        <time>2019-08-18T11:18:17Z</time>
      </trkpt>
      <trkpt lat="42.90798" lon="0.11601">
        <ele>1628.3</ele>
        <time>2019-08-18T11:18:19Z</time>
      </trkpt>
      <trkpt lat="42.90796" lon="0.11606">
        <ele>1629</ele>
        <time>2019-08-18T11:18:21Z</time>
      </trkpt>
      <trkpt lat="42.90793" lon="0.11611">
        <ele>1629.8</ele>
        <time>2019-08-18T11:18:23Z</time>
      </trkpt>
      <trkpt lat="42.90791" lon="0.11616">
        <ele>1630.5</ele>
        <time>2019-08-18T11:18:25Z</time>
      </trkpt>
      <trkpt lat="42.90788" lon="0.11621">
        <ele>1631</ele>
        <time>2019-08-18T11:18:27Z</time>
      </trkpt>
      <trkpt lat="42.90785" lon="0.11627">
        <ele>1631.5</ele>
        <time>2019-08-18T11:18:29Z</time>
      </trkpt>
      <trkpt lat="42.90783" lon="0.11632">
        <ele>1632</ele>
        <time>2019-08-18T11:18:31Z</time>
      </trkpt>
      <trkpt lat="42.90781" lon="0.11638">
        <ele>1632.5</ele>
        <time>2019-08-18T11:18:33Z</time>
      </trkpt>
      <trkpt lat="42.90778" lon="0.11643">
        <ele>1633</ele>
        <time>2019-08-18T11:18:35Z</time>
      </trkpt>
      <trkpt lat="42.90776" lon="0.11649">
        <ele>1633.6</ele>
        <time>2019-08-18T11:18:37Z</time>
      </trkpt>
      <trkpt lat="42.90773" lon="0.11655">
        <ele>1634.3</ele>
        <time>2019-08-18T11:18:39Z</time>
      </trkpt>
      <trkpt lat="42.9077" lon="0.11661">
        <ele>1635</ele>
        <time>2019-08-18T11:18:41Z</time>
      </trkpt>
      <trkpt lat="42.90768" lon="0.11666">
        <ele>1635.7</ele>
        <time>2019-08-18T11:18:43Z</time>
      </trkpt>
      <trkpt lat="42.90766" lon="0.11672">
        <ele>1636.3</ele>
        <time>2019-08-18T11:18:45Z</time>
      </trkpt>
      <trkpt lat="42.90764" lon="0.11678">
        <ele>1637</ele>
        <time>2019-08-18T11:18:47Z</time>
      </trkpt>
      <trkpt lat="42.90762" lon="0.11684">
        <ele>1637.6</ele>
        <time>2019-08-18T11:18:49Z</time>
      </trkpt>
      <trkpt lat="42.9076" lon="0.11689">
        <ele>1638.1</ele>
        <time>2019-08-18T11:18:51Z</time>
      </trkpt>
      <trkpt lat="42.90758" lon="0.11694">
        <ele>1638.7</ele>
        <time>2019-08-18T11:18:53Z</time>
      </trkpt>
      <trkpt lat="42.90756" lon="0.117">
        <ele>1639.3</ele>
        <time>2019-08-18T11:18:55Z</time>
      </trkpt>
      <trkpt lat="42.90755" lon="0.11706">
        <ele>1639.8</ele>
        <time>2019-08-18T11:18:57Z</time>
      </trkpt>
      <trkpt lat="42.90753" lon="0.11713">
        <ele>1640.4</ele>
        <time>2019-08-18T11:18:59Z</time>
      </trkpt>
      <trkpt lat="42.90752" lon="0.11719">
        <ele>1641</ele>
        <time>2019-08-18T11:19:01Z</time>
      </trkpt>
      <trkpt lat="42.9075" lon="0.11725">
        <ele>1641.5</ele>
        <time>2019-08-18T11:19:03Z</time>
      </trkpt>
      <trkpt lat="42.90748" lon="0.11731">
        <ele>1642</ele>
        <time>2019-08-18T11:19:05Z</time>
      </trkpt>
      <trkpt lat="42.90747" lon="0.11737">
        <ele>1642.4</ele>
        <time>2019-08-18T11:19:07Z</time>
      </trkpt>
      <trkpt lat="42.90745" lon="0.11743">
        <ele>1642.7</ele>
        <time>2019-08-18T11:19:09Z</time>
      </trkpt>
      <trkpt lat="42.90744" lon="0.11749">
        <ele>1643</ele>
        <time>2019-08-18T11:19:11Z</time>
      </trkpt>
      <trkpt lat="42.90743" lon="0.11754">
        <ele>1643.4</ele>
        <time>2019-08-18T11:19:13Z</time>
      </trkpt>
      <trkpt lat="42.90742" lon="0.11761">
        <ele>1643.7</ele>
        <time>2019-08-18T11:19:15Z</time>
      </trkpt>
      <trkpt lat="42.90741" lon="0.11766">
        <ele>1644.1</ele>
        <time>2019-08-18T11:19:17Z</time>
      </trkpt>
      <trkpt lat="42.9074" lon="0.11773">
        <ele>1644.6</ele>
        <time>2019-08-18T11:19:19Z</time>
      </trkpt>
      <trkpt lat="42.90739" lon="0.11779">
        <ele>1645.1</ele>
        <time>2019-08-18T11:19:21Z</time>
      </trkpt>
      <trkpt lat="42.90738" lon="0.11785">
        <ele>1645.5</ele>
        <time>2019-08-18T11:19:23Z</time>
      </trkpt>
      <trkpt lat="42.90737" lon="0.11791">
        <ele>1645.8</ele>
        <time>2019-08-18T11:19:25Z</time>
      </trkpt>
      <trkpt lat="42.90736" lon="0.11796">
        <ele>1646.2</ele>
        <time>2019-08-18T11:19:27Z</time>
      </trkpt>
      <trkpt lat="42.90735" lon="0.11802">
        <ele>1646.5</ele>
        <time>2019-08-18T11:19:29Z</time>
      </trkpt>
      <trkpt lat="42.90733" lon="0.11807">
        <ele>1646.8</ele>
        <time>2019-08-18T11:19:31Z</time>
      </trkpt>
      <trkpt lat="42.90733" lon="0.11813">
        <ele>1647.2</ele>
        <time>2019-08-18T11:19:33Z</time>
      </trkpt>
      <trkpt lat="42.90732" lon="0.1182">
        <ele>1647.7</ele>
        <time>2019-08-18T11:19:35Z</time>
      </trkpt>
      <trkpt lat="42.9073" lon="0.11826">
        <ele>1648.2</ele>
        <time>2019-08-18T11:19:37Z</time>
      </trkpt>
      <trkpt lat="42.90729" lon="0.11832">
        <ele>1648.7</ele>
        <time>2019-08-18T11:19:39Z</time>
      </trkpt>
      <trkpt lat="42.90729" lon="0.11838">
        <ele>1649.2</ele>
        <time>2019-08-18T11:19:41Z</time>
      </trkpt>
      <trkpt lat="42.90728" lon="0.11844">
        <ele>1649.7</ele>
        <time>2019-08-18T11:19:43Z</time>
      </trkpt>
      <trkpt lat="42.90727" lon="0.1185">
        <ele>1650.2</ele>
        <time>2019-08-18T11:19:45Z</time>
      </trkpt>
      <trkpt lat="42.90726" lon="0.11856">
        <ele>1650.7</ele>
        <time>2019-08-18T11:19:47Z</time>
      </trkpt>
      <trkpt lat="42.90726" lon="0.11862">
        <ele>1651.2</ele>
        <time>2019-08-18T11:19:49Z</time>
      </trkpt>
      <trkpt lat="42.90726" lon="0.11868">
        <ele>1651.6</ele>
        <time>2019-08-18T11:19:51Z</time>
      </trkpt>
      <trkpt lat="42.90725" lon="0.11874">
        <ele>1652.2</ele>
        <time>2019-08-18T11:19:53Z</time>
      </trkpt>
      <trkpt lat="42.90724" lon="0.1188">
        <ele>1652.7</ele>
        <time>2019-08-18T11:19:55Z</time>
      </trkpt>
      <trkpt lat="42.90723" lon="0.11886">
        <ele>1653.2</ele>
        <time>2019-08-18T11:19:57Z</time>
      </trkpt>
      <trkpt lat="42.90723" lon="0.11892">
        <ele>1653.7</ele>
        <time>2019-08-18T11:19:59Z</time>
      </trkpt>
      <trkpt lat="42.90723" lon="0.11898">
        <ele>1654.2</ele>
        <time>2019-08-18T11:20:01Z</time>
      </trkpt>
      <trkpt lat="42.90723" lon="0.11903">
        <ele>1654.6</ele>
        <time>2019-08-18T11:20:03Z</time>
      </trkpt>
      <trkpt lat="42.90722" lon="0.11909">
        <ele>1655.2</ele>
        <time>2019-08-18T11:20:05Z</time>
      </trkpt>
      <trkpt lat="42.90722" lon="0.11915">
        <ele>1655.7</ele>
        <time>2019-08-18T11:20:07Z</time>
      </trkpt>
      <trkpt lat="42.90721" lon="0.11921">
        <ele>1656.3</ele>
        <time>2019-08-18T11:20:09Z</time>
      </trkpt>
      <trkpt lat="42.9072" lon="0.11928">
        <ele>1656.8</ele>
        <time>2019-08-18T11:20:11Z</time>
      </trkpt>
      <trkpt lat="42.90719" lon="0.11934">
        <ele>1657.4</ele>
        <time>2019-08-18T11:20:13Z</time>
      </trkpt>
      <trkpt lat="42.90719" lon="0.11939">
        <ele>1657.8</ele>
        <time>2019-08-18T11:20:15Z</time>
      </trkpt>
      <trkpt lat="42.90718" lon="0.11945">
        <ele>1658.2</ele>
        <time>2019-08-18T11:20:17Z</time>
      </trkpt>
      <trkpt lat="42.90718" lon="0.11951">
        <ele>1658.6</ele>
        <time>2019-08-18T11:20:19Z</time>
      </trkpt>
      <trkpt lat="42.90718" lon="0.11956">
        <ele>1658.9</ele>
        <time>2019-08-18T11:20:21Z</time>
      </trkpt>
      <trkpt lat="42.90718" lon="0.11962">
        <ele>1659.3</ele>
        <time>2019-08-18T11:20:23Z</time>
      </trkpt>
      <trkpt lat="42.90717" lon="0.11968">
        <ele>1659.6</ele>
        <time>2019-08-18T11:20:25Z</time>
      </trkpt>
      <trkpt lat="42.90716" lon="0.11974">
        <ele>1660</ele>
        <time>2019-08-18T11:20:27Z</time>
      </trkpt>
      <trkpt lat="42.90716" lon="0.1198">
        <ele>1660.5</ele>
        <time>2019-08-18T11:20:29Z</time>
      </trkpt>
      <trkpt lat="42.90715" lon="0.11986">
        <ele>1661</ele>
        <time>2019-08-18T11:20:31Z</time>
      </trkpt>
      <trkpt lat="42.90715" lon="0.11992">
        <ele>1661.5</ele>
        <time>2019-08-18T11:20:33Z</time>
      </trkpt>
      <trkpt lat="42.90714" lon="0.11998">
        <ele>1662</ele>
        <time>2019-08-18T11:20:35Z</time>
      </trkpt>
      <trkpt lat="42.90714" lon="0.12005">
        <ele>1662.5</ele>
        <time>2019-08-18T11:20:37Z</time>
      </trkpt>
      <trkpt lat="42.90713" lon="0.12011">
        <ele>1662.9</ele>
        <time>2019-08-18T11:20:39Z</time>
      </trkpt>
      <trkpt lat="42.90712" lon="0.12017">
        <ele>1663.4</ele>
        <time>2019-08-18T11:20:41Z</time>
      </trkpt>
      <trkpt lat="42.90712" lon="0.12024">
        <ele>1663.9</ele>
        <time>2019-08-18T11:20:43Z</time>
      </trkpt>
      <trkpt lat="42.90711" lon="0.1203">
        <ele>1664.3</ele>
        <time>2019-08-18T11:20:45Z</time>
      </trkpt>
      <trkpt lat="42.90711" lon="0.12036">
        <ele>1664.8</ele>
        <time>2019-08-18T11:20:47Z</time>
      </trkpt>
      <trkpt lat="42.90711" lon="0.12042">
        <ele>1665.2</ele>
        <time>2019-08-18T11:20:49Z</time>
      </trkpt>
      <trkpt lat="42.9071" lon="0.12047">
        <ele>1665.6</ele>
        <time>2019-08-18T11:20:51Z</time>
      </trkpt>
      <trkpt lat="42.90709" lon="0.12053">
        <ele>1666.1</ele>
        <time>2019-08-18T11:20:53Z</time>
      </trkpt>
      <trkpt lat="42.90709" lon="0.12058">
        <ele>1666.5</ele>
        <time>2019-08-18T11:20:55Z</time>
      </trkpt>
      <trkpt lat="42.90709" lon="0.12064">
        <ele>1666.9</ele>
        <time>2019-08-18T11:20:57Z</time>
      </trkpt>
      <trkpt lat="42.90709" lon="0.12069">
        <ele>1667.2</ele>
        <time>2019-08-18T11:20:59Z</time>
      </trkpt>
      <trkpt lat="42.90708" lon="0.12075">
        <ele>1667.6</ele>
        <time>2019-08-18T11:21:01Z</time>
      </trkpt>
      <trkpt lat="42.90707" lon="0.12081">
        <ele>1667.9</ele>
        <time>2019-08-18T11:21:03Z</time>
      </trkpt>
      <trkpt lat="42.90707" lon="0.12087">
        <ele>1668.2</ele>
        <time>2019-08-18T11:21:05Z</time>
      </trkpt>
      <trkpt lat="42.90707" lon="0.12093">
        <ele>1668.6</ele>
        <time>2019-08-18T11:21:07Z</time>
      </trkpt>
      <trkpt lat="42.90706" lon="0.12099">
        <ele>1668.9</ele>
        <time>2019-08-18T11:21:09Z</time>
      </trkpt>
      <trkpt lat="42.90706" lon="0.12105">
        <ele>1669.3</ele>
        <time>2019-08-18T11:21:11Z</time>
      </trkpt>
      <trkpt lat="42.90706" lon="0.12112">
        <ele>1669.8</ele>
        <time>2019-08-18T11:21:13Z</time>
      </trkpt>
      <trkpt lat="42.90707" lon="0.12118">
        <ele>1670.3</ele>
        <time>2019-08-18T11:21:15Z</time>
      </trkpt>
      <trkpt lat="42.90707" lon="0.12124">
        <ele>1670.8</ele>
        <time>2019-08-18T11:21:17Z</time>
      </trkpt>
      <trkpt lat="42.90707" lon="0.1213">
        <ele>1671.3</ele>
        <time>2019-08-18T11:21:19Z</time>
      </trkpt>
      <trkpt lat="42.90707" lon="0.12137">
        <ele>1671.8</ele>
        <time>2019-08-18T11:21:21Z</time>
      </trkpt>
      <trkpt lat="42.90707" lon="0.12142">
        <ele>1672.3</ele>
        <time>2019-08-18T11:21:23Z</time>
      </trkpt>
      <trkpt lat="42.90707" lon="0.12148">
        <ele>1672.7</ele>
        <time>2019-08-18T11:21:25Z</time>
      </trkpt>
      <trkpt lat="42.90707" lon="0.12154">
        <ele>1673.2</ele>
        <time>2019-08-18T11:21:27Z</time>
      </trkpt>
      <trkpt lat="42.90707" lon="0.1216">
        <ele>1673.7</ele>
        <time>2019-08-18T11:21:29Z</time>
      </trkpt>
      <trkpt lat="42.90707" lon="0.12166">
        <ele>1674.1</ele>
        <time>2019-08-18T11:21:31Z</time>
      </trkpt>
      <trkpt lat="42.90707" lon="0.12172">
        <ele>1674.5</ele>
        <time>2019-08-18T11:21:33Z</time>
      </trkpt>
      <trkpt lat="42.90707" lon="0.12178">
        <ele>1675</ele>
        <time>2019-08-18T11:21:35Z</time>
      </trkpt>
      <trkpt lat="42.90707" lon="0.12183">
        <ele>1675.4</ele>
        <time>2019-08-18T11:21:37Z</time>
      </trkpt>
      <trkpt lat="42.90707" lon="0.12189">
        <ele>1675.9</ele>
        <time>2019-08-18T11:21:39Z</time>
      </trkpt>
      <trkpt lat="42.90706" lon="0.12194">
        <ele>1676.3</ele>
        <time>2019-08-18T11:21:41Z</time>
      </trkpt>
      <trkpt lat="42.90706" lon="0.122">
        <ele>1676.7</ele>
        <time>2019-08-18T11:21:43Z</time>
      </trkpt>
      <trkpt lat="42.90706" lon="0.12206">
        <ele>1677.2</ele>
        <time>2019-08-18T11:21:45Z</time>
      </trkpt>
      <trkpt lat="42.90706" lon="0.12212">
        <ele>1677.6</ele>
        <time>2019-08-18T11:21:47Z</time>
      </trkpt>
      <trkpt lat="42.90706" lon="0.12218">
        <ele>1678.1</ele>
        <time>2019-08-18T11:21:49Z</time>
      </trkpt>
      <trkpt lat="42.90706" lon="0.12224">
        <ele>1678.6</ele>
        <time>2019-08-18T11:21:51Z</time>
      </trkpt>
      <trkpt lat="42.90706" lon="0.12228">
        <ele>1679</ele>
        <time>2019-08-18T11:21:53Z</time>
      </trkpt>
      <trkpt lat="42.90706" lon="0.12234">
        <ele>1679.4</ele>
        <time>2019-08-18T11:21:55Z</time>
      </trkpt>
      <trkpt lat="42.90705" lon="0.1224">
        <ele>1679.9</ele>
        <time>2019-08-18T11:21:57Z</time>
      </trkpt>
      <trkpt lat="42.90705" lon="0.12245">
        <ele>1680.3</ele>
        <time>2019-08-18T11:21:59Z</time>
      </trkpt>
      <trkpt lat="42.90705" lon="0.12251">
        <ele>1681</ele>
        <time>2019-08-18T11:22:01Z</time>
      </trkpt>
      <trkpt lat="42.90705" lon="0.12257">
        <ele>1681.4</ele>
        <time>2019-08-18T11:22:03Z</time>
      </trkpt>
      <trkpt lat="42.90705" lon="0.12262">
        <ele>1681.7</ele>
        <time>2019-08-18T11:22:05Z</time>
      </trkpt>
      <trkpt lat="42.90706" lon="0.12267">
        <ele>1682.1</ele>
        <time>2019-08-18T11:22:07Z</time>
      </trkpt>
      <trkpt lat="42.90707" lon="0.12272">
        <ele>1682.4</ele>
        <time>2019-08-18T11:22:09Z</time>
      </trkpt>
      <trkpt lat="42.90707" lon="0.12278">
        <ele>1682.8</ele>
        <time>2019-08-18T11:22:11Z</time>
      </trkpt>
      <trkpt lat="42.90707" lon="0.12283">
        <ele>1683.1</ele>
        <time>2019-08-18T11:22:13Z</time>
      </trkpt>
      <trkpt lat="42.90707" lon="0.12289">
        <ele>1683.5</ele>
        <time>2019-08-18T11:22:15Z</time>
      </trkpt>
      <trkpt lat="42.90707" lon="0.12295">
        <ele>1683.9</ele>
        <time>2019-08-18T11:22:17Z</time>
      </trkpt>
      <trkpt lat="42.90707" lon="0.123">
        <ele>1684.2</ele>
        <time>2019-08-18T11:22:19Z</time>
      </trkpt>
      <trkpt lat="42.90707" lon="0.12306">
        <ele>1684.6</ele>
        <time>2019-08-18T11:22:21Z</time>
      </trkpt>
      <trkpt lat="42.90707" lon="0.12311">
        <ele>1684.9</ele>
        <time>2019-08-18T11:22:23Z</time>
      </trkpt>
      <trkpt lat="42.90706" lon="0.12317">
        <ele>1685.3</ele>
        <time>2019-08-18T11:22:25Z</time>
      </trkpt>
      <trkpt lat="42.90706" lon="0.12322">
        <ele>1685.6</ele>
        <time>2019-08-18T11:22:27Z</time>
      </trkpt>
      <trkpt lat="42.90705" lon="0.12328">
        <ele>1686</ele>
        <time>2019-08-18T11:22:29Z</time>
      </trkpt>
      <trkpt lat="42.90705" lon="0.12334">
        <ele>1686.4</ele>
        <time>2019-08-18T11:22:31Z</time>
      </trkpt>
      <trkpt lat="42.90705" lon="0.1234">
        <ele>1686.7</ele>
        <time>2019-08-18T11:22:33Z</time>
      </trkpt>
      <trkpt lat="42.90705" lon="0.12347">
        <ele>1687.1</ele>
        <time>2019-08-18T11:22:35Z</time>
      </trkpt>
      <trkpt lat="42.90705" lon="0.12352">
        <ele>1687.5</ele>
        <time>2019-08-18T11:22:37Z</time>
      </trkpt>
      <trkpt lat="42.90704" lon="0.12358">
        <ele>1687.9</ele>
        <time>2019-08-18T11:22:39Z</time>
      </trkpt>
      <trkpt lat="42.90704" lon="0.12365">
        <ele>1688.3</ele>
        <time>2019-08-18T11:22:41Z</time>
      </trkpt>
      <trkpt lat="42.90704" lon="0.12371">
        <ele>1688.7</ele>
        <time>2019-08-18T11:22:43Z</time>
      </trkpt>
      <trkpt lat="42.90704" lon="0.12378">
        <ele>1689.2</ele>
        <time>2019-08-18T11:22:45Z</time>
      </trkpt>
      <trkpt lat="42.90704" lon="0.12384">
        <ele>1689.6</ele>
        <time>2019-08-18T11:22:47Z</time>
      </trkpt>
      <trkpt lat="42.90704" lon="0.12391">
        <ele>1690.1</ele>
        <time>2019-08-18T11:22:49Z</time>
      </trkpt>
      <trkpt lat="42.90704" lon="0.12397">
        <ele>1690.5</ele>
        <time>2019-08-18T11:22:51Z</time>
      </trkpt>
      <trkpt lat="42.90703" lon="0.12403">
        <ele>1690.9</ele>
        <time>2019-08-18T11:22:53Z</time>
      </trkpt>
      <trkpt lat="42.90703" lon="0.12408">
        <ele>1691.3</ele>
        <time>2019-08-18T11:22:55Z</time>
      </trkpt>
      <trkpt lat="42.90704" lon="0.12414">
        <ele>1691.7</ele>
        <time>2019-08-18T11:22:57Z</time>
      </trkpt>
      <trkpt lat="42.90704" lon="0.1242">
        <ele>1692.2</ele>
        <time>2019-08-18T11:22:59Z</time>
      </trkpt>
      <trkpt lat="42.90704" lon="0.12426">
        <ele>1692.6</ele>
        <time>2019-08-18T11:23:01Z</time>
      </trkpt>
      <trkpt lat="42.90704" lon="0.12432">
        <ele>1693</ele>
        <time>2019-08-18T11:23:03Z</time>
      </trkpt>
      <trkpt lat="42.90705" lon="0.12438">
        <ele>1693.4</ele>
        <time>2019-08-18T11:23:05Z</time>
      </trkpt>
      <trkpt lat="42.90705" lon="0.12444">
        <ele>1693.8</ele>
        <time>2019-08-18T11:23:07Z</time>
      </trkpt>
      <trkpt lat="42.90704" lon="0.12449">
        <ele>1694.2</ele>
        <time>2019-08-18T11:23:09Z</time>
      </trkpt>
      <trkpt lat="42.90704" lon="0.12455">
        <ele>1694.6</ele>
        <time>2019-08-18T11:23:11Z</time>
      </trkpt>
      <trkpt lat="42.90704" lon="0.12461">
        <ele>1695</ele>
        <time>2019-08-18T11:23:13Z</time>
      </trkpt>
      <trkpt lat="42.90704" lon="0.12467">
        <ele>1695.4</ele>
        <time>2019-08-18T11:23:15Z</time>
      </trkpt>
      <trkpt lat="42.90703" lon="0.12473">
        <ele>1695.8</ele>
        <time>2019-08-18T11:23:17Z</time>
      </trkpt>
      <trkpt lat="42.90703" lon="0.12479">
        <ele>1696.2</ele>
        <time>2019-08-18T11:23:19Z</time>
      </trkpt>
      <trkpt lat="42.90703" lon="0.12485">
        <ele>1696.6</ele>
        <time>2019-08-18T11:23:21Z</time>
      </trkpt>
      <trkpt lat="42.90703" lon="0.12492">
        <ele>1697</ele>
        <time>2019-08-18T11:23:23Z</time>
      </trkpt>
      <trkpt lat="42.90704" lon="0.12497">
        <ele>1697.3</ele>
        <time>2019-08-18T11:23:25Z</time>
      </trkpt>
      <trkpt lat="42.90704" lon="0.12503">
        <ele>1697.7</ele>
        <time>2019-08-18T11:23:27Z</time>
      </trkpt>
      <trkpt lat="42.90704" lon="0.12509">
        <ele>1698.1</ele>
        <time>2019-08-18T11:23:29Z</time>
      </trkpt>
      <trkpt lat="42.90704" lon="0.12515">
        <ele>1698.6</ele>
        <time>2019-08-18T11:23:31Z</time>
      </trkpt>
      <trkpt lat="42.90704" lon="0.12522">
        <ele>1699</ele>
        <time>2019-08-18T11:23:33Z</time>
      </trkpt>
      <trkpt lat="42.90704" lon="0.12528">
        <ele>1699.5</ele>
        <time>2019-08-18T11:23:35Z</time>
      </trkpt>
      <trkpt lat="42.90703" lon="0.12534">
        <ele>1699.9</ele>
        <time>2019-08-18T11:23:37Z</time>
      </trkpt>
      <trkpt lat="42.90703" lon="0.12539">
        <ele>1700.3</ele>
        <time>2019-08-18T11:23:39Z</time>
      </trkpt>
      <trkpt lat="42.90703" lon="0.12544">
        <ele>1700.7</ele>
        <time>2019-08-18T11:23:41Z</time>
      </trkpt>
      <trkpt lat="42.90703" lon="0.1255">
        <ele>1701.1</ele>
        <time>2019-08-18T11:23:43Z</time>
      </trkpt>
      <trkpt lat="42.90703" lon="0.12555">
        <ele>1701.5</ele>
        <time>2019-08-18T11:23:45Z</time>
      </trkpt>
      <trkpt lat="42.90704" lon="0.1256">
        <ele>1701.8</ele>
        <time>2019-08-18T11:23:47Z</time>
      </trkpt>
      <trkpt lat="42.90704" lon="0.12565">
        <ele>1702.2</ele>
        <time>2019-08-18T11:23:49Z</time>
      </trkpt>
      <trkpt lat="42.90704" lon="0.12571">
        <ele>1702.6</ele>
        <time>2019-08-18T11:23:51Z</time>
      </trkpt>
      <trkpt lat="42.90705" lon="0.12576">
        <ele>1703</ele>
        <time>2019-08-18T11:23:53Z</time>
      </trkpt>
      <trkpt lat="42.90705" lon="0.12582">
        <ele>1703.4</ele>
        <time>2019-08-18T11:23:55Z</time>
      </trkpt>
      <trkpt lat="42.90706" lon="0.12588">
        <ele>1703.7</ele>
        <time>2019-08-18T11:23:57Z</time>
      </trkpt>
      <trkpt lat="42.90705" lon="0.12594">
        <ele>1704.1</ele>
        <time>2019-08-18T11:23:59Z</time>
      </trkpt>
      <trkpt lat="42.90705" lon="0.126">
        <ele>1704.4</ele>
        <time>2019-08-18T11:24:01Z</time>
      </trkpt>
      <trkpt lat="42.90705" lon="0.12606">
        <ele>1704.8</ele>
        <time>2019-08-18T11:24:03Z</time>
      </trkpt>
      <trkpt lat="42.90705" lon="0.12611">
        <ele>1705.1</ele>
        <time>2019-08-18T11:24:05Z</time>
      </trkpt>
      <trkpt lat="42.90705" lon="0.12618">
        <ele>1705.4</ele>
        <time>2019-08-18T11:24:07Z</time>
      </trkpt>
      <trkpt lat="42.90705" lon="0.12624">
        <ele>1705.7</ele>
        <time>2019-08-18T11:24:09Z</time>
      </trkpt>
      <trkpt lat="42.90705" lon="0.12631">
        <ele>1706</ele>
        <time>2019-08-18T11:24:11Z</time>
      </trkpt>
      <trkpt lat="42.90705" lon="0.12637">
        <ele>1706.3</ele>
        <time>2019-08-18T11:24:13Z</time>
      </trkpt>
      <trkpt lat="42.90705" lon="0.12643">
        <ele>1706.6</ele>
        <time>2019-08-18T11:24:15Z</time>
      </trkpt>
      <trkpt lat="42.90704" lon="0.12649">
        <ele>1707</ele>
        <time>2019-08-18T11:24:17Z</time>
      </trkpt>
      <trkpt lat="42.90704" lon="0.12656">
        <ele>1707.3</ele>
        <time>2019-08-18T11:24:19Z</time>
      </trkpt>
      <trkpt lat="42.90703" lon="0.12662">
        <ele>1707.6</ele>
        <time>2019-08-18T11:24:21Z</time>
      </trkpt>
      <trkpt lat="42.90703" lon="0.12669">
        <ele>1707.9</ele>
        <time>2019-08-18T11:24:23Z</time>
      </trkpt>
      <trkpt lat="42.90703" lon="0.12675">
        <ele>1708.3</ele>
        <time>2019-08-18T11:24:25Z</time>
      </trkpt>
      <trkpt lat="42.90702" lon="0.12681">
        <ele>1708.6</ele>
        <time>2019-08-18T11:24:27Z</time>
      </trkpt>
      <trkpt lat="42.90702" lon="0.12687">
        <ele>1709</ele>
        <time>2019-08-18T11:24:29Z</time>
      </trkpt>
      <trkpt lat="42.90702" lon="0.12693">
        <ele>1709.3</ele>
        <time>2019-08-18T11:24:31Z</time>
      </trkpt>
      <trkpt lat="42.907" lon="0.12699">
        <ele>1709.6</ele>
        <time>2019-08-18T11:24:33Z</time>
      </trkpt>
      <trkpt lat="42.907" lon="0.12705">
        <ele>1710</ele>
        <time>2019-08-18T11:24:35Z</time>
      </trkpt>
      <trkpt lat="42.90699" lon="0.12711">
        <ele>1710.4</ele>
        <time>2019-08-18T11:24:37Z</time>
      </trkpt>
      <trkpt lat="42.90699" lon="0.12717">
        <ele>1710.8</ele>
        <time>2019-08-18T11:24:39Z</time>
      </trkpt>
      <trkpt lat="42.90699" lon="0.12723">
        <ele>1711.2</ele>
        <time>2019-08-18T11:24:41Z</time>
      </trkpt>
      <trkpt lat="42.90698" lon="0.12729">
        <ele>1711.5</ele>
        <time>2019-08-18T11:24:43Z</time>
      </trkpt>
      <trkpt lat="42.90699" lon="0.12734">
        <ele>1711.9</ele>
        <time>2019-08-18T11:24:45Z</time>
      </trkpt>
      <trkpt lat="42.90699" lon="0.1274">
        <ele>1712.3</ele>
        <time>2019-08-18T11:24:47Z</time>
      </trkpt>
      <trkpt lat="42.90698" lon="0.12746">
        <ele>1712.7</ele>
        <time>2019-08-18T11:24:49Z</time>
      </trkpt>
      <trkpt lat="42.90697" lon="0.12753">
        <ele>1713.1</ele>
        <time>2019-08-18T11:24:51Z</time>
      </trkpt>
      <trkpt lat="42.90697" lon="0.12759">
        <ele>1713.5</ele>
        <time>2019-08-18T11:24:53Z</time>
      </trkpt>
      <trkpt lat="42.90697" lon="0.12765">
        <ele>1713.9</ele>
        <time>2019-08-18T11:24:55Z</time>
      </trkpt>
      <trkpt lat="42.90697" lon="0.12772">
        <ele>1714.3</ele>
        <time>2019-08-18T11:24:57Z</time>
      </trkpt>
      <trkpt lat="42.90697" lon="0.12778">
        <ele>1714.6</ele>
        <time>2019-08-18T11:24:59Z</time>
      </trkpt>
      <trkpt lat="42.90696" lon="0.12784">
        <ele>1715</ele>
        <time>2019-08-18T11:25:01Z</time>
      </trkpt>
      <trkpt lat="42.90696" lon="0.1279">
        <ele>1715.4</ele>
        <time>2019-08-18T11:25:03Z</time>
      </trkpt>
      <trkpt lat="42.90696" lon="0.12797">
        <ele>1715.8</ele>
        <time>2019-08-18T11:25:05Z</time>
      </trkpt>
      <trkpt lat="42.90696" lon="0.12803">
        <ele>1716.1</ele>
        <time>2019-08-18T11:25:07Z</time>
      </trkpt>
      <trkpt lat="42.90696" lon="0.1281">
        <ele>1716.5</ele>
        <time>2019-08-18T11:25:09Z</time>
      </trkpt>
      <trkpt lat="42.90695" lon="0.12816">
        <ele>1716.9</ele>
        <time>2019-08-18T11:25:11Z</time>
      </trkpt>
      <trkpt lat="42.90694" lon="0.12823">
        <ele>1717.3</ele>
        <time>2019-08-18T11:25:13Z</time>
      </trkpt>
      <trkpt lat="42.90693" lon="0.12829">
        <ele>1717.6</ele>
        <time>2019-08-18T11:25:15Z</time>
      </trkpt>
      <trkpt lat="42.90693" lon="0.12835">
        <ele>1718</ele>
        <time>2019-08-18T11:25:17Z</time>
      </trkpt>
      <trkpt lat="42.90693" lon="0.12841">
        <ele>1718.3</ele>
        <time>2019-08-18T11:25:19Z</time>
      </trkpt>
      <trkpt lat="42.90693" lon="0.12848">
        <ele>1718.6</ele>
        <time>2019-08-18T11:25:21Z</time>
      </trkpt>
      <trkpt lat="42.90692" lon="0.12854">
        <ele>1719</ele>
        <time>2019-08-18T11:25:23Z</time>
      </trkpt>
      <trkpt lat="42.90692" lon="0.1286">
        <ele>1719.3</ele>
        <time>2019-08-18T11:25:25Z</time>
      </trkpt>
      <trkpt lat="42.90692" lon="0.12866">
        <ele>1719.7</ele>
        <time>2019-08-18T11:25:27Z</time>
      </trkpt>
      <trkpt lat="42.90692" lon="0.12872">
        <ele>1720</ele>
        <time>2019-08-18T11:25:29Z</time>
      </trkpt>
      <trkpt lat="42.90692" lon="0.12878">
        <ele>1720.3</ele>
        <time>2019-08-18T11:25:31Z</time>
      </trkpt>
      <trkpt lat="42.90692" lon="0.12884">
        <ele>1720.6</ele>
        <time>2019-08-18T11:25:33Z</time>
      </trkpt>
      <trkpt lat="42.90693" lon="0.12889">
        <ele>1720.9</ele>
        <time>2019-08-18T11:25:35Z</time>
      </trkpt>
      <trkpt lat="42.90693" lon="0.12895">
        <ele>1721.2</ele>
        <time>2019-08-18T11:25:37Z</time>
      </trkpt>
      <trkpt lat="42.90693" lon="0.12901">
        <ele>1721.6</ele>
        <time>2019-08-18T11:25:39Z</time>
      </trkpt>
      <trkpt lat="42.90692" lon="0.12907">
        <ele>1722</ele>
        <time>2019-08-18T11:25:41Z</time>
      </trkpt>
      <trkpt lat="42.90692" lon="0.12913">
        <ele>1722.4</ele>
        <time>2019-08-18T11:25:43Z</time>
      </trkpt>
      <trkpt lat="42.90692" lon="0.1292">
        <ele>1722.7</ele>
        <time>2019-08-18T11:25:45Z</time>
      </trkpt>
      <trkpt lat="42.90692" lon="0.12926">
        <ele>1723.1</ele>
        <time>2019-08-18T11:25:47Z</time>
      </trkpt>
      <trkpt lat="42.90692" lon="0.12931">
        <ele>1723.4</ele>
        <time>2019-08-18T11:25:49Z</time>
      </trkpt>
      <trkpt lat="42.90693" lon="0.12936">
        <ele>1723.7</ele>
        <time>2019-08-18T11:25:51Z</time>
      </trkpt>
      <trkpt lat="42.90693" lon="0.12941">
        <ele>1723.9</ele>
        <time>2019-08-18T11:25:53Z</time>
      </trkpt>
      <trkpt lat="42.90693" lon="0.12946">
        <ele>1724.2</ele>
        <time>2019-08-18T11:25:55Z</time>
      </trkpt>
      <trkpt lat="42.90693" lon="0.12952">
        <ele>1724.5</ele>
        <time>2019-08-18T11:25:57Z</time>
      </trkpt>
      <trkpt lat="42.90692" lon="0.12958">
        <ele>1724.8</ele>
        <time>2019-08-18T11:25:59Z</time>
      </trkpt>
      <trkpt lat="42.90691" lon="0.12963">
        <ele>1725</ele>
        <time>2019-08-18T11:26:01Z</time>
      </trkpt>
      <trkpt lat="42.9069" lon="0.1297">
        <ele>1725.3</ele>
        <time>2019-08-18T11:26:03Z</time>
      </trkpt>
      <trkpt lat="42.90689" lon="0.12976">
        <ele>1725.6</ele>
        <time>2019-08-18T11:26:05Z</time>
      </trkpt>
      <trkpt lat="42.90687" lon="0.12982">
        <ele>1725.9</ele>
        <time>2019-08-18T11:26:07Z</time>
      </trkpt>
      <trkpt lat="42.90686" lon="0.12989">
        <ele>1726.2</ele>
        <time>2019-08-18T11:26:09Z</time>
      </trkpt>
      <trkpt lat="42.90684" lon="0.12995">
        <ele>1726.4</ele>
        <time>2019-08-18T11:26:11Z</time>
      </trkpt>
      <trkpt lat="42.90683" lon="0.13001">
        <ele>1726.7</ele>
        <time>2019-08-18T11:26:13Z</time>
      </trkpt>
      <trkpt lat="42.90681" lon="0.13007">
        <ele>1726.9</ele>
        <time>2019-08-18T11:26:15Z</time>
      </trkpt>
      <trkpt lat="42.90679" lon="0.13012">
        <ele>1727.1</ele>
        <time>2019-08-18T11:26:17Z</time>
      </trkpt>
      <trkpt lat="42.90677" lon="0.13018">
        <ele>1727.4</ele>
        <time>2019-08-18T11:26:19Z</time>
      </trkpt>
      <trkpt lat="42.90676" lon="0.13025">
        <ele>1727.6</ele>
        <time>2019-08-18T11:26:21Z</time>
      </trkpt>
      <trkpt lat="42.90675" lon="0.13031">
        <ele>1727.8</ele>
        <time>2019-08-18T11:26:23Z</time>
      </trkpt>
      <trkpt lat="42.90673" lon="0.13037">
        <ele>1728</ele>
        <time>2019-08-18T11:26:25Z</time>
      </trkpt>
      <trkpt lat="42.90672" lon="0.13043">
        <ele>1728.2</ele>
        <time>2019-08-18T11:26:27Z</time>
      </trkpt>
      <trkpt lat="42.90671" lon="0.13049">
        <ele>1728.4</ele>
        <time>2019-08-18T11:26:29Z</time>
      </trkpt>
      <trkpt lat="42.9067" lon="0.13055">
        <ele>1728.6</ele>
        <time>2019-08-18T11:26:31Z</time>
      </trkpt>
      <trkpt lat="42.90669" lon="0.13062">
        <ele>1728.7</ele>
        <time>2019-08-18T11:26:33Z</time>
      </trkpt>
      <trkpt lat="42.90667" lon="0.13069">
        <ele>1728.8</ele>
        <time>2019-08-18T11:26:35Z</time>
      </trkpt>
      <trkpt lat="42.90665" lon="0.13076">
        <ele>1728.9</ele>
        <time>2019-08-18T11:26:37Z</time>
      </trkpt>
      <trkpt lat="42.90664" lon="0.13079">
        <ele>1729</ele>
        <time>2019-08-18T11:26:38Z</time>
      </trkpt>
      <trkpt lat="42.90664" lon="0.13083">
        <ele>1729.1</ele>
        <time>2019-08-18T11:26:39Z</time>
      </trkpt>
      <trkpt lat="42.90662" lon="0.1309">
        <ele>1729.2</ele>
        <time>2019-08-18T11:26:41Z</time>
      </trkpt>
      <trkpt lat="42.9066" lon="0.13097">
        <ele>1729.2</ele>
        <time>2019-08-18T11:26:43Z</time>
      </trkpt>
      <trkpt lat="42.90659" lon="0.131">
        <ele>1729.2</ele>
        <time>2019-08-18T11:26:44Z</time>
      </trkpt>
      <trkpt lat="42.90658" lon="0.13104">
        <ele>1729.2</ele>
        <time>2019-08-18T11:26:45Z</time>
      </trkpt>
      <trkpt lat="42.90656" lon="0.13107">
        <ele>1729.2</ele>
        <time>2019-08-18T11:26:46Z</time>
      </trkpt>
      <trkpt lat="42.90655" lon="0.13111">
        <ele>1729.3</ele>
        <time>2019-08-18T11:26:47Z</time>
      </trkpt>
      <trkpt lat="42.90654" lon="0.13114">
        <ele>1729.3</ele>
        <time>2019-08-18T11:26:48Z</time>
      </trkpt>
      <trkpt lat="42.90653" lon="0.13118">
        <ele>1729.3</ele>
        <time>2019-08-18T11:26:49Z</time>
      </trkpt>
      <trkpt lat="42.90651" lon="0.13122">
        <ele>1729.3</ele>
        <time>2019-08-18T11:26:50Z</time>
      </trkpt>
      <trkpt lat="42.9065" lon="0.13125">
        <ele>1729.3</ele>
        <time>2019-08-18T11:26:51Z</time>
      </trkpt>
      <trkpt lat="42.90648" lon="0.13129">
        <ele>1729.4</ele>
        <time>2019-08-18T11:26:52Z</time>
      </trkpt>
      <trkpt lat="42.90646" lon="0.13133">
        <ele>1729.4</ele>
        <time>2019-08-18T11:26:53Z</time>
      </trkpt>
      <trkpt lat="42.90644" lon="0.13136">
        <ele>1729.5</ele>
        <time>2019-08-18T11:26:54Z</time>
      </trkpt>
      <trkpt lat="42.90641" lon="0.1314">
        <ele>1729.5</ele>
        <time>2019-08-18T11:26:55Z</time>
      </trkpt>
      <trkpt lat="42.90638" lon="0.13143">
        <ele>1729.6</ele>
        <time>2019-08-18T11:26:56Z</time>
      </trkpt>
      <trkpt lat="42.90636" lon="0.13145">
        <ele>1729.7</ele>
        <time>2019-08-18T11:26:57Z</time>
      </trkpt>
      <trkpt lat="42.90633" lon="0.13147">
        <ele>1729.8</ele>
        <time>2019-08-18T11:26:58Z</time>
      </trkpt>
      <trkpt lat="42.9063" lon="0.13148">
        <ele>1729.9</ele>
        <time>2019-08-18T11:26:59Z</time>
      </trkpt>
      <trkpt lat="42.90627" lon="0.1315">
        <ele>1730</ele>
        <time>2019-08-18T11:27:00Z</time>
      </trkpt>
      <trkpt lat="42.90624" lon="0.13151">
        <ele>1730.1</ele>
        <time>2019-08-18T11:27:01Z</time>
      </trkpt>
      <trkpt lat="42.90621" lon="0.13152">
        <ele>1730.3</ele>
        <time>2019-08-18T11:27:02Z</time>
      </trkpt>
      <trkpt lat="42.90618" lon="0.13153">
        <ele>1730.4</ele>
        <time>2019-08-18T11:27:03Z</time>
      </trkpt>
      <trkpt lat="42.90615" lon="0.13154">
        <ele>1730.6</ele>
        <time>2019-08-18T11:27:04Z</time>
      </trkpt>
      <trkpt lat="42.90612" lon="0.13154">
        <ele>1730.7</ele>
        <time>2019-08-18T11:27:05Z</time>
      </trkpt>
      <trkpt lat="42.90609" lon="0.13154">
        <ele>1730.8</ele>
        <time>2019-08-18T11:27:06Z</time>
      </trkpt>
      <trkpt lat="42.90606" lon="0.13155">
        <ele>1730.8</ele>
        <time>2019-08-18T11:27:07Z</time>
      </trkpt>
      <trkpt lat="42.90603" lon="0.13155">
        <ele>1730.9</ele>
        <time>2019-08-18T11:27:08Z</time>
      </trkpt>
      <trkpt lat="42.906" lon="0.13155">
        <ele>1730.9</ele>
        <time>2019-08-18T11:27:09Z</time>
      </trkpt>
      <trkpt lat="42.90596" lon="0.13155">
        <ele>1731</ele>
        <time>2019-08-18T11:27:10Z</time>
      </trkpt>
      <trkpt lat="42.90593" lon="0.13155">
        <ele>1731.1</ele>
        <time>2019-08-18T11:27:11Z</time>
      </trkpt>
      <trkpt lat="42.90591" lon="0.13155">
        <ele>1731.1</ele>
        <time>2019-08-18T11:27:12Z</time>
      </trkpt>
      <trkpt lat="42.90588" lon="0.13154">
        <ele>1731.2</ele>
        <time>2019-08-18T11:27:13Z</time>
      </trkpt>
      <trkpt lat="42.90585" lon="0.13152">
        <ele>1731.2</ele>
        <time>2019-08-18T11:27:14Z</time>
      </trkpt>
      <trkpt lat="42.90583" lon="0.1315">
        <ele>1731.3</ele>
        <time>2019-08-18T11:27:15Z</time>
      </trkpt>
      <trkpt lat="42.9058" lon="0.13148">
        <ele>1731.3</ele>
        <time>2019-08-18T11:27:16Z</time>
      </trkpt>
      <trkpt lat="42.90578" lon="0.13145">
        <ele>1731.2</ele>
        <time>2019-08-18T11:27:17Z</time>
      </trkpt>
      <trkpt lat="42.90576" lon="0.13142">
        <ele>1730.9</ele>
        <time>2019-08-18T11:27:18Z</time>
      </trkpt>
      <trkpt lat="42.90574" lon="0.13139">
        <ele>1730.6</ele>
        <time>2019-08-18T11:27:19Z</time>
      </trkpt>
      <trkpt lat="42.90573" lon="0.13136">
        <ele>1730.3</ele>
        <time>2019-08-18T11:27:20Z</time>
      </trkpt>
      <trkpt lat="42.90571" lon="0.13132">
        <ele>1730</ele>
        <time>2019-08-18T11:27:21Z</time>
      </trkpt>
      <trkpt lat="42.9057" lon="0.13129">
        <ele>1729.7</ele>
        <time>2019-08-18T11:27:22Z</time>
      </trkpt>
      <trkpt lat="42.90569" lon="0.13125">
        <ele>1729.5</ele>
        <time>2019-08-18T11:27:23Z</time>
      </trkpt>
      <trkpt lat="42.90568" lon="0.13118">
        <ele>1728.8</ele>
        <time>2019-08-18T11:27:25Z</time>
      </trkpt>
      <trkpt lat="42.90568" lon="0.13112">
        <ele>1728.1</ele>
        <time>2019-08-18T11:27:27Z</time>
      </trkpt>
      <trkpt lat="42.90567" lon="0.13105">
        <ele>1727.8</ele>
        <time>2019-08-18T11:27:29Z</time>
      </trkpt>
      <trkpt lat="42.90567" lon="0.13099">
        <ele>1728.1</ele>
        <time>2019-08-18T11:27:31Z</time>
      </trkpt>
      <trkpt lat="42.90565" lon="0.13094">
        <ele>1728.4</ele>
        <time>2019-08-18T11:27:33Z</time>
      </trkpt>
      <trkpt lat="42.90564" lon="0.13088">
        <ele>1728.8</ele>
        <time>2019-08-18T11:27:35Z</time>
      </trkpt>
      <trkpt lat="42.90562" lon="0.13082">
        <ele>1729.1</ele>
        <time>2019-08-18T11:27:37Z</time>
      </trkpt>
      <trkpt lat="42.9056" lon="0.13076">
        <ele>1729.3</ele>
        <time>2019-08-18T11:27:39Z</time>
      </trkpt>
      <trkpt lat="42.90558" lon="0.13071">
        <ele>1729.6</ele>
        <time>2019-08-18T11:27:41Z</time>
      </trkpt>
      <trkpt lat="42.90556" lon="0.13066">
        <ele>1729.8</ele>
        <time>2019-08-18T11:27:43Z</time>
      </trkpt>
      <trkpt lat="42.90554" lon="0.13061">
        <ele>1729.9</ele>
        <time>2019-08-18T11:27:45Z</time>
      </trkpt>
      <trkpt lat="42.90552" lon="0.13057">
        <ele>1730</ele>
        <time>2019-08-18T11:27:47Z</time>
      </trkpt>
      <trkpt lat="42.9055" lon="0.13053">
        <ele>1730.1</ele>
        <time>2019-08-18T11:27:49Z</time>
      </trkpt>
      <trkpt lat="42.90547" lon="0.13048">
        <ele>1730.3</ele>
        <time>2019-08-18T11:27:51Z</time>
      </trkpt>
      <trkpt lat="42.90544" lon="0.13043">
        <ele>1730.3</ele>
        <time>2019-08-18T11:27:53Z</time>
      </trkpt>
      <trkpt lat="42.90541" lon="0.13039">
        <ele>1730.3</ele>
        <time>2019-08-18T11:27:55Z</time>
      </trkpt>
      <trkpt lat="42.90538" lon="0.13035">
        <ele>1730.4</ele>
        <time>2019-08-18T11:27:57Z</time>
      </trkpt>
      <trkpt lat="42.90535" lon="0.13031">
        <ele>1730.4</ele>
        <time>2019-08-18T11:27:59Z</time>
      </trkpt>
      <trkpt lat="42.90532" lon="0.13027">
        <ele>1730.4</ele>
        <time>2019-08-18T11:28:01Z</time>
      </trkpt>
      <trkpt lat="42.90529" lon="0.13023">
        <ele>1730.4</ele>
        <time>2019-08-18T11:28:03Z</time>
      </trkpt>
      <trkpt lat="42.90526" lon="0.13019">
        <ele>1730.4</ele>
        <time>2019-08-18T11:28:05Z</time>
      </trkpt>
      <trkpt lat="42.90522" lon="0.13016">
        <ele>1730.3</ele>
        <time>2019-08-18T11:28:07Z</time>
      </trkpt>
      <trkpt lat="42.90518" lon="0.13013">
        <ele>1730.4</ele>
        <time>2019-08-18T11:28:09Z</time>
      </trkpt>
      <trkpt lat="42.90514" lon="0.1301">
        <ele>1730.6</ele>
        <time>2019-08-18T11:28:11Z</time>
      </trkpt>
      <trkpt lat="42.9051" lon="0.13007">
        <ele>1730.7</ele>
        <time>2019-08-18T11:28:13Z</time>
      </trkpt>
      <trkpt lat="42.90508" lon="0.13006">
        <ele>1730.8</ele>
        <time>2019-08-18T11:28:14Z</time>
      </trkpt>
      <trkpt lat="42.90503" lon="0.13004">
        <ele>1730.9</ele>
        <time>2019-08-18T11:28:16Z</time>
      </trkpt>
      <trkpt lat="42.90498" lon="0.13002">
        <ele>1731</ele>
        <time>2019-08-18T11:28:18Z</time>
      </trkpt>
      <trkpt lat="42.90494" lon="0.13001">
        <ele>1731.1</ele>
        <time>2019-08-18T11:28:20Z</time>
      </trkpt>
      <trkpt lat="42.9049" lon="0.12999">
        <ele>1731.3</ele>
        <time>2019-08-18T11:28:22Z</time>
      </trkpt>
      <trkpt lat="42.90486" lon="0.12996">
        <ele>1731.4</ele>
        <time>2019-08-18T11:28:24Z</time>
      </trkpt>
      <trkpt lat="42.90481" lon="0.12994">
        <ele>1731.6</ele>
        <time>2019-08-18T11:28:26Z</time>
      </trkpt>
      <trkpt lat="42.90477" lon="0.12991">
        <ele>1731.8</ele>
        <time>2019-08-18T11:28:28Z</time>
      </trkpt>
      <trkpt lat="42.90473" lon="0.12988">
        <ele>1731.9</ele>
        <time>2019-08-18T11:28:30Z</time>
      </trkpt>
      <trkpt lat="42.90469" lon="0.12983">
        <ele>1732.1</ele>
        <time>2019-08-18T11:28:32Z</time>
      </trkpt>
      <trkpt lat="42.90466" lon="0.12978">
        <ele>1732.3</ele>
        <time>2019-08-18T11:28:34Z</time>
      </trkpt>
      <trkpt lat="42.90463" lon="0.12973">
        <ele>1732.5</ele>
        <time>2019-08-18T11:28:36Z</time>
      </trkpt>
      <trkpt lat="42.90461" lon="0.12969">
        <ele>1732.7</ele>
        <time>2019-08-18T11:28:38Z</time>
      </trkpt>
      <trkpt lat="42.90459" lon="0.12964">
        <ele>1732.8</ele>
        <time>2019-08-18T11:28:40Z</time>
      </trkpt>
      <trkpt lat="42.90457" lon="0.12959">
        <ele>1733</ele>
        <time>2019-08-18T11:28:42Z</time>
      </trkpt>
      <trkpt lat="42.90455" lon="0.12955">
        <ele>1733.2</ele>
        <time>2019-08-18T11:28:44Z</time>
      </trkpt>
      <trkpt lat="42.90453" lon="0.12949">
        <ele>1733.4</ele>
        <time>2019-08-18T11:28:46Z</time>
      </trkpt>
      <trkpt lat="42.9045" lon="0.12945">
        <ele>1733.6</ele>
        <time>2019-08-18T11:28:48Z</time>
      </trkpt>
      <trkpt lat="42.90448" lon="0.12941">
        <ele>1733.7</ele>
        <time>2019-08-18T11:28:50Z</time>
      </trkpt>
      <trkpt lat="42.90447" lon="0.12935">
        <ele>1733.9</ele>
        <time>2019-08-18T11:28:52Z</time>
      </trkpt>
      <trkpt lat="42.90446" lon="0.12929">
        <ele>1734.1</ele>
        <time>2019-08-18T11:28:54Z</time>
      </trkpt>
      <trkpt lat="42.90445" lon="0.12923">
        <ele>1734.3</ele>
        <time>2019-08-18T11:28:56Z</time>
      </trkpt>
      <trkpt lat="42.90444" lon="0.12917">
        <ele>1734.5</ele>
        <time>2019-08-18T11:28:58Z</time>
      </trkpt>
      <trkpt lat="42.90442" lon="0.12911">
        <ele>1734.7</ele>
        <time>2019-08-18T11:29:00Z</time>
      </trkpt>
      <trkpt lat="42.90441" lon="0.12905">
        <ele>1734.9</ele>
        <time>2019-08-18T11:29:02Z</time>
      </trkpt>
      <trkpt lat="42.9044" lon="0.12899">
        <ele>1735.1</ele>
        <time>2019-08-18T11:29:04Z</time>
      </trkpt>
      <trkpt lat="42.90439" lon="0.12894">
        <ele>1735.2</ele>
        <time>2019-08-18T11:29:06Z</time>
      </trkpt>
      <trkpt lat="42.90438" lon="0.12887">
        <ele>1735.4</ele>
        <time>2019-08-18T11:29:08Z</time>
      </trkpt>
      <trkpt lat="42.90437" lon="0.12881">
        <ele>1735.7</ele>
        <time>2019-08-18T11:29:10Z</time>
      </trkpt>
      <trkpt lat="42.90436" lon="0.12874">
        <ele>1735.9</ele>
        <time>2019-08-18T11:29:12Z</time>
      </trkpt>
      <trkpt lat="42.90434" lon="0.12868">
        <ele>1736.1</ele>
        <time>2019-08-18T11:29:14Z</time>
      </trkpt>
      <trkpt lat="42.90432" lon="0.12861">
        <ele>1736.4</ele>
        <time>2019-08-18T11:29:16Z</time>
      </trkpt>
      <trkpt lat="42.90431" lon="0.12857">
        <ele>1736.6</ele>
        <time>2019-08-18T11:29:17Z</time>
      </trkpt>
      <trkpt lat="42.9043" lon="0.12851">
        <ele>1736.9</ele>
        <time>2019-08-18T11:29:19Z</time>
      </trkpt>
      <trkpt lat="42.90428" lon="0.12844">
        <ele>1737.3</ele>
        <time>2019-08-18T11:29:21Z</time>
      </trkpt>
      <trkpt lat="42.90426" lon="0.12838">
        <ele>1737.6</ele>
        <time>2019-08-18T11:29:23Z</time>
      </trkpt>
      <trkpt lat="42.90425" lon="0.12831">
        <ele>1737.9</ele>
        <time>2019-08-18T11:29:25Z</time>
      </trkpt>
      <trkpt lat="42.90425" lon="0.12825">
        <ele>1738.2</ele>
        <time>2019-08-18T11:29:27Z</time>
      </trkpt>
      <trkpt lat="42.90425" lon="0.12818">
        <ele>1738.4</ele>
        <time>2019-08-18T11:29:29Z</time>
      </trkpt>
      <trkpt lat="42.90425" lon="0.12811">
        <ele>1738.7</ele>
        <time>2019-08-18T11:29:31Z</time>
      </trkpt>
      <trkpt lat="42.90425" lon="0.12804">
        <ele>1739</ele>
        <time>2019-08-18T11:29:33Z</time>
      </trkpt>
      <trkpt lat="42.90426" lon="0.12797">
        <ele>1739.3</ele>
        <time>2019-08-18T11:29:35Z</time>
      </trkpt>
      <trkpt lat="42.90426" lon="0.1279">
        <ele>1739.6</ele>
        <time>2019-08-18T11:29:37Z</time>
      </trkpt>
      <trkpt lat="42.90426" lon="0.12783">
        <ele>1739.9</ele>
        <time>2019-08-18T11:29:39Z</time>
      </trkpt>
      <trkpt lat="42.90426" lon="0.12777">
        <ele>1740.2</ele>
        <time>2019-08-18T11:29:41Z</time>
      </trkpt>
      <trkpt lat="42.90425" lon="0.1277">
        <ele>1740.5</ele>
        <time>2019-08-18T11:29:43Z</time>
      </trkpt>
      <trkpt lat="42.90425" lon="0.12763">
        <ele>1740.8</ele>
        <time>2019-08-18T11:29:45Z</time>
      </trkpt>
      <trkpt lat="42.90424" lon="0.12757">
        <ele>1741.1</ele>
        <time>2019-08-18T11:29:47Z</time>
      </trkpt>
      <trkpt lat="42.90423" lon="0.12753">
        <ele>1741.2</ele>
        <time>2019-08-18T11:29:48Z</time>
      </trkpt>
      <trkpt lat="42.90421" lon="0.12747">
        <ele>1741.6</ele>
        <time>2019-08-18T11:29:50Z</time>
      </trkpt>
      <trkpt lat="42.90419" lon="0.1274">
        <ele>1741.9</ele>
        <time>2019-08-18T11:29:52Z</time>
      </trkpt>
      <trkpt lat="42.90417" lon="0.12737">
        <ele>1742</ele>
        <time>2019-08-18T11:29:53Z</time>
      </trkpt>
      <trkpt lat="42.90416" lon="0.12734">
        <ele>1742.2</ele>
        <time>2019-08-18T11:29:54Z</time>
      </trkpt>
      <trkpt lat="42.90413" lon="0.12728">
        <ele>1742.6</ele>
        <time>2019-08-18T11:29:56Z</time>
      </trkpt>
      <trkpt lat="42.90411" lon="0.12722">
        <ele>1742.9</ele>
        <time>2019-08-18T11:29:58Z</time>
      </trkpt>
      <trkpt lat="42.90409" lon="0.12715">
        <ele>1743.3</ele>
        <time>2019-08-18T11:30:00Z</time>
      </trkpt>
      <trkpt lat="42.90408" lon="0.12709">
        <ele>1743.7</ele>
        <time>2019-08-18T11:30:02Z</time>
      </trkpt>
      <trkpt lat="42.90408" lon="0.12702">
        <ele>1744.1</ele>
        <time>2019-08-18T11:30:04Z</time>
      </trkpt>
      <trkpt lat="42.90408" lon="0.12698">
        <ele>1744.4</ele>
        <time>2019-08-18T11:30:05Z</time>
      </trkpt>
      <trkpt lat="42.9041" lon="0.12691">
        <ele>1744.7</ele>
        <time>2019-08-18T11:30:07Z</time>
      </trkpt>
      <trkpt lat="42.90411" lon="0.12685">
        <ele>1745.1</ele>
        <time>2019-08-18T11:30:09Z</time>
      </trkpt>
      <trkpt lat="42.90413" lon="0.1268">
        <ele>1745.5</ele>
        <time>2019-08-18T11:30:11Z</time>
      </trkpt>
      <trkpt lat="42.90414" lon="0.12674">
        <ele>1745.9</ele>
        <time>2019-08-18T11:30:13Z</time>
      </trkpt>
      <trkpt lat="42.90415" lon="0.12668">
        <ele>1746.2</ele>
        <time>2019-08-18T11:30:15Z</time>
      </trkpt>
      <trkpt lat="42.90415" lon="0.12662">
        <ele>1746.6</ele>
        <time>2019-08-18T11:30:17Z</time>
      </trkpt>
      <trkpt lat="42.90414" lon="0.12656">
        <ele>1747</ele>
        <time>2019-08-18T11:30:19Z</time>
      </trkpt>
      <trkpt lat="42.90412" lon="0.12651">
        <ele>1747.4</ele>
        <time>2019-08-18T11:30:21Z</time>
      </trkpt>
      <trkpt lat="42.90409" lon="0.12646">
        <ele>1747.8</ele>
        <time>2019-08-18T11:30:23Z</time>
      </trkpt>
      <trkpt lat="42.90406" lon="0.12642">
        <ele>1748.5</ele>
        <time>2019-08-18T11:30:25Z</time>
      </trkpt>
      <trkpt lat="42.90402" lon="0.12639">
        <ele>1749.2</ele>
        <time>2019-08-18T11:30:27Z</time>
      </trkpt>
      <trkpt lat="42.90396" lon="0.12639">
        <ele>1750</ele>
        <time>2019-08-18T11:30:29Z</time>
      </trkpt>
      <trkpt lat="42.90394" lon="0.1264">
        <ele>1750.4</ele>
        <time>2019-08-18T11:30:30Z</time>
      </trkpt>
      <trkpt lat="42.90389" lon="0.12644">
        <ele>1751</ele>
        <time>2019-08-18T11:30:32Z</time>
      </trkpt>
      <trkpt lat="42.90386" lon="0.12649">
        <ele>1751.8</ele>
        <time>2019-08-18T11:30:34Z</time>
      </trkpt>
      <trkpt lat="42.90383" lon="0.12654">
        <ele>1752.8</ele>
        <time>2019-08-18T11:30:36Z</time>
      </trkpt>
      <trkpt lat="42.9038" lon="0.12659">
        <ele>1753.8</ele>
        <time>2019-08-18T11:30:38Z</time>
      </trkpt>
      <trkpt lat="42.90378" lon="0.12665">
        <ele>1755</ele>
        <time>2019-08-18T11:30:40Z</time>
      </trkpt>
      <trkpt lat="42.90375" lon="0.12671">
        <ele>1756.1</ele>
        <time>2019-08-18T11:30:42Z</time>
      </trkpt>
      <trkpt lat="42.90374" lon="0.12677">
        <ele>1757.2</ele>
        <time>2019-08-18T11:30:44Z</time>
      </trkpt>
      <trkpt lat="42.90373" lon="0.12684">
        <ele>1758.3</ele>
        <time>2019-08-18T11:30:46Z</time>
      </trkpt>
      <trkpt lat="42.90373" lon="0.1269">
        <ele>1759.2</ele>
        <time>2019-08-18T11:30:48Z</time>
      </trkpt>
      <trkpt lat="42.90373" lon="0.12696">
        <ele>1760.1</ele>
        <time>2019-08-18T11:30:50Z</time>
      </trkpt>
      <trkpt lat="42.90372" lon="0.12702">
        <ele>1761.1</ele>
        <time>2019-08-18T11:30:52Z</time>
      </trkpt>
      <trkpt lat="42.90371" lon="0.12709">
        <ele>1762.1</ele>
        <time>2019-08-18T11:30:54Z</time>
      </trkpt>
      <trkpt lat="42.90372" lon="0.12715">
        <ele>1762.9</ele>
        <time>2019-08-18T11:30:56Z</time>
      </trkpt>
      <trkpt lat="42.90372" lon="0.12721">
        <ele>1763.7</ele>
        <time>2019-08-18T11:30:58Z</time>
      </trkpt>
      <trkpt lat="42.90373" lon="0.12727">
        <ele>1764.4</ele>
        <time>2019-08-18T11:31:00Z</time>
      </trkpt>
      <trkpt lat="42.90373" lon="0.12733">
        <ele>1765.1</ele>
        <time>2019-08-18T11:31:02Z</time>
      </trkpt>
      <trkpt lat="42.90371" lon="0.12739">
        <ele>1765.6</ele>
        <time>2019-08-18T11:31:04Z</time>
      </trkpt>
      <trkpt lat="42.90371" lon="0.12745">
        <ele>1766.1</ele>
        <time>2019-08-18T11:31:06Z</time>
      </trkpt>
      <trkpt lat="42.9037" lon="0.12751">
        <ele>1766.7</ele>
        <time>2019-08-18T11:31:08Z</time>
      </trkpt>
      <trkpt lat="42.90369" lon="0.12757">
        <ele>1767.6</ele>
        <time>2019-08-18T11:31:10Z</time>
      </trkpt>
      <trkpt lat="42.90367" lon="0.12763">
        <ele>1768.3</ele>
        <time>2019-08-18T11:31:12Z</time>
      </trkpt>
      <trkpt lat="42.90365" lon="0.12769">
        <ele>1769.2</ele>
        <time>2019-08-18T11:31:14Z</time>
      </trkpt>
      <trkpt lat="42.90363" lon="0.12775">
        <ele>1770.1</ele>
        <time>2019-08-18T11:31:16Z</time>
      </trkpt>
      <trkpt lat="42.90361" lon="0.12781">
        <ele>1771</ele>
        <time>2019-08-18T11:31:18Z</time>
      </trkpt>
      <trkpt lat="42.90359" lon="0.12787">
        <ele>1771.8</ele>
        <time>2019-08-18T11:31:20Z</time>
      </trkpt>
      <trkpt lat="42.90358" lon="0.12794">
        <ele>1772.6</ele>
        <time>2019-08-18T11:31:22Z</time>
      </trkpt>
      <trkpt lat="42.90357" lon="0.128">
        <ele>1773.3</ele>
        <time>2019-08-18T11:31:24Z</time>
      </trkpt>
      <trkpt lat="42.90358" lon="0.12806">
        <ele>1774</ele>
        <time>2019-08-18T11:31:26Z</time>
      </trkpt>
      <trkpt lat="42.90359" lon="0.12812">
        <ele>1774.6</ele>
        <time>2019-08-18T11:31:28Z</time>
      </trkpt>
      <trkpt lat="42.90361" lon="0.12817">
        <ele>1775.2</ele>
        <time>2019-08-18T11:31:30Z</time>
      </trkpt>
      <trkpt lat="42.90363" lon="0.12822">
        <ele>1775.8</ele>
        <time>2019-08-18T11:31:32Z</time>
      </trkpt>
      <trkpt lat="42.90364" lon="0.12828">
        <ele>1776.5</ele>
        <time>2019-08-18T11:31:34Z</time>
      </trkpt>
      <trkpt lat="42.90366" lon="0.12833">
        <ele>1777.3</ele>
        <time>2019-08-18T11:31:36Z</time>
      </trkpt>
      <trkpt lat="42.90367" lon="0.12839">
        <ele>1778</ele>
        <time>2019-08-18T11:31:38Z</time>
      </trkpt>
      <trkpt lat="42.90369" lon="0.12844">
        <ele>1778.6</ele>
        <time>2019-08-18T11:31:40Z</time>
      </trkpt>
      <trkpt lat="42.90371" lon="0.12849">
        <ele>1779.2</ele>
        <time>2019-08-18T11:31:42Z</time>
      </trkpt>
      <trkpt lat="42.90373" lon="0.12854">
        <ele>1780</ele>
        <time>2019-08-18T11:31:44Z</time>
      </trkpt>
      <trkpt lat="42.90375" lon="0.12859">
        <ele>1780.8</ele>
        <time>2019-08-18T11:31:46Z</time>
      </trkpt>
      <trkpt lat="42.90378" lon="0.12865">
        <ele>1781.7</ele>
        <time>2019-08-18T11:31:48Z</time>
      </trkpt>
      <trkpt lat="42.90379" lon="0.12871">
        <ele>1782.5</ele>
        <time>2019-08-18T11:31:50Z</time>
      </trkpt>
      <trkpt lat="42.90381" lon="0.12876">
        <ele>1783.1</ele>
        <time>2019-08-18T11:31:52Z</time>
      </trkpt>
      <trkpt lat="42.90382" lon="0.12883">
        <ele>1783.7</ele>
        <time>2019-08-18T11:31:54Z</time>
      </trkpt>
      <trkpt lat="42.90382" lon="0.12889">
        <ele>1784.3</ele>
        <time>2019-08-18T11:31:56Z</time>
      </trkpt>
      <trkpt lat="42.90381" lon="0.12895">
        <ele>1784.9</ele>
        <time>2019-08-18T11:31:58Z</time>
      </trkpt>
      <trkpt lat="42.9038" lon="0.12902">
        <ele>1785.6</ele>
        <time>2019-08-18T11:32:00Z</time>
      </trkpt>
      <trkpt lat="42.9038" lon="0.12908">
        <ele>1786.2</ele>
        <time>2019-08-18T11:32:02Z</time>
      </trkpt>
      <trkpt lat="42.90378" lon="0.12914">
        <ele>1786.7</ele>
        <time>2019-08-18T11:32:04Z</time>
      </trkpt>
      <trkpt lat="42.90378" lon="0.12919">
        <ele>1787.3</ele>
        <time>2019-08-18T11:32:06Z</time>
      </trkpt>
      <trkpt lat="42.90378" lon="0.12926">
        <ele>1787.9</ele>
        <time>2019-08-18T11:32:08Z</time>
      </trkpt>
      <trkpt lat="42.90378" lon="0.12932">
        <ele>1788.5</ele>
        <time>2019-08-18T11:32:10Z</time>
      </trkpt>
      <trkpt lat="42.90377" lon="0.12938">
        <ele>1789.2</ele>
        <time>2019-08-18T11:32:12Z</time>
      </trkpt>
      <trkpt lat="42.90375" lon="0.12944">
        <ele>1789.7</ele>
        <time>2019-08-18T11:32:14Z</time>
      </trkpt>
      <trkpt lat="42.90373" lon="0.12949">
        <ele>1790.3</ele>
        <time>2019-08-18T11:32:16Z</time>
      </trkpt>
      <trkpt lat="42.90371" lon="0.12953">
        <ele>1790.7</ele>
        <time>2019-08-18T11:32:18Z</time>
      </trkpt>
      <trkpt lat="42.90369" lon="0.12958">
        <ele>1791.3</ele>
        <time>2019-08-18T11:32:20Z</time>
      </trkpt>
      <trkpt lat="42.90367" lon="0.12964">
        <ele>1791.9</ele>
        <time>2019-08-18T11:32:22Z</time>
      </trkpt>
      <trkpt lat="42.90365" lon="0.12969">
        <ele>1792.5</ele>
        <time>2019-08-18T11:32:24Z</time>
      </trkpt>
      <trkpt lat="42.90362" lon="0.12975">
        <ele>1793.1</ele>
        <time>2019-08-18T11:32:26Z</time>
      </trkpt>
      <trkpt lat="42.9036" lon="0.1298">
        <ele>1793.7</ele>
        <time>2019-08-18T11:32:28Z</time>
      </trkpt>
      <trkpt lat="42.90358" lon="0.12985">
        <ele>1794.3</ele>
        <time>2019-08-18T11:32:30Z</time>
      </trkpt>
      <trkpt lat="42.90356" lon="0.12991">
        <ele>1794.8</ele>
        <time>2019-08-18T11:32:32Z</time>
      </trkpt>
      <trkpt lat="42.90354" lon="0.12996">
        <ele>1795.3</ele>
        <time>2019-08-18T11:32:34Z</time>
      </trkpt>
      <trkpt lat="42.90353" lon="0.13002">
        <ele>1795.8</ele>
        <time>2019-08-18T11:32:36Z</time>
      </trkpt>
      <trkpt lat="42.90351" lon="0.13007">
        <ele>1796.2</ele>
        <time>2019-08-18T11:32:38Z</time>
      </trkpt>
      <trkpt lat="42.90351" lon="0.13012">
        <ele>1796.7</ele>
        <time>2019-08-18T11:32:40Z</time>
      </trkpt>
      <trkpt lat="42.9035" lon="0.13018">
        <ele>1797.3</ele>
        <time>2019-08-18T11:32:42Z</time>
      </trkpt>
      <trkpt lat="42.90349" lon="0.13024">
        <ele>1797.8</ele>
        <time>2019-08-18T11:32:44Z</time>
      </trkpt>
      <trkpt lat="42.90347" lon="0.13029">
        <ele>1798.3</ele>
        <time>2019-08-18T11:32:46Z</time>
      </trkpt>
      <trkpt lat="42.90346" lon="0.13035">
        <ele>1798.8</ele>
        <time>2019-08-18T11:32:48Z</time>
      </trkpt>
      <trkpt lat="42.90344" lon="0.13041">
        <ele>1799.4</ele>
        <time>2019-08-18T11:32:50Z</time>
      </trkpt>
      <trkpt lat="42.90342" lon="0.13047">
        <ele>1800.1</ele>
        <time>2019-08-18T11:32:52Z</time>
      </trkpt>
      <trkpt lat="42.9034" lon="0.13053">
        <ele>1800.7</ele>
        <time>2019-08-18T11:32:54Z</time>
      </trkpt>
      <trkpt lat="42.90339" lon="0.13059">
        <ele>1801.3</ele>
        <time>2019-08-18T11:32:56Z</time>
      </trkpt>
      <trkpt lat="42.90337" lon="0.13064">
        <ele>1802</ele>
        <time>2019-08-18T11:32:58Z</time>
      </trkpt>
      <trkpt lat="42.90334" lon="0.13069">
        <ele>1802.6</ele>
        <time>2019-08-18T11:33:00Z</time>
      </trkpt>
      <trkpt lat="42.90333" lon="0.13075">
        <ele>1803.3</ele>
        <time>2019-08-18T11:33:02Z</time>
      </trkpt>
      <trkpt lat="42.90332" lon="0.13081">
        <ele>1803.9</ele>
        <time>2019-08-18T11:33:04Z</time>
      </trkpt>
      <trkpt lat="42.90331" lon="0.13087">
        <ele>1804.5</ele>
        <time>2019-08-18T11:33:06Z</time>
      </trkpt>
      <trkpt lat="42.90331" lon="0.13093">
        <ele>1805.2</ele>
        <time>2019-08-18T11:33:08Z</time>
      </trkpt>
      <trkpt lat="42.90332" lon="0.13098">
        <ele>1805.9</ele>
        <time>2019-08-18T11:33:10Z</time>
      </trkpt>
      <trkpt lat="42.90333" lon="0.13104">
        <ele>1806.7</ele>
        <time>2019-08-18T11:33:12Z</time>
      </trkpt>
      <trkpt lat="42.90334" lon="0.1311">
        <ele>1807.5</ele>
        <time>2019-08-18T11:33:14Z</time>
      </trkpt>
      <trkpt lat="42.90335" lon="0.13116">
        <ele>1808.3</ele>
        <time>2019-08-18T11:33:16Z</time>
      </trkpt>
      <trkpt lat="42.90336" lon="0.13121">
        <ele>1809</ele>
        <time>2019-08-18T11:33:18Z</time>
      </trkpt>
      <trkpt lat="42.90335" lon="0.13127">
        <ele>1809.8</ele>
        <time>2019-08-18T11:33:20Z</time>
      </trkpt>
      <trkpt lat="42.90333" lon="0.13133">
        <ele>1810.6</ele>
        <time>2019-08-18T11:33:22Z</time>
      </trkpt>
      <trkpt lat="42.90331" lon="0.13138">
        <ele>1811.3</ele>
        <time>2019-08-18T11:33:24Z</time>
      </trkpt>
      <trkpt lat="42.90329" lon="0.13142">
        <ele>1811.9</ele>
        <time>2019-08-18T11:33:26Z</time>
      </trkpt>
      <trkpt lat="42.90326" lon="0.13146">
        <ele>1812.5</ele>
        <time>2019-08-18T11:33:28Z</time>
      </trkpt>
      <trkpt lat="42.90322" lon="0.1315">
        <ele>1813.1</ele>
        <time>2019-08-18T11:33:30Z</time>
      </trkpt>
      <trkpt lat="42.90318" lon="0.13153">
        <ele>1813.7</ele>
        <time>2019-08-18T11:33:32Z</time>
      </trkpt>
      <trkpt lat="42.90314" lon="0.13158">
        <ele>1814.4</ele>
        <time>2019-08-18T11:33:34Z</time>
      </trkpt>
      <trkpt lat="42.9031" lon="0.13162">
        <ele>1815</ele>
        <time>2019-08-18T11:33:36Z</time>
      </trkpt>
      <trkpt lat="42.90307" lon="0.13165">
        <ele>1815.5</ele>
        <time>2019-08-18T11:33:38Z</time>
      </trkpt>
      <trkpt lat="42.90304" lon="0.13168">
        <ele>1816</ele>
        <time>2019-08-18T11:33:40Z</time>
      </trkpt>
      <trkpt lat="42.903" lon="0.13172">
        <ele>1816.6</ele>
        <time>2019-08-18T11:33:42Z</time>
      </trkpt>
      <trkpt lat="42.90297" lon="0.13175">
        <ele>1817.1</ele>
        <time>2019-08-18T11:33:44Z</time>
      </trkpt>
      <trkpt lat="42.90293" lon="0.1318">
        <ele>1817.8</ele>
        <time>2019-08-18T11:33:46Z</time>
      </trkpt>
      <trkpt lat="42.9029" lon="0.13184">
        <ele>1818.3</ele>
        <time>2019-08-18T11:33:48Z</time>
      </trkpt>
      <trkpt lat="42.90288" lon="0.13189">
        <ele>1818.9</ele>
        <time>2019-08-18T11:33:50Z</time>
      </trkpt>
      <trkpt lat="42.90285" lon="0.13194">
        <ele>1819.4</ele>
        <time>2019-08-18T11:33:52Z</time>
      </trkpt>
      <trkpt lat="42.90282" lon="0.13199">
        <ele>1820</ele>
        <time>2019-08-18T11:33:54Z</time>
      </trkpt>
      <trkpt lat="42.9028" lon="0.13203">
        <ele>1820.4</ele>
        <time>2019-08-18T11:33:56Z</time>
      </trkpt>
      <trkpt lat="42.90277" lon="0.13208">
        <ele>1820.8</ele>
        <time>2019-08-18T11:33:58Z</time>
      </trkpt>
      <trkpt lat="42.90274" lon="0.13212">
        <ele>1821.3</ele>
        <time>2019-08-18T11:34:00Z</time>
      </trkpt>
      <trkpt lat="42.9027" lon="0.13215">
        <ele>1821.7</ele>
        <time>2019-08-18T11:34:02Z</time>
      </trkpt>
      <trkpt lat="42.90267" lon="0.13218">
        <ele>1822.1</ele>
        <time>2019-08-18T11:34:04Z</time>
      </trkpt>
      <trkpt lat="42.90262" lon="0.13221">
        <ele>1822.6</ele>
        <time>2019-08-18T11:34:06Z</time>
      </trkpt>
      <trkpt lat="42.90258" lon="0.13222">
        <ele>1823.2</ele>
        <time>2019-08-18T11:34:08Z</time>
      </trkpt>
      <trkpt lat="42.90253" lon="0.13224">
        <ele>1823.6</ele>
        <time>2019-08-18T11:34:10Z</time>
      </trkpt>
      <trkpt lat="42.90249" lon="0.13225">
        <ele>1824</ele>
        <time>2019-08-18T11:34:12Z</time>
      </trkpt>
      <trkpt lat="42.90245" lon="0.13227">
        <ele>1824.5</ele>
        <time>2019-08-18T11:34:14Z</time>
      </trkpt>
      <trkpt lat="42.90241" lon="0.13228">
        <ele>1824.9</ele>
        <time>2019-08-18T11:34:16Z</time>
      </trkpt>
      <trkpt lat="42.90237" lon="0.13229">
        <ele>1825.3</ele>
        <time>2019-08-18T11:34:18Z</time>
      </trkpt>
      <trkpt lat="42.90233" lon="0.1323">
        <ele>1825.7</ele>
        <time>2019-08-18T11:34:20Z</time>
      </trkpt>
      <trkpt lat="42.90229" lon="0.13231">
        <ele>1826.2</ele>
        <time>2019-08-18T11:34:22Z</time>
      </trkpt>
      <trkpt lat="42.90225" lon="0.13232">
        <ele>1826.6</ele>
        <time>2019-08-18T11:34:25Z</time>
      </trkpt>
      <trkpt lat="42.90222" lon="0.13232">
        <ele>1826.9</ele>
        <time>2019-08-18T11:34:27Z</time>
      </trkpt>
      <trkpt lat="42.90218" lon="0.13232">
        <ele>1827.2</ele>
        <time>2019-08-18T11:34:29Z</time>
      </trkpt>
      <trkpt lat="42.90215" lon="0.13233">
        <ele>1827.5</ele>
        <time>2019-08-18T11:34:31Z</time>
      </trkpt>
      <trkpt lat="42.90211" lon="0.13233">
        <ele>1827.9</ele>
        <time>2019-08-18T11:34:33Z</time>
      </trkpt>
      <trkpt lat="42.90206" lon="0.13233">
        <ele>1828.2</ele>
        <time>2019-08-18T11:34:35Z</time>
      </trkpt>
      <trkpt lat="42.90202" lon="0.13234">
        <ele>1828.6</ele>
        <time>2019-08-18T11:34:37Z</time>
      </trkpt>
      <trkpt lat="42.90198" lon="0.13236">
        <ele>1829</ele>
        <time>2019-08-18T11:34:39Z</time>
      </trkpt>
      <trkpt lat="42.90193" lon="0.1324">
        <ele>1829.4</ele>
        <time>2019-08-18T11:34:41Z</time>
      </trkpt>
      <trkpt lat="42.9019" lon="0.13245">
        <ele>1829.9</ele>
        <time>2019-08-18T11:34:43Z</time>
      </trkpt>
      <trkpt lat="42.90187" lon="0.13251">
        <ele>1830.3</ele>
        <time>2019-08-18T11:34:45Z</time>
      </trkpt>
      <trkpt lat="42.90186" lon="0.13257">
        <ele>1830.7</ele>
        <time>2019-08-18T11:34:47Z</time>
      </trkpt>
      <trkpt lat="42.90186" lon="0.13264">
        <ele>1831</ele>
        <time>2019-08-18T11:34:49Z</time>
      </trkpt>
      <trkpt lat="42.90187" lon="0.1327">
        <ele>1831.3</ele>
        <time>2019-08-18T11:34:51Z</time>
      </trkpt>
      <trkpt lat="42.90188" lon="0.13275">
        <ele>1831.6</ele>
        <time>2019-08-18T11:34:53Z</time>
      </trkpt>
      <trkpt lat="42.9019" lon="0.13281">
        <ele>1831.8</ele>
        <time>2019-08-18T11:34:55Z</time>
      </trkpt>
      <trkpt lat="42.90193" lon="0.13286">
        <ele>1832.1</ele>
        <time>2019-08-18T11:34:57Z</time>
      </trkpt>
      <trkpt lat="42.90195" lon="0.13291">
        <ele>1832.4</ele>
        <time>2019-08-18T11:34:59Z</time>
      </trkpt>
      <trkpt lat="42.90198" lon="0.13296">
        <ele>1832.6</ele>
        <time>2019-08-18T11:35:01Z</time>
      </trkpt>
      <trkpt lat="42.902" lon="0.13301">
        <ele>1832.9</ele>
        <time>2019-08-18T11:35:03Z</time>
      </trkpt>
      <trkpt lat="42.90203" lon="0.13307">
        <ele>1833.2</ele>
        <time>2019-08-18T11:35:05Z</time>
      </trkpt>
      <trkpt lat="42.90204" lon="0.13312">
        <ele>1833.4</ele>
        <time>2019-08-18T11:35:07Z</time>
      </trkpt>
      <trkpt lat="42.90206" lon="0.13318">
        <ele>1833.7</ele>
        <time>2019-08-18T11:35:09Z</time>
      </trkpt>
      <trkpt lat="42.90208" lon="0.13323">
        <ele>1833.9</ele>
        <time>2019-08-18T11:35:11Z</time>
      </trkpt>
      <trkpt lat="42.9021" lon="0.13329">
        <ele>1834.2</ele>
        <time>2019-08-18T11:35:13Z</time>
      </trkpt>
      <trkpt lat="42.90212" lon="0.13334">
        <ele>1834.5</ele>
        <time>2019-08-18T11:35:15Z</time>
      </trkpt>
      <trkpt lat="42.90212" lon="0.1334">
        <ele>1834.7</ele>
        <time>2019-08-18T11:35:17Z</time>
      </trkpt>
      <trkpt lat="42.90212" lon="0.13347">
        <ele>1834.9</ele>
        <time>2019-08-18T11:35:19Z</time>
      </trkpt>
      <trkpt lat="42.90212" lon="0.13352">
        <ele>1835.1</ele>
        <time>2019-08-18T11:35:21Z</time>
      </trkpt>
      <trkpt lat="42.90213" lon="0.13357">
        <ele>1835.4</ele>
        <time>2019-08-18T11:35:23Z</time>
      </trkpt>
      <trkpt lat="42.90213" lon="0.13362">
        <ele>1835.6</ele>
        <time>2019-08-18T11:35:25Z</time>
      </trkpt>
      <trkpt lat="42.90215" lon="0.13368">
        <ele>1835.9</ele>
        <time>2019-08-18T11:35:27Z</time>
      </trkpt>
      <trkpt lat="42.90215" lon="0.13374">
        <ele>1836.1</ele>
        <time>2019-08-18T11:35:29Z</time>
      </trkpt>
      <trkpt lat="42.90215" lon="0.1338">
        <ele>1836.4</ele>
        <time>2019-08-18T11:35:31Z</time>
      </trkpt>
      <trkpt lat="42.90216" lon="0.13386">
        <ele>1836.6</ele>
        <time>2019-08-18T11:35:33Z</time>
      </trkpt>
      <trkpt lat="42.90218" lon="0.13391">
        <ele>1836.8</ele>
        <time>2019-08-18T11:35:35Z</time>
      </trkpt>
      <trkpt lat="42.90221" lon="0.13396">
        <ele>1837</ele>
        <time>2019-08-18T11:35:37Z</time>
      </trkpt>
      <trkpt lat="42.90225" lon="0.13401">
        <ele>1837.3</ele>
        <time>2019-08-18T11:35:39Z</time>
      </trkpt>
      <trkpt lat="42.90229" lon="0.13405">
        <ele>1837.5</ele>
        <time>2019-08-18T11:35:41Z</time>
      </trkpt>
      <trkpt lat="42.90232" lon="0.13406">
        <ele>1837.7</ele>
        <time>2019-08-18T11:35:42Z</time>
      </trkpt>
      <trkpt lat="42.90234" lon="0.13407">
        <ele>1837.9</ele>
        <time>2019-08-18T11:35:43Z</time>
      </trkpt>
      <trkpt lat="42.90237" lon="0.13408">
        <ele>1838</ele>
        <time>2019-08-18T11:35:44Z</time>
      </trkpt>
      <trkpt lat="42.9024" lon="0.13409">
        <ele>1838.2</ele>
        <time>2019-08-18T11:35:45Z</time>
      </trkpt>
      <trkpt lat="42.90245" lon="0.1341">
        <ele>1838.5</ele>
        <time>2019-08-18T11:35:47Z</time>
      </trkpt>
      <trkpt lat="42.90247" lon="0.13411">
        <ele>1838.7</ele>
        <time>2019-08-18T11:35:48Z</time>
      </trkpt>
      <trkpt lat="42.90252" lon="0.13411">
        <ele>1839</ele>
        <time>2019-08-18T11:35:50Z</time>
      </trkpt>
      <trkpt lat="42.90257" lon="0.13413">
        <ele>1839.3</ele>
        <time>2019-08-18T11:35:52Z</time>
      </trkpt>
      <trkpt lat="42.90261" lon="0.13415">
        <ele>1839.7</ele>
        <time>2019-08-18T11:35:54Z</time>
      </trkpt>
      <trkpt lat="42.90264" lon="0.13418">
        <ele>1839.9</ele>
        <time>2019-08-18T11:35:56Z</time>
      </trkpt>
      <trkpt lat="42.90266" lon="0.13422">
        <ele>1840.2</ele>
        <time>2019-08-18T11:35:58Z</time>
      </trkpt>
      <trkpt lat="42.90269" lon="0.13425">
        <ele>1840.5</ele>
        <time>2019-08-18T11:36:00Z</time>
      </trkpt>
      <trkpt lat="42.9027" lon="0.1343">
        <ele>1840.8</ele>
        <time>2019-08-18T11:36:02Z</time>
      </trkpt>
      <trkpt lat="42.90272" lon="0.13435">
        <ele>1841.1</ele>
        <time>2019-08-18T11:36:04Z</time>
      </trkpt>
      <trkpt lat="42.90274" lon="0.13439">
        <ele>1841.4</ele>
        <time>2019-08-18T11:36:06Z</time>
      </trkpt>
      <trkpt lat="42.90275" lon="0.13444">
        <ele>1841.7</ele>
        <time>2019-08-18T11:36:08Z</time>
      </trkpt>
      <trkpt lat="42.90277" lon="0.13449">
        <ele>1842</ele>
        <time>2019-08-18T11:36:10Z</time>
      </trkpt>
      <trkpt lat="42.90278" lon="0.13455">
        <ele>1842.3</ele>
        <time>2019-08-18T11:36:12Z</time>
      </trkpt>
      <trkpt lat="42.90279" lon="0.13461">
        <ele>1842.7</ele>
        <time>2019-08-18T11:36:14Z</time>
      </trkpt>
      <trkpt lat="42.90278" lon="0.13466">
        <ele>1843</ele>
        <time>2019-08-18T11:36:16Z</time>
      </trkpt>
      <trkpt lat="42.90278" lon="0.13472">
        <ele>1843.3</ele>
        <time>2019-08-18T11:36:18Z</time>
      </trkpt>
      <trkpt lat="42.90277" lon="0.13478">
        <ele>1843.6</ele>
        <time>2019-08-18T11:36:20Z</time>
      </trkpt>
      <trkpt lat="42.90276" lon="0.13484">
        <ele>1844</ele>
        <time>2019-08-18T11:36:22Z</time>
      </trkpt>
      <trkpt lat="42.90275" lon="0.1349">
        <ele>1844.3</ele>
        <time>2019-08-18T11:36:24Z</time>
      </trkpt>
      <trkpt lat="42.90273" lon="0.13496">
        <ele>1844.6</ele>
        <time>2019-08-18T11:36:26Z</time>
      </trkpt>
      <trkpt lat="42.90271" lon="0.13501">
        <ele>1845</ele>
        <time>2019-08-18T11:36:28Z</time>
      </trkpt>
      <trkpt lat="42.90269" lon="0.13507">
        <ele>1845.3</ele>
        <time>2019-08-18T11:36:30Z</time>
      </trkpt>
      <trkpt lat="42.90269" lon="0.13512">
        <ele>1845.6</ele>
        <time>2019-08-18T11:36:32Z</time>
      </trkpt>
      <trkpt lat="42.90269" lon="0.13518">
        <ele>1845.9</ele>
        <time>2019-08-18T11:36:34Z</time>
      </trkpt>
      <trkpt lat="42.90269" lon="0.13524">
        <ele>1846.2</ele>
        <time>2019-08-18T11:36:36Z</time>
      </trkpt>
      <trkpt lat="42.90271" lon="0.1353">
        <ele>1846.5</ele>
        <time>2019-08-18T11:36:38Z</time>
      </trkpt>
      <trkpt lat="42.90273" lon="0.13536">
        <ele>1846.8</ele>
        <time>2019-08-18T11:36:40Z</time>
      </trkpt>
      <trkpt lat="42.90274" lon="0.13542">
        <ele>1847.2</ele>
        <time>2019-08-18T11:36:42Z</time>
      </trkpt>
      <trkpt lat="42.90276" lon="0.13547">
        <ele>1847.5</ele>
        <time>2019-08-18T11:36:44Z</time>
      </trkpt>
      <trkpt lat="42.90277" lon="0.13552">
        <ele>1847.7</ele>
        <time>2019-08-18T11:36:46Z</time>
      </trkpt>
      <trkpt lat="42.90278" lon="0.13559">
        <ele>1848</ele>
        <time>2019-08-18T11:36:48Z</time>
      </trkpt>
      <trkpt lat="42.90279" lon="0.13565">
        <ele>1848.3</ele>
        <time>2019-08-18T11:36:50Z</time>
      </trkpt>
      <trkpt lat="42.9028" lon="0.1357">
        <ele>1848.6</ele>
        <time>2019-08-18T11:36:52Z</time>
      </trkpt>
      <trkpt lat="42.90281" lon="0.13575">
        <ele>1848.8</ele>
        <time>2019-08-18T11:36:54Z</time>
      </trkpt>
      <trkpt lat="42.90281" lon="0.13581">
        <ele>1849</ele>
        <time>2019-08-18T11:36:56Z</time>
      </trkpt>
      <trkpt lat="42.90282" lon="0.13586">
        <ele>1849.2</ele>
        <time>2019-08-18T11:36:58Z</time>
      </trkpt>
      <trkpt lat="42.90283" lon="0.13591">
        <ele>1849.5</ele>
        <time>2019-08-18T11:37:00Z</time>
      </trkpt>
      <trkpt lat="42.90283" lon="0.13597">
        <ele>1849.7</ele>
        <time>2019-08-18T11:37:02Z</time>
      </trkpt>
      <trkpt lat="42.90285" lon="0.13603">
        <ele>1849.9</ele>
        <time>2019-08-18T11:37:04Z</time>
      </trkpt>
      <trkpt lat="42.90287" lon="0.13608">
        <ele>1850.1</ele>
        <time>2019-08-18T11:37:06Z</time>
      </trkpt>
      <trkpt lat="42.90292" lon="0.13611">
        <ele>1850.3</ele>
        <time>2019-08-18T11:37:08Z</time>
      </trkpt>
      <trkpt lat="42.90297" lon="0.13612">
        <ele>1850.5</ele>
        <time>2019-08-18T11:37:10Z</time>
      </trkpt>
      <trkpt lat="42.90302" lon="0.13612">
        <ele>1850.7</ele>
        <time>2019-08-18T11:37:12Z</time>
      </trkpt>
      <trkpt lat="42.90305" lon="0.13612">
        <ele>1850.8</ele>
        <time>2019-08-18T11:37:13Z</time>
      </trkpt>
      <trkpt lat="42.90309" lon="0.13612">
        <ele>1851</ele>
        <time>2019-08-18T11:37:15Z</time>
      </trkpt>
      <trkpt lat="42.90314" lon="0.13612">
        <ele>1851.2</ele>
        <time>2019-08-18T11:37:17Z</time>
      </trkpt>
      <trkpt lat="42.90319" lon="0.13613">
        <ele>1851.4</ele>
        <time>2019-08-18T11:37:19Z</time>
      </trkpt>
      <trkpt lat="42.90324" lon="0.13614">
        <ele>1851.6</ele>
        <time>2019-08-18T11:37:21Z</time>
      </trkpt>
      <trkpt lat="42.90328" lon="0.13616">
        <ele>1851.8</ele>
        <time>2019-08-18T11:37:23Z</time>
      </trkpt>
      <trkpt lat="42.90332" lon="0.13619">
        <ele>1851.9</ele>
        <time>2019-08-18T11:37:25Z</time>
      </trkpt>
      <trkpt lat="42.90335" lon="0.13622">
        <ele>1852.1</ele>
        <time>2019-08-18T11:37:27Z</time>
      </trkpt>
      <trkpt lat="42.90339" lon="0.13625">
        <ele>1852.3</ele>
        <time>2019-08-18T11:37:29Z</time>
      </trkpt>
      <trkpt lat="42.90343" lon="0.13628">
        <ele>1852.6</ele>
        <time>2019-08-18T11:37:31Z</time>
      </trkpt>
      <trkpt lat="42.90346" lon="0.13632">
        <ele>1852.8</ele>
        <time>2019-08-18T11:37:33Z</time>
      </trkpt>
      <trkpt lat="42.9035" lon="0.13636">
        <ele>1853</ele>
        <time>2019-08-18T11:37:35Z</time>
      </trkpt>
      <trkpt lat="42.90353" lon="0.1364">
        <ele>1853.3</ele>
        <time>2019-08-18T11:37:37Z</time>
      </trkpt>
      <trkpt lat="42.90356" lon="0.13643">
        <ele>1853.6</ele>
        <time>2019-08-18T11:37:39Z</time>
      </trkpt>
      <trkpt lat="42.90358" lon="0.13647">
        <ele>1853.8</ele>
        <time>2019-08-18T11:37:41Z</time>
      </trkpt>
      <trkpt lat="42.9036" lon="0.13652">
        <ele>1854.1</ele>
        <time>2019-08-18T11:37:43Z</time>
      </trkpt>
      <trkpt lat="42.90361" lon="0.13657">
        <ele>1854.3</ele>
        <time>2019-08-18T11:37:45Z</time>
      </trkpt>
      <trkpt lat="42.90361" lon="0.13663">
        <ele>1854.7</ele>
        <time>2019-08-18T11:37:47Z</time>
      </trkpt>
      <trkpt lat="42.90361" lon="0.13668">
        <ele>1855</ele>
        <time>2019-08-18T11:37:49Z</time>
      </trkpt>
      <trkpt lat="42.90361" lon="0.13674">
        <ele>1855.3</ele>
        <time>2019-08-18T11:37:51Z</time>
      </trkpt>
      <trkpt lat="42.90362" lon="0.13678">
        <ele>1855.6</ele>
        <time>2019-08-18T11:37:53Z</time>
      </trkpt>
      <trkpt lat="42.90365" lon="0.13682">
        <ele>1855.9</ele>
        <time>2019-08-18T11:37:55Z</time>
      </trkpt>
      <trkpt lat="42.90368" lon="0.13685">
        <ele>1856.1</ele>
        <time>2019-08-18T11:37:57Z</time>
      </trkpt>
      <trkpt lat="42.90371" lon="0.13689">
        <ele>1856.5</ele>
        <time>2019-08-18T11:37:59Z</time>
      </trkpt>
      <trkpt lat="42.90376" lon="0.13691">
        <ele>1856.9</ele>
        <time>2019-08-18T11:38:01Z</time>
      </trkpt>
      <trkpt lat="42.90381" lon="0.13694">
        <ele>1857.3</ele>
        <time>2019-08-18T11:38:03Z</time>
      </trkpt>
      <trkpt lat="42.90385" lon="0.13696">
        <ele>1857.7</ele>
        <time>2019-08-18T11:38:05Z</time>
      </trkpt>
      <trkpt lat="42.90389" lon="0.13699">
        <ele>1858.1</ele>
        <time>2019-08-18T11:38:07Z</time>
      </trkpt>
      <trkpt lat="42.90393" lon="0.13701">
        <ele>1858.4</ele>
        <time>2019-08-18T11:38:09Z</time>
      </trkpt>
      <trkpt lat="42.90397" lon="0.13703">
        <ele>1858.8</ele>
        <time>2019-08-18T11:38:11Z</time>
      </trkpt>
      <trkpt lat="42.90402" lon="0.13705">
        <ele>1859.3</ele>
        <time>2019-08-18T11:38:13Z</time>
      </trkpt>
      <trkpt lat="42.90406" lon="0.13707">
        <ele>1859.7</ele>
        <time>2019-08-18T11:38:15Z</time>
      </trkpt>
      <trkpt lat="42.90411" lon="0.13709">
        <ele>1860</ele>
        <time>2019-08-18T11:38:17Z</time>
      </trkpt>
      <trkpt lat="42.90415" lon="0.1371">
        <ele>1860.3</ele>
        <time>2019-08-18T11:38:19Z</time>
      </trkpt>
      <trkpt lat="42.90419" lon="0.13711">
        <ele>1860.7</ele>
        <time>2019-08-18T11:38:21Z</time>
      </trkpt>
      <trkpt lat="42.90424" lon="0.13712">
        <ele>1861</ele>
        <time>2019-08-18T11:38:23Z</time>
      </trkpt>
      <trkpt lat="42.90429" lon="0.13711">
        <ele>1861.4</ele>
        <time>2019-08-18T11:38:25Z</time>
      </trkpt>
      <trkpt lat="42.90434" lon="0.13712">
        <ele>1861.8</ele>
        <time>2019-08-18T11:38:27Z</time>
      </trkpt>
      <trkpt lat="42.90439" lon="0.13712">
        <ele>1862.1</ele>
        <time>2019-08-18T11:38:29Z</time>
      </trkpt>
      <trkpt lat="42.90444" lon="0.13713">
        <ele>1862.4</ele>
        <time>2019-08-18T11:38:31Z</time>
      </trkpt>
      <trkpt lat="42.90449" lon="0.13714">
        <ele>1862.8</ele>
        <time>2019-08-18T11:38:33Z</time>
      </trkpt>
      <trkpt lat="42.90454" lon="0.13713">
        <ele>1863.1</ele>
        <time>2019-08-18T11:38:35Z</time>
      </trkpt>
      <trkpt lat="42.90459" lon="0.13713">
        <ele>1863.6</ele>
        <time>2019-08-18T11:38:37Z</time>
      </trkpt>
      <trkpt lat="42.90464" lon="0.13712">
        <ele>1864</ele>
        <time>2019-08-18T11:38:39Z</time>
      </trkpt>
      <trkpt lat="42.90468" lon="0.1371">
        <ele>1864.3</ele>
        <time>2019-08-18T11:38:41Z</time>
      </trkpt>
      <trkpt lat="42.90473" lon="0.1371">
        <ele>1864.6</ele>
        <time>2019-08-18T11:38:43Z</time>
      </trkpt>
      <trkpt lat="42.90478" lon="0.13709">
        <ele>1865</ele>
        <time>2019-08-18T11:38:45Z</time>
      </trkpt>
      <trkpt lat="42.90482" lon="0.13709">
        <ele>1865.3</ele>
        <time>2019-08-18T11:38:47Z</time>
      </trkpt>
      <trkpt lat="42.90486" lon="0.13709">
        <ele>1865.6</ele>
        <time>2019-08-18T11:38:49Z</time>
      </trkpt>
      <trkpt lat="42.9049" lon="0.13711">
        <ele>1865.9</ele>
        <time>2019-08-18T11:38:51Z</time>
      </trkpt>
      <trkpt lat="42.90494" lon="0.13713">
        <ele>1866.3</ele>
        <time>2019-08-18T11:38:53Z</time>
      </trkpt>
      <trkpt lat="42.90497" lon="0.13716">
        <ele>1866.5</ele>
        <time>2019-08-18T11:38:55Z</time>
      </trkpt>
      <trkpt lat="42.905" lon="0.13719">
        <ele>1866.8</ele>
        <time>2019-08-18T11:38:57Z</time>
      </trkpt>
      <trkpt lat="42.90503" lon="0.13723">
        <ele>1867.1</ele>
        <time>2019-08-18T11:38:59Z</time>
      </trkpt>
      <trkpt lat="42.90506" lon="0.13726">
        <ele>1867.3</ele>
        <time>2019-08-18T11:39:01Z</time>
      </trkpt>
      <trkpt lat="42.90509" lon="0.1373">
        <ele>1867.6</ele>
        <time>2019-08-18T11:39:03Z</time>
      </trkpt>
      <trkpt lat="42.90513" lon="0.13734">
        <ele>1868</ele>
        <time>2019-08-18T11:39:05Z</time>
      </trkpt>
      <trkpt lat="42.90516" lon="0.13738">
        <ele>1868.3</ele>
        <time>2019-08-18T11:39:07Z</time>
      </trkpt>
      <trkpt lat="42.9052" lon="0.13743">
        <ele>1868.7</ele>
        <time>2019-08-18T11:39:09Z</time>
      </trkpt>
      <trkpt lat="42.90524" lon="0.13748">
        <ele>1869.1</ele>
        <time>2019-08-18T11:39:11Z</time>
      </trkpt>
      <trkpt lat="42.90527" lon="0.13753">
        <ele>1869.6</ele>
        <time>2019-08-18T11:39:13Z</time>
      </trkpt>
      <trkpt lat="42.90528" lon="0.13758">
        <ele>1869.9</ele>
        <time>2019-08-18T11:39:15Z</time>
      </trkpt>
      <trkpt lat="42.90528" lon="0.13764">
        <ele>1870.3</ele>
        <time>2019-08-18T11:39:17Z</time>
      </trkpt>
      <trkpt lat="42.9053" lon="0.1377">
        <ele>1870.7</ele>
        <time>2019-08-18T11:39:19Z</time>
      </trkpt>
      <trkpt lat="42.90531" lon="0.13775">
        <ele>1871.1</ele>
        <time>2019-08-18T11:39:21Z</time>
      </trkpt>
      <trkpt lat="42.90533" lon="0.1378">
        <ele>1871.5</ele>
        <time>2019-08-18T11:39:23Z</time>
      </trkpt>
      <trkpt lat="42.90535" lon="0.13785">
        <ele>1871.9</ele>
        <time>2019-08-18T11:39:25Z</time>
      </trkpt>
      <trkpt lat="42.90538" lon="0.13789">
        <ele>1872.2</ele>
        <time>2019-08-18T11:39:27Z</time>
      </trkpt>
      <trkpt lat="42.90541" lon="0.13792">
        <ele>1872.6</ele>
        <time>2019-08-18T11:39:29Z</time>
      </trkpt>
      <trkpt lat="42.90544" lon="0.13795">
        <ele>1872.8</ele>
        <time>2019-08-18T11:39:31Z</time>
      </trkpt>
      <trkpt lat="42.90547" lon="0.13798">
        <ele>1873.1</ele>
        <time>2019-08-18T11:39:33Z</time>
      </trkpt>
      <trkpt lat="42.9055" lon="0.13801">
        <ele>1873.5</ele>
        <time>2019-08-18T11:39:35Z</time>
      </trkpt>
      <trkpt lat="42.90553" lon="0.13805">
        <ele>1873.8</ele>
        <time>2019-08-18T11:39:37Z</time>
      </trkpt>
      <trkpt lat="42.90567" lon="0.13811">
        <ele>1874.9</ele>
        <time>2019-08-18T11:43:02Z</time>
      </trkpt>
      <trkpt lat="42.9057" lon="0.13814">
        <ele>1875.2</ele>
        <time>2019-08-18T11:43:04Z</time>
      </trkpt>
      <trkpt lat="42.90574" lon="0.13817">
        <ele>1875.6</ele>
        <time>2019-08-18T11:43:06Z</time>
      </trkpt>
      <trkpt lat="42.90578" lon="0.13821">
        <ele>1875.9</ele>
        <time>2019-08-18T11:43:08Z</time>
      </trkpt>
      <trkpt lat="42.90581" lon="0.13825">
        <ele>1876.3</ele>
        <time>2019-08-18T11:43:10Z</time>
      </trkpt>
      <trkpt lat="42.90585" lon="0.13828">
        <ele>1876.6</ele>
        <time>2019-08-18T11:43:12Z</time>
      </trkpt>
      <trkpt lat="42.90589" lon="0.1383">
        <ele>1876.9</ele>
        <time>2019-08-18T11:43:14Z</time>
      </trkpt>
      <trkpt lat="42.90593" lon="0.13833">
        <ele>1877.2</ele>
        <time>2019-08-18T11:43:16Z</time>
      </trkpt>
      <trkpt lat="42.90597" lon="0.13834">
        <ele>1877.5</ele>
        <time>2019-08-18T11:43:18Z</time>
      </trkpt>
      <trkpt lat="42.90601" lon="0.13837">
        <ele>1877.8</ele>
        <time>2019-08-18T11:43:20Z</time>
      </trkpt>
      <trkpt lat="42.90605" lon="0.1384">
        <ele>1878.2</ele>
        <time>2019-08-18T11:43:22Z</time>
      </trkpt>
      <trkpt lat="42.9061" lon="0.13844">
        <ele>1878.5</ele>
        <time>2019-08-18T11:43:24Z</time>
      </trkpt>
      <trkpt lat="42.90613" lon="0.13848">
        <ele>1878.9</ele>
        <time>2019-08-18T11:43:26Z</time>
      </trkpt>
      <trkpt lat="42.90617" lon="0.13852">
        <ele>1879.2</ele>
        <time>2019-08-18T11:43:28Z</time>
      </trkpt>
      <trkpt lat="42.9062" lon="0.13857">
        <ele>1879.6</ele>
        <time>2019-08-18T11:43:30Z</time>
      </trkpt>
      <trkpt lat="42.90623" lon="0.13861">
        <ele>1879.9</ele>
        <time>2019-08-18T11:43:32Z</time>
      </trkpt>
      <trkpt lat="42.90627" lon="0.13865">
        <ele>1880.3</ele>
        <time>2019-08-18T11:43:34Z</time>
      </trkpt>
      <trkpt lat="42.90631" lon="0.13868">
        <ele>1880.7</ele>
        <time>2019-08-18T11:43:36Z</time>
      </trkpt>
      <trkpt lat="42.90636" lon="0.1387">
        <ele>1881.1</ele>
        <time>2019-08-18T11:43:38Z</time>
      </trkpt>
      <trkpt lat="42.90641" lon="0.13872">
        <ele>1881.4</ele>
        <time>2019-08-18T11:43:40Z</time>
      </trkpt>
      <trkpt lat="42.90646" lon="0.13873">
        <ele>1881.9</ele>
        <time>2019-08-18T11:43:42Z</time>
      </trkpt>
      <trkpt lat="42.90649" lon="0.13874">
        <ele>1882.1</ele>
        <time>2019-08-18T11:43:43Z</time>
      </trkpt>
      <trkpt lat="42.90653" lon="0.13874">
        <ele>1882.6</ele>
        <time>2019-08-18T11:43:45Z</time>
      </trkpt>
      <trkpt lat="42.90658" lon="0.13874">
        <ele>1883</ele>
        <time>2019-08-18T11:43:47Z</time>
      </trkpt>
      <trkpt lat="42.90663" lon="0.13872">
        <ele>1883.5</ele>
        <time>2019-08-18T11:43:49Z</time>
      </trkpt>
      <trkpt lat="42.90667" lon="0.1387">
        <ele>1884</ele>
        <time>2019-08-18T11:43:51Z</time>
      </trkpt>
      <trkpt lat="42.90671" lon="0.1387">
        <ele>1884.4</ele>
        <time>2019-08-18T11:43:53Z</time>
      </trkpt>
      <trkpt lat="42.90676" lon="0.13869">
        <ele>1884.9</ele>
        <time>2019-08-18T11:43:55Z</time>
      </trkpt>
      <trkpt lat="42.90681" lon="0.13868">
        <ele>1885.4</ele>
        <time>2019-08-18T11:43:57Z</time>
      </trkpt>
      <trkpt lat="42.90685" lon="0.13866">
        <ele>1885.8</ele>
        <time>2019-08-18T11:43:59Z</time>
      </trkpt>
      <trkpt lat="42.9069" lon="0.13864">
        <ele>1886.1</ele>
        <time>2019-08-18T11:44:01Z</time>
      </trkpt>
      <trkpt lat="42.90695" lon="0.13863">
        <ele>1886.4</ele>
        <time>2019-08-18T11:44:03Z</time>
      </trkpt>
      <trkpt lat="42.907" lon="0.13861">
        <ele>1886.7</ele>
        <time>2019-08-18T11:44:05Z</time>
      </trkpt>
      <trkpt lat="42.90704" lon="0.13861">
        <ele>1887</ele>
        <time>2019-08-18T11:44:07Z</time>
      </trkpt>
      <trkpt lat="42.90709" lon="0.1386">
        <ele>1887.3</ele>
        <time>2019-08-18T11:44:09Z</time>
      </trkpt>
      <trkpt lat="42.90714" lon="0.1386">
        <ele>1887.8</ele>
        <time>2019-08-18T11:44:11Z</time>
      </trkpt>
      <trkpt lat="42.90717" lon="0.1386">
        <ele>1888.1</ele>
        <time>2019-08-18T11:44:12Z</time>
      </trkpt>
      <trkpt lat="42.9072" lon="0.13861">
        <ele>1888.4</ele>
        <time>2019-08-18T11:44:13Z</time>
      </trkpt>
      <trkpt lat="42.90725" lon="0.13862">
        <ele>1889</ele>
        <time>2019-08-18T11:44:15Z</time>
      </trkpt>
      <trkpt lat="42.9073" lon="0.13863">
        <ele>1889.5</ele>
        <time>2019-08-18T11:44:17Z</time>
      </trkpt>
      <trkpt lat="42.90734" lon="0.13863">
        <ele>1890</ele>
        <time>2019-08-18T11:44:19Z</time>
      </trkpt>
      <trkpt lat="42.90739" lon="0.13862">
        <ele>1890.6</ele>
        <time>2019-08-18T11:44:21Z</time>
      </trkpt>
      <trkpt lat="42.90744" lon="0.13861">
        <ele>1891.2</ele>
        <time>2019-08-18T11:44:23Z</time>
      </trkpt>
      <trkpt lat="42.90748" lon="0.13859">
        <ele>1891.7</ele>
        <time>2019-08-18T11:44:25Z</time>
      </trkpt>
      <trkpt lat="42.90753" lon="0.13857">
        <ele>1892.1</ele>
        <time>2019-08-18T11:44:27Z</time>
      </trkpt>
      <trkpt lat="42.90758" lon="0.13854">
        <ele>1892.5</ele>
        <time>2019-08-18T11:44:29Z</time>
      </trkpt>
      <trkpt lat="42.9076" lon="0.13852">
        <ele>1892.8</ele>
        <time>2019-08-18T11:44:30Z</time>
      </trkpt>
      <trkpt lat="42.90764" lon="0.13848">
        <ele>1893.2</ele>
        <time>2019-08-18T11:44:32Z</time>
      </trkpt>
      <trkpt lat="42.90768" lon="0.13843">
        <ele>1893.7</ele>
        <time>2019-08-18T11:44:34Z</time>
      </trkpt>
      <trkpt lat="42.90771" lon="0.13839">
        <ele>1894.3</ele>
        <time>2019-08-18T11:44:36Z</time>
      </trkpt>
      <trkpt lat="42.90775" lon="0.13835">
        <ele>1894.9</ele>
        <time>2019-08-18T11:44:38Z</time>
      </trkpt>
      <trkpt lat="42.90779" lon="0.1383">
        <ele>1895.4</ele>
        <time>2019-08-18T11:44:40Z</time>
      </trkpt>
      <trkpt lat="42.90782" lon="0.13825">
        <ele>1895.9</ele>
        <time>2019-08-18T11:44:42Z</time>
      </trkpt>
      <trkpt lat="42.90785" lon="0.1382">
        <ele>1896.3</ele>
        <time>2019-08-18T11:44:44Z</time>
      </trkpt>
      <trkpt lat="42.90788" lon="0.13816">
        <ele>1896.8</ele>
        <time>2019-08-18T11:44:46Z</time>
      </trkpt>
      <trkpt lat="42.90791" lon="0.13812">
        <ele>1897.2</ele>
        <time>2019-08-18T11:44:48Z</time>
      </trkpt>
      <trkpt lat="42.90795" lon="0.13809">
        <ele>1897.6</ele>
        <time>2019-08-18T11:44:50Z</time>
      </trkpt>
      <trkpt lat="42.90799" lon="0.13806">
        <ele>1898</ele>
        <time>2019-08-18T11:44:52Z</time>
      </trkpt>
      <trkpt lat="42.90803" lon="0.13803">
        <ele>1898.4</ele>
        <time>2019-08-18T11:44:54Z</time>
      </trkpt>
      <trkpt lat="42.90807" lon="0.13801">
        <ele>1898.8</ele>
        <time>2019-08-18T11:44:56Z</time>
      </trkpt>
      <trkpt lat="42.90811" lon="0.13799">
        <ele>1899.1</ele>
        <time>2019-08-18T11:44:58Z</time>
      </trkpt>
      <trkpt lat="42.90816" lon="0.13797">
        <ele>1899.5</ele>
        <time>2019-08-18T11:45:00Z</time>
      </trkpt>
      <trkpt lat="42.9082" lon="0.13795">
        <ele>1899.8</ele>
        <time>2019-08-18T11:45:02Z</time>
      </trkpt>
      <trkpt lat="42.90824" lon="0.13792">
        <ele>1900.1</ele>
        <time>2019-08-18T11:45:04Z</time>
      </trkpt>
      <trkpt lat="42.90828" lon="0.1379">
        <ele>1900.4</ele>
        <time>2019-08-18T11:45:06Z</time>
      </trkpt>
      <trkpt lat="42.90833" lon="0.13787">
        <ele>1900.7</ele>
        <time>2019-08-18T11:45:08Z</time>
      </trkpt>
      <trkpt lat="42.90837" lon="0.13784">
        <ele>1901.1</ele>
        <time>2019-08-18T11:45:10Z</time>
      </trkpt>
      <trkpt lat="42.90841" lon="0.13781">
        <ele>1901.4</ele>
        <time>2019-08-18T11:45:12Z</time>
      </trkpt>
      <trkpt lat="42.90845" lon="0.13779">
        <ele>1901.6</ele>
        <time>2019-08-18T11:45:14Z</time>
      </trkpt>
      <trkpt lat="42.90849" lon="0.13778">
        <ele>1901.9</ele>
        <time>2019-08-18T11:45:16Z</time>
      </trkpt>
      <trkpt lat="42.90854" lon="0.13778">
        <ele>1902.2</ele>
        <time>2019-08-18T11:45:18Z</time>
      </trkpt>
      <trkpt lat="42.90859" lon="0.13779">
        <ele>1902.5</ele>
        <time>2019-08-18T11:45:20Z</time>
      </trkpt>
      <trkpt lat="42.90861" lon="0.1378">
        <ele>1902.7</ele>
        <time>2019-08-18T11:45:21Z</time>
      </trkpt>
      <trkpt lat="42.90864" lon="0.1378">
        <ele>1902.9</ele>
        <time>2019-08-18T11:45:22Z</time>
      </trkpt>
      <trkpt lat="42.90869" lon="0.13781">
        <ele>1903.2</ele>
        <time>2019-08-18T11:45:24Z</time>
      </trkpt>
      <trkpt lat="42.90874" lon="0.13781">
        <ele>1903.7</ele>
        <time>2019-08-18T11:45:26Z</time>
      </trkpt>
      <trkpt lat="42.90879" lon="0.13781">
        <ele>1904.1</ele>
        <time>2019-08-18T11:45:28Z</time>
      </trkpt>
      <trkpt lat="42.90884" lon="0.13781">
        <ele>1904.6</ele>
        <time>2019-08-18T11:45:30Z</time>
      </trkpt>
      <trkpt lat="42.90889" lon="0.13781">
        <ele>1905.1</ele>
        <time>2019-08-18T11:45:32Z</time>
      </trkpt>
      <trkpt lat="42.90893" lon="0.13781">
        <ele>1905.7</ele>
        <time>2019-08-18T11:45:34Z</time>
      </trkpt>
      <trkpt lat="42.90898" lon="0.13781">
        <ele>1906.2</ele>
        <time>2019-08-18T11:45:36Z</time>
      </trkpt>
      <trkpt lat="42.90902" lon="0.13781">
        <ele>1906.7</ele>
        <time>2019-08-18T11:45:38Z</time>
      </trkpt>
      <trkpt lat="42.90906" lon="0.13783">
        <ele>1907.1</ele>
        <time>2019-08-18T11:45:40Z</time>
      </trkpt>
      <trkpt lat="42.90911" lon="0.13784">
        <ele>1907.7</ele>
        <time>2019-08-18T11:45:42Z</time>
      </trkpt>
      <trkpt lat="42.90915" lon="0.13786">
        <ele>1908.2</ele>
        <time>2019-08-18T11:45:44Z</time>
      </trkpt>
      <trkpt lat="42.90918" lon="0.13788">
        <ele>1908.7</ele>
        <time>2019-08-18T11:45:46Z</time>
      </trkpt>
      <trkpt lat="42.90922" lon="0.13789">
        <ele>1909.1</ele>
        <time>2019-08-18T11:45:48Z</time>
      </trkpt>
      <trkpt lat="42.90926" lon="0.13791">
        <ele>1909.5</ele>
        <time>2019-08-18T11:45:50Z</time>
      </trkpt>
      <trkpt lat="42.90929" lon="0.13792">
        <ele>1909.9</ele>
        <time>2019-08-18T11:45:52Z</time>
      </trkpt>
      <trkpt lat="42.90934" lon="0.13794">
        <ele>1910.4</ele>
        <time>2019-08-18T11:45:54Z</time>
      </trkpt>
      <trkpt lat="42.90937" lon="0.13795">
        <ele>1910.8</ele>
        <time>2019-08-18T11:45:56Z</time>
      </trkpt>
      <trkpt lat="42.90942" lon="0.13796">
        <ele>1911.3</ele>
        <time>2019-08-18T11:45:58Z</time>
      </trkpt>
      <trkpt lat="42.90946" lon="0.13797">
        <ele>1911.7</ele>
        <time>2019-08-18T11:46:00Z</time>
      </trkpt>
      <trkpt lat="42.90951" lon="0.13798">
        <ele>1912.1</ele>
        <time>2019-08-18T11:46:02Z</time>
      </trkpt>
      <trkpt lat="42.90955" lon="0.13799">
        <ele>1912.6</ele>
        <time>2019-08-18T11:46:04Z</time>
      </trkpt>
      <trkpt lat="42.9096" lon="0.138">
        <ele>1913.1</ele>
        <time>2019-08-18T11:46:06Z</time>
      </trkpt>
      <trkpt lat="42.90964" lon="0.138">
        <ele>1913.6</ele>
        <time>2019-08-18T11:46:08Z</time>
      </trkpt>
      <trkpt lat="42.90969" lon="0.13801">
        <ele>1914</ele>
        <time>2019-08-18T11:46:10Z</time>
      </trkpt>
      <trkpt lat="42.90973" lon="0.13801">
        <ele>1914.4</ele>
        <time>2019-08-18T11:46:12Z</time>
      </trkpt>
      <trkpt lat="42.90978" lon="0.13801">
        <ele>1914.9</ele>
        <time>2019-08-18T11:46:14Z</time>
      </trkpt>
      <trkpt lat="42.90983" lon="0.13801">
        <ele>1915.3</ele>
        <time>2019-08-18T11:46:16Z</time>
      </trkpt>
      <trkpt lat="42.90988" lon="0.138">
        <ele>1915.8</ele>
        <time>2019-08-18T11:46:18Z</time>
      </trkpt>
      <trkpt lat="42.90993" lon="0.13801">
        <ele>1916.3</ele>
        <time>2019-08-18T11:46:20Z</time>
      </trkpt>
      <trkpt lat="42.90997" lon="0.13802">
        <ele>1916.7</ele>
        <time>2019-08-18T11:46:22Z</time>
      </trkpt>
      <trkpt lat="42.91001" lon="0.13803">
        <ele>1917.1</ele>
        <time>2019-08-18T11:46:24Z</time>
      </trkpt>
      <trkpt lat="42.91005" lon="0.13804">
        <ele>1917.5</ele>
        <time>2019-08-18T11:46:26Z</time>
      </trkpt>
      <trkpt lat="42.91009" lon="0.13806">
        <ele>1917.9</ele>
        <time>2019-08-18T11:46:28Z</time>
      </trkpt>
      <trkpt lat="42.91013" lon="0.13807">
        <ele>1918.3</ele>
        <time>2019-08-18T11:46:30Z</time>
      </trkpt>
      <trkpt lat="42.91018" lon="0.13807">
        <ele>1918.8</ele>
        <time>2019-08-18T11:46:32Z</time>
      </trkpt>
      <trkpt lat="42.91023" lon="0.13808">
        <ele>1919.3</ele>
        <time>2019-08-18T11:46:34Z</time>
      </trkpt>
      <trkpt lat="42.91028" lon="0.13808">
        <ele>1919.7</ele>
        <time>2019-08-18T11:46:36Z</time>
      </trkpt>
      <trkpt lat="42.91033" lon="0.13807">
        <ele>1920.1</ele>
        <time>2019-08-18T11:46:38Z</time>
      </trkpt>
      <trkpt lat="42.91037" lon="0.13807">
        <ele>1920.5</ele>
        <time>2019-08-18T11:46:40Z</time>
      </trkpt>
      <trkpt lat="42.9104" lon="0.13806">
        <ele>1920.8</ele>
        <time>2019-08-18T11:46:41Z</time>
      </trkpt>
      <trkpt lat="42.91045" lon="0.13806">
        <ele>1921.2</ele>
        <time>2019-08-18T11:46:43Z</time>
      </trkpt>
      <trkpt lat="42.91048" lon="0.13806">
        <ele>1921.4</ele>
        <time>2019-08-18T11:46:44Z</time>
      </trkpt>
      <trkpt lat="42.91051" lon="0.13806">
        <ele>1921.6</ele>
        <time>2019-08-18T11:46:45Z</time>
      </trkpt>
      <trkpt lat="42.91056" lon="0.13806">
        <ele>1922.1</ele>
        <time>2019-08-18T11:46:47Z</time>
      </trkpt>
      <trkpt lat="42.91061" lon="0.13807">
        <ele>1922.5</ele>
        <time>2019-08-18T11:46:49Z</time>
      </trkpt>
      <trkpt lat="42.91065" lon="0.13809">
        <ele>1922.8</ele>
        <time>2019-08-18T11:46:51Z</time>
      </trkpt>
      <trkpt lat="42.91069" lon="0.13813">
        <ele>1923.1</ele>
        <time>2019-08-18T11:46:53Z</time>
      </trkpt>
      <trkpt lat="42.91072" lon="0.13817">
        <ele>1923.4</ele>
        <time>2019-08-18T11:46:55Z</time>
      </trkpt>
      <trkpt lat="42.91075" lon="0.13821">
        <ele>1923.6</ele>
        <time>2019-08-18T11:46:57Z</time>
      </trkpt>
      <trkpt lat="42.91078" lon="0.13826">
        <ele>1923.9</ele>
        <time>2019-08-18T11:46:59Z</time>
      </trkpt>
      <trkpt lat="42.91081" lon="0.13831">
        <ele>1924.2</ele>
        <time>2019-08-18T11:47:01Z</time>
      </trkpt>
      <trkpt lat="42.91083" lon="0.13837">
        <ele>1924.5</ele>
        <time>2019-08-18T11:47:03Z</time>
      </trkpt>
      <trkpt lat="42.91086" lon="0.13842">
        <ele>1924.7</ele>
        <time>2019-08-18T11:47:05Z</time>
      </trkpt>
      <trkpt lat="42.9109" lon="0.13848">
        <ele>1925</ele>
        <time>2019-08-18T11:47:07Z</time>
      </trkpt>
      <trkpt lat="42.91093" lon="0.13853">
        <ele>1925.3</ele>
        <time>2019-08-18T11:47:09Z</time>
      </trkpt>
      <trkpt lat="42.91096" lon="0.13857">
        <ele>1925.5</ele>
        <time>2019-08-18T11:47:11Z</time>
      </trkpt>
      <trkpt lat="42.91101" lon="0.1386">
        <ele>1925.8</ele>
        <time>2019-08-18T11:47:13Z</time>
      </trkpt>
      <trkpt lat="42.91106" lon="0.13861">
        <ele>1926.1</ele>
        <time>2019-08-18T11:47:15Z</time>
      </trkpt>
      <trkpt lat="42.91109" lon="0.13859">
        <ele>1926.2</ele>
        <time>2019-08-18T11:47:16Z</time>
      </trkpt>
      <trkpt lat="42.91111" lon="0.13857">
        <ele>1926.4</ele>
        <time>2019-08-18T11:47:17Z</time>
      </trkpt>
      <trkpt lat="42.91114" lon="0.13855">
        <ele>1926.6</ele>
        <time>2019-08-18T11:47:18Z</time>
      </trkpt>
      <trkpt lat="42.91116" lon="0.13852">
        <ele>1926.8</ele>
        <time>2019-08-18T11:47:19Z</time>
      </trkpt>
      <trkpt lat="42.91118" lon="0.13848">
        <ele>1927</ele>
        <time>2019-08-18T11:47:20Z</time>
      </trkpt>
      <trkpt lat="42.9112" lon="0.13845">
        <ele>1927.2</ele>
        <time>2019-08-18T11:47:21Z</time>
      </trkpt>
      <trkpt lat="42.91122" lon="0.13842">
        <ele>1927.3</ele>
        <time>2019-08-18T11:47:22Z</time>
      </trkpt>
      <trkpt lat="42.91123" lon="0.13839">
        <ele>1927.5</ele>
        <time>2019-08-18T11:47:23Z</time>
      </trkpt>
      <trkpt lat="42.91125" lon="0.13836">
        <ele>1927.6</ele>
        <time>2019-08-18T11:47:24Z</time>
      </trkpt>
      <trkpt lat="42.91127" lon="0.13833">
        <ele>1927.8</ele>
        <time>2019-08-18T11:47:25Z</time>
      </trkpt>
      <trkpt lat="42.9113" lon="0.1383">
        <ele>1928</ele>
        <time>2019-08-18T11:47:26Z</time>
      </trkpt>
      <trkpt lat="42.91132" lon="0.13827">
        <ele>1928.2</ele>
        <time>2019-08-18T11:47:27Z</time>
      </trkpt>
      <trkpt lat="42.91134" lon="0.13824">
        <ele>1928.4</ele>
        <time>2019-08-18T11:47:28Z</time>
      </trkpt>
      <trkpt lat="42.91136" lon="0.13822">
        <ele>1928.6</ele>
        <time>2019-08-18T11:47:29Z</time>
      </trkpt>
      <trkpt lat="42.91139" lon="0.13819">
        <ele>1928.8</ele>
        <time>2019-08-18T11:47:30Z</time>
      </trkpt>
      <trkpt lat="42.91141" lon="0.13816">
        <ele>1928.9</ele>
        <time>2019-08-18T11:47:31Z</time>
      </trkpt>
      <trkpt lat="42.91143" lon="0.13813">
        <ele>1929.1</ele>
        <time>2019-08-18T11:47:32Z</time>
      </trkpt>
      <trkpt lat="42.91145" lon="0.1381">
        <ele>1929.3</ele>
        <time>2019-08-18T11:47:33Z</time>
      </trkpt>
      <trkpt lat="42.91147" lon="0.13807">
        <ele>1929.4</ele>
        <time>2019-08-18T11:47:34Z</time>
      </trkpt>
      <trkpt lat="42.91149" lon="0.13804">
        <ele>1929.6</ele>
        <time>2019-08-18T11:47:35Z</time>
      </trkpt>
      <trkpt lat="42.91152" lon="0.13801">
        <ele>1929.8</ele>
        <time>2019-08-18T11:47:36Z</time>
      </trkpt>
      <trkpt lat="42.91154" lon="0.13799">
        <ele>1929.9</ele>
        <time>2019-08-18T11:47:37Z</time>
      </trkpt>
      <trkpt lat="42.91156" lon="0.13796">
        <ele>1930.1</ele>
        <time>2019-08-18T11:47:38Z</time>
      </trkpt>
      <trkpt lat="42.91158" lon="0.13794">
        <ele>1930.2</ele>
        <time>2019-08-18T11:47:39Z</time>
      </trkpt>
      <trkpt lat="42.91161" lon="0.13792">
        <ele>1930.3</ele>
        <time>2019-08-18T11:47:40Z</time>
      </trkpt>
      <trkpt lat="42.91164" lon="0.1379">
        <ele>1930.4</ele>
        <time>2019-08-18T11:47:41Z</time>
      </trkpt>
      <trkpt lat="42.91167" lon="0.13789">
        <ele>1930.5</ele>
        <time>2019-08-18T11:47:42Z</time>
      </trkpt>
      <trkpt lat="42.9117" lon="0.13788">
        <ele>1930.6</ele>
        <time>2019-08-18T11:47:43Z</time>
      </trkpt>
      <trkpt lat="42.91173" lon="0.13787">
        <ele>1930.8</ele>
        <time>2019-08-18T11:47:44Z</time>
      </trkpt>
      <trkpt lat="42.91178" lon="0.13786">
        <ele>1930.9</ele>
        <time>2019-08-18T11:47:46Z</time>
      </trkpt>
      <trkpt lat="42.91181" lon="0.13785">
        <ele>1931</ele>
        <time>2019-08-18T11:47:47Z</time>
      </trkpt>
      <trkpt lat="42.91183" lon="0.13784">
        <ele>1931.1</ele>
        <time>2019-08-18T11:47:48Z</time>
      </trkpt>
      <trkpt lat="42.91186" lon="0.13784">
        <ele>1931.2</ele>
        <time>2019-08-18T11:47:49Z</time>
      </trkpt>
      <trkpt lat="42.91189" lon="0.13784">
        <ele>1931.3</ele>
        <time>2019-08-18T11:47:50Z</time>
      </trkpt>
      <trkpt lat="42.91192" lon="0.13785">
        <ele>1931.3</ele>
        <time>2019-08-18T11:47:51Z</time>
      </trkpt>
      <trkpt lat="42.91195" lon="0.13786">
        <ele>1931.4</ele>
        <time>2019-08-18T11:47:52Z</time>
      </trkpt>
      <trkpt lat="42.91198" lon="0.13787">
        <ele>1931.5</ele>
        <time>2019-08-18T11:47:53Z</time>
      </trkpt>
      <trkpt lat="42.91201" lon="0.13788">
        <ele>1931.6</ele>
        <time>2019-08-18T11:47:54Z</time>
      </trkpt>
      <trkpt lat="42.91204" lon="0.13789">
        <ele>1931.6</ele>
        <time>2019-08-18T11:47:55Z</time>
      </trkpt>
      <trkpt lat="42.91209" lon="0.13791">
        <ele>1931.8</ele>
        <time>2019-08-18T11:47:57Z</time>
      </trkpt>
      <trkpt lat="42.91213" lon="0.13791">
        <ele>1931.9</ele>
        <time>2019-08-18T11:47:58Z</time>
      </trkpt>
      <trkpt lat="42.91216" lon="0.13791">
        <ele>1932</ele>
        <time>2019-08-18T11:47:59Z</time>
      </trkpt>
      <trkpt lat="42.91219" lon="0.13792">
        <ele>1932.1</ele>
        <time>2019-08-18T11:48:00Z</time>
      </trkpt>
      <trkpt lat="42.91222" lon="0.13791">
        <ele>1932.1</ele>
        <time>2019-08-18T11:48:01Z</time>
      </trkpt>
      <trkpt lat="42.91225" lon="0.1379">
        <ele>1932.2</ele>
        <time>2019-08-18T11:48:02Z</time>
      </trkpt>
      <trkpt lat="42.91228" lon="0.1379">
        <ele>1932.3</ele>
        <time>2019-08-18T11:48:03Z</time>
      </trkpt>
      <trkpt lat="42.91231" lon="0.13789">
        <ele>1932.4</ele>
        <time>2019-08-18T11:48:04Z</time>
      </trkpt>
      <trkpt lat="42.91234" lon="0.13788">
        <ele>1932.5</ele>
        <time>2019-08-18T11:48:05Z</time>
      </trkpt>
      <trkpt lat="42.91236" lon="0.13787">
        <ele>1932.5</ele>
        <time>2019-08-18T11:48:06Z</time>
      </trkpt>
      <trkpt lat="42.91239" lon="0.13785">
        <ele>1932.6</ele>
        <time>2019-08-18T11:48:07Z</time>
      </trkpt>
      <trkpt lat="42.91242" lon="0.13784">
        <ele>1932.7</ele>
        <time>2019-08-18T11:48:08Z</time>
      </trkpt>
      <trkpt lat="42.91246" lon="0.13782">
        <ele>1932.8</ele>
        <time>2019-08-18T11:48:09Z</time>
      </trkpt>
      <trkpt lat="42.91249" lon="0.1378">
        <ele>1932.9</ele>
        <time>2019-08-18T11:48:10Z</time>
      </trkpt>
      <trkpt lat="42.91252" lon="0.13778">
        <ele>1933</ele>
        <time>2019-08-18T11:48:11Z</time>
      </trkpt>
      <trkpt lat="42.91255" lon="0.13776">
        <ele>1933.1</ele>
        <time>2019-08-18T11:48:12Z</time>
      </trkpt>
      <trkpt lat="42.91257" lon="0.13774">
        <ele>1933.2</ele>
        <time>2019-08-18T11:48:13Z</time>
      </trkpt>
      <trkpt lat="42.9126" lon="0.13772">
        <ele>1933.3</ele>
        <time>2019-08-18T11:48:14Z</time>
      </trkpt>
      <trkpt lat="42.91262" lon="0.1377">
        <ele>1933.4</ele>
        <time>2019-08-18T11:48:15Z</time>
      </trkpt>
      <trkpt lat="42.91265" lon="0.13767">
        <ele>1933.6</ele>
        <time>2019-08-18T11:48:16Z</time>
      </trkpt>
      <trkpt lat="42.91267" lon="0.13764">
        <ele>1933.7</ele>
        <time>2019-08-18T11:48:17Z</time>
      </trkpt>
      <trkpt lat="42.91269" lon="0.1376">
        <ele>1933.8</ele>
        <time>2019-08-18T11:48:18Z</time>
      </trkpt>
      <trkpt lat="42.91271" lon="0.13757">
        <ele>1933.9</ele>
        <time>2019-08-18T11:48:19Z</time>
      </trkpt>
      <trkpt lat="42.91273" lon="0.13754">
        <ele>1934</ele>
        <time>2019-08-18T11:48:20Z</time>
      </trkpt>
      <trkpt lat="42.91275" lon="0.1375">
        <ele>1934.1</ele>
        <time>2019-08-18T11:48:21Z</time>
      </trkpt>
      <trkpt lat="42.91278" lon="0.13747">
        <ele>1934.3</ele>
        <time>2019-08-18T11:48:22Z</time>
      </trkpt>
      <trkpt lat="42.9128" lon="0.13743">
        <ele>1934.4</ele>
        <time>2019-08-18T11:48:23Z</time>
      </trkpt>
      <trkpt lat="42.91282" lon="0.1374">
        <ele>1934.6</ele>
        <time>2019-08-18T11:48:24Z</time>
      </trkpt>
      <trkpt lat="42.91283" lon="0.13736">
        <ele>1934.7</ele>
        <time>2019-08-18T11:48:25Z</time>
      </trkpt>
      <trkpt lat="42.91285" lon="0.13732">
        <ele>1934.9</ele>
        <time>2019-08-18T11:48:26Z</time>
      </trkpt>
      <trkpt lat="42.91287" lon="0.13727">
        <ele>1935</ele>
        <time>2019-08-18T11:48:27Z</time>
      </trkpt>
      <trkpt lat="42.91288" lon="0.13723">
        <ele>1935.2</ele>
        <time>2019-08-18T11:48:28Z</time>
      </trkpt>
      <trkpt lat="42.9129" lon="0.13718">
        <ele>1935.3</ele>
        <time>2019-08-18T11:48:29Z</time>
      </trkpt>
      <trkpt lat="42.91292" lon="0.13714">
        <ele>1935.4</ele>
        <time>2019-08-18T11:48:30Z</time>
      </trkpt>
      <trkpt lat="42.91294" lon="0.1371">
        <ele>1935.6</ele>
        <time>2019-08-18T11:48:31Z</time>
      </trkpt>
      <trkpt lat="42.91296" lon="0.13706">
        <ele>1935.8</ele>
        <time>2019-08-18T11:48:32Z</time>
      </trkpt>
      <trkpt lat="42.91297" lon="0.13703">
        <ele>1935.9</ele>
        <time>2019-08-18T11:48:33Z</time>
      </trkpt>
      <trkpt lat="42.913" lon="0.13699">
        <ele>1936</ele>
        <time>2019-08-18T11:48:34Z</time>
      </trkpt>
      <trkpt lat="42.91302" lon="0.13696">
        <ele>1936.1</ele>
        <time>2019-08-18T11:48:35Z</time>
      </trkpt>
      <trkpt lat="42.91304" lon="0.13693">
        <ele>1936.2</ele>
        <time>2019-08-18T11:48:36Z</time>
      </trkpt>
      <trkpt lat="42.91307" lon="0.1369">
        <ele>1936.4</ele>
        <time>2019-08-18T11:48:37Z</time>
      </trkpt>
      <trkpt lat="42.91309" lon="0.13688">
        <ele>1936.5</ele>
        <time>2019-08-18T11:48:38Z</time>
      </trkpt>
      <trkpt lat="42.91312" lon="0.13686">
        <ele>1936.7</ele>
        <time>2019-08-18T11:48:39Z</time>
      </trkpt>
      <trkpt lat="42.91314" lon="0.13684">
        <ele>1936.8</ele>
        <time>2019-08-18T11:48:40Z</time>
      </trkpt>
      <trkpt lat="42.91317" lon="0.13683">
        <ele>1936.9</ele>
        <time>2019-08-18T11:48:41Z</time>
      </trkpt>
      <trkpt lat="42.91319" lon="0.13681">
        <ele>1937</ele>
        <time>2019-08-18T11:48:42Z</time>
      </trkpt>
      <trkpt lat="42.91322" lon="0.1368">
        <ele>1937.1</ele>
        <time>2019-08-18T11:48:43Z</time>
      </trkpt>
      <trkpt lat="42.91325" lon="0.1368">
        <ele>1937.3</ele>
        <time>2019-08-18T11:48:44Z</time>
      </trkpt>
      <trkpt lat="42.91328" lon="0.1368">
        <ele>1937.4</ele>
        <time>2019-08-18T11:48:45Z</time>
      </trkpt>
      <trkpt lat="42.91333" lon="0.13681">
        <ele>1937.6</ele>
        <time>2019-08-18T11:48:47Z</time>
      </trkpt>
      <trkpt lat="42.91338" lon="0.13684">
        <ele>1937.7</ele>
        <time>2019-08-18T11:48:49Z</time>
      </trkpt>
      <trkpt lat="42.91341" lon="0.13689">
        <ele>1937.9</ele>
        <time>2019-08-18T11:48:51Z</time>
      </trkpt>
      <trkpt lat="42.91344" lon="0.13695">
        <ele>1938</ele>
        <time>2019-08-18T11:48:53Z</time>
      </trkpt>
      <trkpt lat="42.91345" lon="0.13699">
        <ele>1938.1</ele>
        <time>2019-08-18T11:48:54Z</time>
      </trkpt>
      <trkpt lat="42.91345" lon="0.13703">
        <ele>1938.1</ele>
        <time>2019-08-18T11:48:55Z</time>
      </trkpt>
      <trkpt lat="42.91344" lon="0.13706">
        <ele>1938.2</ele>
        <time>2019-08-18T11:48:56Z</time>
      </trkpt>
      <trkpt lat="42.91343" lon="0.1371">
        <ele>1938.7</ele>
        <time>2019-08-18T11:48:57Z</time>
      </trkpt>
      <trkpt lat="42.91339" lon="0.13715">
        <ele>1939.3</ele>
        <time>2019-08-18T11:48:59Z</time>
      </trkpt>
      <trkpt lat="42.91336" lon="0.13718">
        <ele>1939.8</ele>
        <time>2019-08-18T11:49:01Z</time>
      </trkpt>
      <trkpt lat="42.91331" lon="0.1372">
        <ele>1940.3</ele>
        <time>2019-08-18T11:49:03Z</time>
      </trkpt>
      <trkpt lat="42.91326" lon="0.13723">
        <ele>1940.9</ele>
        <time>2019-08-18T11:49:05Z</time>
      </trkpt>
      <trkpt lat="42.91323" lon="0.13724">
        <ele>1941.2</ele>
        <time>2019-08-18T11:49:06Z</time>
      </trkpt>
      <trkpt lat="42.91319" lon="0.13727">
        <ele>1941.6</ele>
        <time>2019-08-18T11:49:08Z</time>
      </trkpt>
      <trkpt lat="42.91316" lon="0.1373">
        <ele>1942</ele>
        <time>2019-08-18T11:49:10Z</time>
      </trkpt>
      <trkpt lat="42.91312" lon="0.13732">
        <ele>1942.4</ele>
        <time>2019-08-18T11:49:12Z</time>
      </trkpt>
      <trkpt lat="42.91308" lon="0.13735">
        <ele>1942.7</ele>
        <time>2019-08-18T11:49:14Z</time>
      </trkpt>
      <trkpt lat="42.91304" lon="0.13738">
        <ele>1943.1</ele>
        <time>2019-08-18T11:49:16Z</time>
      </trkpt>
      <trkpt lat="42.913" lon="0.13742">
        <ele>1943.6</ele>
        <time>2019-08-18T11:49:18Z</time>
      </trkpt>
      <trkpt lat="42.91297" lon="0.13746">
        <ele>1944</ele>
        <time>2019-08-18T11:49:20Z</time>
      </trkpt>
      <trkpt lat="42.91294" lon="0.13751">
        <ele>1944.4</ele>
        <time>2019-08-18T11:49:22Z</time>
      </trkpt>
      <trkpt lat="42.91291" lon="0.13756">
        <ele>1944.8</ele>
        <time>2019-08-18T11:49:24Z</time>
      </trkpt>
      <trkpt lat="42.91289" lon="0.13761">
        <ele>1945.2</ele>
        <time>2019-08-18T11:49:26Z</time>
      </trkpt>
      <trkpt lat="42.91286" lon="0.13766">
        <ele>1945.6</ele>
        <time>2019-08-18T11:49:28Z</time>
      </trkpt>
      <trkpt lat="42.91283" lon="0.13772">
        <ele>1946</ele>
        <time>2019-08-18T11:49:30Z</time>
      </trkpt>
      <trkpt lat="42.9128" lon="0.13777">
        <ele>1946.4</ele>
        <time>2019-08-18T11:49:32Z</time>
      </trkpt>
      <trkpt lat="42.91277" lon="0.13781">
        <ele>1946.8</ele>
        <time>2019-08-18T11:49:34Z</time>
      </trkpt>
      <trkpt lat="42.91274" lon="0.13786">
        <ele>1947.3</ele>
        <time>2019-08-18T11:49:36Z</time>
      </trkpt>
      <trkpt lat="42.9127" lon="0.13791">
        <ele>1947.8</ele>
        <time>2019-08-18T11:49:38Z</time>
      </trkpt>
      <trkpt lat="42.91267" lon="0.13796">
        <ele>1948.2</ele>
        <time>2019-08-18T11:49:40Z</time>
      </trkpt>
      <trkpt lat="42.91264" lon="0.138">
        <ele>1948.7</ele>
        <time>2019-08-18T11:49:42Z</time>
      </trkpt>
      <trkpt lat="42.91261" lon="0.13805">
        <ele>1949.2</ele>
        <time>2019-08-18T11:49:44Z</time>
      </trkpt>
      <trkpt lat="42.91258" lon="0.1381">
        <ele>1949.7</ele>
        <time>2019-08-18T11:49:46Z</time>
      </trkpt>
      <trkpt lat="42.91254" lon="0.13814">
        <ele>1950.2</ele>
        <time>2019-08-18T11:49:48Z</time>
      </trkpt>
      <trkpt lat="42.9125" lon="0.13817">
        <ele>1950.7</ele>
        <time>2019-08-18T11:49:50Z</time>
      </trkpt>
      <trkpt lat="42.91247" lon="0.13819">
        <ele>1951.2</ele>
        <time>2019-08-18T11:49:52Z</time>
      </trkpt>
      <trkpt lat="42.91243" lon="0.13822">
        <ele>1951.7</ele>
        <time>2019-08-18T11:49:54Z</time>
      </trkpt>
      <trkpt lat="42.91239" lon="0.13825">
        <ele>1952.2</ele>
        <time>2019-08-18T11:49:56Z</time>
      </trkpt>
      <trkpt lat="42.91235" lon="0.13827">
        <ele>1952.7</ele>
        <time>2019-08-18T11:49:58Z</time>
      </trkpt>
      <trkpt lat="42.91231" lon="0.13829">
        <ele>1953.1</ele>
        <time>2019-08-18T11:50:00Z</time>
      </trkpt>
      <trkpt lat="42.91228" lon="0.13832">
        <ele>1953.5</ele>
        <time>2019-08-18T11:50:02Z</time>
      </trkpt>
      <trkpt lat="42.91224" lon="0.13833">
        <ele>1954</ele>
        <time>2019-08-18T11:50:04Z</time>
      </trkpt>
      <trkpt lat="42.9122" lon="0.13834">
        <ele>1954.4</ele>
        <time>2019-08-18T11:50:06Z</time>
      </trkpt>
      <trkpt lat="42.91216" lon="0.13836">
        <ele>1954.9</ele>
        <time>2019-08-18T11:50:08Z</time>
      </trkpt>
      <trkpt lat="42.91213" lon="0.13837">
        <ele>1955.3</ele>
        <time>2019-08-18T11:50:10Z</time>
      </trkpt>
      <trkpt lat="42.91209" lon="0.13837">
        <ele>1955.7</ele>
        <time>2019-08-18T11:50:12Z</time>
      </trkpt>
      <trkpt lat="42.91205" lon="0.13838">
        <ele>1956.2</ele>
        <time>2019-08-18T11:50:14Z</time>
      </trkpt>
      <trkpt lat="42.912" lon="0.13839">
        <ele>1956.7</ele>
        <time>2019-08-18T11:50:16Z</time>
      </trkpt>
      <trkpt lat="42.91195" lon="0.1384">
        <ele>1957.2</ele>
        <time>2019-08-18T11:50:18Z</time>
      </trkpt>
      <trkpt lat="42.91191" lon="0.13841">
        <ele>1957.7</ele>
        <time>2019-08-18T11:50:20Z</time>
      </trkpt>
      <trkpt lat="42.91186" lon="0.13842">
        <ele>1958.2</ele>
        <time>2019-08-18T11:50:22Z</time>
      </trkpt>
      <trkpt lat="42.91181" lon="0.13844">
        <ele>1958.6</ele>
        <time>2019-08-18T11:50:24Z</time>
      </trkpt>
      <trkpt lat="42.91177" lon="0.13847">
        <ele>1959.1</ele>
        <time>2019-08-18T11:50:26Z</time>
      </trkpt>
      <trkpt lat="42.91174" lon="0.13851">
        <ele>1959.5</ele>
        <time>2019-08-18T11:50:28Z</time>
      </trkpt>
      <trkpt lat="42.91171" lon="0.13856">
        <ele>1960</ele>
        <time>2019-08-18T11:50:30Z</time>
      </trkpt>
      <trkpt lat="42.91167" lon="0.1386">
        <ele>1960.5</ele>
        <time>2019-08-18T11:50:32Z</time>
      </trkpt>
      <trkpt lat="42.91165" lon="0.13866">
        <ele>1961</ele>
        <time>2019-08-18T11:50:34Z</time>
      </trkpt>
      <trkpt lat="42.91162" lon="0.13871">
        <ele>1961.5</ele>
        <time>2019-08-18T11:50:36Z</time>
      </trkpt>
      <trkpt lat="42.91159" lon="0.13876">
        <ele>1962</ele>
        <time>2019-08-18T11:50:38Z</time>
      </trkpt>
      <trkpt lat="42.91158" lon="0.13881">
        <ele>1962.4</ele>
        <time>2019-08-18T11:50:40Z</time>
      </trkpt>
      <trkpt lat="42.91155" lon="0.13886">
        <ele>1962.8</ele>
        <time>2019-08-18T11:50:42Z</time>
      </trkpt>
      <trkpt lat="42.91153" lon="0.13891">
        <ele>1963.2</ele>
        <time>2019-08-18T11:50:44Z</time>
      </trkpt>
      <trkpt lat="42.9115" lon="0.13897">
        <ele>1963.7</ele>
        <time>2019-08-18T11:50:46Z</time>
      </trkpt>
      <trkpt lat="42.91148" lon="0.13902">
        <ele>1964.1</ele>
        <time>2019-08-18T11:50:48Z</time>
      </trkpt>
      <trkpt lat="42.91146" lon="0.13906">
        <ele>1964.7</ele>
        <time>2019-08-18T11:50:50Z</time>
      </trkpt>
      <trkpt lat="42.91143" lon="0.13911">
        <ele>1965.2</ele>
        <time>2019-08-18T11:50:52Z</time>
      </trkpt>
      <trkpt lat="42.91141" lon="0.13917">
        <ele>1965.6</ele>
        <time>2019-08-18T11:50:54Z</time>
      </trkpt>
      <trkpt lat="42.9114" lon="0.13921">
        <ele>1966.1</ele>
        <time>2019-08-18T11:50:56Z</time>
      </trkpt>
      <trkpt lat="42.91139" lon="0.13926">
        <ele>1966.5</ele>
        <time>2019-08-18T11:50:58Z</time>
      </trkpt>
      <trkpt lat="42.91138" lon="0.13931">
        <ele>1967</ele>
        <time>2019-08-18T11:51:00Z</time>
      </trkpt>
      <trkpt lat="42.91137" lon="0.13935">
        <ele>1967.5</ele>
        <time>2019-08-18T11:51:02Z</time>
      </trkpt>
      <trkpt lat="42.91135" lon="0.13941">
        <ele>1968</ele>
        <time>2019-08-18T11:51:04Z</time>
      </trkpt>
      <trkpt lat="42.91133" lon="0.13945">
        <ele>1968.5</ele>
        <time>2019-08-18T11:51:06Z</time>
      </trkpt>
      <trkpt lat="42.91129" lon="0.13948">
        <ele>1969.1</ele>
        <time>2019-08-18T11:51:08Z</time>
      </trkpt>
      <trkpt lat="42.91125" lon="0.13951">
        <ele>1969.7</ele>
        <time>2019-08-18T11:51:10Z</time>
      </trkpt>
      <trkpt lat="42.91121" lon="0.13951">
        <ele>1970.2</ele>
        <time>2019-08-18T11:51:12Z</time>
      </trkpt>
      <trkpt lat="42.91117" lon="0.1395">
        <ele>1970.6</ele>
        <time>2019-08-18T11:51:14Z</time>
      </trkpt>
      <trkpt lat="42.91113" lon="0.1395">
        <ele>1971.1</ele>
        <time>2019-08-18T11:51:16Z</time>
      </trkpt>
      <trkpt lat="42.91109" lon="0.1395">
        <ele>1971.6</ele>
        <time>2019-08-18T11:51:18Z</time>
      </trkpt>
      <trkpt lat="42.91104" lon="0.13949">
        <ele>1972</ele>
        <time>2019-08-18T11:51:20Z</time>
      </trkpt>
      <trkpt lat="42.911" lon="0.13948">
        <ele>1972.5</ele>
        <time>2019-08-18T11:51:22Z</time>
      </trkpt>
      <trkpt lat="42.91096" lon="0.13948">
        <ele>1972.9</ele>
        <time>2019-08-18T11:51:24Z</time>
      </trkpt>
      <trkpt lat="42.91092" lon="0.13946">
        <ele>1973.2</ele>
        <time>2019-08-18T11:51:26Z</time>
      </trkpt>
      <trkpt lat="42.91088" lon="0.13946">
        <ele>1973.6</ele>
        <time>2019-08-18T11:51:28Z</time>
      </trkpt>
      <trkpt lat="42.91083" lon="0.13944">
        <ele>1974</ele>
        <time>2019-08-18T11:51:30Z</time>
      </trkpt>
      <trkpt lat="42.9108" lon="0.13943">
        <ele>1974.4</ele>
        <time>2019-08-18T11:51:32Z</time>
      </trkpt>
      <trkpt lat="42.91076" lon="0.13941">
        <ele>1974.7</ele>
        <time>2019-08-18T11:51:34Z</time>
      </trkpt>
      <trkpt lat="42.91073" lon="0.13939">
        <ele>1975</ele>
        <time>2019-08-18T11:51:36Z</time>
      </trkpt>
      <trkpt lat="42.91069" lon="0.13938">
        <ele>1975.4</ele>
        <time>2019-08-18T11:51:38Z</time>
      </trkpt>
      <trkpt lat="42.91065" lon="0.13938">
        <ele>1975.7</ele>
        <time>2019-08-18T11:51:40Z</time>
      </trkpt>
      <trkpt lat="42.91061" lon="0.13937">
        <ele>1976.1</ele>
        <time>2019-08-18T11:51:42Z</time>
      </trkpt>
      <trkpt lat="42.91057" lon="0.13935">
        <ele>1976.4</ele>
        <time>2019-08-18T11:51:44Z</time>
      </trkpt>
      <trkpt lat="42.91053" lon="0.13935">
        <ele>1976.8</ele>
        <time>2019-08-18T11:51:46Z</time>
      </trkpt>
      <trkpt lat="42.91049" lon="0.13934">
        <ele>1977.2</ele>
        <time>2019-08-18T11:51:48Z</time>
      </trkpt>
      <trkpt lat="42.91045" lon="0.13934">
        <ele>1977.5</ele>
        <time>2019-08-18T11:51:50Z</time>
      </trkpt>
      <trkpt lat="42.91041" lon="0.13933">
        <ele>1978</ele>
        <time>2019-08-18T11:51:52Z</time>
      </trkpt>
      <trkpt lat="42.91037" lon="0.13933">
        <ele>1978.3</ele>
        <time>2019-08-18T11:51:54Z</time>
      </trkpt>
      <trkpt lat="42.91033" lon="0.13933">
        <ele>1978.8</ele>
        <time>2019-08-18T11:51:56Z</time>
      </trkpt>
      <trkpt lat="42.91029" lon="0.13932">
        <ele>1979.2</ele>
        <time>2019-08-18T11:51:58Z</time>
      </trkpt>
      <trkpt lat="42.91025" lon="0.13932">
        <ele>1979.6</ele>
        <time>2019-08-18T11:52:00Z</time>
      </trkpt>
      <trkpt lat="42.91022" lon="0.13932">
        <ele>1980.1</ele>
        <time>2019-08-18T11:52:02Z</time>
      </trkpt>
      <trkpt lat="42.91018" lon="0.13931">
        <ele>1980.6</ele>
        <time>2019-08-18T11:52:04Z</time>
      </trkpt>
      <trkpt lat="42.91014" lon="0.13931">
        <ele>1981.1</ele>
        <time>2019-08-18T11:52:06Z</time>
      </trkpt>
      <trkpt lat="42.9101" lon="0.13931">
        <ele>1981.7</ele>
        <time>2019-08-18T11:52:08Z</time>
      </trkpt>
      <trkpt lat="42.91005" lon="0.13932">
        <ele>1982.4</ele>
        <time>2019-08-18T11:52:10Z</time>
      </trkpt>
      <trkpt lat="42.91001" lon="0.13932">
        <ele>1983</ele>
        <time>2019-08-18T11:52:12Z</time>
      </trkpt>
      <trkpt lat="42.90997" lon="0.13934">
        <ele>1983.5</ele>
        <time>2019-08-18T11:52:14Z</time>
      </trkpt>
      <trkpt lat="42.90993" lon="0.13935">
        <ele>1984.1</ele>
        <time>2019-08-18T11:52:16Z</time>
      </trkpt>
      <trkpt lat="42.90989" lon="0.13934">
        <ele>1984.7</ele>
        <time>2019-08-18T11:52:18Z</time>
      </trkpt>
      <trkpt lat="42.90985" lon="0.13934">
        <ele>1985.3</ele>
        <time>2019-08-18T11:52:20Z</time>
      </trkpt>
      <trkpt lat="42.9098" lon="0.13933">
        <ele>1985.9</ele>
        <time>2019-08-18T11:52:22Z</time>
      </trkpt>
      <trkpt lat="42.90976" lon="0.13933">
        <ele>1986.5</ele>
        <time>2019-08-18T11:52:24Z</time>
      </trkpt>
      <trkpt lat="42.90972" lon="0.13932">
        <ele>1987</ele>
        <time>2019-08-18T11:52:26Z</time>
      </trkpt>
      <trkpt lat="42.90968" lon="0.13931">
        <ele>1987.5</ele>
        <time>2019-08-18T11:52:28Z</time>
      </trkpt>
      <trkpt lat="42.90964" lon="0.13932">
        <ele>1988</ele>
        <time>2019-08-18T11:52:30Z</time>
      </trkpt>
      <trkpt lat="42.90959" lon="0.13931">
        <ele>1988.5</ele>
        <time>2019-08-18T11:52:32Z</time>
      </trkpt>
      <trkpt lat="42.90955" lon="0.13931">
        <ele>1989</ele>
        <time>2019-08-18T11:52:34Z</time>
      </trkpt>
      <trkpt lat="42.90951" lon="0.13932">
        <ele>1989.4</ele>
        <time>2019-08-18T11:52:36Z</time>
      </trkpt>
      <trkpt lat="42.90946" lon="0.13932">
        <ele>1989.9</ele>
        <time>2019-08-18T11:52:38Z</time>
      </trkpt>
      <trkpt lat="42.90942" lon="0.13933">
        <ele>1990.5</ele>
        <time>2019-08-18T11:52:40Z</time>
      </trkpt>
      <trkpt lat="42.90938" lon="0.13934">
        <ele>1990.9</ele>
        <time>2019-08-18T11:52:42Z</time>
      </trkpt>
      <trkpt lat="42.90934" lon="0.13935">
        <ele>1991.4</ele>
        <time>2019-08-18T11:52:44Z</time>
      </trkpt>
      <trkpt lat="42.9093" lon="0.13936">
        <ele>1991.9</ele>
        <time>2019-08-18T11:52:46Z</time>
      </trkpt>
      <trkpt lat="42.90926" lon="0.13938">
        <ele>1992.4</ele>
        <time>2019-08-18T11:52:48Z</time>
      </trkpt>
      <trkpt lat="42.90923" lon="0.13938">
        <ele>1992.7</ele>
        <time>2019-08-18T11:52:50Z</time>
      </trkpt>
      <trkpt lat="42.90919" lon="0.1394">
        <ele>1993.2</ele>
        <time>2019-08-18T11:52:52Z</time>
      </trkpt>
      <trkpt lat="42.90914" lon="0.13942">
        <ele>1993.6</ele>
        <time>2019-08-18T11:52:54Z</time>
      </trkpt>
      <trkpt lat="42.90911" lon="0.13944">
        <ele>1994</ele>
        <time>2019-08-18T11:52:56Z</time>
      </trkpt>
      <trkpt lat="42.90906" lon="0.13947">
        <ele>1994.5</ele>
        <time>2019-08-18T11:52:58Z</time>
      </trkpt>
      <trkpt lat="42.90902" lon="0.13949">
        <ele>1994.9</ele>
        <time>2019-08-18T11:53:00Z</time>
      </trkpt>
      <trkpt lat="42.90898" lon="0.13951">
        <ele>1995.2</ele>
        <time>2019-08-18T11:53:02Z</time>
      </trkpt>
      <trkpt lat="42.90895" lon="0.13955">
        <ele>1995.6</ele>
        <time>2019-08-18T11:53:04Z</time>
      </trkpt>
      <trkpt lat="42.9089" lon="0.13957">
        <ele>1996</ele>
        <time>2019-08-18T11:53:06Z</time>
      </trkpt>
      <trkpt lat="42.90887" lon="0.1396">
        <ele>1996.4</ele>
        <time>2019-08-18T11:53:08Z</time>
      </trkpt>
      <trkpt lat="42.90884" lon="0.13964">
        <ele>1996.7</ele>
        <time>2019-08-18T11:53:10Z</time>
      </trkpt>
      <trkpt lat="42.90881" lon="0.13968">
        <ele>1997.1</ele>
        <time>2019-08-18T11:53:12Z</time>
      </trkpt>
      <trkpt lat="42.90878" lon="0.13972">
        <ele>1997.6</ele>
        <time>2019-08-18T11:53:14Z</time>
      </trkpt>
      <trkpt lat="42.90874" lon="0.13976">
        <ele>1998</ele>
        <time>2019-08-18T11:53:16Z</time>
      </trkpt>
      <trkpt lat="42.90871" lon="0.1398">
        <ele>1998.5</ele>
        <time>2019-08-18T11:53:18Z</time>
      </trkpt>
      <trkpt lat="42.90869" lon="0.13984">
        <ele>1998.9</ele>
        <time>2019-08-18T11:53:20Z</time>
      </trkpt>
      <trkpt lat="42.90866" lon="0.13989">
        <ele>1999.4</ele>
        <time>2019-08-18T11:53:22Z</time>
      </trkpt>
      <trkpt lat="42.90863" lon="0.13994">
        <ele>1999.9</ele>
        <time>2019-08-18T11:53:24Z</time>
      </trkpt>
      <trkpt lat="42.90861" lon="0.13999">
        <ele>2000.2</ele>
        <time>2019-08-18T11:53:26Z</time>
      </trkpt>
      <trkpt lat="42.90859" lon="0.14003">
        <ele>2000.7</ele>
        <time>2019-08-18T11:53:28Z</time>
      </trkpt>
      <trkpt lat="42.90856" lon="0.14007">
        <ele>2001.1</ele>
        <time>2019-08-18T11:53:30Z</time>
      </trkpt>
      <trkpt lat="42.90853" lon="0.1401">
        <ele>2001.5</ele>
        <time>2019-08-18T11:53:32Z</time>
      </trkpt>
      <trkpt lat="42.90849" lon="0.14013">
        <ele>2002</ele>
        <time>2019-08-18T11:53:34Z</time>
      </trkpt>
      <trkpt lat="42.90845" lon="0.14016">
        <ele>2002.4</ele>
        <time>2019-08-18T11:53:36Z</time>
      </trkpt>
      <trkpt lat="42.90841" lon="0.14018">
        <ele>2002.9</ele>
        <time>2019-08-18T11:53:38Z</time>
      </trkpt>
      <trkpt lat="42.90837" lon="0.1402">
        <ele>2003.2</ele>
        <time>2019-08-18T11:53:40Z</time>
      </trkpt>
      <trkpt lat="42.90833" lon="0.14022">
        <ele>2003.6</ele>
        <time>2019-08-18T11:53:42Z</time>
      </trkpt>
      <trkpt lat="42.90829" lon="0.14025">
        <ele>2004</ele>
        <time>2019-08-18T11:53:44Z</time>
      </trkpt>
      <trkpt lat="42.90825" lon="0.14028">
        <ele>2004.4</ele>
        <time>2019-08-18T11:53:46Z</time>
      </trkpt>
      <trkpt lat="42.90821" lon="0.14031">
        <ele>2004.8</ele>
        <time>2019-08-18T11:53:48Z</time>
      </trkpt>
      <trkpt lat="42.90818" lon="0.14033">
        <ele>2005.2</ele>
        <time>2019-08-18T11:53:50Z</time>
      </trkpt>
      <trkpt lat="42.90814" lon="0.14035">
        <ele>2005.5</ele>
        <time>2019-08-18T11:53:52Z</time>
      </trkpt>
      <trkpt lat="42.90811" lon="0.14038">
        <ele>2005.9</ele>
        <time>2019-08-18T11:53:54Z</time>
      </trkpt>
      <trkpt lat="42.90808" lon="0.14042">
        <ele>2006.4</ele>
        <time>2019-08-18T11:53:56Z</time>
      </trkpt>
      <trkpt lat="42.90806" lon="0.14046">
        <ele>2006.8</ele>
        <time>2019-08-18T11:53:58Z</time>
      </trkpt>
      <trkpt lat="42.90803" lon="0.1405">
        <ele>2007.3</ele>
        <time>2019-08-18T11:54:00Z</time>
      </trkpt>
      <trkpt lat="42.90801" lon="0.14055">
        <ele>2007.7</ele>
        <time>2019-08-18T11:54:02Z</time>
      </trkpt>
      <trkpt lat="42.90799" lon="0.14059">
        <ele>2008.2</ele>
        <time>2019-08-18T11:54:04Z</time>
      </trkpt>
      <trkpt lat="42.90796" lon="0.14063">
        <ele>2008.7</ele>
        <time>2019-08-18T11:54:06Z</time>
      </trkpt>
      <trkpt lat="42.90793" lon="0.14067">
        <ele>2009.3</ele>
        <time>2019-08-18T11:54:08Z</time>
      </trkpt>
      <trkpt lat="42.9079" lon="0.1407">
        <ele>2009.8</ele>
        <time>2019-08-18T11:54:10Z</time>
      </trkpt>
      <trkpt lat="42.90787" lon="0.14073">
        <ele>2010.2</ele>
        <time>2019-08-18T11:54:12Z</time>
      </trkpt>
      <trkpt lat="42.90784" lon="0.14077">
        <ele>2010.8</ele>
        <time>2019-08-18T11:54:14Z</time>
      </trkpt>
      <trkpt lat="42.90781" lon="0.14081">
        <ele>2011.3</ele>
        <time>2019-08-18T11:54:16Z</time>
      </trkpt>
      <trkpt lat="42.90778" lon="0.14084">
        <ele>2011.8</ele>
        <time>2019-08-18T11:54:18Z</time>
      </trkpt>
      <trkpt lat="42.90775" lon="0.14087">
        <ele>2012.3</ele>
        <time>2019-08-18T11:54:20Z</time>
      </trkpt>
      <trkpt lat="42.90772" lon="0.1409">
        <ele>2012.7</ele>
        <time>2019-08-18T11:54:22Z</time>
      </trkpt>
      <trkpt lat="42.90769" lon="0.14094">
        <ele>2013.2</ele>
        <time>2019-08-18T11:54:24Z</time>
      </trkpt>
      <trkpt lat="42.90766" lon="0.14098">
        <ele>2013.6</ele>
        <time>2019-08-18T11:54:26Z</time>
      </trkpt>
      <trkpt lat="42.90763" lon="0.14102">
        <ele>2014</ele>
        <time>2019-08-18T11:54:28Z</time>
      </trkpt>
      <trkpt lat="42.9076" lon="0.14106">
        <ele>2014.4</ele>
        <time>2019-08-18T11:54:30Z</time>
      </trkpt>
      <trkpt lat="42.90757" lon="0.14109">
        <ele>2014.7</ele>
        <time>2019-08-18T11:54:32Z</time>
      </trkpt>
      <trkpt lat="42.90755" lon="0.14113">
        <ele>2015.1</ele>
        <time>2019-08-18T11:54:34Z</time>
      </trkpt>
      <trkpt lat="42.90753" lon="0.14118">
        <ele>2015.4</ele>
        <time>2019-08-18T11:54:36Z</time>
      </trkpt>
      <trkpt lat="42.9075" lon="0.14123">
        <ele>2015.8</ele>
        <time>2019-08-18T11:54:38Z</time>
      </trkpt>
      <trkpt lat="42.90748" lon="0.14127">
        <ele>2016.1</ele>
        <time>2019-08-18T11:54:40Z</time>
      </trkpt>
      <trkpt lat="42.90746" lon="0.14132">
        <ele>2016.5</ele>
        <time>2019-08-18T11:54:42Z</time>
      </trkpt>
      <trkpt lat="42.90744" lon="0.14137">
        <ele>2016.9</ele>
        <time>2019-08-18T11:54:44Z</time>
      </trkpt>
      <trkpt lat="42.90742" lon="0.14142">
        <ele>2017.3</ele>
        <time>2019-08-18T11:54:46Z</time>
      </trkpt>
      <trkpt lat="42.9074" lon="0.14147">
        <ele>2017.6</ele>
        <time>2019-08-18T11:54:48Z</time>
      </trkpt>
      <trkpt lat="42.90738" lon="0.14152">
        <ele>2018</ele>
        <time>2019-08-18T11:54:50Z</time>
      </trkpt>
      <trkpt lat="42.90737" lon="0.14157">
        <ele>2018.3</ele>
        <time>2019-08-18T11:54:52Z</time>
      </trkpt>
      <trkpt lat="42.90736" lon="0.14162">
        <ele>2018.7</ele>
        <time>2019-08-18T11:54:54Z</time>
      </trkpt>
      <trkpt lat="42.90735" lon="0.14168">
        <ele>2019.1</ele>
        <time>2019-08-18T11:54:56Z</time>
      </trkpt>
      <trkpt lat="42.90735" lon="0.14173">
        <ele>2019.5</ele>
        <time>2019-08-18T11:54:58Z</time>
      </trkpt>
      <trkpt lat="42.90734" lon="0.14178">
        <ele>2019.9</ele>
        <time>2019-08-18T11:55:00Z</time>
      </trkpt>
      <trkpt lat="42.90732" lon="0.14183">
        <ele>2020.4</ele>
        <time>2019-08-18T11:55:02Z</time>
      </trkpt>
      <trkpt lat="42.90731" lon="0.14189">
        <ele>2020.9</ele>
        <time>2019-08-18T11:55:04Z</time>
      </trkpt>
      <trkpt lat="42.90729" lon="0.14194">
        <ele>2021.4</ele>
        <time>2019-08-18T11:55:06Z</time>
      </trkpt>
      <trkpt lat="42.90728" lon="0.14199">
        <ele>2021.8</ele>
        <time>2019-08-18T11:55:08Z</time>
      </trkpt>
      <trkpt lat="42.90726" lon="0.14205">
        <ele>2022.3</ele>
        <time>2019-08-18T11:55:10Z</time>
      </trkpt>
      <trkpt lat="42.90725" lon="0.1421">
        <ele>2022.9</ele>
        <time>2019-08-18T11:55:12Z</time>
      </trkpt>
      <trkpt lat="42.90724" lon="0.14215">
        <ele>2023.4</ele>
        <time>2019-08-18T11:55:14Z</time>
      </trkpt>
      <trkpt lat="42.90723" lon="0.1422">
        <ele>2023.9</ele>
        <time>2019-08-18T11:55:16Z</time>
      </trkpt>
      <trkpt lat="42.90723" lon="0.14225">
        <ele>2024.4</ele>
        <time>2019-08-18T11:55:18Z</time>
      </trkpt>
      <trkpt lat="42.90722" lon="0.1423">
        <ele>2024.8</ele>
        <time>2019-08-18T11:55:20Z</time>
      </trkpt>
      <trkpt lat="42.90722" lon="0.14235">
        <ele>2025.4</ele>
        <time>2019-08-18T11:55:22Z</time>
      </trkpt>
      <trkpt lat="42.90721" lon="0.1424">
        <ele>2026</ele>
        <time>2019-08-18T11:55:24Z</time>
      </trkpt>
      <trkpt lat="42.90722" lon="0.14246">
        <ele>2026.6</ele>
        <time>2019-08-18T11:55:26Z</time>
      </trkpt>
      <trkpt lat="42.90722" lon="0.14251">
        <ele>2027.1</ele>
        <time>2019-08-18T11:55:28Z</time>
      </trkpt>
      <trkpt lat="42.90722" lon="0.14257">
        <ele>2027.7</ele>
        <time>2019-08-18T11:55:30Z</time>
      </trkpt>
      <trkpt lat="42.90723" lon="0.14262">
        <ele>2028.2</ele>
        <time>2019-08-18T11:55:32Z</time>
      </trkpt>
      <trkpt lat="42.90725" lon="0.14266">
        <ele>2028.8</ele>
        <time>2019-08-18T11:55:34Z</time>
      </trkpt>
      <trkpt lat="42.90727" lon="0.14271">
        <ele>2029.4</ele>
        <time>2019-08-18T11:55:36Z</time>
      </trkpt>
      <trkpt lat="42.90728" lon="0.14275">
        <ele>2029.9</ele>
        <time>2019-08-18T11:55:38Z</time>
      </trkpt>
      <trkpt lat="42.90731" lon="0.14279">
        <ele>2030.5</ele>
        <time>2019-08-18T11:55:40Z</time>
      </trkpt>
      <trkpt lat="42.90733" lon="0.14284">
        <ele>2031</ele>
        <time>2019-08-18T11:55:42Z</time>
      </trkpt>
      <trkpt lat="42.90735" lon="0.14289">
        <ele>2031.6</ele>
        <time>2019-08-18T11:55:44Z</time>
      </trkpt>
      <trkpt lat="42.90737" lon="0.14293">
        <ele>2032.1</ele>
        <time>2019-08-18T11:55:46Z</time>
      </trkpt>
      <trkpt lat="42.90739" lon="0.14297">
        <ele>2032.6</ele>
        <time>2019-08-18T11:55:48Z</time>
      </trkpt>
      <trkpt lat="42.90742" lon="0.14302">
        <ele>2033</ele>
        <time>2019-08-18T11:55:50Z</time>
      </trkpt>
      <trkpt lat="42.90744" lon="0.14307">
        <ele>2033.5</ele>
        <time>2019-08-18T11:55:52Z</time>
      </trkpt>
      <trkpt lat="42.90745" lon="0.14311">
        <ele>2033.9</ele>
        <time>2019-08-18T11:55:54Z</time>
      </trkpt>
      <trkpt lat="42.90747" lon="0.14316">
        <ele>2034.4</ele>
        <time>2019-08-18T11:55:56Z</time>
      </trkpt>
      <trkpt lat="42.90748" lon="0.14321">
        <ele>2034.8</ele>
        <time>2019-08-18T11:55:58Z</time>
      </trkpt>
      <trkpt lat="42.90749" lon="0.14327">
        <ele>2035.3</ele>
        <time>2019-08-18T11:56:00Z</time>
      </trkpt>
      <trkpt lat="42.9075" lon="0.14332">
        <ele>2035.8</ele>
        <time>2019-08-18T11:56:02Z</time>
      </trkpt>
      <trkpt lat="42.9075" lon="0.14337">
        <ele>2036.2</ele>
        <time>2019-08-18T11:56:04Z</time>
      </trkpt>
      <trkpt lat="42.90751" lon="0.14343">
        <ele>2036.6</ele>
        <time>2019-08-18T11:56:06Z</time>
      </trkpt>
      <trkpt lat="42.90751" lon="0.14348">
        <ele>2037</ele>
        <time>2019-08-18T11:56:08Z</time>
      </trkpt>
      <trkpt lat="42.90751" lon="0.14354">
        <ele>2037.4</ele>
        <time>2019-08-18T11:56:10Z</time>
      </trkpt>
      <trkpt lat="42.90752" lon="0.14359">
        <ele>2037.8</ele>
        <time>2019-08-18T11:56:12Z</time>
      </trkpt>
      <trkpt lat="42.90751" lon="0.14365">
        <ele>2038.2</ele>
        <time>2019-08-18T11:56:14Z</time>
      </trkpt>
      <trkpt lat="42.90751" lon="0.14371">
        <ele>2038.6</ele>
        <time>2019-08-18T11:56:16Z</time>
      </trkpt>
      <trkpt lat="42.9075" lon="0.14376">
        <ele>2039</ele>
        <time>2019-08-18T11:56:18Z</time>
      </trkpt>
      <trkpt lat="42.90748" lon="0.14381">
        <ele>2039.4</ele>
        <time>2019-08-18T11:56:20Z</time>
      </trkpt>
      <trkpt lat="42.90746" lon="0.14386">
        <ele>2039.9</ele>
        <time>2019-08-18T11:56:22Z</time>
      </trkpt>
      <trkpt lat="42.90743" lon="0.14391">
        <ele>2040.3</ele>
        <time>2019-08-18T11:56:24Z</time>
      </trkpt>
      <trkpt lat="42.9074" lon="0.14394">
        <ele>2040.6</ele>
        <time>2019-08-18T11:56:26Z</time>
      </trkpt>
      <trkpt lat="42.90736" lon="0.14396">
        <ele>2041</ele>
        <time>2019-08-18T11:56:28Z</time>
      </trkpt>
      <trkpt lat="42.90733" lon="0.14398">
        <ele>2041.4</ele>
        <time>2019-08-18T11:56:30Z</time>
      </trkpt>
      <trkpt lat="42.90729" lon="0.14399">
        <ele>2041.9</ele>
        <time>2019-08-18T11:56:32Z</time>
      </trkpt>
      <trkpt lat="42.90725" lon="0.14401">
        <ele>2042.3</ele>
        <time>2019-08-18T11:56:34Z</time>
      </trkpt>
      <trkpt lat="42.90721" lon="0.14403">
        <ele>2042.7</ele>
        <time>2019-08-18T11:56:36Z</time>
      </trkpt>
      <trkpt lat="42.90719" lon="0.14407">
        <ele>2043.1</ele>
        <time>2019-08-18T11:56:38Z</time>
      </trkpt>
      <trkpt lat="42.90715" lon="0.1441">
        <ele>2043.5</ele>
        <time>2019-08-18T11:56:40Z</time>
      </trkpt>
      <trkpt lat="42.90712" lon="0.14413">
        <ele>2044</ele>
        <time>2019-08-18T11:56:42Z</time>
      </trkpt>
      <trkpt lat="42.90708" lon="0.14417">
        <ele>2044.4</ele>
        <time>2019-08-18T11:56:44Z</time>
      </trkpt>
      <trkpt lat="42.90705" lon="0.14421">
        <ele>2044.8</ele>
        <time>2019-08-18T11:56:46Z</time>
      </trkpt>
      <trkpt lat="42.90701" lon="0.14424">
        <ele>2045.2</ele>
        <time>2019-08-18T11:56:48Z</time>
      </trkpt>
      <trkpt lat="42.90697" lon="0.14427">
        <ele>2045.6</ele>
        <time>2019-08-18T11:56:50Z</time>
      </trkpt>
      <trkpt lat="42.90694" lon="0.14429">
        <ele>2045.9</ele>
        <time>2019-08-18T11:56:52Z</time>
      </trkpt>
      <trkpt lat="42.90691" lon="0.14431">
        <ele>2046.3</ele>
        <time>2019-08-18T11:56:54Z</time>
      </trkpt>
      <trkpt lat="42.90687" lon="0.14434">
        <ele>2046.6</ele>
        <time>2019-08-18T11:56:56Z</time>
      </trkpt>
      <trkpt lat="42.90683" lon="0.14437">
        <ele>2047</ele>
        <time>2019-08-18T11:56:58Z</time>
      </trkpt>
      <trkpt lat="42.90679" lon="0.14439">
        <ele>2047.3</ele>
        <time>2019-08-18T11:57:00Z</time>
      </trkpt>
      <trkpt lat="42.90675" lon="0.1444">
        <ele>2047.6</ele>
        <time>2019-08-18T11:57:02Z</time>
      </trkpt>
      <trkpt lat="42.90671" lon="0.14442">
        <ele>2048</ele>
        <time>2019-08-18T11:57:04Z</time>
      </trkpt>
      <trkpt lat="42.90667" lon="0.14443">
        <ele>2048.3</ele>
        <time>2019-08-18T11:57:06Z</time>
      </trkpt>
      <trkpt lat="42.90663" lon="0.14445">
        <ele>2048.6</ele>
        <time>2019-08-18T11:57:08Z</time>
      </trkpt>
      <trkpt lat="42.90659" lon="0.14447">
        <ele>2049</ele>
        <time>2019-08-18T11:57:10Z</time>
      </trkpt>
      <trkpt lat="42.90655" lon="0.14449">
        <ele>2049.3</ele>
        <time>2019-08-18T11:57:12Z</time>
      </trkpt>
      <trkpt lat="42.90652" lon="0.14451">
        <ele>2049.7</ele>
        <time>2019-08-18T11:57:14Z</time>
      </trkpt>
      <trkpt lat="42.90648" lon="0.14453">
        <ele>2050</ele>
        <time>2019-08-18T11:57:16Z</time>
      </trkpt>
      <trkpt lat="42.90644" lon="0.14454">
        <ele>2050.4</ele>
        <time>2019-08-18T11:57:18Z</time>
      </trkpt>
      <trkpt lat="42.9064" lon="0.14456">
        <ele>2050.8</ele>
        <time>2019-08-18T11:57:20Z</time>
      </trkpt>
      <trkpt lat="42.90636" lon="0.14459">
        <ele>2051.1</ele>
        <time>2019-08-18T11:57:22Z</time>
      </trkpt>
      <trkpt lat="42.90634" lon="0.14462">
        <ele>2051.5</ele>
        <time>2019-08-18T11:57:24Z</time>
      </trkpt>
      <trkpt lat="42.9063" lon="0.14466">
        <ele>2051.8</ele>
        <time>2019-08-18T11:57:26Z</time>
      </trkpt>
      <trkpt lat="42.90628" lon="0.1447">
        <ele>2052.2</ele>
        <time>2019-08-18T11:57:28Z</time>
      </trkpt>
      <trkpt lat="42.90625" lon="0.14474">
        <ele>2052.6</ele>
        <time>2019-08-18T11:57:30Z</time>
      </trkpt>
      <trkpt lat="42.90623" lon="0.14479">
        <ele>2053</ele>
        <time>2019-08-18T11:57:32Z</time>
      </trkpt>
      <trkpt lat="42.90621" lon="0.14484">
        <ele>2053.4</ele>
        <time>2019-08-18T11:57:34Z</time>
      </trkpt>
      <trkpt lat="42.90619" lon="0.14488">
        <ele>2053.8</ele>
        <time>2019-08-18T11:57:36Z</time>
      </trkpt>
      <trkpt lat="42.90617" lon="0.14494">
        <ele>2054.2</ele>
        <time>2019-08-18T11:57:38Z</time>
      </trkpt>
      <trkpt lat="42.90615" lon="0.14499">
        <ele>2054.6</ele>
        <time>2019-08-18T11:57:40Z</time>
      </trkpt>
      <trkpt lat="42.90613" lon="0.14504">
        <ele>2055</ele>
        <time>2019-08-18T11:57:42Z</time>
      </trkpt>
      <trkpt lat="42.90611" lon="0.14508">
        <ele>2055.4</ele>
        <time>2019-08-18T11:57:44Z</time>
      </trkpt>
      <trkpt lat="42.90609" lon="0.14512">
        <ele>2055.8</ele>
        <time>2019-08-18T11:57:46Z</time>
      </trkpt>
      <trkpt lat="42.90607" lon="0.14517">
        <ele>2056.2</ele>
        <time>2019-08-18T11:57:48Z</time>
      </trkpt>
      <trkpt lat="42.90605" lon="0.14521">
        <ele>2056.6</ele>
        <time>2019-08-18T11:57:50Z</time>
      </trkpt>
      <trkpt lat="42.90604" lon="0.14526">
        <ele>2057</ele>
        <time>2019-08-18T11:57:52Z</time>
      </trkpt>
      <trkpt lat="42.90604" lon="0.14532">
        <ele>2057.4</ele>
        <time>2019-08-18T11:57:54Z</time>
      </trkpt>
      <trkpt lat="42.90603" lon="0.14537">
        <ele>2057.9</ele>
        <time>2019-08-18T11:57:56Z</time>
      </trkpt>
      <trkpt lat="42.90601" lon="0.14543">
        <ele>2058.3</ele>
        <time>2019-08-18T11:57:58Z</time>
      </trkpt>
      <trkpt lat="42.90601" lon="0.14548">
        <ele>2058.8</ele>
        <time>2019-08-18T11:58:00Z</time>
      </trkpt>
      <trkpt lat="42.906" lon="0.14553">
        <ele>2059.2</ele>
        <time>2019-08-18T11:58:02Z</time>
      </trkpt>
      <trkpt lat="42.90599" lon="0.14558">
        <ele>2059.7</ele>
        <time>2019-08-18T11:58:04Z</time>
      </trkpt>
      <trkpt lat="42.90598" lon="0.14563">
        <ele>2060.1</ele>
        <time>2019-08-18T11:58:06Z</time>
      </trkpt>
      <trkpt lat="42.90597" lon="0.14568">
        <ele>2060.6</ele>
        <time>2019-08-18T11:58:08Z</time>
      </trkpt>
      <trkpt lat="42.90596" lon="0.14573">
        <ele>2061</ele>
        <time>2019-08-18T11:58:10Z</time>
      </trkpt>
      <trkpt lat="42.90595" lon="0.14578">
        <ele>2061.6</ele>
        <time>2019-08-18T11:58:12Z</time>
      </trkpt>
      <trkpt lat="42.90593" lon="0.14584">
        <ele>2062.1</ele>
        <time>2019-08-18T11:58:14Z</time>
      </trkpt>
      <trkpt lat="42.90591" lon="0.14588">
        <ele>2062.7</ele>
        <time>2019-08-18T11:58:16Z</time>
      </trkpt>
      <trkpt lat="42.90588" lon="0.14592">
        <ele>2063.1</ele>
        <time>2019-08-18T11:58:18Z</time>
      </trkpt>
      <trkpt lat="42.90586" lon="0.14597">
        <ele>2063.5</ele>
        <time>2019-08-18T11:58:20Z</time>
      </trkpt>
      <trkpt lat="42.90583" lon="0.14601">
        <ele>2064.1</ele>
        <time>2019-08-18T11:58:22Z</time>
      </trkpt>
      <trkpt lat="42.90581" lon="0.14606">
        <ele>2064.6</ele>
        <time>2019-08-18T11:58:24Z</time>
      </trkpt>
      <trkpt lat="42.90578" lon="0.1461">
        <ele>2065.1</ele>
        <time>2019-08-18T11:58:26Z</time>
      </trkpt>
      <trkpt lat="42.90576" lon="0.14615">
        <ele>2065.6</ele>
        <time>2019-08-18T11:58:28Z</time>
      </trkpt>
      <trkpt lat="42.90573" lon="0.1462">
        <ele>2066.2</ele>
        <time>2019-08-18T11:58:30Z</time>
      </trkpt>
      <trkpt lat="42.9057" lon="0.14624">
        <ele>2066.7</ele>
        <time>2019-08-18T11:58:32Z</time>
      </trkpt>
      <trkpt lat="42.90567" lon="0.14628">
        <ele>2067.2</ele>
        <time>2019-08-18T11:58:34Z</time>
      </trkpt>
      <trkpt lat="42.90564" lon="0.14631">
        <ele>2067.6</ele>
        <time>2019-08-18T11:58:36Z</time>
      </trkpt>
      <trkpt lat="42.90562" lon="0.14635">
        <ele>2068.1</ele>
        <time>2019-08-18T11:58:38Z</time>
      </trkpt>
      <trkpt lat="42.90558" lon="0.14637">
        <ele>2068.6</ele>
        <time>2019-08-18T11:58:40Z</time>
      </trkpt>
      <trkpt lat="42.90554" lon="0.1464">
        <ele>2069</ele>
        <time>2019-08-18T11:58:42Z</time>
      </trkpt>
      <trkpt lat="42.90551" lon="0.14642">
        <ele>2069.4</ele>
        <time>2019-08-18T11:58:44Z</time>
      </trkpt>
      <trkpt lat="42.90546" lon="0.14643">
        <ele>2069.8</ele>
        <time>2019-08-18T11:58:46Z</time>
      </trkpt>
      <trkpt lat="42.90541" lon="0.14644">
        <ele>2070.2</ele>
        <time>2019-08-18T11:58:48Z</time>
      </trkpt>
      <trkpt lat="42.90537" lon="0.14646">
        <ele>2070.6</ele>
        <time>2019-08-18T11:58:50Z</time>
      </trkpt>
      <trkpt lat="42.90532" lon="0.14647">
        <ele>2071</ele>
        <time>2019-08-18T11:58:52Z</time>
      </trkpt>
      <trkpt lat="42.90528" lon="0.14648">
        <ele>2071.4</ele>
        <time>2019-08-18T11:58:54Z</time>
      </trkpt>
      <trkpt lat="42.90524" lon="0.14649">
        <ele>2071.7</ele>
        <time>2019-08-18T11:58:56Z</time>
      </trkpt>
      <trkpt lat="42.9052" lon="0.1465">
        <ele>2072.1</ele>
        <time>2019-08-18T11:58:58Z</time>
      </trkpt>
      <trkpt lat="42.90517" lon="0.14654">
        <ele>2072.5</ele>
        <time>2019-08-18T11:59:00Z</time>
      </trkpt>
      <trkpt lat="42.90516" lon="0.1466">
        <ele>2073</ele>
        <time>2019-08-18T11:59:02Z</time>
      </trkpt>
      <trkpt lat="42.90517" lon="0.14666">
        <ele>2073.6</ele>
        <time>2019-08-18T11:59:04Z</time>
      </trkpt>
      <trkpt lat="42.9052" lon="0.14671">
        <ele>2074.2</ele>
        <time>2019-08-18T11:59:06Z</time>
      </trkpt>
      <trkpt lat="42.90523" lon="0.14675">
        <ele>2074.8</ele>
        <time>2019-08-18T11:59:08Z</time>
      </trkpt>
      <trkpt lat="42.90527" lon="0.14677">
        <ele>2075.3</ele>
        <time>2019-08-18T11:59:10Z</time>
      </trkpt>
      <trkpt lat="42.90531" lon="0.14675">
        <ele>2075.9</ele>
        <time>2019-08-18T11:59:12Z</time>
      </trkpt>
      <trkpt lat="42.90535" lon="0.14674">
        <ele>2076.5</ele>
        <time>2019-08-18T11:59:14Z</time>
      </trkpt>
      <trkpt lat="42.90539" lon="0.14672">
        <ele>2077.1</ele>
        <time>2019-08-18T11:59:16Z</time>
      </trkpt>
      <trkpt lat="42.90543" lon="0.14671">
        <ele>2077.5</ele>
        <time>2019-08-18T11:59:18Z</time>
      </trkpt>
      <trkpt lat="42.90547" lon="0.14669">
        <ele>2078</ele>
        <time>2019-08-18T11:59:20Z</time>
      </trkpt>
      <trkpt lat="42.9055" lon="0.14667">
        <ele>2078.4</ele>
        <time>2019-08-18T11:59:22Z</time>
      </trkpt>
      <trkpt lat="42.90554" lon="0.14665">
        <ele>2078.9</ele>
        <time>2019-08-18T11:59:24Z</time>
      </trkpt>
      <trkpt lat="42.90558" lon="0.14663">
        <ele>2079.3</ele>
        <time>2019-08-18T11:59:26Z</time>
      </trkpt>
      <trkpt lat="42.90562" lon="0.14662">
        <ele>2079.8</ele>
        <time>2019-08-18T11:59:28Z</time>
      </trkpt>
      <trkpt lat="42.90566" lon="0.1466">
        <ele>2080.2</ele>
        <time>2019-08-18T11:59:30Z</time>
      </trkpt>
      <trkpt lat="42.9057" lon="0.14657">
        <ele>2080.7</ele>
        <time>2019-08-18T11:59:32Z</time>
      </trkpt>
      <trkpt lat="42.90575" lon="0.14655">
        <ele>2081.2</ele>
        <time>2019-08-18T11:59:34Z</time>
      </trkpt>
      <trkpt lat="42.90579" lon="0.14652">
        <ele>2081.7</ele>
        <time>2019-08-18T11:59:36Z</time>
      </trkpt>
      <trkpt lat="42.90582" lon="0.14649">
        <ele>2082.1</ele>
        <time>2019-08-18T11:59:38Z</time>
      </trkpt>
      <trkpt lat="42.90585" lon="0.14646">
        <ele>2082.6</ele>
        <time>2019-08-18T11:59:40Z</time>
      </trkpt>
      <trkpt lat="42.90588" lon="0.14642">
        <ele>2083.1</ele>
        <time>2019-08-18T11:59:42Z</time>
      </trkpt>
      <trkpt lat="42.90591" lon="0.14637">
        <ele>2083.6</ele>
        <time>2019-08-18T11:59:44Z</time>
      </trkpt>
      <trkpt lat="42.90593" lon="0.14632">
        <ele>2084</ele>
        <time>2019-08-18T11:59:46Z</time>
      </trkpt>
      <trkpt lat="42.90596" lon="0.14628">
        <ele>2084.5</ele>
        <time>2019-08-18T11:59:48Z</time>
      </trkpt>
      <trkpt lat="42.90601" lon="0.14625">
        <ele>2085.1</ele>
        <time>2019-08-18T11:59:50Z</time>
      </trkpt>
      <trkpt lat="42.90604" lon="0.14622">
        <ele>2085.5</ele>
        <time>2019-08-18T11:59:52Z</time>
      </trkpt>
      <trkpt lat="42.90608" lon="0.14619">
        <ele>2086</ele>
        <time>2019-08-18T11:59:54Z</time>
      </trkpt>
      <trkpt lat="42.90611" lon="0.14616">
        <ele>2086.5</ele>
        <time>2019-08-18T11:59:56Z</time>
      </trkpt>
      <trkpt lat="42.90615" lon="0.14612">
        <ele>2087</ele>
        <time>2019-08-18T11:59:58Z</time>
      </trkpt>
      <trkpt lat="42.90618" lon="0.14608">
        <ele>2087.4</ele>
        <time>2019-08-18T12:00:00Z</time>
      </trkpt>
      <trkpt lat="42.90622" lon="0.14605">
        <ele>2087.8</ele>
        <time>2019-08-18T12:00:02Z</time>
      </trkpt>
      <trkpt lat="42.90626" lon="0.14602">
        <ele>2088.2</ele>
        <time>2019-08-18T12:00:04Z</time>
      </trkpt>
      <trkpt lat="42.9063" lon="0.14599">
        <ele>2088.7</ele>
        <time>2019-08-18T12:00:06Z</time>
      </trkpt>
      <trkpt lat="42.90634" lon="0.14596">
        <ele>2089.1</ele>
        <time>2019-08-18T12:00:08Z</time>
      </trkpt>
      <trkpt lat="42.90638" lon="0.14594">
        <ele>2089.5</ele>
        <time>2019-08-18T12:00:10Z</time>
      </trkpt>
      <trkpt lat="42.90641" lon="0.14592">
        <ele>2090</ele>
        <time>2019-08-18T12:00:12Z</time>
      </trkpt>
      <trkpt lat="42.90645" lon="0.1459">
        <ele>2090.4</ele>
        <time>2019-08-18T12:00:14Z</time>
      </trkpt>
      <trkpt lat="42.90648" lon="0.14588">
        <ele>2090.8</ele>
        <time>2019-08-18T12:00:16Z</time>
      </trkpt>
      <trkpt lat="42.90651" lon="0.14585">
        <ele>2091.3</ele>
        <time>2019-08-18T12:00:18Z</time>
      </trkpt>
      <trkpt lat="42.90655" lon="0.14583">
        <ele>2091.9</ele>
        <time>2019-08-18T12:00:20Z</time>
      </trkpt>
      <trkpt lat="42.90659" lon="0.14581">
        <ele>2092.4</ele>
        <time>2019-08-18T12:00:22Z</time>
      </trkpt>
      <trkpt lat="42.90663" lon="0.14578">
        <ele>2093.1</ele>
        <time>2019-08-18T12:00:24Z</time>
      </trkpt>
      <trkpt lat="42.90667" lon="0.14576">
        <ele>2093.7</ele>
        <time>2019-08-18T12:00:26Z</time>
      </trkpt>
      <trkpt lat="42.90671" lon="0.14573">
        <ele>2094.3</ele>
        <time>2019-08-18T12:00:28Z</time>
      </trkpt>
      <trkpt lat="42.90675" lon="0.14569">
        <ele>2095</ele>
        <time>2019-08-18T12:00:30Z</time>
      </trkpt>
      <trkpt lat="42.90677" lon="0.14565">
        <ele>2095.5</ele>
        <time>2019-08-18T12:00:32Z</time>
      </trkpt>
      <trkpt lat="42.9068" lon="0.14561">
        <ele>2096</ele>
        <time>2019-08-18T12:00:34Z</time>
      </trkpt>
      <trkpt lat="42.90682" lon="0.14556">
        <ele>2096.5</ele>
        <time>2019-08-18T12:00:36Z</time>
      </trkpt>
      <trkpt lat="42.90685" lon="0.14551">
        <ele>2097.1</ele>
        <time>2019-08-18T12:00:38Z</time>
      </trkpt>
      <trkpt lat="42.90687" lon="0.14547">
        <ele>2097.6</ele>
        <time>2019-08-18T12:00:40Z</time>
      </trkpt>
      <trkpt lat="42.90689" lon="0.14543">
        <ele>2098</ele>
        <time>2019-08-18T12:00:42Z</time>
      </trkpt>
      <trkpt lat="42.90692" lon="0.14539">
        <ele>2098.5</ele>
        <time>2019-08-18T12:00:44Z</time>
      </trkpt>
      <trkpt lat="42.90694" lon="0.14536">
        <ele>2098.9</ele>
        <time>2019-08-18T12:00:46Z</time>
      </trkpt>
      <trkpt lat="42.90697" lon="0.14533">
        <ele>2099.4</ele>
        <time>2019-08-18T12:00:48Z</time>
      </trkpt>
      <trkpt lat="42.907" lon="0.14531">
        <ele>2099.8</ele>
        <time>2019-08-18T12:00:50Z</time>
      </trkpt>
      <trkpt lat="42.90704" lon="0.1453">
        <ele>2100.2</ele>
        <time>2019-08-18T12:00:52Z</time>
      </trkpt>
      <trkpt lat="42.90708" lon="0.14529">
        <ele>2100.8</ele>
        <time>2019-08-18T12:00:54Z</time>
      </trkpt>
      <trkpt lat="42.90711" lon="0.14528">
        <ele>2101.2</ele>
        <time>2019-08-18T12:00:56Z</time>
      </trkpt>
      <trkpt lat="42.90715" lon="0.14526">
        <ele>2101.7</ele>
        <time>2019-08-18T12:00:58Z</time>
      </trkpt>
      <trkpt lat="42.90719" lon="0.14525">
        <ele>2102.2</ele>
        <time>2019-08-18T12:01:00Z</time>
      </trkpt>
      <trkpt lat="42.90722" lon="0.14524">
        <ele>2102.7</ele>
        <time>2019-08-18T12:01:02Z</time>
      </trkpt>
      <trkpt lat="42.90726" lon="0.14522">
        <ele>2103.1</ele>
        <time>2019-08-18T12:01:04Z</time>
      </trkpt>
      <trkpt lat="42.9073" lon="0.14521">
        <ele>2103.6</ele>
        <time>2019-08-18T12:01:06Z</time>
      </trkpt>
      <trkpt lat="42.90733" lon="0.14519">
        <ele>2104</ele>
        <time>2019-08-18T12:01:08Z</time>
      </trkpt>
      <trkpt lat="42.90736" lon="0.14518">
        <ele>2104.4</ele>
        <time>2019-08-18T12:01:10Z</time>
      </trkpt>
      <trkpt lat="42.9074" lon="0.14517">
        <ele>2104.9</ele>
        <time>2019-08-18T12:01:12Z</time>
      </trkpt>
      <trkpt lat="42.90743" lon="0.14516">
        <ele>2105.3</ele>
        <time>2019-08-18T12:01:14Z</time>
      </trkpt>
      <trkpt lat="42.90747" lon="0.14516">
        <ele>2105.8</ele>
        <time>2019-08-18T12:01:16Z</time>
      </trkpt>
      <trkpt lat="42.90751" lon="0.14516">
        <ele>2106.3</ele>
        <time>2019-08-18T12:01:18Z</time>
      </trkpt>
      <trkpt lat="42.90756" lon="0.14516">
        <ele>2106.9</ele>
        <time>2019-08-18T12:01:20Z</time>
      </trkpt>
      <trkpt lat="42.90759" lon="0.14518">
        <ele>2107.3</ele>
        <time>2019-08-18T12:01:22Z</time>
      </trkpt>
      <trkpt lat="42.90764" lon="0.14519">
        <ele>2107.9</ele>
        <time>2019-08-18T12:01:24Z</time>
      </trkpt>
      <trkpt lat="42.90767" lon="0.14521">
        <ele>2108.3</ele>
        <time>2019-08-18T12:01:26Z</time>
      </trkpt>
      <trkpt lat="42.90771" lon="0.14523">
        <ele>2108.8</ele>
        <time>2019-08-18T12:01:28Z</time>
      </trkpt>
      <trkpt lat="42.90775" lon="0.14524">
        <ele>2109.4</ele>
        <time>2019-08-18T12:01:30Z</time>
      </trkpt>
      <trkpt lat="42.90779" lon="0.14525">
        <ele>2110</ele>
        <time>2019-08-18T12:01:32Z</time>
      </trkpt>
      <trkpt lat="42.90784" lon="0.14525">
        <ele>2110.6</ele>
        <time>2019-08-18T12:01:34Z</time>
      </trkpt>
      <trkpt lat="42.90788" lon="0.14524">
        <ele>2111.1</ele>
        <time>2019-08-18T12:01:36Z</time>
      </trkpt>
      <trkpt lat="42.90792" lon="0.14522">
        <ele>2111.7</ele>
        <time>2019-08-18T12:01:38Z</time>
      </trkpt>
      <trkpt lat="42.90797" lon="0.1452">
        <ele>2112.2</ele>
        <time>2019-08-18T12:01:40Z</time>
      </trkpt>
      <trkpt lat="42.90801" lon="0.14519">
        <ele>2112.8</ele>
        <time>2019-08-18T12:01:42Z</time>
      </trkpt>
      <trkpt lat="42.90805" lon="0.14517">
        <ele>2113.2</ele>
        <time>2019-08-18T12:01:44Z</time>
      </trkpt>
      <trkpt lat="42.90809" lon="0.14515">
        <ele>2113.7</ele>
        <time>2019-08-18T12:01:46Z</time>
      </trkpt>
      <trkpt lat="42.90813" lon="0.14515">
        <ele>2114.1</ele>
        <time>2019-08-18T12:01:48Z</time>
      </trkpt>
      <trkpt lat="42.90817" lon="0.14515">
        <ele>2114.6</ele>
        <time>2019-08-18T12:01:50Z</time>
      </trkpt>
      <trkpt lat="42.90821" lon="0.14515">
        <ele>2115</ele>
        <time>2019-08-18T12:01:52Z</time>
      </trkpt>
      <trkpt lat="42.90825" lon="0.14516">
        <ele>2115.4</ele>
        <time>2019-08-18T12:01:54Z</time>
      </trkpt>
      <trkpt lat="42.90828" lon="0.14518">
        <ele>2117.2</ele>
        <time>2019-08-18T12:01:56Z</time>
      </trkpt>
      <trkpt lat="42.90832" lon="0.1452">
        <ele>2118</ele>
        <time>2019-08-18T12:01:58Z</time>
      </trkpt>
      <trkpt lat="42.90835" lon="0.14523">
        <ele>2118.9</ele>
        <time>2019-08-18T12:02:00Z</time>
      </trkpt>
      <trkpt lat="42.90843" lon="0.14479">
        <ele>2121.5</ele>
        <time>2019-08-18T12:50:42Z</time>
      </trkpt>
      <trkpt lat="42.9084" lon="0.14486">
        <ele>2120.7</ele>
        <time>2019-08-18T12:50:44Z</time>
      </trkpt>
      <trkpt lat="42.90839" lon="0.1449">
        <ele>2120.2</ele>
        <time>2019-08-18T12:50:45Z</time>
      </trkpt>
      <trkpt lat="42.90837" lon="0.14496">
        <ele>2119</ele>
        <time>2019-08-18T12:50:47Z</time>
      </trkpt>
      <trkpt lat="42.90834" lon="0.145">
        <ele>2118.2</ele>
        <time>2019-08-18T12:50:48Z</time>
      </trkpt>
      <trkpt lat="42.9083" lon="0.14503">
        <ele>2117.2</ele>
        <time>2019-08-18T12:50:49Z</time>
      </trkpt>
      <trkpt lat="42.90826" lon="0.14506">
        <ele>2116.1</ele>
        <time>2019-08-18T12:50:50Z</time>
      </trkpt>
      <trkpt lat="42.90818" lon="0.14507">
        <ele>2114.7</ele>
        <time>2019-08-18T12:50:51Z</time>
      </trkpt>
      <trkpt lat="42.90815" lon="0.14509">
        <ele>2114.3</ele>
        <time>2019-08-18T12:50:52Z</time>
      </trkpt>
      <trkpt lat="42.90809" lon="0.1451">
        <ele>2113.7</ele>
        <time>2019-08-18T12:50:53Z</time>
      </trkpt>
      <trkpt lat="42.90804" lon="0.14512">
        <ele>2113.1</ele>
        <time>2019-08-18T12:50:54Z</time>
      </trkpt>
      <trkpt lat="42.90798" lon="0.14515">
        <ele>2112.4</ele>
        <time>2019-08-18T12:50:55Z</time>
      </trkpt>
      <trkpt lat="42.90792" lon="0.14518">
        <ele>2111.5</ele>
        <time>2019-08-18T12:50:56Z</time>
      </trkpt>
      <trkpt lat="42.90784" lon="0.1452">
        <ele>2110.6</ele>
        <time>2019-08-18T12:50:57Z</time>
      </trkpt>
      <trkpt lat="42.90777" lon="0.14519">
        <ele>2109.6</ele>
        <time>2019-08-18T12:50:58Z</time>
      </trkpt>
      <trkpt lat="42.9077" lon="0.14516">
        <ele>2108.6</ele>
        <time>2019-08-18T12:50:59Z</time>
      </trkpt>
      <trkpt lat="42.90762" lon="0.14513">
        <ele>2107.5</ele>
        <time>2019-08-18T12:51:00Z</time>
      </trkpt>
      <trkpt lat="42.90752" lon="0.14512">
        <ele>2106.3</ele>
        <time>2019-08-18T12:51:01Z</time>
      </trkpt>
      <trkpt lat="42.90742" lon="0.14512">
        <ele>2105.1</ele>
        <time>2019-08-18T12:51:02Z</time>
      </trkpt>
      <trkpt lat="42.90733" lon="0.14512">
        <ele>2103.8</ele>
        <time>2019-08-18T12:51:03Z</time>
      </trkpt>
      <trkpt lat="42.90722" lon="0.14513">
        <ele>2102.5</ele>
        <time>2019-08-18T12:51:04Z</time>
      </trkpt>
      <trkpt lat="42.90713" lon="0.14516">
        <ele>2101.3</ele>
        <time>2019-08-18T12:51:05Z</time>
      </trkpt>
      <trkpt lat="42.90704" lon="0.14517">
        <ele>2100.2</ele>
        <time>2019-08-18T12:51:06Z</time>
      </trkpt>
      <trkpt lat="42.90695" lon="0.14521">
        <ele>2099</ele>
        <time>2019-08-18T12:51:07Z</time>
      </trkpt>
      <trkpt lat="42.90686" lon="0.14526">
        <ele>2097.7</ele>
        <time>2019-08-18T12:51:08Z</time>
      </trkpt>
      <trkpt lat="42.90679" lon="0.14537">
        <ele>2096.4</ele>
        <time>2019-08-18T12:51:09Z</time>
      </trkpt>
      <trkpt lat="42.90674" lon="0.14549">
        <ele>2095</ele>
        <time>2019-08-18T12:51:10Z</time>
      </trkpt>
      <trkpt lat="42.90667" lon="0.14558">
        <ele>2093.7</ele>
        <time>2019-08-18T12:51:11Z</time>
      </trkpt>
      <trkpt lat="42.90658" lon="0.14565">
        <ele>2092.2</ele>
        <time>2019-08-18T12:51:12Z</time>
      </trkpt>
      <trkpt lat="42.90649" lon="0.14572">
        <ele>2090.9</ele>
        <time>2019-08-18T12:51:13Z</time>
      </trkpt>
      <trkpt lat="42.9064" lon="0.14579">
        <ele>2089.6</ele>
        <time>2019-08-18T12:51:14Z</time>
      </trkpt>
      <trkpt lat="42.90631" lon="0.14588">
        <ele>2088.5</ele>
        <time>2019-08-18T12:51:15Z</time>
      </trkpt>
      <trkpt lat="42.90621" lon="0.14596">
        <ele>2087.3</ele>
        <time>2019-08-18T12:51:16Z</time>
      </trkpt>
      <trkpt lat="42.90613" lon="0.14606">
        <ele>2086.2</ele>
        <time>2019-08-18T12:51:17Z</time>
      </trkpt>
      <trkpt lat="42.90604" lon="0.14615">
        <ele>2084.9</ele>
        <time>2019-08-18T12:51:18Z</time>
      </trkpt>
      <trkpt lat="42.90596" lon="0.14624">
        <ele>2083.7</ele>
        <time>2019-08-18T12:51:19Z</time>
      </trkpt>
      <trkpt lat="42.90589" lon="0.14635">
        <ele>2082.5</ele>
        <time>2019-08-18T12:51:20Z</time>
      </trkpt>
      <trkpt lat="42.90581" lon="0.14645">
        <ele>2081.3</ele>
        <time>2019-08-18T12:51:21Z</time>
      </trkpt>
      <trkpt lat="42.90573" lon="0.14653">
        <ele>2080.2</ele>
        <time>2019-08-18T12:51:22Z</time>
      </trkpt>
      <trkpt lat="42.90565" lon="0.14659">
        <ele>2079.2</ele>
        <time>2019-08-18T12:51:23Z</time>
      </trkpt>
      <trkpt lat="42.90557" lon="0.14664">
        <ele>2078.3</ele>
        <time>2019-08-18T12:51:24Z</time>
      </trkpt>
      <trkpt lat="42.9055" lon="0.14667">
        <ele>2077.4</ele>
        <time>2019-08-18T12:51:25Z</time>
      </trkpt>
      <trkpt lat="42.90544" lon="0.1467">
        <ele>2076.6</ele>
        <time>2019-08-18T12:51:26Z</time>
      </trkpt>
      <trkpt lat="42.90538" lon="0.14673">
        <ele>2075.7</ele>
        <time>2019-08-18T12:51:27Z</time>
      </trkpt>
      <trkpt lat="42.90534" lon="0.14676">
        <ele>2075</ele>
        <time>2019-08-18T12:51:28Z</time>
      </trkpt>
      <trkpt lat="42.9053" lon="0.14675">
        <ele>2074.4</ele>
        <time>2019-08-18T12:51:29Z</time>
      </trkpt>
      <trkpt lat="42.90527" lon="0.14671">
        <ele>2073.9</ele>
        <time>2019-08-18T12:51:30Z</time>
      </trkpt>
      <trkpt lat="42.90525" lon="0.14665">
        <ele>2073.3</ele>
        <time>2019-08-18T12:51:31Z</time>
      </trkpt>
      <trkpt lat="42.90527" lon="0.14659">
        <ele>2072.8</ele>
        <time>2019-08-18T12:51:32Z</time>
      </trkpt>
      <trkpt lat="42.90532" lon="0.14656">
        <ele>2072.2</ele>
        <time>2019-08-18T12:51:33Z</time>
      </trkpt>
      <trkpt lat="42.90538" lon="0.14653">
        <ele>2071.6</ele>
        <time>2019-08-18T12:51:34Z</time>
      </trkpt>
      <trkpt lat="42.90544" lon="0.1465">
        <ele>2071</ele>
        <time>2019-08-18T12:51:35Z</time>
      </trkpt>
      <trkpt lat="42.90551" lon="0.14647">
        <ele>2070.4</ele>
        <time>2019-08-18T12:51:36Z</time>
      </trkpt>
      <trkpt lat="42.90557" lon="0.14642">
        <ele>2069.8</ele>
        <time>2019-08-18T12:51:37Z</time>
      </trkpt>
      <trkpt lat="42.90564" lon="0.14635">
        <ele>2069</ele>
        <time>2019-08-18T12:51:38Z</time>
      </trkpt>
      <trkpt lat="42.9057" lon="0.14627">
        <ele>2068</ele>
        <time>2019-08-18T12:51:39Z</time>
      </trkpt>
      <trkpt lat="42.90576" lon="0.14619">
        <ele>2067</ele>
        <time>2019-08-18T12:51:40Z</time>
      </trkpt>
      <trkpt lat="42.90582" lon="0.14609">
        <ele>2065.8</ele>
        <time>2019-08-18T12:51:41Z</time>
      </trkpt>
      <trkpt lat="42.90587" lon="0.14598">
        <ele>2064.6</ele>
        <time>2019-08-18T12:51:42Z</time>
      </trkpt>
      <trkpt lat="42.90592" lon="0.14587">
        <ele>2063.4</ele>
        <time>2019-08-18T12:51:43Z</time>
      </trkpt>
      <trkpt lat="42.90598" lon="0.14575">
        <ele>2062.1</ele>
        <time>2019-08-18T12:51:44Z</time>
      </trkpt>
      <trkpt lat="42.90602" lon="0.14562">
        <ele>2060.8</ele>
        <time>2019-08-18T12:51:45Z</time>
      </trkpt>
      <trkpt lat="42.90605" lon="0.14548">
        <ele>2059.4</ele>
        <time>2019-08-18T12:51:46Z</time>
      </trkpt>
      <trkpt lat="42.90609" lon="0.14533">
        <ele>2058.1</ele>
        <time>2019-08-18T12:51:47Z</time>
      </trkpt>
      <trkpt lat="42.90613" lon="0.14519">
        <ele>2056.8</ele>
        <time>2019-08-18T12:51:48Z</time>
      </trkpt>
      <trkpt lat="42.90618" lon="0.14507">
        <ele>2055.8</ele>
        <time>2019-08-18T12:51:49Z</time>
      </trkpt>
      <trkpt lat="42.90622" lon="0.14494">
        <ele>2054.7</ele>
        <time>2019-08-18T12:51:50Z</time>
      </trkpt>
      <trkpt lat="42.90628" lon="0.14482">
        <ele>2053.7</ele>
        <time>2019-08-18T12:51:51Z</time>
      </trkpt>
      <trkpt lat="42.90634" lon="0.1447">
        <ele>2052.6</ele>
        <time>2019-08-18T12:51:52Z</time>
      </trkpt>
      <trkpt lat="42.90643" lon="0.14462">
        <ele>2051.6</ele>
        <time>2019-08-18T12:51:53Z</time>
      </trkpt>
      <trkpt lat="42.90653" lon="0.14455">
        <ele>2050.6</ele>
        <time>2019-08-18T12:51:54Z</time>
      </trkpt>
      <trkpt lat="42.90664" lon="0.1445">
        <ele>2049.6</ele>
        <time>2019-08-18T12:51:55Z</time>
      </trkpt>
      <trkpt lat="42.90674" lon="0.14444">
        <ele>2048.6</ele>
        <time>2019-08-18T12:51:56Z</time>
      </trkpt>
      <trkpt lat="42.90686" lon="0.14439">
        <ele>2047.6</ele>
        <time>2019-08-18T12:51:57Z</time>
      </trkpt>
      <trkpt lat="42.90697" lon="0.14432">
        <ele>2046.6</ele>
        <time>2019-08-18T12:51:58Z</time>
      </trkpt>
      <trkpt lat="42.90706" lon="0.14423">
        <ele>2045.6</ele>
        <time>2019-08-18T12:51:59Z</time>
      </trkpt>
      <trkpt lat="42.90715" lon="0.14416">
        <ele>2044.7</ele>
        <time>2019-08-18T12:52:00Z</time>
      </trkpt>
      <trkpt lat="42.90724" lon="0.1441">
        <ele>2043.7</ele>
        <time>2019-08-18T12:52:01Z</time>
      </trkpt>
      <trkpt lat="42.90732" lon="0.14404">
        <ele>2042.7</ele>
        <time>2019-08-18T12:52:02Z</time>
      </trkpt>
      <trkpt lat="42.9074" lon="0.14397">
        <ele>2041.7</ele>
        <time>2019-08-18T12:52:03Z</time>
      </trkpt>
      <trkpt lat="42.90746" lon="0.1439">
        <ele>2040.8</ele>
        <time>2019-08-18T12:52:04Z</time>
      </trkpt>
      <trkpt lat="42.9075" lon="0.14379">
        <ele>2039.9</ele>
        <time>2019-08-18T12:52:05Z</time>
      </trkpt>
      <trkpt lat="42.90753" lon="0.14367">
        <ele>2038.9</ele>
        <time>2019-08-18T12:52:06Z</time>
      </trkpt>
      <trkpt lat="42.90753" lon="0.14353">
        <ele>2037.9</ele>
        <time>2019-08-18T12:52:07Z</time>
      </trkpt>
      <trkpt lat="42.90751" lon="0.14338">
        <ele>2036.9</ele>
        <time>2019-08-18T12:52:08Z</time>
      </trkpt>
      <trkpt lat="42.90749" lon="0.14325">
        <ele>2035.7</ele>
        <time>2019-08-18T12:52:09Z</time>
      </trkpt>
      <trkpt lat="42.90746" lon="0.14312">
        <ele>2034.6</ele>
        <time>2019-08-18T12:52:10Z</time>
      </trkpt>
      <trkpt lat="42.90742" lon="0.14299">
        <ele>2033.4</ele>
        <time>2019-08-18T12:52:11Z</time>
      </trkpt>
      <trkpt lat="42.90736" lon="0.14288">
        <ele>2032.2</ele>
        <time>2019-08-18T12:52:12Z</time>
      </trkpt>
      <trkpt lat="42.90731" lon="0.14278">
        <ele>2031.1</ele>
        <time>2019-08-18T12:52:13Z</time>
      </trkpt>
      <trkpt lat="42.90727" lon="0.14268">
        <ele>2029.8</ele>
        <time>2019-08-18T12:52:14Z</time>
      </trkpt>
      <trkpt lat="42.90725" lon="0.14257">
        <ele>2028.5</ele>
        <time>2019-08-18T12:52:15Z</time>
      </trkpt>
      <trkpt lat="42.90724" lon="0.14245">
        <ele>2027.3</ele>
        <time>2019-08-18T12:52:16Z</time>
      </trkpt>
      <trkpt lat="42.90724" lon="0.14233">
        <ele>2026</ele>
        <time>2019-08-18T12:52:17Z</time>
      </trkpt>
      <trkpt lat="42.90726" lon="0.1422">
        <ele>2024.6</ele>
        <time>2019-08-18T12:52:18Z</time>
      </trkpt>
      <trkpt lat="42.90729" lon="0.14207">
        <ele>2023.3</ele>
        <time>2019-08-18T12:52:19Z</time>
      </trkpt>
      <trkpt lat="42.90731" lon="0.14194">
        <ele>2021.9</ele>
        <time>2019-08-18T12:52:20Z</time>
      </trkpt>
      <trkpt lat="42.90735" lon="0.14181">
        <ele>2020.8</ele>
        <time>2019-08-18T12:52:21Z</time>
      </trkpt>
      <trkpt lat="42.90738" lon="0.14169">
        <ele>2019.7</ele>
        <time>2019-08-18T12:52:22Z</time>
      </trkpt>
      <trkpt lat="42.90742" lon="0.14155">
        <ele>2018.6</ele>
        <time>2019-08-18T12:52:23Z</time>
      </trkpt>
      <trkpt lat="42.90746" lon="0.14143">
        <ele>2017.6</ele>
        <time>2019-08-18T12:52:24Z</time>
      </trkpt>
      <trkpt lat="42.90751" lon="0.1413">
        <ele>2016.7</ele>
        <time>2019-08-18T12:52:25Z</time>
      </trkpt>
      <trkpt lat="42.90757" lon="0.1412">
        <ele>2015.8</ele>
        <time>2019-08-18T12:52:26Z</time>
      </trkpt>
      <trkpt lat="42.90764" lon="0.1411">
        <ele>2014.9</ele>
        <time>2019-08-18T12:52:27Z</time>
      </trkpt>
      <trkpt lat="42.90771" lon="0.14101">
        <ele>2014</ele>
        <time>2019-08-18T12:52:28Z</time>
      </trkpt>
      <trkpt lat="42.90778" lon="0.14091">
        <ele>2013</ele>
        <time>2019-08-18T12:52:29Z</time>
      </trkpt>
      <trkpt lat="42.90784" lon="0.14083">
        <ele>2011.9</ele>
        <time>2019-08-18T12:52:30Z</time>
      </trkpt>
      <trkpt lat="42.90792" lon="0.14076">
        <ele>2010.7</ele>
        <time>2019-08-18T12:52:31Z</time>
      </trkpt>
      <trkpt lat="42.90798" lon="0.14069">
        <ele>2009.6</ele>
        <time>2019-08-18T12:52:32Z</time>
      </trkpt>
      <trkpt lat="42.90804" lon="0.14059">
        <ele>2008.5</ele>
        <time>2019-08-18T12:52:33Z</time>
      </trkpt>
      <trkpt lat="42.90807" lon="0.14051">
        <ele>2007.6</ele>
        <time>2019-08-18T12:52:34Z</time>
      </trkpt>
      <trkpt lat="42.90812" lon="0.14045">
        <ele>2006.8</ele>
        <time>2019-08-18T12:52:35Z</time>
      </trkpt>
      <trkpt lat="42.90815" lon="0.14039">
        <ele>2006.2</ele>
        <time>2019-08-18T12:52:36Z</time>
      </trkpt>
      <trkpt lat="42.9082" lon="0.14033">
        <ele>2005.5</ele>
        <time>2019-08-18T12:52:37Z</time>
      </trkpt>
      <trkpt lat="42.90826" lon="0.1403">
        <ele>2004.9</ele>
        <time>2019-08-18T12:52:38Z</time>
      </trkpt>
      <trkpt lat="42.90833" lon="0.14025">
        <ele>2004.1</ele>
        <time>2019-08-18T12:52:39Z</time>
      </trkpt>
      <trkpt lat="42.90839" lon="0.14021">
        <ele>2003.5</ele>
        <time>2019-08-18T12:52:40Z</time>
      </trkpt>
      <trkpt lat="42.90846" lon="0.14017">
        <ele>2002.8</ele>
        <time>2019-08-18T12:52:41Z</time>
      </trkpt>
      <trkpt lat="42.90853" lon="0.1401">
        <ele>2002.1</ele>
        <time>2019-08-18T12:52:42Z</time>
      </trkpt>
      <trkpt lat="42.90858" lon="0.14003">
        <ele>2001.3</ele>
        <time>2019-08-18T12:52:43Z</time>
      </trkpt>
      <trkpt lat="42.90863" lon="0.13995">
        <ele>2000.4</ele>
        <time>2019-08-18T12:52:44Z</time>
      </trkpt>
      <trkpt lat="42.90869" lon="0.13988">
        <ele>1999.6</ele>
        <time>2019-08-18T12:52:45Z</time>
      </trkpt>
      <trkpt lat="42.90874" lon="0.1398">
        <ele>1998.7</ele>
        <time>2019-08-18T12:52:46Z</time>
      </trkpt>
      <trkpt lat="42.9088" lon="0.13973">
        <ele>1997.9</ele>
        <time>2019-08-18T12:52:47Z</time>
      </trkpt>
      <trkpt lat="42.90887" lon="0.13965">
        <ele>1996.9</ele>
        <time>2019-08-18T12:52:48Z</time>
      </trkpt>
      <trkpt lat="42.90896" lon="0.13958">
        <ele>1996.1</ele>
        <time>2019-08-18T12:52:49Z</time>
      </trkpt>
      <trkpt lat="42.90905" lon="0.13952">
        <ele>1995.2</ele>
        <time>2019-08-18T12:52:50Z</time>
      </trkpt>
      <trkpt lat="42.90913" lon="0.13948">
        <ele>1994.3</ele>
        <time>2019-08-18T12:52:51Z</time>
      </trkpt>
      <trkpt lat="42.90922" lon="0.13944">
        <ele>1993.5</ele>
        <time>2019-08-18T12:52:52Z</time>
      </trkpt>
      <trkpt lat="42.90931" lon="0.13942">
        <ele>1992.4</ele>
        <time>2019-08-18T12:52:53Z</time>
      </trkpt>
      <trkpt lat="42.9094" lon="0.13939">
        <ele>1991.4</ele>
        <time>2019-08-18T12:52:54Z</time>
      </trkpt>
      <trkpt lat="42.90949" lon="0.13936">
        <ele>1990.3</ele>
        <time>2019-08-18T12:52:55Z</time>
      </trkpt>
      <trkpt lat="42.90958" lon="0.13935">
        <ele>1989.2</ele>
        <time>2019-08-18T12:52:56Z</time>
      </trkpt>
      <trkpt lat="42.90968" lon="0.13936">
        <ele>1988.1</ele>
        <time>2019-08-18T12:52:57Z</time>
      </trkpt>
      <trkpt lat="42.90978" lon="0.13937">
        <ele>1986.8</ele>
        <time>2019-08-18T12:52:58Z</time>
      </trkpt>
      <trkpt lat="42.90988" lon="0.13938">
        <ele>1985.4</ele>
        <time>2019-08-18T12:52:59Z</time>
      </trkpt>
      <trkpt lat="42.90998" lon="0.13937">
        <ele>1984</ele>
        <time>2019-08-18T12:53:00Z</time>
      </trkpt>
      <trkpt lat="42.91008" lon="0.13937">
        <ele>1982.6</ele>
        <time>2019-08-18T12:53:01Z</time>
      </trkpt>
      <trkpt lat="42.91019" lon="0.13937">
        <ele>1981</ele>
        <time>2019-08-18T12:53:02Z</time>
      </trkpt>
      <trkpt lat="42.91028" lon="0.13937">
        <ele>1979.7</ele>
        <time>2019-08-18T12:53:03Z</time>
      </trkpt>
      <trkpt lat="42.91039" lon="0.13938">
        <ele>1978.5</ele>
        <time>2019-08-18T12:53:04Z</time>
      </trkpt>
      <trkpt lat="42.91049" lon="0.1394">
        <ele>1977.5</ele>
        <time>2019-08-18T12:53:05Z</time>
      </trkpt>
      <trkpt lat="42.91058" lon="0.13942">
        <ele>1976.6</ele>
        <time>2019-08-18T12:53:06Z</time>
      </trkpt>
      <trkpt lat="42.91066" lon="0.13943">
        <ele>1975.9</ele>
        <time>2019-08-18T12:53:07Z</time>
      </trkpt>
      <trkpt lat="42.91073" lon="0.13944">
        <ele>1975.3</ele>
        <time>2019-08-18T12:53:08Z</time>
      </trkpt>
      <trkpt lat="42.91078" lon="0.13946">
        <ele>1974.8</ele>
        <time>2019-08-18T12:53:09Z</time>
      </trkpt>
      <trkpt lat="42.91083" lon="0.13947">
        <ele>1974.4</ele>
        <time>2019-08-18T12:53:10Z</time>
      </trkpt>
      <trkpt lat="42.91088" lon="0.13947">
        <ele>1973.9</ele>
        <time>2019-08-18T12:53:11Z</time>
      </trkpt>
      <trkpt lat="42.91093" lon="0.13949">
        <ele>1973.5</ele>
        <time>2019-08-18T12:53:12Z</time>
      </trkpt>
      <trkpt lat="42.91098" lon="0.13951">
        <ele>1972.9</ele>
        <time>2019-08-18T12:53:13Z</time>
      </trkpt>
      <trkpt lat="42.91105" lon="0.13953">
        <ele>1972.3</ele>
        <time>2019-08-18T12:53:14Z</time>
      </trkpt>
      <trkpt lat="42.91111" lon="0.13954">
        <ele>1971.5</ele>
        <time>2019-08-18T12:53:15Z</time>
      </trkpt>
      <trkpt lat="42.91119" lon="0.13954">
        <ele>1970.7</ele>
        <time>2019-08-18T12:53:16Z</time>
      </trkpt>
      <trkpt lat="42.91126" lon="0.1395">
        <ele>1969.7</ele>
        <time>2019-08-18T12:53:17Z</time>
      </trkpt>
      <trkpt lat="42.91132" lon="0.13943">
        <ele>1968.7</ele>
        <time>2019-08-18T12:53:18Z</time>
      </trkpt>
      <trkpt lat="42.91137" lon="0.13935">
        <ele>1967.7</ele>
        <time>2019-08-18T12:53:19Z</time>
      </trkpt>
      <trkpt lat="42.91142" lon="0.13925">
        <ele>1966.5</ele>
        <time>2019-08-18T12:53:20Z</time>
      </trkpt>
      <trkpt lat="42.91147" lon="0.13913">
        <ele>1965.3</ele>
        <time>2019-08-18T12:53:21Z</time>
      </trkpt>
      <trkpt lat="42.91152" lon="0.13901">
        <ele>1964.1</ele>
        <time>2019-08-18T12:53:22Z</time>
      </trkpt>
      <trkpt lat="42.91158" lon="0.13889">
        <ele>1963</ele>
        <time>2019-08-18T12:53:23Z</time>
      </trkpt>
      <trkpt lat="42.91164" lon="0.13877">
        <ele>1962</ele>
        <time>2019-08-18T12:53:24Z</time>
      </trkpt>
      <trkpt lat="42.91169" lon="0.13866">
        <ele>1960.9</ele>
        <time>2019-08-18T12:53:25Z</time>
      </trkpt>
      <trkpt lat="42.91173" lon="0.13858">
        <ele>1960.1</ele>
        <time>2019-08-18T12:53:26Z</time>
      </trkpt>
      <trkpt lat="42.91182" lon="0.13851">
        <ele>1959.1</ele>
        <time>2019-08-18T12:53:27Z</time>
      </trkpt>
      <trkpt lat="42.9119" lon="0.13847">
        <ele>1958.2</ele>
        <time>2019-08-18T12:53:28Z</time>
      </trkpt>
      <trkpt lat="42.91199" lon="0.13844">
        <ele>1957.3</ele>
        <time>2019-08-18T12:53:29Z</time>
      </trkpt>
      <trkpt lat="42.91209" lon="0.13841">
        <ele>1956.2</ele>
        <time>2019-08-18T12:53:30Z</time>
      </trkpt>
      <trkpt lat="42.9122" lon="0.13837">
        <ele>1954.8</ele>
        <time>2019-08-18T12:53:31Z</time>
      </trkpt>
      <trkpt lat="42.91231" lon="0.13833">
        <ele>1953.6</ele>
        <time>2019-08-18T12:53:32Z</time>
      </trkpt>
      <trkpt lat="42.91242" lon="0.13826">
        <ele>1952.3</ele>
        <time>2019-08-18T12:53:33Z</time>
      </trkpt>
      <trkpt lat="42.91253" lon="0.13816">
        <ele>1950.7</ele>
        <time>2019-08-18T12:53:34Z</time>
      </trkpt>
      <trkpt lat="42.91263" lon="0.13804">
        <ele>1949.2</ele>
        <time>2019-08-18T12:53:35Z</time>
      </trkpt>
      <trkpt lat="42.91272" lon="0.13792">
        <ele>1947.9</ele>
        <time>2019-08-18T12:53:36Z</time>
      </trkpt>
      <trkpt lat="42.91279" lon="0.13779">
        <ele>1946.7</ele>
        <time>2019-08-18T12:53:37Z</time>
      </trkpt>
      <trkpt lat="42.91285" lon="0.13767">
        <ele>1945.7</ele>
        <time>2019-08-18T12:53:38Z</time>
      </trkpt>
      <trkpt lat="42.91292" lon="0.13757">
        <ele>1944.9</ele>
        <time>2019-08-18T12:53:39Z</time>
      </trkpt>
      <trkpt lat="42.91298" lon="0.13748">
        <ele>1944.1</ele>
        <time>2019-08-18T12:53:40Z</time>
      </trkpt>
      <trkpt lat="42.91306" lon="0.13741">
        <ele>1943.2</ele>
        <time>2019-08-18T12:53:41Z</time>
      </trkpt>
      <trkpt lat="42.91314" lon="0.13735">
        <ele>1942.4</ele>
        <time>2019-08-18T12:53:42Z</time>
      </trkpt>
      <trkpt lat="42.91321" lon="0.13731">
        <ele>1941.7</ele>
        <time>2019-08-18T12:53:43Z</time>
      </trkpt>
      <trkpt lat="42.91329" lon="0.13727">
        <ele>1940.9</ele>
        <time>2019-08-18T12:53:44Z</time>
      </trkpt>
      <trkpt lat="42.91334" lon="0.13722">
        <ele>1940.1</ele>
        <time>2019-08-18T12:53:45Z</time>
      </trkpt>
      <trkpt lat="42.91338" lon="0.13716">
        <ele>1939.4</ele>
        <time>2019-08-18T12:53:46Z</time>
      </trkpt>
      <trkpt lat="42.9134" lon="0.13707">
        <ele>1938.7</ele>
        <time>2019-08-18T12:53:47Z</time>
      </trkpt>
      <trkpt lat="42.9134" lon="0.13698">
        <ele>1938.1</ele>
        <time>2019-08-18T12:53:48Z</time>
      </trkpt>
      <trkpt lat="42.91337" lon="0.1369">
        <ele>1938</ele>
        <time>2019-08-18T12:53:49Z</time>
      </trkpt>
      <trkpt lat="42.91332" lon="0.13685">
        <ele>1937.8</ele>
        <time>2019-08-18T12:53:50Z</time>
      </trkpt>
      <trkpt lat="42.91327" lon="0.13682">
        <ele>1937.7</ele>
        <time>2019-08-18T12:53:51Z</time>
      </trkpt>
      <trkpt lat="42.91322" lon="0.1368">
        <ele>1937.5</ele>
        <time>2019-08-18T12:53:52Z</time>
      </trkpt>
      <trkpt lat="42.91316" lon="0.1368">
        <ele>1937.3</ele>
        <time>2019-08-18T12:53:53Z</time>
      </trkpt>
      <trkpt lat="42.91311" lon="0.13682">
        <ele>1937</ele>
        <time>2019-08-18T12:53:54Z</time>
      </trkpt>
      <trkpt lat="42.91307" lon="0.13684">
        <ele>1936.8</ele>
        <time>2019-08-18T12:53:55Z</time>
      </trkpt>
      <trkpt lat="42.91303" lon="0.13687">
        <ele>1936.7</ele>
        <time>2019-08-18T12:53:56Z</time>
      </trkpt>
      <trkpt lat="42.913" lon="0.1369">
        <ele>1936.5</ele>
        <time>2019-08-18T12:53:57Z</time>
      </trkpt>
      <trkpt lat="42.91297" lon="0.13692">
        <ele>1936.3</ele>
        <time>2019-08-18T12:53:58Z</time>
      </trkpt>
      <trkpt lat="42.91294" lon="0.13697">
        <ele>1936.1</ele>
        <time>2019-08-18T12:53:59Z</time>
      </trkpt>
      <trkpt lat="42.91292" lon="0.13702">
        <ele>1936</ele>
        <time>2019-08-18T12:54:00Z</time>
      </trkpt>
      <trkpt lat="42.91289" lon="0.13707">
        <ele>1935.8</ele>
        <time>2019-08-18T12:54:01Z</time>
      </trkpt>
      <trkpt lat="42.91287" lon="0.13711">
        <ele>1935.6</ele>
        <time>2019-08-18T12:54:02Z</time>
      </trkpt>
      <trkpt lat="42.91285" lon="0.13716">
        <ele>1935.4</ele>
        <time>2019-08-18T12:54:03Z</time>
      </trkpt>
      <trkpt lat="42.91284" lon="0.1372">
        <ele>1935.3</ele>
        <time>2019-08-18T12:54:04Z</time>
      </trkpt>
      <trkpt lat="42.91281" lon="0.13724">
        <ele>1935.1</ele>
        <time>2019-08-18T12:54:06Z</time>
      </trkpt>
      <trkpt lat="42.91279" lon="0.13728">
        <ele>1935</ele>
        <time>2019-08-18T12:54:08Z</time>
      </trkpt>
      <trkpt lat="42.91277" lon="0.13733">
        <ele>1934.8</ele>
        <time>2019-08-18T12:54:17Z</time>
      </trkpt>
      <trkpt lat="42.91275" lon="0.13739">
        <ele>1934.6</ele>
        <time>2019-08-18T12:54:19Z</time>
      </trkpt>
      <trkpt lat="42.91273" lon="0.13745">
        <ele>1934.4</ele>
        <time>2019-08-18T12:54:21Z</time>
      </trkpt>
      <trkpt lat="42.91271" lon="0.1375">
        <ele>1934.2</ele>
        <time>2019-08-18T12:54:22Z</time>
      </trkpt>
      <trkpt lat="42.91269" lon="0.13754">
        <ele>1934</ele>
        <time>2019-08-18T12:54:23Z</time>
      </trkpt>
      <trkpt lat="42.91265" lon="0.13757">
        <ele>1933.9</ele>
        <time>2019-08-18T12:54:24Z</time>
      </trkpt>
      <trkpt lat="42.91261" lon="0.13762">
        <ele>1933.7</ele>
        <time>2019-08-18T12:54:25Z</time>
      </trkpt>
      <trkpt lat="42.91257" lon="0.13765">
        <ele>1933.5</ele>
        <time>2019-08-18T12:54:26Z</time>
      </trkpt>
      <trkpt lat="42.91252" lon="0.13769">
        <ele>1933.3</ele>
        <time>2019-08-18T12:54:27Z</time>
      </trkpt>
      <trkpt lat="42.91247" lon="0.13773">
        <ele>1933.1</ele>
        <time>2019-08-18T12:54:28Z</time>
      </trkpt>
      <trkpt lat="42.91242" lon="0.13776">
        <ele>1932.9</ele>
        <time>2019-08-18T12:54:29Z</time>
      </trkpt>
      <trkpt lat="42.91236" lon="0.13779">
        <ele>1932.7</ele>
        <time>2019-08-18T12:54:30Z</time>
      </trkpt>
      <trkpt lat="42.91231" lon="0.13782">
        <ele>1932.6</ele>
        <time>2019-08-18T12:54:31Z</time>
      </trkpt>
      <trkpt lat="42.91225" lon="0.13783">
        <ele>1932.4</ele>
        <time>2019-08-18T12:54:32Z</time>
      </trkpt>
      <trkpt lat="42.91219" lon="0.13786">
        <ele>1932.3</ele>
        <time>2019-08-18T12:54:33Z</time>
      </trkpt>
      <trkpt lat="42.91214" lon="0.13787">
        <ele>1932.1</ele>
        <time>2019-08-18T12:54:34Z</time>
      </trkpt>
      <trkpt lat="42.91208" lon="0.13787">
        <ele>1931.9</ele>
        <time>2019-08-18T12:54:35Z</time>
      </trkpt>
      <trkpt lat="42.91201" lon="0.13788">
        <ele>1931.7</ele>
        <time>2019-08-18T12:54:36Z</time>
      </trkpt>
      <trkpt lat="42.91194" lon="0.13787">
        <ele>1931.5</ele>
        <time>2019-08-18T12:54:37Z</time>
      </trkpt>
      <trkpt lat="42.91187" lon="0.13786">
        <ele>1931.4</ele>
        <time>2019-08-18T12:54:38Z</time>
      </trkpt>
      <trkpt lat="42.9118" lon="0.13786">
        <ele>1931.2</ele>
        <time>2019-08-18T12:54:39Z</time>
      </trkpt>
      <trkpt lat="42.91173" lon="0.13787">
        <ele>1931</ele>
        <time>2019-08-18T12:54:40Z</time>
      </trkpt>
      <trkpt lat="42.91166" lon="0.13789">
        <ele>1930.7</ele>
        <time>2019-08-18T12:54:41Z</time>
      </trkpt>
      <trkpt lat="42.91159" lon="0.13793">
        <ele>1930.4</ele>
        <time>2019-08-18T12:54:42Z</time>
      </trkpt>
      <trkpt lat="42.91153" lon="0.13798">
        <ele>1930.2</ele>
        <time>2019-08-18T12:54:43Z</time>
      </trkpt>
      <trkpt lat="42.91147" lon="0.13804">
        <ele>1929.8</ele>
        <time>2019-08-18T12:54:44Z</time>
      </trkpt>
      <trkpt lat="42.9114" lon="0.13811">
        <ele>1929.3</ele>
        <time>2019-08-18T12:54:45Z</time>
      </trkpt>
      <trkpt lat="42.91134" lon="0.13819">
        <ele>1928.8</ele>
        <time>2019-08-18T12:54:46Z</time>
      </trkpt>
      <trkpt lat="42.91128" lon="0.13827">
        <ele>1928.3</ele>
        <time>2019-08-18T12:54:47Z</time>
      </trkpt>
      <trkpt lat="42.91122" lon="0.13835">
        <ele>1927.7</ele>
        <time>2019-08-18T12:54:48Z</time>
      </trkpt>
      <trkpt lat="42.91116" lon="0.13844">
        <ele>1927.3</ele>
        <time>2019-08-18T12:54:49Z</time>
      </trkpt>
      <trkpt lat="42.91112" lon="0.13851">
        <ele>1926.9</ele>
        <time>2019-08-18T12:54:50Z</time>
      </trkpt>
      <trkpt lat="42.91105" lon="0.13856">
        <ele>1926.4</ele>
        <time>2019-08-18T12:54:51Z</time>
      </trkpt>
      <trkpt lat="42.91098" lon="0.13857">
        <ele>1926</ele>
        <time>2019-08-18T12:54:52Z</time>
      </trkpt>
      <trkpt lat="42.91092" lon="0.13853">
        <ele>1925.6</ele>
        <time>2019-08-18T12:54:53Z</time>
      </trkpt>
      <trkpt lat="42.91087" lon="0.13846">
        <ele>1925.2</ele>
        <time>2019-08-18T12:54:54Z</time>
      </trkpt>
      <trkpt lat="42.91081" lon="0.13837">
        <ele>1924.7</ele>
        <time>2019-08-18T12:54:55Z</time>
      </trkpt>
      <trkpt lat="42.91076" lon="0.13827">
        <ele>1924.2</ele>
        <time>2019-08-18T12:54:56Z</time>
      </trkpt>
      <trkpt lat="42.91071" lon="0.13819">
        <ele>1923.7</ele>
        <time>2019-08-18T12:54:57Z</time>
      </trkpt>
      <trkpt lat="42.91063" lon="0.13812">
        <ele>1923.2</ele>
        <time>2019-08-18T12:54:58Z</time>
      </trkpt>
      <trkpt lat="42.91055" lon="0.13808">
        <ele>1922.6</ele>
        <time>2019-08-18T12:54:59Z</time>
      </trkpt>
      <trkpt lat="42.91046" lon="0.13807">
        <ele>1921.9</ele>
        <time>2019-08-18T12:55:00Z</time>
      </trkpt>
      <trkpt lat="42.91037" lon="0.13807">
        <ele>1921.1</ele>
        <time>2019-08-18T12:55:01Z</time>
      </trkpt>
      <trkpt lat="42.91027" lon="0.13808">
        <ele>1920.1</ele>
        <time>2019-08-18T12:55:02Z</time>
      </trkpt>
      <trkpt lat="42.91016" lon="0.13807">
        <ele>1919.2</ele>
        <time>2019-08-18T12:55:03Z</time>
      </trkpt>
      <trkpt lat="42.91004" lon="0.13805">
        <ele>1918</ele>
        <time>2019-08-18T12:55:04Z</time>
      </trkpt>
      <trkpt lat="42.90993" lon="0.13804">
        <ele>1917</ele>
        <time>2019-08-18T12:55:05Z</time>
      </trkpt>
      <trkpt lat="42.90982" lon="0.13803">
        <ele>1915.8</ele>
        <time>2019-08-18T12:55:06Z</time>
      </trkpt>
      <trkpt lat="42.90971" lon="0.13801">
        <ele>1914.7</ele>
        <time>2019-08-18T12:55:07Z</time>
      </trkpt>
      <trkpt lat="42.9096" lon="0.13801">
        <ele>1913.6</ele>
        <time>2019-08-18T12:55:08Z</time>
      </trkpt>
      <trkpt lat="42.90948" lon="0.13799">
        <ele>1912.4</ele>
        <time>2019-08-18T12:55:09Z</time>
      </trkpt>
      <trkpt lat="42.90936" lon="0.13797">
        <ele>1911.1</ele>
        <time>2019-08-18T12:55:10Z</time>
      </trkpt>
      <trkpt lat="42.90923" lon="0.13792">
        <ele>1909.7</ele>
        <time>2019-08-18T12:55:11Z</time>
      </trkpt>
      <trkpt lat="42.90911" lon="0.13788">
        <ele>1908.2</ele>
        <time>2019-08-18T12:55:12Z</time>
      </trkpt>
      <trkpt lat="42.90898" lon="0.13783">
        <ele>1906.6</ele>
        <time>2019-08-18T12:55:13Z</time>
      </trkpt>
      <trkpt lat="42.90885" lon="0.1378">
        <ele>1905.2</ele>
        <time>2019-08-18T12:55:14Z</time>
      </trkpt>
      <trkpt lat="42.90872" lon="0.13779">
        <ele>1903.7</ele>
        <time>2019-08-18T12:55:15Z</time>
      </trkpt>
      <trkpt lat="42.9086" lon="0.13779">
        <ele>1902.8</ele>
        <time>2019-08-18T12:55:16Z</time>
      </trkpt>
      <trkpt lat="42.90849" lon="0.13779">
        <ele>1902.1</ele>
        <time>2019-08-18T12:55:17Z</time>
      </trkpt>
      <trkpt lat="42.90839" lon="0.13781">
        <ele>1901.4</ele>
        <time>2019-08-18T12:55:18Z</time>
      </trkpt>
      <trkpt lat="42.90828" lon="0.13786">
        <ele>1900.6</ele>
        <time>2019-08-18T12:55:19Z</time>
      </trkpt>
      <trkpt lat="42.90817" lon="0.13792">
        <ele>1899.8</ele>
        <time>2019-08-18T12:55:20Z</time>
      </trkpt>
      <trkpt lat="42.90806" lon="0.13798">
        <ele>1898.9</ele>
        <time>2019-08-18T12:55:21Z</time>
      </trkpt>
      <trkpt lat="42.90794" lon="0.13804">
        <ele>1897.7</ele>
        <time>2019-08-18T12:55:22Z</time>
      </trkpt>
      <trkpt lat="42.90784" lon="0.13814">
        <ele>1896.5</ele>
        <time>2019-08-18T12:55:23Z</time>
      </trkpt>
      <trkpt lat="42.90774" lon="0.13825">
        <ele>1895.2</ele>
        <time>2019-08-18T12:55:24Z</time>
      </trkpt>
      <trkpt lat="42.90765" lon="0.13836">
        <ele>1893.8</ele>
        <time>2019-08-18T12:55:25Z</time>
      </trkpt>
      <trkpt lat="42.90756" lon="0.13845">
        <ele>1892.7</ele>
        <time>2019-08-18T12:55:26Z</time>
      </trkpt>
      <trkpt lat="42.90747" lon="0.13852">
        <ele>1891.8</ele>
        <time>2019-08-18T12:55:27Z</time>
      </trkpt>
      <trkpt lat="42.90736" lon="0.13856">
        <ele>1890.5</ele>
        <time>2019-08-18T12:55:28Z</time>
      </trkpt>
      <trkpt lat="42.90725" lon="0.13856">
        <ele>1889.3</ele>
        <time>2019-08-18T12:55:29Z</time>
      </trkpt>
      <trkpt lat="42.90713" lon="0.13855">
        <ele>1887.8</ele>
        <time>2019-08-18T12:55:30Z</time>
      </trkpt>
      <trkpt lat="42.907" lon="0.13857">
        <ele>1886.8</ele>
        <time>2019-08-18T12:55:31Z</time>
      </trkpt>
      <trkpt lat="42.90687" lon="0.13861">
        <ele>1885.9</ele>
        <time>2019-08-18T12:55:32Z</time>
      </trkpt>
      <trkpt lat="42.90674" lon="0.13866">
        <ele>1884.8</ele>
        <time>2019-08-18T12:55:33Z</time>
      </trkpt>
      <trkpt lat="42.90662" lon="0.13868">
        <ele>1883.4</ele>
        <time>2019-08-18T12:55:34Z</time>
      </trkpt>
      <trkpt lat="42.90648" lon="0.13868">
        <ele>1882.1</ele>
        <time>2019-08-18T12:55:35Z</time>
      </trkpt>
      <trkpt lat="42.90635" lon="0.13865">
        <ele>1881</ele>
        <time>2019-08-18T12:55:36Z</time>
      </trkpt>
      <trkpt lat="42.90624" lon="0.13858">
        <ele>1880</ele>
        <time>2019-08-18T12:55:37Z</time>
      </trkpt>
      <trkpt lat="42.90612" lon="0.13849">
        <ele>1879</ele>
        <time>2019-08-18T12:55:38Z</time>
      </trkpt>
      <trkpt lat="42.90601" lon="0.13841">
        <ele>1878</ele>
        <time>2019-08-18T12:55:39Z</time>
      </trkpt>
      <trkpt lat="42.90589" lon="0.13834">
        <ele>1877</ele>
        <time>2019-08-18T12:55:40Z</time>
      </trkpt>
      <trkpt lat="42.90578" lon="0.13826">
        <ele>1876.1</ele>
        <time>2019-08-18T12:55:41Z</time>
      </trkpt>
      <trkpt lat="42.90566" lon="0.13818">
        <ele>1875.1</ele>
        <time>2019-08-18T12:55:42Z</time>
      </trkpt>
      <trkpt lat="42.90556" lon="0.13808">
        <ele>1874.1</ele>
        <time>2019-08-18T12:55:43Z</time>
      </trkpt>
      <trkpt lat="42.90545" lon="0.13798">
        <ele>1873</ele>
        <time>2019-08-18T12:55:44Z</time>
      </trkpt>
      <trkpt lat="42.90539" lon="0.13786">
        <ele>1872.1</ele>
        <time>2019-08-18T12:55:45Z</time>
      </trkpt>
      <trkpt lat="42.90532" lon="0.13773">
        <ele>1871</ele>
        <time>2019-08-18T12:55:46Z</time>
      </trkpt>
      <trkpt lat="42.90526" lon="0.1376">
        <ele>1869.9</ele>
        <time>2019-08-18T12:55:47Z</time>
      </trkpt>
      <trkpt lat="42.9052" lon="0.13748">
        <ele>1868.9</ele>
        <time>2019-08-18T12:55:48Z</time>
      </trkpt>
      <trkpt lat="42.90512" lon="0.13737">
        <ele>1868.1</ele>
        <time>2019-08-18T12:55:49Z</time>
      </trkpt>
      <trkpt lat="42.90506" lon="0.13726">
        <ele>1867.3</ele>
        <time>2019-08-18T12:55:50Z</time>
      </trkpt>
      <trkpt lat="42.90497" lon="0.1372">
        <ele>1866.6</ele>
        <time>2019-08-18T12:55:51Z</time>
      </trkpt>
      <trkpt lat="42.90487" lon="0.13714">
        <ele>1865.8</ele>
        <time>2019-08-18T12:55:52Z</time>
      </trkpt>
      <trkpt lat="42.90476" lon="0.13711">
        <ele>1864.9</ele>
        <time>2019-08-18T12:55:53Z</time>
      </trkpt>
      <trkpt lat="42.90464" lon="0.13711">
        <ele>1864.1</ele>
        <time>2019-08-18T12:55:54Z</time>
      </trkpt>
      <trkpt lat="42.90453" lon="0.13713">
        <ele>1863.1</ele>
        <time>2019-08-18T12:55:55Z</time>
      </trkpt>
      <trkpt lat="42.90441" lon="0.13713">
        <ele>1862.3</ele>
        <time>2019-08-18T12:55:56Z</time>
      </trkpt>
      <trkpt lat="42.90428" lon="0.13712">
        <ele>1861.3</ele>
        <time>2019-08-18T12:55:57Z</time>
      </trkpt>
      <trkpt lat="42.90416" lon="0.1371">
        <ele>1860.5</ele>
        <time>2019-08-18T12:55:58Z</time>
      </trkpt>
      <trkpt lat="42.90406" lon="0.13706">
        <ele>1859.6</ele>
        <time>2019-08-18T12:55:59Z</time>
      </trkpt>
      <trkpt lat="42.90394" lon="0.137">
        <ele>1858.5</ele>
        <time>2019-08-18T12:56:00Z</time>
      </trkpt>
      <trkpt lat="42.90385" lon="0.13694">
        <ele>1857.6</ele>
        <time>2019-08-18T12:56:01Z</time>
      </trkpt>
      <trkpt lat="42.90377" lon="0.13686">
        <ele>1856.8</ele>
        <time>2019-08-18T12:56:02Z</time>
      </trkpt>
      <trkpt lat="42.9037" lon="0.13674">
        <ele>1855.6</ele>
        <time>2019-08-18T12:56:03Z</time>
      </trkpt>
      <trkpt lat="42.90365" lon="0.13661">
        <ele>1854.7</ele>
        <time>2019-08-18T12:56:04Z</time>
      </trkpt>
      <trkpt lat="42.90359" lon="0.13647">
        <ele>1853.8</ele>
        <time>2019-08-18T12:56:05Z</time>
      </trkpt>
      <trkpt lat="42.90351" lon="0.13635">
        <ele>1853</ele>
        <time>2019-08-18T12:56:06Z</time>
      </trkpt>
      <trkpt lat="42.90342" lon="0.13626">
        <ele>1852.3</ele>
        <time>2019-08-18T12:56:07Z</time>
      </trkpt>
      <trkpt lat="42.90331" lon="0.13619">
        <ele>1851.8</ele>
        <time>2019-08-18T12:56:08Z</time>
      </trkpt>
      <trkpt lat="42.90321" lon="0.13615">
        <ele>1851.3</ele>
        <time>2019-08-18T12:56:09Z</time>
      </trkpt>
      <trkpt lat="42.90311" lon="0.13613">
        <ele>1850.9</ele>
        <time>2019-08-18T12:56:10Z</time>
      </trkpt>
      <trkpt lat="42.90302" lon="0.13609">
        <ele>1850.5</ele>
        <time>2019-08-18T12:56:11Z</time>
      </trkpt>
      <trkpt lat="42.90295" lon="0.13603">
        <ele>1850.1</ele>
        <time>2019-08-18T12:56:12Z</time>
      </trkpt>
      <trkpt lat="42.90291" lon="0.13592">
        <ele>1849.6</ele>
        <time>2019-08-18T12:56:13Z</time>
      </trkpt>
      <trkpt lat="42.90289" lon="0.13579">
        <ele>1849</ele>
        <time>2019-08-18T12:56:14Z</time>
      </trkpt>
      <trkpt lat="42.90286" lon="0.13565">
        <ele>1848.4</ele>
        <time>2019-08-18T12:56:15Z</time>
      </trkpt>
      <trkpt lat="42.90283" lon="0.13552">
        <ele>1847.7</ele>
        <time>2019-08-18T12:56:16Z</time>
      </trkpt>
      <trkpt lat="42.9028" lon="0.13538">
        <ele>1847</ele>
        <time>2019-08-18T12:56:17Z</time>
      </trkpt>
      <trkpt lat="42.90278" lon="0.13525">
        <ele>1846.2</ele>
        <time>2019-08-18T12:56:18Z</time>
      </trkpt>
      <trkpt lat="42.90277" lon="0.1351">
        <ele>1845.4</ele>
        <time>2019-08-18T12:56:19Z</time>
      </trkpt>
      <trkpt lat="42.90281" lon="0.13497">
        <ele>1844.5</ele>
        <time>2019-08-18T12:56:20Z</time>
      </trkpt>
      <trkpt lat="42.90283" lon="0.13484">
        <ele>1843.8</ele>
        <time>2019-08-18T12:56:21Z</time>
      </trkpt>
      <trkpt lat="42.90284" lon="0.13471">
        <ele>1843</ele>
        <time>2019-08-18T12:56:22Z</time>
      </trkpt>
      <trkpt lat="42.90282" lon="0.13457">
        <ele>1842.1</ele>
        <time>2019-08-18T12:56:23Z</time>
      </trkpt>
      <trkpt lat="42.90279" lon="0.13443">
        <ele>1841.3</ele>
        <time>2019-08-18T12:56:24Z</time>
      </trkpt>
      <trkpt lat="42.90275" lon="0.1343">
        <ele>1840.4</ele>
        <time>2019-08-18T12:56:25Z</time>
      </trkpt>
      <trkpt lat="42.90267" lon="0.13419">
        <ele>1839.5</ele>
        <time>2019-08-18T12:56:26Z</time>
      </trkpt>
      <trkpt lat="42.90258" lon="0.13411">
        <ele>1838.6</ele>
        <time>2019-08-18T12:56:27Z</time>
      </trkpt>
      <trkpt lat="42.9025" lon="0.13405">
        <ele>1838.1</ele>
        <time>2019-08-18T12:56:28Z</time>
      </trkpt>
      <trkpt lat="42.90241" lon="0.13398">
        <ele>1837.4</ele>
        <time>2019-08-18T12:56:29Z</time>
      </trkpt>
      <trkpt lat="42.90236" lon="0.13389">
        <ele>1837</ele>
        <time>2019-08-18T12:56:30Z</time>
      </trkpt>
      <trkpt lat="42.90233" lon="0.13376">
        <ele>1836.4</ele>
        <time>2019-08-18T12:56:31Z</time>
      </trkpt>
      <trkpt lat="42.90231" lon="0.13361">
        <ele>1835.7</ele>
        <time>2019-08-18T12:56:32Z</time>
      </trkpt>
      <trkpt lat="42.90228" lon="0.13346">
        <ele>1835</ele>
        <time>2019-08-18T12:56:33Z</time>
      </trkpt>
      <trkpt lat="42.90224" lon="0.13331">
        <ele>1834.4</ele>
        <time>2019-08-18T12:56:34Z</time>
      </trkpt>
      <trkpt lat="42.90219" lon="0.13317">
        <ele>1833.7</ele>
        <time>2019-08-18T12:56:35Z</time>
      </trkpt>
      <trkpt lat="42.90214" lon="0.13305">
        <ele>1833</ele>
        <time>2019-08-18T12:56:36Z</time>
      </trkpt>
      <trkpt lat="42.9021" lon="0.13293">
        <ele>1832.4</ele>
        <time>2019-08-18T12:56:37Z</time>
      </trkpt>
      <trkpt lat="42.90204" lon="0.13282">
        <ele>1831.8</ele>
        <time>2019-08-18T12:56:38Z</time>
      </trkpt>
      <trkpt lat="42.90201" lon="0.13271">
        <ele>1831.2</ele>
        <time>2019-08-18T12:56:39Z</time>
      </trkpt>
      <trkpt lat="42.902" lon="0.13259">
        <ele>1830.6</ele>
        <time>2019-08-18T12:56:40Z</time>
      </trkpt>
      <trkpt lat="42.90204" lon="0.1325">
        <ele>1829.3</ele>
        <time>2019-08-18T12:56:41Z</time>
      </trkpt>
      <trkpt lat="42.9021" lon="0.13244">
        <ele>1828.7</ele>
        <time>2019-08-18T12:56:42Z</time>
      </trkpt>
      <trkpt lat="42.9022" lon="0.13239">
        <ele>1827.9</ele>
        <time>2019-08-18T12:56:43Z</time>
      </trkpt>
      <trkpt lat="42.9023" lon="0.13238">
        <ele>1827</ele>
        <time>2019-08-18T12:56:44Z</time>
      </trkpt>
      <trkpt lat="42.9024" lon="0.13237">
        <ele>1826</ele>
        <time>2019-08-18T12:56:45Z</time>
      </trkpt>
      <trkpt lat="42.90251" lon="0.13236">
        <ele>1824.8</ele>
        <time>2019-08-18T12:56:46Z</time>
      </trkpt>
      <trkpt lat="42.90261" lon="0.13235">
        <ele>1823.8</ele>
        <time>2019-08-18T12:56:47Z</time>
      </trkpt>
      <trkpt lat="42.90271" lon="0.13234">
        <ele>1822.7</ele>
        <time>2019-08-18T12:56:48Z</time>
      </trkpt>
      <trkpt lat="42.90279" lon="0.13229">
        <ele>1821.8</ele>
        <time>2019-08-18T12:56:49Z</time>
      </trkpt>
      <trkpt lat="42.90287" lon="0.13219">
        <ele>1820.8</ele>
        <time>2019-08-18T12:56:50Z</time>
      </trkpt>
      <trkpt lat="42.90294" lon="0.13208">
        <ele>1819.5</ele>
        <time>2019-08-18T12:56:51Z</time>
      </trkpt>
      <trkpt lat="42.90301" lon="0.13196">
        <ele>1818.2</ele>
        <time>2019-08-18T12:56:52Z</time>
      </trkpt>
      <trkpt lat="42.90309" lon="0.13185">
        <ele>1816.7</ele>
        <time>2019-08-18T12:56:53Z</time>
      </trkpt>
      <trkpt lat="42.90318" lon="0.13174">
        <ele>1815.2</ele>
        <time>2019-08-18T12:56:54Z</time>
      </trkpt>
      <trkpt lat="42.90327" lon="0.13166">
        <ele>1813.8</ele>
        <time>2019-08-18T12:56:55Z</time>
      </trkpt>
      <trkpt lat="42.90333" lon="0.13157">
        <ele>1812.6</ele>
        <time>2019-08-18T12:56:56Z</time>
      </trkpt>
      <trkpt lat="42.90339" lon="0.13148">
        <ele>1811.4</ele>
        <time>2019-08-18T12:56:57Z</time>
      </trkpt>
      <trkpt lat="42.90343" lon="0.13138">
        <ele>1810</ele>
        <time>2019-08-18T12:56:58Z</time>
      </trkpt>
      <trkpt lat="42.90345" lon="0.13128">
        <ele>1808.6</ele>
        <time>2019-08-18T12:56:59Z</time>
      </trkpt>
      <trkpt lat="42.90344" lon="0.13115">
        <ele>1806.9</ele>
        <time>2019-08-18T12:57:00Z</time>
      </trkpt>
      <trkpt lat="42.90342" lon="0.13101">
        <ele>1805.1</ele>
        <time>2019-08-18T12:57:01Z</time>
      </trkpt>
      <trkpt lat="42.9034" lon="0.13088">
        <ele>1803.6</ele>
        <time>2019-08-18T12:57:02Z</time>
      </trkpt>
      <trkpt lat="42.90341" lon="0.13073">
        <ele>1802</ele>
        <time>2019-08-18T12:57:03Z</time>
      </trkpt>
      <trkpt lat="42.90344" lon="0.13058">
        <ele>1800.4</ele>
        <time>2019-08-18T12:57:04Z</time>
      </trkpt>
      <trkpt lat="42.90348" lon="0.13044">
        <ele>1799</ele>
        <time>2019-08-18T12:57:05Z</time>
      </trkpt>
      <trkpt lat="42.90352" lon="0.13029">
        <ele>1797.6</ele>
        <time>2019-08-18T12:57:06Z</time>
      </trkpt>
      <trkpt lat="42.90355" lon="0.13013">
        <ele>1796.1</ele>
        <time>2019-08-18T12:57:07Z</time>
      </trkpt>
      <trkpt lat="42.90359" lon="0.12998">
        <ele>1794.7</ele>
        <time>2019-08-18T12:57:08Z</time>
      </trkpt>
      <trkpt lat="42.90364" lon="0.12983">
        <ele>1793.3</ele>
        <time>2019-08-18T12:57:09Z</time>
      </trkpt>
      <trkpt lat="42.90368" lon="0.12969">
        <ele>1791.8</ele>
        <time>2019-08-18T12:57:10Z</time>
      </trkpt>
      <trkpt lat="42.90373" lon="0.12955">
        <ele>1790.4</ele>
        <time>2019-08-18T12:57:11Z</time>
      </trkpt>
      <trkpt lat="42.90377" lon="0.12941">
        <ele>1789</ele>
        <time>2019-08-18T12:57:12Z</time>
      </trkpt>
      <trkpt lat="42.90379" lon="0.12928">
        <ele>1787.6</ele>
        <time>2019-08-18T12:57:13Z</time>
      </trkpt>
      <trkpt lat="42.9038" lon="0.12913">
        <ele>1786.1</ele>
        <time>2019-08-18T12:57:14Z</time>
      </trkpt>
      <trkpt lat="42.90382" lon="0.12899">
        <ele>1784.8</ele>
        <time>2019-08-18T12:57:15Z</time>
      </trkpt>
      <trkpt lat="42.90381" lon="0.12885">
        <ele>1783.4</ele>
        <time>2019-08-18T12:57:16Z</time>
      </trkpt>
      <trkpt lat="42.90378" lon="0.1287">
        <ele>1781.7</ele>
        <time>2019-08-18T12:57:17Z</time>
      </trkpt>
      <trkpt lat="42.90374" lon="0.12856">
        <ele>1779.7</ele>
        <time>2019-08-18T12:57:18Z</time>
      </trkpt>
      <trkpt lat="42.90369" lon="0.12842">
        <ele>1778</ele>
        <time>2019-08-18T12:57:19Z</time>
      </trkpt>
      <trkpt lat="42.90367" lon="0.12829">
        <ele>1776.3</ele>
        <time>2019-08-18T12:57:20Z</time>
      </trkpt>
      <trkpt lat="42.90363" lon="0.12816">
        <ele>1774.8</ele>
        <time>2019-08-18T12:57:21Z</time>
      </trkpt>
      <trkpt lat="42.90361" lon="0.12803">
        <ele>1773.3</ele>
        <time>2019-08-18T12:57:22Z</time>
      </trkpt>
      <trkpt lat="42.90361" lon="0.1279">
        <ele>1771.7</ele>
        <time>2019-08-18T12:57:23Z</time>
      </trkpt>
      <trkpt lat="42.90363" lon="0.12776">
        <ele>1770</ele>
        <time>2019-08-18T12:57:24Z</time>
      </trkpt>
      <trkpt lat="42.90368" lon="0.12764">
        <ele>1768.1</ele>
        <time>2019-08-18T12:57:25Z</time>
      </trkpt>
      <trkpt lat="42.90371" lon="0.12752">
        <ele>1766.5</ele>
        <time>2019-08-18T12:57:26Z</time>
      </trkpt>
      <trkpt lat="42.90374" lon="0.12738">
        <ele>1765.2</ele>
        <time>2019-08-18T12:57:27Z</time>
      </trkpt>
      <trkpt lat="42.90374" lon="0.12724">
        <ele>1763.6</ele>
        <time>2019-08-18T12:57:28Z</time>
      </trkpt>
      <trkpt lat="42.90375" lon="0.12709">
        <ele>1761.8</ele>
        <time>2019-08-18T12:57:29Z</time>
      </trkpt>
      <trkpt lat="42.90375" lon="0.12697">
        <ele>1759.9</ele>
        <time>2019-08-18T12:57:30Z</time>
      </trkpt>
      <trkpt lat="42.90378" lon="0.12688">
        <ele>1758.4</ele>
        <time>2019-08-18T12:57:31Z</time>
      </trkpt>
      <trkpt lat="42.90381" lon="0.12678">
        <ele>1756.6</ele>
        <time>2019-08-18T12:57:32Z</time>
      </trkpt>
      <trkpt lat="42.90383" lon="0.12668">
        <ele>1754.7</ele>
        <time>2019-08-18T12:57:33Z</time>
      </trkpt>
      <trkpt lat="42.90386" lon="0.12659">
        <ele>1753.2</ele>
        <time>2019-08-18T12:57:34Z</time>
      </trkpt>
      <trkpt lat="42.90392" lon="0.12654">
        <ele>1751.8</ele>
        <time>2019-08-18T12:57:35Z</time>
      </trkpt>
      <trkpt lat="42.90398" lon="0.12652">
        <ele>1749.4</ele>
        <time>2019-08-18T12:57:36Z</time>
      </trkpt>
      <trkpt lat="42.90405" lon="0.12653">
        <ele>1748.2</ele>
        <time>2019-08-18T12:57:37Z</time>
      </trkpt>
      <trkpt lat="42.9041" lon="0.1266">
        <ele>1747.5</ele>
        <time>2019-08-18T12:57:38Z</time>
      </trkpt>
      <trkpt lat="42.90411" lon="0.12669">
        <ele>1746.8</ele>
        <time>2019-08-18T12:57:39Z</time>
      </trkpt>
      <trkpt lat="42.9041" lon="0.1268">
        <ele>1746.1</ele>
        <time>2019-08-18T12:57:40Z</time>
      </trkpt>
      <trkpt lat="42.90408" lon="0.1269">
        <ele>1745.4</ele>
        <time>2019-08-18T12:57:41Z</time>
      </trkpt>
      <trkpt lat="42.90408" lon="0.12701">
        <ele>1744.7</ele>
        <time>2019-08-18T12:57:42Z</time>
      </trkpt>
      <trkpt lat="42.90409" lon="0.12712">
        <ele>1744.1</ele>
        <time>2019-08-18T12:57:43Z</time>
      </trkpt>
      <trkpt lat="42.9041" lon="0.12723">
        <ele>1743.4</ele>
        <time>2019-08-18T12:57:44Z</time>
      </trkpt>
      <trkpt lat="42.90414" lon="0.12733">
        <ele>1742.8</ele>
        <time>2019-08-18T12:57:45Z</time>
      </trkpt>
      <trkpt lat="42.90416" lon="0.1274">
        <ele>1742.4</ele>
        <time>2019-08-18T12:57:46Z</time>
      </trkpt>
      <trkpt lat="42.9042" lon="0.1275">
        <ele>1741.8</ele>
        <time>2019-08-18T12:57:47Z</time>
      </trkpt>
      <trkpt lat="42.90422" lon="0.12761">
        <ele>1741.3</ele>
        <time>2019-08-18T12:57:48Z</time>
      </trkpt>
      <trkpt lat="42.90426" lon="0.12773">
        <ele>1740.7</ele>
        <time>2019-08-18T12:57:49Z</time>
      </trkpt>
      <trkpt lat="42.90427" lon="0.12784">
        <ele>1740.2</ele>
        <time>2019-08-18T12:57:50Z</time>
      </trkpt>
      <trkpt lat="42.90427" lon="0.12797">
        <ele>1739.6</ele>
        <time>2019-08-18T12:57:51Z</time>
      </trkpt>
      <trkpt lat="42.90427" lon="0.12807">
        <ele>1739.1</ele>
        <time>2019-08-18T12:57:52Z</time>
      </trkpt>
      <trkpt lat="42.90427" lon="0.1282">
        <ele>1738.6</ele>
        <time>2019-08-18T12:57:53Z</time>
      </trkpt>
      <trkpt lat="42.90427" lon="0.12833">
        <ele>1738</ele>
        <time>2019-08-18T12:57:54Z</time>
      </trkpt>
      <trkpt lat="42.90428" lon="0.12845">
        <ele>1737.5</ele>
        <time>2019-08-18T12:57:55Z</time>
      </trkpt>
      <trkpt lat="42.9043" lon="0.12858">
        <ele>1736.8</ele>
        <time>2019-08-18T12:57:56Z</time>
      </trkpt>
      <trkpt lat="42.90433" lon="0.12871">
        <ele>1736.1</ele>
        <time>2019-08-18T12:57:57Z</time>
      </trkpt>
      <trkpt lat="42.90437" lon="0.12885">
        <ele>1735.7</ele>
        <time>2019-08-18T12:57:58Z</time>
      </trkpt>
      <trkpt lat="42.90439" lon="0.12898">
        <ele>1735.2</ele>
        <time>2019-08-18T12:57:59Z</time>
      </trkpt>
      <trkpt lat="42.90442" lon="0.1291">
        <ele>1734.8</ele>
        <time>2019-08-18T12:58:00Z</time>
      </trkpt>
      <trkpt lat="42.90445" lon="0.12922">
        <ele>1734.4</ele>
        <time>2019-08-18T12:58:01Z</time>
      </trkpt>
      <trkpt lat="42.90448" lon="0.12935">
        <ele>1734</ele>
        <time>2019-08-18T12:58:02Z</time>
      </trkpt>
      <trkpt lat="42.90451" lon="0.12948">
        <ele>1733.5</ele>
        <time>2019-08-18T12:58:03Z</time>
      </trkpt>
      <trkpt lat="42.90454" lon="0.12959">
        <ele>1733.1</ele>
        <time>2019-08-18T12:58:04Z</time>
      </trkpt>
      <trkpt lat="42.90459" lon="0.12973">
        <ele>1732.6</ele>
        <time>2019-08-18T12:58:05Z</time>
      </trkpt>
      <trkpt lat="42.90466" lon="0.12984">
        <ele>1732.1</ele>
        <time>2019-08-18T12:58:06Z</time>
      </trkpt>
      <trkpt lat="42.90476" lon="0.12993">
        <ele>1731.7</ele>
        <time>2019-08-18T12:58:07Z</time>
      </trkpt>
      <trkpt lat="42.90486" lon="0.13">
        <ele>1731.3</ele>
        <time>2019-08-18T12:58:08Z</time>
      </trkpt>
      <trkpt lat="42.90496" lon="0.13007">
        <ele>1730.9</ele>
        <time>2019-08-18T12:58:09Z</time>
      </trkpt>
      <trkpt lat="42.90506" lon="0.13012">
        <ele>1730.6</ele>
        <time>2019-08-18T12:58:10Z</time>
      </trkpt>
      <trkpt lat="42.90516" lon="0.13019">
        <ele>1730.3</ele>
        <time>2019-08-18T12:58:11Z</time>
      </trkpt>
      <trkpt lat="42.90525" lon="0.13027">
        <ele>1730.4</ele>
        <time>2019-08-18T12:58:12Z</time>
      </trkpt>
      <trkpt lat="42.90532" lon="0.13036">
        <ele>1730.4</ele>
        <time>2019-08-18T12:58:13Z</time>
      </trkpt>
      <trkpt lat="42.90538" lon="0.13046">
        <ele>1730.3</ele>
        <time>2019-08-18T12:58:14Z</time>
      </trkpt>
      <trkpt lat="42.90545" lon="0.13056">
        <ele>1730.2</ele>
        <time>2019-08-18T12:58:15Z</time>
      </trkpt>
      <trkpt lat="42.9055" lon="0.13066">
        <ele>1729.9</ele>
        <time>2019-08-18T12:58:16Z</time>
      </trkpt>
      <trkpt lat="42.90555" lon="0.13076">
        <ele>1729.5</ele>
        <time>2019-08-18T12:58:17Z</time>
      </trkpt>
      <trkpt lat="42.90559" lon="0.13086">
        <ele>1729</ele>
        <time>2019-08-18T12:58:18Z</time>
      </trkpt>
      <trkpt lat="42.90562" lon="0.13096">
        <ele>1728.4</ele>
        <time>2019-08-18T12:58:19Z</time>
      </trkpt>
      <trkpt lat="42.90564" lon="0.13106">
        <ele>1727.7</ele>
        <time>2019-08-18T12:58:20Z</time>
      </trkpt>
      <trkpt lat="42.90565" lon="0.13116">
        <ele>1728.5</ele>
        <time>2019-08-18T12:58:21Z</time>
      </trkpt>
      <trkpt lat="42.90566" lon="0.13125">
        <ele>1729.4</ele>
        <time>2019-08-18T12:58:22Z</time>
      </trkpt>
      <trkpt lat="42.90568" lon="0.13133">
        <ele>1730</ele>
        <time>2019-08-18T12:58:23Z</time>
      </trkpt>
      <trkpt lat="42.90572" lon="0.13142">
        <ele>1730.8</ele>
        <time>2019-08-18T12:58:24Z</time>
      </trkpt>
      <trkpt lat="42.90578" lon="0.13149">
        <ele>1731.3</ele>
        <time>2019-08-18T12:58:25Z</time>
      </trkpt>
      <trkpt lat="42.90585" lon="0.13153">
        <ele>1731.2</ele>
        <time>2019-08-18T12:58:26Z</time>
      </trkpt>
      <trkpt lat="42.90595" lon="0.13158">
        <ele>1731</ele>
        <time>2019-08-18T12:58:27Z</time>
      </trkpt>
      <trkpt lat="42.90604" lon="0.13159">
        <ele>1730.9</ele>
        <time>2019-08-18T12:58:28Z</time>
      </trkpt>
      <trkpt lat="42.90614" lon="0.13158">
        <ele>1730.7</ele>
        <time>2019-08-18T12:58:29Z</time>
      </trkpt>
      <trkpt lat="42.90623" lon="0.13155">
        <ele>1730.2</ele>
        <time>2019-08-18T12:58:30Z</time>
      </trkpt>
      <trkpt lat="42.90632" lon="0.13151">
        <ele>1729.9</ele>
        <time>2019-08-18T12:58:31Z</time>
      </trkpt>
      <trkpt lat="42.9064" lon="0.13146">
        <ele>1729.6</ele>
        <time>2019-08-18T12:58:32Z</time>
      </trkpt>
      <trkpt lat="42.90647" lon="0.1314">
        <ele>1729.4</ele>
        <time>2019-08-18T12:58:33Z</time>
      </trkpt>
      <trkpt lat="42.90653" lon="0.13132">
        <ele>1729.3</ele>
        <time>2019-08-18T12:58:34Z</time>
      </trkpt>
      <trkpt lat="42.90657" lon="0.13121">
        <ele>1729.3</ele>
        <time>2019-08-18T12:58:35Z</time>
      </trkpt>
      <trkpt lat="42.9066" lon="0.13111">
        <ele>1729.2</ele>
        <time>2019-08-18T12:58:36Z</time>
      </trkpt>
      <trkpt lat="42.90663" lon="0.131">
        <ele>1729.2</ele>
        <time>2019-08-18T12:58:37Z</time>
      </trkpt>
      <trkpt lat="42.90666" lon="0.13088">
        <ele>1729.1</ele>
        <time>2019-08-18T12:58:38Z</time>
      </trkpt>
      <trkpt lat="42.90669" lon="0.13077">
        <ele>1728.9</ele>
        <time>2019-08-18T12:58:39Z</time>
      </trkpt>
      <trkpt lat="42.90672" lon="0.13065">
        <ele>1728.7</ele>
        <time>2019-08-18T12:58:40Z</time>
      </trkpt>
      <trkpt lat="42.90674" lon="0.13053">
        <ele>1728.4</ele>
        <time>2019-08-18T12:58:41Z</time>
      </trkpt>
      <trkpt lat="42.90678" lon="0.1304">
        <ele>1728</ele>
        <time>2019-08-18T12:58:42Z</time>
      </trkpt>
      <trkpt lat="42.90681" lon="0.13028">
        <ele>1727.5</ele>
        <time>2019-08-18T12:58:43Z</time>
      </trkpt>
      <trkpt lat="42.90684" lon="0.13016">
        <ele>1727.1</ele>
        <time>2019-08-18T12:58:44Z</time>
      </trkpt>
      <trkpt lat="42.90688" lon="0.13005">
        <ele>1726.6</ele>
        <time>2019-08-18T12:58:45Z</time>
      </trkpt>
      <trkpt lat="42.90692" lon="0.12992">
        <ele>1726.1</ele>
        <time>2019-08-18T12:58:46Z</time>
      </trkpt>
      <trkpt lat="42.90694" lon="0.12979">
        <ele>1725.5</ele>
        <time>2019-08-18T12:58:47Z</time>
      </trkpt>
      <trkpt lat="42.90696" lon="0.12965">
        <ele>1724.9</ele>
        <time>2019-08-18T12:58:48Z</time>
      </trkpt>
      <trkpt lat="42.90697" lon="0.1295">
        <ele>1724.1</ele>
        <time>2019-08-18T12:58:49Z</time>
      </trkpt>
      <trkpt lat="42.90698" lon="0.12936">
        <ele>1723.4</ele>
        <time>2019-08-18T12:58:50Z</time>
      </trkpt>
      <trkpt lat="42.90698" lon="0.12921">
        <ele>1722.5</ele>
        <time>2019-08-18T12:58:51Z</time>
      </trkpt>
      <trkpt lat="42.90699" lon="0.12905">
        <ele>1721.6</ele>
        <time>2019-08-18T12:58:52Z</time>
      </trkpt>
      <trkpt lat="42.90699" lon="0.12888">
        <ele>1720.6</ele>
        <time>2019-08-18T12:58:53Z</time>
      </trkpt>
      <trkpt lat="42.907" lon="0.1287">
        <ele>1719.7</ele>
        <time>2019-08-18T12:58:54Z</time>
      </trkpt>
      <trkpt lat="42.907" lon="0.12853">
        <ele>1718.7</ele>
        <time>2019-08-18T12:58:55Z</time>
      </trkpt>
      <trkpt lat="42.90701" lon="0.12836">
        <ele>1717.8</ele>
        <time>2019-08-18T12:58:56Z</time>
      </trkpt>
      <trkpt lat="42.90702" lon="0.12818">
        <ele>1716.8</ele>
        <time>2019-08-18T12:58:57Z</time>
      </trkpt>
      <trkpt lat="42.90703" lon="0.128">
        <ele>1715.7</ele>
        <time>2019-08-18T12:58:58Z</time>
      </trkpt>
      <trkpt lat="42.90703" lon="0.12781">
        <ele>1714.6</ele>
        <time>2019-08-18T12:58:59Z</time>
      </trkpt>
      <trkpt lat="42.90705" lon="0.12762">
        <ele>1713.4</ele>
        <time>2019-08-18T12:59:00Z</time>
      </trkpt>
      <trkpt lat="42.90707" lon="0.12742">
        <ele>1712.2</ele>
        <time>2019-08-18T12:59:01Z</time>
      </trkpt>
      <trkpt lat="42.90708" lon="0.12723">
        <ele>1711</ele>
        <time>2019-08-18T12:59:02Z</time>
      </trkpt>
      <trkpt lat="42.9071" lon="0.12703">
        <ele>1709.7</ele>
        <time>2019-08-18T12:59:03Z</time>
      </trkpt>
      <trkpt lat="42.9071" lon="0.12683">
        <ele>1708.5</ele>
        <time>2019-08-18T12:59:04Z</time>
      </trkpt>
      <trkpt lat="42.90712" lon="0.12663">
        <ele>1707.5</ele>
        <time>2019-08-18T12:59:05Z</time>
      </trkpt>
      <trkpt lat="42.90712" lon="0.12643">
        <ele>1706.5</ele>
        <time>2019-08-18T12:59:06Z</time>
      </trkpt>
      <trkpt lat="42.90714" lon="0.12622">
        <ele>1705.4</ele>
        <time>2019-08-18T12:59:07Z</time>
      </trkpt>
      <trkpt lat="42.90714" lon="0.12602">
        <ele>1704.4</ele>
        <time>2019-08-18T12:59:08Z</time>
      </trkpt>
      <trkpt lat="42.90715" lon="0.12581">
        <ele>1703.1</ele>
        <time>2019-08-18T12:59:09Z</time>
      </trkpt>
      <trkpt lat="42.90714" lon="0.1256">
        <ele>1701.7</ele>
        <time>2019-08-18T12:59:10Z</time>
      </trkpt>
      <trkpt lat="42.90713" lon="0.1254">
        <ele>1700.2</ele>
        <time>2019-08-18T12:59:11Z</time>
      </trkpt>
      <trkpt lat="42.90712" lon="0.1252">
        <ele>1698.7</ele>
        <time>2019-08-18T12:59:12Z</time>
      </trkpt>
      <trkpt lat="42.90711" lon="0.12497">
        <ele>1697.2</ele>
        <time>2019-08-18T12:59:13Z</time>
      </trkpt>
      <trkpt lat="42.9071" lon="0.12476">
        <ele>1695.8</ele>
        <time>2019-08-18T12:59:14Z</time>
      </trkpt>
      <trkpt lat="42.90709" lon="0.12455">
        <ele>1694.4</ele>
        <time>2019-08-18T12:59:15Z</time>
      </trkpt>
      <trkpt lat="42.90709" lon="0.12434">
        <ele>1693</ele>
        <time>2019-08-18T12:59:16Z</time>
      </trkpt>
      <trkpt lat="42.9071" lon="0.12413">
        <ele>1691.5</ele>
        <time>2019-08-18T12:59:17Z</time>
      </trkpt>
      <trkpt lat="42.90711" lon="0.12392">
        <ele>1690</ele>
        <time>2019-08-18T12:59:18Z</time>
      </trkpt>
      <trkpt lat="42.90711" lon="0.1237">
        <ele>1688.5</ele>
        <time>2019-08-18T12:59:19Z</time>
      </trkpt>
      <trkpt lat="42.90713" lon="0.12348">
        <ele>1687.1</ele>
        <time>2019-08-18T12:59:20Z</time>
      </trkpt>
      <trkpt lat="42.90714" lon="0.12326">
        <ele>1685.7</ele>
        <time>2019-08-18T12:59:21Z</time>
      </trkpt>
      <trkpt lat="42.90716" lon="0.12303">
        <ele>1684.3</ele>
        <time>2019-08-18T12:59:22Z</time>
      </trkpt>
      <trkpt lat="42.90715" lon="0.12281">
        <ele>1682.9</ele>
        <time>2019-08-18T12:59:23Z</time>
      </trkpt>
      <trkpt lat="42.90715" lon="0.12259">
        <ele>1681.5</ele>
        <time>2019-08-18T12:59:24Z</time>
      </trkpt>
      <trkpt lat="42.90714" lon="0.12237">
        <ele>1679.6</ele>
        <time>2019-08-18T12:59:25Z</time>
      </trkpt>
      <trkpt lat="42.90716" lon="0.12217">
        <ele>1678</ele>
        <time>2019-08-18T12:59:26Z</time>
      </trkpt>
      <trkpt lat="42.90716" lon="0.12196">
        <ele>1676.4</ele>
        <time>2019-08-18T12:59:27Z</time>
      </trkpt>
      <trkpt lat="42.90715" lon="0.12174">
        <ele>1674.7</ele>
        <time>2019-08-18T12:59:28Z</time>
      </trkpt>
      <trkpt lat="42.90714" lon="0.12152">
        <ele>1673</ele>
        <time>2019-08-18T12:59:29Z</time>
      </trkpt>
      <trkpt lat="42.90714" lon="0.12129">
        <ele>1671.3</ele>
        <time>2019-08-18T12:59:30Z</time>
      </trkpt>
      <trkpt lat="42.90715" lon="0.12108">
        <ele>1669.6</ele>
        <time>2019-08-18T12:59:31Z</time>
      </trkpt>
      <trkpt lat="42.90715" lon="0.12085">
        <ele>1668.2</ele>
        <time>2019-08-18T12:59:32Z</time>
      </trkpt>
      <trkpt lat="42.90715" lon="0.12062">
        <ele>1666.9</ele>
        <time>2019-08-18T12:59:33Z</time>
      </trkpt>
      <trkpt lat="42.90717" lon="0.1204">
        <ele>1665.2</ele>
        <time>2019-08-18T12:59:34Z</time>
      </trkpt>
      <trkpt lat="42.90719" lon="0.12017">
        <ele>1663.5</ele>
        <time>2019-08-18T12:59:35Z</time>
      </trkpt>
      <trkpt lat="42.9072" lon="0.11994">
        <ele>1661.8</ele>
        <time>2019-08-18T12:59:36Z</time>
      </trkpt>
      <trkpt lat="42.90722" lon="0.1197">
        <ele>1660</ele>
        <time>2019-08-18T12:59:37Z</time>
      </trkpt>
      <trkpt lat="42.90725" lon="0.11946">
        <ele>1658.4</ele>
        <time>2019-08-18T12:59:38Z</time>
      </trkpt>
      <trkpt lat="42.90727" lon="0.11922">
        <ele>1656.6</ele>
        <time>2019-08-18T12:59:39Z</time>
      </trkpt>
      <trkpt lat="42.9073" lon="0.11898">
        <ele>1654.4</ele>
        <time>2019-08-18T12:59:40Z</time>
      </trkpt>
      <trkpt lat="42.90732" lon="0.11874">
        <ele>1652.4</ele>
        <time>2019-08-18T12:59:41Z</time>
      </trkpt>
      <trkpt lat="42.90734" lon="0.11852">
        <ele>1650.6</ele>
        <time>2019-08-18T12:59:42Z</time>
      </trkpt>
      <trkpt lat="42.90737" lon="0.11832">
        <ele>1649</ele>
        <time>2019-08-18T12:59:43Z</time>
      </trkpt>
      <trkpt lat="42.9074" lon="0.11814">
        <ele>1647.5</ele>
        <time>2019-08-18T12:59:44Z</time>
      </trkpt>
      <trkpt lat="42.90743" lon="0.11794">
        <ele>1646.3</ele>
        <time>2019-08-18T12:59:45Z</time>
      </trkpt>
      <trkpt lat="42.90745" lon="0.11774">
        <ele>1645.1</ele>
        <time>2019-08-18T12:59:46Z</time>
      </trkpt>
      <trkpt lat="42.90749" lon="0.11756">
        <ele>1643.7</ele>
        <time>2019-08-18T12:59:47Z</time>
      </trkpt>
      <trkpt lat="42.90752" lon="0.11736">
        <ele>1642.6</ele>
        <time>2019-08-18T12:59:48Z</time>
      </trkpt>
      <trkpt lat="42.90756" lon="0.11717">
        <ele>1641.3</ele>
        <time>2019-08-18T12:59:49Z</time>
      </trkpt>
      <trkpt lat="42.90762" lon="0.117">
        <ele>1639.7</ele>
        <time>2019-08-18T12:59:50Z</time>
      </trkpt>
      <trkpt lat="42.90768" lon="0.11681">
        <ele>1637.9</ele>
        <time>2019-08-18T12:59:51Z</time>
      </trkpt>
      <trkpt lat="42.90775" lon="0.11664">
        <ele>1636</ele>
        <time>2019-08-18T12:59:52Z</time>
      </trkpt>
      <trkpt lat="42.90782" lon="0.11649">
        <ele>1634.2</ele>
        <time>2019-08-18T12:59:53Z</time>
      </trkpt>
      <trkpt lat="42.90789" lon="0.11634">
        <ele>1632.6</ele>
        <time>2019-08-18T12:59:54Z</time>
      </trkpt>
      <trkpt lat="42.90795" lon="0.11621">
        <ele>1631.4</ele>
        <time>2019-08-18T12:59:55Z</time>
      </trkpt>
      <trkpt lat="42.90802" lon="0.11611">
        <ele>1630.2</ele>
        <time>2019-08-18T12:59:56Z</time>
      </trkpt>
      <trkpt lat="42.90808" lon="0.116">
        <ele>1628.6</ele>
        <time>2019-08-18T12:59:57Z</time>
      </trkpt>
      <trkpt lat="42.90813" lon="0.1159">
        <ele>1627.2</ele>
        <time>2019-08-18T12:59:58Z</time>
      </trkpt>
      <trkpt lat="42.90818" lon="0.11581">
        <ele>1626.8</ele>
        <time>2019-08-18T12:59:59Z</time>
      </trkpt>
      <trkpt lat="42.90819" lon="0.11573">
        <ele>1626.6</ele>
        <time>2019-08-18T13:00:00Z</time>
      </trkpt>
      <trkpt lat="42.90818" lon="0.11564">
        <ele>1626.4</ele>
        <time>2019-08-18T13:00:01Z</time>
      </trkpt>
      <trkpt lat="42.90813" lon="0.11557">
        <ele>1626.1</ele>
        <time>2019-08-18T13:00:02Z</time>
      </trkpt>
      <trkpt lat="42.90806" lon="0.11554">
        <ele>1625.8</ele>
        <time>2019-08-18T13:00:03Z</time>
      </trkpt>
      <trkpt lat="42.90799" lon="0.11557">
        <ele>1625.3</ele>
        <time>2019-08-18T13:00:04Z</time>
      </trkpt>
      <trkpt lat="42.90791" lon="0.11562">
        <ele>1624.9</ele>
        <time>2019-08-18T13:00:05Z</time>
      </trkpt>
      <trkpt lat="42.90785" lon="0.1157">
        <ele>1624.5</ele>
        <time>2019-08-18T13:00:06Z</time>
      </trkpt>
      <trkpt lat="42.90778" lon="0.11576">
        <ele>1624</ele>
        <time>2019-08-18T13:00:07Z</time>
      </trkpt>
      <trkpt lat="42.9077" lon="0.11585">
        <ele>1623.3</ele>
        <time>2019-08-18T13:00:08Z</time>
      </trkpt>
      <trkpt lat="42.90762" lon="0.11593">
        <ele>1622.5</ele>
        <time>2019-08-18T13:00:09Z</time>
      </trkpt>
      <trkpt lat="42.90755" lon="0.11602">
        <ele>1621.7</ele>
        <time>2019-08-18T13:00:10Z</time>
      </trkpt>
      <trkpt lat="42.90747" lon="0.11611">
        <ele>1621</ele>
        <time>2019-08-18T13:00:11Z</time>
      </trkpt>
      <trkpt lat="42.90741" lon="0.11619">
        <ele>1620.3</ele>
        <time>2019-08-18T13:00:12Z</time>
      </trkpt>
      <trkpt lat="42.90734" lon="0.11625">
        <ele>1619.8</ele>
        <time>2019-08-18T13:00:13Z</time>
      </trkpt>
      <trkpt lat="42.90728" lon="0.11626">
        <ele>1619.4</ele>
        <time>2019-08-18T13:00:14Z</time>
      </trkpt>
      <trkpt lat="42.90721" lon="0.11622">
        <ele>1619</ele>
        <time>2019-08-18T13:00:15Z</time>
      </trkpt>
      <trkpt lat="42.90718" lon="0.11613">
        <ele>1618.5</ele>
        <time>2019-08-18T13:00:16Z</time>
      </trkpt>
      <trkpt lat="42.90719" lon="0.11602">
        <ele>1617.8</ele>
        <time>2019-08-18T13:00:17Z</time>
      </trkpt>
      <trkpt lat="42.90722" lon="0.11591">
        <ele>1617</ele>
        <time>2019-08-18T13:00:18Z</time>
      </trkpt>
      <trkpt lat="42.90726" lon="0.11578">
        <ele>1616.2</ele>
        <time>2019-08-18T13:00:19Z</time>
      </trkpt>
      <trkpt lat="42.90729" lon="0.11566">
        <ele>1615.3</ele>
        <time>2019-08-18T13:00:20Z</time>
      </trkpt>
      <trkpt lat="42.90732" lon="0.11553">
        <ele>1614.1</ele>
        <time>2019-08-18T13:00:21Z</time>
      </trkpt>
      <trkpt lat="42.90735" lon="0.11539">
        <ele>1612.8</ele>
        <time>2019-08-18T13:00:22Z</time>
      </trkpt>
      <trkpt lat="42.90737" lon="0.11524">
        <ele>1611.4</ele>
        <time>2019-08-18T13:00:23Z</time>
      </trkpt>
      <trkpt lat="42.90738" lon="0.11509">
        <ele>1610.1</ele>
        <time>2019-08-18T13:00:24Z</time>
      </trkpt>
      <trkpt lat="42.9074" lon="0.11493">
        <ele>1608.7</ele>
        <time>2019-08-18T13:00:25Z</time>
      </trkpt>
      <trkpt lat="42.9074" lon="0.11476">
        <ele>1607.3</ele>
        <time>2019-08-18T13:00:26Z</time>
      </trkpt>
      <trkpt lat="42.9074" lon="0.11459">
        <ele>1606.1</ele>
        <time>2019-08-18T13:00:27Z</time>
      </trkpt>
      <trkpt lat="42.90739" lon="0.11442">
        <ele>1604.9</ele>
        <time>2019-08-18T13:00:28Z</time>
      </trkpt>
      <trkpt lat="42.90738" lon="0.11425">
        <ele>1603.8</ele>
        <time>2019-08-18T13:00:29Z</time>
      </trkpt>
      <trkpt lat="42.90736" lon="0.11407">
        <ele>1603</ele>
        <time>2019-08-18T13:00:30Z</time>
      </trkpt>
      <trkpt lat="42.90733" lon="0.11388">
        <ele>1602.1</ele>
        <time>2019-08-18T13:00:31Z</time>
      </trkpt>
      <trkpt lat="42.90731" lon="0.11369">
        <ele>1600.8</ele>
        <time>2019-08-18T13:00:32Z</time>
      </trkpt>
      <trkpt lat="42.90729" lon="0.11349">
        <ele>1599.3</ele>
        <time>2019-08-18T13:00:33Z</time>
      </trkpt>
      <trkpt lat="42.90728" lon="0.11329">
        <ele>1597.8</ele>
        <time>2019-08-18T13:00:34Z</time>
      </trkpt>
      <trkpt lat="42.90728" lon="0.11309">
        <ele>1596.4</ele>
        <time>2019-08-18T13:00:35Z</time>
      </trkpt>
      <trkpt lat="42.90727" lon="0.11288">
        <ele>1595</ele>
        <time>2019-08-18T13:00:36Z</time>
      </trkpt>
      <trkpt lat="42.90727" lon="0.11267">
        <ele>1594</ele>
        <time>2019-08-18T13:00:37Z</time>
      </trkpt>
      <trkpt lat="42.90727" lon="0.11246">
        <ele>1592.8</ele>
        <time>2019-08-18T13:00:38Z</time>
      </trkpt>
      <trkpt lat="42.90726" lon="0.11225">
        <ele>1591.6</ele>
        <time>2019-08-18T13:00:39Z</time>
      </trkpt>
      <trkpt lat="42.90724" lon="0.11204">
        <ele>1590.6</ele>
        <time>2019-08-18T13:00:40Z</time>
      </trkpt>
      <trkpt lat="42.9072" lon="0.11183">
        <ele>1589.3</ele>
        <time>2019-08-18T13:00:41Z</time>
      </trkpt>
      <trkpt lat="42.90714" lon="0.11162">
        <ele>1587.7</ele>
        <time>2019-08-18T13:00:42Z</time>
      </trkpt>
      <trkpt lat="42.90709" lon="0.11142">
        <ele>1585.9</ele>
        <time>2019-08-18T13:00:43Z</time>
      </trkpt>
      <trkpt lat="42.90703" lon="0.1112">
        <ele>1584</ele>
        <time>2019-08-18T13:00:44Z</time>
      </trkpt>
      <trkpt lat="42.90698" lon="0.111">
        <ele>1582.1</ele>
        <time>2019-08-18T13:00:45Z</time>
      </trkpt>
      <trkpt lat="42.90692" lon="0.1108">
        <ele>1580.2</ele>
        <time>2019-08-18T13:00:46Z</time>
      </trkpt>
      <trkpt lat="42.90687" lon="0.11061">
        <ele>1578.4</ele>
        <time>2019-08-18T13:00:47Z</time>
      </trkpt>
      <trkpt lat="42.90683" lon="0.11043">
        <ele>1576.8</ele>
        <time>2019-08-18T13:00:48Z</time>
      </trkpt>
      <trkpt lat="42.90677" lon="0.11025">
        <ele>1575.3</ele>
        <time>2019-08-18T13:00:49Z</time>
      </trkpt>
      <trkpt lat="42.90672" lon="0.11007">
        <ele>1574.2</ele>
        <time>2019-08-18T13:00:50Z</time>
      </trkpt>
      <trkpt lat="42.90666" lon="0.10989">
        <ele>1573.2</ele>
        <time>2019-08-18T13:00:51Z</time>
      </trkpt>
      <trkpt lat="42.90661" lon="0.1097">
        <ele>1572.3</ele>
        <time>2019-08-18T13:00:52Z</time>
      </trkpt>
      <trkpt lat="42.90657" lon="0.10951">
        <ele>1571.3</ele>
        <time>2019-08-18T13:00:53Z</time>
      </trkpt>
      <trkpt lat="42.90653" lon="0.10932">
        <ele>1570.1</ele>
        <time>2019-08-18T13:00:54Z</time>
      </trkpt>
      <trkpt lat="42.9065" lon="0.10912">
        <ele>1568.6</ele>
        <time>2019-08-18T13:00:55Z</time>
      </trkpt>
      <trkpt lat="42.90648" lon="0.10892">
        <ele>1567.1</ele>
        <time>2019-08-18T13:00:56Z</time>
      </trkpt>
      <trkpt lat="42.90645" lon="0.10873">
        <ele>1565.6</ele>
        <time>2019-08-18T13:00:57Z</time>
      </trkpt>
      <trkpt lat="42.90643" lon="0.10855">
        <ele>1564.2</ele>
        <time>2019-08-18T13:00:58Z</time>
      </trkpt>
      <trkpt lat="42.90641" lon="0.10836">
        <ele>1562.8</ele>
        <time>2019-08-18T13:00:59Z</time>
      </trkpt>
      <trkpt lat="42.90639" lon="0.10817">
        <ele>1561.4</ele>
        <time>2019-08-18T13:01:00Z</time>
      </trkpt>
      <trkpt lat="42.90638" lon="0.10797">
        <ele>1560</ele>
        <time>2019-08-18T13:01:01Z</time>
      </trkpt>
      <trkpt lat="42.90637" lon="0.10778">
        <ele>1558.7</ele>
        <time>2019-08-18T13:01:02Z</time>
      </trkpt>
      <trkpt lat="42.90637" lon="0.10761">
        <ele>1557.6</ele>
        <time>2019-08-18T13:01:03Z</time>
      </trkpt>
      <trkpt lat="42.90637" lon="0.10743">
        <ele>1556.3</ele>
        <time>2019-08-18T13:01:04Z</time>
      </trkpt>
      <trkpt lat="42.90637" lon="0.10724">
        <ele>1555</ele>
        <time>2019-08-18T13:01:05Z</time>
      </trkpt>
      <trkpt lat="42.90635" lon="0.10707">
        <ele>1553.8</ele>
        <time>2019-08-18T13:01:06Z</time>
      </trkpt>
      <trkpt lat="42.90633" lon="0.1069">
        <ele>1552.5</ele>
        <time>2019-08-18T13:01:07Z</time>
      </trkpt>
      <trkpt lat="42.9063" lon="0.10675">
        <ele>1551.3</ele>
        <time>2019-08-18T13:01:08Z</time>
      </trkpt>
      <trkpt lat="42.90627" lon="0.1066">
        <ele>1550.3</ele>
        <time>2019-08-18T13:01:09Z</time>
      </trkpt>
      <trkpt lat="42.90624" lon="0.10647">
        <ele>1549.3</ele>
        <time>2019-08-18T13:01:10Z</time>
      </trkpt>
      <trkpt lat="42.90621" lon="0.10633">
        <ele>1548.5</ele>
        <time>2019-08-18T13:01:11Z</time>
      </trkpt>
      <trkpt lat="42.90619" lon="0.10619">
        <ele>1547.8</ele>
        <time>2019-08-18T13:01:12Z</time>
      </trkpt>
      <trkpt lat="42.90617" lon="0.10605">
        <ele>1547.3</ele>
        <time>2019-08-18T13:01:13Z</time>
      </trkpt>
      <trkpt lat="42.90618" lon="0.10591">
        <ele>1546.7</ele>
        <time>2019-08-18T13:01:14Z</time>
      </trkpt>
      <trkpt lat="42.90622" lon="0.10577">
        <ele>1546.2</ele>
        <time>2019-08-18T13:01:15Z</time>
      </trkpt>
      <trkpt lat="42.90626" lon="0.10564">
        <ele>1545.8</ele>
        <time>2019-08-18T13:01:16Z</time>
      </trkpt>
      <trkpt lat="42.90628" lon="0.1055">
        <ele>1545.4</ele>
        <time>2019-08-18T13:01:17Z</time>
      </trkpt>
      <trkpt lat="42.9063" lon="0.10534">
        <ele>1544.9</ele>
        <time>2019-08-18T13:01:18Z</time>
      </trkpt>
      <trkpt lat="42.9063" lon="0.1052">
        <ele>1544.3</ele>
        <time>2019-08-18T13:01:19Z</time>
      </trkpt>
      <trkpt lat="42.9063" lon="0.10504">
        <ele>1543.6</ele>
        <time>2019-08-18T13:01:20Z</time>
      </trkpt>
      <trkpt lat="42.90629" lon="0.10489">
        <ele>1542.8</ele>
        <time>2019-08-18T13:01:21Z</time>
      </trkpt>
      <trkpt lat="42.9063" lon="0.10474">
        <ele>1542</ele>
        <time>2019-08-18T13:01:22Z</time>
      </trkpt>
      <trkpt lat="42.90631" lon="0.10458">
        <ele>1541</ele>
        <time>2019-08-18T13:01:23Z</time>
      </trkpt>
      <trkpt lat="42.90632" lon="0.10442">
        <ele>1540</ele>
        <time>2019-08-18T13:01:24Z</time>
      </trkpt>
      <trkpt lat="42.90635" lon="0.10426">
        <ele>1538.9</ele>
        <time>2019-08-18T13:01:25Z</time>
      </trkpt>
      <trkpt lat="42.90636" lon="0.10409">
        <ele>1538</ele>
        <time>2019-08-18T13:01:26Z</time>
      </trkpt>
      <trkpt lat="42.90638" lon="0.10391">
        <ele>1537.2</ele>
        <time>2019-08-18T13:01:27Z</time>
      </trkpt>
      <trkpt lat="42.9064" lon="0.10374">
        <ele>1536.2</ele>
        <time>2019-08-18T13:01:28Z</time>
      </trkpt>
      <trkpt lat="42.90642" lon="0.10357">
        <ele>1535.1</ele>
        <time>2019-08-18T13:01:29Z</time>
      </trkpt>
      <trkpt lat="42.90644" lon="0.10341">
        <ele>1534</ele>
        <time>2019-08-18T13:01:30Z</time>
      </trkpt>
      <trkpt lat="42.90645" lon="0.10324">
        <ele>1532.8</ele>
        <time>2019-08-18T13:01:31Z</time>
      </trkpt>
      <trkpt lat="42.90647" lon="0.10308">
        <ele>1531.7</ele>
        <time>2019-08-18T13:01:32Z</time>
      </trkpt>
      <trkpt lat="42.90649" lon="0.10292">
        <ele>1530.5</ele>
        <time>2019-08-18T13:01:33Z</time>
      </trkpt>
      <trkpt lat="42.9065" lon="0.10276">
        <ele>1529.4</ele>
        <time>2019-08-18T13:01:34Z</time>
      </trkpt>
      <trkpt lat="42.90653" lon="0.10262">
        <ele>1528.6</ele>
        <time>2019-08-18T13:01:35Z</time>
      </trkpt>
      <trkpt lat="42.90655" lon="0.10248">
        <ele>1528.1</ele>
        <time>2019-08-18T13:01:36Z</time>
      </trkpt>
      <trkpt lat="42.90657" lon="0.10235">
        <ele>1527.6</ele>
        <time>2019-08-18T13:01:37Z</time>
      </trkpt>
      <trkpt lat="42.90659" lon="0.10224">
        <ele>1527.3</ele>
        <time>2019-08-18T13:01:38Z</time>
      </trkpt>
      <trkpt lat="42.90661" lon="0.10213">
        <ele>1527</ele>
        <time>2019-08-18T13:01:39Z</time>
      </trkpt>
      <trkpt lat="42.90661" lon="0.10204">
        <ele>1526.8</ele>
        <time>2019-08-18T13:01:40Z</time>
      </trkpt>
      <trkpt lat="42.90658" lon="0.10195">
        <ele>1526.6</ele>
        <time>2019-08-18T13:01:41Z</time>
      </trkpt>
      <trkpt lat="42.90652" lon="0.1019">
        <ele>1526.5</ele>
        <time>2019-08-18T13:01:42Z</time>
      </trkpt>
      <trkpt lat="42.90646" lon="0.1019">
        <ele>1525.7</ele>
        <time>2019-08-18T13:01:43Z</time>
      </trkpt>
      <trkpt lat="42.90641" lon="0.10194">
        <ele>1524.6</ele>
        <time>2019-08-18T13:01:44Z</time>
      </trkpt>
      <trkpt lat="42.90637" lon="0.10201">
        <ele>1523.8</ele>
        <time>2019-08-18T13:01:45Z</time>
      </trkpt>
      <trkpt lat="42.90636" lon="0.10211">
        <ele>1522.8</ele>
        <time>2019-08-18T13:01:46Z</time>
      </trkpt>
      <trkpt lat="42.90635" lon="0.1022">
        <ele>1522</ele>
        <time>2019-08-18T13:01:47Z</time>
      </trkpt>
      <trkpt lat="42.90635" lon="0.1023">
        <ele>1521.1</ele>
        <time>2019-08-18T13:01:48Z</time>
      </trkpt>
      <trkpt lat="42.90635" lon="0.1024">
        <ele>1520.3</ele>
        <time>2019-08-18T13:01:49Z</time>
      </trkpt>
      <trkpt lat="42.90634" lon="0.10251">
        <ele>1519.5</ele>
        <time>2019-08-18T13:01:50Z</time>
      </trkpt>
      <trkpt lat="42.90632" lon="0.10263">
        <ele>1518.7</ele>
        <time>2019-08-18T13:01:51Z</time>
      </trkpt>
      <trkpt lat="42.90629" lon="0.10275">
        <ele>1517.8</ele>
        <time>2019-08-18T13:01:52Z</time>
      </trkpt>
      <trkpt lat="42.90625" lon="0.10287">
        <ele>1516.9</ele>
        <time>2019-08-18T13:01:53Z</time>
      </trkpt>
      <trkpt lat="42.90619" lon="0.10298">
        <ele>1516</ele>
        <time>2019-08-18T13:01:54Z</time>
      </trkpt>
      <trkpt lat="42.90614" lon="0.10311">
        <ele>1515.1</ele>
        <time>2019-08-18T13:01:55Z</time>
      </trkpt>
      <trkpt lat="42.9061" lon="0.10324">
        <ele>1514.2</ele>
        <time>2019-08-18T13:01:56Z</time>
      </trkpt>
      <trkpt lat="42.90606" lon="0.10337">
        <ele>1513.2</ele>
        <time>2019-08-18T13:01:57Z</time>
      </trkpt>
      <trkpt lat="42.90601" lon="0.10351">
        <ele>1512.3</ele>
        <time>2019-08-18T13:01:58Z</time>
      </trkpt>
      <trkpt lat="42.90596" lon="0.10363">
        <ele>1511.3</ele>
        <time>2019-08-18T13:01:59Z</time>
      </trkpt>
      <trkpt lat="42.9059" lon="0.10377">
        <ele>1510.3</ele>
        <time>2019-08-18T13:02:00Z</time>
      </trkpt>
      <trkpt lat="42.90584" lon="0.10391">
        <ele>1509.3</ele>
        <time>2019-08-18T13:02:01Z</time>
      </trkpt>
      <trkpt lat="42.90578" lon="0.10405">
        <ele>1508.3</ele>
        <time>2019-08-18T13:02:02Z</time>
      </trkpt>
      <trkpt lat="42.90573" lon="0.10417">
        <ele>1507.5</ele>
        <time>2019-08-18T13:02:03Z</time>
      </trkpt>
      <trkpt lat="42.90567" lon="0.10428">
        <ele>1506.7</ele>
        <time>2019-08-18T13:02:04Z</time>
      </trkpt>
      <trkpt lat="42.90562" lon="0.10438">
        <ele>1505.9</ele>
        <time>2019-08-18T13:02:05Z</time>
      </trkpt>
      <trkpt lat="42.90557" lon="0.10448">
        <ele>1505.1</ele>
        <time>2019-08-18T13:02:06Z</time>
      </trkpt>
      <trkpt lat="42.90551" lon="0.10456">
        <ele>1504.3</ele>
        <time>2019-08-18T13:02:07Z</time>
      </trkpt>
      <trkpt lat="42.90545" lon="0.10461">
        <ele>1503.6</ele>
        <time>2019-08-18T13:02:08Z</time>
      </trkpt>
      <trkpt lat="42.90539" lon="0.10464">
        <ele>1502.8</ele>
        <time>2019-08-18T13:02:09Z</time>
      </trkpt>
      <trkpt lat="42.90533" lon="0.10463">
        <ele>1502.1</ele>
        <time>2019-08-18T13:02:10Z</time>
      </trkpt>
      <trkpt lat="42.90528" lon="0.10459">
        <ele>1501.5</ele>
        <time>2019-08-18T13:02:11Z</time>
      </trkpt>
      <trkpt lat="42.90526" lon="0.10451">
        <ele>1501</ele>
        <time>2019-08-18T13:02:12Z</time>
      </trkpt>
      <trkpt lat="42.90527" lon="0.10442">
        <ele>1500.5</ele>
        <time>2019-08-18T13:02:13Z</time>
      </trkpt>
      <trkpt lat="42.90531" lon="0.10434">
        <ele>1500.1</ele>
        <time>2019-08-18T13:02:14Z</time>
      </trkpt>
      <trkpt lat="42.90536" lon="0.10427">
        <ele>1499.7</ele>
        <time>2019-08-18T13:02:15Z</time>
      </trkpt>
      <trkpt lat="42.90541" lon="0.10418">
        <ele>1499.2</ele>
        <time>2019-08-18T13:02:16Z</time>
      </trkpt>
      <trkpt lat="42.90548" lon="0.10409">
        <ele>1498.8</ele>
        <time>2019-08-18T13:02:17Z</time>
      </trkpt>
      <trkpt lat="42.90552" lon="0.10398">
        <ele>1498.5</ele>
        <time>2019-08-18T13:02:18Z</time>
      </trkpt>
      <trkpt lat="42.90555" lon="0.10386">
        <ele>1498.1</ele>
        <time>2019-08-18T13:02:19Z</time>
      </trkpt>
      <trkpt lat="42.90558" lon="0.10373">
        <ele>1497.7</ele>
        <time>2019-08-18T13:02:20Z</time>
      </trkpt>
      <trkpt lat="42.9056" lon="0.10359">
        <ele>1497.2</ele>
        <time>2019-08-18T13:02:21Z</time>
      </trkpt>
      <trkpt lat="42.90562" lon="0.10345">
        <ele>1496.7</ele>
        <time>2019-08-18T13:02:22Z</time>
      </trkpt>
      <trkpt lat="42.90564" lon="0.1033">
        <ele>1496</ele>
        <time>2019-08-18T13:02:23Z</time>
      </trkpt>
      <trkpt lat="42.90566" lon="0.10315">
        <ele>1495.2</ele>
        <time>2019-08-18T13:02:24Z</time>
      </trkpt>
      <trkpt lat="42.90567" lon="0.10299">
        <ele>1494.4</ele>
        <time>2019-08-18T13:02:25Z</time>
      </trkpt>
      <trkpt lat="42.90569" lon="0.10284">
        <ele>1493.5</ele>
        <time>2019-08-18T13:02:26Z</time>
      </trkpt>
      <trkpt lat="42.9057" lon="0.10268">
        <ele>1492.6</ele>
        <time>2019-08-18T13:02:27Z</time>
      </trkpt>
      <trkpt lat="42.9057" lon="0.10251">
        <ele>1491.7</ele>
        <time>2019-08-18T13:02:28Z</time>
      </trkpt>
      <trkpt lat="42.9057" lon="0.10235">
        <ele>1490.8</ele>
        <time>2019-08-18T13:02:29Z</time>
      </trkpt>
      <trkpt lat="42.90569" lon="0.1022">
        <ele>1490.1</ele>
        <time>2019-08-18T13:02:30Z</time>
      </trkpt>
      <trkpt lat="42.90568" lon="0.10206">
        <ele>1489.3</ele>
        <time>2019-08-18T13:02:31Z</time>
      </trkpt>
      <trkpt lat="42.90565" lon="0.10193">
        <ele>1488.6</ele>
        <time>2019-08-18T13:02:32Z</time>
      </trkpt>
      <trkpt lat="42.90562" lon="0.10181">
        <ele>1487.9</ele>
        <time>2019-08-18T13:02:33Z</time>
      </trkpt>
      <trkpt lat="42.90559" lon="0.10171">
        <ele>1487.3</ele>
        <time>2019-08-18T13:02:34Z</time>
      </trkpt>
      <trkpt lat="42.90554" lon="0.10164">
        <ele>1486.7</ele>
        <time>2019-08-18T13:02:35Z</time>
      </trkpt>
      <trkpt lat="42.90549" lon="0.1016">
        <ele>1486</ele>
        <time>2019-08-18T13:02:36Z</time>
      </trkpt>
      <trkpt lat="42.90542" lon="0.1016">
        <ele>1485.4</ele>
        <time>2019-08-18T13:02:37Z</time>
      </trkpt>
      <trkpt lat="42.90536" lon="0.10165">
        <ele>1484.7</ele>
        <time>2019-08-18T13:02:38Z</time>
      </trkpt>
      <trkpt lat="42.90532" lon="0.10174">
        <ele>1483.9</ele>
        <time>2019-08-18T13:02:39Z</time>
      </trkpt>
      <trkpt lat="42.9053" lon="0.10184">
        <ele>1483.2</ele>
        <time>2019-08-18T13:02:40Z</time>
      </trkpt>
      <trkpt lat="42.90529" lon="0.10196">
        <ele>1482.5</ele>
        <time>2019-08-18T13:02:41Z</time>
      </trkpt>
      <trkpt lat="42.90531" lon="0.10208">
        <ele>1481.7</ele>
        <time>2019-08-18T13:02:42Z</time>
      </trkpt>
      <trkpt lat="42.9053" lon="0.10221">
        <ele>1480.9</ele>
        <time>2019-08-18T13:02:43Z</time>
      </trkpt>
      <trkpt lat="42.90529" lon="0.10233">
        <ele>1480.2</ele>
        <time>2019-08-18T13:02:44Z</time>
      </trkpt>
      <trkpt lat="42.90526" lon="0.10246">
        <ele>1479.3</ele>
        <time>2019-08-18T13:02:45Z</time>
      </trkpt>
      <trkpt lat="42.90521" lon="0.1026">
        <ele>1478.4</ele>
        <time>2019-08-18T13:02:46Z</time>
      </trkpt>
      <trkpt lat="42.90514" lon="0.10271">
        <ele>1477.4</ele>
        <time>2019-08-18T13:02:47Z</time>
      </trkpt>
      <trkpt lat="42.90506" lon="0.10283">
        <ele>1476.3</ele>
        <time>2019-08-18T13:02:48Z</time>
      </trkpt>
      <trkpt lat="42.90497" lon="0.10294">
        <ele>1475.3</ele>
        <time>2019-08-18T13:02:49Z</time>
      </trkpt>
      <trkpt lat="42.90487" lon="0.10306">
        <ele>1474.3</ele>
        <time>2019-08-18T13:02:50Z</time>
      </trkpt>
      <trkpt lat="42.90478" lon="0.10318">
        <ele>1473.2</ele>
        <time>2019-08-18T13:02:51Z</time>
      </trkpt>
      <trkpt lat="42.9047" lon="0.10329">
        <ele>1472.3</ele>
        <time>2019-08-18T13:02:52Z</time>
      </trkpt>
      <trkpt lat="42.9046" lon="0.10339">
        <ele>1471.4</ele>
        <time>2019-08-18T13:02:53Z</time>
      </trkpt>
      <trkpt lat="42.90453" lon="0.10348">
        <ele>1470.6</ele>
        <time>2019-08-18T13:02:54Z</time>
      </trkpt>
      <trkpt lat="42.90445" lon="0.10357">
        <ele>1470.4</ele>
        <time>2019-08-18T13:02:55Z</time>
      </trkpt>
      <trkpt lat="42.9044" lon="0.1036">
        <ele>1470.3</ele>
        <time>2019-08-18T13:02:56Z</time>
      </trkpt>
      <trkpt lat="42.90432" lon="0.10365">
        <ele>1470.1</ele>
        <time>2019-08-18T13:02:57Z</time>
      </trkpt>
      <trkpt lat="42.90422" lon="0.10367">
        <ele>1470</ele>
        <time>2019-08-18T13:02:58Z</time>
      </trkpt>
      <trkpt lat="42.90413" lon="0.10365">
        <ele>1469.8</ele>
        <time>2019-08-18T13:02:59Z</time>
      </trkpt>
      <trkpt lat="42.90405" lon="0.1036">
        <ele>1469.6</ele>
        <time>2019-08-18T13:03:00Z</time>
      </trkpt>
      <trkpt lat="42.90396" lon="0.10353">
        <ele>1469.1</ele>
        <time>2019-08-18T13:03:01Z</time>
      </trkpt>
      <trkpt lat="42.90388" lon="0.10343">
        <ele>1468.1</ele>
        <time>2019-08-18T13:03:02Z</time>
      </trkpt>
      <trkpt lat="42.90381" lon="0.10335">
        <ele>1467.2</ele>
        <time>2019-08-18T13:03:03Z</time>
      </trkpt>
      <trkpt lat="42.90373" lon="0.10324">
        <ele>1466.3</ele>
        <time>2019-08-18T13:03:04Z</time>
      </trkpt>
      <trkpt lat="42.90368" lon="0.10313">
        <ele>1465.3</ele>
        <time>2019-08-18T13:03:05Z</time>
      </trkpt>
      <trkpt lat="42.90361" lon="0.103">
        <ele>1464.1</ele>
        <time>2019-08-18T13:03:06Z</time>
      </trkpt>
      <trkpt lat="42.90355" lon="0.10288">
        <ele>1463.2</ele>
        <time>2019-08-18T13:03:07Z</time>
      </trkpt>
      <trkpt lat="42.90351" lon="0.10273">
        <ele>1462.5</ele>
        <time>2019-08-18T13:03:08Z</time>
      </trkpt>
      <trkpt lat="42.90348" lon="0.10257">
        <ele>1461.7</ele>
        <time>2019-08-18T13:03:09Z</time>
      </trkpt>
      <trkpt lat="42.90345" lon="0.10241">
        <ele>1461.2</ele>
        <time>2019-08-18T13:03:10Z</time>
      </trkpt>
      <trkpt lat="42.90343" lon="0.10225">
        <ele>1460.9</ele>
        <time>2019-08-18T13:03:11Z</time>
      </trkpt>
      <trkpt lat="42.90341" lon="0.10209">
        <ele>1460.7</ele>
        <time>2019-08-18T13:03:12Z</time>
      </trkpt>
      <trkpt lat="42.90339" lon="0.10193">
        <ele>1460.5</ele>
        <time>2019-08-18T13:03:13Z</time>
      </trkpt>
      <trkpt lat="42.90337" lon="0.10177">
        <ele>1460.3</ele>
        <time>2019-08-18T13:03:14Z</time>
      </trkpt>
      <trkpt lat="42.90334" lon="0.1016">
        <ele>1460</ele>
        <time>2019-08-18T13:03:15Z</time>
      </trkpt>
      <trkpt lat="42.90331" lon="0.10145">
        <ele>1459.6</ele>
        <time>2019-08-18T13:03:16Z</time>
      </trkpt>
      <trkpt lat="42.90328" lon="0.1013">
        <ele>1459.2</ele>
        <time>2019-08-18T13:03:17Z</time>
      </trkpt>
      <trkpt lat="42.90325" lon="0.10116">
        <ele>1459.6</ele>
        <time>2019-08-18T13:03:18Z</time>
      </trkpt>
      <trkpt lat="42.90323" lon="0.10101">
        <ele>1459.8</ele>
        <time>2019-08-18T13:03:19Z</time>
      </trkpt>
      <trkpt lat="42.90324" lon="0.10087">
        <ele>1459.7</ele>
        <time>2019-08-18T13:03:20Z</time>
      </trkpt>
      <trkpt lat="42.90327" lon="0.10073">
        <ele>1458.4</ele>
        <time>2019-08-18T13:03:21Z</time>
      </trkpt>
      <trkpt lat="42.90331" lon="0.10059">
        <ele>1456.9</ele>
        <time>2019-08-18T13:03:22Z</time>
      </trkpt>
      <trkpt lat="42.90336" lon="0.10048">
        <ele>1455.8</ele>
        <time>2019-08-18T13:03:23Z</time>
      </trkpt>
      <trkpt lat="42.90342" lon="0.10038">
        <ele>1454.5</ele>
        <time>2019-08-18T13:03:24Z</time>
      </trkpt>
      <trkpt lat="42.90347" lon="0.10028">
        <ele>1453.1</ele>
        <time>2019-08-18T13:03:25Z</time>
      </trkpt>
      <trkpt lat="42.90351" lon="0.10018">
        <ele>1452.9</ele>
        <time>2019-08-18T13:03:26Z</time>
      </trkpt>
      <trkpt lat="42.90353" lon="0.10006">
        <ele>1452.7</ele>
        <time>2019-08-18T13:03:27Z</time>
      </trkpt>
      <trkpt lat="42.90354" lon="0.09993">
        <ele>1452.5</ele>
        <time>2019-08-18T13:03:28Z</time>
      </trkpt>
      <trkpt lat="42.90355" lon="0.09979">
        <ele>1452.3</ele>
        <time>2019-08-18T13:03:29Z</time>
      </trkpt>
      <trkpt lat="42.90355" lon="0.09964">
        <ele>1452</ele>
        <time>2019-08-18T13:03:30Z</time>
      </trkpt>
      <trkpt lat="42.90355" lon="0.09949">
        <ele>1451.7</ele>
        <time>2019-08-18T13:03:31Z</time>
      </trkpt>
      <trkpt lat="42.90354" lon="0.09934">
        <ele>1451.3</ele>
        <time>2019-08-18T13:03:32Z</time>
      </trkpt>
      <trkpt lat="42.90352" lon="0.09918">
        <ele>1450.7</ele>
        <time>2019-08-18T13:03:33Z</time>
      </trkpt>
      <trkpt lat="42.9035" lon="0.09901">
        <ele>1450</ele>
        <time>2019-08-18T13:03:34Z</time>
      </trkpt>
      <trkpt lat="42.90349" lon="0.09883">
        <ele>1449.1</ele>
        <time>2019-08-18T13:03:35Z</time>
      </trkpt>
      <trkpt lat="42.90348" lon="0.09864">
        <ele>1448.3</ele>
        <time>2019-08-18T13:03:36Z</time>
      </trkpt>
      <trkpt lat="42.90347" lon="0.09845">
        <ele>1447.3</ele>
        <time>2019-08-18T13:03:37Z</time>
      </trkpt>
      <trkpt lat="42.90345" lon="0.09826">
        <ele>1446.4</ele>
        <time>2019-08-18T13:03:38Z</time>
      </trkpt>
      <trkpt lat="42.90344" lon="0.09808">
        <ele>1445.6</ele>
        <time>2019-08-18T13:03:39Z</time>
      </trkpt>
      <trkpt lat="42.90342" lon="0.09789">
        <ele>1444.8</ele>
        <time>2019-08-18T13:03:40Z</time>
      </trkpt>
      <trkpt lat="42.9034" lon="0.09771">
        <ele>1444</ele>
        <time>2019-08-18T13:03:41Z</time>
      </trkpt>
      <trkpt lat="42.90339" lon="0.09752">
        <ele>1443.1</ele>
        <time>2019-08-18T13:03:42Z</time>
      </trkpt>
      <trkpt lat="42.90337" lon="0.09734">
        <ele>1441.9</ele>
        <time>2019-08-18T13:03:43Z</time>
      </trkpt>
      <trkpt lat="42.90336" lon="0.09715">
        <ele>1440.9</ele>
        <time>2019-08-18T13:03:44Z</time>
      </trkpt>
      <trkpt lat="42.90335" lon="0.09696">
        <ele>1440.1</ele>
        <time>2019-08-18T13:03:45Z</time>
      </trkpt>
      <trkpt lat="42.90335" lon="0.09678">
        <ele>1439.4</ele>
        <time>2019-08-18T13:03:46Z</time>
      </trkpt>
      <trkpt lat="42.90335" lon="0.0966">
        <ele>1438.6</ele>
        <time>2019-08-18T13:03:47Z</time>
      </trkpt>
      <trkpt lat="42.90334" lon="0.09641">
        <ele>1437.8</ele>
        <time>2019-08-18T13:03:48Z</time>
      </trkpt>
      <trkpt lat="42.90333" lon="0.09622">
        <ele>1437</ele>
        <time>2019-08-18T13:03:49Z</time>
      </trkpt>
      <trkpt lat="42.90333" lon="0.09603">
        <ele>1435.8</ele>
        <time>2019-08-18T13:03:50Z</time>
      </trkpt>
      <trkpt lat="42.90334" lon="0.09585">
        <ele>1435.1</ele>
        <time>2019-08-18T13:03:51Z</time>
      </trkpt>
      <trkpt lat="42.90334" lon="0.09567">
        <ele>1434.3</ele>
        <time>2019-08-18T13:03:52Z</time>
      </trkpt>
      <trkpt lat="42.90334" lon="0.09548">
        <ele>1433.5</ele>
        <time>2019-08-18T13:03:53Z</time>
      </trkpt>
      <trkpt lat="42.90334" lon="0.09531">
        <ele>1432.8</ele>
        <time>2019-08-18T13:03:54Z</time>
      </trkpt>
      <trkpt lat="42.90333" lon="0.09512">
        <ele>1432.1</ele>
        <time>2019-08-18T13:03:55Z</time>
      </trkpt>
      <trkpt lat="42.90333" lon="0.09493">
        <ele>1431</ele>
        <time>2019-08-18T13:03:56Z</time>
      </trkpt>
      <trkpt lat="42.90333" lon="0.09476">
        <ele>1429.6</ele>
        <time>2019-08-18T13:03:57Z</time>
      </trkpt>
      <trkpt lat="42.90333" lon="0.09458">
        <ele>1428.5</ele>
        <time>2019-08-18T13:03:58Z</time>
      </trkpt>
      <trkpt lat="42.90331" lon="0.0944">
        <ele>1428.3</ele>
        <time>2019-08-18T13:03:59Z</time>
      </trkpt>
      <trkpt lat="42.90329" lon="0.09421">
        <ele>1428.2</ele>
        <time>2019-08-18T13:04:00Z</time>
      </trkpt>
      <trkpt lat="42.90327" lon="0.09404">
        <ele>1427.4</ele>
        <time>2019-08-18T13:04:01Z</time>
      </trkpt>
      <trkpt lat="42.90324" lon="0.09385">
        <ele>1426.5</ele>
        <time>2019-08-18T13:04:02Z</time>
      </trkpt>
      <trkpt lat="42.90321" lon="0.09368">
        <ele>1425.7</ele>
        <time>2019-08-18T13:04:03Z</time>
      </trkpt>
      <trkpt lat="42.90318" lon="0.09351">
        <ele>1424.8</ele>
        <time>2019-08-18T13:04:04Z</time>
      </trkpt>
      <trkpt lat="42.90315" lon="0.09334">
        <ele>1424</ele>
        <time>2019-08-18T13:04:05Z</time>
      </trkpt>
      <trkpt lat="42.90311" lon="0.09316">
        <ele>1423.2</ele>
        <time>2019-08-18T13:04:06Z</time>
      </trkpt>
      <trkpt lat="42.90307" lon="0.09298">
        <ele>1422.3</ele>
        <time>2019-08-18T13:04:07Z</time>
      </trkpt>
      <trkpt lat="42.90304" lon="0.09281">
        <ele>1421.5</ele>
        <time>2019-08-18T13:04:08Z</time>
      </trkpt>
      <trkpt lat="42.90299" lon="0.09264">
        <ele>1420.7</ele>
        <time>2019-08-18T13:04:09Z</time>
      </trkpt>
      <trkpt lat="42.90295" lon="0.09247">
        <ele>1419.9</ele>
        <time>2019-08-18T13:04:10Z</time>
      </trkpt>
      <trkpt lat="42.90292" lon="0.09231">
        <ele>1419.2</ele>
        <time>2019-08-18T13:04:11Z</time>
      </trkpt>
      <trkpt lat="42.90289" lon="0.09215">
        <ele>1418.5</ele>
        <time>2019-08-18T13:04:12Z</time>
      </trkpt>
      <trkpt lat="42.90285" lon="0.09198">
        <ele>1417.8</ele>
        <time>2019-08-18T13:04:13Z</time>
      </trkpt>
      <trkpt lat="42.90281" lon="0.09181">
        <ele>1417.2</ele>
        <time>2019-08-18T13:04:14Z</time>
      </trkpt>
      <trkpt lat="42.90277" lon="0.09164">
        <ele>1416.5</ele>
        <time>2019-08-18T13:04:15Z</time>
      </trkpt>
      <trkpt lat="42.90275" lon="0.09147">
        <ele>1415.9</ele>
        <time>2019-08-18T13:04:16Z</time>
      </trkpt>
      <trkpt lat="42.90273" lon="0.09129">
        <ele>1415.2</ele>
        <time>2019-08-18T13:04:17Z</time>
      </trkpt>
      <trkpt lat="42.90272" lon="0.09111">
        <ele>1414.6</ele>
        <time>2019-08-18T13:04:18Z</time>
      </trkpt>
      <trkpt lat="42.90272" lon="0.09093">
        <ele>1413.9</ele>
        <time>2019-08-18T13:04:19Z</time>
      </trkpt>
      <trkpt lat="42.90274" lon="0.09074">
        <ele>1413.3</ele>
        <time>2019-08-18T13:04:20Z</time>
      </trkpt>
      <trkpt lat="42.90276" lon="0.09057">
        <ele>1412.6</ele>
        <time>2019-08-18T13:04:21Z</time>
      </trkpt>
      <trkpt lat="42.90278" lon="0.09038">
        <ele>1411.8</ele>
        <time>2019-08-18T13:04:22Z</time>
      </trkpt>
      <trkpt lat="42.90278" lon="0.09019">
        <ele>1411.1</ele>
        <time>2019-08-18T13:04:23Z</time>
      </trkpt>
      <trkpt lat="42.90276" lon="0.09">
        <ele>1410.4</ele>
        <time>2019-08-18T13:04:24Z</time>
      </trkpt>
      <trkpt lat="42.90273" lon="0.08983">
        <ele>1409.6</ele>
        <time>2019-08-18T13:04:25Z</time>
      </trkpt>
      <trkpt lat="42.90269" lon="0.08965">
        <ele>1408.9</ele>
        <time>2019-08-18T13:04:26Z</time>
      </trkpt>
      <trkpt lat="42.90265" lon="0.08948">
        <ele>1408.1</ele>
        <time>2019-08-18T13:04:27Z</time>
      </trkpt>
      <trkpt lat="42.9026" lon="0.08931">
        <ele>1407.4</ele>
        <time>2019-08-18T13:04:28Z</time>
      </trkpt>
      <trkpt lat="42.90255" lon="0.08915">
        <ele>1406.7</ele>
        <time>2019-08-18T13:04:29Z</time>
      </trkpt>
      <trkpt lat="42.90251" lon="0.08899">
        <ele>1406</ele>
        <time>2019-08-18T13:04:30Z</time>
      </trkpt>
      <trkpt lat="42.90247" lon="0.08882">
        <ele>1405.2</ele>
        <time>2019-08-18T13:04:31Z</time>
      </trkpt>
      <trkpt lat="42.90243" lon="0.08866">
        <ele>1404.5</ele>
        <time>2019-08-18T13:04:32Z</time>
      </trkpt>
      <trkpt lat="42.90239" lon="0.0885">
        <ele>1403.8</ele>
        <time>2019-08-18T13:04:33Z</time>
      </trkpt>
      <trkpt lat="42.90235" lon="0.08834">
        <ele>1403.1</ele>
        <time>2019-08-18T13:04:34Z</time>
      </trkpt>
      <trkpt lat="42.90231" lon="0.08818">
        <ele>1402.3</ele>
        <time>2019-08-18T13:04:35Z</time>
      </trkpt>
      <trkpt lat="42.90227" lon="0.08802">
        <ele>1401.7</ele>
        <time>2019-08-18T13:04:36Z</time>
      </trkpt>
      <trkpt lat="42.90223" lon="0.08787">
        <ele>1401.1</ele>
        <time>2019-08-18T13:04:37Z</time>
      </trkpt>
      <trkpt lat="42.90219" lon="0.08772">
        <ele>1400.6</ele>
        <time>2019-08-18T13:04:38Z</time>
      </trkpt>
      <trkpt lat="42.90213" lon="0.08757">
        <ele>1400</ele>
        <time>2019-08-18T13:04:39Z</time>
      </trkpt>
      <trkpt lat="42.90208" lon="0.08742">
        <ele>1399.4</ele>
        <time>2019-08-18T13:04:40Z</time>
      </trkpt>
      <trkpt lat="42.90204" lon="0.08726">
        <ele>1398.8</ele>
        <time>2019-08-18T13:04:41Z</time>
      </trkpt>
      <trkpt lat="42.902" lon="0.08711">
        <ele>1398.1</ele>
        <time>2019-08-18T13:04:42Z</time>
      </trkpt>
      <trkpt lat="42.90197" lon="0.08695">
        <ele>1397.2</ele>
        <time>2019-08-18T13:04:43Z</time>
      </trkpt>
      <trkpt lat="42.90193" lon="0.08678">
        <ele>1396.2</ele>
        <time>2019-08-18T13:04:44Z</time>
      </trkpt>
      <trkpt lat="42.90191" lon="0.0866">
        <ele>1395.2</ele>
        <time>2019-08-18T13:04:45Z</time>
      </trkpt>
      <trkpt lat="42.90188" lon="0.08642">
        <ele>1394.3</ele>
        <time>2019-08-18T13:04:46Z</time>
      </trkpt>
      <trkpt lat="42.90186" lon="0.08624">
        <ele>1393.2</ele>
        <time>2019-08-18T13:04:47Z</time>
      </trkpt>
      <trkpt lat="42.90184" lon="0.08606">
        <ele>1392.2</ele>
        <time>2019-08-18T13:04:48Z</time>
      </trkpt>
      <trkpt lat="42.90182" lon="0.08587">
        <ele>1391</ele>
        <time>2019-08-18T13:04:49Z</time>
      </trkpt>
      <trkpt lat="42.9018" lon="0.08567">
        <ele>1389.9</ele>
        <time>2019-08-18T13:04:50Z</time>
      </trkpt>
      <trkpt lat="42.90178" lon="0.08548">
        <ele>1388.7</ele>
        <time>2019-08-18T13:04:51Z</time>
      </trkpt>
      <trkpt lat="42.90177" lon="0.08529">
        <ele>1387.5</ele>
        <time>2019-08-18T13:04:52Z</time>
      </trkpt>
      <trkpt lat="42.90176" lon="0.0851">
        <ele>1386.2</ele>
        <time>2019-08-18T13:04:53Z</time>
      </trkpt>
      <trkpt lat="42.90173" lon="0.08492">
        <ele>1385.1</ele>
        <time>2019-08-18T13:04:54Z</time>
      </trkpt>
      <trkpt lat="42.90171" lon="0.08471">
        <ele>1383.7</ele>
        <time>2019-08-18T13:04:55Z</time>
      </trkpt>
      <trkpt lat="42.90168" lon="0.08451">
        <ele>1382.4</ele>
        <time>2019-08-18T13:04:56Z</time>
      </trkpt>
      <trkpt lat="42.90164" lon="0.08431">
        <ele>1381.1</ele>
        <time>2019-08-18T13:04:57Z</time>
      </trkpt>
      <trkpt lat="42.90161" lon="0.08411">
        <ele>1379.8</ele>
        <time>2019-08-18T13:04:58Z</time>
      </trkpt>
      <trkpt lat="42.90159" lon="0.0839">
        <ele>1378.5</ele>
        <time>2019-08-18T13:04:59Z</time>
      </trkpt>
      <trkpt lat="42.90161" lon="0.08372">
        <ele>1377.3</ele>
        <time>2019-08-18T13:05:00Z</time>
      </trkpt>
      <trkpt lat="42.90161" lon="0.08352">
        <ele>1375.7</ele>
        <time>2019-08-18T13:05:01Z</time>
      </trkpt>
      <trkpt lat="42.9016" lon="0.08332">
        <ele>1374.3</ele>
        <time>2019-08-18T13:05:02Z</time>
      </trkpt>
      <trkpt lat="42.90156" lon="0.08314">
        <ele>1373</ele>
        <time>2019-08-18T13:05:03Z</time>
      </trkpt>
      <trkpt lat="42.9015" lon="0.08296">
        <ele>1371.4</ele>
        <time>2019-08-18T13:05:04Z</time>
      </trkpt>
      <trkpt lat="42.90143" lon="0.08279">
        <ele>1370.1</ele>
        <time>2019-08-18T13:05:05Z</time>
      </trkpt>
      <trkpt lat="42.90134" lon="0.08261">
        <ele>1368.5</ele>
        <time>2019-08-18T13:05:06Z</time>
      </trkpt>
      <trkpt lat="42.90126" lon="0.08245">
        <ele>1367.1</ele>
        <time>2019-08-18T13:05:07Z</time>
      </trkpt>
      <trkpt lat="42.90117" lon="0.08228">
        <ele>1365.7</ele>
        <time>2019-08-18T13:05:08Z</time>
      </trkpt>
      <trkpt lat="42.9011" lon="0.0821">
        <ele>1364.2</ele>
        <time>2019-08-18T13:05:09Z</time>
      </trkpt>
      <trkpt lat="42.90102" lon="0.08191">
        <ele>1362.7</ele>
        <time>2019-08-18T13:05:10Z</time>
      </trkpt>
      <trkpt lat="42.90096" lon="0.08171">
        <ele>1361.2</ele>
        <time>2019-08-18T13:05:11Z</time>
      </trkpt>
      <trkpt lat="42.9009" lon="0.08152">
        <ele>1359.9</ele>
        <time>2019-08-18T13:05:12Z</time>
      </trkpt>
      <trkpt lat="42.90085" lon="0.08131">
        <ele>1358.5</ele>
        <time>2019-08-18T13:05:13Z</time>
      </trkpt>
      <trkpt lat="42.90081" lon="0.0811">
        <ele>1357.1</ele>
        <time>2019-08-18T13:05:14Z</time>
      </trkpt>
      <trkpt lat="42.90074" lon="0.08089">
        <ele>1355.6</ele>
        <time>2019-08-18T13:05:15Z</time>
      </trkpt>
      <trkpt lat="42.90068" lon="0.08069">
        <ele>1354.3</ele>
        <time>2019-08-18T13:05:16Z</time>
      </trkpt>
      <trkpt lat="42.90061" lon="0.08048">
        <ele>1352.8</ele>
        <time>2019-08-18T13:05:17Z</time>
      </trkpt>
      <trkpt lat="42.90054" lon="0.08026">
        <ele>1351</ele>
        <time>2019-08-18T13:05:18Z</time>
      </trkpt>
      <trkpt lat="42.90046" lon="0.08005">
        <ele>1349.2</ele>
        <time>2019-08-18T13:05:19Z</time>
      </trkpt>
      <trkpt lat="42.90039" lon="0.07984">
        <ele>1347.7</ele>
        <time>2019-08-18T13:05:20Z</time>
      </trkpt>
      <trkpt lat="42.90032" lon="0.07962">
        <ele>1346.1</ele>
        <time>2019-08-18T13:05:21Z</time>
      </trkpt>
      <trkpt lat="42.90023" lon="0.07939">
        <ele>1344.4</ele>
        <time>2019-08-18T13:05:22Z</time>
      </trkpt>
      <trkpt lat="42.90016" lon="0.07917">
        <ele>1343</ele>
        <time>2019-08-18T13:05:23Z</time>
      </trkpt>
      <trkpt lat="42.90007" lon="0.07896">
        <ele>1341.5</ele>
        <time>2019-08-18T13:05:24Z</time>
      </trkpt>
      <trkpt lat="42.9" lon="0.07874">
        <ele>1339.9</ele>
        <time>2019-08-18T13:05:25Z</time>
      </trkpt>
      <trkpt lat="42.89993" lon="0.07851">
        <ele>1338</ele>
        <time>2019-08-18T13:05:26Z</time>
      </trkpt>
      <trkpt lat="42.89985" lon="0.07828">
        <ele>1335.9</ele>
        <time>2019-08-18T13:05:27Z</time>
      </trkpt>
      <trkpt lat="42.8998" lon="0.07804">
        <ele>1333.7</ele>
        <time>2019-08-18T13:05:28Z</time>
      </trkpt>
      <trkpt lat="42.89974" lon="0.07781">
        <ele>1330.6</ele>
        <time>2019-08-18T13:05:29Z</time>
      </trkpt>
      <trkpt lat="42.89968" lon="0.07756">
        <ele>1328.3</ele>
        <time>2019-08-18T13:05:30Z</time>
      </trkpt>
      <trkpt lat="42.89962" lon="0.07732">
        <ele>1327.2</ele>
        <time>2019-08-18T13:05:31Z</time>
      </trkpt>
      <trkpt lat="42.89958" lon="0.0771">
        <ele>1325.8</ele>
        <time>2019-08-18T13:05:32Z</time>
      </trkpt>
      <trkpt lat="42.89955" lon="0.07689">
        <ele>1323.6</ele>
        <time>2019-08-18T13:05:33Z</time>
      </trkpt>
      <trkpt lat="42.89953" lon="0.07667">
        <ele>1321.3</ele>
        <time>2019-08-18T13:05:34Z</time>
      </trkpt>
      <trkpt lat="42.89948" lon="0.07645">
        <ele>1319.6</ele>
        <time>2019-08-18T13:05:35Z</time>
      </trkpt>
      <trkpt lat="42.89942" lon="0.07624">
        <ele>1318.1</ele>
        <time>2019-08-18T13:05:36Z</time>
      </trkpt>
      <trkpt lat="42.89932" lon="0.07607">
        <ele>1316.4</ele>
        <time>2019-08-18T13:05:37Z</time>
      </trkpt>
      <trkpt lat="42.89923" lon="0.07588">
        <ele>1313.8</ele>
        <time>2019-08-18T13:05:38Z</time>
      </trkpt>
      <trkpt lat="42.89913" lon="0.0757">
        <ele>1311.9</ele>
        <time>2019-08-18T13:05:39Z</time>
      </trkpt>
      <trkpt lat="42.89903" lon="0.07551">
        <ele>1311.7</ele>
        <time>2019-08-18T13:05:40Z</time>
      </trkpt>
      <trkpt lat="42.89893" lon="0.07533">
        <ele>1311.4</ele>
        <time>2019-08-18T13:05:41Z</time>
      </trkpt>
      <trkpt lat="42.89884" lon="0.07517">
        <ele>1311</ele>
        <time>2019-08-18T13:05:42Z</time>
      </trkpt>
      <trkpt lat="42.89878" lon="0.07499">
        <ele>1310.4</ele>
        <time>2019-08-18T13:05:43Z</time>
      </trkpt>
      <trkpt lat="42.89873" lon="0.0748">
        <ele>1309.5</ele>
        <time>2019-08-18T13:05:44Z</time>
      </trkpt>
      <trkpt lat="42.89871" lon="0.07459">
        <ele>1308.3</ele>
        <time>2019-08-18T13:05:45Z</time>
      </trkpt>
      <trkpt lat="42.89871" lon="0.07439">
        <ele>1307.2</ele>
        <time>2019-08-18T13:05:46Z</time>
      </trkpt>
      <trkpt lat="42.8987" lon="0.07418">
        <ele>1306.2</ele>
        <time>2019-08-18T13:05:47Z</time>
      </trkpt>
      <trkpt lat="42.8987" lon="0.07396">
        <ele>1305.1</ele>
        <time>2019-08-18T13:05:48Z</time>
      </trkpt>
      <trkpt lat="42.89869" lon="0.07375">
        <ele>1303.9</ele>
        <time>2019-08-18T13:05:49Z</time>
      </trkpt>
      <trkpt lat="42.89866" lon="0.07353">
        <ele>1302.7</ele>
        <time>2019-08-18T13:05:50Z</time>
      </trkpt>
      <trkpt lat="42.89863" lon="0.07332">
        <ele>1301.3</ele>
        <time>2019-08-18T13:05:51Z</time>
      </trkpt>
      <trkpt lat="42.8986" lon="0.07311">
        <ele>1300</ele>
        <time>2019-08-18T13:05:52Z</time>
      </trkpt>
      <trkpt lat="42.89856" lon="0.07289">
        <ele>1298.6</ele>
        <time>2019-08-18T13:05:53Z</time>
      </trkpt>
      <trkpt lat="42.89852" lon="0.07268">
        <ele>1297.1</ele>
        <time>2019-08-18T13:05:54Z</time>
      </trkpt>
      <trkpt lat="42.89847" lon="0.07246">
        <ele>1295.6</ele>
        <time>2019-08-18T13:05:55Z</time>
      </trkpt>
      <trkpt lat="42.89845" lon="0.07224">
        <ele>1294.1</ele>
        <time>2019-08-18T13:05:56Z</time>
      </trkpt>
      <trkpt lat="42.89845" lon="0.07201">
        <ele>1292.5</ele>
        <time>2019-08-18T13:05:57Z</time>
      </trkpt>
      <trkpt lat="42.89845" lon="0.07179">
        <ele>1291.1</ele>
        <time>2019-08-18T13:05:58Z</time>
      </trkpt>
      <trkpt lat="42.89842" lon="0.07157">
        <ele>1289.6</ele>
        <time>2019-08-18T13:05:59Z</time>
      </trkpt>
      <trkpt lat="42.8984" lon="0.07135">
        <ele>1288.3</ele>
        <time>2019-08-18T13:06:00Z</time>
      </trkpt>
      <trkpt lat="42.89837" lon="0.07114">
        <ele>1286.9</ele>
        <time>2019-08-18T13:06:01Z</time>
      </trkpt>
      <trkpt lat="42.89833" lon="0.07093">
        <ele>1285.7</ele>
        <time>2019-08-18T13:06:02Z</time>
      </trkpt>
      <trkpt lat="42.89829" lon="0.07072">
        <ele>1284.4</ele>
        <time>2019-08-18T13:06:03Z</time>
      </trkpt>
      <trkpt lat="42.89825" lon="0.07051">
        <ele>1283.2</ele>
        <time>2019-08-18T13:06:04Z</time>
      </trkpt>
      <trkpt lat="42.89821" lon="0.0703">
        <ele>1282</ele>
        <time>2019-08-18T13:06:05Z</time>
      </trkpt>
      <trkpt lat="42.89817" lon="0.07011">
        <ele>1280.7</ele>
        <time>2019-08-18T13:06:06Z</time>
      </trkpt>
      <trkpt lat="42.89814" lon="0.06991">
        <ele>1279.4</ele>
        <time>2019-08-18T13:06:07Z</time>
      </trkpt>
      <trkpt lat="42.8981" lon="0.06974">
        <ele>1278.3</ele>
        <time>2019-08-18T13:06:08Z</time>
      </trkpt>
      <trkpt lat="42.89807" lon="0.06957">
        <ele>1277.1</ele>
        <time>2019-08-18T13:06:09Z</time>
      </trkpt>
      <trkpt lat="42.89804" lon="0.0694">
        <ele>1274.9</ele>
        <time>2019-08-18T13:06:10Z</time>
      </trkpt>
      <trkpt lat="42.89802" lon="0.06925">
        <ele>1273.2</ele>
        <time>2019-08-18T13:06:11Z</time>
      </trkpt>
      <trkpt lat="42.89799" lon="0.0691">
        <ele>1272.2</ele>
        <time>2019-08-18T13:06:12Z</time>
      </trkpt>
      <trkpt lat="42.89796" lon="0.06896">
        <ele>1271.5</ele>
        <time>2019-08-18T13:06:13Z</time>
      </trkpt>
      <trkpt lat="42.89793" lon="0.06882">
        <ele>1270.5</ele>
        <time>2019-08-18T13:06:14Z</time>
      </trkpt>
      <trkpt lat="42.89791" lon="0.06866">
        <ele>1269.2</ele>
        <time>2019-08-18T13:06:15Z</time>
      </trkpt>
      <trkpt lat="42.89788" lon="0.06851">
        <ele>1267.8</ele>
        <time>2019-08-18T13:06:16Z</time>
      </trkpt>
      <trkpt lat="42.89786" lon="0.06835">
        <ele>1266.7</ele>
        <time>2019-08-18T13:06:17Z</time>
      </trkpt>
      <trkpt lat="42.89783" lon="0.06821">
        <ele>1265.7</ele>
        <time>2019-08-18T13:06:18Z</time>
      </trkpt>
      <trkpt lat="42.89781" lon="0.06804">
        <ele>1264.1</ele>
        <time>2019-08-18T13:06:19Z</time>
      </trkpt>
      <trkpt lat="42.89779" lon="0.06788">
        <ele>1261.7</ele>
        <time>2019-08-18T13:06:20Z</time>
      </trkpt>
      <trkpt lat="42.89777" lon="0.06771">
        <ele>1259.1</ele>
        <time>2019-08-18T13:06:21Z</time>
      </trkpt>
      <trkpt lat="42.89774" lon="0.06755">
        <ele>1257.1</ele>
        <time>2019-08-18T13:06:22Z</time>
      </trkpt>
      <trkpt lat="42.8977" lon="0.0674">
        <ele>1255.5</ele>
        <time>2019-08-18T13:06:23Z</time>
      </trkpt>
      <trkpt lat="42.89766" lon="0.06725">
        <ele>1254.2</ele>
        <time>2019-08-18T13:06:24Z</time>
      </trkpt>
      <trkpt lat="42.89762" lon="0.06709">
        <ele>1253.1</ele>
        <time>2019-08-18T13:06:25Z</time>
      </trkpt>
      <trkpt lat="42.89756" lon="0.06698">
        <ele>1252.3</ele>
        <time>2019-08-18T13:06:26Z</time>
      </trkpt>
      <trkpt lat="42.89751" lon="0.06684">
        <ele>1251.6</ele>
        <time>2019-08-18T13:06:27Z</time>
      </trkpt>
      <trkpt lat="42.89747" lon="0.06672">
        <ele>1251</ele>
        <time>2019-08-18T13:06:28Z</time>
      </trkpt>
      <trkpt lat="42.89743" lon="0.0666">
        <ele>1250.7</ele>
        <time>2019-08-18T13:06:29Z</time>
      </trkpt>
      <trkpt lat="42.89738" lon="0.06649">
        <ele>1250.4</ele>
        <time>2019-08-18T13:06:30Z</time>
      </trkpt>
      <trkpt lat="42.89734" lon="0.06639">
        <ele>1250</ele>
        <time>2019-08-18T13:06:31Z</time>
      </trkpt>
      <trkpt lat="42.89731" lon="0.06629">
        <ele>1249.8</ele>
        <time>2019-08-18T13:06:32Z</time>
      </trkpt>
      <trkpt lat="42.89728" lon="0.0662">
        <ele>1249.5</ele>
        <time>2019-08-18T13:06:33Z</time>
      </trkpt>
      <trkpt lat="42.89724" lon="0.06612">
        <ele>1249.3</ele>
        <time>2019-08-18T13:06:34Z</time>
      </trkpt>
      <trkpt lat="42.89721" lon="0.06604">
        <ele>1248.9</ele>
        <time>2019-08-18T13:06:35Z</time>
      </trkpt>
      <trkpt lat="42.89719" lon="0.06596">
        <ele>1248.9</ele>
        <time>2019-08-18T13:06:36Z</time>
      </trkpt>
      <trkpt lat="42.89716" lon="0.06589">
        <ele>1248.8</ele>
        <time>2019-08-18T13:06:37Z</time>
      </trkpt>
      <trkpt lat="42.89715" lon="0.06582">
        <ele>1248.7</ele>
        <time>2019-08-18T13:06:38Z</time>
      </trkpt>
      <trkpt lat="42.89716" lon="0.06574">
        <ele>1248.5</ele>
        <time>2019-08-18T13:06:39Z</time>
      </trkpt>
      <trkpt lat="42.89719" lon="0.06568">
        <ele>1247.7</ele>
        <time>2019-08-18T13:06:40Z</time>
      </trkpt>
      <trkpt lat="42.89722" lon="0.06564">
        <ele>1247.3</ele>
        <time>2019-08-18T13:06:41Z</time>
      </trkpt>
      <trkpt lat="42.89727" lon="0.06559">
        <ele>1246.8</ele>
        <time>2019-08-18T13:06:42Z</time>
      </trkpt>
      <trkpt lat="42.8973" lon="0.06554">
        <ele>1246.2</ele>
        <time>2019-08-18T13:06:43Z</time>
      </trkpt>
      <trkpt lat="42.89734" lon="0.06548">
        <ele>1245.6</ele>
        <time>2019-08-18T13:06:44Z</time>
      </trkpt>
      <trkpt lat="42.89731" lon="0.06539">
        <ele>1244.8</ele>
        <time>2019-08-18T13:06:45Z</time>
      </trkpt>
      <trkpt lat="42.89727" lon="0.06531">
        <ele>1244.2</ele>
        <time>2019-08-18T13:06:46Z</time>
      </trkpt>
      <trkpt lat="42.89723" lon="0.06523">
        <ele>1243.5</ele>
        <time>2019-08-18T13:06:47Z</time>
      </trkpt>
      <trkpt lat="42.89719" lon="0.06513">
        <ele>1242.8</ele>
        <time>2019-08-18T13:06:48Z</time>
      </trkpt>
      <trkpt lat="42.89717" lon="0.06503">
        <ele>1242.1</ele>
        <time>2019-08-18T13:06:49Z</time>
      </trkpt>
      <trkpt lat="42.89714" lon="0.06492">
        <ele>1241.4</ele>
        <time>2019-08-18T13:06:50Z</time>
      </trkpt>
      <trkpt lat="42.89712" lon="0.0648">
        <ele>1240.6</ele>
        <time>2019-08-18T13:06:51Z</time>
      </trkpt>
      <trkpt lat="42.89711" lon="0.06467">
        <ele>1239.9</ele>
        <time>2019-08-18T13:06:52Z</time>
      </trkpt>
      <trkpt lat="42.8971" lon="0.06453">
        <ele>1239</ele>
        <time>2019-08-18T13:06:53Z</time>
      </trkpt>
      <trkpt lat="42.8971" lon="0.06439">
        <ele>1238.1</ele>
        <time>2019-08-18T13:06:54Z</time>
      </trkpt>
      <trkpt lat="42.8971" lon="0.06426">
        <ele>1237.1</ele>
        <time>2019-08-18T13:06:55Z</time>
      </trkpt>
      <trkpt lat="42.89708" lon="0.06415">
        <ele>1236</ele>
        <time>2019-08-18T13:06:56Z</time>
      </trkpt>
      <trkpt lat="42.89703" lon="0.06403">
        <ele>1234.6</ele>
        <time>2019-08-18T13:06:57Z</time>
      </trkpt>
      <trkpt lat="42.89699" lon="0.06392">
        <ele>1233.3</ele>
        <time>2019-08-18T13:06:58Z</time>
      </trkpt>
      <trkpt lat="42.89693" lon="0.06381">
        <ele>1232.1</ele>
        <time>2019-08-18T13:06:59Z</time>
      </trkpt>
      <trkpt lat="42.89686" lon="0.06371">
        <ele>1231.2</ele>
        <time>2019-08-18T13:07:00Z</time>
      </trkpt>
      <trkpt lat="42.8968" lon="0.0636">
        <ele>1230.5</ele>
        <time>2019-08-18T13:07:01Z</time>
      </trkpt>
      <trkpt lat="42.89676" lon="0.06349">
        <ele>1229.7</ele>
        <time>2019-08-18T13:07:02Z</time>
      </trkpt>
      <trkpt lat="42.89673" lon="0.06337">
        <ele>1228.8</ele>
        <time>2019-08-18T13:07:03Z</time>
      </trkpt>
      <trkpt lat="42.8967" lon="0.06325">
        <ele>1228.1</ele>
        <time>2019-08-18T13:07:04Z</time>
      </trkpt>
      <trkpt lat="42.89667" lon="0.06315">
        <ele>1227.7</ele>
        <time>2019-08-18T13:07:05Z</time>
      </trkpt>
      <trkpt lat="42.89662" lon="0.06307">
        <ele>1227.3</ele>
        <time>2019-08-18T13:07:06Z</time>
      </trkpt>
      <trkpt lat="42.89656" lon="0.06303">
        <ele>1227.3</ele>
        <time>2019-08-18T13:07:07Z</time>
      </trkpt>
      <trkpt lat="42.89649" lon="0.06303">
        <ele>1228.2</ele>
        <time>2019-08-18T13:07:08Z</time>
      </trkpt>
      <trkpt lat="42.89642" lon="0.06306">
        <ele>1229.1</ele>
        <time>2019-08-18T13:07:09Z</time>
      </trkpt>
      <trkpt lat="42.89636" lon="0.06306">
        <ele>1229.8</ele>
        <time>2019-08-18T13:07:10Z</time>
      </trkpt>
      <trkpt lat="42.89632" lon="0.06299">
        <ele>1230.6</ele>
        <time>2019-08-18T13:07:11Z</time>
      </trkpt>
      <trkpt lat="42.89629" lon="0.06292">
        <ele>1231.4</ele>
        <time>2019-08-18T13:07:12Z</time>
      </trkpt>
      <trkpt lat="42.89628" lon="0.06282">
        <ele>1230.1</ele>
        <time>2019-08-18T13:07:13Z</time>
      </trkpt>
      <trkpt lat="42.89626" lon="0.06271">
        <ele>1228.7</ele>
        <time>2019-08-18T13:07:14Z</time>
      </trkpt>
      <trkpt lat="42.89626" lon="0.0626">
        <ele>1227.4</ele>
        <time>2019-08-18T13:07:15Z</time>
      </trkpt>
      <trkpt lat="42.89624" lon="0.06248">
        <ele>1226.2</ele>
        <time>2019-08-18T13:07:16Z</time>
      </trkpt>
      <trkpt lat="42.89624" lon="0.06237">
        <ele>1225.1</ele>
        <time>2019-08-18T13:07:17Z</time>
      </trkpt>
      <trkpt lat="42.89624" lon="0.06224">
        <ele>1223.7</ele>
        <time>2019-08-18T13:07:18Z</time>
      </trkpt>
      <trkpt lat="42.89622" lon="0.06211">
        <ele>1222</ele>
        <time>2019-08-18T13:07:19Z</time>
      </trkpt>
      <trkpt lat="42.89621" lon="0.06198">
        <ele>1221</ele>
        <time>2019-08-18T13:07:20Z</time>
      </trkpt>
      <trkpt lat="42.8962" lon="0.06184">
        <ele>1219.9</ele>
        <time>2019-08-18T13:07:21Z</time>
      </trkpt>
      <trkpt lat="42.89619" lon="0.06171">
        <ele>1218.8</ele>
        <time>2019-08-18T13:07:22Z</time>
      </trkpt>
      <trkpt lat="42.89619" lon="0.06158">
        <ele>1217.5</ele>
        <time>2019-08-18T13:07:23Z</time>
      </trkpt>
      <trkpt lat="42.89617" lon="0.06144">
        <ele>1216.2</ele>
        <time>2019-08-18T13:07:24Z</time>
      </trkpt>
      <trkpt lat="42.89616" lon="0.06131">
        <ele>1215</ele>
        <time>2019-08-18T13:07:25Z</time>
      </trkpt>
      <trkpt lat="42.89617" lon="0.06119">
        <ele>1213.8</ele>
        <time>2019-08-18T13:07:26Z</time>
      </trkpt>
      <trkpt lat="42.89617" lon="0.06107">
        <ele>1212.7</ele>
        <time>2019-08-18T13:07:27Z</time>
      </trkpt>
      <trkpt lat="42.89614" lon="0.06092">
        <ele>1211.4</ele>
        <time>2019-08-18T13:07:28Z</time>
      </trkpt>
      <trkpt lat="42.89611" lon="0.06076">
        <ele>1210.6</ele>
        <time>2019-08-18T13:07:29Z</time>
      </trkpt>
      <trkpt lat="42.89609" lon="0.06063">
        <ele>1209.9</ele>
        <time>2019-08-18T13:07:30Z</time>
      </trkpt>
      <trkpt lat="42.89607" lon="0.06048">
        <ele>1209.1</ele>
        <time>2019-08-18T13:07:31Z</time>
      </trkpt>
      <trkpt lat="42.89605" lon="0.06035">
        <ele>1207.8</ele>
        <time>2019-08-18T13:07:32Z</time>
      </trkpt>
      <trkpt lat="42.89604" lon="0.0602">
        <ele>1205.8</ele>
        <time>2019-08-18T13:07:33Z</time>
      </trkpt>
      <trkpt lat="42.89604" lon="0.06004">
        <ele>1203.8</ele>
        <time>2019-08-18T13:07:34Z</time>
      </trkpt>
      <trkpt lat="42.89601" lon="0.05991">
        <ele>1202.5</ele>
        <time>2019-08-18T13:07:35Z</time>
      </trkpt>
      <trkpt lat="42.89597" lon="0.05977">
        <ele>1200.5</ele>
        <time>2019-08-18T13:07:36Z</time>
      </trkpt>
      <trkpt lat="42.8959" lon="0.05965">
        <ele>1198.8</ele>
        <time>2019-08-18T13:07:37Z</time>
      </trkpt>
      <trkpt lat="42.89581" lon="0.05955">
        <ele>1197.9</ele>
        <time>2019-08-18T13:07:38Z</time>
      </trkpt>
      <trkpt lat="42.89571" lon="0.05949">
        <ele>1197.2</ele>
        <time>2019-08-18T13:07:39Z</time>
      </trkpt>
      <trkpt lat="42.89559" lon="0.05947">
        <ele>1196.5</ele>
        <time>2019-08-18T13:07:40Z</time>
      </trkpt>
      <trkpt lat="42.89548" lon="0.05946">
        <ele>1195.7</ele>
        <time>2019-08-18T13:07:41Z</time>
      </trkpt>
      <trkpt lat="42.89538" lon="0.05947">
        <ele>1195.2</ele>
        <time>2019-08-18T13:07:42Z</time>
      </trkpt>
      <trkpt lat="42.89528" lon="0.0595">
        <ele>1194.7</ele>
        <time>2019-08-18T13:07:43Z</time>
      </trkpt>
      <trkpt lat="42.89519" lon="0.05951">
        <ele>1194.2</ele>
        <time>2019-08-18T13:07:44Z</time>
      </trkpt>
      <trkpt lat="42.8951" lon="0.0595">
        <ele>1193.7</ele>
        <time>2019-08-18T13:07:45Z</time>
      </trkpt>
      <trkpt lat="42.89503" lon="0.05945">
        <ele>1193.2</ele>
        <time>2019-08-18T13:07:46Z</time>
      </trkpt>
      <trkpt lat="42.89498" lon="0.05936">
        <ele>1192.8</ele>
        <time>2019-08-18T13:07:47Z</time>
      </trkpt>
      <trkpt lat="42.89498" lon="0.05925">
        <ele>1192.4</ele>
        <time>2019-08-18T13:07:48Z</time>
      </trkpt>
      <trkpt lat="42.89501" lon="0.05914">
        <ele>1191.7</ele>
        <time>2019-08-18T13:07:49Z</time>
      </trkpt>
      <trkpt lat="42.89506" lon="0.05905">
        <ele>1191</ele>
        <time>2019-08-18T13:07:50Z</time>
      </trkpt>
      <trkpt lat="42.89515" lon="0.05902">
        <ele>1190.4</ele>
        <time>2019-08-18T13:07:51Z</time>
      </trkpt>
      <trkpt lat="42.89524" lon="0.05905">
        <ele>1190</ele>
        <time>2019-08-18T13:07:52Z</time>
      </trkpt>
      <trkpt lat="42.89533" lon="0.05909">
        <ele>1190.3</ele>
        <time>2019-08-18T13:07:53Z</time>
      </trkpt>
      <trkpt lat="42.89541" lon="0.05912">
        <ele>1190.6</ele>
        <time>2019-08-18T13:07:54Z</time>
      </trkpt>
      <trkpt lat="42.89549" lon="0.05915">
        <ele>1190.8</ele>
        <time>2019-08-18T13:07:55Z</time>
      </trkpt>
      <trkpt lat="42.89558" lon="0.05906">
        <ele>1190.8</ele>
        <time>2019-08-18T13:07:56Z</time>
      </trkpt>
      <trkpt lat="42.89563" lon="0.05901">
        <ele>1190.6</ele>
        <time>2019-08-18T13:07:57Z</time>
      </trkpt>
      <trkpt lat="42.89567" lon="0.05889">
        <ele>1190.1</ele>
        <time>2019-08-18T13:07:58Z</time>
      </trkpt>
      <trkpt lat="42.89565" lon="0.05879">
        <ele>1189.4</ele>
        <time>2019-08-18T13:07:59Z</time>
      </trkpt>
      <trkpt lat="42.89541" lon="0.05854">
        <ele>1185.3</ele>
        <time>2019-08-18T13:08:02Z</time>
      </trkpt>
      <trkpt lat="42.89531" lon="0.05849">
        <ele>1184.7</ele>
        <time>2019-08-18T13:08:03Z</time>
      </trkpt>
      <trkpt lat="42.89522" lon="0.05842">
        <ele>1184.1</ele>
        <time>2019-08-18T13:08:04Z</time>
      </trkpt>
      <trkpt lat="42.89512" lon="0.05835">
        <ele>1183.1</ele>
        <time>2019-08-18T13:08:05Z</time>
      </trkpt>
      <trkpt lat="42.89503" lon="0.05826">
        <ele>1182.1</ele>
        <time>2019-08-18T13:08:06Z</time>
      </trkpt>
      <trkpt lat="42.89493" lon="0.05816">
        <ele>1181</ele>
        <time>2019-08-18T13:08:07Z</time>
      </trkpt>
      <trkpt lat="42.89485" lon="0.05804">
        <ele>1180</ele>
        <time>2019-08-18T13:08:08Z</time>
      </trkpt>
      <trkpt lat="42.89476" lon="0.05791">
        <ele>1178.8</ele>
        <time>2019-08-18T13:08:09Z</time>
      </trkpt>
      <trkpt lat="42.89467" lon="0.05779">
        <ele>1177.7</ele>
        <time>2019-08-18T13:08:10Z</time>
      </trkpt>
      <trkpt lat="42.89459" lon="0.05765">
        <ele>1176.3</ele>
        <time>2019-08-18T13:08:11Z</time>
      </trkpt>
      <trkpt lat="42.8945" lon="0.0575">
        <ele>1174.9</ele>
        <time>2019-08-18T13:08:12Z</time>
      </trkpt>
      <trkpt lat="42.89443" lon="0.05734">
        <ele>1173.2</ele>
        <time>2019-08-18T13:08:13Z</time>
      </trkpt>
      <trkpt lat="42.89437" lon="0.05717">
        <ele>1171.4</ele>
        <time>2019-08-18T13:08:14Z</time>
      </trkpt>
      <trkpt lat="42.89432" lon="0.057">
        <ele>1169.8</ele>
        <time>2019-08-18T13:08:15Z</time>
      </trkpt>
      <trkpt lat="42.89427" lon="0.05683">
        <ele>1168.6</ele>
        <time>2019-08-18T13:08:16Z</time>
      </trkpt>
      <trkpt lat="42.89421" lon="0.05666">
        <ele>1167.3</ele>
        <time>2019-08-18T13:08:17Z</time>
      </trkpt>
      <trkpt lat="42.89415" lon="0.05648">
        <ele>1165.8</ele>
        <time>2019-08-18T13:08:18Z</time>
      </trkpt>
      <trkpt lat="42.89408" lon="0.0563">
        <ele>1164.8</ele>
        <time>2019-08-18T13:08:19Z</time>
      </trkpt>
      <trkpt lat="42.894" lon="0.05612">
        <ele>1164.6</ele>
        <time>2019-08-18T13:08:20Z</time>
      </trkpt>
      <trkpt lat="42.89393" lon="0.05595">
        <ele>1164.3</ele>
        <time>2019-08-18T13:08:21Z</time>
      </trkpt>
      <trkpt lat="42.89386" lon="0.05578">
        <ele>1164.1</ele>
        <time>2019-08-18T13:08:22Z</time>
      </trkpt>
      <trkpt lat="42.89378" lon="0.05559">
        <ele>1163.7</ele>
        <time>2019-08-18T13:08:23Z</time>
      </trkpt>
      <trkpt lat="42.8937" lon="0.05542">
        <ele>1163.5</ele>
        <time>2019-08-18T13:08:24Z</time>
      </trkpt>
      <trkpt lat="42.89362" lon="0.05524">
        <ele>1163.2</ele>
        <time>2019-08-18T13:08:25Z</time>
      </trkpt>
      <trkpt lat="42.89354" lon="0.05504">
        <ele>1161.3</ele>
        <time>2019-08-18T13:08:26Z</time>
      </trkpt>
      <trkpt lat="42.89345" lon="0.05486">
        <ele>1157</ele>
        <time>2019-08-18T13:08:27Z</time>
      </trkpt>
      <trkpt lat="42.89338" lon="0.05468">
        <ele>1154</ele>
        <time>2019-08-18T13:08:28Z</time>
      </trkpt>
      <trkpt lat="42.89329" lon="0.05449">
        <ele>1152</ele>
        <time>2019-08-18T13:08:29Z</time>
      </trkpt>
      <trkpt lat="42.89321" lon="0.05431">
        <ele>1150.4</ele>
        <time>2019-08-18T13:08:30Z</time>
      </trkpt>
      <trkpt lat="42.89313" lon="0.05412">
        <ele>1148.8</ele>
        <time>2019-08-18T13:08:31Z</time>
      </trkpt>
      <trkpt lat="42.89307" lon="0.05393">
        <ele>1147.2</ele>
        <time>2019-08-18T13:08:32Z</time>
      </trkpt>
      <trkpt lat="42.89302" lon="0.05373">
        <ele>1145.5</ele>
        <time>2019-08-18T13:08:33Z</time>
      </trkpt>
      <trkpt lat="42.89297" lon="0.05353">
        <ele>1143.7</ele>
        <time>2019-08-18T13:08:34Z</time>
      </trkpt>
      <trkpt lat="42.89294" lon="0.05333">
        <ele>1141.9</ele>
        <time>2019-08-18T13:08:35Z</time>
      </trkpt>
      <trkpt lat="42.89292" lon="0.05313">
        <ele>1140.1</ele>
        <time>2019-08-18T13:08:36Z</time>
      </trkpt>
      <trkpt lat="42.89287" lon="0.05294">
        <ele>1138.2</ele>
        <time>2019-08-18T13:08:37Z</time>
      </trkpt>
      <trkpt lat="42.89282" lon="0.05276">
        <ele>1136.7</ele>
        <time>2019-08-18T13:08:38Z</time>
      </trkpt>
      <trkpt lat="42.89275" lon="0.05258">
        <ele>1135</ele>
        <time>2019-08-18T13:08:39Z</time>
      </trkpt>
      <trkpt lat="42.89267" lon="0.05241">
        <ele>1133.4</ele>
        <time>2019-08-18T13:08:40Z</time>
      </trkpt>
      <trkpt lat="42.89259" lon="0.05224">
        <ele>1131.5</ele>
        <time>2019-08-18T13:08:41Z</time>
      </trkpt>
      <trkpt lat="42.89251" lon="0.05207">
        <ele>1129.5</ele>
        <time>2019-08-18T13:08:42Z</time>
      </trkpt>
      <trkpt lat="42.89243" lon="0.0519">
        <ele>1128</ele>
        <time>2019-08-18T13:08:43Z</time>
      </trkpt>
      <trkpt lat="42.89234" lon="0.05173">
        <ele>1126.6</ele>
        <time>2019-08-18T13:08:44Z</time>
      </trkpt>
      <trkpt lat="42.89226" lon="0.05156">
        <ele>1125.3</ele>
        <time>2019-08-18T13:08:45Z</time>
      </trkpt>
      <trkpt lat="42.89218" lon="0.0514">
        <ele>1123.4</ele>
        <time>2019-08-18T13:08:46Z</time>
      </trkpt>
      <trkpt lat="42.89209" lon="0.05124">
        <ele>1121.4</ele>
        <time>2019-08-18T13:08:47Z</time>
      </trkpt>
      <trkpt lat="42.89199" lon="0.05111">
        <ele>1120.1</ele>
        <time>2019-08-18T13:08:48Z</time>
      </trkpt>
      <trkpt lat="42.89187" lon="0.05099">
        <ele>1119.6</ele>
        <time>2019-08-18T13:08:49Z</time>
      </trkpt>
      <trkpt lat="42.89176" lon="0.05092">
        <ele>1119.2</ele>
        <time>2019-08-18T13:08:50Z</time>
      </trkpt>
      <trkpt lat="42.89163" lon="0.05085">
        <ele>1118.8</ele>
        <time>2019-08-18T13:08:51Z</time>
      </trkpt>
      <trkpt lat="42.89149" lon="0.05077">
        <ele>1118.4</ele>
        <time>2019-08-18T13:08:52Z</time>
      </trkpt>
      <trkpt lat="42.89136" lon="0.05068">
        <ele>1117.9</ele>
        <time>2019-08-18T13:08:53Z</time>
      </trkpt>
      <trkpt lat="42.89124" lon="0.05058">
        <ele>1117.4</ele>
        <time>2019-08-18T13:08:54Z</time>
      </trkpt>
      <trkpt lat="42.89112" lon="0.05047">
        <ele>1116.9</ele>
        <time>2019-08-18T13:08:55Z</time>
      </trkpt>
      <trkpt lat="42.891" lon="0.05033">
        <ele>1116.1</ele>
        <time>2019-08-18T13:08:56Z</time>
      </trkpt>
      <trkpt lat="42.89091" lon="0.05018">
        <ele>1115.2</ele>
        <time>2019-08-18T13:08:57Z</time>
      </trkpt>
      <trkpt lat="42.8908" lon="0.05004">
        <ele>1113.4</ele>
        <time>2019-08-18T13:08:58Z</time>
      </trkpt>
      <trkpt lat="42.89069" lon="0.0499">
        <ele>1111.1</ele>
        <time>2019-08-18T13:08:59Z</time>
      </trkpt>
      <trkpt lat="42.89063" lon="0.04971">
        <ele>1108.5</ele>
        <time>2019-08-18T13:09:00Z</time>
      </trkpt>
      <trkpt lat="42.8906" lon="0.0495">
        <ele>1104.8</ele>
        <time>2019-08-18T13:09:01Z</time>
      </trkpt>
      <trkpt lat="42.89058" lon="0.0493">
        <ele>1101.7</ele>
        <time>2019-08-18T13:09:02Z</time>
      </trkpt>
      <trkpt lat="42.89056" lon="0.04911">
        <ele>1099.1</ele>
        <time>2019-08-18T13:09:03Z</time>
      </trkpt>
      <trkpt lat="42.89051" lon="0.04892">
        <ele>1097.4</ele>
        <time>2019-08-18T13:09:04Z</time>
      </trkpt>
      <trkpt lat="42.89044" lon="0.04876">
        <ele>1095.7</ele>
        <time>2019-08-18T13:09:05Z</time>
      </trkpt>
      <trkpt lat="42.89036" lon="0.04863">
        <ele>1094.3</ele>
        <time>2019-08-18T13:09:06Z</time>
      </trkpt>
      <trkpt lat="42.89028" lon="0.04853">
        <ele>1093.3</ele>
        <time>2019-08-18T13:09:07Z</time>
      </trkpt>
      <trkpt lat="42.8902" lon="0.04846">
        <ele>1092.5</ele>
        <time>2019-08-18T13:09:08Z</time>
      </trkpt>
      <trkpt lat="42.89015" lon="0.04836">
        <ele>1091.5</ele>
        <time>2019-08-18T13:09:09Z</time>
      </trkpt>
      <trkpt lat="42.89015" lon="0.04825">
        <ele>1090.3</ele>
        <time>2019-08-18T13:09:10Z</time>
      </trkpt>
      <trkpt lat="42.89018" lon="0.04815">
        <ele>1089</ele>
        <time>2019-08-18T13:09:11Z</time>
      </trkpt>
      <trkpt lat="42.89025" lon="0.04809">
        <ele>1088.7</ele>
        <time>2019-08-18T13:09:12Z</time>
      </trkpt>
      <trkpt lat="42.89033" lon="0.04803">
        <ele>1089</ele>
        <time>2019-08-18T13:09:13Z</time>
      </trkpt>
      <trkpt lat="42.8904" lon="0.04817">
        <ele>1089.3</ele>
        <time>2019-08-18T13:09:14Z</time>
      </trkpt>
      <trkpt lat="42.89046" lon="0.04826">
        <ele>1089.6</ele>
        <time>2019-08-18T13:09:15Z</time>
      </trkpt>
      <trkpt lat="42.89052" lon="0.04836">
        <ele>1089.7</ele>
        <time>2019-08-18T13:09:16Z</time>
      </trkpt>
      <trkpt lat="42.89059" lon="0.04845">
        <ele>1089.7</ele>
        <time>2019-08-18T13:09:17Z</time>
      </trkpt>
      <trkpt lat="42.89065" lon="0.04854">
        <ele>1089.7</ele>
        <time>2019-08-18T13:09:18Z</time>
      </trkpt>
      <trkpt lat="42.89073" lon="0.04863">
        <ele>1089.8</ele>
        <time>2019-08-18T13:09:19Z</time>
      </trkpt>
      <trkpt lat="42.8908" lon="0.04871">
        <ele>1089.8</ele>
        <time>2019-08-18T13:09:20Z</time>
      </trkpt>
      <trkpt lat="42.89088" lon="0.04878">
        <ele>1089.8</ele>
        <time>2019-08-18T13:09:21Z</time>
      </trkpt>
      <trkpt lat="42.89096" lon="0.04879">
        <ele>1089.8</ele>
        <time>2019-08-18T13:09:22Z</time>
      </trkpt>
      <trkpt lat="42.89104" lon="0.04876">
        <ele>1089.8</ele>
        <time>2019-08-18T13:09:23Z</time>
      </trkpt>
      <trkpt lat="42.8911" lon="0.04868">
        <ele>1089.7</ele>
        <time>2019-08-18T13:09:24Z</time>
      </trkpt>
      <trkpt lat="42.89112" lon="0.04858">
        <ele>1089.5</ele>
        <time>2019-08-18T13:09:25Z</time>
      </trkpt>
      <trkpt lat="42.89111" lon="0.04847">
        <ele>1089.4</ele>
        <time>2019-08-18T13:09:26Z</time>
      </trkpt>
      <trkpt lat="42.89107" lon="0.04837">
        <ele>1089.2</ele>
        <time>2019-08-18T13:09:27Z</time>
      </trkpt>
      <trkpt lat="42.89101" lon="0.04827">
        <ele>1089</ele>
        <time>2019-08-18T13:09:28Z</time>
      </trkpt>
      <trkpt lat="42.89095" lon="0.04817">
        <ele>1088.6</ele>
        <time>2019-08-18T13:09:29Z</time>
      </trkpt>
      <trkpt lat="42.89088" lon="0.04806">
        <ele>1088.2</ele>
        <time>2019-08-18T13:09:30Z</time>
      </trkpt>
      <trkpt lat="42.8908" lon="0.04795">
        <ele>1087.8</ele>
        <time>2019-08-18T13:09:31Z</time>
      </trkpt>
      <trkpt lat="42.89073" lon="0.04783">
        <ele>1087.5</ele>
        <time>2019-08-18T13:09:32Z</time>
      </trkpt>
      <trkpt lat="42.89065" lon="0.04771">
        <ele>1087.1</ele>
        <time>2019-08-18T13:09:33Z</time>
      </trkpt>
      <trkpt lat="42.89058" lon="0.04759">
        <ele>1086.6</ele>
        <time>2019-08-18T13:09:34Z</time>
      </trkpt>
      <trkpt lat="42.89049" lon="0.04747">
        <ele>1085.8</ele>
        <time>2019-08-18T13:09:35Z</time>
      </trkpt>
      <trkpt lat="42.89041" lon="0.04735">
        <ele>1084.6</ele>
        <time>2019-08-18T13:09:36Z</time>
      </trkpt>
      <trkpt lat="42.89031" lon="0.04724">
        <ele>1083.1</ele>
        <time>2019-08-18T13:09:37Z</time>
      </trkpt>
      <trkpt lat="42.89021" lon="0.04715">
        <ele>1082.4</ele>
        <time>2019-08-18T13:09:38Z</time>
      </trkpt>
      <trkpt lat="42.89009" lon="0.04707">
        <ele>1082</ele>
        <time>2019-08-18T13:09:39Z</time>
      </trkpt>
      <trkpt lat="42.88996" lon="0.047">
        <ele>1081.7</ele>
        <time>2019-08-18T13:09:40Z</time>
      </trkpt>
      <trkpt lat="42.88983" lon="0.04694">
        <ele>1081.3</ele>
        <time>2019-08-18T13:09:41Z</time>
      </trkpt>
      <trkpt lat="42.8897" lon="0.04688">
        <ele>1081</ele>
        <time>2019-08-18T13:09:42Z</time>
      </trkpt>
      <trkpt lat="42.88956" lon="0.04682">
        <ele>1080.6</ele>
        <time>2019-08-18T13:09:43Z</time>
      </trkpt>
      <trkpt lat="42.88943" lon="0.04676">
        <ele>1080.2</ele>
        <time>2019-08-18T13:09:44Z</time>
      </trkpt>
      <trkpt lat="42.88928" lon="0.04669">
        <ele>1079.6</ele>
        <time>2019-08-18T13:09:45Z</time>
      </trkpt>
      <trkpt lat="42.88915" lon="0.04662">
        <ele>1078.9</ele>
        <time>2019-08-18T13:09:46Z</time>
      </trkpt>
      <trkpt lat="42.88901" lon="0.04656">
        <ele>1078.1</ele>
        <time>2019-08-18T13:09:47Z</time>
      </trkpt>
      <trkpt lat="42.88887" lon="0.04648">
        <ele>1077.2</ele>
        <time>2019-08-18T13:09:48Z</time>
      </trkpt>
      <trkpt lat="42.88873" lon="0.04642">
        <ele>1075.7</ele>
        <time>2019-08-18T13:09:49Z</time>
      </trkpt>
      <trkpt lat="42.88858" lon="0.04635">
        <ele>1073.1</ele>
        <time>2019-08-18T13:09:50Z</time>
      </trkpt>
      <trkpt lat="42.88845" lon="0.04628">
        <ele>1071.1</ele>
        <time>2019-08-18T13:09:51Z</time>
      </trkpt>
      <trkpt lat="42.88831" lon="0.04622">
        <ele>1069.4</ele>
        <time>2019-08-18T13:09:52Z</time>
      </trkpt>
      <trkpt lat="42.88818" lon="0.04615">
        <ele>1067.8</ele>
        <time>2019-08-18T13:09:53Z</time>
      </trkpt>
      <trkpt lat="42.88805" lon="0.04607">
        <ele>1066.4</ele>
        <time>2019-08-18T13:09:54Z</time>
      </trkpt>
      <trkpt lat="42.88792" lon="0.04598">
        <ele>1064.9</ele>
        <time>2019-08-18T13:09:55Z</time>
      </trkpt>
      <trkpt lat="42.8878" lon="0.04586">
        <ele>1062.9</ele>
        <time>2019-08-18T13:09:56Z</time>
      </trkpt>
      <trkpt lat="42.88769" lon="0.04574">
        <ele>1061.4</ele>
        <time>2019-08-18T13:09:57Z</time>
      </trkpt>
      <trkpt lat="42.88758" lon="0.04562">
        <ele>1059.9</ele>
        <time>2019-08-18T13:09:58Z</time>
      </trkpt>
      <trkpt lat="42.88747" lon="0.04551">
        <ele>1058.5</ele>
        <time>2019-08-18T13:09:59Z</time>
      </trkpt>
      <trkpt lat="42.88735" lon="0.04539">
        <ele>1056.6</ele>
        <time>2019-08-18T13:10:00Z</time>
      </trkpt>
      <trkpt lat="42.88722" lon="0.04528">
        <ele>1054.8</ele>
        <time>2019-08-18T13:10:01Z</time>
      </trkpt>
      <trkpt lat="42.88711" lon="0.04517">
        <ele>1053.3</ele>
        <time>2019-08-18T13:10:02Z</time>
      </trkpt>
      <trkpt lat="42.88699" lon="0.04507">
        <ele>1051.9</ele>
        <time>2019-08-18T13:10:03Z</time>
      </trkpt>
      <trkpt lat="42.88687" lon="0.04497">
        <ele>1050.5</ele>
        <time>2019-08-18T13:10:04Z</time>
      </trkpt>
      <trkpt lat="42.88675" lon="0.04487">
        <ele>1049.2</ele>
        <time>2019-08-18T13:10:05Z</time>
      </trkpt>
      <trkpt lat="42.88662" lon="0.04477">
        <ele>1047.8</ele>
        <time>2019-08-18T13:10:06Z</time>
      </trkpt>
      <trkpt lat="42.8865" lon="0.04466">
        <ele>1046.4</ele>
        <time>2019-08-18T13:10:07Z</time>
      </trkpt>
      <trkpt lat="42.88638" lon="0.04455">
        <ele>1044.9</ele>
        <time>2019-08-18T13:10:08Z</time>
      </trkpt>
      <trkpt lat="42.88626" lon="0.04444">
        <ele>1044.3</ele>
        <time>2019-08-18T13:10:09Z</time>
      </trkpt>
      <trkpt lat="42.88615" lon="0.04431">
        <ele>1043.8</ele>
        <time>2019-08-18T13:10:10Z</time>
      </trkpt>
      <trkpt lat="42.88604" lon="0.04418">
        <ele>1043.2</ele>
        <time>2019-08-18T13:10:11Z</time>
      </trkpt>
      <trkpt lat="42.88593" lon="0.04404">
        <ele>1042.5</ele>
        <time>2019-08-18T13:10:12Z</time>
      </trkpt>
      <trkpt lat="42.88583" lon="0.04391">
        <ele>1041.7</ele>
        <time>2019-08-18T13:10:13Z</time>
      </trkpt>
      <trkpt lat="42.88574" lon="0.04377">
        <ele>1040.4</ele>
        <time>2019-08-18T13:10:14Z</time>
      </trkpt>
      <trkpt lat="42.88563" lon="0.04362">
        <ele>1038.5</ele>
        <time>2019-08-18T13:10:15Z</time>
      </trkpt>
      <trkpt lat="42.88554" lon="0.04346">
        <ele>1036.5</ele>
        <time>2019-08-18T13:10:16Z</time>
      </trkpt>
      <trkpt lat="42.88545" lon="0.0433">
        <ele>1034.5</ele>
        <time>2019-08-18T13:10:17Z</time>
      </trkpt>
      <trkpt lat="42.88537" lon="0.04313">
        <ele>1032.4</ele>
        <time>2019-08-18T13:10:18Z</time>
      </trkpt>
      <trkpt lat="42.88529" lon="0.04298">
        <ele>1030.5</ele>
        <time>2019-08-18T13:10:19Z</time>
      </trkpt>
      <trkpt lat="42.88519" lon="0.04283">
        <ele>1028.5</ele>
        <time>2019-08-18T13:10:20Z</time>
      </trkpt>
      <trkpt lat="42.88509" lon="0.04269">
        <ele>1026.7</ele>
        <time>2019-08-18T13:10:21Z</time>
      </trkpt>
      <trkpt lat="42.88499" lon="0.04256">
        <ele>1024.7</ele>
        <time>2019-08-18T13:10:22Z</time>
      </trkpt>
      <trkpt lat="42.88487" lon="0.04244">
        <ele>1022.7</ele>
        <time>2019-08-18T13:10:23Z</time>
      </trkpt>
      <trkpt lat="42.88476" lon="0.04231">
        <ele>1020.6</ele>
        <time>2019-08-18T13:10:24Z</time>
      </trkpt>
      <trkpt lat="42.88465" lon="0.04218">
        <ele>1018.7</ele>
        <time>2019-08-18T13:10:25Z</time>
      </trkpt>
      <trkpt lat="42.88455" lon="0.04204">
        <ele>1016.6</ele>
        <time>2019-08-18T13:10:26Z</time>
      </trkpt>
      <trkpt lat="42.88445" lon="0.04189">
        <ele>1014.7</ele>
        <time>2019-08-18T13:10:27Z</time>
      </trkpt>
      <trkpt lat="42.88434" lon="0.04175">
        <ele>1012.8</ele>
        <time>2019-08-18T13:10:28Z</time>
      </trkpt>
      <trkpt lat="42.88424" lon="0.04162">
        <ele>1010.9</ele>
        <time>2019-08-18T13:10:29Z</time>
      </trkpt>
      <trkpt lat="42.88413" lon="0.04149">
        <ele>1009.6</ele>
        <time>2019-08-18T13:10:30Z</time>
      </trkpt>
      <trkpt lat="42.88403" lon="0.04135">
        <ele>1008.2</ele>
        <time>2019-08-18T13:10:31Z</time>
      </trkpt>
      <trkpt lat="42.88392" lon="0.04121">
        <ele>1006.7</ele>
        <time>2019-08-18T13:10:32Z</time>
      </trkpt>
      <trkpt lat="42.88382" lon="0.04107">
        <ele>1005</ele>
        <time>2019-08-18T13:10:33Z</time>
      </trkpt>
      <trkpt lat="42.88372" lon="0.04092">
        <ele>1003.4</ele>
        <time>2019-08-18T13:10:34Z</time>
      </trkpt>
      <trkpt lat="42.88363" lon="0.04077">
        <ele>1002.6</ele>
        <time>2019-08-18T13:10:35Z</time>
      </trkpt>
      <trkpt lat="42.88353" lon="0.04062">
        <ele>1002</ele>
        <time>2019-08-18T13:10:36Z</time>
      </trkpt>
      <trkpt lat="42.88342" lon="0.04047">
        <ele>1001.4</ele>
        <time>2019-08-18T13:10:37Z</time>
      </trkpt>
      <trkpt lat="42.88332" lon="0.04032">
        <ele>1001</ele>
        <time>2019-08-18T13:10:38Z</time>
      </trkpt>
      <trkpt lat="42.88322" lon="0.04019">
        <ele>1000.6</ele>
        <time>2019-08-18T13:10:39Z</time>
      </trkpt>
      <trkpt lat="42.88312" lon="0.04007">
        <ele>1000.3</ele>
        <time>2019-08-18T13:10:40Z</time>
      </trkpt>
      <trkpt lat="42.88302" lon="0.03998">
        <ele>1000.2</ele>
        <time>2019-08-18T13:10:41Z</time>
      </trkpt>
      <trkpt lat="42.88292" lon="0.03991">
        <ele>1000.1</ele>
        <time>2019-08-18T13:10:42Z</time>
      </trkpt>
      <trkpt lat="42.88282" lon="0.03987">
        <ele>1000</ele>
        <time>2019-08-18T13:10:43Z</time>
      </trkpt>
      <trkpt lat="42.88273" lon="0.03985">
        <ele>999.9</ele>
        <time>2019-08-18T13:10:44Z</time>
      </trkpt>
      <trkpt lat="42.88266" lon="0.03982">
        <ele>999.8</ele>
        <time>2019-08-18T13:10:45Z</time>
      </trkpt>
      <trkpt lat="42.88259" lon="0.03979">
        <ele>999.6</ele>
        <time>2019-08-18T13:10:46Z</time>
      </trkpt>
      <trkpt lat="42.88261" lon="0.03968">
        <ele>999.3</ele>
        <time>2019-08-18T13:10:47Z</time>
      </trkpt>
      <trkpt lat="42.88264" lon="0.03959">
        <ele>999</ele>
        <time>2019-08-18T13:10:48Z</time>
      </trkpt>
      <trkpt lat="42.88268" lon="0.03951">
        <ele>998.7</ele>
        <time>2019-08-18T13:10:49Z</time>
      </trkpt>
      <trkpt lat="42.88278" lon="0.03957">
        <ele>998.1</ele>
        <time>2019-08-18T13:10:50Z</time>
      </trkpt>
      <trkpt lat="42.88285" lon="0.03961">
        <ele>997.7</ele>
        <time>2019-08-18T13:10:51Z</time>
      </trkpt>
      <trkpt lat="42.88292" lon="0.03966">
        <ele>997.2</ele>
        <time>2019-08-18T13:10:52Z</time>
      </trkpt>
      <trkpt lat="42.88301" lon="0.03971">
        <ele>996.6</ele>
        <time>2019-08-18T13:10:53Z</time>
      </trkpt>
      <trkpt lat="42.88309" lon="0.03978">
        <ele>995.8</ele>
        <time>2019-08-18T13:10:54Z</time>
      </trkpt>
      <trkpt lat="42.88317" lon="0.03985">
        <ele>995.1</ele>
        <time>2019-08-18T13:10:55Z</time>
      </trkpt>
      <trkpt lat="42.88324" lon="0.03993">
        <ele>994.6</ele>
        <time>2019-08-18T13:10:56Z</time>
      </trkpt>
      <trkpt lat="42.88332" lon="0.04002">
        <ele>994.1</ele>
        <time>2019-08-18T13:10:57Z</time>
      </trkpt>
      <trkpt lat="42.88338" lon="0.04013">
        <ele>993.5</ele>
        <time>2019-08-18T13:10:58Z</time>
      </trkpt>
      <trkpt lat="42.88344" lon="0.04023">
        <ele>992.9</ele>
        <time>2019-08-18T13:10:59Z</time>
      </trkpt>
      <trkpt lat="42.8835" lon="0.04032">
        <ele>992.5</ele>
        <time>2019-08-18T13:11:00Z</time>
      </trkpt>
      <trkpt lat="42.88357" lon="0.04036">
        <ele>992.1</ele>
        <time>2019-08-18T13:11:01Z</time>
      </trkpt>
      <trkpt lat="42.88365" lon="0.0404">
        <ele>991.8</ele>
        <time>2019-08-18T13:11:02Z</time>
      </trkpt>
      <trkpt lat="42.88372" lon="0.04031">
        <ele>991.5</ele>
        <time>2019-08-18T13:11:03Z</time>
      </trkpt>
      <trkpt lat="42.88376" lon="0.0402">
        <ele>991.1</ele>
        <time>2019-08-18T13:11:04Z</time>
      </trkpt>
      <trkpt lat="42.88377" lon="0.04009">
        <ele>990.8</ele>
        <time>2019-08-18T13:11:05Z</time>
      </trkpt>
      <trkpt lat="42.88375" lon="0.03998">
        <ele>989.6</ele>
        <time>2019-08-18T13:11:06Z</time>
      </trkpt>
      <trkpt lat="42.88371" lon="0.03988">
        <ele>988.4</ele>
        <time>2019-08-18T13:11:07Z</time>
      </trkpt>
      <trkpt lat="42.88366" lon="0.03975">
        <ele>986.7</ele>
        <time>2019-08-18T13:11:08Z</time>
      </trkpt>
      <trkpt lat="42.88361" lon="0.03962">
        <ele>985.2</ele>
        <time>2019-08-18T13:11:09Z</time>
      </trkpt>
      <trkpt lat="42.88355" lon="0.03949">
        <ele>983.6</ele>
        <time>2019-08-18T13:11:10Z</time>
      </trkpt>
      <trkpt lat="42.8835" lon="0.03935">
        <ele>982.1</ele>
        <time>2019-08-18T13:11:11Z</time>
      </trkpt>
      <trkpt lat="42.88344" lon="0.0392">
        <ele>981.8</ele>
        <time>2019-08-18T13:11:12Z</time>
      </trkpt>
      <trkpt lat="42.88337" lon="0.03905">
        <ele>981.5</ele>
        <time>2019-08-18T13:11:13Z</time>
      </trkpt>
      <trkpt lat="42.88331" lon="0.0389">
        <ele>980.9</ele>
        <time>2019-08-18T13:11:14Z</time>
      </trkpt>
      <trkpt lat="42.88326" lon="0.03875">
        <ele>980.4</ele>
        <time>2019-08-18T13:11:15Z</time>
      </trkpt>
      <trkpt lat="42.88319" lon="0.03859">
        <ele>979.7</ele>
        <time>2019-08-18T13:11:16Z</time>
      </trkpt>
      <trkpt lat="42.88313" lon="0.03843">
        <ele>978.9</ele>
        <time>2019-08-18T13:11:17Z</time>
      </trkpt>
      <trkpt lat="42.88306" lon="0.03826">
        <ele>978.1</ele>
        <time>2019-08-18T13:11:18Z</time>
      </trkpt>
      <trkpt lat="42.88299" lon="0.03809">
        <ele>976.8</ele>
        <time>2019-08-18T13:11:19Z</time>
      </trkpt>
      <trkpt lat="42.88294" lon="0.03792">
        <ele>975.4</ele>
        <time>2019-08-18T13:11:20Z</time>
      </trkpt>
      <trkpt lat="42.88289" lon="0.03775">
        <ele>974.3</ele>
        <time>2019-08-18T13:11:21Z</time>
      </trkpt>
      <trkpt lat="42.88284" lon="0.03756">
        <ele>973.6</ele>
        <time>2019-08-18T13:11:22Z</time>
      </trkpt>
      <trkpt lat="42.8828" lon="0.03737">
        <ele>972.8</ele>
        <time>2019-08-18T13:11:23Z</time>
      </trkpt>
      <trkpt lat="42.88277" lon="0.03718">
        <ele>972.1</ele>
        <time>2019-08-18T13:11:24Z</time>
      </trkpt>
      <trkpt lat="42.88274" lon="0.03698">
        <ele>971.3</ele>
        <time>2019-08-18T13:11:25Z</time>
      </trkpt>
      <trkpt lat="42.88273" lon="0.03679">
        <ele>970.5</ele>
        <time>2019-08-18T13:11:26Z</time>
      </trkpt>
      <trkpt lat="42.88272" lon="0.03658">
        <ele>969.7</ele>
        <time>2019-08-18T13:11:27Z</time>
      </trkpt>
      <trkpt lat="42.88272" lon="0.03637">
        <ele>968.9</ele>
        <time>2019-08-18T13:11:28Z</time>
      </trkpt>
      <trkpt lat="42.88273" lon="0.03617">
        <ele>968</ele>
        <time>2019-08-18T13:11:29Z</time>
      </trkpt>
      <trkpt lat="42.88272" lon="0.03595">
        <ele>967.1</ele>
        <time>2019-08-18T13:11:30Z</time>
      </trkpt>
      <trkpt lat="42.88273" lon="0.03574">
        <ele>966.1</ele>
        <time>2019-08-18T13:11:31Z</time>
      </trkpt>
      <trkpt lat="42.88275" lon="0.03553">
        <ele>965.1</ele>
        <time>2019-08-18T13:11:32Z</time>
      </trkpt>
      <trkpt lat="42.88278" lon="0.03532">
        <ele>964.1</ele>
        <time>2019-08-18T13:11:33Z</time>
      </trkpt>
      <trkpt lat="42.88283" lon="0.03512">
        <ele>963.1</ele>
        <time>2019-08-18T13:11:34Z</time>
      </trkpt>
      <trkpt lat="42.88288" lon="0.03492">
        <ele>962</ele>
        <time>2019-08-18T13:11:35Z</time>
      </trkpt>
      <trkpt lat="42.88293" lon="0.03473">
        <ele>961</ele>
        <time>2019-08-18T13:11:36Z</time>
      </trkpt>
      <trkpt lat="42.88298" lon="0.03453">
        <ele>959.9</ele>
        <time>2019-08-18T13:11:37Z</time>
      </trkpt>
      <trkpt lat="42.88299" lon="0.03432">
        <ele>958.9</ele>
        <time>2019-08-18T13:11:38Z</time>
      </trkpt>
      <trkpt lat="42.88299" lon="0.0341">
        <ele>957.9</ele>
        <time>2019-08-18T13:11:39Z</time>
      </trkpt>
      <trkpt lat="42.883" lon="0.03389">
        <ele>956.8</ele>
        <time>2019-08-18T13:11:40Z</time>
      </trkpt>
      <trkpt lat="42.883" lon="0.03367">
        <ele>955.7</ele>
        <time>2019-08-18T13:11:41Z</time>
      </trkpt>
      <trkpt lat="42.88299" lon="0.03344">
        <ele>954.5</ele>
        <time>2019-08-18T13:11:42Z</time>
      </trkpt>
      <trkpt lat="42.88299" lon="0.03322">
        <ele>953.3</ele>
        <time>2019-08-18T13:11:43Z</time>
      </trkpt>
      <trkpt lat="42.88299" lon="0.033">
        <ele>952</ele>
        <time>2019-08-18T13:11:44Z</time>
      </trkpt>
      <trkpt lat="42.88301" lon="0.03277">
        <ele>950.6</ele>
        <time>2019-08-18T13:11:45Z</time>
      </trkpt>
      <trkpt lat="42.88305" lon="0.03254">
        <ele>949.2</ele>
        <time>2019-08-18T13:11:46Z</time>
      </trkpt>
      <trkpt lat="42.8831" lon="0.03232">
        <ele>947.7</ele>
        <time>2019-08-18T13:11:47Z</time>
      </trkpt>
      <trkpt lat="42.88317" lon="0.0321">
        <ele>946</ele>
        <time>2019-08-18T13:11:48Z</time>
      </trkpt>
      <trkpt lat="42.88325" lon="0.03189">
        <ele>944.4</ele>
        <time>2019-08-18T13:11:49Z</time>
      </trkpt>
      <trkpt lat="42.8833" lon="0.0317">
        <ele>942.8</ele>
        <time>2019-08-18T13:11:50Z</time>
      </trkpt>
      <trkpt lat="42.88333" lon="0.03148">
        <ele>941.1</ele>
        <time>2019-08-18T13:11:51Z</time>
      </trkpt>
      <trkpt lat="42.88332" lon="0.03127">
        <ele>939.5</ele>
        <time>2019-08-18T13:11:52Z</time>
      </trkpt>
      <trkpt lat="42.8833" lon="0.03106">
        <ele>937.8</ele>
        <time>2019-08-18T13:11:53Z</time>
      </trkpt>
      <trkpt lat="42.88325" lon="0.03086">
        <ele>936.1</ele>
        <time>2019-08-18T13:11:54Z</time>
      </trkpt>
      <trkpt lat="42.88319" lon="0.03067">
        <ele>934.5</ele>
        <time>2019-08-18T13:11:55Z</time>
      </trkpt>
      <trkpt lat="42.88309" lon="0.0305">
        <ele>932.9</ele>
        <time>2019-08-18T13:11:56Z</time>
      </trkpt>
      <trkpt lat="42.88299" lon="0.03035">
        <ele>931.4</ele>
        <time>2019-08-18T13:11:57Z</time>
      </trkpt>
      <trkpt lat="42.88287" lon="0.03021">
        <ele>929.9</ele>
        <time>2019-08-18T13:11:58Z</time>
      </trkpt>
      <trkpt lat="42.88275" lon="0.03008">
        <ele>928.5</ele>
        <time>2019-08-18T13:11:59Z</time>
      </trkpt>
      <trkpt lat="42.88264" lon="0.02994">
        <ele>927.1</ele>
        <time>2019-08-18T13:12:00Z</time>
      </trkpt>
      <trkpt lat="42.88251" lon="0.0298">
        <ele>925.7</ele>
        <time>2019-08-18T13:12:01Z</time>
      </trkpt>
      <trkpt lat="42.88239" lon="0.02967">
        <ele>924.5</ele>
        <time>2019-08-18T13:12:02Z</time>
      </trkpt>
      <trkpt lat="42.88228" lon="0.02954">
        <ele>923.2</ele>
        <time>2019-08-18T13:12:03Z</time>
      </trkpt>
      <trkpt lat="42.88216" lon="0.0294">
        <ele>922.1</ele>
        <time>2019-08-18T13:12:04Z</time>
      </trkpt>
      <trkpt lat="42.88203" lon="0.02926">
        <ele>920.8</ele>
        <time>2019-08-18T13:12:05Z</time>
      </trkpt>
      <trkpt lat="42.88191" lon="0.02913">
        <ele>919.7</ele>
        <time>2019-08-18T13:12:06Z</time>
      </trkpt>
      <trkpt lat="42.88179" lon="0.02898">
        <ele>918.4</ele>
        <time>2019-08-18T13:12:07Z</time>
      </trkpt>
      <trkpt lat="42.88167" lon="0.02885">
        <ele>916.9</ele>
        <time>2019-08-18T13:12:08Z</time>
      </trkpt>
      <trkpt lat="42.88155" lon="0.02872">
        <ele>915.7</ele>
        <time>2019-08-18T13:12:09Z</time>
      </trkpt>
      <trkpt lat="42.88144" lon="0.02859">
        <ele>914.2</ele>
        <time>2019-08-18T13:12:10Z</time>
      </trkpt>
      <trkpt lat="42.88133" lon="0.02845">
        <ele>912.3</ele>
        <time>2019-08-18T13:12:11Z</time>
      </trkpt>
      <trkpt lat="42.88122" lon="0.02831">
        <ele>910.3</ele>
        <time>2019-08-18T13:12:12Z</time>
      </trkpt>
      <trkpt lat="42.8811" lon="0.02819">
        <ele>908.3</ele>
        <time>2019-08-18T13:12:13Z</time>
      </trkpt>
      <trkpt lat="42.88099" lon="0.02807">
        <ele>906.5</ele>
        <time>2019-08-18T13:12:14Z</time>
      </trkpt>
      <trkpt lat="42.88088" lon="0.02794">
        <ele>904.6</ele>
        <time>2019-08-18T13:12:15Z</time>
      </trkpt>
      <trkpt lat="42.88076" lon="0.02781">
        <ele>903</ele>
        <time>2019-08-18T13:12:16Z</time>
      </trkpt>
      <trkpt lat="42.88065" lon="0.02768">
        <ele>901.7</ele>
        <time>2019-08-18T13:12:17Z</time>
      </trkpt>
      <trkpt lat="42.88053" lon="0.02755">
        <ele>900.3</ele>
        <time>2019-08-18T13:12:18Z</time>
      </trkpt>
      <trkpt lat="42.88043" lon="0.02741">
        <ele>898.9</ele>
        <time>2019-08-18T13:12:19Z</time>
      </trkpt>
      <trkpt lat="42.88031" lon="0.02728">
        <ele>896.7</ele>
        <time>2019-08-18T13:12:20Z</time>
      </trkpt>
      <trkpt lat="42.88019" lon="0.02714">
        <ele>894.3</ele>
        <time>2019-08-18T13:12:21Z</time>
      </trkpt>
      <trkpt lat="42.88008" lon="0.02699">
        <ele>891.6</ele>
        <time>2019-08-18T13:12:22Z</time>
      </trkpt>
      <trkpt lat="42.87997" lon="0.02686">
        <ele>889.1</ele>
        <time>2019-08-18T13:12:23Z</time>
      </trkpt>
      <trkpt lat="42.87983" lon="0.02671">
        <ele>886.6</ele>
        <time>2019-08-18T13:12:24Z</time>
      </trkpt>
      <trkpt lat="42.87974" lon="0.02656">
        <ele>885.6</ele>
        <time>2019-08-18T13:12:25Z</time>
      </trkpt>
      <trkpt lat="42.87963" lon="0.0264">
        <ele>884.4</ele>
        <time>2019-08-18T13:12:26Z</time>
      </trkpt>
      <trkpt lat="42.87952" lon="0.02624">
        <ele>883.5</ele>
        <time>2019-08-18T13:12:27Z</time>
      </trkpt>
      <trkpt lat="42.87944" lon="0.02606">
        <ele>882.8</ele>
        <time>2019-08-18T13:12:28Z</time>
      </trkpt>
      <trkpt lat="42.87937" lon="0.02587">
        <ele>882.1</ele>
        <time>2019-08-18T13:12:29Z</time>
      </trkpt>
      <trkpt lat="42.87931" lon="0.02566">
        <ele>881.3</ele>
        <time>2019-08-18T13:12:30Z</time>
      </trkpt>
      <trkpt lat="42.87925" lon="0.02545">
        <ele>880.4</ele>
        <time>2019-08-18T13:12:31Z</time>
      </trkpt>
      <trkpt lat="42.87921" lon="0.02523">
        <ele>879.4</ele>
        <time>2019-08-18T13:12:32Z</time>
      </trkpt>
      <trkpt lat="42.87916" lon="0.02501">
        <ele>878.5</ele>
        <time>2019-08-18T13:12:33Z</time>
      </trkpt>
      <trkpt lat="42.87911" lon="0.02479">
        <ele>878</ele>
        <time>2019-08-18T13:12:34Z</time>
      </trkpt>
      <trkpt lat="42.87907" lon="0.02458">
        <ele>877.6</ele>
        <time>2019-08-18T13:12:35Z</time>
      </trkpt>
      <trkpt lat="42.87903" lon="0.02437">
        <ele>877</ele>
        <time>2019-08-18T13:12:36Z</time>
      </trkpt>
      <trkpt lat="42.87899" lon="0.02415">
        <ele>876</ele>
        <time>2019-08-18T13:12:37Z</time>
      </trkpt>
      <trkpt lat="42.87894" lon="0.02395">
        <ele>874.8</ele>
        <time>2019-08-18T13:12:38Z</time>
      </trkpt>
      <trkpt lat="42.8789" lon="0.02374">
        <ele>873.4</ele>
        <time>2019-08-18T13:12:39Z</time>
      </trkpt>
      <trkpt lat="42.87885" lon="0.02354">
        <ele>871.8</ele>
        <time>2019-08-18T13:12:40Z</time>
      </trkpt>
      <trkpt lat="42.8788" lon="0.02333">
        <ele>869.8</ele>
        <time>2019-08-18T13:12:41Z</time>
      </trkpt>
      <trkpt lat="42.87875" lon="0.02313">
        <ele>867.5</ele>
        <time>2019-08-18T13:12:42Z</time>
      </trkpt>
      <trkpt lat="42.8787" lon="0.02293">
        <ele>865.1</ele>
        <time>2019-08-18T13:12:43Z</time>
      </trkpt>
      <trkpt lat="42.87865" lon="0.02272">
        <ele>862.4</ele>
        <time>2019-08-18T13:12:44Z</time>
      </trkpt>
      <trkpt lat="42.87862" lon="0.02252">
        <ele>860.1</ele>
        <time>2019-08-18T13:12:45Z</time>
      </trkpt>
      <trkpt lat="42.8786" lon="0.02231">
        <ele>857.9</ele>
        <time>2019-08-18T13:12:46Z</time>
      </trkpt>
      <trkpt lat="42.87858" lon="0.0221">
        <ele>856.4</ele>
        <time>2019-08-18T13:12:47Z</time>
      </trkpt>
      <trkpt lat="42.87858" lon="0.02188">
        <ele>854.8</ele>
        <time>2019-08-18T13:12:48Z</time>
      </trkpt>
      <trkpt lat="42.87857" lon="0.02167">
        <ele>852.6</ele>
        <time>2019-08-18T13:12:49Z</time>
      </trkpt>
      <trkpt lat="42.87856" lon="0.02146">
        <ele>850.5</ele>
        <time>2019-08-18T13:12:50Z</time>
      </trkpt>
      <trkpt lat="42.87855" lon="0.02123">
        <ele>848.6</ele>
        <time>2019-08-18T13:12:51Z</time>
      </trkpt>
      <trkpt lat="42.87854" lon="0.02102">
        <ele>846.7</ele>
        <time>2019-08-18T13:12:52Z</time>
      </trkpt>
      <trkpt lat="42.87853" lon="0.02081">
        <ele>844.8</ele>
        <time>2019-08-18T13:12:53Z</time>
      </trkpt>
      <trkpt lat="42.87852" lon="0.02059">
        <ele>843</ele>
        <time>2019-08-18T13:12:54Z</time>
      </trkpt>
      <trkpt lat="42.8785" lon="0.02038">
        <ele>841</ele>
        <time>2019-08-18T13:12:55Z</time>
      </trkpt>
      <trkpt lat="42.8785" lon="0.02016">
        <ele>839.6</ele>
        <time>2019-08-18T13:12:56Z</time>
      </trkpt>
      <trkpt lat="42.87847" lon="0.01998">
        <ele>838.5</ele>
        <time>2019-08-18T13:12:57Z</time>
      </trkpt>
      <trkpt lat="42.87845" lon="0.01976">
        <ele>837.3</ele>
        <time>2019-08-18T13:12:58Z</time>
      </trkpt>
      <trkpt lat="42.87845" lon="0.01955">
        <ele>836.2</ele>
        <time>2019-08-18T13:12:59Z</time>
      </trkpt>
      <trkpt lat="42.87844" lon="0.01935">
        <ele>834.9</ele>
        <time>2019-08-18T13:13:00Z</time>
      </trkpt>
      <trkpt lat="42.87843" lon="0.01913">
        <ele>833.5</ele>
        <time>2019-08-18T13:13:01Z</time>
      </trkpt>
      <trkpt lat="42.87842" lon="0.01891">
        <ele>832</ele>
        <time>2019-08-18T13:13:02Z</time>
      </trkpt>
      <trkpt lat="42.87841" lon="0.0187">
        <ele>830.7</ele>
        <time>2019-08-18T13:13:03Z</time>
      </trkpt>
      <trkpt lat="42.8784" lon="0.01848">
        <ele>829.5</ele>
        <time>2019-08-18T13:13:04Z</time>
      </trkpt>
      <trkpt lat="42.87839" lon="0.01826">
        <ele>828.4</ele>
        <time>2019-08-18T13:13:05Z</time>
      </trkpt>
      <trkpt lat="42.87838" lon="0.01804">
        <ele>827.7</ele>
        <time>2019-08-18T13:13:06Z</time>
      </trkpt>
      <trkpt lat="42.87836" lon="0.01782">
        <ele>827</ele>
        <time>2019-08-18T13:13:07Z</time>
      </trkpt>
      <trkpt lat="42.87835" lon="0.01759">
        <ele>826.2</ele>
        <time>2019-08-18T13:13:08Z</time>
      </trkpt>
      <trkpt lat="42.87833" lon="0.01736">
        <ele>825.4</ele>
        <time>2019-08-18T13:13:09Z</time>
      </trkpt>
      <trkpt lat="42.87831" lon="0.01713">
        <ele>824.6</ele>
        <time>2019-08-18T13:13:10Z</time>
      </trkpt>
      <trkpt lat="42.87829" lon="0.01689">
        <ele>823.8</ele>
        <time>2019-08-18T13:13:11Z</time>
      </trkpt>
      <trkpt lat="42.87828" lon="0.01665">
        <ele>823</ele>
        <time>2019-08-18T13:13:12Z</time>
      </trkpt>
      <trkpt lat="42.87826" lon="0.01641">
        <ele>822.3</ele>
        <time>2019-08-18T13:13:13Z</time>
      </trkpt>
      <trkpt lat="42.87824" lon="0.01619">
        <ele>821.5</ele>
        <time>2019-08-18T13:13:14Z</time>
      </trkpt>
      <trkpt lat="42.87823" lon="0.01594">
        <ele>820.4</ele>
        <time>2019-08-18T13:13:15Z</time>
      </trkpt>
      <trkpt lat="42.87821" lon="0.01571">
        <ele>819.3</ele>
        <time>2019-08-18T13:13:16Z</time>
      </trkpt>
      <trkpt lat="42.87821" lon="0.01548">
        <ele>818.2</ele>
        <time>2019-08-18T13:13:17Z</time>
      </trkpt>
      <trkpt lat="42.8782" lon="0.01525">
        <ele>817</ele>
        <time>2019-08-18T13:13:18Z</time>
      </trkpt>
      <trkpt lat="42.87819" lon="0.01503">
        <ele>815.8</ele>
        <time>2019-08-18T13:13:19Z</time>
      </trkpt>
      <trkpt lat="42.87818" lon="0.0148">
        <ele>814.2</ele>
        <time>2019-08-18T13:13:20Z</time>
      </trkpt>
      <trkpt lat="42.87818" lon="0.01458">
        <ele>812.8</ele>
        <time>2019-08-18T13:13:21Z</time>
      </trkpt>
      <trkpt lat="42.87818" lon="0.01435">
        <ele>811.5</ele>
        <time>2019-08-18T13:13:22Z</time>
      </trkpt>
      <trkpt lat="42.87819" lon="0.01411">
        <ele>810.2</ele>
        <time>2019-08-18T13:13:23Z</time>
      </trkpt>
      <trkpt lat="42.87818" lon="0.01388">
        <ele>808.9</ele>
        <time>2019-08-18T13:13:24Z</time>
      </trkpt>
      <trkpt lat="42.87818" lon="0.01365">
        <ele>807.7</ele>
        <time>2019-08-18T13:13:25Z</time>
      </trkpt>
      <trkpt lat="42.87817" lon="0.01343">
        <ele>806.7</ele>
        <time>2019-08-18T13:13:26Z</time>
      </trkpt>
      <trkpt lat="42.87815" lon="0.0132">
        <ele>805.4</ele>
        <time>2019-08-18T13:13:27Z</time>
      </trkpt>
      <trkpt lat="42.87812" lon="0.01298">
        <ele>804</ele>
        <time>2019-08-18T13:13:28Z</time>
      </trkpt>
      <trkpt lat="42.87806" lon="0.01276">
        <ele>802.5</ele>
        <time>2019-08-18T13:13:29Z</time>
      </trkpt>
      <trkpt lat="42.878" lon="0.01255">
        <ele>801.1</ele>
        <time>2019-08-18T13:13:30Z</time>
      </trkpt>
      <trkpt lat="42.87793" lon="0.01235">
        <ele>799.6</ele>
        <time>2019-08-18T13:13:31Z</time>
      </trkpt>
      <trkpt lat="42.87785" lon="0.01214">
        <ele>798</ele>
        <time>2019-08-18T13:13:32Z</time>
      </trkpt>
      <trkpt lat="42.87779" lon="0.01194">
        <ele>796.6</ele>
        <time>2019-08-18T13:13:33Z</time>
      </trkpt>
      <trkpt lat="42.87773" lon="0.01173">
        <ele>795.4</ele>
        <time>2019-08-18T13:13:34Z</time>
      </trkpt>
      <trkpt lat="42.87765" lon="0.01152">
        <ele>794.1</ele>
        <time>2019-08-18T13:13:35Z</time>
      </trkpt>
      <trkpt lat="42.87758" lon="0.01132">
        <ele>792.8</ele>
        <time>2019-08-18T13:13:36Z</time>
      </trkpt>
      <trkpt lat="42.87751" lon="0.01112">
        <ele>791.4</ele>
        <time>2019-08-18T13:13:37Z</time>
      </trkpt>
      <trkpt lat="42.87743" lon="0.01092">
        <ele>789.8</ele>
        <time>2019-08-18T13:13:38Z</time>
      </trkpt>
      <trkpt lat="42.87736" lon="0.01072">
        <ele>788.4</ele>
        <time>2019-08-18T13:13:39Z</time>
      </trkpt>
      <trkpt lat="42.87728" lon="0.01052">
        <ele>787.2</ele>
        <time>2019-08-18T13:13:40Z</time>
      </trkpt>
      <trkpt lat="42.87722" lon="0.01032">
        <ele>786.2</ele>
        <time>2019-08-18T13:13:41Z</time>
      </trkpt>
      <trkpt lat="42.87715" lon="0.01011">
        <ele>785.2</ele>
        <time>2019-08-18T13:13:42Z</time>
      </trkpt>
      <trkpt lat="42.87708" lon="0.00991">
        <ele>784.1</ele>
        <time>2019-08-18T13:13:43Z</time>
      </trkpt>
      <trkpt lat="42.87702" lon="0.00971">
        <ele>783</ele>
        <time>2019-08-18T13:13:44Z</time>
      </trkpt>
      <trkpt lat="42.87696" lon="0.0095">
        <ele>782</ele>
        <time>2019-08-18T13:13:45Z</time>
      </trkpt>
      <trkpt lat="42.8769" lon="0.00931">
        <ele>781.1</ele>
        <time>2019-08-18T13:13:46Z</time>
      </trkpt>
      <trkpt lat="42.87683" lon="0.00912">
        <ele>780.3</ele>
        <time>2019-08-18T13:13:47Z</time>
      </trkpt>
      <trkpt lat="42.87674" lon="0.00894">
        <ele>779.5</ele>
        <time>2019-08-18T13:13:48Z</time>
      </trkpt>
      <trkpt lat="42.87666" lon="0.00877">
        <ele>778.9</ele>
        <time>2019-08-18T13:13:49Z</time>
      </trkpt>
      <trkpt lat="42.87656" lon="0.00861">
        <ele>778.4</ele>
        <time>2019-08-18T13:13:50Z</time>
      </trkpt>
      <trkpt lat="42.87646" lon="0.00846">
        <ele>777.8</ele>
        <time>2019-08-18T13:13:51Z</time>
      </trkpt>
      <trkpt lat="42.87636" lon="0.00831">
        <ele>777.1</ele>
        <time>2019-08-18T13:13:52Z</time>
      </trkpt>
      <trkpt lat="42.87626" lon="0.00817">
        <ele>776.3</ele>
        <time>2019-08-18T13:13:53Z</time>
      </trkpt>
      <trkpt lat="42.87616" lon="0.00804">
        <ele>775.6</ele>
        <time>2019-08-18T13:13:54Z</time>
      </trkpt>
      <trkpt lat="42.87607" lon="0.00791">
        <ele>774.7</ele>
        <time>2019-08-18T13:13:55Z</time>
      </trkpt>
      <trkpt lat="42.87598" lon="0.00778">
        <ele>773.9</ele>
        <time>2019-08-18T13:13:56Z</time>
      </trkpt>
      <trkpt lat="42.8759" lon="0.00766">
        <ele>773</ele>
        <time>2019-08-18T13:13:57Z</time>
      </trkpt>
      <trkpt lat="42.87582" lon="0.00755">
        <ele>771.8</ele>
        <time>2019-08-18T13:13:58Z</time>
      </trkpt>
      <trkpt lat="42.87574" lon="0.00744">
        <ele>770.5</ele>
        <time>2019-08-18T13:13:59Z</time>
      </trkpt>
      <trkpt lat="42.87566" lon="0.00733">
        <ele>769</ele>
        <time>2019-08-18T13:14:00Z</time>
      </trkpt>
      <trkpt lat="42.87558" lon="0.00723">
        <ele>767.7</ele>
        <time>2019-08-18T13:14:01Z</time>
      </trkpt>
      <trkpt lat="42.87552" lon="0.00712">
        <ele>766.3</ele>
        <time>2019-08-18T13:14:02Z</time>
      </trkpt>
      <trkpt lat="42.87545" lon="0.00701">
        <ele>764.9</ele>
        <time>2019-08-18T13:14:03Z</time>
      </trkpt>
      <trkpt lat="42.87539" lon="0.00691">
        <ele>763.6</ele>
        <time>2019-08-18T13:14:04Z</time>
      </trkpt>
      <trkpt lat="42.87531" lon="0.0068">
        <ele>762.3</ele>
        <time>2019-08-18T13:14:05Z</time>
      </trkpt>
      <trkpt lat="42.87524" lon="0.0067">
        <ele>761.2</ele>
        <time>2019-08-18T13:14:06Z</time>
      </trkpt>
      <trkpt lat="42.87519" lon="0.00659">
        <ele>760.2</ele>
        <time>2019-08-18T13:14:07Z</time>
      </trkpt>
      <trkpt lat="42.87513" lon="0.0065">
        <ele>759.3</ele>
        <time>2019-08-18T13:14:08Z</time>
      </trkpt>
      <trkpt lat="42.87508" lon="0.00642">
        <ele>758.6</ele>
        <time>2019-08-18T13:14:09Z</time>
      </trkpt>
      <trkpt lat="42.87504" lon="0.00635">
        <ele>756.3</ele>
        <time>2019-08-18T13:14:10Z</time>
      </trkpt>
      <trkpt lat="42.87501" lon="0.00629">
        <ele>755.9</ele>
        <time>2019-08-18T13:14:11Z</time>
      </trkpt>
      <trkpt lat="42.87499" lon="0.00623">
        <ele>755.4</ele>
        <time>2019-08-18T13:14:12Z</time>
      </trkpt>
      <trkpt lat="42.87495" lon="0.00617">
        <ele>754.9</ele>
        <time>2019-08-18T13:14:13Z</time>
      </trkpt>
      <trkpt lat="42.87492" lon="0.00613">
        <ele>754.5</ele>
        <time>2019-08-18T13:14:14Z</time>
      </trkpt>
      <trkpt lat="42.87487" lon="0.00608">
        <ele>754.1</ele>
        <time>2019-08-18T13:14:15Z</time>
      </trkpt>
      <trkpt lat="42.87483" lon="0.00603">
        <ele>753.5</ele>
        <time>2019-08-18T13:14:16Z</time>
      </trkpt>
      <trkpt lat="42.87479" lon="0.00597">
        <ele>753</ele>
        <time>2019-08-18T13:14:17Z</time>
      </trkpt>
      <trkpt lat="42.87474" lon="0.0059">
        <ele>752.5</ele>
        <time>2019-08-18T13:14:18Z</time>
      </trkpt>
      <trkpt lat="42.8747" lon="0.00584">
        <ele>751.8</ele>
        <time>2019-08-18T13:14:19Z</time>
      </trkpt>
      <trkpt lat="42.87465" lon="0.00578">
        <ele>751.1</ele>
        <time>2019-08-18T13:14:20Z</time>
      </trkpt>
      <trkpt lat="42.87461" lon="0.00572">
        <ele>750.4</ele>
        <time>2019-08-18T13:14:21Z</time>
      </trkpt>
      <trkpt lat="42.87456" lon="0.00565">
        <ele>749.8</ele>
        <time>2019-08-18T13:14:22Z</time>
      </trkpt>
      <trkpt lat="42.87452" lon="0.00558">
        <ele>749.1</ele>
        <time>2019-08-18T13:14:23Z</time>
      </trkpt>
      <trkpt lat="42.87447" lon="0.0055">
        <ele>748.4</ele>
        <time>2019-08-18T13:14:24Z</time>
      </trkpt>
      <trkpt lat="42.87442" lon="0.00542">
        <ele>747.7</ele>
        <time>2019-08-18T13:14:25Z</time>
      </trkpt>
      <trkpt lat="42.87438" lon="0.00535">
        <ele>747.3</ele>
        <time>2019-08-18T13:14:26Z</time>
      </trkpt>
      <trkpt lat="42.87432" lon="0.0053">
        <ele>746.9</ele>
        <time>2019-08-18T13:14:27Z</time>
      </trkpt>
      <trkpt lat="42.87427" lon="0.00523">
        <ele>746.5</ele>
        <time>2019-08-18T13:14:28Z</time>
      </trkpt>
      <trkpt lat="42.87423" lon="0.00515">
        <ele>746</ele>
        <time>2019-08-18T13:14:29Z</time>
      </trkpt>
      <trkpt lat="42.8742" lon="0.00507">
        <ele>745.6</ele>
        <time>2019-08-18T13:14:30Z</time>
      </trkpt>
      <trkpt lat="42.87416" lon="0.00498">
        <ele>745.2</ele>
        <time>2019-08-18T13:14:31Z</time>
      </trkpt>
      <trkpt lat="42.87413" lon="0.00489">
        <ele>744.8</ele>
        <time>2019-08-18T13:14:32Z</time>
      </trkpt>
      <trkpt lat="42.8741" lon="0.00478">
        <ele>744.3</ele>
        <time>2019-08-18T13:14:33Z</time>
      </trkpt>
      <trkpt lat="42.87407" lon="0.00468">
        <ele>743.6</ele>
        <time>2019-08-18T13:14:34Z</time>
      </trkpt>
      <trkpt lat="42.87405" lon="0.00458">
        <ele>742.9</ele>
        <time>2019-08-18T13:14:35Z</time>
      </trkpt>
      <trkpt lat="42.87402" lon="0.00447">
        <ele>741.8</ele>
        <time>2019-08-18T13:14:36Z</time>
      </trkpt>
      <trkpt lat="42.87398" lon="0.00436">
        <ele>741.3</ele>
        <time>2019-08-18T13:14:37Z</time>
      </trkpt>
      <trkpt lat="42.87395" lon="0.00425">
        <ele>740.8</ele>
        <time>2019-08-18T13:14:38Z</time>
      </trkpt>
      <trkpt lat="42.87393" lon="0.00412">
        <ele>740.3</ele>
        <time>2019-08-18T13:14:39Z</time>
      </trkpt>
      <trkpt lat="42.87389" lon="0.00401">
        <ele>739.8</ele>
        <time>2019-08-18T13:14:40Z</time>
      </trkpt>
      <trkpt lat="42.87387" lon="0.0039">
        <ele>739.3</ele>
        <time>2019-08-18T13:14:41Z</time>
      </trkpt>
      <trkpt lat="42.87383" lon="0.00378">
        <ele>738.9</ele>
        <time>2019-08-18T13:14:42Z</time>
      </trkpt>
      <trkpt lat="42.8738" lon="0.00366">
        <ele>738.6</ele>
        <time>2019-08-18T13:14:43Z</time>
      </trkpt>
      <trkpt lat="42.87377" lon="0.00354">
        <ele>738.3</ele>
        <time>2019-08-18T13:14:44Z</time>
      </trkpt>
      <trkpt lat="42.87373" lon="0.00343">
        <ele>737.8</ele>
        <time>2019-08-18T13:14:45Z</time>
      </trkpt>
      <trkpt lat="42.87369" lon="0.00331">
        <ele>737.4</ele>
        <time>2019-08-18T13:14:46Z</time>
      </trkpt>
      <trkpt lat="42.87366" lon="0.00319">
        <ele>737</ele>
        <time>2019-08-18T13:14:47Z</time>
      </trkpt>
      <trkpt lat="42.87363" lon="0.00305">
        <ele>736.6</ele>
        <time>2019-08-18T13:14:48Z</time>
      </trkpt>
      <trkpt lat="42.87359" lon="0.00294">
        <ele>736.1</ele>
        <time>2019-08-18T13:14:49Z</time>
      </trkpt>
      <trkpt lat="42.87356" lon="0.00281">
        <ele>735.7</ele>
        <time>2019-08-18T13:14:50Z</time>
      </trkpt>
      <trkpt lat="42.87353" lon="0.00268">
        <ele>735.2</ele>
        <time>2019-08-18T13:14:51Z</time>
      </trkpt>
      <trkpt lat="42.8735" lon="0.00256">
        <ele>734.8</ele>
        <time>2019-08-18T13:14:52Z</time>
      </trkpt>
      <trkpt lat="42.87347" lon="0.00244">
        <ele>734.4</ele>
        <time>2019-08-18T13:14:53Z</time>
      </trkpt>
      <trkpt lat="42.87343" lon="0.00231">
        <ele>734</ele>
        <time>2019-08-18T13:14:54Z</time>
      </trkpt>
      <trkpt lat="42.8734" lon="0.00219">
        <ele>733.7</ele>
        <time>2019-08-18T13:14:55Z</time>
      </trkpt>
      <trkpt lat="42.87336" lon="0.00207">
        <ele>733.5</ele>
        <time>2019-08-18T13:14:56Z</time>
      </trkpt>
      <trkpt lat="42.87333" lon="0.00196">
        <ele>733.2</ele>
        <time>2019-08-18T13:14:57Z</time>
      </trkpt>
      <trkpt lat="42.8733" lon="0.00183">
        <ele>732.9</ele>
        <time>2019-08-18T13:14:58Z</time>
      </trkpt>
      <trkpt lat="42.87326" lon="0.00172">
        <ele>732.7</ele>
        <time>2019-08-18T13:14:59Z</time>
      </trkpt>
      <trkpt lat="42.87323" lon="0.00161">
        <ele>732.5</ele>
        <time>2019-08-18T13:15:00Z</time>
      </trkpt>
      <trkpt lat="42.87319" lon="0.0015">
        <ele>732.3</ele>
        <time>2019-08-18T13:15:01Z</time>
      </trkpt>
      <trkpt lat="42.87317" lon="0.00139">
        <ele>732.1</ele>
        <time>2019-08-18T13:15:02Z</time>
      </trkpt>
      <trkpt lat="42.87313" lon="0.00129">
        <ele>732</ele>
        <time>2019-08-18T13:15:03Z</time>
      </trkpt>
      <trkpt lat="42.87311" lon="0.00118">
        <ele>731.8</ele>
        <time>2019-08-18T13:15:04Z</time>
      </trkpt>
      <trkpt lat="42.87308" lon="0.00108">
        <ele>731.7</ele>
        <time>2019-08-18T13:15:05Z</time>
      </trkpt>
      <trkpt lat="42.87305" lon="0.00097">
        <ele>731.6</ele>
        <time>2019-08-18T13:15:06Z</time>
      </trkpt>
      <trkpt lat="42.87303" lon="0.00088">
        <ele>731.5</ele>
        <time>2019-08-18T13:15:07Z</time>
      </trkpt>
      <trkpt lat="42.87299" lon="0.00077">
        <ele>731.3</ele>
        <time>2019-08-18T13:15:08Z</time>
      </trkpt>
      <trkpt lat="42.87297" lon="0.00067">
        <ele>731.1</ele>
        <time>2019-08-18T13:15:09Z</time>
      </trkpt>
      <trkpt lat="42.87294" lon="0.00056">
        <ele>730.9</ele>
        <time>2019-08-18T13:15:10Z</time>
      </trkpt>
      <trkpt lat="42.87291" lon="0.00046">
        <ele>730.6</ele>
        <time>2019-08-18T13:15:11Z</time>
      </trkpt>
      <trkpt lat="42.87287" lon="0.00037">
        <ele>730.3</ele>
        <time>2019-08-18T13:15:12Z</time>
      </trkpt>
      <trkpt lat="42.87284" lon="0.00026">
        <ele>730</ele>
        <time>2019-08-18T13:15:13Z</time>
      </trkpt>
      <trkpt lat="42.87282" lon="0.00015">
        <ele>729.7</ele>
        <time>2019-08-18T13:15:14Z</time>
      </trkpt>
      <trkpt lat="42.87279" lon="4.0E-5">
        <ele>729.3</ele>
        <time>2019-08-18T13:15:15Z</time>
      </trkpt>
      <trkpt lat="42.87276" lon="-8.0E-5">
        <ele>728.3</ele>
        <time>2019-08-18T13:15:16Z</time>
      </trkpt>
      <trkpt lat="42.87273" lon="-0.0002">
        <ele>727.5</ele>
        <time>2019-08-18T13:15:17Z</time>
      </trkpt>
      <trkpt lat="42.8727" lon="-0.00031">
        <ele>726.8</ele>
        <time>2019-08-18T13:15:18Z</time>
      </trkpt>
      <trkpt lat="42.87267" lon="-0.00042">
        <ele>726.2</ele>
        <time>2019-08-18T13:15:19Z</time>
      </trkpt>
      <trkpt lat="42.87264" lon="-0.00053">
        <ele>725.6</ele>
        <time>2019-08-18T13:15:20Z</time>
      </trkpt>
      <trkpt lat="42.87261" lon="-0.00065">
        <ele>725.5</ele>
        <time>2019-08-18T13:15:21Z</time>
      </trkpt>
      <trkpt lat="42.87257" lon="-0.00076">
        <ele>725.3</ele>
        <time>2019-08-18T13:15:22Z</time>
      </trkpt>
      <trkpt lat="42.87254" lon="-0.00087">
        <ele>725.1</ele>
        <time>2019-08-18T13:15:23Z</time>
      </trkpt>
      <trkpt lat="42.8725" lon="-0.00099">
        <ele>725</ele>
        <time>2019-08-18T13:15:24Z</time>
      </trkpt>
      <trkpt lat="42.87247" lon="-0.00111">
        <ele>724.9</ele>
        <time>2019-08-18T13:15:25Z</time>
      </trkpt>
      <trkpt lat="42.87244" lon="-0.00122">
        <ele>724.8</ele>
        <time>2019-08-18T13:15:26Z</time>
      </trkpt>
      <trkpt lat="42.87241" lon="-0.00135">
        <ele>724.6</ele>
        <time>2019-08-18T13:15:27Z</time>
      </trkpt>
      <trkpt lat="42.87238" lon="-0.00146">
        <ele>724.3</ele>
        <time>2019-08-18T13:15:28Z</time>
      </trkpt>
      <trkpt lat="42.87235" lon="-0.00156">
        <ele>724</ele>
        <time>2019-08-18T13:15:29Z</time>
      </trkpt>
      <trkpt lat="42.87232" lon="-0.00165">
        <ele>723.7</ele>
        <time>2019-08-18T13:15:30Z</time>
      </trkpt>
      <trkpt lat="42.87232" lon="-0.00175">
        <ele>723.4</ele>
        <time>2019-08-18T13:15:31Z</time>
      </trkpt>
      <trkpt lat="42.87235" lon="-0.00184">
        <ele>722.7</ele>
        <time>2019-08-18T13:15:32Z</time>
      </trkpt>
      <trkpt lat="42.8724" lon="-0.00192">
        <ele>722.2</ele>
        <time>2019-08-18T13:15:33Z</time>
      </trkpt>
      <trkpt lat="42.87246" lon="-0.00203">
        <ele>721.6</ele>
        <time>2019-08-18T13:15:34Z</time>
      </trkpt>
      <trkpt lat="42.87252" lon="-0.00212">
        <ele>721</ele>
        <time>2019-08-18T13:15:35Z</time>
      </trkpt>
      <trkpt lat="42.87257" lon="-0.00222">
        <ele>720.2</ele>
        <time>2019-08-18T13:15:36Z</time>
      </trkpt>
      <trkpt lat="42.87264" lon="-0.00233">
        <ele>719.6</ele>
        <time>2019-08-18T13:15:37Z</time>
      </trkpt>
      <trkpt lat="42.8727" lon="-0.00245">
        <ele>718.8</ele>
        <time>2019-08-18T13:15:38Z</time>
      </trkpt>
      <trkpt lat="42.87277" lon="-0.00256">
        <ele>718</ele>
        <time>2019-08-18T13:15:39Z</time>
      </trkpt>
      <trkpt lat="42.87283" lon="-0.00268">
        <ele>717.3</ele>
        <time>2019-08-18T13:15:40Z</time>
      </trkpt>
      <trkpt lat="42.87289" lon="-0.00278">
        <ele>716.6</ele>
        <time>2019-08-18T13:15:41Z</time>
      </trkpt>
      <trkpt lat="42.87294" lon="-0.00287">
        <ele>715.5</ele>
        <time>2019-08-18T13:15:42Z</time>
      </trkpt>
      <trkpt lat="42.87299" lon="-0.00296">
        <ele>715.2</ele>
        <time>2019-08-18T13:15:43Z</time>
      </trkpt>
      <trkpt lat="42.87304" lon="-0.00303">
        <ele>714.9</ele>
        <time>2019-08-18T13:15:44Z</time>
      </trkpt>
      <trkpt lat="42.87306" lon="-0.00309">
        <ele>714.7</ele>
        <time>2019-08-18T13:15:45Z</time>
      </trkpt>
      <trkpt lat="42.87309" lon="-0.00314">
        <ele>714.5</ele>
        <time>2019-08-18T13:15:46Z</time>
      </trkpt>
      <trkpt lat="42.87313" lon="-0.00316">
        <ele>714.3</ele>
        <time>2019-08-18T13:15:47Z</time>
      </trkpt>
      <trkpt lat="42.87317" lon="-0.00316">
        <ele>714.2</ele>
        <time>2019-08-18T13:15:48Z</time>
      </trkpt>
    </trkseg>
  </trk>
</gpx>